<?xml version='1.0' encoding='UTF-8'?><gpx version="1.1" creator="JPX - https://github.com/jenetics/jpx" xmlns="http://www.topografix.com/GPX/1/1"><trk><trkseg><trkpt lat="37.1384370717338" lon="-1.839879376385685"><ele>36.0</ele><time>2026-04-21T07:46:21Z</time></trkpt><trkpt lat="37.138432942360936" lon="-1.8397673836484791"><ele>36.0</ele><time>2026-04-21T07:46:24Z</time></trkpt><trkpt lat="37.13848895361042" lon="-1.8397030765560909"><ele>36.0</ele><time>2026-04-21T07:46:26Z</time></trkpt><trkpt lat="37.13857132491337" lon="-1.8397129692284635"><ele>36.0</ele><time>2026-04-21T07:46:28Z</time></trkpt><trkpt lat="37.13864861749917" lon="-1.8397258179571752"><ele>36.0</ele><time>2026-04-21T07:46:31Z</time></trkpt><trkpt lat="37.13868299722877" lon="-1.8396426614835748"><ele>36.0</ele><time>2026-04-21T07:46:38Z</time></trkpt><trkpt lat="37.138686360484414" lon="-1.8395447808012093"><ele>36.0</ele><time>2026-04-21T07:46:40Z</time></trkpt><trkpt lat="37.138604774182205" lon="-1.839482396622309"><ele>36.0</ele><time>2026-04-21T07:46:42Z</time></trkpt><trkpt lat="37.13851876940254" lon="-1.839459595069346"><ele>36.0</ele><time>2026-04-21T07:46:43Z</time></trkpt><trkpt lat="37.1384168876746" lon="-1.8394471570219257"><ele>36.0</ele><time>2026-04-21T07:46:44Z</time></trkpt><trkpt lat="37.13830890052331" lon="-1.8394550252016426"><ele>36.0</ele><time>2026-04-21T07:46:45Z</time></trkpt><trkpt lat="37.13819204126895" lon="-1.839480411837433"><ele>35.0</ele><time>2026-04-21T07:46:46Z</time></trkpt><trkpt lat="37.138064901456055" lon="-1.8395013506802815"><ele>34.0</ele><time>2026-04-21T07:46:47Z</time></trkpt><trkpt lat="37.137928399226496" lon="-1.8395197582047143"><ele>33.0</ele><time>2026-04-21T07:46:48Z</time></trkpt><trkpt lat="37.13778416653755" lon="-1.8395402008190942"><ele>32.0</ele><time>2026-04-21T07:46:49Z</time></trkpt><trkpt lat="37.13763760064168" lon="-1.839564503881436"><ele>32.0</ele><time>2026-04-21T07:46:50Z</time></trkpt><trkpt lat="37.13749148594243" lon="-1.8395974399866095"><ele>32.0</ele><time>2026-04-21T07:46:51Z</time></trkpt><trkpt lat="37.137350904849825" lon="-1.8396328628514642"><ele>32.0</ele><time>2026-04-21T07:46:52Z</time></trkpt><trkpt lat="37.13721187590793" lon="-1.839661828428646"><ele>32.0</ele><time>2026-04-21T07:46:53Z</time></trkpt><trkpt lat="37.13708619910265" lon="-1.8397150672295335"><ele>32.0</ele><time>2026-04-21T07:46:54Z</time></trkpt><trkpt lat="37.13696375371167" lon="-1.8397765772257038"><ele>32.0</ele><time>2026-04-21T07:46:55Z</time></trkpt><trkpt lat="37.13684255533707" lon="-1.83984427022655"><ele>32.0</ele><time>2026-04-21T07:46:56Z</time></trkpt><trkpt lat="37.1367236285373" lon="-1.8398950719863736"><ele>32.0</ele><time>2026-04-21T07:46:57Z</time></trkpt><trkpt lat="37.13661559889279" lon="-1.8399547167847974"><ele>31.833333333333332</ele><time>2026-04-21T07:46:58Z</time></trkpt><trkpt lat="37.136520878469994" lon="-1.840028200477515"><ele>31.666666666666664</ele><time>2026-04-21T07:46:59Z</time></trkpt><trkpt lat="37.13644479658134" lon="-1.840101962675906"><ele>31.5</ele><time>2026-04-21T07:47:00Z</time></trkpt><trkpt lat="37.13641048202447" lon="-1.8401890624816752"><ele>31.333333333333336</ele><time>2026-04-21T07:47:01Z</time></trkpt><trkpt lat="37.136395774959354" lon="-1.840278962129058"><ele>31.166666666666668</ele><time>2026-04-21T07:47:02Z</time></trkpt><trkpt lat="37.13638911801092" lon="-1.8403845871876274"><ele>31.0</ele><time>2026-04-21T07:47:03Z</time></trkpt><trkpt lat="37.13637054677048" lon="-1.8404922435723257"><ele>32.6</ele><time>2026-04-21T07:47:04Z</time></trkpt><trkpt lat="37.13633456913009" lon="-1.8405929556780416"><ele>34.2</ele><time>2026-04-21T07:47:05Z</time></trkpt><trkpt lat="37.13628621343324" lon="-1.8406848905919126"><ele>35.8</ele><time>2026-04-21T07:47:06Z</time></trkpt><trkpt lat="37.136185288010424" lon="-1.8407173113156636"><ele>37.4</ele><time>2026-04-21T07:47:07Z</time></trkpt><trkpt lat="37.13606622512162" lon="-1.8407503233163947"><ele>39.0</ele><time>2026-04-21T07:47:08Z</time></trkpt><trkpt lat="37.135953900249284" lon="-1.8408179055079947"><ele>39.0</ele><time>2026-04-21T07:47:09Z</time></trkpt><trkpt lat="37.13586191446396" lon="-1.8409109988726724"><ele>39.0</ele><time>2026-04-21T07:47:10Z</time></trkpt><trkpt lat="37.13577742754504" lon="-1.8410144806345252"><ele>39.0</ele><time>2026-04-21T07:47:11Z</time></trkpt><trkpt lat="37.135686489818" lon="-1.8411165924099577"><ele>39.0</ele><time>2026-04-21T07:47:12Z</time></trkpt><trkpt lat="37.135586232135616" lon="-1.841213487384457"><ele>41.75</ele><time>2026-04-21T07:47:13Z</time></trkpt><trkpt lat="37.13548360659735" lon="-1.8413085565982767"><ele>44.5</ele><time>2026-04-21T07:47:14Z</time></trkpt><trkpt lat="37.135377661015376" lon="-1.841396260373056"><ele>47.25</ele><time>2026-04-21T07:47:15Z</time></trkpt><trkpt lat="37.13526297913624" lon="-1.8414704486353"><ele>50.0</ele><time>2026-04-21T07:47:16Z</time></trkpt><trkpt lat="37.135149786382364" lon="-1.841539137573891"><ele>50.0</ele><time>2026-04-21T07:47:17Z</time></trkpt><trkpt lat="37.135040434056556" lon="-1.8416020700021072"><ele>50.0</ele><time>2026-04-21T07:47:18Z</time></trkpt><trkpt lat="37.13492995636439" lon="-1.8416641907274742"><ele>50.0</ele><time>2026-04-21T07:47:19Z</time></trkpt><trkpt lat="37.13481310195046" lon="-1.8417231613484435"><ele>50.0</ele><time>2026-04-21T07:47:20Z</time></trkpt><trkpt lat="37.134690989251496" lon="-1.8417834998277869"><ele>51.0</ele><time>2026-04-21T07:47:21Z</time></trkpt><trkpt lat="37.1345637482503" lon="-1.841836914642254"><ele>52.0</ele><time>2026-04-21T07:47:22Z</time></trkpt><trkpt lat="37.134427070213015" lon="-1.8418694070209292"><ele>53.0</ele><time>2026-04-21T07:47:23Z</time></trkpt><trkpt lat="37.13428800504063" lon="-1.8418946813037391"><ele>54.0</ele><time>2026-04-21T07:47:24Z</time></trkpt><trkpt lat="37.13414702984874" lon="-1.8419144385003596"><ele>53.25</ele><time>2026-04-21T07:47:25Z</time></trkpt><trkpt lat="37.1340013677145" lon="-1.8419304073090657"><ele>52.5</ele><time>2026-04-21T07:47:26Z</time></trkpt><trkpt lat="37.13385642539929" lon="-1.8419348149916048"><ele>51.75</ele><time>2026-04-21T07:47:27Z</time></trkpt><trkpt lat="37.133708098362035" lon="-1.8419179796218226"><ele>51.0</ele><time>2026-04-21T07:47:28Z</time></trkpt><trkpt lat="37.1335559555832" lon="-1.8418808101699067"><ele>51.0</ele><time>2026-04-21T07:47:29Z</time></trkpt><trkpt lat="37.13339555134117" lon="-1.8418318925018975"><ele>51.0</ele><time>2026-04-21T07:47:30Z</time></trkpt><trkpt lat="37.133224832795406" lon="-1.8417606966748459"><ele>51.0</ele><time>2026-04-21T07:47:31Z</time></trkpt><trkpt lat="37.13304189376498" lon="-1.8416686309601713"><ele>49.0</ele><time>2026-04-21T07:47:32Z</time></trkpt><trkpt lat="37.13286321396371" lon="-1.8415683409927328"><ele>47.0</ele><time>2026-04-21T07:47:33Z</time></trkpt><trkpt lat="37.13269144335255" lon="-1.84146849311525"><ele>45.0</ele><time>2026-04-21T07:47:34Z</time></trkpt><trkpt lat="37.13250606260461" lon="-1.841386448106749"><ele>45.666666666666664</ele><time>2026-04-21T07:47:35Z</time></trkpt><trkpt lat="37.13233024339303" lon="-1.8413185082250583"><ele>46.33333333333333</ele><time>2026-04-21T07:47:36Z</time></trkpt><trkpt lat="37.13216423123284" lon="-1.8412342298080266"><ele>47.0</ele><time>2026-04-21T07:47:37Z</time></trkpt><trkpt lat="37.13200219723568" lon="-1.8411557517825201"><ele>47.0</ele><time>2026-04-21T07:47:38Z</time></trkpt><trkpt lat="37.13184365193601" lon="-1.8410936702618004"><ele>47.0</ele><time>2026-04-21T07:47:39Z</time></trkpt><trkpt lat="37.13165936789705" lon="-1.8410403270836073"><ele>47.0</ele><time>2026-04-21T07:47:40Z</time></trkpt><trkpt lat="37.13146807987582" lon="-1.8410244975713888"><ele>45.0</ele><time>2026-04-21T07:47:41Z</time></trkpt><trkpt lat="37.13125985101322" lon="-1.8410342992250135"><ele>43.0</ele><time>2026-04-21T07:47:42Z</time></trkpt><trkpt lat="37.13106266125406" lon="-1.8410933911634262"><ele>41.0</ele><time>2026-04-21T07:47:43Z</time></trkpt><trkpt lat="37.130872931491815" lon="-1.84117361627174"><ele>39.666666666666664</ele><time>2026-04-21T07:47:44Z</time></trkpt><trkpt lat="37.13070663747575" lon="-1.8413002762532207"><ele>38.333333333333336</ele><time>2026-04-21T07:47:45Z</time></trkpt><trkpt lat="37.13054547322707" lon="-1.841439332081337"><ele>37.0</ele><time>2026-04-21T07:47:46Z</time></trkpt><trkpt lat="37.130384637543735" lon="-1.8415809045820055"><ele>37.0</ele><time>2026-04-21T07:47:47Z</time></trkpt><trkpt lat="37.13021784960399" lon="-1.8417085096561465"><ele>37.0</ele><time>2026-04-21T07:47:48Z</time></trkpt><trkpt lat="37.13004963492594" lon="-1.8418415630389122"><ele>37.0</ele><time>2026-04-21T07:47:49Z</time></trkpt><trkpt lat="37.12988064576732" lon="-1.8419607036582186"><ele>37.66666666666667</ele><time>2026-04-21T07:47:50Z</time></trkpt><trkpt lat="37.1297233748568" lon="-1.842088742862279"><ele>38.333333333333336</ele><time>2026-04-21T07:47:51Z</time></trkpt><trkpt lat="37.12958147674796" lon="-1.8422327301886128"><ele>39.0</ele><time>2026-04-21T07:47:52Z</time></trkpt><trkpt lat="37.12943140236556" lon="-1.8423589719951026"><ele>39.0</ele><time>2026-04-21T07:47:53Z</time></trkpt><trkpt lat="37.12928597086354" lon="-1.8424896963745105"><ele>39.0</ele><time>2026-04-21T07:47:54Z</time></trkpt><trkpt lat="37.12912436681769" lon="-1.8425916915391058"><ele>39.0</ele><time>2026-04-21T07:47:55Z</time></trkpt><trkpt lat="37.12896396134888" lon="-1.842695814120817"><ele>43.0</ele><time>2026-04-21T07:47:56Z</time></trkpt><trkpt lat="37.12879454264143" lon="-1.8427771913391051"><ele>47.0</ele><time>2026-04-21T07:47:57Z</time></trkpt><trkpt lat="37.12863022751324" lon="-1.8428391437721205"><ele>51.0</ele><time>2026-04-21T07:47:58Z</time></trkpt><trkpt lat="37.12846275084337" lon="-1.8428848409831675"><ele>51.0</ele><time>2026-04-21T07:47:59Z</time></trkpt><trkpt lat="37.12829681987208" lon="-1.8429203614058598"><ele>51.0</ele><time>2026-04-21T07:48:00Z</time></trkpt><trkpt lat="37.1281291093997" lon="-1.8429490874409795"><ele>51.0</ele><time>2026-04-21T07:48:01Z</time></trkpt><trkpt lat="37.12796103793836" lon="-1.8429515296056784"><ele>52.0</ele><time>2026-04-21T07:48:02Z</time></trkpt><trkpt lat="37.12779024448389" lon="-1.842967542134021"><ele>53.0</ele><time>2026-04-21T07:48:02.999Z</time></trkpt><trkpt lat="37.12762508539045" lon="-1.8429747009823092"><ele>54.0</ele><time>2026-04-21T07:48:03.999Z</time></trkpt><trkpt lat="37.12745894371499" lon="-1.8429705455008398"><ele>52.5</ele><time>2026-04-21T07:48:04.999Z</time></trkpt><trkpt lat="37.12729976846715" lon="-1.8429524711250609"><ele>51.0</ele><time>2026-04-21T07:48:05.999Z</time></trkpt><trkpt lat="37.12715173202105" lon="-1.8429364608159988"><ele>49.5</ele><time>2026-04-21T07:48:06.999Z</time></trkpt><trkpt lat="37.127039224821495" lon="-1.8429305100328122"><ele>48.0</ele><time>2026-04-21T07:48:07.999Z</time></trkpt><trkpt lat="37.12693524099841" lon="-1.84291317475523"><ele>48.0</ele><time>2026-04-21T07:48:08.999Z</time></trkpt><trkpt lat="37.126853715437434" lon="-1.8428957864373121"><ele>48.0</ele><time>2026-04-21T07:48:09.999Z</time></trkpt><trkpt lat="37.12676368653413" lon="-1.842917840325855"><ele>48.0</ele><time>2026-04-21T07:48:10.999Z</time></trkpt><trkpt lat="37.126683520447784" lon="-1.8429532133430084"><ele>48.0</ele><time>2026-04-21T07:48:11.999Z</time></trkpt><trkpt lat="37.126607099413754" lon="-1.842980878920514"><ele>48.0</ele><time>2026-04-21T07:48:12.999Z</time></trkpt><trkpt lat="37.126529698663106" lon="-1.8430114108218987"><ele>48.0</ele><time>2026-04-21T07:48:13.999Z</time></trkpt><trkpt lat="37.12644819360702" lon="-1.8429856738519643"><ele>46.75</ele><time>2026-04-21T07:48:14.999Z</time></trkpt><trkpt lat="37.12636568943542" lon="-1.842919353172096"><ele>45.5</ele><time>2026-04-21T07:48:15.999Z</time></trkpt><trkpt lat="37.126270222648316" lon="-1.8428329744549485"><ele>44.25</ele><time>2026-04-21T07:48:16.999Z</time></trkpt><trkpt lat="37.12615208508114" lon="-1.842760766491005"><ele>43.0</ele><time>2026-04-21T07:48:17.999Z</time></trkpt><trkpt lat="37.12600052576636" lon="-1.842745770349211"><ele>43.0</ele><time>2026-04-21T07:48:18.999Z</time></trkpt><trkpt lat="37.12581344644719" lon="-1.8427361968844926"><ele>43.0</ele><time>2026-04-21T07:48:19.999Z</time></trkpt><trkpt lat="37.125615438575196" lon="-1.8427252093516147"><ele>43.0</ele><time>2026-04-21T07:48:20.999Z</time></trkpt><trkpt lat="37.12542193378236" lon="-1.842709737892731"><ele>44.0</ele><time>2026-04-21T07:48:21.999Z</time></trkpt><trkpt lat="37.12523899331756" lon="-1.8426949351619708"><ele>45.0</ele><time>2026-04-21T07:48:22.999Z</time></trkpt><trkpt lat="37.12505419578903" lon="-1.8426715429399103"><ele>46.0</ele><time>2026-04-21T07:48:23.999Z</time></trkpt><trkpt lat="37.12487917342478" lon="-1.8426696634708022"><ele>44.66666666666667</ele><time>2026-04-21T07:48:24.999Z</time></trkpt><trkpt lat="37.124707690118825" lon="-1.842629951204906"><ele>43.333333333333336</ele><time>2026-04-21T07:48:25.999Z</time></trkpt><trkpt lat="37.12452715514128" lon="-1.8425871808523353"><ele>42.0</ele><time>2026-04-21T07:48:26.999Z</time></trkpt><trkpt lat="37.12435643172896" lon="-1.842529820063922"><ele>42.0</ele><time>2026-04-21T07:48:27.999Z</time></trkpt><trkpt lat="37.124174144865215" lon="-1.8424526672466566"><ele>42.0</ele><time>2026-04-21T07:48:28.999Z</time></trkpt><trkpt lat="37.12399672386024" lon="-1.8423954790505201"><ele>42.0</ele><time>2026-04-21T07:48:29.999Z</time></trkpt><trkpt lat="37.12383945298783" lon="-1.8423569959696746"><ele>42.666666666666664</ele><time>2026-04-21T07:48:30.999Z</time></trkpt><trkpt lat="37.12366952821637" lon="-1.8423174859611275"><ele>43.33333333333333</ele><time>2026-04-21T07:48:31.999Z</time></trkpt><trkpt lat="37.123525115887816" lon="-1.8423020881535743"><ele>44.0</ele><time>2026-04-21T07:48:32.999Z</time></trkpt><trkpt lat="37.12338022727715" lon="-1.8423282725741459"><ele>44.0</ele><time>2026-04-21T07:48:33.999Z</time></trkpt><trkpt lat="37.12321820417311" lon="-1.8423764999305339"><ele>44.0</ele><time>2026-04-21T07:48:34.999Z</time></trkpt><trkpt lat="37.12306780244839" lon="-1.842449886506207"><ele>44.0</ele><time>2026-04-21T07:48:35.999Z</time></trkpt><trkpt lat="37.12291874690911" lon="-1.8425395803938946"><ele>44.0</ele><time>2026-04-21T07:48:36.999Z</time></trkpt><trkpt lat="37.12277088140542" lon="-1.8426295948587168"><ele>44.0</ele><time>2026-04-21T07:48:37.999Z</time></trkpt><trkpt lat="37.12265118927655" lon="-1.8427355099691933"><ele>44.0</ele><time>2026-04-21T07:48:38.999Z</time></trkpt><trkpt lat="37.12256919579105" lon="-1.8428594770061308"><ele>44.0</ele><time>2026-04-21T07:48:39.999Z</time></trkpt><trkpt lat="37.12251394283665" lon="-1.8429522299317844"><ele>45.0</ele><time>2026-04-21T07:48:40.999Z</time></trkpt><trkpt lat="37.12248743672511" lon="-1.8430304871632108"><ele>46.0</ele><time>2026-04-21T07:48:41.999Z</time></trkpt><trkpt lat="37.12247424968524" lon="-1.843115865256321"><ele>47.0</ele><time>2026-04-21T07:48:42.999Z</time></trkpt><trkpt lat="37.12246560601462" lon="-1.843199688137467"><ele>48.0</ele><time>2026-04-21T07:48:43.999Z</time></trkpt><trkpt lat="37.12245447722934" lon="-1.8433437041439893"><ele>49.00000000000001</ele><time>2026-04-21T07:48:45.999Z</time></trkpt><trkpt lat="37.12237419161239" lon="-1.8434550164817547"><ele>50.0</ele><time>2026-04-21T07:48:47.999Z</time></trkpt><trkpt lat="37.122309918390336" lon="-1.8435035414331495"><ele>51.16666666666667</ele><time>2026-04-21T07:48:48.999Z</time></trkpt><trkpt lat="37.122232346983566" lon="-1.843544852678046"><ele>52.333333333333336</ele><time>2026-04-21T07:48:49.999Z</time></trkpt><trkpt lat="37.122159823555855" lon="-1.8435946573904491"><ele>53.5</ele><time>2026-04-21T07:48:50.999Z</time></trkpt><trkpt lat="37.122107208379276" lon="-1.843647900628978"><ele>54.66666666666667</ele><time>2026-04-21T07:48:51.999Z</time></trkpt><trkpt lat="37.122058167617155" lon="-1.8437084907152044"><ele>55.833333333333336</ele><time>2026-04-21T07:48:52.999Z</time></trkpt><trkpt lat="37.121985669252894" lon="-1.843769519208808"><ele>57.0</ele><time>2026-04-21T07:48:54.999Z</time></trkpt><trkpt lat="37.121919679060454" lon="-1.8438102041628193"><ele>57.0</ele><time>2026-04-21T07:48:57.999Z</time></trkpt><trkpt lat="37.12184948597307" lon="-1.8438920487220918"><ele>57.0</ele><time>2026-04-21T07:49:00.999Z</time></trkpt><trkpt lat="37.12179219827837" lon="-1.8439417366173936"><ele>57.0</ele><time>2026-04-21T07:49:03.999Z</time></trkpt><trkpt lat="37.12172297656108" lon="-1.8438489561567935"><ele>57.0</ele><time>2026-04-21T07:49:06.999Z</time></trkpt><trkpt lat="37.121723260524334" lon="-1.8437558686481035"><ele>57.0</ele><time>2026-04-21T07:49:07.999Z</time></trkpt><trkpt lat="37.12173430010464" lon="-1.843651416611227"><ele>57.0</ele><time>2026-04-21T07:49:08.999Z</time></trkpt><trkpt lat="37.12173496185827" lon="-1.8435708617055326"><ele>57.0</ele><time>2026-04-21T07:49:09.999Z</time></trkpt><trkpt lat="37.121716377611605" lon="-1.8434813707828468"><ele>56.99999999999999</ele><time>2026-04-21T07:49:10.999Z</time></trkpt><trkpt lat="37.12169763701142" lon="-1.8433878638032541"><ele>57.0</ele><time>2026-04-21T07:49:11.999Z</time></trkpt><trkpt lat="37.12165473803207" lon="-1.843301677132352"><ele>57.0</ele><time>2026-04-21T07:49:12.999Z</time></trkpt><trkpt lat="37.12159750856881" lon="-1.8432467837602902"><ele>56.99999999999999</ele><time>2026-04-21T07:49:13.999Z</time></trkpt><trkpt lat="37.12153872717435" lon="-1.8431967373562474"><ele>57.0</ele><time>2026-04-21T07:49:14.999Z</time></trkpt><trkpt lat="37.12148423940867" lon="-1.8431385265479596"><ele>57.0</ele><time>2026-04-21T07:49:15.999Z</time></trkpt><trkpt lat="37.12145360327781" lon="-1.8430562946367461"><ele>55.833333333333336</ele><time>2026-04-21T07:49:16.999Z</time></trkpt><trkpt lat="37.121414414445816" lon="-1.842966232271166"><ele>54.66666666666667</ele><time>2026-04-21T07:49:17.999Z</time></trkpt><trkpt lat="37.121368693081585" lon="-1.842889333099588"><ele>53.5</ele><time>2026-04-21T07:49:18.999Z</time></trkpt><trkpt lat="37.12132073576585" lon="-1.8427993402687046"><ele>52.333333333333336</ele><time>2026-04-21T07:49:19.999Z</time></trkpt><trkpt lat="37.121246692411866" lon="-1.842733518301164"><ele>51.16666666666667</ele><time>2026-04-21T07:49:20.999Z</time></trkpt><trkpt lat="37.12115962830216" lon="-1.8427086101719201"><ele>50.0</ele><time>2026-04-21T07:49:22.002Z</time></trkpt><trkpt lat="37.121061987748085" lon="-1.8427108980823819"><ele>50.00000000000001</ele><time>2026-04-21T07:49:23.002Z</time></trkpt><trkpt lat="37.12097203850679" lon="-1.8427556723820862"><ele>50.0</ele><time>2026-04-21T07:49:24.002Z</time></trkpt><trkpt lat="37.120878211048584" lon="-1.842795159066769"><ele>50.0</ele><time>2026-04-21T07:49:25.002Z</time></trkpt><trkpt lat="37.120790935085274" lon="-1.8428224494662802"><ele>50.0</ele><time>2026-04-21T07:49:26.002Z</time></trkpt><trkpt lat="37.120710967575775" lon="-1.842841238975721"><ele>50.00000000000001</ele><time>2026-04-21T07:49:27.001Z</time></trkpt><trkpt lat="37.12063483992251" lon="-1.8428639522331705"><ele>50.0</ele><time>2026-04-21T07:49:28.001Z</time></trkpt><trkpt lat="37.120561718145744" lon="-1.8428726646342002"><ele>50.50000000000001</ele><time>2026-04-21T07:49:29.001Z</time></trkpt><trkpt lat="37.12048513333119" lon="-1.8428669006990097"><ele>51.0</ele><time>2026-04-21T07:49:30.001Z</time></trkpt><trkpt lat="37.120402913694235" lon="-1.8428773250669694"><ele>51.5</ele><time>2026-04-21T07:49:31.001Z</time></trkpt><trkpt lat="37.12031832536923" lon="-1.8428650363223154"><ele>52.0</ele><time>2026-04-21T07:49:32.001Z</time></trkpt><trkpt lat="37.12022587869356" lon="-1.8428627062134797"><ele>52.50000000000001</ele><time>2026-04-21T07:49:33.001Z</time></trkpt><trkpt lat="37.120123535039156" lon="-1.8428455530045544"><ele>53.0</ele><time>2026-04-21T07:49:34.001Z</time></trkpt><trkpt lat="37.120026462540984" lon="-1.8428389609844236"><ele>53.0</ele><time>2026-04-21T07:49:35.001Z</time></trkpt><trkpt lat="37.11992075855024" lon="-1.8428160782040124"><ele>53.0</ele><time>2026-04-21T07:49:36.001Z</time></trkpt><trkpt lat="37.11981827819202" lon="-1.8427824644004256"><ele>53.0</ele><time>2026-04-21T07:49:37.001Z</time></trkpt><trkpt lat="37.11972025050224" lon="-1.842758872119677"><ele>53.0</ele><time>2026-04-21T07:49:38.001Z</time></trkpt><trkpt lat="37.11963629292329" lon="-1.8427214196628912"><ele>53.0</ele><time>2026-04-21T07:49:39.001Z</time></trkpt><trkpt lat="37.1195643060604" lon="-1.8426790683305014"><ele>52.66666666666667</ele><time>2026-04-21T07:49:40.001Z</time></trkpt><trkpt lat="37.11949184796789" lon="-1.8426364219126692"><ele>52.333333333333336</ele><time>2026-04-21T07:49:41.001Z</time></trkpt><trkpt lat="37.11941825870943" lon="-1.8425861643855097"><ele>52.0</ele><time>2026-04-21T07:49:42.001Z</time></trkpt><trkpt lat="37.11933311607566" lon="-1.8425519631627882"><ele>51.66666666666667</ele><time>2026-04-21T07:49:43.001Z</time></trkpt><trkpt lat="37.119230710488566" lon="-1.8425370308026563"><ele>51.333333333333336</ele><time>2026-04-21T07:49:44.001Z</time></trkpt><trkpt lat="37.119167528520606" lon="-1.842526807393652"><ele>51.0</ele><time>2026-04-21T07:49:45.001Z</time></trkpt><trkpt lat="37.1190517741341" lon="-1.8424853600172677"><ele>51.0</ele><time>2026-04-21T07:49:47.001Z</time></trkpt><trkpt lat="37.11895782603546" lon="-1.8424624140320147"><ele>51.0</ele><time>2026-04-21T07:49:49.001Z</time></trkpt><trkpt lat="37.11889342943493" lon="-1.8425109889346956"><ele>51.0</ele><time>2026-04-21T07:49:51.001Z</time></trkpt><trkpt lat="37.118830823410704" lon="-1.842620985291454"><ele>51.0</ele><time>2026-04-21T07:49:53Z</time></trkpt><trkpt lat="37.11877138262205" lon="-1.8427205573124865"><ele>51.0</ele><time>2026-04-21T07:49:55Z</time></trkpt><trkpt lat="37.11872724861309" lon="-1.8428536374342852"><ele>50.833333333333336</ele><time>2026-04-21T07:49:57Z</time></trkpt><trkpt lat="37.11870837551413" lon="-1.8429369598705059"><ele>50.66666666666667</ele><time>2026-04-21T07:49:58Z</time></trkpt><trkpt lat="37.1186906959715" lon="-1.8430227695881791"><ele>50.5</ele><time>2026-04-21T07:49:59Z</time></trkpt><trkpt lat="37.11866746394954" lon="-1.843109526532518"><ele>50.333333333333336</ele><time>2026-04-21T07:50:00Z</time></trkpt><trkpt lat="37.11865835222635" lon="-1.843190232224686"><ele>50.16666666666667</ele><time>2026-04-21T07:50:01Z</time></trkpt><trkpt lat="37.11866827016692" lon="-1.8432796473443958"><ele>50.0</ele><time>2026-04-21T07:50:02Z</time></trkpt><trkpt lat="37.11867042971921" lon="-1.843408543811758"><ele>50.6</ele><time>2026-04-21T07:50:04Z</time></trkpt><trkpt lat="37.118602105425495" lon="-1.8435087904303193"><ele>51.2</ele><time>2026-04-21T07:50:06Z</time></trkpt><trkpt lat="37.118521013711984" lon="-1.8436114702223512"><ele>51.8</ele><time>2026-04-21T07:50:08Z</time></trkpt><trkpt lat="37.11841527432257" lon="-1.8437141923654157"><ele>52.4</ele><time>2026-04-21T07:50:10Z</time></trkpt><trkpt lat="37.118360199922066" lon="-1.8437654991922963"><ele>53.0</ele><time>2026-04-21T07:50:11Z</time></trkpt><trkpt lat="37.118277349432674" lon="-1.8438054727312965"><ele>51.599999999999994</ele><time>2026-04-21T07:50:13Z</time></trkpt><trkpt lat="37.11820594083015" lon="-1.8437650493521647"><ele>50.199999999999996</ele><time>2026-04-21T07:50:15Z</time></trkpt><trkpt lat="37.118199743531626" lon="-1.8436343149485577"><ele>48.8</ele><time>2026-04-21T07:50:17Z</time></trkpt><trkpt lat="37.11820672301277" lon="-1.8435132819378717"><ele>47.4</ele><time>2026-04-21T07:50:19Z</time></trkpt><trkpt lat="37.11821079554274" lon="-1.8433566794678862"><ele>46.0</ele><time>2026-04-21T07:50:21Z</time></trkpt><trkpt lat="37.11820310006894" lon="-1.8432437036942482"><ele>46.0</ele><time>2026-04-21T07:50:23Z</time></trkpt><trkpt lat="37.11815850171594" lon="-1.843182070465218"><ele>46.0</ele><time>2026-04-21T07:50:24Z</time></trkpt><trkpt lat="37.118070368551386" lon="-1.8431383483443669"><ele>46.0</ele><time>2026-04-21T07:50:25Z</time></trkpt><trkpt lat="37.11798123739208" lon="-1.843118980356088"><ele>46.0</ele><time>2026-04-21T07:50:26Z</time></trkpt><trkpt lat="37.117896943673244" lon="-1.8431140845892522"><ele>46.0</ele><time>2026-04-21T07:50:27Z</time></trkpt><trkpt lat="37.11781590057709" lon="-1.8431086014616325"><ele>46.0</ele><time>2026-04-21T07:50:28Z</time></trkpt><trkpt lat="37.11774290395827" lon="-1.8430896368972602"><ele>46.0</ele><time>2026-04-21T07:50:29Z</time></trkpt><trkpt lat="37.11766722928447" lon="-1.8430727336645758"><ele>46.0</ele><time>2026-04-21T07:50:30Z</time></trkpt><trkpt lat="37.117589214540125" lon="-1.8430353659893224"><ele>46.0</ele><time>2026-04-21T07:50:31Z</time></trkpt><trkpt lat="37.117506436522" lon="-1.8429991319942767"><ele>46.0</ele><time>2026-04-21T07:50:32Z</time></trkpt><trkpt lat="37.11740852703015" lon="-1.8429694538282715"><ele>46.0</ele><time>2026-04-21T07:50:33Z</time></trkpt><trkpt lat="37.11732330284282" lon="-1.8429542216145913"><ele>46.0</ele><time>2026-04-21T07:50:34Z</time></trkpt><trkpt lat="37.11724487146838" lon="-1.842946830546087"><ele>44.0</ele><time>2026-04-21T07:50:35Z</time></trkpt><trkpt lat="37.11717392563577" lon="-1.842894480240163"><ele>42.0</ele><time>2026-04-21T07:50:36Z</time></trkpt><trkpt lat="37.11711275877206" lon="-1.842821131513641"><ele>40.0</ele><time>2026-04-21T07:50:37Z</time></trkpt><trkpt lat="37.1170406252272" lon="-1.8427671266015668"><ele>38.0</ele><time>2026-04-21T07:50:38Z</time></trkpt><trkpt lat="37.116956536305594" lon="-1.8427327797603548"><ele>36.0</ele><time>2026-04-21T07:50:39Z</time></trkpt><trkpt lat="37.11686915632754" lon="-1.842725570866409"><ele>34.0</ele><time>2026-04-21T07:50:40Z</time></trkpt><trkpt lat="37.11678985147918" lon="-1.8427404963072909"><ele>33.99999999999999</ele><time>2026-04-21T07:50:41Z</time></trkpt><trkpt lat="37.1167126416232" lon="-1.8427468608101745"><ele>34.0</ele><time>2026-04-21T07:50:42Z</time></trkpt><trkpt lat="37.11663989709901" lon="-1.8427404262562186"><ele>34.0</ele><time>2026-04-21T07:50:43Z</time></trkpt><trkpt lat="37.11657339666723" lon="-1.8427126784000651"><ele>34.0</ele><time>2026-04-21T07:50:44Z</time></trkpt><trkpt lat="37.11651637249227" lon="-1.8426638877044166"><ele>34.0</ele><time>2026-04-21T07:50:45Z</time></trkpt><trkpt lat="37.11645919774468" lon="-1.8426196760261555"><ele>33.99999999999999</ele><time>2026-04-21T07:50:46Z</time></trkpt><trkpt lat="37.11639020859792" lon="-1.842587391393542"><ele>34.0</ele><time>2026-04-21T07:50:47Z</time></trkpt><trkpt lat="37.11631256128989" lon="-1.8425862840452756"><ele>33.16666666666667</ele><time>2026-04-21T07:50:48Z</time></trkpt><trkpt lat="37.1162325327181" lon="-1.8425948869843418"><ele>32.333333333333336</ele><time>2026-04-21T07:50:49Z</time></trkpt><trkpt lat="37.11614856108255" lon="-1.8426166552823888"><ele>31.5</ele><time>2026-04-21T07:50:50Z</time></trkpt><trkpt lat="37.11606851863964" lon="-1.842656844342455"><ele>30.666666666666664</ele><time>2026-04-21T07:50:51Z</time></trkpt><trkpt lat="37.115994672615045" lon="-1.842698973275347"><ele>29.833333333333332</ele><time>2026-04-21T07:50:52Z</time></trkpt><trkpt lat="37.115927626831045" lon="-1.8427341534312118"><ele>29.0</ele><time>2026-04-21T07:50:53Z</time></trkpt><trkpt lat="37.11586617190239" lon="-1.842769191558743"><ele>28.999999999999996</ele><time>2026-04-21T07:50:54Z</time></trkpt><trkpt lat="37.11581513361646" lon="-1.8428193890545723"><ele>29.0</ele><time>2026-04-21T07:50:55Z</time></trkpt><trkpt lat="37.11570889980103" lon="-1.8428774527005307"><ele>29.0</ele><time>2026-04-21T07:50:57Z</time></trkpt><trkpt lat="37.11559251009341" lon="-1.842878735161053"><ele>29.0</ele><time>2026-04-21T07:50:59Z</time></trkpt><trkpt lat="37.11553147236134" lon="-1.842849876187925"><ele>28.999999999999996</ele><time>2026-04-21T07:51:00Z</time></trkpt><trkpt lat="37.11546396829709" lon="-1.8428142624743198"><ele>29.0</ele><time>2026-04-21T07:51:01Z</time></trkpt><trkpt lat="37.115387671329756" lon="-1.842788783453801"><ele>29.0</ele><time>2026-04-21T07:51:02Z</time></trkpt><trkpt lat="37.11530012415621" lon="-1.8427676109346558"><ele>29.0</ele><time>2026-04-21T07:51:03Z</time></trkpt><trkpt lat="37.11520944930579" lon="-1.8427566365078725"><ele>29.0</ele><time>2026-04-21T07:51:04Z</time></trkpt><trkpt lat="37.11511703122098" lon="-1.8427360259697185"><ele>29.0</ele><time>2026-04-21T07:51:05Z</time></trkpt><trkpt lat="37.11502684414714" lon="-1.8427016242919552"><ele>29.0</ele><time>2026-04-21T07:51:06Z</time></trkpt><trkpt lat="37.11494358339963" lon="-1.8426566490986456"><ele>26.0</ele><time>2026-04-21T07:51:07Z</time></trkpt><trkpt lat="37.114867924551184" lon="-1.8426005538463783"><ele>23.0</ele><time>2026-04-21T07:51:08Z</time></trkpt><trkpt lat="37.11481174553484" lon="-1.842516045425367"><ele>20.0</ele><time>2026-04-21T07:51:09Z</time></trkpt><trkpt lat="37.11476533325317" lon="-1.8424132586885682"><ele>17.0</ele><time>2026-04-21T07:51:10Z</time></trkpt><trkpt lat="37.114714989911796" lon="-1.8423039841026383"><ele>14.0</ele><time>2026-04-21T07:51:11Z</time></trkpt><trkpt lat="37.114659142201546" lon="-1.8421974743140417"><ele>14.0</ele><time>2026-04-21T07:51:12Z</time></trkpt><trkpt lat="37.11459831380462" lon="-1.8420902345842702"><ele>13.999999999999998</ele><time>2026-04-21T07:51:13Z</time></trkpt><trkpt lat="37.114540560629486" lon="-1.8419835108043627"><ele>13.999999999999998</ele><time>2026-04-21T07:51:14Z</time></trkpt><trkpt lat="37.11447864093618" lon="-1.8418944400937172"><ele>14.0</ele><time>2026-04-21T07:51:15Z</time></trkpt><trkpt lat="37.114417808087104" lon="-1.8418125510069567"><ele>14.0</ele><time>2026-04-21T07:51:16Z</time></trkpt><trkpt lat="37.11435859107144" lon="-1.841740358263144"><ele>13.799999999999999</ele><time>2026-04-21T07:51:17Z</time></trkpt><trkpt lat="37.114307005406076" lon="-1.8416716874778742"><ele>13.599999999999998</ele><time>2026-04-21T07:51:18Z</time></trkpt><trkpt lat="37.114265470967794" lon="-1.8416102747401248"><ele>13.4</ele><time>2026-04-21T07:51:19Z</time></trkpt><trkpt lat="37.11419035315593" lon="-1.8415005187701736"><ele>13.2</ele><time>2026-04-21T07:51:21Z</time></trkpt><trkpt lat="37.11408447886355" lon="-1.8414121260415157"><ele>13.0</ele><time>2026-04-21T07:51:23Z</time></trkpt><trkpt lat="37.1140041562274" lon="-1.841410296260829"><ele>12.4</ele><time>2026-04-21T07:51:24Z</time></trkpt><trkpt lat="37.113919731371055" lon="-1.8414565911940264"><ele>11.8</ele><time>2026-04-21T07:51:25Z</time></trkpt><trkpt lat="37.11383388494594" lon="-1.8415246470938376"><ele>11.2</ele><time>2026-04-21T07:51:26Z</time></trkpt><trkpt lat="37.113747173009585" lon="-1.8415932835931628"><ele>10.6</ele><time>2026-04-21T07:51:27Z</time></trkpt><trkpt lat="37.11365741016442" lon="-1.841646014107443"><ele>10.0</ele><time>2026-04-21T07:51:28Z</time></trkpt><trkpt lat="37.113576329595624" lon="-1.841695893221598"><ele>10.0</ele><time>2026-04-21T07:51:29Z</time></trkpt><trkpt lat="37.113502735915134" lon="-1.8417411018822882"><ele>10.0</ele><time>2026-04-21T07:51:30Z</time></trkpt><trkpt lat="37.11343892713941" lon="-1.8417995671380032"><ele>10.0</ele><time>2026-04-21T07:51:31Z</time></trkpt><trkpt lat="37.11337441622984" lon="-1.8418510184349255"><ele>10.0</ele><time>2026-04-21T07:51:32Z</time></trkpt><trkpt lat="37.113303707649216" lon="-1.8419052854784894"><ele>10.0</ele><time>2026-04-21T07:51:33Z</time></trkpt><trkpt lat="37.113222021504534" lon="-1.841969493877041"><ele>10.0</ele><time>2026-04-21T07:51:34Z</time></trkpt><trkpt lat="37.11312963262943" lon="-1.842040027347681"><ele>8.75</ele><time>2026-04-21T07:51:35Z</time></trkpt><trkpt lat="37.11302915084547" lon="-1.8421146263375963"><ele>7.5</ele><time>2026-04-21T07:51:36Z</time></trkpt><trkpt lat="37.11292172760901" lon="-1.8421968747855093"><ele>6.25</ele><time>2026-04-21T07:51:37Z</time></trkpt><trkpt lat="37.11280796933569" lon="-1.8422812767738157"><ele>5.0</ele><time>2026-04-21T07:51:38Z</time></trkpt><trkpt lat="37.11269345655986" lon="-1.8423688696325813"><ele>5.0</ele><time>2026-04-21T07:51:39Z</time></trkpt><trkpt lat="37.11257768809572" lon="-1.8424542793390244"><ele>5.0</ele><time>2026-04-21T07:51:40Z</time></trkpt><trkpt lat="37.112459916535315" lon="-1.8425449200481392"><ele>5.0</ele><time>2026-04-21T07:51:41Z</time></trkpt><trkpt lat="37.11233556370157" lon="-1.8426305471175264"><ele>5.0</ele><time>2026-04-21T07:51:42Z</time></trkpt><trkpt lat="37.11221256566233" lon="-1.8427256884212155"><ele>6.0</ele><time>2026-04-21T07:51:43Z</time></trkpt><trkpt lat="37.112087058089664" lon="-1.8428264947869155"><ele>7.0</ele><time>2026-04-21T07:51:44Z</time></trkpt><trkpt lat="37.11196128228028" lon="-1.8429280020142145"><ele>8.0</ele><time>2026-04-21T07:51:45Z</time></trkpt><trkpt lat="37.11183876912403" lon="-1.8430280367364507"><ele>9.0</ele><time>2026-04-21T07:51:46Z</time></trkpt><trkpt lat="37.111722265247096" lon="-1.8431295167934942"><ele>9.0</ele><time>2026-04-21T07:51:47Z</time></trkpt><trkpt lat="37.11160699849508" lon="-1.843229152406189"><ele>9.0</ele><time>2026-04-21T07:51:48Z</time></trkpt><trkpt lat="37.111491352567974" lon="-1.8433278870551173"><ele>9.0</ele><time>2026-04-21T07:51:49Z</time></trkpt><trkpt lat="37.11137416824618" lon="-1.8434246773530518"><ele>9.0</ele><time>2026-04-21T07:51:50Z</time></trkpt><trkpt lat="37.11125807320844" lon="-1.8435224502894814"><ele>9.25</ele><time>2026-04-21T07:51:51Z</time></trkpt><trkpt lat="37.11114270340823" lon="-1.8436192476671596"><ele>9.5</ele><time>2026-04-21T07:51:52Z</time></trkpt><trkpt lat="37.11102961343512" lon="-1.8437175883960515"><ele>9.75</ele><time>2026-04-21T07:51:53Z</time></trkpt><trkpt lat="37.110918986507485" lon="-1.8438140941143246"><ele>10.0</ele><time>2026-04-21T07:51:54Z</time></trkpt><trkpt lat="37.11080787026425" lon="-1.8439071002352394"><ele>8.75</ele><time>2026-04-21T07:51:55Z</time></trkpt><trkpt lat="37.110700064553484" lon="-1.8439990138164344"><ele>7.5</ele><time>2026-04-21T07:51:56Z</time></trkpt><trkpt lat="37.11058915041644" lon="-1.8440777596235045"><ele>6.25</ele><time>2026-04-21T07:51:57Z</time></trkpt><trkpt lat="37.11047350690148" lon="-1.8441454007471325"><ele>5.0</ele><time>2026-04-21T07:51:58Z</time></trkpt><trkpt lat="37.110357526465954" lon="-1.8442178464644883"><ele>5.0</ele><time>2026-04-21T07:51:59Z</time></trkpt><trkpt lat="37.110238520999374" lon="-1.844293936426528"><ele>5.0</ele><time>2026-04-21T07:52:00Z</time></trkpt><trkpt lat="37.11011388953776" lon="-1.8443666913479082"><ele>5.0</ele><time>2026-04-21T07:52:01Z</time></trkpt><trkpt lat="37.10998306268484" lon="-1.844435909355927"><ele>5.0</ele><time>2026-04-21T07:52:02Z</time></trkpt><trkpt lat="37.10985127375677" lon="-1.8445070096252116"><ele>5.25</ele><time>2026-04-21T07:52:03Z</time></trkpt><trkpt lat="37.10972005327254" lon="-1.8445792408266506"><ele>5.5</ele><time>2026-04-21T07:52:04Z</time></trkpt><trkpt lat="37.10959146195875" lon="-1.844649603456237"><ele>5.75</ele><time>2026-04-21T07:52:05Z</time></trkpt><trkpt lat="37.10947130746356" lon="-1.8447173268031891"><ele>6.0</ele><time>2026-04-21T07:52:06Z</time></trkpt><trkpt lat="37.109358255785445" lon="-1.844786096278461"><ele>6.0</ele><time>2026-04-21T07:52:07Z</time></trkpt><trkpt lat="37.109248620652814" lon="-1.8448529860069807"><ele>6.0</ele><time>2026-04-21T07:52:08Z</time></trkpt><trkpt lat="37.10914081469556" lon="-1.8449199729877703"><ele>6.0</ele><time>2026-04-21T07:52:09Z</time></trkpt><trkpt lat="37.10903387730639" lon="-1.8449970357348824"><ele>6.0</ele><time>2026-04-21T07:52:10Z</time></trkpt><trkpt lat="37.10892954778203" lon="-1.8450904328835789"><ele>7.0</ele><time>2026-04-21T07:52:11Z</time></trkpt><trkpt lat="37.10882687810901" lon="-1.845196316127076"><ele>8.0</ele><time>2026-04-21T07:52:12Z</time></trkpt><trkpt lat="37.10872334475856" lon="-1.845302577956423"><ele>9.0</ele><time>2026-04-21T07:52:13Z</time></trkpt><trkpt lat="37.10861880601269" lon="-1.8454138270707152"><ele>10.0</ele><time>2026-04-21T07:52:14Z</time></trkpt><trkpt lat="37.108511029485896" lon="-1.845527596235567"><ele>10.0</ele><time>2026-04-21T07:52:15Z</time></trkpt><trkpt lat="37.108400377535126" lon="-1.8456409825182059"><ele>10.0</ele><time>2026-04-21T07:52:16Z</time></trkpt><trkpt lat="37.10828310564694" lon="-1.8457493716410556"><ele>10.0</ele><time>2026-04-21T07:52:17Z</time></trkpt><trkpt lat="37.10816165902093" lon="-1.84586230993934"><ele>10.0</ele><time>2026-04-21T07:52:18Z</time></trkpt><trkpt lat="37.10802685336293" lon="-1.8459450549059526"><ele>12.333333333333334</ele><time>2026-04-21T07:52:19Z</time></trkpt><trkpt lat="37.107883915428566" lon="-1.8460008725841217"><ele>14.666666666666668</ele><time>2026-04-21T07:52:20Z</time></trkpt><trkpt lat="37.10773436498175" lon="-1.8460470172270338"><ele>17.0</ele><time>2026-04-21T07:52:21Z</time></trkpt><trkpt lat="37.10758350530829" lon="-1.8460912906815707"><ele>17.0</ele><time>2026-04-21T07:52:22Z</time></trkpt><trkpt lat="37.10743470186804" lon="-1.8461382055745081"><ele>17.0</ele><time>2026-04-21T07:52:23Z</time></trkpt><trkpt lat="37.10728848688164" lon="-1.8461915533322666"><ele>17.0</ele><time>2026-04-21T07:52:24Z</time></trkpt><trkpt lat="37.107149210753015" lon="-1.8462211474376942"><ele>17.0</ele><time>2026-04-21T07:52:25Z</time></trkpt><trkpt lat="37.107010942736146" lon="-1.8462489930552664"><ele>16.25</ele><time>2026-04-21T07:52:26Z</time></trkpt><trkpt lat="37.10686903587192" lon="-1.846281513907061"><ele>15.5</ele><time>2026-04-21T07:52:27Z</time></trkpt><trkpt lat="37.10673806448088" lon="-1.8463284961293527"><ele>14.75</ele><time>2026-04-21T07:52:28Z</time></trkpt><trkpt lat="37.106610979195445" lon="-1.846380121648971"><ele>14.0</ele><time>2026-04-21T07:52:29Z</time></trkpt><trkpt lat="37.10649483112766" lon="-1.8464247987346547"><ele>13.799999999999999</ele><time>2026-04-21T07:52:30Z</time></trkpt><trkpt lat="37.106378538794004" lon="-1.8464676336269952"><ele>13.599999999999998</ele><time>2026-04-21T07:52:31Z</time></trkpt><trkpt lat="37.10627183699934" lon="-1.8464991835623936"><ele>13.4</ele><time>2026-04-21T07:52:32Z</time></trkpt><trkpt lat="37.10616896474472" lon="-1.846536797242635"><ele>13.2</ele><time>2026-04-21T07:52:33Z</time></trkpt><trkpt lat="37.10606973439022" lon="-1.8465707049354327"><ele>13.0</ele><time>2026-04-21T07:52:34Z</time></trkpt><trkpt lat="37.105979571851535" lon="-1.8465928912384244"><ele>12.999999999999998</ele><time>2026-04-21T07:52:35Z</time></trkpt><trkpt lat="37.10589369999445" lon="-1.8466211807542516"><ele>13.0</ele><time>2026-04-21T07:52:36Z</time></trkpt><trkpt lat="37.105805333640745" lon="-1.8466365340763764"><ele>13.0</ele><time>2026-04-21T07:52:37Z</time></trkpt><trkpt lat="37.10571737622172" lon="-1.8466726743128878"><ele>13.0</ele><time>2026-04-21T07:52:38Z</time></trkpt><trkpt lat="37.10563784080379" lon="-1.8467182844340495"><ele>12.999999999999998</ele><time>2026-04-21T07:52:39Z</time></trkpt><trkpt lat="37.10557025869807" lon="-1.8467686732911721"><ele>13.0</ele><time>2026-04-21T07:52:40Z</time></trkpt><trkpt lat="37.10552006526448" lon="-1.846850445576229"><ele>14.600000000000001</ele><time>2026-04-21T07:52:41Z</time></trkpt><trkpt lat="37.10547291942947" lon="-1.846927060780292"><ele>16.200000000000003</ele><time>2026-04-21T07:52:42Z</time></trkpt><trkpt lat="37.10534361089029" lon="-1.846931878560756"><ele>17.8</ele><time>2026-04-21T07:52:44Z</time></trkpt><trkpt lat="37.10525645614667" lon="-1.8468848441448154"><ele>19.400000000000002</ele><time>2026-04-21T07:52:45Z</time></trkpt><trkpt lat="37.10514484929102" lon="-1.8468663698372538"><ele>21.0</ele><time>2026-04-21T07:52:46Z</time></trkpt><trkpt lat="37.10501470343311" lon="-1.8468611474487682"><ele>20.75</ele><time>2026-04-21T07:52:47Z</time></trkpt><trkpt lat="37.10488146853134" lon="-1.846891600700398"><ele>20.5</ele><time>2026-04-21T07:52:48Z</time></trkpt><trkpt lat="37.104744962933125" lon="-1.8469099278824703"><ele>20.25</ele><time>2026-04-21T07:52:49Z</time></trkpt><trkpt lat="37.10460816207393" lon="-1.8469140634252188"><ele>20.0</ele><time>2026-04-21T07:52:50Z</time></trkpt><trkpt lat="37.10447166244116" lon="-1.8469237734705328"><ele>20.0</ele><time>2026-04-21T07:52:51Z</time></trkpt><trkpt lat="37.104333398061584" lon="-1.8469387244887383"><ele>20.0</ele><time>2026-04-21T07:52:52Z</time></trkpt><trkpt lat="37.10418982778657" lon="-1.8469663618143413"><ele>20.0</ele><time>2026-04-21T07:52:53Z</time></trkpt><trkpt lat="37.10404305636774" lon="-1.8469864598907029"><ele>20.0</ele><time>2026-04-21T07:52:54Z</time></trkpt><trkpt lat="37.103898928940524" lon="-1.8470097382129873"><ele>18.0</ele><time>2026-04-21T07:52:55Z</time></trkpt><trkpt lat="37.103742467987544" lon="-1.8470372637513484"><ele>16.0</ele><time>2026-04-21T07:52:56Z</time></trkpt><trkpt lat="37.10358785423896" lon="-1.847062862398998"><ele>14.0</ele><time>2026-04-21T07:52:57Z</time></trkpt><trkpt lat="37.10343875671021" lon="-1.8470999335675689"><ele>14.0</ele><time>2026-04-21T07:52:58Z</time></trkpt><trkpt lat="37.103295869574715" lon="-1.8471070512341874"><ele>14.0</ele><time>2026-04-21T07:52:59Z</time></trkpt><trkpt lat="37.10316476261396" lon="-1.8471169589167606"><ele>14.0</ele><time>2026-04-21T07:53:00Z</time></trkpt><trkpt lat="37.103031573705266" lon="-1.8471453682900947"><ele>14.0</ele><time>2026-04-21T07:53:01Z</time></trkpt><trkpt lat="37.10289796015811" lon="-1.8471831158488865"><ele>12.75</ele><time>2026-04-21T07:53:02Z</time></trkpt><trkpt lat="37.10277018902498" lon="-1.84721586740134"><ele>11.5</ele><time>2026-04-21T07:53:03Z</time></trkpt><trkpt lat="37.10264410321301" lon="-1.8472370105620062"><ele>10.25</ele><time>2026-04-21T07:53:04Z</time></trkpt><trkpt lat="37.10250534236438" lon="-1.8472635495691652"><ele>9.0</ele><time>2026-04-21T07:53:05Z</time></trkpt><trkpt lat="37.10235075922203" lon="-1.8472982788287073"><ele>8.333333333333334</ele><time>2026-04-21T07:53:06Z</time></trkpt><trkpt lat="37.102196424859294" lon="-1.8473241066485744"><ele>7.666666666666667</ele><time>2026-04-21T07:53:07Z</time></trkpt><trkpt lat="37.10203261038452" lon="-1.8473414068825291"><ele>7.0</ele><time>2026-04-21T07:53:08Z</time></trkpt><trkpt lat="37.10188407936773" lon="-1.8473632584853634"><ele>7.0</ele><time>2026-04-21T07:53:09Z</time></trkpt><trkpt lat="37.10173519986289" lon="-1.8473749741640177"><ele>7.0</ele><time>2026-04-21T07:53:10Z</time></trkpt><trkpt lat="37.10159844265834" lon="-1.847382625165865"><ele>7.0</ele><time>2026-04-21T07:53:11Z</time></trkpt><trkpt lat="37.10147349385811" lon="-1.847389448119552"><ele>7.0</ele><time>2026-04-21T07:53:12Z</time></trkpt><trkpt lat="37.10135691054213" lon="-1.8473977521154061"><ele>6.5</ele><time>2026-04-21T07:53:13Z</time></trkpt><trkpt lat="37.10123384632655" lon="-1.8474085338797415"><ele>6.0</ele><time>2026-04-21T07:53:14Z</time></trkpt><trkpt lat="37.101097071181464" lon="-1.8473817957239196"><ele>5.5</ele><time>2026-04-21T07:53:14.999Z</time></trkpt><trkpt lat="37.10097352037457" lon="-1.8473985150623704"><ele>5.0</ele><time>2026-04-21T07:53:15.999Z</time></trkpt><trkpt lat="37.10084145906429" lon="-1.8474228728979936"><ele>4.666666666666667</ele><time>2026-04-21T07:53:16.999Z</time></trkpt><trkpt lat="37.100694948492965" lon="-1.8474691800729888"><ele>4.333333333333333</ele><time>2026-04-21T07:53:17.999Z</time></trkpt><trkpt lat="37.100539968316944" lon="-1.8475205026494148"><ele>4.0</ele><time>2026-04-21T07:53:18.999Z</time></trkpt><trkpt lat="37.100382443588416" lon="-1.8475785462154153"><ele>4.0</ele><time>2026-04-21T07:53:19.999Z</time></trkpt><trkpt lat="37.10023293534386" lon="-1.847620431570339"><ele>4.0</ele><time>2026-04-21T07:53:20.999Z</time></trkpt><trkpt lat="37.100088355280846" lon="-1.8476595120910466"><ele>4.0</ele><time>2026-04-21T07:53:21.999Z</time></trkpt><trkpt lat="37.09994752783179" lon="-1.8476974023776003"><ele>4.0</ele><time>2026-04-21T07:53:22.999Z</time></trkpt><trkpt lat="37.09981044009909" lon="-1.8477128145888944"><ele>4.75</ele><time>2026-04-21T07:53:23.999Z</time></trkpt><trkpt lat="37.099678620817166" lon="-1.8477369701383544"><ele>5.5</ele><time>2026-04-21T07:53:24.999Z</time></trkpt><trkpt lat="37.099563146646354" lon="-1.847774730948878"><ele>6.25</ele><time>2026-04-21T07:53:25.999Z</time></trkpt><trkpt lat="37.099452743031485" lon="-1.8478383938704472"><ele>7.0</ele><time>2026-04-21T07:53:26.999Z</time></trkpt><trkpt lat="37.099360380952305" lon="-1.8479428221750427"><ele>7.0</ele><time>2026-04-21T07:53:27.999Z</time></trkpt><trkpt lat="37.0992857536184" lon="-1.8480701265612933"><ele>7.0</ele><time>2026-04-21T07:53:28.999Z</time></trkpt><trkpt lat="37.09923112793647" lon="-1.8482220680284394"><ele>7.0</ele><time>2026-04-21T07:53:29.999Z</time></trkpt><trkpt lat="37.09918477999887" lon="-1.8483972747933968"><ele>7.0</ele><time>2026-04-21T07:53:30.999Z</time></trkpt><trkpt lat="37.09913168021716" lon="-1.8485768399707627"><ele>7.0</ele><time>2026-04-21T07:53:31.999Z</time></trkpt><trkpt lat="37.09907793982426" lon="-1.848765466975111"><ele>7.0</ele><time>2026-04-21T07:53:32.999Z</time></trkpt><trkpt lat="37.09900975238518" lon="-1.848955309870431"><ele>7.0</ele><time>2026-04-21T07:53:33.999Z</time></trkpt><trkpt lat="37.09894997193172" lon="-1.8491582459447822"><ele>9.333333333333334</ele><time>2026-04-21T07:53:34.999Z</time></trkpt><trkpt lat="37.09887805128016" lon="-1.849337581814659"><ele>11.666666666666668</ele><time>2026-04-21T07:53:35.999Z</time></trkpt><trkpt lat="37.09879801414368" lon="-1.8495038904919388"><ele>14.0</ele><time>2026-04-21T07:53:36.999Z</time></trkpt><trkpt lat="37.098712047995384" lon="-1.8496498290997818"><ele>14.0</ele><time>2026-04-21T07:53:37.999Z</time></trkpt><trkpt lat="37.09862966303041" lon="-1.8497832065373965"><ele>14.0</ele><time>2026-04-21T07:53:38.999Z</time></trkpt><trkpt lat="37.09854166678697" lon="-1.8499135492324876"><ele>14.0</ele><time>2026-04-21T07:53:39.999Z</time></trkpt><trkpt lat="37.098455381666476" lon="-1.8500333324542435"><ele>14.0</ele><time>2026-04-21T07:53:40.999Z</time></trkpt><trkpt lat="37.09837580615995" lon="-1.8501607452771263"><ele>14.25</ele><time>2026-04-21T07:53:41.999Z</time></trkpt><trkpt lat="37.098314912830126" lon="-1.8502838726533781"><ele>14.5</ele><time>2026-04-21T07:53:42.999Z</time></trkpt><trkpt lat="37.09825770932458" lon="-1.8504041102016249"><ele>14.75</ele><time>2026-04-21T07:53:43.999Z</time></trkpt><trkpt lat="37.09817670962843" lon="-1.8505294662088096"><ele>15.0</ele><time>2026-04-21T07:53:44.999Z</time></trkpt><trkpt lat="37.098093543880246" lon="-1.8506639166385954"><ele>15.0</ele><time>2026-04-21T07:53:45.999Z</time></trkpt><trkpt lat="37.098009211088964" lon="-1.8507920432574942"><ele>15.0</ele><time>2026-04-21T07:53:46.999Z</time></trkpt><trkpt lat="37.097920997505206" lon="-1.8509216868807745"><ele>15.0</ele><time>2026-04-21T07:53:47.999Z</time></trkpt><trkpt lat="37.09781447072392" lon="-1.8510247818401366"><ele>15.0</ele><time>2026-04-21T07:53:48.999Z</time></trkpt><trkpt lat="37.09769473148859" lon="-1.8510841300610361"><ele>16.0</ele><time>2026-04-21T07:53:49.999Z</time></trkpt><trkpt lat="37.09755759168808" lon="-1.851117926386025"><ele>17.0</ele><time>2026-04-21T07:53:50.999Z</time></trkpt><trkpt lat="37.097419056636845" lon="-1.851157908620193"><ele>18.0</ele><time>2026-04-21T07:53:51.999Z</time></trkpt><trkpt lat="37.097278695104826" lon="-1.8511772119228915"><ele>19.0</ele><time>2026-04-21T07:53:52.999Z</time></trkpt><trkpt lat="37.09712594523689" lon="-1.8512053435981173"><ele>21.333333333333332</ele><time>2026-04-21T07:53:53.999Z</time></trkpt><trkpt lat="37.09697548630149" lon="-1.851243545205851"><ele>23.666666666666664</ele><time>2026-04-21T07:53:54.999Z</time></trkpt><trkpt lat="37.0968251579905" lon="-1.8513026490113942"><ele>26.0</ele><time>2026-04-21T07:53:55.999Z</time></trkpt><trkpt lat="37.09667515852573" lon="-1.8514265311772198"><ele>26.666666666666664</ele><time>2026-04-21T07:53:56.999Z</time></trkpt><trkpt lat="37.09652452489562" lon="-1.8515561830862108"><ele>27.333333333333336</ele><time>2026-04-21T07:53:57.999Z</time></trkpt><trkpt lat="37.096360163695046" lon="-1.8516968986747224"><ele>28.0</ele><time>2026-04-21T07:53:58.999Z</time></trkpt><trkpt lat="37.09619766351051" lon="-1.8518262972681692"><ele>29.333333333333336</ele><time>2026-04-21T07:53:59.999Z</time></trkpt><trkpt lat="37.09604578439434" lon="-1.8519435092747913"><ele>30.666666666666664</ele><time>2026-04-21T07:54:00.999Z</time></trkpt><trkpt lat="37.095881396660936" lon="-1.85207246814503"><ele>32.0</ele><time>2026-04-21T07:54:01.999Z</time></trkpt><trkpt lat="37.095725855726386" lon="-1.8521356064474774"><ele>32.0</ele><time>2026-04-21T07:54:02.999Z</time></trkpt><trkpt lat="37.09556273485867" lon="-1.8522500500571055"><ele>32.0</ele><time>2026-04-21T07:54:03.999Z</time></trkpt><trkpt lat="37.09540271161332" lon="-1.8523790135262348"><ele>32.0</ele><time>2026-04-21T07:54:04.999Z</time></trkpt><trkpt lat="37.095250389429864" lon="-1.852514150554537"><ele>35.666666666666664</ele><time>2026-04-21T07:54:05.999Z</time></trkpt><trkpt lat="37.09510918807925" lon="-1.8526345448327761"><ele>39.333333333333336</ele><time>2026-04-21T07:54:06.999Z</time></trkpt><trkpt lat="37.094976995662385" lon="-1.8527607845890313"><ele>43.0</ele><time>2026-04-21T07:54:07.999Z</time></trkpt><trkpt lat="37.09484074379402" lon="-1.8528890985086781"><ele>43.0</ele><time>2026-04-21T07:54:08.999Z</time></trkpt><trkpt lat="37.094702246505825" lon="-1.85302760648131"><ele>43.0</ele><time>2026-04-21T07:54:09.999Z</time></trkpt><trkpt lat="37.09456557701761" lon="-1.8531579070722402"><ele>43.0</ele><time>2026-04-21T07:54:10.999Z</time></trkpt><trkpt lat="37.09441665527665" lon="-1.8532826484925302"><ele>43.0</ele><time>2026-04-21T07:54:11.999Z</time></trkpt><trkpt lat="37.09427063462362" lon="-1.853385651288755"><ele>43.0</ele><time>2026-04-21T07:54:12.999Z</time></trkpt><trkpt lat="37.09412910018407" lon="-1.8535058058216238"><ele>43.0</ele><time>2026-04-21T07:54:13.999Z</time></trkpt><trkpt lat="37.09398102113564" lon="-1.8535952999373664"><ele>47.0</ele><time>2026-04-21T07:54:14.999Z</time></trkpt><trkpt lat="37.09382757267419" lon="-1.853673242740454"><ele>51.0</ele><time>2026-04-21T07:54:15.999Z</time></trkpt><trkpt lat="37.093682271945276" lon="-1.85379131014728"><ele>55.0</ele><time>2026-04-21T07:54:16.999Z</time></trkpt><trkpt lat="37.09352834690473" lon="-1.8538944995297202"><ele>55.0</ele><time>2026-04-21T07:54:17.999Z</time></trkpt><trkpt lat="37.09336956557402" lon="-1.8539877768194282"><ele>55.0</ele><time>2026-04-21T07:54:18.999Z</time></trkpt><trkpt lat="37.0932098906955" lon="-1.854038073204224"><ele>55.0</ele><time>2026-04-21T07:54:19.999Z</time></trkpt><trkpt lat="37.093049625165975" lon="-1.8540702107813989"><ele>61.0</ele><time>2026-04-21T07:54:20.999Z</time></trkpt><trkpt lat="37.09288667643362" lon="-1.8541185022779954"><ele>67.0</ele><time>2026-04-21T07:54:21.999Z</time></trkpt><trkpt lat="37.09273644561357" lon="-1.8541624096626026"><ele>73.0</ele><time>2026-04-21T07:54:22.999Z</time></trkpt><trkpt lat="37.09258580337287" lon="-1.8542155440036565"><ele>73.0</ele><time>2026-04-21T07:54:23.999Z</time></trkpt><trkpt lat="37.092452157048314" lon="-1.8542567587851593"><ele>73.0</ele><time>2026-04-21T07:54:24.999Z</time></trkpt><trkpt lat="37.092320193415425" lon="-1.8543102213070162"><ele>73.0</ele><time>2026-04-21T07:54:25.999Z</time></trkpt><trkpt lat="37.09218419525564" lon="-1.8543621077006638"><ele>73.0</ele><time>2026-04-21T07:54:26.999Z</time></trkpt><trkpt lat="37.09205690439471" lon="-1.8544060895376437"><ele>72.5</ele><time>2026-04-21T07:54:27.999Z</time></trkpt><trkpt lat="37.09191933353323" lon="-1.8544732974115763"><ele>72.0</ele><time>2026-04-21T07:54:28.999Z</time></trkpt><trkpt lat="37.091782069298695" lon="-1.854528592119993"><ele>71.5</ele><time>2026-04-21T07:54:29.999Z</time></trkpt><trkpt lat="37.091649293788265" lon="-1.8546071556886052"><ele>71.0</ele><time>2026-04-21T07:54:30.999Z</time></trkpt><trkpt lat="37.09152812956121" lon="-1.8546674425635163"><ele>66.75</ele><time>2026-04-21T07:54:31.999Z</time></trkpt><trkpt lat="37.091395167584956" lon="-1.8546961367760562"><ele>62.5</ele><time>2026-04-21T07:54:32.998Z</time></trkpt><trkpt lat="37.0912600809955" lon="-1.854740965759959"><ele>58.25</ele><time>2026-04-21T07:54:33.998Z</time></trkpt><trkpt lat="37.09113817090264" lon="-1.8547956326118518"><ele>54.0</ele><time>2026-04-21T07:54:34.998Z</time></trkpt><trkpt lat="37.0909982760858" lon="-1.854844752386576"><ele>54.0</ele><time>2026-04-21T07:54:35.998Z</time></trkpt><trkpt lat="37.09085725365526" lon="-1.854870715129416"><ele>54.0</ele><time>2026-04-21T07:54:36.998Z</time></trkpt><trkpt lat="37.09072245639681" lon="-1.854913073042794"><ele>54.0</ele><time>2026-04-21T07:54:37.998Z</time></trkpt><trkpt lat="37.090584206513185" lon="-1.8549539560768968"><ele>54.0</ele><time>2026-04-21T07:54:38.998Z</time></trkpt><trkpt lat="37.09044908672348" lon="-1.854972977165915"><ele>53.0</ele><time>2026-04-21T07:54:39.998Z</time></trkpt><trkpt lat="37.09031973862596" lon="-1.854976359892759"><ele>52.0</ele><time>2026-04-21T07:54:40.998Z</time></trkpt><trkpt lat="37.09019086136228" lon="-1.854984413059221"><ele>51.0</ele><time>2026-04-21T07:54:41.998Z</time></trkpt><trkpt lat="37.09006018551309" lon="-1.854992573784365"><ele>50.0</ele><time>2026-04-21T07:54:42.998Z</time></trkpt><trkpt lat="37.089919229003534" lon="-1.8549929927379698"><ele>47.75</ele><time>2026-04-21T07:54:43.998Z</time></trkpt><trkpt lat="37.08978288463869" lon="-1.8549978771738536"><ele>45.5</ele><time>2026-04-21T07:54:44.998Z</time></trkpt><trkpt lat="37.08965014568307" lon="-1.8549974695345623"><ele>43.25</ele><time>2026-04-21T07:54:45.998Z</time></trkpt><trkpt lat="37.08952075791989" lon="-1.8549923408292832"><ele>41.0</ele><time>2026-04-21T07:54:46.998Z</time></trkpt><trkpt lat="37.089395794251985" lon="-1.854984301024547"><ele>41.0</ele><time>2026-04-21T07:54:47.998Z</time></trkpt><trkpt lat="37.08927616928863" lon="-1.8549744379905246"><ele>41.0</ele><time>2026-04-21T07:54:48.998Z</time></trkpt><trkpt lat="37.089151950606094" lon="-1.8549784769950173"><ele>41.0</ele><time>2026-04-21T07:54:49.998Z</time></trkpt><trkpt lat="37.089035738450086" lon="-1.8549784225382628"><ele>41.0</ele><time>2026-04-21T07:54:50.998Z</time></trkpt><trkpt lat="37.088911098640885" lon="-1.8550236656402377"><ele>39.4</ele><time>2026-04-21T07:54:51.998Z</time></trkpt><trkpt lat="37.08880656324408" lon="-1.8549939451314317"><ele>37.8</ele><time>2026-04-21T07:54:52.998Z</time></trkpt><trkpt lat="37.08870219176837" lon="-1.8549764518027658"><ele>36.199999999999996</ele><time>2026-04-21T07:54:53.998Z</time></trkpt><trkpt lat="37.08859375540453" lon="-1.8549674295732717"><ele>34.599999999999994</ele><time>2026-04-21T07:54:54.998Z</time></trkpt><trkpt lat="37.088474464549705" lon="-1.854939224628122"><ele>33.0</ele><time>2026-04-21T07:54:55.998Z</time></trkpt><trkpt lat="37.08835329239086" lon="-1.8549106480691624"><ele>31.25</ele><time>2026-04-21T07:54:56.998Z</time></trkpt><trkpt lat="37.08823718327089" lon="-1.85487024030467"><ele>29.5</ele><time>2026-04-21T07:54:57.998Z</time></trkpt><trkpt lat="37.08812694088765" lon="-1.85481418416135"><ele>27.75</ele><time>2026-04-21T07:54:58.998Z</time></trkpt><trkpt lat="37.088022179453006" lon="-1.8547544101103304"><ele>26.0</ele><time>2026-04-21T07:54:59.998Z</time></trkpt><trkpt lat="37.08793730089323" lon="-1.854663738241684"><ele>26.0</ele><time>2026-04-21T07:55:00.998Z</time></trkpt><trkpt lat="37.08785318116138" lon="-1.8545617573502053"><ele>26.0</ele><time>2026-04-21T07:55:01.998Z</time></trkpt><trkpt lat="37.08777919497667" lon="-1.8544550890392602"><ele>26.0</ele><time>2026-04-21T07:55:02.998Z</time></trkpt><trkpt lat="37.08773760718826" lon="-1.8543411069763756"><ele>26.0</ele><time>2026-04-21T07:55:03.998Z</time></trkpt><trkpt lat="37.087699687586614" lon="-1.85421686236"><ele>26.0</ele><time>2026-04-21T07:55:04.998Z</time></trkpt><trkpt lat="37.08766225549435" lon="-1.8540913284970506"><ele>26.200000000000003</ele><time>2026-04-21T07:55:05.998Z</time></trkpt><trkpt lat="37.087623057571555" lon="-1.8539812278123606"><ele>26.400000000000002</ele><time>2026-04-21T07:55:06.998Z</time></trkpt><trkpt lat="37.087602753418075" lon="-1.853865335203964"><ele>26.6</ele><time>2026-04-21T07:55:07.998Z</time></trkpt><trkpt lat="37.087584076302086" lon="-1.8537427751611197"><ele>26.8</ele><time>2026-04-21T07:55:08.998Z</time></trkpt><trkpt lat="37.08757592634421" lon="-1.8536264083945677"><ele>27.0</ele><time>2026-04-21T07:55:09.998Z</time></trkpt><trkpt lat="37.087567421105376" lon="-1.8535045789804376"><ele>26.8</ele><time>2026-04-21T07:55:10.998Z</time></trkpt><trkpt lat="37.08755841597681" lon="-1.8533772637104236"><ele>26.6</ele><time>2026-04-21T07:55:11.998Z</time></trkpt><trkpt lat="37.08754093203064" lon="-1.8532470599776512"><ele>26.400000000000002</ele><time>2026-04-21T07:55:12.998Z</time></trkpt><trkpt lat="37.087520324831985" lon="-1.8531276211828216"><ele>26.200000000000003</ele><time>2026-04-21T07:55:13.998Z</time></trkpt><trkpt lat="37.08747099154035" lon="-1.8530203720258454"><ele>26.0</ele><time>2026-04-21T07:55:14.998Z</time></trkpt><trkpt lat="37.08743014999587" lon="-1.8529069082323464"><ele>24.0</ele><time>2026-04-21T07:55:15.998Z</time></trkpt><trkpt lat="37.08735421552251" lon="-1.852818475701421"><ele>22.0</ele><time>2026-04-21T07:55:16.998Z</time></trkpt><trkpt lat="37.0872849061397" lon="-1.852735577593223"><ele>20.0</ele><time>2026-04-21T07:55:17.998Z</time></trkpt><trkpt lat="37.087230996239875" lon="-1.8526350621220056"><ele>18.0</ele><time>2026-04-21T07:55:18.998Z</time></trkpt><trkpt lat="37.087164093622114" lon="-1.8525622666752903"><ele>16.0</ele><time>2026-04-21T07:55:19.998Z</time></trkpt><trkpt lat="37.08710603238548" lon="-1.8524966703928076"><ele>15.714285714285714</ele><time>2026-04-21T07:55:20.998Z</time></trkpt><trkpt lat="37.08705285236492" lon="-1.852406411847072"><ele>15.428571428571427</ele><time>2026-04-21T07:55:21.998Z</time></trkpt><trkpt lat="37.08700315120078" lon="-1.8523444688151376"><ele>15.142857142857142</ele><time>2026-04-21T07:55:22.998Z</time></trkpt><trkpt lat="37.08694069617587" lon="-1.852312766066554"><ele>14.857142857142858</ele><time>2026-04-21T07:55:23.998Z</time></trkpt><trkpt lat="37.0868748766413" lon="-1.8522964325584603"><ele>14.571428571428571</ele><time>2026-04-21T07:55:24.998Z</time></trkpt><trkpt lat="37.08680822415057" lon="-1.8522853188830872"><ele>14.285714285714285</ele><time>2026-04-21T07:55:25.998Z</time></trkpt><trkpt lat="37.086734374578185" lon="-1.8522611456992337"><ele>14.0</ele><time>2026-04-21T07:55:26.998Z</time></trkpt><trkpt lat="37.086674314779366" lon="-1.8522082572443437"><ele>14.0</ele><time>2026-04-21T07:55:27.998Z</time></trkpt><trkpt lat="37.08664298677516" lon="-1.852111582142328"><ele>13.999999999999998</ele><time>2026-04-21T07:55:28.998Z</time></trkpt><trkpt lat="37.08659880988406" lon="-1.852011514179043"><ele>13.999999999999998</ele><time>2026-04-21T07:55:29.998Z</time></trkpt><trkpt lat="37.08655355987943" lon="-1.851913732964315"><ele>14.0</ele><time>2026-04-21T07:55:30.998Z</time></trkpt><trkpt lat="37.08647245196066" lon="-1.8518261960035869"><ele>14.0</ele><time>2026-04-21T07:55:31.998Z</time></trkpt><trkpt lat="37.08638669984305" lon="-1.8517446614041628"><ele>13.0</ele><time>2026-04-21T07:55:32.998Z</time></trkpt><trkpt lat="37.08631629431714" lon="-1.8516574170478184"><ele>11.999999999999998</ele><time>2026-04-21T07:55:33.998Z</time></trkpt><trkpt lat="37.08622012211586" lon="-1.8515852209127994"><ele>11.0</ele><time>2026-04-21T07:55:34.998Z</time></trkpt><trkpt lat="37.08613484179271" lon="-1.8515007524942724"><ele>10.0</ele><time>2026-04-21T07:55:35.998Z</time></trkpt><trkpt lat="37.086027685423" lon="-1.8514392865929254"><ele>9.0</ele><time>2026-04-21T07:55:36.998Z</time></trkpt><trkpt lat="37.085945036820625" lon="-1.8513689888700142"><ele>9.0</ele><time>2026-04-21T07:55:37.998Z</time></trkpt><trkpt lat="37.08583555008888" lon="-1.8513183434224876"><ele>9.0</ele><time>2026-04-21T07:55:38.998Z</time></trkpt><trkpt lat="37.085733114735014" lon="-1.8512767642731227"><ele>9.0</ele><time>2026-04-21T07:55:39.998Z</time></trkpt><trkpt lat="37.08563296148809" lon="-1.8512435421939706"><ele>9.0</ele><time>2026-04-21T07:55:40.998Z</time></trkpt><trkpt lat="37.08551878046182" lon="-1.8512277418846956"><ele>9.0</ele><time>2026-04-21T07:55:41.998Z</time></trkpt><trkpt lat="37.08542353611483" lon="-1.8512219720423724"><ele>8.8</ele><time>2026-04-21T07:55:42.998Z</time></trkpt><trkpt lat="37.085324785954896" lon="-1.8512201388994425"><ele>8.600000000000001</ele><time>2026-04-21T07:55:43.998Z</time></trkpt><trkpt lat="37.085218265933186" lon="-1.8512179161749966"><ele>8.4</ele><time>2026-04-21T07:55:44.998Z</time></trkpt><trkpt lat="37.085125179558574" lon="-1.8512386676044437"><ele>8.200000000000001</ele><time>2026-04-21T07:55:45.998Z</time></trkpt><trkpt lat="37.085044115380846" lon="-1.851241910182802"><ele>8.0</ele><time>2026-04-21T07:55:46.998Z</time></trkpt><trkpt lat="37.08496211221602" lon="-1.8512402470925386"><ele>9.0</ele><time>2026-04-21T07:55:47.998Z</time></trkpt><trkpt lat="37.084886402388406" lon="-1.8512394784983883"><ele>10.0</ele><time>2026-04-21T07:55:48.998Z</time></trkpt><trkpt lat="37.08480495907202" lon="-1.8512320917745315"><ele>11.0</ele><time>2026-04-21T07:55:49.998Z</time></trkpt><trkpt lat="37.08472951869257" lon="-1.8512035957293647"><ele>12.0</ele><time>2026-04-21T07:55:50.998Z</time></trkpt><trkpt lat="37.0846511532223" lon="-1.8512016330391494"><ele>13.000000000000002</ele><time>2026-04-21T07:55:51.998Z</time></trkpt><trkpt lat="37.084567495164904" lon="-1.8512013244227905"><ele>14.0</ele><time>2026-04-21T07:55:52.998Z</time></trkpt><trkpt lat="37.08448987995027" lon="-1.8511828436789726"><ele>14.000000000000002</ele><time>2026-04-21T07:55:53.998Z</time></trkpt><trkpt lat="37.084406695439746" lon="-1.8511925774872293"><ele>14.0</ele><time>2026-04-21T07:55:54.998Z</time></trkpt><trkpt lat="37.08432781464949" lon="-1.8511941594598114"><ele>14.0</ele><time>2026-04-21T07:55:55.998Z</time></trkpt><trkpt lat="37.08424254513354" lon="-1.8512108305176218"><ele>14.0</ele><time>2026-04-21T07:55:56.998Z</time></trkpt><trkpt lat="37.08416534272684" lon="-1.8512546382195207"><ele>14.000000000000002</ele><time>2026-04-21T07:55:57.998Z</time></trkpt><trkpt lat="37.084078497815" lon="-1.8512907323671899"><ele>14.0</ele><time>2026-04-21T07:55:58.998Z</time></trkpt><trkpt lat="37.08399192027371" lon="-1.8512517887745719"><ele>13.25</ele><time>2026-04-21T07:55:59.998Z</time></trkpt><trkpt lat="37.0838873229914" lon="-1.85122702898637"><ele>12.5</ele><time>2026-04-21T07:56:00.998Z</time></trkpt><trkpt lat="37.083783435405905" lon="-1.8511923834927544"><ele>11.75</ele><time>2026-04-21T07:56:01.998Z</time></trkpt><trkpt lat="37.083657156658674" lon="-1.8511820985728433"><ele>11.0</ele><time>2026-04-21T07:56:02.998Z</time></trkpt><trkpt lat="37.083519216077384" lon="-1.8511808420384341"><ele>11.0</ele><time>2026-04-21T07:56:03.998Z</time></trkpt><trkpt lat="37.08338267871791" lon="-1.851188539747334"><ele>11.0</ele><time>2026-04-21T07:56:04.998Z</time></trkpt><trkpt lat="37.083250025267986" lon="-1.85116814062736"><ele>11.0</ele><time>2026-04-21T07:56:05.998Z</time></trkpt><trkpt lat="37.08311270288292" lon="-1.8511551225858018"><ele>11.0</ele><time>2026-04-21T07:56:06.998Z</time></trkpt><trkpt lat="37.0829746971778" lon="-1.8511441147440717"><ele>13.25</ele><time>2026-04-21T07:56:07.998Z</time></trkpt><trkpt lat="37.082838203025005" lon="-1.8511279107803624"><ele>15.5</ele><time>2026-04-21T07:56:08.998Z</time></trkpt><trkpt lat="37.08269453494149" lon="-1.851125285084737"><ele>17.75</ele><time>2026-04-21T07:56:09.998Z</time></trkpt><trkpt lat="37.082549920544686" lon="-1.8511079291028338"><ele>20.0</ele><time>2026-04-21T07:56:10.998Z</time></trkpt><trkpt lat="37.08241136420621" lon="-1.851108151882178"><ele>20.0</ele><time>2026-04-21T07:56:11.998Z</time></trkpt><trkpt lat="37.08227717912102" lon="-1.8510919547583773"><ele>20.0</ele><time>2026-04-21T07:56:12.998Z</time></trkpt><trkpt lat="37.082147782762185" lon="-1.8510864545629468"><ele>20.0</ele><time>2026-04-21T07:56:13.998Z</time></trkpt><trkpt lat="37.082028480052195" lon="-1.8510902920698242"><ele>20.0</ele><time>2026-04-21T07:56:14.998Z</time></trkpt><trkpt lat="37.0819087226516" lon="-1.8511145074709405"><ele>20.0</ele><time>2026-04-21T07:56:15.998Z</time></trkpt><trkpt lat="37.0817861234199" lon="-1.8511413085923025"><ele>20.0</ele><time>2026-04-21T07:56:16.998Z</time></trkpt><trkpt lat="37.08165702233296" lon="-1.8511468416425283"><ele>20.0</ele><time>2026-04-21T07:56:17.998Z</time></trkpt><trkpt lat="37.08153373639903" lon="-1.8511790958922067"><ele>20.0</ele><time>2026-04-21T07:56:18.998Z</time></trkpt><trkpt lat="37.081422525008925" lon="-1.8512376238691126"><ele>17.5</ele><time>2026-04-21T07:56:19.998Z</time></trkpt><trkpt lat="37.08130783324322" lon="-1.8513157170516843"><ele>15.0</ele><time>2026-04-21T07:56:20.998Z</time></trkpt><trkpt lat="37.08119212738498" lon="-1.8513699897784686"><ele>12.5</ele><time>2026-04-21T07:56:21.998Z</time></trkpt><trkpt lat="37.08107940111232" lon="-1.8514350120999405"><ele>10.0</ele><time>2026-04-21T07:56:22.998Z</time></trkpt><trkpt lat="37.08097779683287" lon="-1.8515130143890082"><ele>10.0</ele><time>2026-04-21T07:56:23.998Z</time></trkpt><trkpt lat="37.080881454805635" lon="-1.8515842438578471"><ele>10.0</ele><time>2026-04-21T07:56:24.998Z</time></trkpt><trkpt lat="37.08080401630499" lon="-1.8516423354838174"><ele>10.0</ele><time>2026-04-21T07:56:25.998Z</time></trkpt><trkpt lat="37.08073432413805" lon="-1.8517142453601372"><ele>10.0</ele><time>2026-04-21T07:56:26.998Z</time></trkpt><trkpt lat="37.08067439931721" lon="-1.8517970784743325"><ele>10.0</ele><time>2026-04-21T07:56:28.001Z</time></trkpt><trkpt lat="37.08062008752236" lon="-1.8518944728599598"><ele>12.25</ele><time>2026-04-21T07:56:29.001Z</time></trkpt><trkpt lat="37.08054466144242" lon="-1.851965231151363"><ele>14.5</ele><time>2026-04-21T07:56:30.001Z</time></trkpt><trkpt lat="37.08043853218052" lon="-1.8520065791863582"><ele>16.75</ele><time>2026-04-21T07:56:31.001Z</time></trkpt><trkpt lat="37.0803169837891" lon="-1.8520280460444232"><ele>19.0</ele><time>2026-04-21T07:56:32.001Z</time></trkpt><trkpt lat="37.080192931774" lon="-1.8520737385627593"><ele>19.0</ele><time>2026-04-21T07:56:33.001Z</time></trkpt><trkpt lat="37.08005899336488" lon="-1.8521609553698135"><ele>19.0</ele><time>2026-04-21T07:56:34.001Z</time></trkpt><trkpt lat="37.07991646489007" lon="-1.852268273876818"><ele>19.0</ele><time>2026-04-21T07:56:35.001Z</time></trkpt><trkpt lat="37.079785024644295" lon="-1.8523890247190906"><ele>20.0</ele><time>2026-04-21T07:56:36.001Z</time></trkpt><trkpt lat="37.0796658692937" lon="-1.8525340533177383"><ele>21.0</ele><time>2026-04-21T07:56:37Z</time></trkpt><trkpt lat="37.07953929172965" lon="-1.8526665980670731"><ele>22.0</ele><time>2026-04-21T07:56:38Z</time></trkpt><trkpt lat="37.07941011049955" lon="-1.8527972857513686"><ele>22.0</ele><time>2026-04-21T07:56:39Z</time></trkpt><trkpt lat="37.07927936914722" lon="-1.8529457532213864"><ele>22.0</ele><time>2026-04-21T07:56:40Z</time></trkpt><trkpt lat="37.07916009849272" lon="-1.8531018721372654"><ele>22.0</ele><time>2026-04-21T07:56:41Z</time></trkpt><trkpt lat="37.079048227838605" lon="-1.8532393121305881"><ele>21.333333333333332</ele><time>2026-04-21T07:56:42Z</time></trkpt><trkpt lat="37.0789318524919" lon="-1.8533774797262363"><ele>20.666666666666668</ele><time>2026-04-21T07:56:43Z</time></trkpt><trkpt lat="37.07881221494011" lon="-1.8535249000155922"><ele>20.0</ele><time>2026-04-21T07:56:44Z</time></trkpt><trkpt lat="37.0786859402494" lon="-1.8536711247546243"><ele>20.0</ele><time>2026-04-21T07:56:45Z</time></trkpt><trkpt lat="37.07855781534137" lon="-1.8538186752233083"><ele>20.0</ele><time>2026-04-21T07:56:46Z</time></trkpt><trkpt lat="37.078429355222276" lon="-1.8539626476316216"><ele>20.0</ele><time>2026-04-21T07:56:47Z</time></trkpt><trkpt lat="37.07833289180165" lon="-1.8541196668001618"><ele>19.75</ele><time>2026-04-21T07:56:48Z</time></trkpt><trkpt lat="37.07824677482818" lon="-1.854270575166049"><ele>19.5</ele><time>2026-04-21T07:56:49Z</time></trkpt><trkpt lat="37.07815557238376" lon="-1.854422583761746"><ele>19.25</ele><time>2026-04-21T07:56:50Z</time></trkpt><trkpt lat="37.07809053744942" lon="-1.8545866669690287"><ele>19.0</ele><time>2026-04-21T07:56:51Z</time></trkpt><trkpt lat="37.07803088976554" lon="-1.8547645070002068"><ele>19.0</ele><time>2026-04-21T07:56:52Z</time></trkpt><trkpt lat="37.07799344020618" lon="-1.8549515489443598"><ele>19.0</ele><time>2026-04-21T07:56:53Z</time></trkpt><trkpt lat="37.07794108795528" lon="-1.8551491486010607"><ele>19.0</ele><time>2026-04-21T07:56:54Z</time></trkpt><trkpt lat="37.07787936102035" lon="-1.8553484908618223"><ele>20.666666666666664</ele><time>2026-04-21T07:56:55Z</time></trkpt><trkpt lat="37.07780904326876" lon="-1.855570964992385"><ele>22.333333333333332</ele><time>2026-04-21T07:56:56Z</time></trkpt><trkpt lat="37.0777724686043" lon="-1.8558160335429366"><ele>24.0</ele><time>2026-04-21T07:56:57Z</time></trkpt><trkpt lat="37.07773982641193" lon="-1.856055760366288"><ele>26.333333333333336</ele><time>2026-04-21T07:56:58Z</time></trkpt><trkpt lat="37.0777150281358" lon="-1.8563025354029299"><ele>28.666666666666668</ele><time>2026-04-21T07:56:59Z</time></trkpt><trkpt lat="37.0776875515939" lon="-1.8565162379148084"><ele>31.0</ele><time>2026-04-21T07:57:00Z</time></trkpt><trkpt lat="37.077647856227195" lon="-1.856716930530963"><ele>32.75</ele><time>2026-04-21T07:57:01Z</time></trkpt><trkpt lat="37.077612928814766" lon="-1.85690384884726"><ele>34.5</ele><time>2026-04-21T07:57:02Z</time></trkpt><trkpt lat="37.07756843427657" lon="-1.8570821860706026"><ele>36.25</ele><time>2026-04-21T07:57:03Z</time></trkpt><trkpt lat="37.077526723290205" lon="-1.8572283312241868"><ele>38.0</ele><time>2026-04-21T07:57:04Z</time></trkpt><trkpt lat="37.07750902589696" lon="-1.8573488860764626"><ele>38.0</ele><time>2026-04-21T07:57:05Z</time></trkpt><trkpt lat="37.07750670769138" lon="-1.8574537971892195"><ele>38.0</ele><time>2026-04-21T07:57:06Z</time></trkpt><trkpt lat="37.077496999559585" lon="-1.857545900038623"><ele>38.0</ele><time>2026-04-21T07:57:07Z</time></trkpt><trkpt lat="37.07746767046102" lon="-1.8576305729482379"><ele>38.0</ele><time>2026-04-21T07:57:08Z</time></trkpt><trkpt lat="37.07739273861321" lon="-1.8576621569385396"><ele>38.0</ele><time>2026-04-21T07:57:09Z</time></trkpt><trkpt lat="37.077290281965055" lon="-1.8576959199553411"><ele>38.0</ele><time>2026-04-21T07:57:10Z</time></trkpt><trkpt lat="37.07716056523385" lon="-1.8577177291169458"><ele>39.0</ele><time>2026-04-21T07:57:11Z</time></trkpt><trkpt lat="37.07701083816419" lon="-1.8577410116106121"><ele>40.0</ele><time>2026-04-21T07:57:12Z</time></trkpt><trkpt lat="37.07685480900357" lon="-1.8578040775678384"><ele>41.0</ele><time>2026-04-21T07:57:13Z</time></trkpt><trkpt lat="37.07670973252653" lon="-1.8578656104164935"><ele>39.0</ele><time>2026-04-21T07:57:14Z</time></trkpt><trkpt lat="37.07655557244967" lon="-1.8579215060835856"><ele>37.0</ele><time>2026-04-21T07:57:15Z</time></trkpt><trkpt lat="37.07640271306399" lon="-1.8579889380105115"><ele>35.0</ele><time>2026-04-21T07:57:16Z</time></trkpt><trkpt lat="37.076242440362535" lon="-1.858053663507651"><ele>35.0</ele><time>2026-04-21T07:57:17Z</time></trkpt><trkpt lat="37.0760815957536" lon="-1.8581167589650578"><ele>35.0</ele><time>2026-04-21T07:57:18Z</time></trkpt><trkpt lat="37.07590805411275" lon="-1.8581817411002792"><ele>35.0</ele><time>2026-04-21T07:57:19Z</time></trkpt><trkpt lat="37.075743776217706" lon="-1.8582869777511883"><ele>34.0</ele><time>2026-04-21T07:57:20Z</time></trkpt><trkpt lat="37.07560234472977" lon="-1.858416758458778"><ele>33.0</ele><time>2026-04-21T07:57:21Z</time></trkpt><trkpt lat="37.07546314488128" lon="-1.8585736601549605"><ele>32.0</ele><time>2026-04-21T07:57:22Z</time></trkpt><trkpt lat="37.075326700076005" lon="-1.8587579330045503"><ele>34.666666666666664</ele><time>2026-04-21T07:57:23Z</time></trkpt><trkpt lat="37.07518417735091" lon="-1.8589505221243807"><ele>37.333333333333336</ele><time>2026-04-21T07:57:24Z</time></trkpt><trkpt lat="37.075047233772885" lon="-1.8591554010121332"><ele>40.0</ele><time>2026-04-21T07:57:25Z</time></trkpt><trkpt lat="37.07490808028112" lon="-1.8593338509252186"><ele>41.66666666666667</ele><time>2026-04-21T07:57:26Z</time></trkpt><trkpt lat="37.07477105600435" lon="-1.8595255658548804"><ele>43.333333333333336</ele><time>2026-04-21T07:57:27Z</time></trkpt><trkpt lat="37.0746195767688" lon="-1.8596318647820094"><ele>45.0</ele><time>2026-04-21T07:57:28Z</time></trkpt><trkpt lat="37.074474491357705" lon="-1.8597737912519685"><ele>45.0</ele><time>2026-04-21T07:57:29Z</time></trkpt><trkpt lat="37.074328247205194" lon="-1.859898725506294"><ele>45.0</ele><time>2026-04-21T07:57:29.999Z</time></trkpt><trkpt lat="37.07417325158846" lon="-1.860004891028314"><ele>45.0</ele><time>2026-04-21T07:57:30.999Z</time></trkpt><trkpt lat="37.07402090669366" lon="-1.8601036021057689"><ele>47.33333333333333</ele><time>2026-04-21T07:57:31.999Z</time></trkpt><trkpt lat="37.07386065722519" lon="-1.8602207764319523"><ele>49.666666666666664</ele><time>2026-04-21T07:57:32.999Z</time></trkpt><trkpt lat="37.0736998759186" lon="-1.8603214454369832"><ele>52.0</ele><time>2026-04-21T07:57:33.999Z</time></trkpt><trkpt lat="37.07354675333844" lon="-1.8604214263451875"><ele>52.0</ele><time>2026-04-21T07:57:34.999Z</time></trkpt><trkpt lat="37.07340547650205" lon="-1.8605202411198174"><ele>52.0</ele><time>2026-04-21T07:57:35.999Z</time></trkpt><trkpt lat="37.07326053054444" lon="-1.8606364421172719"><ele>52.0</ele><time>2026-04-21T07:57:36.999Z</time></trkpt><trkpt lat="37.07311573985595" lon="-1.8607593375750549"><ele>51.0</ele><time>2026-04-21T07:57:37.999Z</time></trkpt><trkpt lat="37.07296196287383" lon="-1.8608766375816594"><ele>50.0</ele><time>2026-04-21T07:57:38.999Z</time></trkpt><trkpt lat="37.07279498845273" lon="-1.860984879353963"><ele>49.0</ele><time>2026-04-21T07:57:39.999Z</time></trkpt><trkpt lat="37.072640899800135" lon="-1.861110749020373"><ele>51.666666666666664</ele><time>2026-04-21T07:57:40.999Z</time></trkpt><trkpt lat="37.07248947761394" lon="-1.8612387201017018"><ele>54.33333333333333</ele><time>2026-04-21T07:57:41.999Z</time></trkpt><trkpt lat="37.072336123374" lon="-1.8613612967527153"><ele>57.0</ele><time>2026-04-21T07:57:42.999Z</time></trkpt><trkpt lat="37.07218035353548" lon="-1.861492729710419"><ele>57.0</ele><time>2026-04-21T07:57:43.999Z</time></trkpt><trkpt lat="37.072026337421335" lon="-1.861629422159292"><ele>57.0</ele><time>2026-04-21T07:57:44.999Z</time></trkpt><trkpt lat="37.071874649563746" lon="-1.8617573456151173"><ele>57.0</ele><time>2026-04-21T07:57:45.999Z</time></trkpt><trkpt lat="37.07172200847551" lon="-1.8618901531876824"><ele>57.0</ele><time>2026-04-21T07:57:46.999Z</time></trkpt><trkpt lat="37.07156831148008" lon="-1.862026616851862"><ele>57.0</ele><time>2026-04-21T07:57:47.999Z</time></trkpt><trkpt lat="37.071426043818455" lon="-1.8621840519581832"><ele>57.0</ele><time>2026-04-21T07:57:48.999Z</time></trkpt><trkpt lat="37.07126579504325" lon="-1.8623356859643274"><ele>57.0</ele><time>2026-04-21T07:57:49.999Z</time></trkpt><trkpt lat="37.071113756253716" lon="-1.8624728840395421"><ele>57.0</ele><time>2026-04-21T07:57:50.999Z</time></trkpt><trkpt lat="37.07093975501258" lon="-1.8626056680439154"><ele>57.0</ele><time>2026-04-21T07:57:51.999Z</time></trkpt><trkpt lat="37.07077714352993" lon="-1.862757983700701"><ele>59.0</ele><time>2026-04-21T07:57:52.999Z</time></trkpt><trkpt lat="37.070619233958695" lon="-1.8628983382981525"><ele>61.0</ele><time>2026-04-21T07:57:53.999Z</time></trkpt><trkpt lat="37.07045673092445" lon="-1.863039309392128"><ele>63.0</ele><time>2026-04-21T07:57:54.999Z</time></trkpt><trkpt lat="37.0702943055616" lon="-1.8631886808912907"><ele>63.0</ele><time>2026-04-21T07:57:55.999Z</time></trkpt><trkpt lat="37.07014723393671" lon="-1.8633434000707656"><ele>63.0</ele><time>2026-04-21T07:57:56.999Z</time></trkpt><trkpt lat="37.069984636163845" lon="-1.8634773588096587"><ele>63.0</ele><time>2026-04-21T07:57:57.999Z</time></trkpt><trkpt lat="37.06982897074629" lon="-1.8636195035121754"><ele>65.66666666666667</ele><time>2026-04-21T07:57:58.999Z</time></trkpt><trkpt lat="37.0696755588433" lon="-1.8637714894217585"><ele>68.33333333333334</ele><time>2026-04-21T07:57:59.999Z</time></trkpt><trkpt lat="37.069514845312945" lon="-1.8639207562052866"><ele>71.0</ele><time>2026-04-21T07:58:00.999Z</time></trkpt><trkpt lat="37.06936315250317" lon="-1.8640708732028293"><ele>71.0</ele><time>2026-04-21T07:58:01.999Z</time></trkpt><trkpt lat="37.06920709489434" lon="-1.864218921795761"><ele>71.0</ele><time>2026-04-21T07:58:02.999Z</time></trkpt><trkpt lat="37.06904998888388" lon="-1.8643705516058149"><ele>71.0</ele><time>2026-04-21T07:58:03.999Z</time></trkpt><trkpt lat="37.06889466082607" lon="-1.864530054646841"><ele>72.0</ele><time>2026-04-21T07:58:04.999Z</time></trkpt><trkpt lat="37.068734173977255" lon="-1.8646884537154027"><ele>73.0</ele><time>2026-04-21T07:58:05.999Z</time></trkpt><trkpt lat="37.0685868264003" lon="-1.8648611627946334"><ele>74.0</ele><time>2026-04-21T07:58:06.999Z</time></trkpt><trkpt lat="37.068440683074684" lon="-1.8650329894870075"><ele>76.33333333333334</ele><time>2026-04-21T07:58:07.999Z</time></trkpt><trkpt lat="37.06829053812297" lon="-1.8652016150240305"><ele>78.66666666666667</ele><time>2026-04-21T07:58:08.999Z</time></trkpt><trkpt lat="37.068143532527415" lon="-1.8653658975064478"><ele>81.0</ele><time>2026-04-21T07:58:09.999Z</time></trkpt><trkpt lat="37.0680001295995" lon="-1.865535370838987"><ele>81.0</ele><time>2026-04-21T07:58:10.999Z</time></trkpt><trkpt lat="37.067857130157314" lon="-1.8656978797760682"><ele>81.0</ele><time>2026-04-21T07:58:11.999Z</time></trkpt><trkpt lat="37.06771257855212" lon="-1.865869639084013"><ele>81.0</ele><time>2026-04-21T07:58:12.999Z</time></trkpt><trkpt lat="37.06756940605431" lon="-1.8660248653176326"><ele>81.66666666666667</ele><time>2026-04-21T07:58:13.999Z</time></trkpt><trkpt lat="37.06742392909631" lon="-1.86618513022467"><ele>82.33333333333334</ele><time>2026-04-21T07:58:14.999Z</time></trkpt><trkpt lat="37.067282770625575" lon="-1.8663424697036637"><ele>83.0</ele><time>2026-04-21T07:58:15.999Z</time></trkpt><trkpt lat="37.0671391573165" lon="-1.8665212983264778"><ele>83.0</ele><time>2026-04-21T07:58:16.999Z</time></trkpt><trkpt lat="37.066988806625524" lon="-1.866709287671966"><ele>83.0</ele><time>2026-04-21T07:58:17.999Z</time></trkpt><trkpt lat="37.066843667669325" lon="-1.866871197126118"><ele>83.0</ele><time>2026-04-21T07:58:18.999Z</time></trkpt><trkpt lat="37.066696368709756" lon="-1.8670420832639005"><ele>84.66666666666667</ele><time>2026-04-21T07:58:19.999Z</time></trkpt><trkpt lat="37.066544036395584" lon="-1.8671869643199897"><ele>86.33333333333333</ele><time>2026-04-21T07:58:20.999Z</time></trkpt><trkpt lat="37.0664007352044" lon="-1.867347855522464"><ele>88.0</ele><time>2026-04-21T07:58:21.999Z</time></trkpt><trkpt lat="37.06625573964706" lon="-1.8675094874079203"><ele>90.33333333333333</ele><time>2026-04-21T07:58:22.999Z</time></trkpt><trkpt lat="37.06611200710974" lon="-1.867667612733597"><ele>92.66666666666667</ele><time>2026-04-21T07:58:23.999Z</time></trkpt><trkpt lat="37.06596898542488" lon="-1.8678350674187374"><ele>95.0</ele><time>2026-04-21T07:58:24.999Z</time></trkpt><trkpt lat="37.06581705313148" lon="-1.86800205134639"><ele>94.33333333333334</ele><time>2026-04-21T07:58:25.999Z</time></trkpt><trkpt lat="37.06567239460764" lon="-1.8681499665311845"><ele>93.66666666666667</ele><time>2026-04-21T07:58:26.999Z</time></trkpt><trkpt lat="37.06551886340664" lon="-1.8683239355148888"><ele>93.0</ele><time>2026-04-21T07:58:27.999Z</time></trkpt><trkpt lat="37.06535519271869" lon="-1.8684819288129126"><ele>93.0</ele><time>2026-04-21T07:58:28.999Z</time></trkpt><trkpt lat="37.06521689016763" lon="-1.8686392638862759"><ele>93.0</ele><time>2026-04-21T07:58:29.999Z</time></trkpt><trkpt lat="37.06508240447763" lon="-1.8687996421937718"><ele>93.0</ele><time>2026-04-21T07:58:30.999Z</time></trkpt><trkpt lat="37.06493370098646" lon="-1.8689303732157225"><ele>93.0</ele><time>2026-04-21T07:58:31.999Z</time></trkpt><trkpt lat="37.06480036511306" lon="-1.869061605601644"><ele>93.0</ele><time>2026-04-21T07:58:32.999Z</time></trkpt><trkpt lat="37.06466409507507" lon="-1.8691860352860323"><ele>93.0</ele><time>2026-04-21T07:58:33.999Z</time></trkpt><trkpt lat="37.064545165955245" lon="-1.869299391875803"><ele>93.66666666666667</ele><time>2026-04-21T07:58:34.999Z</time></trkpt><trkpt lat="37.06443564276159" lon="-1.869400583108179"><ele>94.33333333333334</ele><time>2026-04-21T07:58:35.999Z</time></trkpt><trkpt lat="37.064316088266345" lon="-1.869519537962222"><ele>95.0</ele><time>2026-04-21T07:58:36.999Z</time></trkpt><trkpt lat="37.06418393641304" lon="-1.8696490821334384"><ele>97.0</ele><time>2026-04-21T07:58:37.999Z</time></trkpt><trkpt lat="37.06405236519244" lon="-1.8697806482211452"><ele>99.0</ele><time>2026-04-21T07:58:38.999Z</time></trkpt><trkpt lat="37.06390320688933" lon="-1.869928519798093"><ele>101.0</ele><time>2026-04-21T07:58:39.999Z</time></trkpt><trkpt lat="37.063758682205844" lon="-1.87007882364244"><ele>101.33333333333333</ele><time>2026-04-21T07:58:40.999Z</time></trkpt><trkpt lat="37.063608784965744" lon="-1.8702268403396571"><ele>101.66666666666666</ele><time>2026-04-21T07:58:41.999Z</time></trkpt><trkpt lat="37.063466193432944" lon="-1.8703790690968494"><ele>102.0</ele><time>2026-04-21T07:58:42.999Z</time></trkpt><trkpt lat="37.06330703699715" lon="-1.8705392257116575"><ele>103.66666666666666</ele><time>2026-04-21T07:58:43.999Z</time></trkpt><trkpt lat="37.063148359652715" lon="-1.8706946032884701"><ele>105.33333333333333</ele><time>2026-04-21T07:58:44.999Z</time></trkpt><trkpt lat="37.06299298652264" lon="-1.8708491785188752"><ele>107.0</ele><time>2026-04-21T07:58:45.999Z</time></trkpt><trkpt lat="37.062841884972634" lon="-1.8710012484190013"><ele>107.33333333333333</ele><time>2026-04-21T07:58:46.999Z</time></trkpt><trkpt lat="37.06268855892639" lon="-1.8711528357292269"><ele>107.66666666666666</ele><time>2026-04-21T07:58:47.999Z</time></trkpt><trkpt lat="37.0625491416763" lon="-1.8713163456696087"><ele>108.0</ele><time>2026-04-21T07:58:48.999Z</time></trkpt><trkpt lat="37.06242449321157" lon="-1.871513940931508"><ele>110.66666666666666</ele><time>2026-04-21T07:58:49.999Z</time></trkpt><trkpt lat="37.06233761925374" lon="-1.8717459175406481"><ele>113.33333333333333</ele><time>2026-04-21T07:58:50.999Z</time></trkpt><trkpt lat="37.062246684028466" lon="-1.8719976922714228"><ele>116.0</ele><time>2026-04-21T07:58:51.999Z</time></trkpt><trkpt lat="37.062141327626534" lon="-1.8722143544388816"><ele>117.66666666666666</ele><time>2026-04-21T07:58:52.999Z</time></trkpt><trkpt lat="37.062038088319916" lon="-1.872429082296079"><ele>119.33333333333334</ele><time>2026-04-21T07:58:53.999Z</time></trkpt><trkpt lat="37.061970239532094" lon="-1.872641184065305"><ele>121.0</ele><time>2026-04-21T07:58:54.999Z</time></trkpt><trkpt lat="37.06191111870591" lon="-1.8728592706571483"><ele>122.0</ele><time>2026-04-21T07:58:55.999Z</time></trkpt><trkpt lat="37.061855220752456" lon="-1.873094310327887"><ele>123.0</ele><time>2026-04-21T07:58:56.999Z</time></trkpt><trkpt lat="37.061801989394844" lon="-1.873322039582881"><ele>124.0</ele><time>2026-04-21T07:58:57.999Z</time></trkpt><trkpt lat="37.06176224107779" lon="-1.8735401070824178"><ele>125.33333333333334</ele><time>2026-04-21T07:58:58.999Z</time></trkpt><trkpt lat="37.06173998554881" lon="-1.8737438425266202"><ele>126.66666666666666</ele><time>2026-04-21T07:58:59.999Z</time></trkpt><trkpt lat="37.0616978684468" lon="-1.8739385764500391"><ele>128.0</ele><time>2026-04-21T07:59:00.999Z</time></trkpt><trkpt lat="37.06165905209943" lon="-1.8741385823865166"><ele>126.66666666666666</ele><time>2026-04-21T07:59:01.999Z</time></trkpt><trkpt lat="37.06162385710632" lon="-1.874332083521496"><ele>125.33333333333334</ele><time>2026-04-21T07:59:02.999Z</time></trkpt><trkpt lat="37.06160583408894" lon="-1.8745408372374874"><ele>124.0</ele><time>2026-04-21T07:59:03.999Z</time></trkpt><trkpt lat="37.06161354054975" lon="-1.8747510726075403"><ele>124.0</ele><time>2026-04-21T07:59:04.999Z</time></trkpt><trkpt lat="37.06163639548605" lon="-1.874987089888356"><ele>124.0</ele><time>2026-04-21T07:59:05.999Z</time></trkpt><trkpt lat="37.06168338741882" lon="-1.875220374756739"><ele>124.0</ele><time>2026-04-21T07:59:06.999Z</time></trkpt><trkpt lat="37.06173983819709" lon="-1.875454455995629"><ele>126.33333333333334</ele><time>2026-04-21T07:59:07.999Z</time></trkpt><trkpt lat="37.06179309965653" lon="-1.8756867272772162"><ele>128.66666666666666</ele><time>2026-04-21T07:59:08.999Z</time></trkpt><trkpt lat="37.06182079428983" lon="-1.8759386603922306"><ele>131.0</ele><time>2026-04-21T07:59:09.999Z</time></trkpt><trkpt lat="37.06180534987389" lon="-1.8761716130992352"><ele>131.0</ele><time>2026-04-21T07:59:10.999Z</time></trkpt><trkpt lat="37.061773256325644" lon="-1.8764194970353232"><ele>131.0</ele><time>2026-04-21T07:59:11.999Z</time></trkpt><trkpt lat="37.06169099773252" lon="-1.8766503211810508"><ele>131.0</ele><time>2026-04-21T07:59:12.999Z</time></trkpt><trkpt lat="37.061591343065786" lon="-1.8768853258613345"><ele>138.0</ele><time>2026-04-21T07:59:13.999Z</time></trkpt><trkpt lat="37.06145780625709" lon="-1.8770994711230888"><ele>145.0</ele><time>2026-04-21T07:59:14.999Z</time></trkpt><trkpt lat="37.061336786796765" lon="-1.8773259011002352"><ele>152.0</ele><time>2026-04-21T07:59:15.999Z</time></trkpt><trkpt lat="37.06122419626206" lon="-1.8775631488100408"><ele>147.66666666666666</ele><time>2026-04-21T07:59:16.999Z</time></trkpt><trkpt lat="37.06113050582714" lon="-1.877803546703861"><ele>143.33333333333334</ele><time>2026-04-21T07:59:17.999Z</time></trkpt><trkpt lat="37.06104448456851" lon="-1.878042834482662"><ele>139.0</ele><time>2026-04-21T07:59:18.999Z</time></trkpt><trkpt lat="37.06093791571037" lon="-1.8782795520601114"><ele>136.66666666666669</ele><time>2026-04-21T07:59:19.999Z</time></trkpt><trkpt lat="37.06082620311748" lon="-1.8785178157247284"><ele>134.33333333333334</ele><time>2026-04-21T07:59:20.999Z</time></trkpt><trkpt lat="37.06072329180411" lon="-1.878736209921612"><ele>132.0</ele><time>2026-04-21T07:59:21.999Z</time></trkpt><trkpt lat="37.06060936167616" lon="-1.8789381663178444"><ele>138.33333333333334</ele><time>2026-04-21T07:59:22.999Z</time></trkpt><trkpt lat="37.060503704345514" lon="-1.879136220752919"><ele>144.66666666666669</ele><time>2026-04-21T07:59:23.999Z</time></trkpt><trkpt lat="37.06040175714085" lon="-1.879342424623341"><ele>151.0</ele><time>2026-04-21T07:59:24.999Z</time></trkpt><trkpt lat="37.06030902525724" lon="-1.8795487627850143"><ele>151.0</ele><time>2026-04-21T07:59:25.999Z</time></trkpt><trkpt lat="37.06022132279783" lon="-1.8797572910987588"><ele>151.0</ele><time>2026-04-21T07:59:26.999Z</time></trkpt><trkpt lat="37.06013301504088" lon="-1.8799686443282615"><ele>151.0</ele><time>2026-04-21T07:59:27.999Z</time></trkpt><trkpt lat="37.060044873684404" lon="-1.8801746644630681"><ele>148.0</ele><time>2026-04-21T07:59:28.999Z</time></trkpt><trkpt lat="37.059955026394675" lon="-1.8803854224247505"><ele>145.0</ele><time>2026-04-21T07:59:29.999Z</time></trkpt><trkpt lat="37.0598669114372" lon="-1.8805831140147529"><ele>142.0</ele><time>2026-04-21T07:59:30.999Z</time></trkpt><trkpt lat="37.05977968245812" lon="-1.8807688015125021"><ele>146.33333333333334</ele><time>2026-04-21T07:59:31.999Z</time></trkpt><trkpt lat="37.05968270399666" lon="-1.8809718555358013"><ele>150.66666666666666</ele><time>2026-04-21T07:59:32.999Z</time></trkpt><trkpt lat="37.05958582220065" lon="-1.8811570658771395"><ele>155.0</ele><time>2026-04-21T07:59:33.999Z</time></trkpt><trkpt lat="37.059474880737206" lon="-1.8813456412328393"><ele>155.0</ele><time>2026-04-21T07:59:34.999Z</time></trkpt><trkpt lat="37.05932986938521" lon="-1.88150091844541"><ele>155.0</ele><time>2026-04-21T07:59:35.999Z</time></trkpt><trkpt lat="37.059179971110645" lon="-1.8816408759008938"><ele>155.0</ele><time>2026-04-21T07:59:36.999Z</time></trkpt><trkpt lat="37.059002279897214" lon="-1.8817545575400145"><ele>153.66666666666666</ele><time>2026-04-21T07:59:37.999Z</time></trkpt><trkpt lat="37.05881247617153" lon="-1.8818560372632076"><ele>152.33333333333334</ele><time>2026-04-21T07:59:38.999Z</time></trkpt><trkpt lat="37.05859411640594" lon="-1.881905220557169"><ele>151.0</ele><time>2026-04-21T07:59:39.999Z</time></trkpt><trkpt lat="37.05836582300432" lon="-1.8819357165345572"><ele>153.0</ele><time>2026-04-21T07:59:40.999Z</time></trkpt><trkpt lat="37.05814981232078" lon="-1.881926306467341"><ele>155.0</ele><time>2026-04-21T07:59:41.999Z</time></trkpt><trkpt lat="37.05795166469319" lon="-1.8819003591145216"><ele>157.0</ele><time>2026-04-21T07:59:42.999Z</time></trkpt><trkpt lat="37.057789119074805" lon="-1.8818660124211501"><ele>157.0</ele><time>2026-04-21T07:59:43.999Z</time></trkpt><trkpt lat="37.05767757732996" lon="-1.8817751094371784"><ele>157.0</ele><time>2026-04-21T07:59:44.999Z</time></trkpt><trkpt lat="37.057589545009" lon="-1.8816630403071053"><ele>157.0</ele><time>2026-04-21T07:59:45.999Z</time></trkpt><trkpt lat="37.05750578965746" lon="-1.8815511013321558"><ele>157.0</ele><time>2026-04-21T07:59:46.999Z</time></trkpt><trkpt lat="37.05746360985415" lon="-1.8814098295086035"><ele>161.0</ele><time>2026-04-21T07:59:47.999Z</time></trkpt><trkpt lat="37.05736482683558" lon="-1.8813094731228102"><ele>165.0</ele><time>2026-04-21T07:59:48.999Z</time></trkpt><trkpt lat="37.057262624412964" lon="-1.8812554012006155"><ele>169.0</ele><time>2026-04-21T07:59:49.999Z</time></trkpt><trkpt lat="37.05712623697524" lon="-1.8812283925080604"><ele>173.0</ele><time>2026-04-21T07:59:50.999Z</time></trkpt><trkpt lat="37.057010811762616" lon="-1.881209547315552"><ele>173.0</ele><time>2026-04-21T07:59:51.999Z</time></trkpt><trkpt lat="37.05691388646408" lon="-1.881183482789993"><ele>173.0</ele><time>2026-04-21T07:59:52.999Z</time></trkpt><trkpt lat="37.056824320937075" lon="-1.8811128207161731"><ele>173.0</ele><time>2026-04-21T07:59:53.999Z</time></trkpt><trkpt lat="37.05673191728362" lon="-1.881059055197289"><ele>173.0</ele><time>2026-04-21T07:59:54.999Z</time></trkpt><trkpt lat="37.05665841210452" lon="-1.8809851407453084"><ele>173.0</ele><time>2026-04-21T07:59:55.999Z</time></trkpt><trkpt lat="37.05655858493789" lon="-1.8809425526750183"><ele>171.0</ele><time>2026-04-21T07:59:56.999Z</time></trkpt><trkpt lat="37.05645072082195" lon="-1.8808991786998481"><ele>169.0</ele><time>2026-04-21T07:59:57.999Z</time></trkpt><trkpt lat="37.05633507904955" lon="-1.88085782213273"><ele>167.0</ele><time>2026-04-21T07:59:58.999Z</time></trkpt><trkpt lat="37.056231815961716" lon="-1.8808400746695288"><ele>165.0</ele><time>2026-04-21T07:59:59.999Z</time></trkpt><trkpt lat="37.056130264504404" lon="-1.8808032380720088"><ele>163.0</ele><time>2026-04-21T08:00:00.999Z</time></trkpt><trkpt lat="37.056013085533195" lon="-1.880781467729509"><ele>163.0</ele><time>2026-04-21T08:00:01.999Z</time></trkpt><trkpt lat="37.055879615222594" lon="-1.8807748722138626"><ele>163.0</ele><time>2026-04-21T08:00:02.999Z</time></trkpt><trkpt lat="37.05574445617021" lon="-1.880752090164076"><ele>163.0</ele><time>2026-04-21T08:00:03.999Z</time></trkpt><trkpt lat="37.05560510982265" lon="-1.880757456634918"><ele>163.0</ele><time>2026-04-21T08:00:04.999Z</time></trkpt><trkpt lat="37.05546210026847" lon="-1.8807976511976203"><ele>162.33333333333334</ele><time>2026-04-21T08:00:05.999Z</time></trkpt><trkpt lat="37.05531322765716" lon="-1.880887931291855"><ele>161.66666666666666</ele><time>2026-04-21T08:00:06.999Z</time></trkpt><trkpt lat="37.05517415873598" lon="-1.8810120598596407"><ele>161.0</ele><time>2026-04-21T08:00:07.999Z</time></trkpt><trkpt lat="37.05504835605613" lon="-1.8811334733342497"><ele>158.5</ele><time>2026-04-21T08:00:08.999Z</time></trkpt><trkpt lat="37.054932694995166" lon="-1.8812373627463812"><ele>156.0</ele><time>2026-04-21T08:00:09.999Z</time></trkpt><trkpt lat="37.05480867849072" lon="-1.8813250386344904"><ele>153.5</ele><time>2026-04-21T08:00:10.999Z</time></trkpt><trkpt lat="37.054681292434616" lon="-1.8814171023008994"><ele>151.0</ele><time>2026-04-21T08:00:11.999Z</time></trkpt><trkpt lat="37.05454866573268" lon="-1.8814966798426074"><ele>151.0</ele><time>2026-04-21T08:00:12.999Z</time></trkpt><trkpt lat="37.05441248442598" lon="-1.8815388826961161"><ele>151.0</ele><time>2026-04-21T08:00:13.999Z</time></trkpt><trkpt lat="37.05428255091765" lon="-1.8815561406329682"><ele>151.0</ele><time>2026-04-21T08:00:14.999Z</time></trkpt><trkpt lat="37.05414888373203" lon="-1.8815632816653687"><ele>151.0</ele><time>2026-04-21T08:00:15.999Z</time></trkpt><trkpt lat="37.054017260434314" lon="-1.8815442484943934"><ele>152.25</ele><time>2026-04-21T08:00:16.999Z</time></trkpt><trkpt lat="37.05388641295068" lon="-1.8815186885933586"><ele>153.5</ele><time>2026-04-21T08:00:17.999Z</time></trkpt><trkpt lat="37.05375652680409" lon="-1.8814674128000903"><ele>154.75</ele><time>2026-04-21T08:00:18.998Z</time></trkpt><trkpt lat="37.053624120660245" lon="-1.8813926050279146"><ele>156.0</ele><time>2026-04-21T08:00:19.998Z</time></trkpt><trkpt lat="37.053499972764364" lon="-1.8812885107400499"><ele>156.0</ele><time>2026-04-21T08:00:20.998Z</time></trkpt><trkpt lat="37.05339421692401" lon="-1.8811397855206842"><ele>156.0</ele><time>2026-04-21T08:00:21.998Z</time></trkpt><trkpt lat="37.0532916109286" lon="-1.8809970364963762"><ele>156.0</ele><time>2026-04-21T08:00:22.998Z</time></trkpt><trkpt lat="37.05318501055681" lon="-1.8808561776106418"><ele>147.66666666666666</ele><time>2026-04-21T08:00:23.998Z</time></trkpt><trkpt lat="37.05306130704239" lon="-1.8807192318760002"><ele>139.33333333333331</ele><time>2026-04-21T08:00:24.998Z</time></trkpt><trkpt lat="37.0529375119177" lon="-1.8806062150088152"><ele>131.0</ele><time>2026-04-21T08:00:25.998Z</time></trkpt><trkpt lat="37.05282851709149" lon="-1.880474186619754"><ele>131.0</ele><time>2026-04-21T08:00:26.998Z</time></trkpt><trkpt lat="37.05271776605064" lon="-1.8803534015806556"><ele>131.0</ele><time>2026-04-21T08:00:27.998Z</time></trkpt><trkpt lat="37.05260585290132" lon="-1.8802420556064108"><ele>131.0</ele><time>2026-04-21T08:00:28.998Z</time></trkpt><trkpt lat="37.052500920927606" lon="-1.8801276137352994"><ele>131.0</ele><time>2026-04-21T08:00:29.998Z</time></trkpt><trkpt lat="37.0523954289547" lon="-1.8800338816476616"><ele>123.66666666666666</ele><time>2026-04-21T08:00:30.998Z</time></trkpt><trkpt lat="37.05226745909413" lon="-1.8799447368886162"><ele>116.33333333333334</ele><time>2026-04-21T08:00:31.998Z</time></trkpt><trkpt lat="37.052098512632554" lon="-1.879916521234567"><ele>109.0</ele><time>2026-04-21T08:00:32.998Z</time></trkpt><trkpt lat="37.05190586022641" lon="-1.8799475698400128"><ele>109.0</ele><time>2026-04-21T08:00:33.998Z</time></trkpt><trkpt lat="37.05173032678861" lon="-1.8800247482855283"><ele>109.0</ele><time>2026-04-21T08:00:34.998Z</time></trkpt><trkpt lat="37.0515562919552" lon="-1.8800921044155554"><ele>109.0</ele><time>2026-04-21T08:00:35.998Z</time></trkpt><trkpt lat="37.05138003342296" lon="-1.8801678799129573"><ele>112.33333333333334</ele><time>2026-04-21T08:00:36.998Z</time></trkpt><trkpt lat="37.051220052694276" lon="-1.8802114146531241"><ele>115.66666666666666</ele><time>2026-04-21T08:00:37.998Z</time></trkpt><trkpt lat="37.051077333486255" lon="-1.8802499988879573"><ele>119.0</ele><time>2026-04-21T08:00:38.998Z</time></trkpt><trkpt lat="37.05092913788196" lon="-1.8802813463195827"><ele>121.0</ele><time>2026-04-21T08:00:39.998Z</time></trkpt><trkpt lat="37.050779825245385" lon="-1.8802990774486237"><ele>123.0</ele><time>2026-04-21T08:00:40.998Z</time></trkpt><trkpt lat="37.05060881171534" lon="-1.8803333113677376"><ele>125.0</ele><time>2026-04-21T08:00:41.998Z</time></trkpt><trkpt lat="37.05043134511617" lon="-1.8803718110193928"><ele>125.0</ele><time>2026-04-21T08:00:42.998Z</time></trkpt><trkpt lat="37.0502519519216" lon="-1.8804150713804015"><ele>125.0</ele><time>2026-04-21T08:00:43.998Z</time></trkpt><trkpt lat="37.0500725333225" lon="-1.8804485044552546"><ele>125.0</ele><time>2026-04-21T08:00:44.998Z</time></trkpt><trkpt lat="37.049896051330606" lon="-1.8804618831323427"><ele>126.33333333333333</ele><time>2026-04-21T08:00:45.998Z</time></trkpt><trkpt lat="37.04972876487062" lon="-1.8804470605630046"><ele>127.66666666666666</ele><time>2026-04-21T08:00:46.998Z</time></trkpt><trkpt lat="37.049547961313905" lon="-1.8804200837294012"><ele>129.0</ele><time>2026-04-21T08:00:47.998Z</time></trkpt><trkpt lat="37.04938269860262" lon="-1.8803612065691233"><ele>129.0</ele><time>2026-04-21T08:00:48.998Z</time></trkpt><trkpt lat="37.04921219410819" lon="-1.8802908254518877"><ele>129.0</ele><time>2026-04-21T08:00:49.998Z</time></trkpt><trkpt lat="37.049040006362844" lon="-1.8802115643202988"><ele>129.0</ele><time>2026-04-21T08:00:50.998Z</time></trkpt><trkpt lat="37.04889639863275" lon="-1.8800610932769153"><ele>133.0</ele><time>2026-04-21T08:00:51.998Z</time></trkpt><trkpt lat="37.04876427513522" lon="-1.8799161600734051"><ele>137.0</ele><time>2026-04-21T08:00:52.998Z</time></trkpt><trkpt lat="37.04864997491928" lon="-1.8797333981356343"><ele>141.0</ele><time>2026-04-21T08:00:53.998Z</time></trkpt><trkpt lat="37.04854869210353" lon="-1.8795574017803267"><ele>141.0</ele><time>2026-04-21T08:00:54.998Z</time></trkpt><trkpt lat="37.04846253316819" lon="-1.8793892295419286"><ele>141.0</ele><time>2026-04-21T08:00:55.998Z</time></trkpt><trkpt lat="37.0483884123545" lon="-1.8792113758291642"><ele>141.0</ele><time>2026-04-21T08:00:56.998Z</time></trkpt><trkpt lat="37.04832104169537" lon="-1.8790152743417108"><ele>146.33333333333334</ele><time>2026-04-21T08:00:57.998Z</time></trkpt><trkpt lat="37.048276809677596" lon="-1.878814449349137"><ele>151.66666666666669</ele><time>2026-04-21T08:00:58.998Z</time></trkpt><trkpt lat="37.04824465023688" lon="-1.8786071952926304"><ele>157.0</ele><time>2026-04-21T08:00:59.998Z</time></trkpt><trkpt lat="37.04822506485755" lon="-1.8784086817972778"><ele>157.0</ele><time>2026-04-21T08:01:00.998Z</time></trkpt><trkpt lat="37.04818229503854" lon="-1.878244409906657"><ele>157.0</ele><time>2026-04-21T08:01:01.998Z</time></trkpt><trkpt lat="37.04815441997859" lon="-1.8780944050151596"><ele>157.0</ele><time>2026-04-21T08:01:02.998Z</time></trkpt><trkpt lat="37.04808286426049" lon="-1.877957909843106"><ele>157.0</ele><time>2026-04-21T08:01:03.998Z</time></trkpt><trkpt lat="37.04796985930795" lon="-1.8778451295867655"><ele>157.0</ele><time>2026-04-21T08:01:04.998Z</time></trkpt><trkpt lat="37.047840274104075" lon="-1.8778064535266248"><ele>157.0</ele><time>2026-04-21T08:01:05.998Z</time></trkpt><trkpt lat="37.0477028930237" lon="-1.8778503527662027"><ele>157.0</ele><time>2026-04-21T08:01:06.998Z</time></trkpt><trkpt lat="37.047557594638654" lon="-1.8779133527126761"><ele>157.0</ele><time>2026-04-21T08:01:07.998Z</time></trkpt><trkpt lat="37.04742287462928" lon="-1.8779759301959105"><ele>162.33333333333334</ele><time>2026-04-21T08:01:08.998Z</time></trkpt><trkpt lat="37.04727635659616" lon="-1.87796517925981"><ele>167.66666666666666</ele><time>2026-04-21T08:01:09.998Z</time></trkpt><trkpt lat="37.04712478035628" lon="-1.8779251320694441"><ele>173.0</ele><time>2026-04-21T08:01:10.998Z</time></trkpt><trkpt lat="37.0469662497741" lon="-1.877842728619396"><ele>173.0</ele><time>2026-04-21T08:01:11.998Z</time></trkpt><trkpt lat="37.04681352955076" lon="-1.8777106217208446"><ele>173.0</ele><time>2026-04-21T08:01:12.998Z</time></trkpt><trkpt lat="37.04671837533868" lon="-1.8775344929282407"><ele>173.0</ele><time>2026-04-21T08:01:13.998Z</time></trkpt><trkpt lat="37.04666049639335" lon="-1.8773232730599758"><ele>167.66666666666666</ele><time>2026-04-21T08:01:14.998Z</time></trkpt><trkpt lat="37.04664826474754" lon="-1.8771023745504896"><ele>162.33333333333334</ele><time>2026-04-21T08:01:15.998Z</time></trkpt><trkpt lat="37.04664065471115" lon="-1.8768950204505006"><ele>157.0</ele><time>2026-04-21T08:01:16.998Z</time></trkpt><trkpt lat="37.0466308303938" lon="-1.876695197220693"><ele>154.75</ele><time>2026-04-21T08:01:17.998Z</time></trkpt><trkpt lat="37.046668047916945" lon="-1.876524849916759"><ele>152.5</ele><time>2026-04-21T08:01:18.998Z</time></trkpt><trkpt lat="37.04667981403395" lon="-1.8763635383355173"><ele>150.25</ele><time>2026-04-21T08:01:19.998Z</time></trkpt><trkpt lat="37.04664371200504" lon="-1.876222810691432"><ele>148.0</ele><time>2026-04-21T08:01:20.998Z</time></trkpt><trkpt lat="37.046575525426555" lon="-1.8761045963793743"><ele>156.5</ele><time>2026-04-21T08:01:21.998Z</time></trkpt><trkpt lat="37.04649580662494" lon="-1.8759902283930316"><ele>165.0</ele><time>2026-04-21T08:01:22.998Z</time></trkpt><trkpt lat="37.046420163000256" lon="-1.8758762141083158"><ele>173.5</ele><time>2026-04-21T08:01:23.998Z</time></trkpt><trkpt lat="37.046350603444324" lon="-1.875751995686214"><ele>182.0</ele><time>2026-04-21T08:01:24.998Z</time></trkpt><trkpt lat="37.04627842908388" lon="-1.8756243626759244"><ele>182.0</ele><time>2026-04-21T08:01:25.998Z</time></trkpt><trkpt lat="37.04619860629624" lon="-1.875489492588079"><ele>182.0</ele><time>2026-04-21T08:01:26.998Z</time></trkpt><trkpt lat="37.04614253865064" lon="-1.8753388215805487"><ele>182.0</ele><time>2026-04-21T08:01:27.998Z</time></trkpt><trkpt lat="37.04609244405517" lon="-1.8751667625027548"><ele>182.0</ele><time>2026-04-21T08:01:28.998Z</time></trkpt><trkpt lat="37.046087322282226" lon="-1.874986378291173"><ele>179.75</ele><time>2026-04-21T08:01:29.998Z</time></trkpt><trkpt lat="37.04609637592975" lon="-1.8748127740602858"><ele>177.5</ele><time>2026-04-21T08:01:30.998Z</time></trkpt><trkpt lat="37.046128386029075" lon="-1.8746472339797928"><ele>175.25</ele><time>2026-04-21T08:01:31.998Z</time></trkpt><trkpt lat="37.046152154039014" lon="-1.8744845756007433"><ele>173.0</ele><time>2026-04-21T08:01:32.998Z</time></trkpt><trkpt lat="37.04620347845083" lon="-1.8743356885966667"><ele>173.75</ele><time>2026-04-21T08:01:33.998Z</time></trkpt><trkpt lat="37.046252279684374" lon="-1.8741882134661774"><ele>174.5</ele><time>2026-04-21T08:01:34.998Z</time></trkpt><trkpt lat="37.046312975798756" lon="-1.8740416822462596"><ele>175.25</ele><time>2026-04-21T08:01:35.998Z</time></trkpt><trkpt lat="37.046390200430544" lon="-1.8738979645394291"><ele>176.0</ele><time>2026-04-21T08:01:36.998Z</time></trkpt><trkpt lat="37.04648428664991" lon="-1.8737534770093867"><ele>176.0</ele><time>2026-04-21T08:01:37.998Z</time></trkpt><trkpt lat="37.0465768892373" lon="-1.8735816167981403"><ele>176.0</ele><time>2026-04-21T08:01:38.998Z</time></trkpt><trkpt lat="37.04662654373989" lon="-1.873450314725194"><ele>176.0</ele><time>2026-04-21T08:01:39.998Z</time></trkpt><trkpt lat="37.04665936137084" lon="-1.8732837534548372"><ele>176.0</ele><time>2026-04-21T08:01:40.998Z</time></trkpt><trkpt lat="37.04664883321184" lon="-1.8731217617356677"><ele>176.75</ele><time>2026-04-21T08:01:41.998Z</time></trkpt><trkpt lat="37.04661159378962" lon="-1.8729706723357462"><ele>177.5</ele><time>2026-04-21T08:01:42.998Z</time></trkpt><trkpt lat="37.046558338336666" lon="-1.8728094132788753"><ele>178.25</ele><time>2026-04-21T08:01:43.998Z</time></trkpt><trkpt lat="37.046488089179796" lon="-1.8726682362787446"><ele>179.0</ele><time>2026-04-21T08:01:44.998Z</time></trkpt><trkpt lat="37.04639722689805" lon="-1.8725256616401558"><ele>179.0</ele><time>2026-04-21T08:01:45.998Z</time></trkpt><trkpt lat="37.04629037711108" lon="-1.872399782608835"><ele>179.0</ele><time>2026-04-21T08:01:46.998Z</time></trkpt><trkpt lat="37.046184503305355" lon="-1.8722707242038508"><ele>179.0</ele><time>2026-04-21T08:01:47.998Z</time></trkpt><trkpt lat="37.04609371584969" lon="-1.8721509300879546"><ele>179.0</ele><time>2026-04-21T08:01:48.998Z</time></trkpt><trkpt lat="37.04599642439108" lon="-1.8720263204162033"><ele>179.0</ele><time>2026-04-21T08:01:49.998Z</time></trkpt><trkpt lat="37.045909291791766" lon="-1.871906013230878"><ele>179.0</ele><time>2026-04-21T08:01:50.998Z</time></trkpt><trkpt lat="37.04579681946158" lon="-1.8718234175556927"><ele>179.0</ele><time>2026-04-21T08:01:51.998Z</time></trkpt><trkpt lat="37.04568670637794" lon="-1.8717518094939571"><ele>179.0</ele><time>2026-04-21T08:01:52.998Z</time></trkpt><trkpt lat="37.045555131872774" lon="-1.8717136995667327"><ele>179.0</ele><time>2026-04-21T08:01:53.998Z</time></trkpt><trkpt lat="37.04540660128975" lon="-1.8717204539120336"><ele>179.0</ele><time>2026-04-21T08:01:54.998Z</time></trkpt><trkpt lat="37.045270290649626" lon="-1.87176617345193"><ele>179.0</ele><time>2026-04-21T08:01:55.998Z</time></trkpt><trkpt lat="37.04512891364007" lon="-1.871796340995399"><ele>179.0</ele><time>2026-04-21T08:01:56.998Z</time></trkpt><trkpt lat="37.045002559491955" lon="-1.8718596351145207"><ele>175.0</ele><time>2026-04-21T08:01:57.998Z</time></trkpt><trkpt lat="37.04488444244124" lon="-1.8719177120059765"><ele>171.0</ele><time>2026-04-21T08:01:58.998Z</time></trkpt><trkpt lat="37.04479573574272" lon="-1.871967384727536"><ele>167.0</ele><time>2026-04-21T08:01:59.998Z</time></trkpt><trkpt lat="37.044713388126944" lon="-1.8720420257314416"><ele>163.0</ele><time>2026-04-21T08:02:00.998Z</time></trkpt><trkpt lat="37.044627468092244" lon="-1.8721393868142995"><ele>159.0</ele><time>2026-04-21T08:02:01.998Z</time></trkpt><trkpt lat="37.044568920569816" lon="-1.8722540370905292"><ele>159.0</ele><time>2026-04-21T08:02:02.998Z</time></trkpt><trkpt lat="37.04454753667799" lon="-1.872399882358445"><ele>159.0</ele><time>2026-04-21T08:02:03.998Z</time></trkpt><trkpt lat="37.04457575074304" lon="-1.8725229969845656"><ele>159.0</ele><time>2026-04-21T08:02:04.998Z</time></trkpt><trkpt lat="37.04462240382229" lon="-1.8726468927395168"><ele>159.0</ele><time>2026-04-21T08:02:05.998Z</time></trkpt><trkpt lat="37.0446708579577" lon="-1.8727674197784467"><ele>159.0</ele><time>2026-04-21T08:02:06.998Z</time></trkpt><trkpt lat="37.044739375556226" lon="-1.872879444051589"><ele>152.25</ele><time>2026-04-21T08:02:07.998Z</time></trkpt><trkpt lat="37.044799448874784" lon="-1.8729986353931822"><ele>145.5</ele><time>2026-04-21T08:02:08.998Z</time></trkpt><trkpt lat="37.04482263971349" lon="-1.8731377722614708"><ele>138.75</ele><time>2026-04-21T08:02:09.998Z</time></trkpt><trkpt lat="37.04481876818341" lon="-1.8732826437214085"><ele>132.0</ele><time>2026-04-21T08:02:10.998Z</time></trkpt><trkpt lat="37.0447872936866" lon="-1.8734256281909225"><ele>130.2</ele><time>2026-04-21T08:02:11.998Z</time></trkpt><trkpt lat="37.04476952441564" lon="-1.8735723847519798"><ele>128.39999999999998</ele><time>2026-04-21T08:02:12.998Z</time></trkpt><trkpt lat="37.04475925579816" lon="-1.8737245885218534"><ele>126.60000000000001</ele><time>2026-04-21T08:02:13.998Z</time></trkpt><trkpt lat="37.044753326595156" lon="-1.8738648754019407"><ele>124.80000000000001</ele><time>2026-04-21T08:02:14.998Z</time></trkpt><trkpt lat="37.04475437089045" lon="-1.8739861491034002"><ele>123.0</ele><time>2026-04-21T08:02:15.998Z</time></trkpt><trkpt lat="37.044737535642724" lon="-1.8740809930426887"><ele>123.00000000000001</ele><time>2026-04-21T08:02:16.998Z</time></trkpt><trkpt lat="37.04471334996967" lon="-1.8741561438204004"><ele>123.0</ele><time>2026-04-21T08:02:17.998Z</time></trkpt><trkpt lat="37.044683739098545" lon="-1.8742482170301493"><ele>123.00000000000001</ele><time>2026-04-21T08:02:19.998Z</time></trkpt><trkpt lat="37.04467885438954" lon="-1.8743271719517938"><ele>123.00000000000001</ele><time>2026-04-21T08:02:25.998Z</time></trkpt><trkpt lat="37.04463252951748" lon="-1.874381920869585"><ele>123.0</ele><time>2026-04-21T08:03:51.999Z</time></trkpt><trkpt lat="37.044634059453706" lon="-1.874465628352365"><ele>123.00000000000001</ele><time>2026-04-21T08:03:56.999Z</time></trkpt><trkpt lat="37.0446635236801" lon="-1.8745815870173443"><ele>123.00000000000001</ele><time>2026-04-21T08:03:59Z</time></trkpt><trkpt lat="37.04470100225696" lon="-1.8747332915579842"><ele>123.16666666666667</ele><time>2026-04-21T08:04:01Z</time></trkpt><trkpt lat="37.04472305359431" lon="-1.8748190260634539"><ele>123.33333333333334</ele><time>2026-04-21T08:04:02Z</time></trkpt><trkpt lat="37.04475327397941" lon="-1.87490645387473"><ele>123.5</ele><time>2026-04-21T08:04:03Z</time></trkpt><trkpt lat="37.04477827619701" lon="-1.8749982470739799"><ele>123.66666666666667</ele><time>2026-04-21T08:04:04Z</time></trkpt><trkpt lat="37.044790970601845" lon="-1.8750999339477417"><ele>123.83333333333334</ele><time>2026-04-21T08:04:05Z</time></trkpt><trkpt lat="37.04477141325953" lon="-1.8752043262659457"><ele>124.0</ele><time>2026-04-21T08:04:06Z</time></trkpt><trkpt lat="37.04472248977902" lon="-1.8752993181857711"><ele>131.4</ele><time>2026-04-21T08:04:07Z</time></trkpt><trkpt lat="37.044656765710904" lon="-1.8753802497293584"><ele>138.8</ele><time>2026-04-21T08:04:08Z</time></trkpt><trkpt lat="37.04458608185504" lon="-1.87545750003115"><ele>146.20000000000002</ele><time>2026-04-21T08:04:09Z</time></trkpt><trkpt lat="37.04451268636864" lon="-1.8755291948157315"><ele>153.60000000000002</ele><time>2026-04-21T08:04:10Z</time></trkpt><trkpt lat="37.044436504692825" lon="-1.8755980307477895"><ele>161.0</ele><time>2026-04-21T08:04:11Z</time></trkpt><trkpt lat="37.04435250611027" lon="-1.8756682011759662"><ele>161.0</ele><time>2026-04-21T08:04:12Z</time></trkpt><trkpt lat="37.04426160404595" lon="-1.8757312086947728"><ele>161.0</ele><time>2026-04-21T08:04:13Z</time></trkpt><trkpt lat="37.044164910393874" lon="-1.8757943543830147"><ele>161.0</ele><time>2026-04-21T08:04:14Z</time></trkpt><trkpt lat="37.04405994758422" lon="-1.875849989377836"><ele>161.0</ele><time>2026-04-21T08:04:15Z</time></trkpt><trkpt lat="37.04395204608567" lon="-1.875902274977978"><ele>161.0</ele><time>2026-04-21T08:04:16Z</time></trkpt><trkpt lat="37.043839358866826" lon="-1.8759365475725605"><ele>160.25</ele><time>2026-04-21T08:04:17Z</time></trkpt><trkpt lat="37.04372383033743" lon="-1.8759641093071868"><ele>159.5</ele><time>2026-04-21T08:04:18Z</time></trkpt><trkpt lat="37.04360828192739" lon="-1.8759966329458195"><ele>158.75</ele><time>2026-04-21T08:04:19Z</time></trkpt><trkpt lat="37.04349395854561" lon="-1.8760464629997033"><ele>158.0</ele><time>2026-04-21T08:04:20Z</time></trkpt><trkpt lat="37.0433823775567" lon="-1.876114515788858"><ele>153.4</ele><time>2026-04-21T08:04:21Z</time></trkpt><trkpt lat="37.04328159895985" lon="-1.8761923787343777"><ele>148.8</ele><time>2026-04-21T08:04:22Z</time></trkpt><trkpt lat="37.043198734091945" lon="-1.876287763803249"><ele>144.2</ele><time>2026-04-21T08:04:23Z</time></trkpt><trkpt lat="37.043145455466934" lon="-1.8764042706945663"><ele>139.6</ele><time>2026-04-21T08:04:24Z</time></trkpt><trkpt lat="37.043092483578825" lon="-1.8765125749296443"><ele>135.0</ele><time>2026-04-21T08:04:25Z</time></trkpt><trkpt lat="37.043048260742594" lon="-1.8766171157821354"><ele>135.0</ele><time>2026-04-21T08:04:26Z</time></trkpt><trkpt lat="37.04299527730289" lon="-1.8767002163979634"><ele>135.0</ele><time>2026-04-21T08:04:27Z</time></trkpt><trkpt lat="37.042924082386996" lon="-1.8767411811649595"><ele>135.0</ele><time>2026-04-21T08:04:28Z</time></trkpt><trkpt lat="37.042839005981065" lon="-1.8767593307221992"><ele>135.0</ele><time>2026-04-21T08:04:29Z</time></trkpt><trkpt lat="37.042747938999305" lon="-1.8767582420074949"><ele>135.0</ele><time>2026-04-21T08:04:30Z</time></trkpt><trkpt lat="37.042653107199634" lon="-1.8767561362205718"><ele>135.0</ele><time>2026-04-21T08:04:31Z</time></trkpt><trkpt lat="37.042550872731105" lon="-1.8767474737176935"><ele>134.2</ele><time>2026-04-21T08:04:32Z</time></trkpt><trkpt lat="37.042441242364596" lon="-1.8767374730292814"><ele>133.4</ele><time>2026-04-21T08:04:33Z</time></trkpt><trkpt lat="37.042327182858536" lon="-1.8767347277087714"><ele>132.6</ele><time>2026-04-21T08:04:34Z</time></trkpt><trkpt lat="37.04221673218898" lon="-1.8767486516140472"><ele>131.8</ele><time>2026-04-21T08:04:35Z</time></trkpt><trkpt lat="37.042108027613665" lon="-1.8767639289536784"><ele>131.0</ele><time>2026-04-21T08:04:36Z</time></trkpt><trkpt lat="37.04200253859625" lon="-1.8767820765012164"><ele>131.0</ele><time>2026-04-21T08:04:37Z</time></trkpt><trkpt lat="37.041906776077404" lon="-1.8767972915732627"><ele>131.0</ele><time>2026-04-21T08:04:38Z</time></trkpt><trkpt lat="37.041818299723694" lon="-1.8768164815983999"><ele>131.0</ele><time>2026-04-21T08:04:39Z</time></trkpt><trkpt lat="37.04173269663841" lon="-1.8768252118837419"><ele>131.0</ele><time>2026-04-21T08:04:40Z</time></trkpt><trkpt lat="37.04164774437672" lon="-1.8768418639335778"><ele>131.0</ele><time>2026-04-21T08:04:41Z</time></trkpt><trkpt lat="37.04156275427411" lon="-1.8768684494617938"><ele>131.0</ele><time>2026-04-21T08:04:42Z</time></trkpt><trkpt lat="37.04147369083465" lon="-1.8768973410137597"><ele>124.66666666666666</ele><time>2026-04-21T08:04:43Z</time></trkpt><trkpt lat="37.04138450745043" lon="-1.876900534041587"><ele>118.33333333333333</ele><time>2026-04-21T08:04:44Z</time></trkpt><trkpt lat="37.04129871091006" lon="-1.8768886287753481"><ele>112.0</ele><time>2026-04-21T08:04:45Z</time></trkpt><trkpt lat="37.0412212867699" lon="-1.8768587678552455"><ele>105.66666666666666</ele><time>2026-04-21T08:04:46Z</time></trkpt><trkpt lat="37.04115016249261" lon="-1.8768290452925118"><ele>99.33333333333333</ele><time>2026-04-21T08:04:47Z</time></trkpt><trkpt lat="37.041083834411545" lon="-1.876802576701189"><ele>93.0</ele><time>2026-04-21T08:04:48Z</time></trkpt><trkpt lat="37.04101850345682" lon="-1.8767737378998735"><ele>93.85714285714286</ele><time>2026-04-21T08:04:49Z</time></trkpt><trkpt lat="37.04095805665941" lon="-1.8767438437317883"><ele>94.71428571428572</ele><time>2026-04-21T08:04:50Z</time></trkpt><trkpt lat="37.04089698133483" lon="-1.8767186625757992"><ele>95.57142857142858</ele><time>2026-04-21T08:04:51Z</time></trkpt><trkpt lat="37.040830323973346" lon="-1.8766943835022445"><ele>96.42857142857143</ele><time>2026-04-21T08:04:52Z</time></trkpt><trkpt lat="37.040758440473944" lon="-1.876688456375573"><ele>97.28571428571428</ele><time>2026-04-21T08:04:53Z</time></trkpt><trkpt lat="37.04068835513241" lon="-1.8766933293083938"><ele>98.14285714285715</ele><time>2026-04-21T08:04:54Z</time></trkpt><trkpt lat="37.04062269026964" lon="-1.8767171112659498"><ele>99.0</ele><time>2026-04-21T08:04:55Z</time></trkpt><trkpt lat="37.04055652263878" lon="-1.8767175377431962"><ele>99.0</ele><time>2026-04-21T08:04:56Z</time></trkpt><trkpt lat="37.04049272691946" lon="-1.8767039603475353"><ele>99.0</ele><time>2026-04-21T08:04:57Z</time></trkpt><trkpt lat="37.04038388745858" lon="-1.876682777937702"><ele>99.0</ele><time>2026-04-21T08:04:59Z</time></trkpt><trkpt lat="37.04030393410146" lon="-1.8766368621458451"><ele>99.0</ele><time>2026-04-21T08:05:01Z</time></trkpt><trkpt lat="37.040243803416004" lon="-1.8765574871106858"><ele>99.0</ele><time>2026-04-21T08:05:03Z</time></trkpt><trkpt lat="37.04021771103907" lon="-1.8764327393106968"><ele>99.0</ele><time>2026-04-21T08:05:05Z</time></trkpt><trkpt lat="37.04018950001564" lon="-1.8762807179641454"><ele>99.0</ele><time>2026-04-21T08:05:07Z</time></trkpt><trkpt lat="37.04016692168565" lon="-1.8761235468076367"><ele>99.0</ele><time>2026-04-21T08:05:09Z</time></trkpt><trkpt lat="37.0401579674566" lon="-1.8760416999358562"><ele>99.0</ele><time>2026-04-21T08:05:10Z</time></trkpt><trkpt lat="37.04016009990641" lon="-1.8759591043907278"><ele>99.0</ele><time>2026-04-21T08:05:11Z</time></trkpt><trkpt lat="37.04015345156302" lon="-1.8758803638879111"><ele>99.0</ele><time>2026-04-21T08:05:12Z</time></trkpt><trkpt lat="37.040139243917494" lon="-1.8757298059429395"><ele>100.2</ele><time>2026-04-21T08:05:14Z</time></trkpt><trkpt lat="37.0401411568827" lon="-1.8755824553216256"><ele>101.4</ele><time>2026-04-21T08:05:16Z</time></trkpt><trkpt lat="37.040131859213716" lon="-1.875427435865885"><ele>102.6</ele><time>2026-04-21T08:05:18Z</time></trkpt><trkpt lat="37.04013489662115" lon="-1.8753402240854185"><ele>103.8</ele><time>2026-04-21T08:05:19Z</time></trkpt><trkpt lat="37.040154899900585" lon="-1.875248658440613"><ele>105.0</ele><time>2026-04-21T08:05:20Z</time></trkpt><trkpt lat="37.04020507483974" lon="-1.8751715912404394"><ele>105.0</ele><time>2026-04-21T08:05:21Z</time></trkpt><trkpt lat="37.04027525674797" lon="-1.875145768988111"><ele>105.0</ele><time>2026-04-21T08:05:22Z</time></trkpt><trkpt lat="37.04035842692382" lon="-1.875139581516863"><ele>105.0</ele><time>2026-04-21T08:05:23Z</time></trkpt><trkpt lat="37.0404437468743" lon="-1.8751630673738662"><ele>105.0</ele><time>2026-04-21T08:05:24Z</time></trkpt><trkpt lat="37.040524112889386" lon="-1.8752022815547817"><ele>105.0</ele><time>2026-04-21T08:05:25Z</time></trkpt><trkpt lat="37.04060443494393" lon="-1.8752429638349446"><ele>105.0</ele><time>2026-04-21T08:05:26Z</time></trkpt><trkpt lat="37.04068020633834" lon="-1.8753066686450568"><ele>105.0</ele><time>2026-04-21T08:05:27Z</time></trkpt><trkpt lat="37.040760921071254" lon="-1.8753753641693147"><ele>105.0</ele><time>2026-04-21T08:05:28Z</time></trkpt><trkpt lat="37.04085686621913" lon="-1.8754104723299898"><ele>105.0</ele><time>2026-04-21T08:05:29Z</time></trkpt><trkpt lat="37.0409689721331" lon="-1.8754013563563754"><ele>105.0</ele><time>2026-04-21T08:05:30Z</time></trkpt><trkpt lat="37.04108172907498" lon="-1.8753275533041742"><ele>105.0</ele><time>2026-04-21T08:05:31Z</time></trkpt><trkpt lat="37.041193098595954" lon="-1.875262279637093"><ele>105.8</ele><time>2026-04-21T08:05:32Z</time></trkpt><trkpt lat="37.04128914972554" lon="-1.8752037290078025"><ele>106.6</ele><time>2026-04-21T08:05:33Z</time></trkpt><trkpt lat="37.04138538635041" lon="-1.8751841381039311"><ele>107.4</ele><time>2026-04-21T08:05:34Z</time></trkpt><trkpt lat="37.04148514103961" lon="-1.8751915586327896"><ele>108.2</ele><time>2026-04-21T08:05:35Z</time></trkpt><trkpt lat="37.041588256661086" lon="-1.8752089628165138"><ele>109.0</ele><time>2026-04-21T08:05:36Z</time></trkpt><trkpt lat="37.041684494066004" lon="-1.8752313637248579"><ele>109.0</ele><time>2026-04-21T08:05:37Z</time></trkpt><trkpt lat="37.0417764902689" lon="-1.8752736771596585"><ele>109.0</ele><time>2026-04-21T08:05:37.999Z</time></trkpt><trkpt lat="37.04185432770441" lon="-1.875354986873572"><ele>109.0</ele><time>2026-04-21T08:05:38.999Z</time></trkpt><trkpt lat="37.041921442850246" lon="-1.8754315479540662"><ele>109.0</ele><time>2026-04-21T08:05:39.999Z</time></trkpt><trkpt lat="37.0419749668927" lon="-1.8755252705427272"><ele>109.0</ele><time>2026-04-21T08:05:40.999Z</time></trkpt><trkpt lat="37.04200853621595" lon="-1.8756299016466484"><ele>109.00000000000001</ele><time>2026-04-21T08:05:41.999Z</time></trkpt><trkpt lat="37.042057362014745" lon="-1.8757197039380882"><ele>109.0</ele><time>2026-04-21T08:05:42.999Z</time></trkpt><trkpt lat="37.042131300391596" lon="-1.875776915853515"><ele>109.0</ele><time>2026-04-21T08:05:43.999Z</time></trkpt><trkpt lat="37.042214593023" lon="-1.8758008349413091"><ele>109.0</ele><time>2026-04-21T08:05:44.999Z</time></trkpt><trkpt lat="37.04228954777565" lon="-1.8757970226942513"><ele>109.00000000000001</ele><time>2026-04-21T08:05:45.999Z</time></trkpt><trkpt lat="37.04233170884858" lon="-1.8757266993121855"><ele>109.0</ele><time>2026-04-21T08:05:46.999Z</time></trkpt><trkpt lat="37.04234232088788" lon="-1.8756243649711428"><ele>109.0</ele><time>2026-04-21T08:05:47.999Z</time></trkpt><trkpt lat="37.042327529548295" lon="-1.8755090983597253"><ele>109.0</ele><time>2026-04-21T08:05:48.999Z</time></trkpt><trkpt lat="37.04226797931639" lon="-1.8754002837201305"><ele>109.0</ele><time>2026-04-21T08:05:49.999Z</time></trkpt><trkpt lat="37.04219066067438" lon="-1.8753053158569173"><ele>109.0</ele><time>2026-04-21T08:05:50.999Z</time></trkpt><trkpt lat="37.04210697900874" lon="-1.8752020325940264"><ele>109.0</ele><time>2026-04-21T08:05:51.999Z</time></trkpt><trkpt lat="37.04201786168098" lon="-1.8750911223650497"><ele>104.0</ele><time>2026-04-21T08:05:52.999Z</time></trkpt><trkpt lat="37.041919833755635" lon="-1.8749738211144158"><ele>99.0</ele><time>2026-04-21T08:05:53.999Z</time></trkpt><trkpt lat="37.04180088897942" lon="-1.874876179543599"><ele>94.0</ele><time>2026-04-21T08:05:54.999Z</time></trkpt><trkpt lat="37.0416581703834" lon="-1.874825134421883"><ele>89.0</ele><time>2026-04-21T08:05:55.999Z</time></trkpt><trkpt lat="37.04151359713173" lon="-1.874795364146315"><ele>89.0</ele><time>2026-04-21T08:05:56.999Z</time></trkpt><trkpt lat="37.041368843910405" lon="-1.8747699311753885"><ele>89.0</ele><time>2026-04-21T08:05:57.999Z</time></trkpt><trkpt lat="37.041234184387086" lon="-1.8747834411798785"><ele>89.0</ele><time>2026-04-21T08:05:58.999Z</time></trkpt><trkpt lat="37.041105175445196" lon="-1.8748029636132129"><ele>89.0</ele><time>2026-04-21T08:05:59.999Z</time></trkpt><trkpt lat="37.04097832889351" lon="-1.8748275510834562"><ele>89.0</ele><time>2026-04-21T08:06:00.999Z</time></trkpt><trkpt lat="37.04085717030428" lon="-1.8748162472846852"><ele>89.0</ele><time>2026-04-21T08:06:01.999Z</time></trkpt><trkpt lat="37.040740678119896" lon="-1.8747625279958084"><ele>89.0</ele><time>2026-04-21T08:06:02.999Z</time></trkpt><trkpt lat="37.04063490516633" lon="-1.8746747208450893"><ele>89.0</ele><time>2026-04-21T08:06:03.999Z</time></trkpt><trkpt lat="37.04054212052152" lon="-1.8745763609894186"><ele>88.5</ele><time>2026-04-21T08:06:04.999Z</time></trkpt><trkpt lat="37.04045986265406" lon="-1.8744664010328957"><ele>88.0</ele><time>2026-04-21T08:06:05.999Z</time></trkpt><trkpt lat="37.04038938727685" lon="-1.874352476058884"><ele>87.5</ele><time>2026-04-21T08:06:06.999Z</time></trkpt><trkpt lat="37.04034475135883" lon="-1.8742278089077822"><ele>87.0</ele><time>2026-04-21T08:06:07.999Z</time></trkpt><trkpt lat="37.040302497220154" lon="-1.8740995973150247"><ele>82.0</ele><time>2026-04-21T08:06:08.999Z</time></trkpt><trkpt lat="37.04023610087984" lon="-1.8739911700711391"><ele>77.0</ele><time>2026-04-21T08:06:09.999Z</time></trkpt><trkpt lat="37.040146182301676" lon="-1.873912792434685"><ele>72.0</ele><time>2026-04-21T08:06:10.999Z</time></trkpt><trkpt lat="37.040041881768886" lon="-1.8738604992212475"><ele>67.0</ele><time>2026-04-21T08:06:11.999Z</time></trkpt><trkpt lat="37.039927887352434" lon="-1.873867170809466"><ele>62.0</ele><time>2026-04-21T08:06:12.999Z</time></trkpt><trkpt lat="37.03982121732016" lon="-1.8739272801974953"><ele>60.25</ele><time>2026-04-21T08:06:13.999Z</time></trkpt><trkpt lat="37.039731083958245" lon="-1.8740314128431346"><ele>58.5</ele><time>2026-04-21T08:06:14.999Z</time></trkpt><trkpt lat="37.039640990330504" lon="-1.874143586996174"><ele>56.75</ele><time>2026-04-21T08:06:15.999Z</time></trkpt><trkpt lat="37.03955891639497" lon="-1.874270536154686"><ele>55.0</ele><time>2026-04-21T08:06:16.999Z</time></trkpt><trkpt lat="37.03947138032064" lon="-1.874403311904716"><ele>55.0</ele><time>2026-04-21T08:06:17.999Z</time></trkpt><trkpt lat="37.03937864932842" lon="-1.8745389212519672"><ele>55.0</ele><time>2026-04-21T08:06:18.999Z</time></trkpt><trkpt lat="37.03928754340028" lon="-1.8746843592901516"><ele>55.0</ele><time>2026-04-21T08:06:19.999Z</time></trkpt><trkpt lat="37.039207504722135" lon="-1.8748528516525669"><ele>55.0</ele><time>2026-04-21T08:06:20.999Z</time></trkpt><trkpt lat="37.03911659246065" lon="-1.8750028532398328"><ele>50.5</ele><time>2026-04-21T08:06:21.999Z</time></trkpt><trkpt lat="37.03902539600392" lon="-1.8751451092390112"><ele>46.0</ele><time>2026-04-21T08:06:22.999Z</time></trkpt><trkpt lat="37.03893253731373" lon="-1.8752810655155867"><ele>41.5</ele><time>2026-04-21T08:06:23.999Z</time></trkpt><trkpt lat="37.03883942615482" lon="-1.8754207953294353"><ele>37.0</ele><time>2026-04-21T08:06:24.999Z</time></trkpt><trkpt lat="37.03874645348752" lon="-1.875560842113306"><ele>37.0</ele><time>2026-04-21T08:06:25.999Z</time></trkpt><trkpt lat="37.03866276362952" lon="-1.875706252268601"><ele>37.0</ele><time>2026-04-21T08:06:26.999Z</time></trkpt><trkpt lat="37.0385848452303" lon="-1.8758541662022292"><ele>37.0</ele><time>2026-04-21T08:06:27.999Z</time></trkpt><trkpt lat="37.03850645902259" lon="-1.8760007886293788"><ele>37.0</ele><time>2026-04-21T08:06:28.999Z</time></trkpt><trkpt lat="37.03842762922881" lon="-1.8761435127808876"><ele>37.75</ele><time>2026-04-21T08:06:29.999Z</time></trkpt><trkpt lat="37.0383335038428" lon="-1.8762799415991946"><ele>38.5</ele><time>2026-04-21T08:06:30.999Z</time></trkpt><trkpt lat="37.03823110692675" lon="-1.8764080842118869"><ele>39.25</ele><time>2026-04-21T08:06:31.999Z</time></trkpt><trkpt lat="37.03811754460828" lon="-1.876510658368492"><ele>40.0</ele><time>2026-04-21T08:06:32.999Z</time></trkpt><trkpt lat="37.037999648231605" lon="-1.8765876443014455"><ele>40.75</ele><time>2026-04-21T08:06:33.999Z</time></trkpt><trkpt lat="37.03787280376645" lon="-1.8766486729862633"><ele>41.5</ele><time>2026-04-21T08:06:34.999Z</time></trkpt><trkpt lat="37.037743948415354" lon="-1.876686474812539"><ele>42.25</ele><time>2026-04-21T08:06:35.999Z</time></trkpt><trkpt lat="37.037612890005526" lon="-1.876691802814389"><ele>43.0</ele><time>2026-04-21T08:06:36.999Z</time></trkpt><trkpt lat="37.03747896082002" lon="-1.8766966716231335"><ele>43.5</ele><time>2026-04-21T08:06:37.999Z</time></trkpt><trkpt lat="37.03735326267943" lon="-1.8766854232862298"><ele>44.0</ele><time>2026-04-21T08:06:38.999Z</time></trkpt><trkpt lat="37.03720899433449" lon="-1.8766236016834188"><ele>44.5</ele><time>2026-04-21T08:06:39.999Z</time></trkpt><trkpt lat="37.037062079848695" lon="-1.8765698655199783"><ele>45.0</ele><time>2026-04-21T08:06:40.999Z</time></trkpt><trkpt lat="37.036921257043225" lon="-1.876525191005029"><ele>45.0</ele><time>2026-04-21T08:06:41.999Z</time></trkpt><trkpt lat="37.03677847981257" lon="-1.8765010787049061"><ele>45.0</ele><time>2026-04-21T08:06:42.999Z</time></trkpt><trkpt lat="37.03663597903871" lon="-1.8765210355688478"><ele>45.0</ele><time>2026-04-21T08:06:43.999Z</time></trkpt><trkpt lat="37.03648476848949" lon="-1.8765657334023913"><ele>45.0</ele><time>2026-04-21T08:06:44.999Z</time></trkpt><trkpt lat="37.036362420396635" lon="-1.8766840831428915"><ele>39.333333333333336</ele><time>2026-04-21T08:06:45.999Z</time></trkpt><trkpt lat="37.03624740534096" lon="-1.8768247251238894"><ele>33.66666666666667</ele><time>2026-04-21T08:06:46.999Z</time></trkpt><trkpt lat="37.036139489499014" lon="-1.87700826517684"><ele>28.0</ele><time>2026-04-21T08:06:47.999Z</time></trkpt><trkpt lat="37.036043536776084" lon="-1.8771860011396233"><ele>28.0</ele><time>2026-04-21T08:06:48.999Z</time></trkpt><trkpt lat="37.03594691080064" lon="-1.8773482567423232"><ele>28.0</ele><time>2026-04-21T08:06:49.999Z</time></trkpt><trkpt lat="37.03585929718861" lon="-1.877510751995676"><ele>28.0</ele><time>2026-04-21T08:06:50.999Z</time></trkpt><trkpt lat="37.03576066490778" lon="-1.8776543164154516"><ele>28.0</ele><time>2026-04-21T08:06:51.999Z</time></trkpt><trkpt lat="37.035640242658914" lon="-1.8777843475422025"><ele>28.0</ele><time>2026-04-21T08:06:52.999Z</time></trkpt><trkpt lat="37.035516748259376" lon="-1.8779149662246248"><ele>28.0</ele><time>2026-04-21T08:06:53.999Z</time></trkpt><trkpt lat="37.03537279453079" lon="-1.8780207833597329"><ele>28.0</ele><time>2026-04-21T08:06:54.999Z</time></trkpt><trkpt lat="37.03523815405556" lon="-1.8780801668678584"><ele>28.0</ele><time>2026-04-21T08:06:55.999Z</time></trkpt><trkpt lat="37.03510450473419" lon="-1.8781122733701847"><ele>28.0</ele><time>2026-04-21T08:06:56.999Z</time></trkpt><trkpt lat="37.03496795285872" lon="-1.8781404201777592"><ele>28.0</ele><time>2026-04-21T08:06:57.999Z</time></trkpt><trkpt lat="37.03485051688654" lon="-1.878160446111132"><ele>28.25</ele><time>2026-04-21T08:06:58.999Z</time></trkpt><trkpt lat="37.034720799021514" lon="-1.8781790671449223"><ele>28.5</ele><time>2026-04-21T08:06:59.999Z</time></trkpt><trkpt lat="37.03458531584066" lon="-1.8781911174678976"><ele>28.75</ele><time>2026-04-21T08:07:00.999Z</time></trkpt><trkpt lat="37.034442777399406" lon="-1.8781581010494384"><ele>29.0</ele><time>2026-04-21T08:07:01.999Z</time></trkpt><trkpt lat="37.03429464637552" lon="-1.8781978342991723"><ele>29.0</ele><time>2026-04-21T08:07:02.999Z</time></trkpt><trkpt lat="37.034153652265935" lon="-1.8781854390754267"><ele>29.0</ele><time>2026-04-21T08:07:03.999Z</time></trkpt><trkpt lat="37.034000174888256" lon="-1.8782445738471878"><ele>29.0</ele><time>2026-04-21T08:07:04.999Z</time></trkpt><trkpt lat="37.03384785589347" lon="-1.8782354355143962"><ele>31.0</ele><time>2026-04-21T08:07:05.999Z</time></trkpt><trkpt lat="37.033690446828786" lon="-1.8782780545818114"><ele>33.0</ele><time>2026-04-21T08:07:06.999Z</time></trkpt><trkpt lat="37.033539540978715" lon="-1.8783318161997116"><ele>35.0</ele><time>2026-04-21T08:07:07.999Z</time></trkpt><trkpt lat="37.03337616782107" lon="-1.8783612375538459"><ele>33.0</ele><time>2026-04-21T08:07:08.999Z</time></trkpt><trkpt lat="37.033217316289075" lon="-1.8783462962187032"><ele>31.0</ele><time>2026-04-21T08:07:09.999Z</time></trkpt><trkpt lat="37.03307378845799" lon="-1.8783880892119367"><ele>29.0</ele><time>2026-04-21T08:07:10.999Z</time></trkpt><trkpt lat="37.032944431049714" lon="-1.8784787533699752"><ele>34.666666666666664</ele><time>2026-04-21T08:07:11.999Z</time></trkpt><trkpt lat="37.03279908910758" lon="-1.8785993927220375"><ele>40.333333333333336</ele><time>2026-04-21T08:07:12.999Z</time></trkpt><trkpt lat="37.03267239334735" lon="-1.8786740871228662"><ele>46.0</ele><time>2026-04-21T08:07:13.999Z</time></trkpt><trkpt lat="37.03256815005405" lon="-1.8787885772785422"><ele>39.0</ele><time>2026-04-21T08:07:14.999Z</time></trkpt><trkpt lat="37.032458125772166" lon="-1.87891086080164"><ele>32.0</ele><time>2026-04-21T08:07:15.999Z</time></trkpt><trkpt lat="37.03235683367259" lon="-1.8790468750508993"><ele>25.0</ele><time>2026-04-21T08:07:16.999Z</time></trkpt><trkpt lat="37.032264848545964" lon="-1.8792221661164425"><ele>30.0</ele><time>2026-04-21T08:07:17.999Z</time></trkpt><trkpt lat="37.03215454721922" lon="-1.8793649702729298"><ele>35.0</ele><time>2026-04-21T08:07:18.999Z</time></trkpt><trkpt lat="37.03203580664278" lon="-1.8795154209360916"><ele>40.0</ele><time>2026-04-21T08:07:19.999Z</time></trkpt><trkpt lat="37.031916909213464" lon="-1.8796869241102157"><ele>40.0</ele><time>2026-04-21T08:07:20.999Z</time></trkpt><trkpt lat="37.0317959300493" lon="-1.879854873880528"><ele>40.0</ele><time>2026-04-21T08:07:21.999Z</time></trkpt><trkpt lat="37.031664474136356" lon="-1.880015601580121"><ele>40.0</ele><time>2026-04-21T08:07:22.999Z</time></trkpt><trkpt lat="37.03153975117669" lon="-1.8801660177051718"><ele>39.333333333333336</ele><time>2026-04-21T08:07:23.999Z</time></trkpt><trkpt lat="37.031441424799695" lon="-1.880325518161496"><ele>38.666666666666664</ele><time>2026-04-21T08:07:24.999Z</time></trkpt><trkpt lat="37.03134053306642" lon="-1.880462016606809"><ele>38.0</ele><time>2026-04-21T08:07:25.999Z</time></trkpt><trkpt lat="37.03124266351087" lon="-1.8806203701317223"><ele>38.0</ele><time>2026-04-21T08:07:26.999Z</time></trkpt><trkpt lat="37.03115618381421" lon="-1.8807708137534327"><ele>38.0</ele><time>2026-04-21T08:07:27.999Z</time></trkpt><trkpt lat="37.031074896775976" lon="-1.8809318800849821"><ele>38.0</ele><time>2026-04-21T08:07:28.999Z</time></trkpt><trkpt lat="37.030994023148374" lon="-1.881087674666623"><ele>38.0</ele><time>2026-04-21T08:07:29.999Z</time></trkpt><trkpt lat="37.03093118057163" lon="-1.881246372683644"><ele>38.5</ele><time>2026-04-21T08:07:30.999Z</time></trkpt><trkpt lat="37.03086292624471" lon="-1.8814119792400408"><ele>39.0</ele><time>2026-04-21T08:07:31.999Z</time></trkpt><trkpt lat="37.03080297821366" lon="-1.8815765021192197"><ele>39.5</ele><time>2026-04-21T08:07:32.999Z</time></trkpt><trkpt lat="37.03074245062532" lon="-1.8817388879100438"><ele>40.0</ele><time>2026-04-21T08:07:33.999Z</time></trkpt><trkpt lat="37.03070011918575" lon="-1.8819091650510726"><ele>39.2</ele><time>2026-04-21T08:07:34.999Z</time></trkpt><trkpt lat="37.0306518156093" lon="-1.8820543338523585"><ele>38.4</ele><time>2026-04-21T08:07:35.999Z</time></trkpt><trkpt lat="37.030646757366284" lon="-1.8821642625456154"><ele>37.6</ele><time>2026-04-21T08:07:36.999Z</time></trkpt><trkpt lat="37.03060742854172" lon="-1.8822829570590234"><ele>36.8</ele><time>2026-04-21T08:07:37.999Z</time></trkpt><trkpt lat="37.03053591998416" lon="-1.8823896427209066"><ele>36.0</ele><time>2026-04-21T08:07:38.999Z</time></trkpt><trkpt lat="37.03042992387224" lon="-1.8825021215229267"><ele>36.0</ele><time>2026-04-21T08:07:39.999Z</time></trkpt><trkpt lat="37.03030415215944" lon="-1.8825799688443317"><ele>36.0</ele><time>2026-04-21T08:07:40.999Z</time></trkpt><trkpt lat="37.03016190494189" lon="-1.8826183649062904"><ele>36.0</ele><time>2026-04-21T08:07:41.999Z</time></trkpt><trkpt lat="37.03001134729456" lon="-1.8826304548911748"><ele>36.0</ele><time>2026-04-21T08:07:42.999Z</time></trkpt><trkpt lat="37.02985845686125" lon="-1.8826202666954364"><ele>38.666666666666664</ele><time>2026-04-21T08:07:43.999Z</time></trkpt><trkpt lat="37.02967284934027" lon="-1.8826214690520509"><ele>41.33333333333333</ele><time>2026-04-21T08:07:44.999Z</time></trkpt><trkpt lat="37.029511026916666" lon="-1.8826112586879225"><ele>44.0</ele><time>2026-04-21T08:07:45.999Z</time></trkpt><trkpt lat="37.02935220262621" lon="-1.8826346070721864"><ele>44.0</ele><time>2026-04-21T08:07:46.999Z</time></trkpt><trkpt lat="37.0291970179099" lon="-1.882641248691656"><ele>44.0</ele><time>2026-04-21T08:07:47.999Z</time></trkpt><trkpt lat="37.029052956260436" lon="-1.8826275411715765"><ele>44.0</ele><time>2026-04-21T08:07:48.999Z</time></trkpt><trkpt lat="37.028915426395315" lon="-1.8826096027063128"><ele>44.0</ele><time>2026-04-21T08:07:49.999Z</time></trkpt><trkpt lat="37.0287659115449" lon="-1.882581130936157"><ele>47.25</ele><time>2026-04-21T08:07:50.999Z</time></trkpt><trkpt lat="37.028634534326486" lon="-1.8825459559904938"><ele>50.5</ele><time>2026-04-21T08:07:51.999Z</time></trkpt><trkpt lat="37.02849679628571" lon="-1.8825250268540823"><ele>53.75</ele><time>2026-04-21T08:07:52.999Z</time></trkpt><trkpt lat="37.0283658314096" lon="-1.8825012429603858"><ele>57.0</ele><time>2026-04-21T08:07:53.999Z</time></trkpt><trkpt lat="37.02823665301779" lon="-1.8824741278751778"><ele>57.5</ele><time>2026-04-21T08:07:54.999Z</time></trkpt><trkpt lat="37.02811396946185" lon="-1.8824672558459419"><ele>58.0</ele><time>2026-04-21T08:07:55.999Z</time></trkpt><trkpt lat="37.02799145998434" lon="-1.8824519017056205"><ele>58.5</ele><time>2026-04-21T08:07:56.999Z</time></trkpt><trkpt lat="37.02786915188403" lon="-1.882439183694415"><ele>59.0</ele><time>2026-04-21T08:07:57.999Z</time></trkpt><trkpt lat="37.02775708445138" lon="-1.8824276148781085"><ele>59.0</ele><time>2026-04-21T08:07:58.999Z</time></trkpt><trkpt lat="37.02764680238332" lon="-1.8823804381382117"><ele>59.0</ele><time>2026-04-21T08:07:59.999Z</time></trkpt><trkpt lat="37.02754875251984" lon="-1.8823005691438968"><ele>59.0</ele><time>2026-04-21T08:08:00.999Z</time></trkpt><trkpt lat="37.0274578108825" lon="-1.882190496648492"><ele>59.0</ele><time>2026-04-21T08:08:01.999Z</time></trkpt><trkpt lat="37.0273547623331" lon="-1.882111992794358"><ele>59.25</ele><time>2026-04-21T08:08:02.999Z</time></trkpt><trkpt lat="37.02726373674415" lon="-1.8819967662454948"><ele>59.5</ele><time>2026-04-21T08:08:03.999Z</time></trkpt><trkpt lat="37.027191658219095" lon="-1.88185294727098"><ele>59.75</ele><time>2026-04-21T08:08:04.999Z</time></trkpt><trkpt lat="37.02714210690274" lon="-1.881728551276518"><ele>60.0</ele><time>2026-04-21T08:08:05.999Z</time></trkpt><trkpt lat="37.027107650678936" lon="-1.8815894545389489"><ele>60.0</ele><time>2026-04-21T08:08:06.999Z</time></trkpt><trkpt lat="37.02706233728814" lon="-1.8814657405328867"><ele>60.0</ele><time>2026-04-21T08:08:07.999Z</time></trkpt><trkpt lat="37.02700329171246" lon="-1.8813443763421531"><ele>60.0</ele><time>2026-04-21T08:08:08.999Z</time></trkpt><trkpt lat="37.02694807478618" lon="-1.8812069060558214"><ele>60.0</ele><time>2026-04-21T08:08:09.999Z</time></trkpt><trkpt lat="37.02690867575481" lon="-1.8810623696558928"><ele>60.0</ele><time>2026-04-21T08:08:10.999Z</time></trkpt><trkpt lat="37.026873068646225" lon="-1.8809445427036968"><ele>60.0</ele><time>2026-04-21T08:08:11.999Z</time></trkpt><trkpt lat="37.02683579870194" lon="-1.8808224512882756"><ele>60.0</ele><time>2026-04-21T08:08:12.999Z</time></trkpt><trkpt lat="37.02678116926634" lon="-1.880720550043525"><ele>60.0</ele><time>2026-04-21T08:08:13.999Z</time></trkpt><trkpt lat="37.02673780792783" lon="-1.8805920009348385"><ele>60.0</ele><time>2026-04-21T08:08:14.999Z</time></trkpt><trkpt lat="37.02666265164137" lon="-1.88048675792296"><ele>56.5</ele><time>2026-04-21T08:08:15.999Z</time></trkpt><trkpt lat="37.02658483208672" lon="-1.8803803566369506"><ele>53.0</ele><time>2026-04-21T08:08:16.999Z</time></trkpt><trkpt lat="37.02650221781945" lon="-1.8802756989914433"><ele>49.5</ele><time>2026-04-21T08:08:17.999Z</time></trkpt><trkpt lat="37.02640553744245" lon="-1.880181622629219"><ele>46.0</ele><time>2026-04-21T08:08:18.999Z</time></trkpt><trkpt lat="37.02628199004614" lon="-1.8801250657474098"><ele>39.25</ele><time>2026-04-21T08:08:19.999Z</time></trkpt><trkpt lat="37.026166243246344" lon="-1.8800745617056458"><ele>32.5</ele><time>2026-04-21T08:08:20.999Z</time></trkpt><trkpt lat="37.026046356214316" lon="-1.8800522013427121"><ele>25.75</ele><time>2026-04-21T08:08:21.999Z</time></trkpt><trkpt lat="37.025921302692375" lon="-1.8800395613118153"><ele>19.0</ele><time>2026-04-21T08:08:22.999Z</time></trkpt><trkpt lat="37.025792342097446" lon="-1.8800537423737735"><ele>17.75</ele><time>2026-04-21T08:08:23.999Z</time></trkpt><trkpt lat="37.02566809525595" lon="-1.8800919158346014"><ele>16.5</ele><time>2026-04-21T08:08:24.999Z</time></trkpt><trkpt lat="37.02554781381593" lon="-1.8801468756777249"><ele>15.25</ele><time>2026-04-21T08:08:25.999Z</time></trkpt><trkpt lat="37.02543448775234" lon="-1.880247328394778"><ele>14.0</ele><time>2026-04-21T08:08:26.999Z</time></trkpt><trkpt lat="37.02535061504873" lon="-1.8803712414593956"><ele>14.0</ele><time>2026-04-21T08:08:27.999Z</time></trkpt><trkpt lat="37.02528536855752" lon="-1.8805199338256002"><ele>14.0</ele><time>2026-04-21T08:08:28.999Z</time></trkpt><trkpt lat="37.025210373996" lon="-1.88066083428408"><ele>14.0</ele><time>2026-04-21T08:08:29.999Z</time></trkpt><trkpt lat="37.02513691695402" lon="-1.8808003519502172"><ele>14.0</ele><time>2026-04-21T08:08:30.999Z</time></trkpt><trkpt lat="37.02505509612864" lon="-1.8809404267791547"><ele>11.5</ele><time>2026-04-21T08:08:31.999Z</time></trkpt><trkpt lat="37.02496049342673" lon="-1.8810674483712644"><ele>9.0</ele><time>2026-04-21T08:08:32.999Z</time></trkpt><trkpt lat="37.02485909219503" lon="-1.881186252799667"><ele>6.5</ele><time>2026-04-21T08:08:33.999Z</time></trkpt><trkpt lat="37.02474362003508" lon="-1.8812820935419812"><ele>4.0</ele><time>2026-04-21T08:08:34.999Z</time></trkpt><trkpt lat="37.024619736919405" lon="-1.8813409420750427"><ele>4.0</ele><time>2026-04-21T08:08:35.999Z</time></trkpt><trkpt lat="37.024498341840136" lon="-1.881363534128531"><ele>4.0</ele><time>2026-04-21T08:08:36.999Z</time></trkpt><trkpt lat="37.02437668065233" lon="-1.881360550515489"><ele>4.0</ele><time>2026-04-21T08:08:37.999Z</time></trkpt><trkpt lat="37.024250552744896" lon="-1.8813544214836453"><ele>4.0</ele><time>2026-04-21T08:08:38.999Z</time></trkpt><trkpt lat="37.02413313303705" lon="-1.8812989418781156"><ele>3.75</ele><time>2026-04-21T08:08:39.999Z</time></trkpt><trkpt lat="37.024019964869765" lon="-1.8812588391579692"><ele>3.5</ele><time>2026-04-21T08:08:40.999Z</time></trkpt><trkpt lat="37.02392033326535" lon="-1.8811959626964458"><ele>3.25</ele><time>2026-04-21T08:08:41.999Z</time></trkpt><trkpt lat="37.02381701948854" lon="-1.8811238294542771"><ele>3.0</ele><time>2026-04-21T08:08:42.999Z</time></trkpt><trkpt lat="37.02370432531905" lon="-1.8810706093673948"><ele>3.0</ele><time>2026-04-21T08:08:43.999Z</time></trkpt><trkpt lat="37.023598847362905" lon="-1.8810034406954392"><ele>3.0</ele><time>2026-04-21T08:08:44.999Z</time></trkpt><trkpt lat="37.02347244775381" lon="-1.8809446577480755"><ele>3.0</ele><time>2026-04-21T08:08:45.999Z</time></trkpt><trkpt lat="37.02336540936523" lon="-1.8808641963007204"><ele>3.0</ele><time>2026-04-21T08:08:46.999Z</time></trkpt><trkpt lat="37.02324842272513" lon="-1.8807891817245315"><ele>3.0</ele><time>2026-04-21T08:08:47.999Z</time></trkpt><trkpt lat="37.02312903121899" lon="-1.8807224779282103"><ele>3.0</ele><time>2026-04-21T08:08:48.999Z</time></trkpt><trkpt lat="37.02304122226293" lon="-1.8806517327840562"><ele>3.0</ele><time>2026-04-21T08:08:49.999Z</time></trkpt><trkpt lat="37.02294293032346" lon="-1.8806176026539274"><ele>3.0</ele><time>2026-04-21T08:08:50.999Z</time></trkpt><trkpt lat="37.02284307680908" lon="-1.8805561621446896"><ele>3.0</ele><time>2026-04-21T08:08:51.999Z</time></trkpt><trkpt lat="37.022750407518366" lon="-1.8804608190450172"><ele>3.0</ele><time>2026-04-21T08:08:52.999Z</time></trkpt><trkpt lat="37.022625986048766" lon="-1.8804065836969934"><ele>3.0</ele><time>2026-04-21T08:08:53.999Z</time></trkpt><trkpt lat="37.02250423848693" lon="-1.8803372729528756"><ele>3.0</ele><time>2026-04-21T08:08:54.999Z</time></trkpt><trkpt lat="37.02237137319797" lon="-1.880277522706207"><ele>3.0</ele><time>2026-04-21T08:08:55.999Z</time></trkpt><trkpt lat="37.0222748761734" lon="-1.8801774569090424"><ele>4.5</ele><time>2026-04-21T08:08:56.999Z</time></trkpt><trkpt lat="37.02215636350797" lon="-1.8801117525244542"><ele>6.0</ele><time>2026-04-21T08:08:57.999Z</time></trkpt><trkpt lat="37.02200330966445" lon="-1.8800693863027986"><ele>7.5</ele><time>2026-04-21T08:08:58.999Z</time></trkpt><trkpt lat="37.02187375885967" lon="-1.879991328622429"><ele>9.0</ele><time>2026-04-21T08:08:59.999Z</time></trkpt><trkpt lat="37.02174187499235" lon="-1.8799064017731237"><ele>10.5</ele><time>2026-04-21T08:09:00.999Z</time></trkpt><trkpt lat="37.02161658193317" lon="-1.879814619383749"><ele>12.0</ele><time>2026-04-21T08:09:01.999Z</time></trkpt><trkpt lat="37.02150955708945" lon="-1.879725947563393"><ele>13.5</ele><time>2026-04-21T08:09:02.999Z</time></trkpt><trkpt lat="37.021405394757124" lon="-1.8796578829256236"><ele>15.0</ele><time>2026-04-21T08:09:03.999Z</time></trkpt><trkpt lat="37.02127449938068" lon="-1.8796350920493625"><ele>15.0</ele><time>2026-04-21T08:09:04.999Z</time></trkpt><trkpt lat="37.021191833233594" lon="-1.8795392310812942"><ele>15.0</ele><time>2026-04-21T08:09:05.999Z</time></trkpt><trkpt lat="37.021076619257464" lon="-1.8795059255794022"><ele>15.0</ele><time>2026-04-21T08:09:06.999Z</time></trkpt><trkpt lat="37.02095605280025" lon="-1.879439914820723"><ele>15.0</ele><time>2026-04-21T08:09:07.999Z</time></trkpt><trkpt lat="37.02081983690871" lon="-1.8794109577574314"><ele>14.666666666666668</ele><time>2026-04-21T08:09:08.999Z</time></trkpt><trkpt lat="37.020675492662335" lon="-1.8793544921715861"><ele>14.333333333333334</ele><time>2026-04-21T08:09:09.999Z</time></trkpt><trkpt lat="37.020530507145736" lon="-1.8792950817809178"><ele>14.0</ele><time>2026-04-21T08:09:10.999Z</time></trkpt><trkpt lat="37.02037559158573" lon="-1.8792800926029531"><ele>14.0</ele><time>2026-04-21T08:09:11.999Z</time></trkpt><trkpt lat="37.02022748105232" lon="-1.879304075765514"><ele>14.0</ele><time>2026-04-21T08:09:12.999Z</time></trkpt><trkpt lat="37.02006531426845" lon="-1.8793102454169912"><ele>14.0</ele><time>2026-04-21T08:09:13.999Z</time></trkpt><trkpt lat="37.019897972958155" lon="-1.8793204494576485"><ele>12.666666666666668</ele><time>2026-04-21T08:09:14.999Z</time></trkpt><trkpt lat="37.01974104911967" lon="-1.8792656195115354"><ele>11.333333333333334</ele><time>2026-04-21T08:09:15.999Z</time></trkpt><trkpt lat="37.019584035635006" lon="-1.8793005522690074"><ele>10.0</ele><time>2026-04-21T08:09:16.999Z</time></trkpt><trkpt lat="37.01942733219723" lon="-1.8793036002750656"><ele>10.0</ele><time>2026-04-21T08:09:17.999Z</time></trkpt><trkpt lat="37.01927147398095" lon="-1.8793286395189877"><ele>10.0</ele><time>2026-04-21T08:09:18.999Z</time></trkpt><trkpt lat="37.01913005307419" lon="-1.8793507135692287"><ele>10.0</ele><time>2026-04-21T08:09:19.999Z</time></trkpt><trkpt lat="37.018990105199" lon="-1.8793620953640011"><ele>10.0</ele><time>2026-04-21T08:09:20.999Z</time></trkpt><trkpt lat="37.01883667723344" lon="-1.879398904744934"><ele>10.0</ele><time>2026-04-21T08:09:21.999Z</time></trkpt><trkpt lat="37.018707171337766" lon="-1.8794684617350934"><ele>10.0</ele><time>2026-04-21T08:09:22.999Z</time></trkpt><trkpt lat="37.018583138662166" lon="-1.879543281526409"><ele>10.0</ele><time>2026-04-21T08:09:23.999Z</time></trkpt><trkpt lat="37.01846519904584" lon="-1.8796321970368648"><ele>10.0</ele><time>2026-04-21T08:09:24.999Z</time></trkpt><trkpt lat="37.0183682482684" lon="-1.8797028051368385"><ele>10.0</ele><time>2026-04-21T08:09:25.999Z</time></trkpt><trkpt lat="37.01830512602942" lon="-1.879754714721891"><ele>10.0</ele><time>2026-04-21T08:09:26.999Z</time></trkpt><trkpt lat="37.01824397040805" lon="-1.8797877151027034"><ele>10.0</ele><time>2026-04-21T08:09:27.999Z</time></trkpt><trkpt lat="37.018159698575396" lon="-1.8798158691688023"><ele>10.0</ele><time>2026-04-21T08:09:29.999Z</time></trkpt><trkpt lat="37.01819546041505" lon="-1.8796977443510388"><ele>10.0</ele><time>2026-04-21T08:09:33.999Z</time></trkpt><trkpt lat="37.01826126877207" lon="-1.8796464617484177"><ele>10.0</ele><time>2026-04-21T08:09:34.999Z</time></trkpt><trkpt lat="37.01833005905583" lon="-1.8795687538360417"><ele>10.0</ele><time>2026-04-21T08:09:35.999Z</time></trkpt><trkpt lat="37.01840597090784" lon="-1.8794973791208116"><ele>10.0</ele><time>2026-04-21T08:09:36.999Z</time></trkpt><trkpt lat="37.01848652086564" lon="-1.8794208769600143"><ele>10.0</ele><time>2026-04-21T08:09:37.999Z</time></trkpt><trkpt lat="37.0185770890068" lon="-1.879352208010569"><ele>10.0</ele><time>2026-04-21T08:09:38.999Z</time></trkpt><trkpt lat="37.01867729772914" lon="-1.8792998658259639"><ele>10.0</ele><time>2026-04-21T08:09:39.999Z</time></trkpt><trkpt lat="37.0187821968271" lon="-1.8792684279311531"><ele>9.0</ele><time>2026-04-21T08:09:40.999Z</time></trkpt><trkpt lat="37.01888439385172" lon="-1.8792192162969612"><ele>8.0</ele><time>2026-04-21T08:09:41.999Z</time></trkpt><trkpt lat="37.01897620964916" lon="-1.8791897455703666"><ele>7.0</ele><time>2026-04-21T08:09:42.999Z</time></trkpt><trkpt lat="37.01907263298947" lon="-1.87915518877297"><ele>6.0</ele><time>2026-04-21T08:09:43.999Z</time></trkpt><trkpt lat="37.01918808222578" lon="-1.879135821480336"><ele>5.0</ele><time>2026-04-21T08:09:44.999Z</time></trkpt><trkpt lat="37.0193164643961" lon="-1.8791254770682724"><ele>5.0</ele><time>2026-04-21T08:09:45.999Z</time></trkpt><trkpt lat="37.019441354783176" lon="-1.8791188935326646"><ele>5.0</ele><time>2026-04-21T08:09:46.999Z</time></trkpt><trkpt lat="37.01956709603017" lon="-1.8791355064982167"><ele>5.0</ele><time>2026-04-21T08:09:47.999Z</time></trkpt><trkpt lat="37.019682208237406" lon="-1.8791563073392195"><ele>5.0</ele><time>2026-04-21T08:09:48.999Z</time></trkpt><trkpt lat="37.019776988788315" lon="-1.8791703480054494"><ele>5.0</ele><time>2026-04-21T08:09:49.999Z</time></trkpt><trkpt lat="37.01986764628057" lon="-1.8791774724132673"><ele>5.0</ele><time>2026-04-21T08:09:50.999Z</time></trkpt><trkpt lat="37.01994729724659" lon="-1.879175620675941"><ele>5.0</ele><time>2026-04-21T08:09:51.999Z</time></trkpt><trkpt lat="37.02003097163947" lon="-1.8791971712315299"><ele>5.0</ele><time>2026-04-21T08:09:52.999Z</time></trkpt><trkpt lat="37.020137355461976" lon="-1.879201156072682"><ele>5.0</ele><time>2026-04-21T08:09:53.999Z</time></trkpt><trkpt lat="37.0202258035277" lon="-1.8791704590969314"><ele>5.0</ele><time>2026-04-21T08:09:54.999Z</time></trkpt><trkpt lat="37.02032577061316" lon="-1.8791599609499083"><ele>5.0</ele><time>2026-04-21T08:09:55.999Z</time></trkpt><trkpt lat="37.020425755380394" lon="-1.8791534062289799"><ele>5.0</ele><time>2026-04-21T08:09:56.999Z</time></trkpt><trkpt lat="37.020527426987634" lon="-1.8791544036264358"><ele>5.0</ele><time>2026-04-21T08:09:57.999Z</time></trkpt><trkpt lat="37.02063806353095" lon="-1.8791656582459904"><ele>5.0</ele><time>2026-04-21T08:09:58.999Z</time></trkpt><trkpt lat="37.02075311595195" lon="-1.8791792684290098"><ele>4.4</ele><time>2026-04-21T08:09:59.999Z</time></trkpt><trkpt lat="37.02086718355485" lon="-1.8791917929658648"><ele>3.8</ele><time>2026-04-21T08:10:00.999Z</time></trkpt><trkpt lat="37.020982713969296" lon="-1.8792165777522578"><ele>3.2</ele><time>2026-04-21T08:10:01.999Z</time></trkpt><trkpt lat="37.02108381194089" lon="-1.8792391288388755"><ele>2.6</ele><time>2026-04-21T08:10:02.999Z</time></trkpt><trkpt lat="37.02117497290439" lon="-1.879266955811085"><ele>2.0</ele><time>2026-04-21T08:10:03.998Z</time></trkpt><trkpt lat="37.021262647130364" lon="-1.879290533122303"><ele>3.4000000000000004</ele><time>2026-04-21T08:10:04.998Z</time></trkpt><trkpt lat="37.02133409910087" lon="-1.879321706411552"><ele>4.800000000000001</ele><time>2026-04-21T08:10:05.998Z</time></trkpt><trkpt lat="37.021415530294284" lon="-1.879345673848092"><ele>6.2</ele><time>2026-04-21T08:10:06.998Z</time></trkpt><trkpt lat="37.0215348644329" lon="-1.8793496710622082"><ele>7.6000000000000005</ele><time>2026-04-21T08:10:08.998Z</time></trkpt><trkpt lat="37.021657136489296" lon="-1.879364599841642"><ele>9.0</ele><time>2026-04-21T08:10:10.998Z</time></trkpt><trkpt lat="37.021737568322266" lon="-1.8793793131669976"><ele>9.0</ele><time>2026-04-21T08:10:11.998Z</time></trkpt><trkpt lat="37.02181254153086" lon="-1.8793948378326617"><ele>9.0</ele><time>2026-04-21T08:10:12.998Z</time></trkpt><trkpt lat="37.02193719586455" lon="-1.8793785970406618"><ele>9.0</ele><time>2026-04-21T08:10:14.998Z</time></trkpt><trkpt lat="37.021994626503286" lon="-1.8794476469835073"><ele>9.0</ele><time>2026-04-21T08:10:15.998Z</time></trkpt><trkpt lat="37.02205244752848" lon="-1.879510880339462"><ele>9.0</ele><time>2026-04-21T08:10:16.998Z</time></trkpt><trkpt lat="37.02211480747409" lon="-1.8795769271176013"><ele>9.0</ele><time>2026-04-21T08:10:17.998Z</time></trkpt><trkpt lat="37.022197086511454" lon="-1.879678959642707"><ele>9.0</ele><time>2026-04-21T08:10:18.998Z</time></trkpt><trkpt lat="37.02227719059231" lon="-1.87976220037365"><ele>9.0</ele><time>2026-04-21T08:10:19.998Z</time></trkpt><trkpt lat="37.02236162712269" lon="-1.8798537390043348"><ele>9.0</ele><time>2026-04-21T08:10:20.998Z</time></trkpt><trkpt lat="37.022433891718805" lon="-1.879942984327777"><ele>9.0</ele><time>2026-04-21T08:10:21.998Z</time></trkpt><trkpt lat="37.02250079198669" lon="-1.8800219048907951"><ele>9.0</ele><time>2026-04-21T08:10:22.998Z</time></trkpt><trkpt lat="37.02257741457215" lon="-1.8800714181680869"><ele>7.8</ele><time>2026-04-21T08:10:23.998Z</time></trkpt><trkpt lat="37.022669791018295" lon="-1.8801322148465127"><ele>6.6000000000000005</ele><time>2026-04-21T08:10:24.998Z</time></trkpt><trkpt lat="37.02276220293565" lon="-1.8801557837137965"><ele>5.4</ele><time>2026-04-21T08:10:25.998Z</time></trkpt><trkpt lat="37.022842370552134" lon="-1.8801909142512834"><ele>4.2</ele><time>2026-04-21T08:10:26.998Z</time></trkpt><trkpt lat="37.0229207906374" lon="-1.8802156718655516"><ele>3.0</ele><time>2026-04-21T08:10:27.998Z</time></trkpt><trkpt lat="37.02301427208409" lon="-1.8802330548392276"><ele>3.0</ele><time>2026-04-21T08:10:28.998Z</time></trkpt><trkpt lat="37.023103044605676" lon="-1.880230492198678"><ele>3.0</ele><time>2026-04-21T08:10:29.998Z</time></trkpt><trkpt lat="37.023188762644274" lon="-1.8802346883617724"><ele>3.0</ele><time>2026-04-21T08:10:30.998Z</time></trkpt><trkpt lat="37.02326213046103" lon="-1.8802350705262054"><ele>3.0</ele><time>2026-04-21T08:10:31.998Z</time></trkpt><trkpt lat="37.02336764385372" lon="-1.8802842344523996"><ele>3.0</ele><time>2026-04-21T08:10:33.998Z</time></trkpt><trkpt lat="37.02342704756935" lon="-1.8803525134150991"><ele>3.0</ele><time>2026-04-21T08:10:35.998Z</time></trkpt><trkpt lat="37.02346554254378" lon="-1.8804295338895758"><ele>3.0</ele><time>2026-04-21T08:10:37.997Z</time></trkpt><trkpt lat="37.02348381299396" lon="-1.88057415537603"><ele>3.0</ele><time>2026-04-21T08:10:39.998Z</time></trkpt><trkpt lat="37.0234856660813" lon="-1.8807157943975827"><ele>3.0</ele><time>2026-04-21T08:10:41.998Z</time></trkpt><trkpt lat="37.02346931007212" lon="-1.880807778812593"><ele>3.0</ele><time>2026-04-21T08:10:43.999Z</time></trkpt><trkpt lat="37.02341906570467" lon="-1.8808560594719528"><ele>3.0</ele><time>2026-04-21T08:10:45.999Z</time></trkpt><trkpt lat="37.02334881291671" lon="-1.8808866694364401"><ele>3.0</ele><time>2026-04-21T08:10:47.999Z</time></trkpt><trkpt lat="37.02327269013462" lon="-1.8809603088278686"><ele>3.0</ele><time>2026-04-21T08:10:49.999Z</time></trkpt><trkpt lat="37.02320775030287" lon="-1.8810150325892145"><ele>3.0</ele><time>2026-04-21T08:10:51.999Z</time></trkpt><trkpt lat="37.0231480210425" lon="-1.8810456496532795"><ele>3.0</ele><time>2026-04-21T08:10:53.999Z</time></trkpt><trkpt lat="37.02307914419604" lon="-1.881093849542886"><ele>3.0</ele><time>2026-04-21T08:11:16.999Z</time></trkpt><trkpt lat="37.02303818027687" lon="-1.88119910913997"><ele>3.0</ele><time>2026-04-21T08:14:03.999Z</time></trkpt><trkpt lat="37.02296149697421" lon="-1.8812172317890035"><ele>3.0</ele><time>2026-04-21T08:17:28.999Z</time></trkpt><trkpt lat="37.02291913312329" lon="-1.8812871703865859"><ele>3.0</ele><time>2026-04-21T08:17:30.999Z</time></trkpt><trkpt lat="37.02285197627074" lon="-1.8813809487660005"><ele>3.0</ele><time>2026-04-21T08:17:32.999Z</time></trkpt><trkpt lat="37.022816687820246" lon="-1.8814481937049932"><ele>3.0</ele><time>2026-04-21T08:17:33.999Z</time></trkpt><trkpt lat="37.022781415113286" lon="-1.881513567234539"><ele>3.0</ele><time>2026-04-21T08:17:34.999Z</time></trkpt><trkpt lat="37.022728746666004" lon="-1.8816019713020773"><ele>3.0</ele><time>2026-04-21T08:17:36.999Z</time></trkpt><trkpt lat="37.02269827869539" lon="-1.8816722508408523"><ele>3.0</ele><time>2026-04-21T08:17:40.999Z</time></trkpt><trkpt lat="37.02267531101656" lon="-1.8817819741479804"><ele>2.8333333333333335</ele><time>2026-04-21T08:18:11Z</time></trkpt><trkpt lat="37.0226384472933" lon="-1.8819321722543942"><ele>2.6666666666666665</ele><time>2026-04-21T08:18:13Z</time></trkpt><trkpt lat="37.022621830770724" lon="-1.882013875797811"><ele>2.5</ele><time>2026-04-21T08:18:14Z</time></trkpt><trkpt lat="37.02260761302626" lon="-1.8820997677911306"><ele>2.333333333333333</ele><time>2026-04-21T08:18:15Z</time></trkpt><trkpt lat="37.02259026228464" lon="-1.8821943288268466"><ele>2.1666666666666665</ele><time>2026-04-21T08:18:16Z</time></trkpt><trkpt lat="37.022580357934814" lon="-1.8822946988142746"><ele>2.0</ele><time>2026-04-21T08:18:17Z</time></trkpt><trkpt lat="37.022569925187675" lon="-1.882394688002391"><ele>2.0</ele><time>2026-04-21T08:18:18Z</time></trkpt><trkpt lat="37.02256083256798" lon="-1.8824915717131712"><ele>1.9999999999999998</ele><time>2026-04-21T08:18:19Z</time></trkpt><trkpt lat="37.02255035123775" lon="-1.8825889878808464"><ele>2.0</ele><time>2026-04-21T08:18:20Z</time></trkpt><trkpt lat="37.022540095203006" lon="-1.8826846615996575"><ele>2.0</ele><time>2026-04-21T08:18:21Z</time></trkpt><trkpt lat="37.02252898937638" lon="-1.8827747113651236"><ele>1.9999999999999998</ele><time>2026-04-21T08:18:22Z</time></trkpt><trkpt lat="37.02251317095513" lon="-1.8828588269879842"><ele>2.0</ele><time>2026-04-21T08:18:23Z</time></trkpt><trkpt lat="37.02249556961895" lon="-1.8829364265949375"><ele>2.0</ele><time>2026-04-21T08:18:24Z</time></trkpt><trkpt lat="37.02243384320024" lon="-1.8830694933998475"><ele>2.4285714285714284</ele><time>2026-04-21T08:18:26Z</time></trkpt><trkpt lat="37.02238406549185" lon="-1.8831303468773017"><ele>2.8571428571428568</ele><time>2026-04-21T08:18:27Z</time></trkpt><trkpt lat="37.022335088584875" lon="-1.8831939796786765"><ele>3.2857142857142856</ele><time>2026-04-21T08:18:28Z</time></trkpt><trkpt lat="37.02227917261807" lon="-1.8832502778702163"><ele>3.7142857142857144</ele><time>2026-04-21T08:18:29Z</time></trkpt><trkpt lat="37.02222356892196" lon="-1.8832993096168187"><ele>4.142857142857143</ele><time>2026-04-21T08:18:30Z</time></trkpt><trkpt lat="37.02216518267487" lon="-1.8833479435469151"><ele>4.571428571428571</ele><time>2026-04-21T08:18:31Z</time></trkpt><trkpt lat="37.022105444967835" lon="-1.8834014218127013"><ele>5.0</ele><time>2026-04-21T08:18:32Z</time></trkpt><trkpt lat="37.02204594105621" lon="-1.8834591918603323"><ele>5.0</ele><time>2026-04-21T08:18:33Z</time></trkpt><trkpt lat="37.02198522224751" lon="-1.8835194724316195"><ele>5.0</ele><time>2026-04-21T08:18:34Z</time></trkpt><trkpt lat="37.02192913520238" lon="-1.883584183152152"><ele>5.0</ele><time>2026-04-21T08:18:35Z</time></trkpt><trkpt lat="37.02188166384511" lon="-1.8836522188576892"><ele>5.0</ele><time>2026-04-21T08:18:36Z</time></trkpt><trkpt lat="37.021839561099014" lon="-1.883716832348934"><ele>5.0</ele><time>2026-04-21T08:18:37Z</time></trkpt><trkpt lat="37.02176984712132" lon="-1.8838386979377686"><ele>5.0</ele><time>2026-04-21T08:18:39Z</time></trkpt><trkpt lat="37.02171220207879" lon="-1.8839636892678069"><ele>6.166666666666667</ele><time>2026-04-21T08:18:41Z</time></trkpt><trkpt lat="37.021631651337934" lon="-1.8840847981285782"><ele>7.333333333333334</ele><time>2026-04-21T08:18:43Z</time></trkpt><trkpt lat="37.021583938813635" lon="-1.884146655715033"><ele>8.5</ele><time>2026-04-21T08:18:44Z</time></trkpt><trkpt lat="37.0215399486262" lon="-1.884208931307216"><ele>9.666666666666666</ele><time>2026-04-21T08:18:45Z</time></trkpt><trkpt lat="37.021494956650166" lon="-1.8842683620586447"><ele>10.833333333333334</ele><time>2026-04-21T08:18:46Z</time></trkpt><trkpt lat="37.021453261329434" lon="-1.884331693004695"><ele>12.0</ele><time>2026-04-21T08:18:47Z</time></trkpt><trkpt lat="37.021408223765036" lon="-1.8843981228676052"><ele>11.999999999999998</ele><time>2026-04-21T08:18:48Z</time></trkpt><trkpt lat="37.021358459574564" lon="-1.8844639446687512"><ele>12.0</ele><time>2026-04-21T08:18:49Z</time></trkpt><trkpt lat="37.021302476343195" lon="-1.8845232349091363"><ele>12.0</ele><time>2026-04-21T08:18:50Z</time></trkpt><trkpt lat="37.02125175067871" lon="-1.8845840448311888"><ele>12.0</ele><time>2026-04-21T08:18:51Z</time></trkpt><trkpt lat="37.0212050559308" lon="-1.8846468315010025"><ele>12.0</ele><time>2026-04-21T08:18:52Z</time></trkpt><trkpt lat="37.02115699530579" lon="-1.884707450201945"><ele>11.999999999999998</ele><time>2026-04-21T08:18:53Z</time></trkpt><trkpt lat="37.02110956380833" lon="-1.8847739583632055"><ele>12.0</ele><time>2026-04-21T08:18:54Z</time></trkpt><trkpt lat="37.02106149554226" lon="-1.8848413049893051"><ele>12.0</ele><time>2026-04-21T08:18:55Z</time></trkpt><trkpt lat="37.0210088867838" lon="-1.884909293454667"><ele>12.0</ele><time>2026-04-21T08:18:56Z</time></trkpt><trkpt lat="37.02095401210561" lon="-1.884963788375604"><ele>12.0</ele><time>2026-04-21T08:18:57Z</time></trkpt><trkpt lat="37.020901943180014" lon="-1.885019446120259"><ele>12.0</ele><time>2026-04-21T08:18:58Z</time></trkpt><trkpt lat="37.02085386163172" lon="-1.8850777635088107"><ele>12.0</ele><time>2026-04-21T08:18:59Z</time></trkpt><trkpt lat="37.02080933072513" lon="-1.885142509692011"><ele>12.0</ele><time>2026-04-21T08:19:00Z</time></trkpt><trkpt lat="37.02073770812618" lon="-1.8852608501284036"><ele>11.666666666666666</ele><time>2026-04-21T08:19:02Z</time></trkpt><trkpt lat="37.02067428162455" lon="-1.8853910391590105"><ele>11.333333333333334</ele><time>2026-04-21T08:19:04Z</time></trkpt><trkpt lat="37.020636683192286" lon="-1.8854628189249678"><ele>11.0</ele><time>2026-04-21T08:19:05Z</time></trkpt><trkpt lat="37.0205898692802" lon="-1.885534668344004"><ele>10.666666666666668</ele><time>2026-04-21T08:19:06Z</time></trkpt><trkpt lat="37.0205421553648" lon="-1.885598609131536"><ele>10.333333333333334</ele><time>2026-04-21T08:19:07Z</time></trkpt><trkpt lat="37.020478618651055" lon="-1.885647036047898"><ele>10.0</ele><time>2026-04-21T08:19:08Z</time></trkpt><trkpt lat="37.02040560585105" lon="-1.885708306288935"><ele>10.0</ele><time>2026-04-21T08:19:09Z</time></trkpt><trkpt lat="37.02033409062605" lon="-1.8857650843873488"><ele>10.0</ele><time>2026-04-21T08:19:10Z</time></trkpt><trkpt lat="37.02026173583595" lon="-1.8858271939470723"><ele>10.0</ele><time>2026-04-21T08:19:11Z</time></trkpt><trkpt lat="37.02018405023438" lon="-1.8858849037375587"><ele>10.0</ele><time>2026-04-21T08:19:12Z</time></trkpt><trkpt lat="37.020121706229546" lon="-1.8859185017112388"><ele>10.0</ele><time>2026-04-21T08:19:13Z</time></trkpt><trkpt lat="37.02005282263622" lon="-1.8859553025299851"><ele>10.0</ele><time>2026-04-21T08:19:14Z</time></trkpt><trkpt lat="37.01998783960796" lon="-1.885995673421955"><ele>10.5</ele><time>2026-04-21T08:19:15Z</time></trkpt><trkpt lat="37.01992701381316" lon="-1.8860351146226642"><ele>11.0</ele><time>2026-04-21T08:19:16Z</time></trkpt><trkpt lat="37.01986212011826" lon="-1.8860736302463847"><ele>11.5</ele><time>2026-04-21T08:19:17Z</time></trkpt><trkpt lat="37.019803037195985" lon="-1.886106372725006"><ele>12.0</ele><time>2026-04-21T08:19:18Z</time></trkpt><trkpt lat="37.01974041355727" lon="-1.8861423427659676"><ele>12.499999999999998</ele><time>2026-04-21T08:19:19Z</time></trkpt><trkpt lat="37.01965236977963" lon="-1.8861922138432794"><ele>13.0</ele><time>2026-04-21T08:19:21Z</time></trkpt><trkpt lat="37.01957982114605" lon="-1.8862690286769843"><ele>13.0</ele><time>2026-04-21T08:19:35Z</time></trkpt><trkpt lat="37.01952786243381" lon="-1.8863389766907264"><ele>13.0</ele><time>2026-04-21T08:19:37Z</time></trkpt><trkpt lat="37.01947084371816" lon="-1.886448886309296"><ele>13.0</ele><time>2026-04-21T08:19:39Z</time></trkpt><trkpt lat="37.019422597716435" lon="-1.8865752945587708"><ele>13.0</ele><time>2026-04-21T08:19:41Z</time></trkpt><trkpt lat="37.01941253704172" lon="-1.8867063886216004"><ele>13.0</ele><time>2026-04-21T08:19:43Z</time></trkpt><trkpt lat="37.01939061238538" lon="-1.8868477332363442"><ele>12.600000000000001</ele><time>2026-04-21T08:19:45Z</time></trkpt><trkpt lat="37.01932602504091" lon="-1.8869566333718337"><ele>12.200000000000001</ele><time>2026-04-21T08:19:47Z</time></trkpt><trkpt lat="37.01923951161095" lon="-1.8870521116497634"><ele>11.8</ele><time>2026-04-21T08:19:49Z</time></trkpt><trkpt lat="37.019142827919225" lon="-1.8871339397517541"><ele>11.4</ele><time>2026-04-21T08:19:51Z</time></trkpt><trkpt lat="37.01907866300145" lon="-1.8871815240447714"><ele>11.0</ele><time>2026-04-21T08:19:52Z</time></trkpt><trkpt lat="37.01900376563481" lon="-1.8872362882436362"><ele>11.0</ele><time>2026-04-21T08:19:53Z</time></trkpt><trkpt lat="37.018934010297485" lon="-1.887283919180114"><ele>11.0</ele><time>2026-04-21T08:19:54Z</time></trkpt><trkpt lat="37.018871404684646" lon="-1.887329022360463"><ele>11.0</ele><time>2026-04-21T08:19:55Z</time></trkpt><trkpt lat="37.01880055061403" lon="-1.8873805316512375"><ele>11.0</ele><time>2026-04-21T08:19:56Z</time></trkpt><trkpt lat="37.01873324093603" lon="-1.8874345512080108"><ele>11.0</ele><time>2026-04-21T08:19:57Z</time></trkpt><trkpt lat="37.01866649489222" lon="-1.8874854028888368"><ele>11.0</ele><time>2026-04-21T08:19:58Z</time></trkpt><trkpt lat="37.018596429772394" lon="-1.8875377999614473"><ele>11.0</ele><time>2026-04-21T08:19:59Z</time></trkpt><trkpt lat="37.018521503467085" lon="-1.8875874558617036"><ele>11.0</ele><time>2026-04-21T08:20:00Z</time></trkpt><trkpt lat="37.01845415306432" lon="-1.8876342592407653"><ele>11.0</ele><time>2026-04-21T08:20:01Z</time></trkpt><trkpt lat="37.01838642941643" lon="-1.8876805915568873"><ele>11.0</ele><time>2026-04-21T08:20:02Z</time></trkpt><trkpt lat="37.01832016649807" lon="-1.8877260823333941"><ele>11.0</ele><time>2026-04-21T08:20:03Z</time></trkpt><trkpt lat="37.018257081943275" lon="-1.8877713326995251"><ele>11.0</ele><time>2026-04-21T08:20:04Z</time></trkpt><trkpt lat="37.018192611122906" lon="-1.8878189798100333"><ele>11.200000000000001</ele><time>2026-04-21T08:20:05Z</time></trkpt><trkpt lat="37.01813996003179" lon="-1.8878706761037192"><ele>11.4</ele><time>2026-04-21T08:20:06Z</time></trkpt><trkpt lat="37.01809097418646" lon="-1.8879282884936714"><ele>11.6</ele><time>2026-04-21T08:20:07Z</time></trkpt><trkpt lat="37.0180011976702" lon="-1.888016639784285"><ele>11.8</ele><time>2026-04-21T08:20:09Z</time></trkpt><trkpt lat="37.017898444547136" lon="-1.8880753900612566"><ele>12.0</ele><time>2026-04-21T08:20:11Z</time></trkpt><trkpt lat="37.017802162917924" lon="-1.8881321520850811"><ele>12.0</ele><time>2026-04-21T08:20:13Z</time></trkpt><trkpt lat="37.01770836848066" lon="-1.8881785354504805"><ele>12.0</ele><time>2026-04-21T08:20:15Z</time></trkpt><trkpt lat="37.01764547222414" lon="-1.8882244321089792"><ele>12.0</ele><time>2026-04-21T08:20:17Z</time></trkpt><trkpt lat="37.017581076777006" lon="-1.8882643559087169"><ele>12.0</ele><time>2026-04-21T08:20:19Z</time></trkpt><trkpt lat="37.017518778961794" lon="-1.888318032689307"><ele>12.0</ele><time>2026-04-21T08:20:21Z</time></trkpt><trkpt lat="37.01747075091517" lon="-1.8884170233934432"><ele>12.0</ele><time>2026-04-21T08:20:23Z</time></trkpt><trkpt lat="37.01741743818847" lon="-1.888558312603693"><ele>16.2</ele><time>2026-04-21T08:20:25Z</time></trkpt><trkpt lat="37.01739222154208" lon="-1.8886883189755632"><ele>20.4</ele><time>2026-04-21T08:20:27Z</time></trkpt><trkpt lat="37.01737517259579" lon="-1.8887684945524792"><ele>24.599999999999998</ele><time>2026-04-21T08:20:28Z</time></trkpt><trkpt lat="37.017331424667084" lon="-1.8889076381566818"><ele>28.799999999999997</ele><time>2026-04-21T08:20:30Z</time></trkpt><trkpt lat="37.017297577800534" lon="-1.8890522765595632"><ele>33.0</ele><time>2026-04-21T08:20:32Z</time></trkpt><trkpt lat="37.017275161653195" lon="-1.8891947994415246"><ele>30.57142857142857</ele><time>2026-04-21T08:20:34Z</time></trkpt><trkpt lat="37.01726506789042" lon="-1.8892729103985801"><ele>28.142857142857146</ele><time>2026-04-21T08:20:35Z</time></trkpt><trkpt lat="37.01725346887825" lon="-1.8893532393046142"><ele>25.714285714285715</ele><time>2026-04-21T08:20:36Z</time></trkpt><trkpt lat="37.017218691644345" lon="-1.889491303366098"><ele>23.285714285714285</ele><time>2026-04-21T08:20:38Z</time></trkpt><trkpt lat="37.01718388526898" lon="-1.889564509756783"><ele>20.857142857142854</ele><time>2026-04-21T08:20:39Z</time></trkpt><trkpt lat="37.017148659360956" lon="-1.8896344523850188"><ele>18.428571428571427</ele><time>2026-04-21T08:20:40Z</time></trkpt><trkpt lat="37.017113169255225" lon="-1.8897052164972719"><ele>16.0</ele><time>2026-04-21T08:20:41Z</time></trkpt><trkpt lat="37.01706172905714" lon="-1.8897669873684522"><ele>15.999999999999998</ele><time>2026-04-21T08:20:42Z</time></trkpt><trkpt lat="37.01701101604904" lon="-1.8898342813598485"><ele>16.0</ele><time>2026-04-21T08:20:43Z</time></trkpt><trkpt lat="37.01695179543937" lon="-1.8899069004129279"><ele>16.0</ele><time>2026-04-21T08:20:44Z</time></trkpt><trkpt lat="37.01689560983318" lon="-1.8899816443625523"><ele>16.0</ele><time>2026-04-21T08:20:45Z</time></trkpt><trkpt lat="37.016854482886416" lon="-1.890055875519735"><ele>15.999999999999998</ele><time>2026-04-21T08:20:46Z</time></trkpt><trkpt lat="37.01682072790642" lon="-1.8901392665941208"><ele>16.0</ele><time>2026-04-21T08:20:47Z</time></trkpt><trkpt lat="37.01677817099759" lon="-1.8902345152787405"><ele>15.600000000000001</ele><time>2026-04-21T08:20:48Z</time></trkpt><trkpt lat="37.0167308938367" lon="-1.8903340963376511"><ele>15.200000000000001</ele><time>2026-04-21T08:20:49Z</time></trkpt><trkpt lat="37.01668609464335" lon="-1.890434448432965"><ele>14.799999999999999</ele><time>2026-04-21T08:20:50Z</time></trkpt><trkpt lat="37.016641709369125" lon="-1.890533656568619"><ele>14.399999999999999</ele><time>2026-04-21T08:20:51Z</time></trkpt><trkpt lat="37.016601527520216" lon="-1.8906310468245657"><ele>14.0</ele><time>2026-04-21T08:20:52Z</time></trkpt><trkpt lat="37.01655240933122" lon="-1.8907347557114107"><ele>13.6</ele><time>2026-04-21T08:20:53Z</time></trkpt><trkpt lat="37.016503826860465" lon="-1.8908385096243245"><ele>13.2</ele><time>2026-04-21T08:20:54Z</time></trkpt><trkpt lat="37.01645448098372" lon="-1.8909359603111127"><ele>12.799999999999999</ele><time>2026-04-21T08:20:55Z</time></trkpt><trkpt lat="37.016402889255886" lon="-1.8910279165723396"><ele>12.399999999999999</ele><time>2026-04-21T08:20:56Z</time></trkpt><trkpt lat="37.01634302967572" lon="-1.8911141533042908"><ele>12.0</ele><time>2026-04-21T08:20:57Z</time></trkpt><trkpt lat="37.016279421673275" lon="-1.8911973969335072"><ele>12.0</ele><time>2026-04-21T08:20:58Z</time></trkpt><trkpt lat="37.01621339102189" lon="-1.8912783819453407"><ele>12.0</ele><time>2026-04-21T08:20:59Z</time></trkpt><trkpt lat="37.0161443357609" lon="-1.891372200026919"><ele>12.0</ele><time>2026-04-21T08:21:00Z</time></trkpt><trkpt lat="37.0160866353267" lon="-1.891461489662685"><ele>12.0</ele><time>2026-04-21T08:21:01Z</time></trkpt><trkpt lat="37.01604136656621" lon="-1.8915447299438894"><ele>12.0</ele><time>2026-04-21T08:21:02Z</time></trkpt><trkpt lat="37.016000823361544" lon="-1.8916362572557777"><ele>12.0</ele><time>2026-04-21T08:21:03Z</time></trkpt><trkpt lat="37.01597409511749" lon="-1.8917391399849643"><ele>12.0</ele><time>2026-04-21T08:21:04Z</time></trkpt><trkpt lat="37.01595257657667" lon="-1.8918436442164237"><ele>12.0</ele><time>2026-04-21T08:21:05Z</time></trkpt><trkpt lat="37.015930005918094" lon="-1.89194454955841"><ele>12.0</ele><time>2026-04-21T08:21:06Z</time></trkpt><trkpt lat="37.01589915388866" lon="-1.8920479881104177"><ele>12.0</ele><time>2026-04-21T08:21:07Z</time></trkpt><trkpt lat="37.01585355003553" lon="-1.8921399915341832"><ele>12.0</ele><time>2026-04-21T08:21:08Z</time></trkpt><trkpt lat="37.015803152749506" lon="-1.8922325506603157"><ele>12.833333333333334</ele><time>2026-04-21T08:21:09Z</time></trkpt><trkpt lat="37.01575281965554" lon="-1.892323941514187"><ele>13.666666666666668</ele><time>2026-04-21T08:21:10Z</time></trkpt><trkpt lat="37.01571217681938" lon="-1.8924193630997628"><ele>14.5</ele><time>2026-04-21T08:21:11Z</time></trkpt><trkpt lat="37.01567392033795" lon="-1.8925165752588313"><ele>15.333333333333334</ele><time>2026-04-21T08:21:12Z</time></trkpt><trkpt lat="37.01563703781462" lon="-1.8926204924898646"><ele>16.166666666666668</ele><time>2026-04-21T08:21:13Z</time></trkpt><trkpt lat="37.01560254174029" lon="-1.8927205639860873"><ele>17.0</ele><time>2026-04-21T08:21:14Z</time></trkpt><trkpt lat="37.0155838342406" lon="-1.892823806299799"><ele>17.166666666666668</ele><time>2026-04-21T08:21:15Z</time></trkpt><trkpt lat="37.0155674027315" lon="-1.8929300174646748"><ele>17.333333333333336</ele><time>2026-04-21T08:21:16Z</time></trkpt><trkpt lat="37.01555259796516" lon="-1.893033405738982"><ele>17.5</ele><time>2026-04-21T08:21:17Z</time></trkpt><trkpt lat="37.01554078224823" lon="-1.8931350646711957"><ele>17.666666666666668</ele><time>2026-04-21T08:21:18Z</time></trkpt><trkpt lat="37.01554046660514" lon="-1.8932356113109803"><ele>17.833333333333332</ele><time>2026-04-21T08:21:19Z</time></trkpt><trkpt lat="37.01553988363922" lon="-1.8933411561185944"><ele>18.0</ele><time>2026-04-21T08:21:20Z</time></trkpt><trkpt lat="37.01554993498957" lon="-1.893441395183405"><ele>18.666666666666668</ele><time>2026-04-21T08:21:21Z</time></trkpt><trkpt lat="37.01555571515386" lon="-1.8935419485292786"><ele>19.333333333333332</ele><time>2026-04-21T08:21:22Z</time></trkpt><trkpt lat="37.01556386400228" lon="-1.8936434376200189"><ele>20.0</ele><time>2026-04-21T08:21:23Z</time></trkpt><trkpt lat="37.015571778929576" lon="-1.8937469600802082"><ele>20.666666666666664</ele><time>2026-04-21T08:21:24Z</time></trkpt><trkpt lat="37.015585554662195" lon="-1.8938505025746997"><ele>21.333333333333332</ele><time>2026-04-21T08:21:25Z</time></trkpt><trkpt lat="37.0155950504661" lon="-1.89395301716101"><ele>22.0</ele><time>2026-04-21T08:21:26Z</time></trkpt><trkpt lat="37.01560148207379" lon="-1.8940559927996643"><ele>22.0</ele><time>2026-04-21T08:21:27Z</time></trkpt><trkpt lat="37.01560686103589" lon="-1.8941562381539434"><ele>22.0</ele><time>2026-04-21T08:21:28Z</time></trkpt><trkpt lat="37.015618916039884" lon="-1.8942572326211344"><ele>22.0</ele><time>2026-04-21T08:21:29Z</time></trkpt><trkpt lat="37.01562320342058" lon="-1.8943592971119838"><ele>22.0</ele><time>2026-04-21T08:21:30Z</time></trkpt><trkpt lat="37.015630144382094" lon="-1.8944628248734108"><ele>22.0</ele><time>2026-04-21T08:21:31Z</time></trkpt><trkpt lat="37.015641275037645" lon="-1.894570097708572"><ele>22.0</ele><time>2026-04-21T08:21:32Z</time></trkpt><trkpt lat="37.01565020711907" lon="-1.894681782625268"><ele>22.333333333333332</ele><time>2026-04-21T08:21:33Z</time></trkpt><trkpt lat="37.01566454782637" lon="-1.894792733942282"><ele>22.666666666666664</ele><time>2026-04-21T08:21:34Z</time></trkpt><trkpt lat="37.01568192965843" lon="-1.8949034811037178"><ele>23.0</ele><time>2026-04-21T08:21:35Z</time></trkpt><trkpt lat="37.015705659005945" lon="-1.8950058341185416"><ele>23.333333333333332</ele><time>2026-04-21T08:21:36Z</time></trkpt><trkpt lat="37.01571567373978" lon="-1.8950973018099462"><ele>23.666666666666668</ele><time>2026-04-21T08:21:37Z</time></trkpt><trkpt lat="37.01573661028509" lon="-1.8951744068746341"><ele>24.0</ele><time>2026-04-21T08:21:38Z</time></trkpt><trkpt lat="37.01577527793902" lon="-1.895287713125823"><ele>22.8</ele><time>2026-04-21T08:21:40Z</time></trkpt><trkpt lat="37.015786362553136" lon="-1.895382455889117"><ele>21.599999999999998</ele><time>2026-04-21T08:21:43Z</time></trkpt><trkpt lat="37.015807698724814" lon="-1.8955087388924463"><ele>20.4</ele><time>2026-04-21T08:21:51Z</time></trkpt><trkpt lat="37.01588337451691" lon="-1.8956595359078647"><ele>19.2</ele><time>2026-04-21T08:21:53Z</time></trkpt><trkpt lat="37.015950027612625" lon="-1.8957412187246294"><ele>18.0</ele><time>2026-04-21T08:21:54Z</time></trkpt><trkpt lat="37.016022448679706" lon="-1.8958226652063503"><ele>17.4</ele><time>2026-04-21T08:21:55Z</time></trkpt><trkpt lat="37.016089305121746" lon="-1.8959083183102061"><ele>16.8</ele><time>2026-04-21T08:21:56Z</time></trkpt><trkpt lat="37.01615569762212" lon="-1.8960011873341525"><ele>16.2</ele><time>2026-04-21T08:21:57Z</time></trkpt><trkpt lat="37.0162266021258" lon="-1.8960949290437799"><ele>15.6</ele><time>2026-04-21T08:21:58Z</time></trkpt><trkpt lat="37.01629810296715" lon="-1.896196056856021"><ele>15.0</ele><time>2026-04-21T08:21:59Z</time></trkpt><trkpt lat="37.01636721755493" lon="-1.896301398742272"><ele>15.0</ele><time>2026-04-21T08:22:00Z</time></trkpt><trkpt lat="37.016435365667235" lon="-1.8964031916352795"><ele>15.0</ele><time>2026-04-21T08:22:01Z</time></trkpt><trkpt lat="37.01649665774167" lon="-1.896509794061735"><ele>15.0</ele><time>2026-04-21T08:22:02Z</time></trkpt><trkpt lat="37.01655444161823" lon="-1.8966154881255337"><ele>15.0</ele><time>2026-04-21T08:22:03Z</time></trkpt><trkpt lat="37.01661065820701" lon="-1.8967231492808958"><ele>15.0</ele><time>2026-04-21T08:22:04Z</time></trkpt><trkpt lat="37.01665779485305" lon="-1.8968345507530573"><ele>15.6</ele><time>2026-04-21T08:22:05Z</time></trkpt><trkpt lat="37.016701740580686" lon="-1.8969523101949461"><ele>16.2</ele><time>2026-04-21T08:22:06Z</time></trkpt><trkpt lat="37.016744604352404" lon="-1.897071405373644"><ele>16.8</ele><time>2026-04-21T08:22:07Z</time></trkpt><trkpt lat="37.016784502225526" lon="-1.8971873718888785"><ele>17.4</ele><time>2026-04-21T08:22:08Z</time></trkpt><trkpt lat="37.01683293215775" lon="-1.897297096404816"><ele>18.0</ele><time>2026-04-21T08:22:09Z</time></trkpt><trkpt lat="37.016887482481465" lon="-1.8974060571157665"><ele>18.0</ele><time>2026-04-21T08:22:10Z</time></trkpt><trkpt lat="37.01693962349985" lon="-1.897516569123837"><ele>18.0</ele><time>2026-04-21T08:22:11Z</time></trkpt><trkpt lat="37.01700084221005" lon="-1.8976222918227343"><ele>18.0</ele><time>2026-04-21T08:22:12Z</time></trkpt><trkpt lat="37.017063941428624" lon="-1.897724030064804"><ele>18.0</ele><time>2026-04-21T08:22:13Z</time></trkpt><trkpt lat="37.017119732650364" lon="-1.8978223175744708"><ele>18.0</ele><time>2026-04-21T08:22:14Z</time></trkpt><trkpt lat="37.017170120273676" lon="-1.8979070640158755"><ele>18.333333333333332</ele><time>2026-04-21T08:22:15Z</time></trkpt><trkpt lat="37.017221221311544" lon="-1.89798514840989"><ele>18.666666666666668</ele><time>2026-04-21T08:22:16Z</time></trkpt><trkpt lat="37.017269297512435" lon="-1.8980599771992122"><ele>19.0</ele><time>2026-04-21T08:22:17Z</time></trkpt><trkpt lat="37.01731583939992" lon="-1.8981346449964267"><ele>19.333333333333336</ele><time>2026-04-21T08:22:18Z</time></trkpt><trkpt lat="37.01736038962901" lon="-1.8982123437283756"><ele>19.666666666666668</ele><time>2026-04-21T08:22:19Z</time></trkpt><trkpt lat="37.017406673230084" lon="-1.8982858033757897"><ele>20.0</ele><time>2026-04-21T08:22:20Z</time></trkpt><trkpt lat="37.01745024665268" lon="-1.8983633003484492"><ele>20.0</ele><time>2026-04-21T08:22:21Z</time></trkpt><trkpt lat="37.017500986992715" lon="-1.8984379405078327"><ele>20.0</ele><time>2026-04-21T08:22:22Z</time></trkpt><trkpt lat="37.017559322180084" lon="-1.898506029124913"><ele>20.0</ele><time>2026-04-21T08:22:23Z</time></trkpt><trkpt lat="37.017618403815035" lon="-1.8985745848022981"><ele>20.0</ele><time>2026-04-21T08:22:24Z</time></trkpt><trkpt lat="37.01767490732184" lon="-1.8986477011147311"><ele>20.0</ele><time>2026-04-21T08:22:25Z</time></trkpt><trkpt lat="37.01772675816411" lon="-1.8987212855968274"><ele>20.0</ele><time>2026-04-21T08:22:26Z</time></trkpt><trkpt lat="37.017761632481026" lon="-1.898808712888837"><ele>20.0</ele><time>2026-04-21T08:22:27Z</time></trkpt><trkpt lat="37.01778615547152" lon="-1.8989071035955523"><ele>20.0</ele><time>2026-04-21T08:22:28Z</time></trkpt><trkpt lat="37.01780307977573" lon="-1.8990211578774834"><ele>20.0</ele><time>2026-04-21T08:22:29Z</time></trkpt><trkpt lat="37.01782080480863" lon="-1.8991450929474107"><ele>20.0</ele><time>2026-04-21T08:22:30Z</time></trkpt><trkpt lat="37.01783231611446" lon="-1.8992707046861392"><ele>20.0</ele><time>2026-04-21T08:22:31Z</time></trkpt><trkpt lat="37.01784395155761" lon="-1.8994035374863707"><ele>20.5</ele><time>2026-04-21T08:22:32Z</time></trkpt><trkpt lat="37.01784847192244" lon="-1.899540083202321"><ele>21.0</ele><time>2026-04-21T08:22:33Z</time></trkpt><trkpt lat="37.017855224934664" lon="-1.899682173201383"><ele>21.5</ele><time>2026-04-21T08:22:34Z</time></trkpt><trkpt lat="37.01785302899893" lon="-1.8998264892425418"><ele>22.0</ele><time>2026-04-21T08:22:35Z</time></trkpt><trkpt lat="37.017847820599854" lon="-1.8999697975948917"><ele>22.200000000000003</ele><time>2026-04-21T08:22:36Z</time></trkpt><trkpt lat="37.01784587646359" lon="-1.9001142887650861"><ele>22.4</ele><time>2026-04-21T08:22:37Z</time></trkpt><trkpt lat="37.0178424751403" lon="-1.900248730885826"><ele>22.6</ele><time>2026-04-21T08:22:38Z</time></trkpt><trkpt lat="37.01784334747662" lon="-1.9003757695253192"><ele>22.799999999999997</ele><time>2026-04-21T08:22:39Z</time></trkpt><trkpt lat="37.01783353131562" lon="-1.900498849130378"><ele>23.0</ele><time>2026-04-21T08:22:40Z</time></trkpt><trkpt lat="37.01781522214452" lon="-1.9006340212004713"><ele>23.0</ele><time>2026-04-21T08:22:41Z</time></trkpt><trkpt lat="37.017775668673806" lon="-1.9007675088805984"><ele>23.0</ele><time>2026-04-21T08:22:42Z</time></trkpt><trkpt lat="37.01773370317225" lon="-1.9009021840819538"><ele>23.0</ele><time>2026-04-21T08:22:43Z</time></trkpt><trkpt lat="37.01769262231718" lon="-1.9010307837645566"><ele>23.0</ele><time>2026-04-21T08:22:44Z</time></trkpt><trkpt lat="37.01765704077502" lon="-1.9011587865010613"><ele>23.0</ele><time>2026-04-21T08:22:45Z</time></trkpt><trkpt lat="37.017630761201104" lon="-1.9012912885606679"><ele>23.0</ele><time>2026-04-21T08:22:46Z</time></trkpt><trkpt lat="37.017602698172404" lon="-1.9014257346234111"><ele>23.0</ele><time>2026-04-21T08:22:47Z</time></trkpt><trkpt lat="37.01757013313714" lon="-1.9015583572432664"><ele>23.0</ele><time>2026-04-21T08:22:48Z</time></trkpt><trkpt lat="37.01754094370349" lon="-1.901691642518753"><ele>23.0</ele><time>2026-04-21T08:22:49Z</time></trkpt><trkpt lat="37.01750933101003" lon="-1.9018263216397868"><ele>23.0</ele><time>2026-04-21T08:22:50Z</time></trkpt><trkpt lat="37.017473906817756" lon="-1.9019642773136047"><ele>29.25</ele><time>2026-04-21T08:22:51Z</time></trkpt><trkpt lat="37.01743250477502" lon="-1.902103013786681"><ele>35.5</ele><time>2026-04-21T08:22:52Z</time></trkpt><trkpt lat="37.01739048381647" lon="-1.9022404981563423"><ele>41.75</ele><time>2026-04-21T08:22:53Z</time></trkpt><trkpt lat="37.017348420972404" lon="-1.9023782618084664"><ele>48.0</ele><time>2026-04-21T08:22:54Z</time></trkpt><trkpt lat="37.01730636996666" lon="-1.9025138066880016"><ele>44.5</ele><time>2026-04-21T08:22:55Z</time></trkpt><trkpt lat="37.017269609238355" lon="-1.9026541859511648"><ele>41.0</ele><time>2026-04-21T08:22:56Z</time></trkpt><trkpt lat="37.01722857632499" lon="-1.9028000483286927"><ele>37.5</ele><time>2026-04-21T08:22:57Z</time></trkpt><trkpt lat="37.017199678440086" lon="-1.9029531725496882"><ele>34.0</ele><time>2026-04-21T08:22:58Z</time></trkpt><trkpt lat="37.01717176848537" lon="-1.9031057978253172"><ele>34.0</ele><time>2026-04-21T08:22:59Z</time></trkpt><trkpt lat="37.01714342644178" lon="-1.9032565156168553"><ele>34.0</ele><time>2026-04-21T08:23:00Z</time></trkpt><trkpt lat="37.017108839270115" lon="-1.903401641369745"><ele>34.0</ele><time>2026-04-21T08:23:01Z</time></trkpt><trkpt lat="37.01708301141008" lon="-1.9035422292085464"><ele>34.0</ele><time>2026-04-21T08:23:02Z</time></trkpt><trkpt lat="37.017054820929836" lon="-1.9036839636421417"><ele>32.2</ele><time>2026-04-21T08:23:03Z</time></trkpt><trkpt lat="37.01702656774673" lon="-1.903817306916707"><ele>30.4</ele><time>2026-04-21T08:23:04Z</time></trkpt><trkpt lat="37.01699194217927" lon="-1.9039398621479686"><ele>28.6</ele><time>2026-04-21T08:23:05Z</time></trkpt><trkpt lat="37.016954691068996" lon="-1.9040619951839028"><ele>26.8</ele><time>2026-04-21T08:23:06Z</time></trkpt><trkpt lat="37.01694038446135" lon="-1.9041844177345641"><ele>25.0</ele><time>2026-04-21T08:23:07Z</time></trkpt><trkpt lat="37.01694133259542" lon="-1.9043139166235543"><ele>24.75</ele><time>2026-04-21T08:23:08Z</time></trkpt><trkpt lat="37.01695810499625" lon="-1.9044460173990396"><ele>24.5</ele><time>2026-04-21T08:23:09Z</time></trkpt><trkpt lat="37.016981058886" lon="-1.9045832490248547"><ele>24.25</ele><time>2026-04-21T08:23:10Z</time></trkpt><trkpt lat="37.01700065977215" lon="-1.9047265286987105"><ele>24.0</ele><time>2026-04-21T08:23:11Z</time></trkpt><trkpt lat="37.017019565235806" lon="-1.9048710050649142"><ele>24.0</ele><time>2026-04-21T08:23:12Z</time></trkpt><trkpt lat="37.01703916515452" lon="-1.9050139743067598"><ele>24.0</ele><time>2026-04-21T08:23:13Z</time></trkpt><trkpt lat="37.017051171581365" lon="-1.9051582757624705"><ele>24.0</ele><time>2026-04-21T08:23:14Z</time></trkpt><trkpt lat="37.01705918901928" lon="-1.9053025268324995"><ele>24.0</ele><time>2026-04-21T08:23:15Z</time></trkpt><trkpt lat="37.0170633579285" lon="-1.9054410448748615"><ele>24.75</ele><time>2026-04-21T08:23:16Z</time></trkpt><trkpt lat="37.017067927019134" lon="-1.9055819486721666"><ele>25.5</ele><time>2026-04-21T08:23:17Z</time></trkpt><trkpt lat="37.01706070048447" lon="-1.9057230851111258"><ele>26.25</ele><time>2026-04-21T08:23:18Z</time></trkpt><trkpt lat="37.01705543854004" lon="-1.905867673993186"><ele>27.0</ele><time>2026-04-21T08:23:19Z</time></trkpt><trkpt lat="37.01703230047253" lon="-1.9060120877225049"><ele>27.200000000000003</ele><time>2026-04-21T08:23:20Z</time></trkpt><trkpt lat="37.017007893830524" lon="-1.9061599926270008"><ele>27.400000000000002</ele><time>2026-04-21T08:23:21Z</time></trkpt><trkpt lat="37.01698045680539" lon="-1.90630249626321"><ele>27.599999999999998</ele><time>2026-04-21T08:23:22Z</time></trkpt><trkpt lat="37.01695235630506" lon="-1.9064328928695848"><ele>27.799999999999997</ele><time>2026-04-21T08:23:23Z</time></trkpt><trkpt lat="37.01692585552642" lon="-1.906547352421764"><ele>28.0</ele><time>2026-04-21T08:23:24Z</time></trkpt><trkpt lat="37.01690472132639" lon="-1.9066560774670716"><ele>28.2</ele><time>2026-04-21T08:23:25Z</time></trkpt><trkpt lat="37.0168795963049" lon="-1.9067668997804705"><ele>28.4</ele><time>2026-04-21T08:23:26Z</time></trkpt><trkpt lat="37.01686051681467" lon="-1.9068821335177648"><ele>28.599999999999998</ele><time>2026-04-21T08:23:27Z</time></trkpt><trkpt lat="37.01686788003073" lon="-1.9069967848694749"><ele>28.799999999999997</ele><time>2026-04-21T08:23:28Z</time></trkpt><trkpt lat="37.01687850743855" lon="-1.9071094601246177"><ele>29.0</ele><time>2026-04-21T08:23:29Z</time></trkpt><trkpt lat="37.01688122422554" lon="-1.9072218668397014"><ele>28.999999999999996</ele><time>2026-04-21T08:23:30Z</time></trkpt><trkpt lat="37.016884114842405" lon="-1.9073302781377741"><ele>29.0</ele><time>2026-04-21T08:23:31Z</time></trkpt><trkpt lat="37.01688765290461" lon="-1.9074311488538456"><ele>29.0</ele><time>2026-04-21T08:23:32Z</time></trkpt><trkpt lat="37.016896853770234" lon="-1.9075235384395748"><ele>29.0</ele><time>2026-04-21T08:23:33Z</time></trkpt><trkpt lat="37.016913430105085" lon="-1.9076174046156134"><ele>28.999999999999996</ele><time>2026-04-21T08:23:34Z</time></trkpt><trkpt lat="37.01692179845791" lon="-1.9077138454095877"><ele>29.0</ele><time>2026-04-21T08:23:35Z</time></trkpt><trkpt lat="37.016930613674404" lon="-1.9078118990777682"><ele>28.666666666666664</ele><time>2026-04-21T08:23:36Z</time></trkpt><trkpt lat="37.01694011743903" lon="-1.9079106971265811"><ele>28.333333333333332</ele><time>2026-04-21T08:23:37Z</time></trkpt><trkpt lat="37.01695158771285" lon="-1.9080100399588227"><ele>28.0</ele><time>2026-04-21T08:23:38Z</time></trkpt><trkpt lat="37.01695754729805" lon="-1.9081078873943165"><ele>27.666666666666664</ele><time>2026-04-21T08:23:39Z</time></trkpt><trkpt lat="37.01695593484546" lon="-1.9082085244048541"><ele>27.333333333333332</ele><time>2026-04-21T08:23:40Z</time></trkpt><trkpt lat="37.016951723163466" lon="-1.9083127734131184"><ele>27.0</ele><time>2026-04-21T08:23:41Z</time></trkpt><trkpt lat="37.016952475546674" lon="-1.908416630561647"><ele>27.0</ele><time>2026-04-21T08:23:42Z</time></trkpt><trkpt lat="37.016941754597966" lon="-1.9085244038784108"><ele>27.0</ele><time>2026-04-21T08:23:43Z</time></trkpt><trkpt lat="37.01692652468262" lon="-1.9086328449812375"><ele>27.0</ele><time>2026-04-21T08:23:44Z</time></trkpt><trkpt lat="37.01691933474478" lon="-1.9087444632980028"><ele>27.0</ele><time>2026-04-21T08:23:45Z</time></trkpt><trkpt lat="37.016907461512105" lon="-1.908857132528931"><ele>27.0</ele><time>2026-04-21T08:23:46Z</time></trkpt><trkpt lat="37.016892853751074" lon="-1.9089671547195532"><ele>27.0</ele><time>2026-04-21T08:23:47Z</time></trkpt><trkpt lat="37.01687729251095" lon="-1.909073824177884"><ele>27.0</ele><time>2026-04-21T08:23:48Z</time></trkpt><trkpt lat="37.01687014903041" lon="-1.909183538445272"><ele>27.0</ele><time>2026-04-21T08:23:49Z</time></trkpt><trkpt lat="37.01685333595321" lon="-1.9092914129373686"><ele>27.0</ele><time>2026-04-21T08:23:50Z</time></trkpt><trkpt lat="37.01684290901268" lon="-1.909399442378111"><ele>27.0</ele><time>2026-04-21T08:23:51Z</time></trkpt><trkpt lat="37.01683003468033" lon="-1.9095105099162542"><ele>27.0</ele><time>2026-04-21T08:23:52Z</time></trkpt><trkpt lat="37.016814490456845" lon="-1.909621826222223"><ele>27.0</ele><time>2026-04-21T08:23:53Z</time></trkpt><trkpt lat="37.01679435773294" lon="-1.9097315811724742"><ele>27.200000000000003</ele><time>2026-04-21T08:23:54Z</time></trkpt><trkpt lat="37.01675495666817" lon="-1.9098300226775011"><ele>27.400000000000002</ele><time>2026-04-21T08:23:55Z</time></trkpt><trkpt lat="37.0167203897136" lon="-1.9099316543888551"><ele>27.599999999999998</ele><time>2026-04-21T08:23:56Z</time></trkpt><trkpt lat="37.01670192606245" lon="-1.910043522514215"><ele>27.799999999999997</ele><time>2026-04-21T08:23:57Z</time></trkpt><trkpt lat="37.016701603266704" lon="-1.9101628839919989"><ele>28.0</ele><time>2026-04-21T08:23:58Z</time></trkpt><trkpt lat="37.016718311973385" lon="-1.9102880550063734"><ele>28.2</ele><time>2026-04-21T08:23:59Z</time></trkpt><trkpt lat="37.01674607858291" lon="-1.9104167813106105"><ele>28.4</ele><time>2026-04-21T08:24:00Z</time></trkpt><trkpt lat="37.0167773210983" lon="-1.9105424637476727"><ele>28.599999999999998</ele><time>2026-04-21T08:24:01Z</time></trkpt><trkpt lat="37.016805851029204" lon="-1.9106730057803818"><ele>28.799999999999997</ele><time>2026-04-21T08:24:02Z</time></trkpt><trkpt lat="37.01683207176443" lon="-1.910808294651211"><ele>29.0</ele><time>2026-04-21T08:24:03Z</time></trkpt><trkpt lat="37.01686528177893" lon="-1.910943035735494"><ele>29.25</ele><time>2026-04-21T08:24:04Z</time></trkpt><trkpt lat="37.016887170024425" lon="-1.9110830188174788"><ele>29.5</ele><time>2026-04-21T08:24:05Z</time></trkpt><trkpt lat="37.01688696624594" lon="-1.9112323495429422"><ele>29.75</ele><time>2026-04-21T08:24:06Z</time></trkpt><trkpt lat="37.016871850991905" lon="-1.9113890440230006"><ele>30.0</ele><time>2026-04-21T08:24:07Z</time></trkpt><trkpt lat="37.016853461070845" lon="-1.9115531850325742"><ele>30.0</ele><time>2026-04-21T08:24:08Z</time></trkpt><trkpt lat="37.016847826876166" lon="-1.911727088711473"><ele>30.0</ele><time>2026-04-21T08:24:09Z</time></trkpt><trkpt lat="37.01683959900795" lon="-1.911903213686729"><ele>30.0</ele><time>2026-04-21T08:24:10Z</time></trkpt><trkpt lat="37.01682304290491" lon="-1.9120806026557617"><ele>30.0</ele><time>2026-04-21T08:24:11Z</time></trkpt><trkpt lat="37.01680553619803" lon="-1.9122520439438457"><ele>30.0</ele><time>2026-04-21T08:24:12Z</time></trkpt><trkpt lat="37.01679256774785" lon="-1.9124160826985837"><ele>30.0</ele><time>2026-04-21T08:24:13Z</time></trkpt><trkpt lat="37.01677356751568" lon="-1.9125738196048876"><ele>30.0</ele><time>2026-04-21T08:24:14Z</time></trkpt><trkpt lat="37.016753861318584" lon="-1.9127244026725514"><ele>30.0</ele><time>2026-04-21T08:24:15Z</time></trkpt><trkpt lat="37.01674488550725" lon="-1.912864035975465"><ele>30.0</ele><time>2026-04-21T08:24:16Z</time></trkpt><trkpt lat="37.01674699970059" lon="-1.9130033996853832"><ele>30.0</ele><time>2026-04-21T08:24:17Z</time></trkpt><trkpt lat="37.01677208536746" lon="-1.9131464267665947"><ele>30.0</ele><time>2026-04-21T08:24:18Z</time></trkpt><trkpt lat="37.016817089652754" lon="-1.9132902994264736"><ele>30.0</ele><time>2026-04-21T08:24:19Z</time></trkpt><trkpt lat="37.01686807386364" lon="-1.9134244997160372"><ele>30.0</ele><time>2026-04-21T08:24:20Z</time></trkpt><trkpt lat="37.01691962247075" lon="-1.9135514526468405"><ele>30.0</ele><time>2026-04-21T08:24:21Z</time></trkpt><trkpt lat="37.01697789221746" lon="-1.913666300361713"><ele>30.0</ele><time>2026-04-21T08:24:22Z</time></trkpt><trkpt lat="37.0170300594147" lon="-1.9137762002004979"><ele>30.0</ele><time>2026-04-21T08:24:23Z</time></trkpt><trkpt lat="37.01706726475859" lon="-1.91389362851557"><ele>30.0</ele><time>2026-04-21T08:24:24Z</time></trkpt><trkpt lat="37.01708371361478" lon="-1.9140176339816992"><ele>30.0</ele><time>2026-04-21T08:24:25Z</time></trkpt><trkpt lat="37.01707486998247" lon="-1.9141369761824016"><ele>30.0</ele><time>2026-04-21T08:24:26Z</time></trkpt><trkpt lat="37.01708089750697" lon="-1.9142532568959674"><ele>30.0</ele><time>2026-04-21T08:24:27Z</time></trkpt><trkpt lat="37.01710186954367" lon="-1.9143694165048841"><ele>30.0</ele><time>2026-04-21T08:24:28Z</time></trkpt><trkpt lat="37.01712699926575" lon="-1.9144807074057357"><ele>30.0</ele><time>2026-04-21T08:24:29Z</time></trkpt><trkpt lat="37.017138807247164" lon="-1.9145864572972797"><ele>30.166666666666668</ele><time>2026-04-21T08:24:30Z</time></trkpt><trkpt lat="37.017134405128004" lon="-1.9146819224747222"><ele>30.333333333333336</ele><time>2026-04-21T08:24:31Z</time></trkpt><trkpt lat="37.01709884090614" lon="-1.9147690031670972"><ele>30.5</ele><time>2026-04-21T08:24:32Z</time></trkpt><trkpt lat="37.017051275918405" lon="-1.9148529885913506"><ele>30.666666666666668</ele><time>2026-04-21T08:24:33Z</time></trkpt><trkpt lat="37.01699296841506" lon="-1.9149336562964494"><ele>30.833333333333336</ele><time>2026-04-21T08:24:34Z</time></trkpt><trkpt lat="37.01693505767637" lon="-1.915014754433935"><ele>31.0</ele><time>2026-04-21T08:24:35Z</time></trkpt><trkpt lat="37.01688712115125" lon="-1.9151019882041034"><ele>31.166666666666668</ele><time>2026-04-21T08:24:36Z</time></trkpt><trkpt lat="37.016850825479615" lon="-1.9151948748853782"><ele>31.333333333333336</ele><time>2026-04-21T08:24:37Z</time></trkpt><trkpt lat="37.016831207169226" lon="-1.9153014639725894"><ele>31.5</ele><time>2026-04-21T08:24:38Z</time></trkpt><trkpt lat="37.01682716410023" lon="-1.9154146747019822"><ele>31.666666666666664</ele><time>2026-04-21T08:24:39Z</time></trkpt><trkpt lat="37.016828754009516" lon="-1.9155272243753394"><ele>31.833333333333332</ele><time>2026-04-21T08:24:40Z</time></trkpt><trkpt lat="37.01683017780692" lon="-1.915637788513739"><ele>32.0</ele><time>2026-04-21T08:24:41Z</time></trkpt><trkpt lat="37.0168335804592" lon="-1.9157495923547652"><ele>31.999999999999996</ele><time>2026-04-21T08:24:42Z</time></trkpt><trkpt lat="37.01683764612104" lon="-1.9158617521993022"><ele>32.0</ele><time>2026-04-21T08:24:43Z</time></trkpt><trkpt lat="37.01684479320676" lon="-1.915973940015241"><ele>32.0</ele><time>2026-04-21T08:24:44Z</time></trkpt><trkpt lat="37.01685106193335" lon="-1.9160862087739714"><ele>32.0</ele><time>2026-04-21T08:24:45Z</time></trkpt><trkpt lat="37.01685579552948" lon="-1.91619601478247"><ele>31.999999999999996</ele><time>2026-04-21T08:24:46Z</time></trkpt><trkpt lat="37.01686217500764" lon="-1.9163071235552218"><ele>32.0</ele><time>2026-04-21T08:24:47Z</time></trkpt><trkpt lat="37.01686184246365" lon="-1.916419539156433"><ele>32.0</ele><time>2026-04-21T08:24:48Z</time></trkpt><trkpt lat="37.0168698025434" lon="-1.9165303908145028"><ele>32.0</ele><time>2026-04-21T08:24:49Z</time></trkpt><trkpt lat="37.016873911728005" lon="-1.916647616495441"><ele>32.0</ele><time>2026-04-21T08:24:50Z</time></trkpt><trkpt lat="37.0168759832889" lon="-1.9167698960483905"><ele>32.0</ele><time>2026-04-21T08:24:51.004Z</time></trkpt><trkpt lat="37.016876732478416" lon="-1.9168983926292367"><ele>32.0</ele><time>2026-04-21T08:24:52.004Z</time></trkpt><trkpt lat="37.01687521976106" lon="-1.9170272790590843"><ele>32.4</ele><time>2026-04-21T08:24:53.004Z</time></trkpt><trkpt lat="37.016872703193435" lon="-1.9171563222373402"><ele>32.800000000000004</ele><time>2026-04-21T08:24:54.004Z</time></trkpt><trkpt lat="37.01686763718804" lon="-1.917287303154969"><ele>33.2</ele><time>2026-04-21T08:24:55.004Z</time></trkpt><trkpt lat="37.016859083949804" lon="-1.9174176558597962"><ele>33.6</ele><time>2026-04-21T08:24:56.004Z</time></trkpt><trkpt lat="37.01685152005584" lon="-1.9175561622027968"><ele>34.0</ele><time>2026-04-21T08:24:57.003Z</time></trkpt><trkpt lat="37.01684011792043" lon="-1.9176981442150922"><ele>34.2</ele><time>2026-04-21T08:24:58.003Z</time></trkpt><trkpt lat="37.01682314218081" lon="-1.91783014186342"><ele>34.4</ele><time>2026-04-21T08:24:59.003Z</time></trkpt><trkpt lat="37.0168058247496" lon="-1.9179490117010618"><ele>34.6</ele><time>2026-04-21T08:25:00.003Z</time></trkpt><trkpt lat="37.016786905476266" lon="-1.918066281871254"><ele>34.8</ele><time>2026-04-21T08:25:01.003Z</time></trkpt><trkpt lat="37.01677101088715" lon="-1.918196861029735"><ele>35.0</ele><time>2026-04-21T08:25:02.003Z</time></trkpt><trkpt lat="37.016750517542114" lon="-1.9183399055297283"><ele>35.0</ele><time>2026-04-21T08:25:03.003Z</time></trkpt><trkpt lat="37.01673174187404" lon="-1.9184893617415009"><ele>35.0</ele><time>2026-04-21T08:25:04.003Z</time></trkpt><trkpt lat="37.016725857412304" lon="-1.9186469514717808"><ele>35.0</ele><time>2026-04-21T08:25:05.002Z</time></trkpt><trkpt lat="37.016725274914975" lon="-1.9188041075822346"><ele>35.0</ele><time>2026-04-21T08:25:06.002Z</time></trkpt><trkpt lat="37.01672480932106" lon="-1.9189623742982889"><ele>35.0</ele><time>2026-04-21T08:25:07.002Z</time></trkpt><trkpt lat="37.016717493708235" lon="-1.919114416318541"><ele>35.0</ele><time>2026-04-21T08:25:08.002Z</time></trkpt><trkpt lat="37.01670129135701" lon="-1.9192652408484252"><ele>35.0</ele><time>2026-04-21T08:25:09.002Z</time></trkpt><trkpt lat="37.01668731016736" lon="-1.9194214248886292"><ele>35.0</ele><time>2026-04-21T08:25:10.002Z</time></trkpt><trkpt lat="37.01667968907225" lon="-1.9195777520764337"><ele>35.25</ele><time>2026-04-21T08:25:11.002Z</time></trkpt><trkpt lat="37.01667364450206" lon="-1.919741507110425"><ele>35.5</ele><time>2026-04-21T08:25:12.002Z</time></trkpt><trkpt lat="37.01667793938726" lon="-1.919910734609313"><ele>35.75</ele><time>2026-04-21T08:25:13.002Z</time></trkpt><trkpt lat="37.01668620048847" lon="-1.9200755202500934"><ele>36.0</ele><time>2026-04-21T08:25:14.002Z</time></trkpt><trkpt lat="37.01670591626414" lon="-1.920228071575856"><ele>36.0</ele><time>2026-04-21T08:25:15.002Z</time></trkpt><trkpt lat="37.0167364623193" lon="-1.9203700229609886"><ele>36.0</ele><time>2026-04-21T08:25:16.002Z</time></trkpt><trkpt lat="37.01677322172315" lon="-1.9205031079590977"><ele>36.0</ele><time>2026-04-21T08:25:17.002Z</time></trkpt><trkpt lat="37.01680918870608" lon="-1.920629981197383"><ele>36.0</ele><time>2026-04-21T08:25:18.002Z</time></trkpt><trkpt lat="37.016840246173096" lon="-1.9207533586572783"><ele>36.0</ele><time>2026-04-21T08:25:19.001Z</time></trkpt><trkpt lat="37.016863346829396" lon="-1.9208659943098223"><ele>36.333333333333336</ele><time>2026-04-21T08:25:20.001Z</time></trkpt><trkpt lat="37.0168590937692" lon="-1.9209705327008442"><ele>36.666666666666664</ele><time>2026-04-21T08:25:21.001Z</time></trkpt><trkpt lat="37.01684124029368" lon="-1.921059043366955"><ele>37.0</ele><time>2026-04-21T08:25:22.001Z</time></trkpt><trkpt lat="37.01678591756382" lon="-1.921179353535165"><ele>37.33333333333333</ele><time>2026-04-21T08:25:24.001Z</time></trkpt><trkpt lat="37.01671887550666" lon="-1.9212514426794385"><ele>37.666666666666664</ele><time>2026-04-21T08:25:26.001Z</time></trkpt><trkpt lat="37.016632972656154" lon="-1.9212508028718678"><ele>38.0</ele><time>2026-04-21T08:25:54Z</time></trkpt><trkpt lat="37.01650915701692" lon="-1.9212556005316241"><ele>38.14285714285714</ele><time>2026-04-21T08:25:56Z</time></trkpt><trkpt lat="37.01643475099902" lon="-1.9212606453654486"><ele>38.28571428571429</ele><time>2026-04-21T08:25:57Z</time></trkpt><trkpt lat="37.01635679704269" lon="-1.921272407311658"><ele>38.42857142857143</ele><time>2026-04-21T08:25:58Z</time></trkpt><trkpt lat="37.016282547425" lon="-1.921289606847673"><ele>38.57142857142857</ele><time>2026-04-21T08:25:59Z</time></trkpt><trkpt lat="37.01621232452107" lon="-1.9213111544425836"><ele>38.71428571428571</ele><time>2026-04-21T08:26:00Z</time></trkpt><trkpt lat="37.016145900854404" lon="-1.9213382800728445"><ele>38.85714285714286</ele><time>2026-04-21T08:26:01Z</time></trkpt><trkpt lat="37.01607999735923" lon="-1.9213617669957554"><ele>39.0</ele><time>2026-04-21T08:26:02Z</time></trkpt><trkpt lat="37.01597292909048" lon="-1.921396059691635"><ele>39.0</ele><time>2026-04-21T08:26:04Z</time></trkpt><trkpt lat="37.015899504529926" lon="-1.9214397220318036"><ele>39.0</ele><time>2026-04-21T08:26:06Z</time></trkpt><trkpt lat="37.01583536162274" lon="-1.9215044831562942"><ele>39.0</ele><time>2026-04-21T08:26:09Z</time></trkpt><trkpt lat="37.015769244843376" lon="-1.9215568710730968"><ele>39.0</ele><time>2026-04-21T08:26:17.999Z</time></trkpt><trkpt lat="37.01572185131819" lon="-1.9216495415433648"><ele>39.0</ele><time>2026-04-21T08:26:20.999Z</time></trkpt><trkpt lat="37.01571790399464" lon="-1.9217294322189458"><ele>39.0</ele><time>2026-04-21T08:26:22.999Z</time></trkpt><trkpt lat="37.01574829370647" lon="-1.921814498750016"><ele>38.8</ele><time>2026-04-21T08:26:24.999Z</time></trkpt><trkpt lat="37.01577206374836" lon="-1.921909619642308"><ele>38.599999999999994</ele><time>2026-04-21T08:26:26.999Z</time></trkpt><trkpt lat="37.01576600973957" lon="-1.9220152576714071"><ele>38.4</ele><time>2026-04-21T08:26:28.999Z</time></trkpt><trkpt lat="37.01571649528662" lon="-1.9221186416777833"><ele>38.199999999999996</ele><time>2026-04-21T08:26:30.999Z</time></trkpt><trkpt lat="37.0156410696919" lon="-1.9222533874175"><ele>38.0</ele><time>2026-04-21T08:26:32.999Z</time></trkpt><trkpt lat="37.015599117666284" lon="-1.922334464588831"><ele>38.0</ele><time>2026-04-21T08:26:33.999Z</time></trkpt><trkpt lat="37.01555611385999" lon="-1.922419148354681"><ele>38.0</ele><time>2026-04-21T08:26:34.999Z</time></trkpt><trkpt lat="37.015515962439395" lon="-1.9225050027072363"><ele>38.0</ele><time>2026-04-21T08:26:35.999Z</time></trkpt><trkpt lat="37.015474920990115" lon="-1.9225844305347755"><ele>38.0</ele><time>2026-04-21T08:26:36.999Z</time></trkpt><trkpt lat="37.01543480881901" lon="-1.9226656386366465"><ele>38.0</ele><time>2026-04-21T08:26:37.999Z</time></trkpt><trkpt lat="37.01538019438602" lon="-1.922736874932801"><ele>38.0</ele><time>2026-04-21T08:26:38.999Z</time></trkpt><trkpt lat="37.015315064424016" lon="-1.9228053480080018"><ele>38.199999999999996</ele><time>2026-04-21T08:26:39.999Z</time></trkpt><trkpt lat="37.015240836056144" lon="-1.9228620562141425"><ele>38.4</ele><time>2026-04-21T08:26:40.999Z</time></trkpt><trkpt lat="37.01516611343419" lon="-1.9229179872691804"><ele>38.599999999999994</ele><time>2026-04-21T08:26:41.999Z</time></trkpt><trkpt lat="37.01509081943811" lon="-1.9229837485989756"><ele>38.8</ele><time>2026-04-21T08:26:42.999Z</time></trkpt><trkpt lat="37.01501043888804" lon="-1.9230551605929445"><ele>39.0</ele><time>2026-04-21T08:26:43.999Z</time></trkpt><trkpt lat="37.014922262780715" lon="-1.9231264525409761"><ele>39.0</ele><time>2026-04-21T08:26:44.999Z</time></trkpt><trkpt lat="37.01482184232524" lon="-1.9231887966928563"><ele>39.0</ele><time>2026-04-21T08:26:45.999Z</time></trkpt><trkpt lat="37.01471584844013" lon="-1.9232471996846812"><ele>39.0</ele><time>2026-04-21T08:26:46.999Z</time></trkpt><trkpt lat="37.01460755837997" lon="-1.9233020871117659"><ele>39.0</ele><time>2026-04-21T08:26:47.999Z</time></trkpt><trkpt lat="37.0144969307654" lon="-1.923355585065745"><ele>39.75</ele><time>2026-04-21T08:26:48.999Z</time></trkpt><trkpt lat="37.01438527087092" lon="-1.923408882625408"><ele>40.5</ele><time>2026-04-21T08:26:49.999Z</time></trkpt><trkpt lat="37.014273460552005" lon="-1.9234631785059428"><ele>41.25</ele><time>2026-04-21T08:26:50.999Z</time></trkpt><trkpt lat="37.01416303664211" lon="-1.9235169224858868"><ele>42.0</ele><time>2026-04-21T08:26:51.999Z</time></trkpt><trkpt lat="37.01405419333877" lon="-1.9235701439067696"><ele>42.0</ele><time>2026-04-21T08:26:52.999Z</time></trkpt><trkpt lat="37.01394804104637" lon="-1.9236176289473115"><ele>42.0</ele><time>2026-04-21T08:26:53.999Z</time></trkpt><trkpt lat="37.01384611741811" lon="-1.9236667257765123"><ele>42.0</ele><time>2026-04-21T08:26:54.999Z</time></trkpt><trkpt lat="37.013740939770024" lon="-1.9237080008976375"><ele>42.0</ele><time>2026-04-21T08:26:55.999Z</time></trkpt><trkpt lat="37.013635038538766" lon="-1.9237462231012215"><ele>42.0</ele><time>2026-04-21T08:26:56.999Z</time></trkpt><trkpt lat="37.01352667551361" lon="-1.9237777665144995"><ele>42.0</ele><time>2026-04-21T08:26:57.999Z</time></trkpt><trkpt lat="37.01341589803899" lon="-1.9238150125995432"><ele>42.0</ele><time>2026-04-21T08:26:58.999Z</time></trkpt><trkpt lat="37.01330789825267" lon="-1.9238579855530558"><ele>42.0</ele><time>2026-04-21T08:26:59.999Z</time></trkpt><trkpt lat="37.01320238220771" lon="-1.9239058144622254"><ele>42.0</ele><time>2026-04-21T08:27:00.999Z</time></trkpt><trkpt lat="37.013095854865526" lon="-1.9239418723202146"><ele>42.0</ele><time>2026-04-21T08:27:01.999Z</time></trkpt><trkpt lat="37.01298844505635" lon="-1.9239677133617081"><ele>42.0</ele><time>2026-04-21T08:27:02.999Z</time></trkpt><trkpt lat="37.01287881144781" lon="-1.9239917380914653"><ele>42.0</ele><time>2026-04-21T08:27:03.999Z</time></trkpt><trkpt lat="37.01276901302176" lon="-1.9239952530850577"><ele>42.0</ele><time>2026-04-21T08:27:04.999Z</time></trkpt><trkpt lat="37.01266481514292" lon="-1.9239840333392115"><ele>42.0</ele><time>2026-04-21T08:27:05.999Z</time></trkpt><trkpt lat="37.012566210713885" lon="-1.9239741414506255"><ele>41.6</ele><time>2026-04-21T08:27:06.999Z</time></trkpt><trkpt lat="37.01247145235509" lon="-1.9239608805720527"><ele>41.2</ele><time>2026-04-21T08:27:07.999Z</time></trkpt><trkpt lat="37.01237430087925" lon="-1.923954763709168"><ele>40.8</ele><time>2026-04-21T08:27:08.999Z</time></trkpt><trkpt lat="37.012274613446735" lon="-1.923956094470864"><ele>40.4</ele><time>2026-04-21T08:27:09.999Z</time></trkpt><trkpt lat="37.012177778916765" lon="-1.9239664678920803"><ele>40.0</ele><time>2026-04-21T08:27:10.999Z</time></trkpt><trkpt lat="37.012091341653935" lon="-1.9239905920184264"><ele>40.0</ele><time>2026-04-21T08:27:11.999Z</time></trkpt><trkpt lat="37.01201172790159" lon="-1.9240121536298378"><ele>40.0</ele><time>2026-04-21T08:27:12.999Z</time></trkpt><trkpt lat="37.01193435190524" lon="-1.924014715665466"><ele>40.0</ele><time>2026-04-21T08:27:13.999Z</time></trkpt><trkpt lat="37.01185200875021" lon="-1.9240118734058798"><ele>40.0</ele><time>2026-04-21T08:27:14.999Z</time></trkpt><trkpt lat="37.01175884097732" lon="-1.924002509844084"><ele>40.0</ele><time>2026-04-21T08:27:15.999Z</time></trkpt><trkpt lat="37.011659152965315" lon="-1.9240072515619084"><ele>40.0</ele><time>2026-04-21T08:27:16.999Z</time></trkpt><trkpt lat="37.01155409609302" lon="-1.924011136311205"><ele>40.0</ele><time>2026-04-21T08:27:17.999Z</time></trkpt><trkpt lat="37.01144415639666" lon="-1.9240130046971926"><ele>40.0</ele><time>2026-04-21T08:27:18.999Z</time></trkpt><trkpt lat="37.01133112918341" lon="-1.9240096889354112"><ele>40.0</ele><time>2026-04-21T08:27:19.999Z</time></trkpt><trkpt lat="37.011221090198056" lon="-1.9240030160616088"><ele>40.0</ele><time>2026-04-21T08:27:20.999Z</time></trkpt><trkpt lat="37.01111575312363" lon="-1.9240093943489438"><ele>40.0</ele><time>2026-04-21T08:27:21.999Z</time></trkpt><trkpt lat="37.011019221266295" lon="-1.9240069127690074"><ele>40.0</ele><time>2026-04-21T08:27:22.999Z</time></trkpt><trkpt lat="37.010933450132846" lon="-1.9240009355556547"><ele>40.0</ele><time>2026-04-21T08:27:23.999Z</time></trkpt><trkpt lat="37.01085048012332" lon="-1.9239908648103823"><ele>40.0</ele><time>2026-04-21T08:27:24.999Z</time></trkpt><trkpt lat="37.01076951361311" lon="-1.9239717168934685"><ele>40.0</ele><time>2026-04-21T08:27:25.999Z</time></trkpt><trkpt lat="37.010689030662185" lon="-1.9239364656133757"><ele>40.0</ele><time>2026-04-21T08:27:26.999Z</time></trkpt><trkpt lat="37.01060647952048" lon="-1.923905234096414"><ele>40.0</ele><time>2026-04-21T08:27:27.999Z</time></trkpt><trkpt lat="37.010523652843524" lon="-1.9238642340812604"><ele>40.6</ele><time>2026-04-21T08:27:28.999Z</time></trkpt><trkpt lat="37.01043432203634" lon="-1.9238145526346133"><ele>41.2</ele><time>2026-04-21T08:27:29.999Z</time></trkpt><trkpt lat="37.01033930360363" lon="-1.9237745380519444"><ele>41.8</ele><time>2026-04-21T08:27:30.999Z</time></trkpt><trkpt lat="37.01024643553742" lon="-1.92373043520644"><ele>42.4</ele><time>2026-04-21T08:27:31.999Z</time></trkpt><trkpt lat="37.01015157397468" lon="-1.923691006378575"><ele>43.0</ele><time>2026-04-21T08:27:32.999Z</time></trkpt><trkpt lat="37.01005989998097" lon="-1.9236585066427936"><ele>43.2</ele><time>2026-04-21T08:27:33.999Z</time></trkpt><trkpt lat="37.009974428812924" lon="-1.9236257685935658"><ele>43.4</ele><time>2026-04-21T08:27:34.999Z</time></trkpt><trkpt lat="37.00988470778175" lon="-1.9235858167170408"><ele>43.6</ele><time>2026-04-21T08:27:35.999Z</time></trkpt><trkpt lat="37.009787597359754" lon="-1.9235371381130395"><ele>43.800000000000004</ele><time>2026-04-21T08:27:36.999Z</time></trkpt><trkpt lat="37.009688018634826" lon="-1.9234859287011101"><ele>44.0</ele><time>2026-04-21T08:27:37.999Z</time></trkpt><trkpt lat="37.009595541789416" lon="-1.92343427299711"><ele>43.83333333333333</ele><time>2026-04-21T08:27:38.999Z</time></trkpt><trkpt lat="37.00951338017697" lon="-1.9233834888495673"><ele>43.666666666666664</ele><time>2026-04-21T08:27:39.999Z</time></trkpt><trkpt lat="37.00943552944789" lon="-1.9233315916494313"><ele>43.5</ele><time>2026-04-21T08:27:40.999Z</time></trkpt><trkpt lat="37.009359661341186" lon="-1.923282603050709"><ele>43.333333333333336</ele><time>2026-04-21T08:27:41.999Z</time></trkpt><trkpt lat="37.00929750200128" lon="-1.9232434962682878"><ele>43.16666666666667</ele><time>2026-04-21T08:27:42.999Z</time></trkpt><trkpt lat="37.00921836217351" lon="-1.9231917625051898"><ele>43.0</ele><time>2026-04-21T08:27:44.999Z</time></trkpt><trkpt lat="37.00914849952757" lon="-1.9231330026705797"><ele>43.599999999999994</ele><time>2026-04-21T08:27:47.999Z</time></trkpt><trkpt lat="37.009109511413854" lon="-1.923046988998885"><ele>44.199999999999996</ele><time>2026-04-21T08:27:50.999Z</time></trkpt><trkpt lat="37.00903090127509" lon="-1.9230177747262232"><ele>44.8</ele><time>2026-04-21T08:27:52.999Z</time></trkpt><trkpt lat="37.008921913910896" lon="-1.92302346592249"><ele>45.4</ele><time>2026-04-21T08:27:54.999Z</time></trkpt><trkpt lat="37.00883235919699" lon="-1.923052050488385"><ele>46.0</ele><time>2026-04-21T08:27:56.999Z</time></trkpt><trkpt lat="37.00874558142562" lon="-1.9230626914927877"><ele>46.0</ele><time>2026-04-21T08:27:58.999Z</time></trkpt><trkpt lat="37.00866796079224" lon="-1.922998887655309"><ele>46.0</ele><time>2026-04-21T08:28:00.999Z</time></trkpt><trkpt lat="37.008576491199385" lon="-1.9228924498239013"><ele>46.0</ele><time>2026-04-21T08:28:02.999Z</time></trkpt><trkpt lat="37.00851754340786" lon="-1.9228376791187711"><ele>46.0</ele><time>2026-04-21T08:28:03.999Z</time></trkpt><trkpt lat="37.008457693450445" lon="-1.922782007348656"><ele>46.0</ele><time>2026-04-21T08:28:04.999Z</time></trkpt><trkpt lat="37.008390692676684" lon="-1.9227310497822006"><ele>46.0</ele><time>2026-04-21T08:28:05.999Z</time></trkpt><trkpt lat="37.008321085025685" lon="-1.922687182021167"><ele>46.0</ele><time>2026-04-21T08:28:06.999Z</time></trkpt><trkpt lat="37.008259298982765" lon="-1.922639843212572"><ele>46.0</ele><time>2026-04-21T08:28:07.999Z</time></trkpt><trkpt lat="37.00818986637591" lon="-1.9226210299700561"><ele>46.0</ele><time>2026-04-21T08:28:08.999Z</time></trkpt><trkpt lat="37.008117377686865" lon="-1.9226278681026971"><ele>46.0</ele><time>2026-04-21T08:28:09.999Z</time></trkpt><trkpt lat="37.008046154798166" lon="-1.9226535444775426"><ele>46.0</ele><time>2026-04-21T08:28:10.999Z</time></trkpt><trkpt lat="37.00797177089895" lon="-1.922682236774026"><ele>46.0</ele><time>2026-04-21T08:28:11.999Z</time></trkpt><trkpt lat="37.00789493978028" lon="-1.922720739401068"><ele>46.0</ele><time>2026-04-21T08:28:12.999Z</time></trkpt><trkpt lat="37.007822228548775" lon="-1.9227739238015111"><ele>46.0</ele><time>2026-04-21T08:28:13.999Z</time></trkpt><trkpt lat="37.00775729139612" lon="-1.9228417033378546"><ele>46.0</ele><time>2026-04-21T08:28:14.999Z</time></trkpt><trkpt lat="37.00769602077817" lon="-1.9229169512792028"><ele>46.0</ele><time>2026-04-21T08:28:15.999Z</time></trkpt><trkpt lat="37.00763135512749" lon="-1.9229928900648496"><ele>46.0</ele><time>2026-04-21T08:28:16.999Z</time></trkpt><trkpt lat="37.00756619600252" lon="-1.9230639600689179"><ele>46.0</ele><time>2026-04-21T08:28:17.999Z</time></trkpt><trkpt lat="37.00749792754863" lon="-1.9231321413919413"><ele>46.599999999999994</ele><time>2026-04-21T08:28:18.999Z</time></trkpt><trkpt lat="37.00743838387778" lon="-1.9232136855929884"><ele>47.2</ele><time>2026-04-21T08:28:19.999Z</time></trkpt><trkpt lat="37.00738557915151" lon="-1.9233095298417395"><ele>47.8</ele><time>2026-04-21T08:28:20.999Z</time></trkpt><trkpt lat="37.0073455017119" lon="-1.923418590630978"><ele>48.400000000000006</ele><time>2026-04-21T08:28:21.999Z</time></trkpt><trkpt lat="37.00731478469613" lon="-1.9235307547830103"><ele>49.0</ele><time>2026-04-21T08:28:22.999Z</time></trkpt><trkpt lat="37.00728439643391" lon="-1.9236447313542284"><ele>49.0</ele><time>2026-04-21T08:28:23.999Z</time></trkpt><trkpt lat="37.00725367195306" lon="-1.9237578243927962"><ele>49.0</ele><time>2026-04-21T08:28:24.999Z</time></trkpt><trkpt lat="37.00722225178781" lon="-1.923873511843171"><ele>49.0</ele><time>2026-04-21T08:28:25.999Z</time></trkpt><trkpt lat="37.007192850490455" lon="-1.9239927799283691"><ele>49.0</ele><time>2026-04-21T08:28:26.999Z</time></trkpt><trkpt lat="37.00716492640809" lon="-1.9241173491594523"><ele>49.0</ele><time>2026-04-21T08:28:27.999Z</time></trkpt><trkpt lat="37.007141478560776" lon="-1.9242482865987698"><ele>49.0</ele><time>2026-04-21T08:28:28.999Z</time></trkpt><trkpt lat="37.007117473041" lon="-1.9243783419978298"><ele>49.0</ele><time>2026-04-21T08:28:29.999Z</time></trkpt><trkpt lat="37.00708555506683" lon="-1.9245035663763612"><ele>49.0</ele><time>2026-04-21T08:28:30.999Z</time></trkpt><trkpt lat="37.007049379588686" lon="-1.9246308924077655"><ele>49.0</ele><time>2026-04-21T08:28:31.999Z</time></trkpt><trkpt lat="37.00702054794083" lon="-1.9247567362392861"><ele>49.0</ele><time>2026-04-21T08:28:32.999Z</time></trkpt><trkpt lat="37.0069944074358" lon="-1.9248804749363562"><ele>49.0</ele><time>2026-04-21T08:28:33.999Z</time></trkpt><trkpt lat="37.006979327172864" lon="-1.925004556770056"><ele>49.0</ele><time>2026-04-21T08:28:34.999Z</time></trkpt><trkpt lat="37.006967564998874" lon="-1.9251289277272379"><ele>49.0</ele><time>2026-04-21T08:28:35.999Z</time></trkpt><trkpt lat="37.0069528273303" lon="-1.925250097246578"><ele>49.0</ele><time>2026-04-21T08:28:36.999Z</time></trkpt><trkpt lat="37.00694029917468" lon="-1.9253744427282304"><ele>49.0</ele><time>2026-04-21T08:28:37.999Z</time></trkpt><trkpt lat="37.00692643175746" lon="-1.9255022767749863"><ele>48.800000000000004</ele><time>2026-04-21T08:28:38.999Z</time></trkpt><trkpt lat="37.00691613130931" lon="-1.9256337009046778"><ele>48.6</ele><time>2026-04-21T08:28:39.999Z</time></trkpt><trkpt lat="37.006905476669466" lon="-1.9257629324337455"><ele>48.4</ele><time>2026-04-21T08:28:40.999Z</time></trkpt><trkpt lat="37.006892629517374" lon="-1.9258921291122064"><ele>48.2</ele><time>2026-04-21T08:28:41.999Z</time></trkpt><trkpt lat="37.00687887225256" lon="-1.9260246547541549"><ele>48.0</ele><time>2026-04-21T08:28:42.999Z</time></trkpt><trkpt lat="37.006875656197295" lon="-1.926159769343917"><ele>48.0</ele><time>2026-04-21T08:28:43.999Z</time></trkpt><trkpt lat="37.00687185096096" lon="-1.9262992433608666"><ele>48.0</ele><time>2026-04-21T08:28:44.999Z</time></trkpt><trkpt lat="37.006863545382174" lon="-1.9264348060866043"><ele>48.0</ele><time>2026-04-21T08:28:45.999Z</time></trkpt><trkpt lat="37.006849776357036" lon="-1.9265622965006717"><ele>48.0</ele><time>2026-04-21T08:28:46.999Z</time></trkpt><trkpt lat="37.006836654245355" lon="-1.9266906358895703"><ele>48.0</ele><time>2026-04-21T08:28:47.998Z</time></trkpt><trkpt lat="37.006827346530336" lon="-1.9268204554775972"><ele>48.0</ele><time>2026-04-21T08:28:48.998Z</time></trkpt><trkpt lat="37.006815106795464" lon="-1.9269561934466464"><ele>48.0</ele><time>2026-04-21T08:28:49.998Z</time></trkpt><trkpt lat="37.00680650688726" lon="-1.9270948751441774"><ele>48.0</ele><time>2026-04-21T08:28:50.998Z</time></trkpt><trkpt lat="37.00679824169664" lon="-1.9272257078562833"><ele>48.0</ele><time>2026-04-21T08:28:51.998Z</time></trkpt><trkpt lat="37.00679273312189" lon="-1.9273492117280835"><ele>48.0</ele><time>2026-04-21T08:28:52.998Z</time></trkpt><trkpt lat="37.00678255724538" lon="-1.927461719915689"><ele>48.166666666666664</ele><time>2026-04-21T08:28:53.998Z</time></trkpt><trkpt lat="37.006773050383124" lon="-1.9275647321942868"><ele>48.33333333333333</ele><time>2026-04-21T08:28:54.998Z</time></trkpt><trkpt lat="37.00676348809086" lon="-1.9276509725068605"><ele>48.5</ele><time>2026-04-21T08:28:55.998Z</time></trkpt><trkpt lat="37.00675609104039" lon="-1.9277309178522717"><ele>48.666666666666664</ele><time>2026-04-21T08:28:56.998Z</time></trkpt><trkpt lat="37.0067388825707" lon="-1.9278467752088198"><ele>48.83333333333333</ele><time>2026-04-21T08:28:58.998Z</time></trkpt><trkpt lat="37.0067285575934" lon="-1.927933086032645"><ele>49.0</ele><time>2026-04-21T08:29:01.998Z</time></trkpt><trkpt lat="37.006674663461325" lon="-1.9280157310879016"><ele>49.49999999999999</ele><time>2026-04-21T08:29:10.998Z</time></trkpt><trkpt lat="37.00658028848583" lon="-1.928036419782213"><ele>50.0</ele><time>2026-04-21T08:29:12.998Z</time></trkpt><trkpt lat="37.00645749061763" lon="-1.928043182559591"><ele>50.5</ele><time>2026-04-21T08:29:14.998Z</time></trkpt><trkpt lat="37.006386260011745" lon="-1.9280279330600212"><ele>51.0</ele><time>2026-04-21T08:29:15.998Z</time></trkpt><trkpt lat="37.006313527498676" lon="-1.9280097702334094"><ele>51.49999999999999</ele><time>2026-04-21T08:29:16.998Z</time></trkpt><trkpt lat="37.006239997628796" lon="-1.9279862424667529"><ele>52.0</ele><time>2026-04-21T08:29:17.998Z</time></trkpt><trkpt lat="37.0061717160061" lon="-1.9279496849865347"><ele>51.99999999999999</ele><time>2026-04-21T08:29:18.998Z</time></trkpt><trkpt lat="37.00610987231366" lon="-1.9279053295529822"><ele>52.0</ele><time>2026-04-21T08:29:19.998Z</time></trkpt><trkpt lat="37.00605772857396" lon="-1.927834860496109"><ele>52.0</ele><time>2026-04-21T08:29:20.998Z</time></trkpt><trkpt lat="37.00601441298481" lon="-1.9277437361491085"><ele>52.0</ele><time>2026-04-21T08:29:21.998Z</time></trkpt><trkpt lat="37.00597276017911" lon="-1.9276362369026716"><ele>51.99999999999999</ele><time>2026-04-21T08:29:22.998Z</time></trkpt><trkpt lat="37.0059303554175" lon="-1.9275318599974895"><ele>52.0</ele><time>2026-04-21T08:29:23.998Z</time></trkpt><trkpt lat="37.005887577114095" lon="-1.9274351062748796"><ele>52.166666666666664</ele><time>2026-04-21T08:29:24.998Z</time></trkpt><trkpt lat="37.005849031558306" lon="-1.9273545812605763"><ele>52.33333333333333</ele><time>2026-04-21T08:29:25.998Z</time></trkpt><trkpt lat="37.005762389816255" lon="-1.9272590387162212"><ele>52.5</ele><time>2026-04-21T08:29:27.998Z</time></trkpt><trkpt lat="37.005703176215135" lon="-1.9272253918009048"><ele>52.66666666666667</ele><time>2026-04-21T08:29:28.998Z</time></trkpt><trkpt lat="37.005642190606814" lon="-1.9272040575783886"><ele>52.833333333333336</ele><time>2026-04-21T08:29:29.998Z</time></trkpt><trkpt lat="37.00557729180315" lon="-1.9271862487070786"><ele>53.0</ele><time>2026-04-21T08:29:30.998Z</time></trkpt><trkpt lat="37.0055059463152" lon="-1.9271690487245614"><ele>53.00000000000001</ele><time>2026-04-21T08:29:31.998Z</time></trkpt><trkpt lat="37.00544122745703" lon="-1.9271414288459765"><ele>53.0</ele><time>2026-04-21T08:29:32.998Z</time></trkpt><trkpt lat="37.00535985672323" lon="-1.927111626414693"><ele>53.0</ele><time>2026-04-21T08:29:34.998Z</time></trkpt><trkpt lat="37.005278263467495" lon="-1.9270913668230596"><ele>53.0</ele><time>2026-04-21T08:29:36.998Z</time></trkpt><trkpt lat="37.00524381551479" lon="-1.9271945826681216"><ele>53.00000000000001</ele><time>2026-04-21T08:29:38.998Z</time></trkpt><trkpt lat="37.00524322441406" lon="-1.9272911425611385"><ele>53.0</ele><time>2026-04-21T08:29:39.998Z</time></trkpt><trkpt lat="37.00524229168829" lon="-1.9274165969474675"><ele>53.0</ele><time>2026-04-21T08:29:40.998Z</time></trkpt><trkpt lat="37.00524029064733" lon="-1.9275462188118093"><ele>53.0</ele><time>2026-04-21T08:29:41.998Z</time></trkpt><trkpt lat="37.005224762232814" lon="-1.9276715821651755"><ele>53.0</ele><time>2026-04-21T08:29:42.998Z</time></trkpt><trkpt lat="37.00520470040094" lon="-1.9278097034595605"><ele>53.0</ele><time>2026-04-21T08:29:43.998Z</time></trkpt><trkpt lat="37.0051862053727" lon="-1.9279462768266318"><ele>53.0</ele><time>2026-04-21T08:29:44.998Z</time></trkpt><trkpt lat="37.0051598125322" lon="-1.928090721907885"><ele>53.75</ele><time>2026-04-21T08:29:45.998Z</time></trkpt><trkpt lat="37.005134534558685" lon="-1.928232966425001"><ele>54.5</ele><time>2026-04-21T08:29:46.998Z</time></trkpt><trkpt lat="37.00510509464823" lon="-1.9283703796585407"><ele>55.25</ele><time>2026-04-21T08:29:47.998Z</time></trkpt><trkpt lat="37.005054952749596" lon="-1.9284999751282914"><ele>56.0</ele><time>2026-04-21T08:29:48.998Z</time></trkpt><trkpt lat="37.00500544651121" lon="-1.9286277233370472"><ele>56.25</ele><time>2026-04-21T08:29:49.998Z</time></trkpt><trkpt lat="37.004961488392276" lon="-1.9287682612292705"><ele>56.5</ele><time>2026-04-21T08:29:50.998Z</time></trkpt><trkpt lat="37.004919288324906" lon="-1.9289289599217305"><ele>56.75</ele><time>2026-04-21T08:29:51.998Z</time></trkpt><trkpt lat="37.004864699644756" lon="-1.92909169213026"><ele>57.0</ele><time>2026-04-21T08:29:52.998Z</time></trkpt><trkpt lat="37.00480535735705" lon="-1.9292591612957137"><ele>57.5</ele><time>2026-04-21T08:29:53.998Z</time></trkpt><trkpt lat="37.004733171791024" lon="-1.9294133611127484"><ele>58.0</ele><time>2026-04-21T08:29:54.998Z</time></trkpt><trkpt lat="37.00466498784954" lon="-1.929560994157088"><ele>58.5</ele><time>2026-04-21T08:29:55.998Z</time></trkpt><trkpt lat="37.00460228683047" lon="-1.9297075160074362"><ele>59.0</ele><time>2026-04-21T08:29:56.998Z</time></trkpt><trkpt lat="37.0045391083463" lon="-1.92985234114645"><ele>59.0</ele><time>2026-04-21T08:29:57.998Z</time></trkpt><trkpt lat="37.00447158042848" lon="-1.9299983298834404"><ele>59.0</ele><time>2026-04-21T08:29:58.998Z</time></trkpt><trkpt lat="37.00440760862255" lon="-1.9301485073396187"><ele>59.0</ele><time>2026-04-21T08:29:59.998Z</time></trkpt><trkpt lat="37.00435439694365" lon="-1.9303055702960823"><ele>59.0</ele><time>2026-04-21T08:30:00.998Z</time></trkpt><trkpt lat="37.00430612429724" lon="-1.9304606864934295"><ele>59.25</ele><time>2026-04-21T08:30:01.998Z</time></trkpt><trkpt lat="37.004259324967556" lon="-1.9306067216610647"><ele>59.5</ele><time>2026-04-21T08:30:02.998Z</time></trkpt><trkpt lat="37.00421859467993" lon="-1.930745438260207"><ele>59.75</ele><time>2026-04-21T08:30:03.998Z</time></trkpt><trkpt lat="37.00417270603822" lon="-1.9308671404652005"><ele>60.0</ele><time>2026-04-21T08:30:04.998Z</time></trkpt><trkpt lat="37.00411276974196" lon="-1.9309757841227853"><ele>60.75</ele><time>2026-04-21T08:30:05.998Z</time></trkpt><trkpt lat="37.004040165487574" lon="-1.9310758278111395"><ele>61.5</ele><time>2026-04-21T08:30:06.998Z</time></trkpt><trkpt lat="37.003953960915204" lon="-1.9311707154445992"><ele>62.25</ele><time>2026-04-21T08:30:07.998Z</time></trkpt><trkpt lat="37.003846853811595" lon="-1.9312425929532302"><ele>63.0</ele><time>2026-04-21T08:30:08.998Z</time></trkpt><trkpt lat="37.003736357525305" lon="-1.931305310500095"><ele>63.0</ele><time>2026-04-21T08:30:09.998Z</time></trkpt><trkpt lat="37.00362155516639" lon="-1.9313654232224757"><ele>63.0</ele><time>2026-04-21T08:30:10.998Z</time></trkpt><trkpt lat="37.003510336377936" lon="-1.9314500677436288"><ele>63.0</ele><time>2026-04-21T08:30:11.998Z</time></trkpt><trkpt lat="37.00341132516451" lon="-1.931572603578825"><ele>63.0</ele><time>2026-04-21T08:30:12.998Z</time></trkpt><trkpt lat="37.00330996290621" lon="-1.9317023898467969"><ele>63.66666666666667</ele><time>2026-04-21T08:30:13.998Z</time></trkpt><trkpt lat="37.003206063103285" lon="-1.931839271663316"><ele>64.33333333333334</ele><time>2026-04-21T08:30:14.998Z</time></trkpt><trkpt lat="37.0031052307947" lon="-1.9319840868738283"><ele>65.0</ele><time>2026-04-21T08:30:15.998Z</time></trkpt><trkpt lat="37.00299661159984" lon="-1.9321277859665185"><ele>65.0</ele><time>2026-04-21T08:30:16.998Z</time></trkpt><trkpt lat="37.0028855152058" lon="-1.9322801819169497"><ele>65.0</ele><time>2026-04-21T08:30:17.998Z</time></trkpt><trkpt lat="37.002766311950076" lon="-1.9324144944444621"><ele>65.0</ele><time>2026-04-21T08:30:18.998Z</time></trkpt><trkpt lat="37.00264322556657" lon="-1.932548752312535"><ele>65.66666666666667</ele><time>2026-04-21T08:30:19.998Z</time></trkpt><trkpt lat="37.0025165767756" lon="-1.9326813299161907"><ele>66.33333333333333</ele><time>2026-04-21T08:30:20.998Z</time></trkpt><trkpt lat="37.00239896424893" lon="-1.9328062866142082"><ele>67.0</ele><time>2026-04-21T08:30:21.998Z</time></trkpt><trkpt lat="37.0022925001501" lon="-1.932912853312813"><ele>67.6</ele><time>2026-04-21T08:30:22.998Z</time></trkpt><trkpt lat="37.00219939227292" lon="-1.9330225098946374"><ele>68.2</ele><time>2026-04-21T08:30:23.998Z</time></trkpt><trkpt lat="37.002108473080845" lon="-1.9331160091048953"><ele>68.8</ele><time>2026-04-21T08:30:24.998Z</time></trkpt><trkpt lat="37.002021330090464" lon="-1.9331756110875025"><ele>69.4</ele><time>2026-04-21T08:30:25.998Z</time></trkpt><trkpt lat="37.00195451957786" lon="-1.933239163774789"><ele>70.0</ele><time>2026-04-21T08:30:26.998Z</time></trkpt><trkpt lat="37.00189190025862" lon="-1.9332841193054844"><ele>70.0</ele><time>2026-04-21T08:30:27.998Z</time></trkpt><trkpt lat="37.00182891029647" lon="-1.9333316429024165"><ele>70.0</ele><time>2026-04-21T08:30:28.998Z</time></trkpt><trkpt lat="37.00177992609398" lon="-1.933404868907806"><ele>70.0</ele><time>2026-04-21T08:30:29.998Z</time></trkpt><trkpt lat="37.00172266309071" lon="-1.9334956319867285"><ele>70.0</ele><time>2026-04-21T08:30:30.998Z</time></trkpt><trkpt lat="37.00167293779393" lon="-1.9335943689820108"><ele>70.0</ele><time>2026-04-21T08:30:31.998Z</time></trkpt><trkpt lat="37.00161654748193" lon="-1.9336935194651657"><ele>70.0</ele><time>2026-04-21T08:30:32.998Z</time></trkpt><trkpt lat="37.00155836553105" lon="-1.9337861798015175"><ele>71.0</ele><time>2026-04-21T08:30:33.998Z</time></trkpt><trkpt lat="37.0014938906105" lon="-1.933872747560281"><ele>72.0</ele><time>2026-04-21T08:30:34.998Z</time></trkpt><trkpt lat="37.00144417377276" lon="-1.9339721514493773"><ele>73.0</ele><time>2026-04-21T08:30:35.998Z</time></trkpt><trkpt lat="37.00138093438038" lon="-1.9340924371945951"><ele>74.0</ele><time>2026-04-21T08:30:36.998Z</time></trkpt><trkpt lat="37.00131721678321" lon="-1.934207222747749"><ele>75.0</ele><time>2026-04-21T08:30:37.998Z</time></trkpt><trkpt lat="37.00125687261699" lon="-1.9343100825478332"><ele>75.8</ele><time>2026-04-21T08:30:38.998Z</time></trkpt><trkpt lat="37.00119688686445" lon="-1.9344216836299513"><ele>76.6</ele><time>2026-04-21T08:30:39.998Z</time></trkpt><trkpt lat="37.001115914769294" lon="-1.9345176978987229"><ele>77.4</ele><time>2026-04-21T08:30:40.998Z</time></trkpt><trkpt lat="37.00103258386792" lon="-1.934574683944404"><ele>78.2</ele><time>2026-04-21T08:30:41.998Z</time></trkpt><trkpt lat="37.000955273664076" lon="-1.9346333275396816"><ele>79.0</ele><time>2026-04-21T08:30:42.998Z</time></trkpt><trkpt lat="37.000885553885894" lon="-1.9346766718205357"><ele>79.0</ele><time>2026-04-21T08:30:43.998Z</time></trkpt><trkpt lat="37.000828033916505" lon="-1.934726731500089"><ele>79.0</ele><time>2026-04-21T08:30:44.998Z</time></trkpt><trkpt lat="37.000723406634464" lon="-1.9347961479681801"><ele>79.0</ele><time>2026-04-21T08:30:46.998Z</time></trkpt><trkpt lat="37.00063192336462" lon="-1.9348938945097878"><ele>79.0</ele><time>2026-04-21T08:30:48.998Z</time></trkpt><trkpt lat="37.0006060116013" lon="-1.934976694809097"><ele>79.0</ele><time>2026-04-21T08:30:49.998Z</time></trkpt><trkpt lat="37.000565163337896" lon="-1.9350904146791588"><ele>79.6</ele><time>2026-04-21T08:30:50.998Z</time></trkpt><trkpt lat="37.00051798358255" lon="-1.9352127161752208"><ele>80.2</ele><time>2026-04-21T08:30:51.998Z</time></trkpt><trkpt lat="37.00047307118457" lon="-1.935336581161991"><ele>80.8</ele><time>2026-04-21T08:30:52.998Z</time></trkpt><trkpt lat="37.00041026891845" lon="-1.9354546527411352"><ele>81.39999999999999</ele><time>2026-04-21T08:30:53.998Z</time></trkpt><trkpt lat="37.00036124769616" lon="-1.9355638558633372"><ele>82.0</ele><time>2026-04-21T08:30:54.998Z</time></trkpt><trkpt lat="37.00030619601815" lon="-1.9356492076075267"><ele>82.0</ele><time>2026-04-21T08:30:55.998Z</time></trkpt><trkpt lat="37.00029048168342" lon="-1.9357536210354107"><ele>82.0</ele><time>2026-04-21T08:30:56.998Z</time></trkpt><trkpt lat="37.00028402764081" lon="-1.9358696773682886"><ele>82.0</ele><time>2026-04-21T08:30:57.998Z</time></trkpt><trkpt lat="37.000257748605485" lon="-1.935995209615971"><ele>82.0</ele><time>2026-04-21T08:30:58.998Z</time></trkpt><trkpt lat="37.000231037578466" lon="-1.9361185717257818"><ele>82.0</ele><time>2026-04-21T08:30:59.998Z</time></trkpt><trkpt lat="37.000190986912834" lon="-1.936230874884067"><ele>82.66666666666666</ele><time>2026-04-21T08:31:00.998Z</time></trkpt><trkpt lat="37.00016303446756" lon="-1.9363370569544358"><ele>83.33333333333333</ele><time>2026-04-21T08:31:01.998Z</time></trkpt><trkpt lat="37.000128426694566" lon="-1.9364361670127759"><ele>84.0</ele><time>2026-04-21T08:31:02.998Z</time></trkpt><trkpt lat="37.000106010691596" lon="-1.9365640865104068"><ele>84.66666666666667</ele><time>2026-04-21T08:31:03.998Z</time></trkpt><trkpt lat="37.00009342207486" lon="-1.9366744663556987"><ele>85.33333333333334</ele><time>2026-04-21T08:31:04.998Z</time></trkpt><trkpt lat="37.00006765925398" lon="-1.9367581306367891"><ele>86.0</ele><time>2026-04-21T08:31:05.998Z</time></trkpt><trkpt lat="37.00004740968061" lon="-1.9368436336423251"><ele>86.0</ele><time>2026-04-21T08:31:06.998Z</time></trkpt><trkpt lat="37.00003591707988" lon="-1.9369473092266594"><ele>86.0</ele><time>2026-04-21T08:31:07.998Z</time></trkpt><trkpt lat="37.00001555991082" lon="-1.937069783244136"><ele>86.0</ele><time>2026-04-21T08:31:08.998Z</time></trkpt><trkpt lat="37.000016422936795" lon="-1.937206805742313"><ele>86.0</ele><time>2026-04-21T08:31:09.998Z</time></trkpt><trkpt lat="37.000006163070246" lon="-1.937342701980355"><ele>86.0</ele><time>2026-04-21T08:31:10.998Z</time></trkpt><trkpt lat="36.999973475015786" lon="-1.9374511443506113"><ele>86.0</ele><time>2026-04-21T08:31:11.998Z</time></trkpt><trkpt lat="36.99995015492639" lon="-1.937546263557674"><ele>86.0</ele><time>2026-04-21T08:31:12.998Z</time></trkpt><trkpt lat="36.999919348684564" lon="-1.9376316799831708"><ele>86.0</ele><time>2026-04-21T08:31:13.998Z</time></trkpt><trkpt lat="36.999887136613744" lon="-1.9377112969593302"><ele>86.0</ele><time>2026-04-21T08:31:14.998Z</time></trkpt><trkpt lat="36.999850919845144" lon="-1.9378035472182946"><ele>86.0</ele><time>2026-04-21T08:31:15.998Z</time></trkpt><trkpt lat="36.9997849009276" lon="-1.937877064889829"><ele>86.0</ele><time>2026-04-21T08:31:16.998Z</time></trkpt><trkpt lat="36.9997310058348" lon="-1.9379652459171137"><ele>86.8</ele><time>2026-04-21T08:31:17.998Z</time></trkpt><trkpt lat="36.99966686819384" lon="-1.9380537480946618"><ele>87.6</ele><time>2026-04-21T08:31:18.998Z</time></trkpt><trkpt lat="36.99958833885174" lon="-1.9381325908036902"><ele>88.4</ele><time>2026-04-21T08:31:19.998Z</time></trkpt><trkpt lat="36.99950115802712" lon="-1.9382168821516221"><ele>89.2</ele><time>2026-04-21T08:31:20.997Z</time></trkpt><trkpt lat="36.999402772039744" lon="-1.9382627550284879"><ele>90.0</ele><time>2026-04-21T08:31:21.997Z</time></trkpt><trkpt lat="36.99931575913992" lon="-1.938340132759444"><ele>92.2</ele><time>2026-04-21T08:31:22.997Z</time></trkpt><trkpt lat="36.999208642766185" lon="-1.938407262057305"><ele>94.4</ele><time>2026-04-21T08:31:23.997Z</time></trkpt><trkpt lat="36.99913394460025" lon="-1.9385040795201514"><ele>96.6</ele><time>2026-04-21T08:31:24.997Z</time></trkpt><trkpt lat="36.99906251800193" lon="-1.9385943526661318"><ele>98.8</ele><time>2026-04-21T08:31:25.997Z</time></trkpt><trkpt lat="36.998999290996856" lon="-1.938699721133345"><ele>101.0</ele><time>2026-04-21T08:31:26.997Z</time></trkpt><trkpt lat="36.99891907525156" lon="-1.938783861025634"><ele>101.19999999999999</ele><time>2026-04-21T08:31:27.997Z</time></trkpt><trkpt lat="36.99883605930327" lon="-1.9388499265312198"><ele>101.39999999999999</ele><time>2026-04-21T08:31:28.997Z</time></trkpt><trkpt lat="36.99877490900448" lon="-1.9389427816427334"><ele>101.6</ele><time>2026-04-21T08:31:29.997Z</time></trkpt><trkpt lat="36.998703736988205" lon="-1.9390144207157658"><ele>101.8</ele><time>2026-04-21T08:31:30.997Z</time></trkpt><trkpt lat="36.9986262910692" lon="-1.9390996182270936"><ele>102.0</ele><time>2026-04-21T08:31:31.997Z</time></trkpt><trkpt lat="36.998545557169976" lon="-1.9391831535530244"><ele>103.39999999999999</ele><time>2026-04-21T08:31:32.997Z</time></trkpt><trkpt lat="36.99846795214983" lon="-1.9392651656240865"><ele>104.8</ele><time>2026-04-21T08:31:33.997Z</time></trkpt><trkpt lat="36.998376436920395" lon="-1.9393234717217367"><ele>106.2</ele><time>2026-04-21T08:31:34.997Z</time></trkpt><trkpt lat="36.99828477679061" lon="-1.9393985262887556"><ele>107.6</ele><time>2026-04-21T08:31:35.997Z</time></trkpt><trkpt lat="36.998198175380374" lon="-1.9394791677669059"><ele>109.0</ele><time>2026-04-21T08:31:36.997Z</time></trkpt><trkpt lat="36.99812493944772" lon="-1.9395654703228808"><ele>109.0</ele><time>2026-04-21T08:31:37.997Z</time></trkpt><trkpt lat="36.99806314557156" lon="-1.9396919857208625"><ele>109.0</ele><time>2026-04-21T08:31:38.997Z</time></trkpt><trkpt lat="36.99803224716753" lon="-1.939828497685677"><ele>109.0</ele><time>2026-04-21T08:31:39.997Z</time></trkpt><trkpt lat="36.998020395534404" lon="-1.9399708108676934"><ele>109.0</ele><time>2026-04-21T08:31:40.997Z</time></trkpt><trkpt lat="36.998012756137776" lon="-1.940101957220914"><ele>108.25</ele><time>2026-04-21T08:31:41.997Z</time></trkpt><trkpt lat="36.998014544293746" lon="-1.9402310546764008"><ele>107.5</ele><time>2026-04-21T08:31:42.997Z</time></trkpt><trkpt lat="36.998016303162814" lon="-1.9403579175674306"><ele>106.75</ele><time>2026-04-21T08:31:43.997Z</time></trkpt><trkpt lat="36.99802174023799" lon="-1.9405147687212405"><ele>106.0</ele><time>2026-04-21T08:31:44.997Z</time></trkpt><trkpt lat="36.99801555244087" lon="-1.940673035188168"><ele>106.0</ele><time>2026-04-21T08:31:45.997Z</time></trkpt><trkpt lat="36.998020796225575" lon="-1.9408149481569035"><ele>106.0</ele><time>2026-04-21T08:31:46.997Z</time></trkpt><trkpt lat="36.99803646762609" lon="-1.9409391062638555"><ele>106.0</ele><time>2026-04-21T08:31:47.997Z</time></trkpt><trkpt lat="36.9980417763371" lon="-1.941069306829527"><ele>106.0</ele><time>2026-04-21T08:31:48.997Z</time></trkpt><trkpt lat="36.99805636102432" lon="-1.941207426065397"><ele>106.0</ele><time>2026-04-21T08:31:49.997Z</time></trkpt><trkpt lat="36.99809113496056" lon="-1.9413349370187962"><ele>103.8</ele><time>2026-04-21T08:31:50.997Z</time></trkpt><trkpt lat="36.99813990732255" lon="-1.9414529552936055"><ele>101.6</ele><time>2026-04-21T08:31:51.997Z</time></trkpt><trkpt lat="36.99820354676984" lon="-1.9415613977843864"><ele>99.4</ele><time>2026-04-21T08:31:52.997Z</time></trkpt><trkpt lat="36.99827471589049" lon="-1.9416564248489268"><ele>97.2</ele><time>2026-04-21T08:31:53.997Z</time></trkpt><trkpt lat="36.998317997131515" lon="-1.9417454857600376"><ele>95.0</ele><time>2026-04-21T08:31:54.997Z</time></trkpt><trkpt lat="36.99840168865534" lon="-1.9418284285541034"><ele>94.6</ele><time>2026-04-21T08:31:55.997Z</time></trkpt><trkpt lat="36.99849966385288" lon="-1.9419064076223773"><ele>94.2</ele><time>2026-04-21T08:31:57.001Z</time></trkpt><trkpt lat="36.99857666958335" lon="-1.9419636995764715"><ele>93.80000000000001</ele><time>2026-04-21T08:31:58.001Z</time></trkpt><trkpt lat="36.99863186697626" lon="-1.9420371061444137"><ele>93.4</ele><time>2026-04-21T08:31:59.001Z</time></trkpt><trkpt lat="36.99869234838253" lon="-1.942125620861109"><ele>93.0</ele><time>2026-04-21T08:32:00.001Z</time></trkpt><trkpt lat="36.998741088002966" lon="-1.942221658455801"><ele>93.0</ele><time>2026-04-21T08:32:01.001Z</time></trkpt><trkpt lat="36.99879238691497" lon="-1.9423259846348813"><ele>93.0</ele><time>2026-04-21T08:32:02.001Z</time></trkpt><trkpt lat="36.998860464376804" lon="-1.9424496491788978"><ele>93.0</ele><time>2026-04-21T08:32:03.001Z</time></trkpt><trkpt lat="36.99890027912043" lon="-1.9425731329321725"><ele>93.0</ele><time>2026-04-21T08:32:04.001Z</time></trkpt><trkpt lat="36.99894499073517" lon="-1.942693071412183"><ele>93.0</ele><time>2026-04-21T08:32:05.001Z</time></trkpt><trkpt lat="36.99898099171336" lon="-1.942818558207497"><ele>91.60000000000001</ele><time>2026-04-21T08:32:06.001Z</time></trkpt><trkpt lat="36.99900332701101" lon="-1.9429483337168962"><ele>90.2</ele><time>2026-04-21T08:32:07.001Z</time></trkpt><trkpt lat="36.999032196822235" lon="-1.943057871926942"><ele>88.8</ele><time>2026-04-21T08:32:08.001Z</time></trkpt><trkpt lat="36.99909673215867" lon="-1.9431475351076644"><ele>87.4</ele><time>2026-04-21T08:32:09.001Z</time></trkpt><trkpt lat="36.99918132262513" lon="-1.943211154342375"><ele>86.0</ele><time>2026-04-21T08:32:10.001Z</time></trkpt><trkpt lat="36.99926766575888" lon="-1.9432565954865018"><ele>86.0</ele><time>2026-04-21T08:32:11.001Z</time></trkpt><trkpt lat="36.99935156689952" lon="-1.943312869857239"><ele>86.0</ele><time>2026-04-21T08:32:12.001Z</time></trkpt><trkpt lat="36.99944192619491" lon="-1.9433713969668915"><ele>86.0</ele><time>2026-04-21T08:32:13.001Z</time></trkpt><trkpt lat="36.99952777622547" lon="-1.943434526159224"><ele>86.0</ele><time>2026-04-21T08:32:14.001Z</time></trkpt><trkpt lat="36.999600317229174" lon="-1.9435024896656732"><ele>86.0</ele><time>2026-04-21T08:32:15.001Z</time></trkpt><trkpt lat="36.999668012020095" lon="-1.9435832510530406"><ele>83.33333333333334</ele><time>2026-04-21T08:32:16.001Z</time></trkpt><trkpt lat="36.99972827859006" lon="-1.9436762251479682"><ele>80.66666666666667</ele><time>2026-04-21T08:32:17Z</time></trkpt><trkpt lat="36.999770195711335" lon="-1.943764845360471"><ele>78.0</ele><time>2026-04-21T08:32:18Z</time></trkpt><trkpt lat="36.999778979257364" lon="-1.9438631036169647"><ele>75.33333333333333</ele><time>2026-04-21T08:32:19Z</time></trkpt><trkpt lat="36.99977415420336" lon="-1.9439643915130909"><ele>72.66666666666666</ele><time>2026-04-21T08:32:20Z</time></trkpt><trkpt lat="36.999770667936225" lon="-1.944083980130378"><ele>70.0</ele><time>2026-04-21T08:32:21Z</time></trkpt><trkpt lat="36.99974413473951" lon="-1.9441851001741544"><ele>69.42857142857143</ele><time>2026-04-21T08:32:22Z</time></trkpt><trkpt lat="36.999705952370746" lon="-1.9442630026718712"><ele>68.85714285714286</ele><time>2026-04-21T08:32:23Z</time></trkpt><trkpt lat="36.99966497190724" lon="-1.9443424725255751"><ele>68.28571428571428</ele><time>2026-04-21T08:32:24Z</time></trkpt><trkpt lat="36.999635289746614" lon="-1.944417356122547"><ele>67.71428571428572</ele><time>2026-04-21T08:32:25Z</time></trkpt><trkpt lat="36.999606194553536" lon="-1.9444936683503546"><ele>67.14285714285714</ele><time>2026-04-21T08:32:26Z</time></trkpt><trkpt lat="36.99957255548982" lon="-1.944577382639305"><ele>66.57142857142857</ele><time>2026-04-21T08:32:27Z</time></trkpt><trkpt lat="36.99953298722427" lon="-1.944659743808206"><ele>66.0</ele><time>2026-04-21T08:32:28Z</time></trkpt><trkpt lat="36.999498922082246" lon="-1.9447426155171832"><ele>66.0</ele><time>2026-04-21T08:32:29Z</time></trkpt><trkpt lat="36.999459012948684" lon="-1.9448144742225337"><ele>66.0</ele><time>2026-04-21T08:32:30Z</time></trkpt><trkpt lat="36.99942000842441" lon="-1.944886435346885"><ele>66.0</ele><time>2026-04-21T08:32:31Z</time></trkpt><trkpt lat="36.99937737791524" lon="-1.944957202593687"><ele>66.0</ele><time>2026-04-21T08:32:32Z</time></trkpt><trkpt lat="36.99932332186759" lon="-1.9450246085830463"><ele>66.0</ele><time>2026-04-21T08:32:33Z</time></trkpt><trkpt lat="36.99925800896105" lon="-1.9450869725459592"><ele>66.0</ele><time>2026-04-21T08:32:34Z</time></trkpt><trkpt lat="36.999177708285615" lon="-1.945136624736056"><ele>67.0</ele><time>2026-04-21T08:32:35Z</time></trkpt><trkpt lat="36.999088604986916" lon="-1.9451738642512697"><ele>68.0</ele><time>2026-04-21T08:32:36Z</time></trkpt><trkpt lat="36.99899537796091" lon="-1.945205279167011"><ele>69.0</ele><time>2026-04-21T08:32:37Z</time></trkpt><trkpt lat="36.998897435487926" lon="-1.9452386791840819"><ele>70.0</ele><time>2026-04-21T08:32:38Z</time></trkpt><trkpt lat="36.99879034445036" lon="-1.9452745288644215"><ele>71.0</ele><time>2026-04-21T08:32:39Z</time></trkpt><trkpt lat="36.99867864147966" lon="-1.9453163711346335"><ele>71.0</ele><time>2026-04-21T08:32:40Z</time></trkpt><trkpt lat="36.998562469542414" lon="-1.94536696707074"><ele>71.0</ele><time>2026-04-21T08:32:41Z</time></trkpt><trkpt lat="36.99844589520139" lon="-1.9454265101924237"><ele>71.0</ele><time>2026-04-21T08:32:42Z</time></trkpt><trkpt lat="36.99833387356796" lon="-1.9454912315741208"><ele>71.0</ele><time>2026-04-21T08:32:43Z</time></trkpt><trkpt lat="36.99823489041987" lon="-1.9455605721061333"><ele>70.6</ele><time>2026-04-21T08:32:44Z</time></trkpt><trkpt lat="36.99813528495037" lon="-1.9456290214245544"><ele>70.19999999999999</ele><time>2026-04-21T08:32:45Z</time></trkpt><trkpt lat="36.99804335048511" lon="-1.9457089779736079"><ele>69.80000000000001</ele><time>2026-04-21T08:32:46Z</time></trkpt><trkpt lat="36.997966661690214" lon="-1.9458040498898064"><ele>69.4</ele><time>2026-04-21T08:32:47Z</time></trkpt><trkpt lat="36.9978972031663" lon="-1.9459060199165201"><ele>69.0</ele><time>2026-04-21T08:32:48Z</time></trkpt><trkpt lat="36.99783156772369" lon="-1.946010587253863"><ele>69.8</ele><time>2026-04-21T08:32:49Z</time></trkpt><trkpt lat="36.99778613413656" lon="-1.9461281087497575"><ele>70.60000000000001</ele><time>2026-04-21T08:32:50Z</time></trkpt><trkpt lat="36.99775789671149" lon="-1.946257464381066"><ele>71.4</ele><time>2026-04-21T08:32:51Z</time></trkpt><trkpt lat="36.99772851531741" lon="-1.9463905366765606"><ele>72.2</ele><time>2026-04-21T08:32:52Z</time></trkpt><trkpt lat="36.997696022237804" lon="-1.9465222289159343"><ele>73.0</ele><time>2026-04-21T08:32:53Z</time></trkpt><trkpt lat="36.997669166635276" lon="-1.946652806523726"><ele>74.4</ele><time>2026-04-21T08:32:54Z</time></trkpt><trkpt lat="36.99764941570988" lon="-1.9467800533640347"><ele>75.8</ele><time>2026-04-21T08:32:55Z</time></trkpt><trkpt lat="36.99763928768658" lon="-1.9469047760932623"><ele>77.2</ele><time>2026-04-21T08:32:56Z</time></trkpt><trkpt lat="36.997633795625646" lon="-1.9470251392802815"><ele>78.6</ele><time>2026-04-21T08:32:57Z</time></trkpt><trkpt lat="36.997623016324" lon="-1.947139181349437"><ele>80.0</ele><time>2026-04-21T08:32:58Z</time></trkpt><trkpt lat="36.9976048461721" lon="-1.9472494550889334"><ele>80.0</ele><time>2026-04-21T08:32:59Z</time></trkpt><trkpt lat="36.99758512922458" lon="-1.947346566105985"><ele>80.0</ele><time>2026-04-21T08:33:00Z</time></trkpt><trkpt lat="36.99756342533484" lon="-1.9474337442995149"><ele>80.0</ele><time>2026-04-21T08:33:01Z</time></trkpt><trkpt lat="36.997543354380404" lon="-1.947518202503727"><ele>80.0</ele><time>2026-04-21T08:33:02Z</time></trkpt><trkpt lat="36.99753992230408" lon="-1.9476033315169246"><ele>80.0</ele><time>2026-04-21T08:33:03Z</time></trkpt><trkpt lat="36.9975618269498" lon="-1.9476956988018566"><ele>80.0</ele><time>2026-04-21T08:33:04Z</time></trkpt><trkpt lat="36.997586064399094" lon="-1.9477905542048513"><ele>80.0</ele><time>2026-04-21T08:33:05Z</time></trkpt><trkpt lat="36.99760817529479" lon="-1.9478920823697499"><ele>81.0</ele><time>2026-04-21T08:33:06Z</time></trkpt><trkpt lat="36.99761880929859" lon="-1.9480011746413863"><ele>82.0</ele><time>2026-04-21T08:33:07Z</time></trkpt><trkpt lat="36.99761953158973" lon="-1.9481024784267575"><ele>83.0</ele><time>2026-04-21T08:33:08Z</time></trkpt><trkpt lat="36.99761225965716" lon="-1.9481951886316"><ele>84.0</ele><time>2026-04-21T08:33:09Z</time></trkpt><trkpt lat="36.997615632487665" lon="-1.9482862083719594"><ele>85.0</ele><time>2026-04-21T08:33:10Z</time></trkpt><trkpt lat="36.99762605451141" lon="-1.9483784601357492"><ele>86.0</ele><time>2026-04-21T08:33:11Z</time></trkpt><trkpt lat="36.997648811163025" lon="-1.9484736981520168"><ele>86.8</ele><time>2026-04-21T08:33:12Z</time></trkpt><trkpt lat="36.99766743637115" lon="-1.9485783745989784"><ele>87.6</ele><time>2026-04-21T08:33:13Z</time></trkpt><trkpt lat="36.99768079630142" lon="-1.948687478738199"><ele>88.4</ele><time>2026-04-21T08:33:14Z</time></trkpt><trkpt lat="36.99768607001272" lon="-1.9488039107131838"><ele>89.2</ele><time>2026-04-21T08:33:15Z</time></trkpt><trkpt lat="36.99768677301511" lon="-1.9489296718015015"><ele>90.0</ele><time>2026-04-21T08:33:15.999Z</time></trkpt><trkpt lat="36.99768731405331" lon="-1.9490599864189437"><ele>90.0</ele><time>2026-04-21T08:33:16.999Z</time></trkpt><trkpt lat="36.9976825887529" lon="-1.9491916289849154"><ele>90.0</ele><time>2026-04-21T08:33:17.999Z</time></trkpt><trkpt lat="36.997663338103706" lon="-1.9493193873820607"><ele>90.0</ele><time>2026-04-21T08:33:18.999Z</time></trkpt><trkpt lat="36.99764059957677" lon="-1.949442365994891"><ele>90.0</ele><time>2026-04-21T08:33:19.999Z</time></trkpt><trkpt lat="36.9976026924113" lon="-1.9495705579542462"><ele>90.0</ele><time>2026-04-21T08:33:20.999Z</time></trkpt><trkpt lat="36.99756436957479" lon="-1.9497074805592103"><ele>90.75</ele><time>2026-04-21T08:33:21.999Z</time></trkpt><trkpt lat="36.997528173090174" lon="-1.9498347240706033"><ele>91.5</ele><time>2026-04-21T08:33:22.999Z</time></trkpt><trkpt lat="36.99747985368833" lon="-1.9499623242193056"><ele>92.25</ele><time>2026-04-21T08:33:23.999Z</time></trkpt><trkpt lat="36.99742792906888" lon="-1.950097402136703"><ele>93.0</ele><time>2026-04-21T08:33:24.999Z</time></trkpt><trkpt lat="36.997374785946114" lon="-1.950236198329011"><ele>93.0</ele><time>2026-04-21T08:33:25.999Z</time></trkpt><trkpt lat="36.99732435982893" lon="-1.950371078541799"><ele>93.0</ele><time>2026-04-21T08:33:26.999Z</time></trkpt><trkpt lat="36.99726973280615" lon="-1.9505008266156736"><ele>93.0</ele><time>2026-04-21T08:33:27.999Z</time></trkpt><trkpt lat="36.99721807892883" lon="-1.9506313827431196"><ele>93.0</ele><time>2026-04-21T08:33:28.999Z</time></trkpt><trkpt lat="36.997163531765814" lon="-1.9507632269297197"><ele>92.75</ele><time>2026-04-21T08:33:29.999Z</time></trkpt><trkpt lat="36.997106679802464" lon="-1.9508951657051987"><ele>92.5</ele><time>2026-04-21T08:33:30.999Z</time></trkpt><trkpt lat="36.99704961906362" lon="-1.9510281099964935"><ele>92.25</ele><time>2026-04-21T08:33:31.999Z</time></trkpt><trkpt lat="36.996991808245" lon="-1.9511555545382855"><ele>92.0</ele><time>2026-04-21T08:33:32.999Z</time></trkpt><trkpt lat="36.99693602536354" lon="-1.9512832174720829"><ele>92.0</ele><time>2026-04-21T08:33:33.999Z</time></trkpt><trkpt lat="36.99687439781149" lon="-1.9514094314127215"><ele>92.0</ele><time>2026-04-21T08:33:34.999Z</time></trkpt><trkpt lat="36.996818318271856" lon="-1.9515403386194106"><ele>92.0</ele><time>2026-04-21T08:33:35.999Z</time></trkpt><trkpt lat="36.99676525854004" lon="-1.9516602775050016"><ele>92.0</ele><time>2026-04-21T08:33:36.999Z</time></trkpt><trkpt lat="36.99671585008849" lon="-1.9517662569027794"><ele>92.0</ele><time>2026-04-21T08:33:37.999Z</time></trkpt><trkpt lat="36.9966680149017" lon="-1.9518644661043751"><ele>89.66666666666667</ele><time>2026-04-21T08:33:38.999Z</time></trkpt><trkpt lat="36.99662252152764" lon="-1.9519590771695468"><ele>87.33333333333334</ele><time>2026-04-21T08:33:39.999Z</time></trkpt><trkpt lat="36.996581083539965" lon="-1.9520542175257865"><ele>85.0</ele><time>2026-04-21T08:33:40.999Z</time></trkpt><trkpt lat="36.99655283368437" lon="-1.9521565021658231"><ele>82.66666666666667</ele><time>2026-04-21T08:33:41.999Z</time></trkpt><trkpt lat="36.996545329096975" lon="-1.952267200020904"><ele>80.33333333333333</ele><time>2026-04-21T08:33:42.999Z</time></trkpt><trkpt lat="36.996540806095446" lon="-1.9523782088010109"><ele>78.0</ele><time>2026-04-21T08:33:43.999Z</time></trkpt><trkpt lat="36.99653717896816" lon="-1.952487192043117"><ele>78.0</ele><time>2026-04-21T08:33:44.999Z</time></trkpt><trkpt lat="36.99653808597642" lon="-1.952592419133913"><ele>78.0</ele><time>2026-04-21T08:33:45.999Z</time></trkpt><trkpt lat="36.996552644425186" lon="-1.9526914745046984"><ele>78.0</ele><time>2026-04-21T08:33:46.999Z</time></trkpt><trkpt lat="36.9965930988232" lon="-1.9527824486756074"><ele>78.0</ele><time>2026-04-21T08:33:47.999Z</time></trkpt><trkpt lat="36.99664417599492" lon="-1.9528739647475162"><ele>78.0</ele><time>2026-04-21T08:33:48.999Z</time></trkpt><trkpt lat="36.996695008334214" lon="-1.952974298469278"><ele>78.0</ele><time>2026-04-21T08:33:49.999Z</time></trkpt><trkpt lat="36.99674783956037" lon="-1.9530740788182885"><ele>78.8</ele><time>2026-04-21T08:33:50.999Z</time></trkpt><trkpt lat="36.99680849925106" lon="-1.9531697901672072"><ele>79.6</ele><time>2026-04-21T08:33:51.999Z</time></trkpt><trkpt lat="36.99687631615242" lon="-1.9532514500856482"><ele>80.39999999999999</ele><time>2026-04-21T08:33:52.999Z</time></trkpt><trkpt lat="36.996944306436134" lon="-1.9533338175902986"><ele>81.19999999999999</ele><time>2026-04-21T08:33:53.999Z</time></trkpt><trkpt lat="36.99700929377589" lon="-1.9534196876391454"><ele>82.0</ele><time>2026-04-21T08:33:54.999Z</time></trkpt><trkpt lat="36.99706521221467" lon="-1.9535185827826076"><ele>82.0</ele><time>2026-04-21T08:33:55.999Z</time></trkpt><trkpt lat="36.997132355022984" lon="-1.9536275068678577"><ele>82.0</ele><time>2026-04-21T08:33:56.999Z</time></trkpt><trkpt lat="36.99721738942036" lon="-1.9537399292861375"><ele>82.0</ele><time>2026-04-21T08:33:57.999Z</time></trkpt><trkpt lat="36.997300421021336" lon="-1.9538580338990785"><ele>82.0</ele><time>2026-04-21T08:33:58.999Z</time></trkpt><trkpt lat="36.997376073637355" lon="-1.9539725082854895"><ele>82.0</ele><time>2026-04-21T08:33:59.999Z</time></trkpt><trkpt lat="36.997455222031675" lon="-1.9540792300092964"><ele>82.0</ele><time>2026-04-21T08:34:00.999Z</time></trkpt><trkpt lat="36.99752755754129" lon="-1.9541900279064617"><ele>82.0</ele><time>2026-04-21T08:34:01.999Z</time></trkpt><trkpt lat="36.99759477214546" lon="-1.9543033233050227"><ele>82.0</ele><time>2026-04-21T08:34:02.999Z</time></trkpt><trkpt lat="36.997650859025875" lon="-1.954419190975253"><ele>84.19999999999999</ele><time>2026-04-21T08:34:03.999Z</time></trkpt><trkpt lat="36.997704330890556" lon="-1.9545372389093256"><ele>86.4</ele><time>2026-04-21T08:34:04.999Z</time></trkpt><trkpt lat="36.997756793124985" lon="-1.9546521623711004"><ele>88.6</ele><time>2026-04-21T08:34:05.999Z</time></trkpt><trkpt lat="36.99780658899489" lon="-1.9547661387652244"><ele>90.80000000000001</ele><time>2026-04-21T08:34:06.999Z</time></trkpt><trkpt lat="36.997858081971565" lon="-1.9548814589988455"><ele>93.0</ele><time>2026-04-21T08:34:07.999Z</time></trkpt><trkpt lat="36.99791353253663" lon="-1.95498829185988"><ele>90.4</ele><time>2026-04-21T08:34:08.999Z</time></trkpt><trkpt lat="36.99797580298176" lon="-1.9550934611651785"><ele>87.80000000000001</ele><time>2026-04-21T08:34:09.999Z</time></trkpt><trkpt lat="36.99803331456098" lon="-1.9551944786566138"><ele>85.2</ele><time>2026-04-21T08:34:10.999Z</time></trkpt><trkpt lat="36.99808570002551" lon="-1.9552899077421546"><ele>82.6</ele><time>2026-04-21T08:34:11.999Z</time></trkpt><trkpt lat="36.99812061750082" lon="-1.955391620440091"><ele>80.0</ele><time>2026-04-21T08:34:12.999Z</time></trkpt><trkpt lat="36.99814395246471" lon="-1.9555061414716395"><ele>80.0</ele><time>2026-04-21T08:34:13.999Z</time></trkpt><trkpt lat="36.998166939447366" lon="-1.955614483607922"><ele>80.0</ele><time>2026-04-21T08:34:14.999Z</time></trkpt><trkpt lat="36.99819371987291" lon="-1.955712125394537"><ele>80.0</ele><time>2026-04-21T08:34:15.999Z</time></trkpt><trkpt lat="36.99820860243036" lon="-1.955810101053633"><ele>80.0</ele><time>2026-04-21T08:34:16.999Z</time></trkpt><trkpt lat="36.99822856409808" lon="-1.9558989674459861"><ele>80.0</ele><time>2026-04-21T08:34:17.999Z</time></trkpt><trkpt lat="36.99826651483336" lon="-1.9559765501973319"><ele>80.0</ele><time>2026-04-21T08:34:18.999Z</time></trkpt><trkpt lat="36.99831933393129" lon="-1.956055035279074"><ele>82.4</ele><time>2026-04-21T08:34:19.999Z</time></trkpt><trkpt lat="36.99839330315403" lon="-1.9561222336600417"><ele>84.8</ele><time>2026-04-21T08:34:20.999Z</time></trkpt><trkpt lat="36.998480420053426" lon="-1.9561974745763644"><ele>87.19999999999999</ele><time>2026-04-21T08:34:21.999Z</time></trkpt><trkpt lat="36.998564056381376" lon="-1.9562918759646897"><ele>89.6</ele><time>2026-04-21T08:34:22.999Z</time></trkpt><trkpt lat="36.998631483325525" lon="-1.9563841419791315"><ele>92.0</ele><time>2026-04-21T08:34:23.999Z</time></trkpt><trkpt lat="36.9987016775829" lon="-1.9564481108395664"><ele>92.0</ele><time>2026-04-21T08:34:24.999Z</time></trkpt><trkpt lat="36.9987655940925" lon="-1.9565022395051506"><ele>92.0</ele><time>2026-04-21T08:34:25.999Z</time></trkpt><trkpt lat="36.99882013706192" lon="-1.9565569518345227"><ele>92.0</ele><time>2026-04-21T08:34:26.999Z</time></trkpt><trkpt lat="36.99886777710047" lon="-1.9566824700479535"><ele>92.0</ele><time>2026-04-21T08:34:28.999Z</time></trkpt><trkpt lat="36.99886465612035" lon="-1.9567636953105096"><ele>92.0</ele><time>2026-04-21T08:34:29.999Z</time></trkpt><trkpt lat="36.9988578792297" lon="-1.9568507008352778"><ele>92.0</ele><time>2026-04-21T08:34:30.999Z</time></trkpt><trkpt lat="36.99885001110666" lon="-1.956939630292841"><ele>92.14285714285715</ele><time>2026-04-21T08:34:31.999Z</time></trkpt><trkpt lat="36.998838220592646" lon="-1.957020141470763"><ele>92.28571428571428</ele><time>2026-04-21T08:34:32.999Z</time></trkpt><trkpt lat="36.998808729804466" lon="-1.957092415667833"><ele>92.42857142857143</ele><time>2026-04-21T08:34:33.999Z</time></trkpt><trkpt lat="36.99876708644536" lon="-1.9571662090088138"><ele>92.57142857142858</ele><time>2026-04-21T08:34:34.999Z</time></trkpt><trkpt lat="36.998713014916966" lon="-1.9572160024880398"><ele>92.71428571428572</ele><time>2026-04-21T08:34:35.999Z</time></trkpt><trkpt lat="36.998657592886445" lon="-1.9572598654611493"><ele>92.85714285714286</ele><time>2026-04-21T08:34:36.999Z</time></trkpt><trkpt lat="36.99861336243029" lon="-1.9573163898199495"><ele>93.0</ele><time>2026-04-21T08:34:37.999Z</time></trkpt><trkpt lat="36.998577355895975" lon="-1.9573821271386467"><ele>93.00000000000001</ele><time>2026-04-21T08:34:38.999Z</time></trkpt><trkpt lat="36.99855346975555" lon="-1.9574645009015184"><ele>93.0</ele><time>2026-04-21T08:34:39.999Z</time></trkpt><trkpt lat="36.99853976308719" lon="-1.957545757940488"><ele>93.0</ele><time>2026-04-21T08:34:40.999Z</time></trkpt><trkpt lat="36.99853049811317" lon="-1.957630284375877"><ele>93.0</ele><time>2026-04-21T08:34:41.999Z</time></trkpt><trkpt lat="36.998518391198935" lon="-1.9577172290150833"><ele>93.0</ele><time>2026-04-21T08:34:42.999Z</time></trkpt><trkpt lat="36.9984870620206" lon="-1.9577965943616826"><ele>93.00000000000001</ele><time>2026-04-21T08:34:43.999Z</time></trkpt><trkpt lat="36.99842770208543" lon="-1.9578618868539326"><ele>93.0</ele><time>2026-04-21T08:34:44.999Z</time></trkpt><trkpt lat="36.998352741584135" lon="-1.9579208819563396"><ele>91.83333333333333</ele><time>2026-04-21T08:34:45.999Z</time></trkpt><trkpt lat="36.99827391591317" lon="-1.9579853774558205"><ele>90.66666666666667</ele><time>2026-04-21T08:34:46.999Z</time></trkpt><trkpt lat="36.998199906035325" lon="-1.958049670805052"><ele>89.5</ele><time>2026-04-21T08:34:47.999Z</time></trkpt><trkpt lat="36.99813146235877" lon="-1.9581177724772743"><ele>88.33333333333334</ele><time>2026-04-21T08:34:48.999Z</time></trkpt><trkpt lat="36.99806536072754" lon="-1.958177748413462"><ele>87.16666666666667</ele><time>2026-04-21T08:34:49.999Z</time></trkpt><trkpt lat="36.99799658586262" lon="-1.9582114111185192"><ele>86.0</ele><time>2026-04-21T08:34:50.999Z</time></trkpt><trkpt lat="36.99791842591013" lon="-1.9582322448627851"><ele>86.0</ele><time>2026-04-21T08:34:51.999Z</time></trkpt><trkpt lat="36.99782796573664" lon="-1.9582635209284696"><ele>86.0</ele><time>2026-04-21T08:34:52.999Z</time></trkpt><trkpt lat="36.99774519788579" lon="-1.9583256816294394"><ele>86.0</ele><time>2026-04-21T08:34:53.999Z</time></trkpt><trkpt lat="36.99766932502091" lon="-1.9583996811601017"><ele>86.0</ele><time>2026-04-21T08:34:54.999Z</time></trkpt><trkpt lat="36.997598437744536" lon="-1.958475367228999"><ele>86.0</ele><time>2026-04-21T08:34:55.999Z</time></trkpt><trkpt lat="36.99752795080905" lon="-1.9585452344905794"><ele>86.0</ele><time>2026-04-21T08:34:56.999Z</time></trkpt><trkpt lat="36.997456029497926" lon="-1.958616511607053"><ele>86.0</ele><time>2026-04-21T08:34:57.999Z</time></trkpt><trkpt lat="36.99738580835728" lon="-1.9587065309397969"><ele>86.0</ele><time>2026-04-21T08:34:58.999Z</time></trkpt><trkpt lat="36.99731897122304" lon="-1.9587980314975992"><ele>86.0</ele><time>2026-04-21T08:34:59.999Z</time></trkpt><trkpt lat="36.99725441169006" lon="-1.9588832168087587"><ele>86.0</ele><time>2026-04-21T08:35:00.999Z</time></trkpt><trkpt lat="36.99718844764888" lon="-1.9589679082417748"><ele>86.0</ele><time>2026-04-21T08:35:01.999Z</time></trkpt><trkpt lat="36.99710368512542" lon="-1.959037683848954"><ele>86.0</ele><time>2026-04-21T08:35:02.999Z</time></trkpt><trkpt lat="36.99701314881628" lon="-1.9591006881895598"><ele>86.0</ele><time>2026-04-21T08:35:03.999Z</time></trkpt><trkpt lat="36.99692932346346" lon="-1.9591647615185062"><ele>86.0</ele><time>2026-04-21T08:35:04.998Z</time></trkpt><trkpt lat="36.99685040872877" lon="-1.9592129759466785"><ele>86.0</ele><time>2026-04-21T08:35:05.998Z</time></trkpt><trkpt lat="36.996775518993886" lon="-1.9592599535520343"><ele>86.5</ele><time>2026-04-21T08:35:06.998Z</time></trkpt><trkpt lat="36.996706614735565" lon="-1.9593151630373244"><ele>87.0</ele><time>2026-04-21T08:35:07.998Z</time></trkpt><trkpt lat="36.99663979563985" lon="-1.9593649780222737"><ele>87.5</ele><time>2026-04-21T08:35:08.998Z</time></trkpt><trkpt lat="36.996584993275434" lon="-1.9594208251687932"><ele>88.0</ele><time>2026-04-21T08:35:09.998Z</time></trkpt><trkpt lat="36.996541675930324" lon="-1.9594847683703904"><ele>88.5</ele><time>2026-04-21T08:35:10.998Z</time></trkpt><trkpt lat="36.99648481889522" lon="-1.9596240534564158"><ele>89.0</ele><time>2026-04-21T08:35:12.998Z</time></trkpt><trkpt lat="36.996482811704716" lon="-1.9597793815101663"><ele>88.85714285714285</ele><time>2026-04-21T08:35:14.998Z</time></trkpt><trkpt lat="36.996498641719405" lon="-1.9598607088877382"><ele>88.71428571428571</ele><time>2026-04-21T08:35:15.998Z</time></trkpt><trkpt lat="36.996516782992124" lon="-1.9599458546452078"><ele>88.57142857142857</ele><time>2026-04-21T08:35:16.998Z</time></trkpt><trkpt lat="36.99654402344898" lon="-1.9600266538495523"><ele>88.42857142857142</ele><time>2026-04-21T08:35:17.998Z</time></trkpt><trkpt lat="36.99657670954898" lon="-1.9601073979863084"><ele>88.28571428571428</ele><time>2026-04-21T08:35:18.998Z</time></trkpt><trkpt lat="36.99662053414767" lon="-1.9601806361841898"><ele>88.14285714285714</ele><time>2026-04-21T08:35:19.998Z</time></trkpt><trkpt lat="36.996665432488264" lon="-1.9602539080740389"><ele>88.0</ele><time>2026-04-21T08:35:20.998Z</time></trkpt><trkpt lat="36.99672377595204" lon="-1.9603071461639305"><ele>88.0</ele><time>2026-04-21T08:35:21.998Z</time></trkpt><trkpt lat="36.996792354117886" lon="-1.9603382618443523"><ele>88.0</ele><time>2026-04-21T08:35:22.998Z</time></trkpt><trkpt lat="36.99686680890149" lon="-1.9603685518562222"><ele>88.0</ele><time>2026-04-21T08:35:23.998Z</time></trkpt><trkpt lat="36.99694396393312" lon="-1.960409827525023"><ele>88.0</ele><time>2026-04-21T08:35:24.998Z</time></trkpt><trkpt lat="36.99702144966239" lon="-1.9604586936199548"><ele>88.0</ele><time>2026-04-21T08:35:25.998Z</time></trkpt><trkpt lat="36.99708663660942" lon="-1.9605128301272454"><ele>88.0</ele><time>2026-04-21T08:35:26.998Z</time></trkpt><trkpt lat="36.997141204229074" lon="-1.9605792654065697"><ele>88.0</ele><time>2026-04-21T08:35:27.998Z</time></trkpt><trkpt lat="36.99720398216072" lon="-1.9606507259399124"><ele>88.0</ele><time>2026-04-21T08:35:28.998Z</time></trkpt><trkpt lat="36.9972610966611" lon="-1.9607346135368908"><ele>88.0</ele><time>2026-04-21T08:35:29.998Z</time></trkpt><trkpt lat="36.997312268456994" lon="-1.9608084536350012"><ele>88.0</ele><time>2026-04-21T08:35:30.998Z</time></trkpt><trkpt lat="36.99735313880242" lon="-1.9608772951115174"><ele>88.0</ele><time>2026-04-21T08:35:31.998Z</time></trkpt><trkpt lat="36.997409706085456" lon="-1.9609317341008643"><ele>88.0</ele><time>2026-04-21T08:35:32.998Z</time></trkpt><trkpt lat="36.99747415455394" lon="-1.9609723301378459"><ele>88.28571428571429</ele><time>2026-04-21T08:35:33.998Z</time></trkpt><trkpt lat="36.99754111554393" lon="-1.9610108883676232"><ele>88.57142857142857</ele><time>2026-04-21T08:35:34.998Z</time></trkpt><trkpt lat="36.997608493122" lon="-1.9610591825356394"><ele>88.85714285714286</ele><time>2026-04-21T08:35:35.998Z</time></trkpt><trkpt lat="36.997671306118974" lon="-1.9611105293224822"><ele>89.14285714285714</ele><time>2026-04-21T08:35:36.998Z</time></trkpt><trkpt lat="36.99772962158474" lon="-1.9611629710280394"><ele>89.42857142857143</ele><time>2026-04-21T08:35:37.998Z</time></trkpt><trkpt lat="36.99778883855287" lon="-1.9612142467269162"><ele>89.71428571428571</ele><time>2026-04-21T08:35:38.998Z</time></trkpt><trkpt lat="36.99784884051991" lon="-1.9612612532323652"><ele>90.0</ele><time>2026-04-21T08:35:39.998Z</time></trkpt><trkpt lat="36.99791830593222" lon="-1.961313884761286"><ele>90.0</ele><time>2026-04-21T08:35:40.998Z</time></trkpt><trkpt lat="36.99798738169717" lon="-1.9613522991028114"><ele>90.0</ele><time>2026-04-21T08:35:41.998Z</time></trkpt><trkpt lat="36.99804144681688" lon="-1.9613984422820718"><ele>90.0</ele><time>2026-04-21T08:35:42.998Z</time></trkpt><trkpt lat="36.99809194552228" lon="-1.9614538648843343"><ele>90.0</ele><time>2026-04-21T08:35:43.998Z</time></trkpt><trkpt lat="36.998141277907905" lon="-1.9615223809098925"><ele>90.0</ele><time>2026-04-21T08:35:44.998Z</time></trkpt><trkpt lat="36.99818033377453" lon="-1.9615923913556095"><ele>90.0</ele><time>2026-04-21T08:35:45.998Z</time></trkpt><trkpt lat="36.998209075153845" lon="-1.9616833913044356"><ele>90.0</ele><time>2026-04-21T08:35:46.998Z</time></trkpt><trkpt lat="36.99822868241478" lon="-1.9618257066675637"><ele>90.0</ele><time>2026-04-21T08:35:48.998Z</time></trkpt><trkpt lat="36.998225312498676" lon="-1.9619133474105306"><ele>90.0</ele><time>2026-04-21T08:35:49.998Z</time></trkpt><trkpt lat="36.9982009145602" lon="-1.9620097362622682"><ele>90.0</ele><time>2026-04-21T08:35:50.998Z</time></trkpt><trkpt lat="36.99817466439732" lon="-1.962095939404372"><ele>90.0</ele><time>2026-04-21T08:35:51.998Z</time></trkpt><trkpt lat="36.99814064225651" lon="-1.9622048256499627"><ele>90.0</ele><time>2026-04-21T08:35:52.998Z</time></trkpt><trkpt lat="36.998084388699276" lon="-1.9623062075665862"><ele>90.0</ele><time>2026-04-21T08:35:53.998Z</time></trkpt><trkpt lat="36.99802736478646" lon="-1.9623986447596093"><ele>90.0</ele><time>2026-04-21T08:35:54.998Z</time></trkpt><trkpt lat="36.99795569381318" lon="-1.962503396435948"><ele>90.0</ele><time>2026-04-21T08:35:55.998Z</time></trkpt><trkpt lat="36.997896108071735" lon="-1.9625970178295329"><ele>90.0</ele><time>2026-04-21T08:35:56.998Z</time></trkpt><trkpt lat="36.99783602656819" lon="-1.9626833060182507"><ele>90.0</ele><time>2026-04-21T08:35:57.998Z</time></trkpt><trkpt lat="36.997768257810876" lon="-1.9627755118871162"><ele>90.0</ele><time>2026-04-21T08:35:58.998Z</time></trkpt><trkpt lat="36.99770315803568" lon="-1.9628712218342164"><ele>90.16666666666667</ele><time>2026-04-21T08:35:59.998Z</time></trkpt><trkpt lat="36.997644419706845" lon="-1.9629714724554719"><ele>90.33333333333333</ele><time>2026-04-21T08:36:00.998Z</time></trkpt><trkpt lat="36.99760160242596" lon="-1.963069701973143"><ele>90.5</ele><time>2026-04-21T08:36:01.998Z</time></trkpt><trkpt lat="36.997556154029915" lon="-1.9631611088881629"><ele>90.66666666666666</ele><time>2026-04-21T08:36:02.998Z</time></trkpt><trkpt lat="36.99750862027932" lon="-1.9632539890624987"><ele>90.83333333333333</ele><time>2026-04-21T08:36:03.998Z</time></trkpt><trkpt lat="36.99746897126012" lon="-1.9633450393814809"><ele>91.0</ele><time>2026-04-21T08:36:04.998Z</time></trkpt><trkpt lat="36.997434985263276" lon="-1.9634295013536438"><ele>90.33333333333333</ele><time>2026-04-21T08:36:05.998Z</time></trkpt><trkpt lat="36.99740017810889" lon="-1.9635010134943633"><ele>89.66666666666666</ele><time>2026-04-21T08:36:06.998Z</time></trkpt><trkpt lat="36.99735037012253" lon="-1.963558718586504"><ele>89.0</ele><time>2026-04-21T08:36:07.998Z</time></trkpt><trkpt lat="36.99730152033869" lon="-1.9636184343088083"><ele>88.33333333333333</ele><time>2026-04-21T08:36:08.998Z</time></trkpt><trkpt lat="36.99727171234331" lon="-1.9637773165348174"><ele>87.66666666666667</ele><time>2026-04-21T08:36:10.998Z</time></trkpt><trkpt lat="36.997269085585735" lon="-1.9638619536638409"><ele>87.0</ele><time>2026-04-21T08:36:11.998Z</time></trkpt><trkpt lat="36.99726485197698" lon="-1.9640008347313798"><ele>87.0</ele><time>2026-04-21T08:36:13.998Z</time></trkpt><trkpt lat="36.99730188407844" lon="-1.964154501288236"><ele>87.0</ele><time>2026-04-21T08:36:15.998Z</time></trkpt><trkpt lat="36.99733800141064" lon="-1.9642343678358114"><ele>87.0</ele><time>2026-04-21T08:36:16.998Z</time></trkpt><trkpt lat="36.99739760523299" lon="-1.9643041062867794"><ele>87.0</ele><time>2026-04-21T08:36:17.998Z</time></trkpt><trkpt lat="36.99745223567704" lon="-1.9643762026539537"><ele>87.0</ele><time>2026-04-21T08:36:18.998Z</time></trkpt><trkpt lat="36.99749295410636" lon="-1.964446826416651"><ele>87.0</ele><time>2026-04-21T08:36:19.998Z</time></trkpt><trkpt lat="36.99751958194494" lon="-1.9645261161794898"><ele>88.16666666666667</ele><time>2026-04-21T08:36:20.998Z</time></trkpt><trkpt lat="36.99754820267728" lon="-1.9646196922223973"><ele>89.33333333333333</ele><time>2026-04-21T08:36:21.998Z</time></trkpt><trkpt lat="36.99757461721105" lon="-1.9647073929427157"><ele>90.5</ele><time>2026-04-21T08:36:22.998Z</time></trkpt><trkpt lat="36.99760597479398" lon="-1.96479589035044"><ele>91.66666666666666</ele><time>2026-04-21T08:36:23.998Z</time></trkpt><trkpt lat="36.997634320242625" lon="-1.964901503814004"><ele>92.83333333333333</ele><time>2026-04-21T08:36:24.998Z</time></trkpt><trkpt lat="36.99765659061372" lon="-1.9650048130293118"><ele>94.0</ele><time>2026-04-21T08:36:25.998Z</time></trkpt><trkpt lat="36.997675603032384" lon="-1.9651200889128653"><ele>94.33333333333333</ele><time>2026-04-21T08:36:26.998Z</time></trkpt><trkpt lat="36.997686204030316" lon="-1.965248158020469"><ele>94.66666666666666</ele><time>2026-04-21T08:36:27.998Z</time></trkpt><trkpt lat="36.99769909293919" lon="-1.9653660800547237"><ele>95.0</ele><time>2026-04-21T08:36:28.998Z</time></trkpt><trkpt lat="36.99771539989613" lon="-1.9654718091093348"><ele>95.33333333333333</ele><time>2026-04-21T08:36:29.998Z</time></trkpt><trkpt lat="36.99772504101398" lon="-1.9655739804263719"><ele>95.66666666666667</ele><time>2026-04-21T08:36:30.998Z</time></trkpt><trkpt lat="36.997730089323404" lon="-1.9656653986818022"><ele>96.0</ele><time>2026-04-21T08:36:31.998Z</time></trkpt><trkpt lat="36.99771701997468" lon="-1.9658109844755358"><ele>96.6</ele><time>2026-04-21T08:36:33.998Z</time></trkpt><trkpt lat="36.99767829194197" lon="-1.9659461344006552"><ele>97.19999999999999</ele><time>2026-04-21T08:36:35.998Z</time></trkpt><trkpt lat="36.9976325227044" lon="-1.9660520098125407"><ele>97.80000000000001</ele><time>2026-04-21T08:36:37.998Z</time></trkpt><trkpt lat="36.99759482846733" lon="-1.96613069800655"><ele>98.4</ele><time>2026-04-21T08:36:40.998Z</time></trkpt><trkpt lat="36.997609730312035" lon="-1.966209697306083"><ele>99.0</ele><time>2026-04-21T08:37:31.997Z</time></trkpt><trkpt lat="36.99761025298038" lon="-1.9663453131238475"><ele>99.0</ele><time>2026-04-21T08:37:33.997Z</time></trkpt><trkpt lat="36.997617846574755" lon="-1.9664289556678407"><ele>99.0</ele><time>2026-04-21T08:37:34.997Z</time></trkpt><trkpt lat="36.9976265480678" lon="-1.9665274579864724"><ele>99.0</ele><time>2026-04-21T08:37:35.997Z</time></trkpt><trkpt lat="36.99765275707402" lon="-1.9666369146946419"><ele>99.0</ele><time>2026-04-21T08:37:36.997Z</time></trkpt><trkpt lat="36.99769842216055" lon="-1.9667438530210573"><ele>99.0</ele><time>2026-04-21T08:37:37.997Z</time></trkpt><trkpt lat="36.99774581309103" lon="-1.9668532944003099"><ele>99.0</ele><time>2026-04-21T08:37:38.997Z</time></trkpt><trkpt lat="36.9977960079778" lon="-1.9669768325141572"><ele>100.25</ele><time>2026-04-21T08:37:39.997Z</time></trkpt><trkpt lat="36.99784197216319" lon="-1.9671082123403658"><ele>101.5</ele><time>2026-04-21T08:37:40.997Z</time></trkpt><trkpt lat="36.99787922372032" lon="-1.9672569833635498"><ele>102.75</ele><time>2026-04-21T08:37:41.997Z</time></trkpt><trkpt lat="36.99790194990119" lon="-1.9674223408561742"><ele>104.0</ele><time>2026-04-21T08:37:42.997Z</time></trkpt><trkpt lat="36.99792140899308" lon="-1.9676085558163365"><ele>105.33333333333333</ele><time>2026-04-21T08:37:43.997Z</time></trkpt><trkpt lat="36.99794591141492" lon="-1.9678085244682135"><ele>106.66666666666666</ele><time>2026-04-21T08:37:44.997Z</time></trkpt><trkpt lat="36.99796606637868" lon="-1.968003481289919"><ele>108.0</ele><time>2026-04-21T08:37:45.997Z</time></trkpt><trkpt lat="36.997979606325835" lon="-1.9681855409964146"><ele>108.0</ele><time>2026-04-21T08:37:46.997Z</time></trkpt><trkpt lat="36.99798715738457" lon="-1.9683422569029978"><ele>108.0</ele><time>2026-04-21T08:37:47.997Z</time></trkpt><trkpt lat="36.997994909581166" lon="-1.9684969916763817"><ele>108.0</ele><time>2026-04-21T08:37:48.997Z</time></trkpt><trkpt lat="36.99800230156562" lon="-1.968664345089247"><ele>108.0</ele><time>2026-04-21T08:37:49.997Z</time></trkpt><trkpt lat="36.998010842280145" lon="-1.9688420823746007"><ele>109.33333333333334</ele><time>2026-04-21T08:37:50.997Z</time></trkpt><trkpt lat="36.99802211970424" lon="-1.9690342465358885"><ele>110.66666666666667</ele><time>2026-04-21T08:37:51.997Z</time></trkpt><trkpt lat="36.9980305440141" lon="-1.9692438891531079"><ele>112.0</ele><time>2026-04-21T08:37:52.997Z</time></trkpt><trkpt lat="36.998028051005" lon="-1.9694391664546942"><ele>113.0</ele><time>2026-04-21T08:37:53.997Z</time></trkpt><trkpt lat="36.99803253750489" lon="-1.969615298170627"><ele>114.0</ele><time>2026-04-21T08:37:54.997Z</time></trkpt><trkpt lat="36.998028807191844" lon="-1.9697806997615661"><ele>115.0</ele><time>2026-04-21T08:37:55.997Z</time></trkpt><trkpt lat="36.99801122980606" lon="-1.9699433568296207"><ele>116.0</ele><time>2026-04-21T08:37:56.997Z</time></trkpt><trkpt lat="36.9979782673627" lon="-1.9701057766618206"><ele>117.5</ele><time>2026-04-21T08:37:57.997Z</time></trkpt><trkpt lat="36.997949768484276" lon="-1.9702777416554618"><ele>119.0</ele><time>2026-04-21T08:37:58.997Z</time></trkpt><trkpt lat="36.99793773254838" lon="-1.970454602389363"><ele>120.5</ele><time>2026-04-21T08:37:59.997Z</time></trkpt><trkpt lat="36.997939202959685" lon="-1.9706346775825698"><ele>122.0</ele><time>2026-04-21T08:38:00.997Z</time></trkpt><trkpt lat="36.997942042354495" lon="-1.9708198951083984"><ele>124.75</ele><time>2026-04-21T08:38:01.997Z</time></trkpt><trkpt lat="36.99794682059104" lon="-1.9710046936390708"><ele>127.5</ele><time>2026-04-21T08:38:02.997Z</time></trkpt><trkpt lat="36.997942479165495" lon="-1.9711852072972074"><ele>130.25</ele><time>2026-04-21T08:38:03.997Z</time></trkpt><trkpt lat="36.99793812319055" lon="-1.971349687266241"><ele>133.0</ele><time>2026-04-21T08:38:04.997Z</time></trkpt><trkpt lat="36.99793587004905" lon="-1.9715049234557662"><ele>133.0</ele><time>2026-04-21T08:38:05.997Z</time></trkpt><trkpt lat="36.99793077664992" lon="-1.9716446548477615"><ele>133.0</ele><time>2026-04-21T08:38:06.997Z</time></trkpt><trkpt lat="36.99792075891299" lon="-1.9717647190180514"><ele>133.0</ele><time>2026-04-21T08:38:07.997Z</time></trkpt><trkpt lat="36.99791797815055" lon="-1.9718661902660684"><ele>133.0</ele><time>2026-04-21T08:38:08.997Z</time></trkpt><trkpt lat="36.997919049054815" lon="-1.9719537725817782"><ele>133.0</ele><time>2026-04-21T08:38:09.997Z</time></trkpt><trkpt lat="36.99790316806106" lon="-1.972050892546474"><ele>133.0</ele><time>2026-04-21T08:38:11.997Z</time></trkpt><trkpt lat="36.99783711283343" lon="-1.9720378734807589"><ele>134.20000000000002</ele><time>2026-04-21T08:38:13.997Z</time></trkpt><trkpt lat="36.997786215055" lon="-1.9719845979252264"><ele>135.4</ele><time>2026-04-21T08:38:14.997Z</time></trkpt><trkpt lat="36.997723989195485" lon="-1.9719070517706099"><ele>136.60000000000002</ele><time>2026-04-21T08:38:15.997Z</time></trkpt><trkpt lat="36.99764877137915" lon="-1.9718349839075253"><ele>137.8</ele><time>2026-04-21T08:38:16.997Z</time></trkpt><trkpt lat="36.997570048135756" lon="-1.9717615469642056"><ele>139.0</ele><time>2026-04-21T08:38:17.997Z</time></trkpt><trkpt lat="36.997478328618996" lon="-1.9717003372887194"><ele>137.0</ele><time>2026-04-21T08:38:18.997Z</time></trkpt><trkpt lat="36.997377321522336" lon="-1.9716683568155557"><ele>135.0</ele><time>2026-04-21T08:38:19.997Z</time></trkpt><trkpt lat="36.997276472964494" lon="-1.9716623446408954"><ele>133.0</ele><time>2026-04-21T08:38:20.997Z</time></trkpt><trkpt lat="36.99716896531892" lon="-1.9716755063593066"><ele>131.0</ele><time>2026-04-21T08:38:21.997Z</time></trkpt><trkpt lat="36.997051611121776" lon="-1.9716843441122485"><ele>129.0</ele><time>2026-04-21T08:38:22.997Z</time></trkpt><trkpt lat="36.99693100859204" lon="-1.9716886479290112"><ele>131.5</ele><time>2026-04-21T08:38:23.997Z</time></trkpt><trkpt lat="36.996811446159306" lon="-1.971696789914417"><ele>134.0</ele><time>2026-04-21T08:38:24.997Z</time></trkpt><trkpt lat="36.996688721215904" lon="-1.9717079777833597"><ele>136.5</ele><time>2026-04-21T08:38:25.997Z</time></trkpt><trkpt lat="36.99656218012862" lon="-1.971719737989052"><ele>139.0</ele><time>2026-04-21T08:38:26.997Z</time></trkpt><trkpt lat="36.99643655274692" lon="-1.9717417141898042"><ele>139.0</ele><time>2026-04-21T08:38:27.997Z</time></trkpt><trkpt lat="36.99631958683313" lon="-1.971773203248923"><ele>139.0</ele><time>2026-04-21T08:38:28.997Z</time></trkpt><trkpt lat="36.99620913169507" lon="-1.9718048251129785"><ele>139.0</ele><time>2026-04-21T08:38:29.997Z</time></trkpt><trkpt lat="36.99610083300063" lon="-1.9718440175807963"><ele>139.0</ele><time>2026-04-21T08:38:30.997Z</time></trkpt><trkpt lat="36.99599024480147" lon="-1.9718892388276046"><ele>139.0</ele><time>2026-04-21T08:38:31.997Z</time></trkpt><trkpt lat="36.995881775996104" lon="-1.9719504882968588"><ele>139.0</ele><time>2026-04-21T08:38:32.997Z</time></trkpt><trkpt lat="36.99577832044934" lon="-1.9720187337903314"><ele>139.0</ele><time>2026-04-21T08:38:33.997Z</time></trkpt><trkpt lat="36.99567919800759" lon="-1.9720870272810176"><ele>139.0</ele><time>2026-04-21T08:38:34.997Z</time></trkpt><trkpt lat="36.99558425770234" lon="-1.9721492244545178"><ele>137.2</ele><time>2026-04-21T08:38:35.997Z</time></trkpt><trkpt lat="36.99549061896663" lon="-1.9722128063985263"><ele>135.4</ele><time>2026-04-21T08:38:36.997Z</time></trkpt><trkpt lat="36.99539465650282" lon="-1.9722751396593874"><ele>133.6</ele><time>2026-04-21T08:38:37.997Z</time></trkpt><trkpt lat="36.995293732607706" lon="-1.972340281869327"><ele>131.8</ele><time>2026-04-21T08:38:38.997Z</time></trkpt><trkpt lat="36.99519038738962" lon="-1.9724155467052293"><ele>130.0</ele><time>2026-04-21T08:38:39.997Z</time></trkpt><trkpt lat="36.99508964915253" lon="-1.9725030843056153"><ele>127.25</ele><time>2026-04-21T08:38:40.997Z</time></trkpt><trkpt lat="36.99498883963508" lon="-1.9726008748535127"><ele>124.5</ele><time>2026-04-21T08:38:41.997Z</time></trkpt><trkpt lat="36.994888156505795" lon="-1.9727102052775451"><ele>121.75</ele><time>2026-04-21T08:38:42.997Z</time></trkpt><trkpt lat="36.994783084522105" lon="-1.9728119492453444"><ele>119.0</ele><time>2026-04-21T08:38:43.997Z</time></trkpt><trkpt lat="36.99468456637073" lon="-1.9729159900257878"><ele>119.0</ele><time>2026-04-21T08:38:44.997Z</time></trkpt><trkpt lat="36.99459628726494" lon="-1.9730264566929951"><ele>119.0</ele><time>2026-04-21T08:38:45.996Z</time></trkpt><trkpt lat="36.99452124518206" lon="-1.9731428298445606"><ele>119.0</ele><time>2026-04-21T08:38:46.996Z</time></trkpt><trkpt lat="36.99445161181068" lon="-1.9732585924634358"><ele>119.0</ele><time>2026-04-21T08:38:47.996Z</time></trkpt><trkpt lat="36.99439407486327" lon="-1.9733799704001749"><ele>118.4</ele><time>2026-04-21T08:38:48.996Z</time></trkpt><trkpt lat="36.99437021536869" lon="-1.97352195031204"><ele>117.80000000000001</ele><time>2026-04-21T08:38:49.996Z</time></trkpt><trkpt lat="36.994348858931694" lon="-1.9736607299905815"><ele>117.19999999999999</ele><time>2026-04-21T08:38:50.996Z</time></trkpt><trkpt lat="36.994329682835044" lon="-1.9737797998812767"><ele>116.6</ele><time>2026-04-21T08:38:51.996Z</time></trkpt><trkpt lat="36.99431701293097" lon="-1.9738873298399078"><ele>116.0</ele><time>2026-04-21T08:38:52.996Z</time></trkpt><trkpt lat="36.99430871737369" lon="-1.9739884046403497"><ele>115.99999999999999</ele><time>2026-04-21T08:38:53.996Z</time></trkpt><trkpt lat="36.99431286543032" lon="-1.9740749704411371"><ele>116.0</ele><time>2026-04-21T08:38:54.996Z</time></trkpt><trkpt lat="36.99435489385899" lon="-1.9741506862169196"><ele>116.0</ele><time>2026-04-21T08:38:55.996Z</time></trkpt><trkpt lat="36.99441082907973" lon="-1.9742126305371777"><ele>116.0</ele><time>2026-04-21T08:38:56.996Z</time></trkpt><trkpt lat="36.9944596465628" lon="-1.9742685326834266"><ele>115.99999999999999</ele><time>2026-04-21T08:38:57.996Z</time></trkpt><trkpt lat="36.994533549304734" lon="-1.9743940283856487"><ele>116.0</ele><time>2026-04-21T08:38:59.996Z</time></trkpt><trkpt lat="36.99454945012447" lon="-1.9745422860797455"><ele>114.66666666666666</ele><time>2026-04-21T08:39:01.996Z</time></trkpt><trkpt lat="36.994553488851444" lon="-1.9746284649559287"><ele>113.33333333333333</ele><time>2026-04-21T08:39:03Z</time></trkpt><trkpt lat="36.9945546039674" lon="-1.9747189201584023"><ele>112.0</ele><time>2026-04-21T08:39:04Z</time></trkpt><trkpt lat="36.99455137441778" lon="-1.974804316660883"><ele>110.66666666666666</ele><time>2026-04-21T08:39:05Z</time></trkpt><trkpt lat="36.99454204830403" lon="-1.9748874111205508"><ele>109.33333333333333</ele><time>2026-04-21T08:39:06Z</time></trkpt><trkpt lat="36.994529784228895" lon="-1.9749658186396135"><ele>108.0</ele><time>2026-04-21T08:39:07Z</time></trkpt><trkpt lat="36.994504207843136" lon="-1.9751290423755208"><ele>107.4</ele><time>2026-04-21T08:39:09Z</time></trkpt><trkpt lat="36.994488294342894" lon="-1.9752236751811703"><ele>106.80000000000001</ele><time>2026-04-21T08:39:10Z</time></trkpt><trkpt lat="36.99446518057656" lon="-1.9753264158064845"><ele>106.2</ele><time>2026-04-21T08:39:11Z</time></trkpt><trkpt lat="36.994423557217026" lon="-1.9754381474796636"><ele>105.6</ele><time>2026-04-21T08:39:12Z</time></trkpt><trkpt lat="36.994376355062606" lon="-1.9755558311782881"><ele>105.0</ele><time>2026-04-21T08:39:13Z</time></trkpt><trkpt lat="36.99431268059589" lon="-1.975665103624432"><ele>105.0</ele><time>2026-04-21T08:39:14Z</time></trkpt><trkpt lat="36.99423152156973" lon="-1.975757086809084"><ele>105.0</ele><time>2026-04-21T08:39:15Z</time></trkpt><trkpt lat="36.9941501954802" lon="-1.975833993683774"><ele>105.0</ele><time>2026-04-21T08:39:16Z</time></trkpt><trkpt lat="36.994078379557955" lon="-1.975913426109671"><ele>105.0</ele><time>2026-04-21T08:39:17Z</time></trkpt><trkpt lat="36.99401699252757" lon="-1.9759920987596586"><ele>105.0</ele><time>2026-04-21T08:39:18Z</time></trkpt><trkpt lat="36.99396692638806" lon="-1.9760734234886523"><ele>106.0</ele><time>2026-04-21T08:39:19Z</time></trkpt><trkpt lat="36.99393338903049" lon="-1.976149468327254"><ele>107.0</ele><time>2026-04-21T08:39:20Z</time></trkpt><trkpt lat="36.99389401525333" lon="-1.9762644609280908"><ele>108.0</ele><time>2026-04-21T08:39:22Z</time></trkpt><trkpt lat="36.99386419214448" lon="-1.9763748741920812"><ele>109.0</ele><time>2026-04-21T08:39:25Z</time></trkpt><trkpt lat="36.993832235031824" lon="-1.9764738656550032"><ele>110.0</ele><time>2026-04-21T08:39:27Z</time></trkpt><trkpt lat="36.99385691790442" lon="-1.976569228203865"><ele>111.0</ele><time>2026-04-21T08:39:29Z</time></trkpt><trkpt lat="36.99394609837486" lon="-1.9766855603447648"><ele>111.6</ele><time>2026-04-21T08:39:31Z</time></trkpt><trkpt lat="36.99398614309434" lon="-1.9767569916394052"><ele>112.19999999999999</ele><time>2026-04-21T08:39:32Z</time></trkpt><trkpt lat="36.99402314734238" lon="-1.9768530300586886"><ele>112.80000000000001</ele><time>2026-04-21T08:39:33Z</time></trkpt><trkpt lat="36.994043348489484" lon="-1.9769822635538443"><ele>113.4</ele><time>2026-04-21T08:39:34Z</time></trkpt><trkpt lat="36.99407827999876" lon="-1.9771217767424945"><ele>114.0</ele><time>2026-04-21T08:39:35Z</time></trkpt><trkpt lat="36.99410383559895" lon="-1.9772649614792581"><ele>114.0</ele><time>2026-04-21T08:39:36Z</time></trkpt><trkpt lat="36.994133619674685" lon="-1.9774078966305"><ele>114.0</ele><time>2026-04-21T08:39:37Z</time></trkpt><trkpt lat="36.99416112238471" lon="-1.977560946547408"><ele>114.0</ele><time>2026-04-21T08:39:38Z</time></trkpt><trkpt lat="36.99418189008663" lon="-1.9777447450669743"><ele>114.0</ele><time>2026-04-21T08:39:39Z</time></trkpt><trkpt lat="36.99418753258929" lon="-1.977960864671747"><ele>113.0</ele><time>2026-04-21T08:39:40Z</time></trkpt><trkpt lat="36.994179013052445" lon="-1.9781749904735872"><ele>112.0</ele><time>2026-04-21T08:39:41Z</time></trkpt><trkpt lat="36.994155628823236" lon="-1.9783704444101118"><ele>111.0</ele><time>2026-04-21T08:39:42Z</time></trkpt><trkpt lat="36.994128459767616" lon="-1.97855495266545"><ele>113.5</ele><time>2026-04-21T08:39:43Z</time></trkpt><trkpt lat="36.99409902490788" lon="-1.9787234048590345"><ele>116.0</ele><time>2026-04-21T08:39:44Z</time></trkpt><trkpt lat="36.99405362517699" lon="-1.9788674671699125"><ele>118.5</ele><time>2026-04-21T08:39:45Z</time></trkpt><trkpt lat="36.994011082814396" lon="-1.9789885590609133"><ele>121.0</ele><time>2026-04-21T08:39:46Z</time></trkpt><trkpt lat="36.9939784333816" lon="-1.979085746611399"><ele>121.00000000000001</ele><time>2026-04-21T08:39:47Z</time></trkpt><trkpt lat="36.99392280526868" lon="-1.9791702549981125"><ele>121.0</ele><time>2026-04-21T08:39:48Z</time></trkpt><trkpt lat="36.993853476598446" lon="-1.9792660913002178"><ele>121.0</ele><time>2026-04-21T08:39:49Z</time></trkpt><trkpt lat="36.99382148950375" lon="-1.9793677283423046"><ele>121.0</ele><time>2026-04-21T08:39:50Z</time></trkpt><trkpt lat="36.99381559734401" lon="-1.9794619864719956"><ele>121.00000000000001</ele><time>2026-04-21T08:39:51Z</time></trkpt><trkpt lat="36.993798181611915" lon="-1.9795450322918648"><ele>121.0</ele><time>2026-04-21T08:39:52Z</time></trkpt><trkpt lat="36.99373250901333" lon="-1.979661745937089"><ele>121.00000000000001</ele><time>2026-04-21T08:39:54Z</time></trkpt><trkpt lat="36.99370222827443" lon="-1.9797451605657725"><ele>121.0</ele><time>2026-04-21T08:39:55Z</time></trkpt><trkpt lat="36.99364584816319" lon="-1.979785264923695"><ele>121.0</ele><time>2026-04-21T08:39:56Z</time></trkpt><trkpt lat="36.99353156260448" lon="-1.979900362711166"><ele>121.0</ele><time>2026-04-21T08:39:58Z</time></trkpt><trkpt lat="36.993518452806896" lon="-1.9799786050921735"><ele>121.00000000000001</ele><time>2026-04-21T08:39:59Z</time></trkpt><trkpt lat="36.993511272182346" lon="-1.9800627185953454"><ele>121.0</ele><time>2026-04-21T08:40:00Z</time></trkpt><trkpt lat="36.99350057025674" lon="-1.9801520029859403"><ele>119.8</ele><time>2026-04-21T08:40:01Z</time></trkpt><trkpt lat="36.9934848441567" lon="-1.9802487340077919"><ele>118.6</ele><time>2026-04-21T08:40:02Z</time></trkpt><trkpt lat="36.99347848756215" lon="-1.9803443625279051"><ele>117.4</ele><time>2026-04-21T08:40:03Z</time></trkpt><trkpt lat="36.99345499919188" lon="-1.9804605865105975"><ele>116.2</ele><time>2026-04-21T08:40:04Z</time></trkpt><trkpt lat="36.99344311443641" lon="-1.9805950299440906"><ele>115.0</ele><time>2026-04-21T08:40:05Z</time></trkpt><trkpt lat="36.99340327928968" lon="-1.980725704390924"><ele>113.5</ele><time>2026-04-21T08:40:06Z</time></trkpt><trkpt lat="36.99335718052771" lon="-1.9808624483715038"><ele>112.0</ele><time>2026-04-21T08:40:07Z</time></trkpt><trkpt lat="36.99330091684418" lon="-1.9809972713443886"><ele>110.5</ele><time>2026-04-21T08:40:08Z</time></trkpt><trkpt lat="36.993256782356596" lon="-1.9811332149082226"><ele>109.0</ele><time>2026-04-21T08:40:09Z</time></trkpt><trkpt lat="36.99323022794259" lon="-1.9812703564783705"><ele>110.80000000000001</ele><time>2026-04-21T08:40:10Z</time></trkpt><trkpt lat="36.99318079606179" lon="-1.9814074842972742"><ele>112.60000000000001</ele><time>2026-04-21T08:40:11Z</time></trkpt><trkpt lat="36.99310818867018" lon="-1.9814986384296764"><ele>114.4</ele><time>2026-04-21T08:40:12Z</time></trkpt><trkpt lat="36.993035282167114" lon="-1.9816148758399648"><ele>116.2</ele><time>2026-04-21T08:40:13Z</time></trkpt><trkpt lat="36.99299162603111" lon="-1.9817344530204064"><ele>118.0</ele><time>2026-04-21T08:40:14Z</time></trkpt><trkpt lat="36.992950750015886" lon="-1.981845465216231"><ele>118.0</ele><time>2026-04-21T08:40:15Z</time></trkpt><trkpt lat="36.99289908576269" lon="-1.9819665433133173"><ele>118.00000000000001</ele><time>2026-04-21T08:40:16Z</time></trkpt><trkpt lat="36.99286252563983" lon="-1.9820779823791275"><ele>118.00000000000001</ele><time>2026-04-21T08:40:17Z</time></trkpt><trkpt lat="36.99280802298767" lon="-1.982161696495153"><ele>118.0</ele><time>2026-04-21T08:40:18Z</time></trkpt><trkpt lat="36.99273004037825" lon="-1.9822361476688932"><ele>118.0</ele><time>2026-04-21T08:40:19Z</time></trkpt><trkpt lat="36.992635669102896" lon="-1.982314841442077"><ele>118.0</ele><time>2026-04-21T08:40:20Z</time></trkpt><trkpt lat="36.99253453981029" lon="-1.9823861749696492"><ele>118.0</ele><time>2026-04-21T08:40:21Z</time></trkpt><trkpt lat="36.99242196877281" lon="-1.9824533992516344"><ele>118.0</ele><time>2026-04-21T08:40:22Z</time></trkpt><trkpt lat="36.99231926266483" lon="-1.9825277885343402"><ele>118.0</ele><time>2026-04-21T08:40:23Z</time></trkpt><trkpt lat="36.99222834693262" lon="-1.9826000383804243"><ele>120.60000000000001</ele><time>2026-04-21T08:40:24Z</time></trkpt><trkpt lat="36.992137564057266" lon="-1.9826678164236553"><ele>123.20000000000002</ele><time>2026-04-21T08:40:25Z</time></trkpt><trkpt lat="36.992029619626635" lon="-1.982701359824297"><ele>125.8</ele><time>2026-04-21T08:40:26Z</time></trkpt><trkpt lat="36.991935856084226" lon="-1.9827339353837579"><ele>128.4</ele><time>2026-04-21T08:40:27Z</time></trkpt><trkpt lat="36.991852438386104" lon="-1.9827672432519925"><ele>131.0</ele><time>2026-04-21T08:40:28Z</time></trkpt><trkpt lat="36.99178133409463" lon="-1.9828133034052093"><ele>131.0</ele><time>2026-04-21T08:40:29Z</time></trkpt><trkpt lat="36.991727028446284" lon="-1.9828903614252948"><ele>131.0</ele><time>2026-04-21T08:40:30Z</time></trkpt><trkpt lat="36.99166231523263" lon="-1.9829563595103143"><ele>131.0</ele><time>2026-04-21T08:40:31Z</time></trkpt><trkpt lat="36.99162508009185" lon="-1.9830610196696887"><ele>131.0</ele><time>2026-04-21T08:40:32Z</time></trkpt><trkpt lat="36.991596380952544" lon="-1.9831544920837312"><ele>131.0</ele><time>2026-04-21T08:40:33Z</time></trkpt><trkpt lat="36.991570414384476" lon="-1.9832611696352054"><ele>131.0</ele><time>2026-04-21T08:40:34Z</time></trkpt><trkpt lat="36.99153034563471" lon="-1.9833700725054295"><ele>134.0</ele><time>2026-04-21T08:40:35Z</time></trkpt><trkpt lat="36.991487875350025" lon="-1.983490399612348"><ele>137.0</ele><time>2026-04-21T08:40:36Z</time></trkpt><trkpt lat="36.991458398313505" lon="-1.9836072474531872"><ele>140.0</ele><time>2026-04-21T08:40:37Z</time></trkpt><trkpt lat="36.9914210289848" lon="-1.9837221374516907"><ele>143.0</ele><time>2026-04-21T08:40:38Z</time></trkpt><trkpt lat="36.99139564394965" lon="-1.9838368929188333"><ele>146.0</ele><time>2026-04-21T08:40:39Z</time></trkpt><trkpt lat="36.99136237058903" lon="-1.9839491359053623"><ele>146.0</ele><time>2026-04-21T08:40:40Z</time></trkpt><trkpt lat="36.99132122808802" lon="-1.9840634093086182"><ele>146.0</ele><time>2026-04-21T08:40:41Z</time></trkpt><trkpt lat="36.991280704756555" lon="-1.9841780520266152"><ele>146.0</ele><time>2026-04-21T08:40:42Z</time></trkpt><trkpt lat="36.99123725011494" lon="-1.9842890935459552"><ele>146.0</ele><time>2026-04-21T08:40:43Z</time></trkpt><trkpt lat="36.99116616834239" lon="-1.9843808203229731"><ele>146.0</ele><time>2026-04-21T08:40:44Z</time></trkpt><trkpt lat="36.99113191546645" lon="-1.9844888535767904"><ele>143.0</ele><time>2026-04-21T08:40:45Z</time></trkpt><trkpt lat="36.991099329408776" lon="-1.9845986928864048"><ele>140.0</ele><time>2026-04-21T08:40:46Z</time></trkpt><trkpt lat="36.99110578136599" lon="-1.9847046902549683"><ele>137.0</ele><time>2026-04-21T08:40:46.999Z</time></trkpt><trkpt lat="36.99110807652558" lon="-1.9848216093021671"><ele>134.0</ele><time>2026-04-21T08:40:47.999Z</time></trkpt><trkpt lat="36.991133436340796" lon="-1.9849350264707593"><ele>131.0</ele><time>2026-04-21T08:40:48.999Z</time></trkpt><trkpt lat="36.99117508501539" lon="-1.985042653811657"><ele>130.0</ele><time>2026-04-21T08:40:49.999Z</time></trkpt><trkpt lat="36.99119954752605" lon="-1.985154096965738"><ele>129.0</ele><time>2026-04-21T08:40:50.999Z</time></trkpt><trkpt lat="36.991225479553975" lon="-1.9852696531867995"><ele>128.0</ele><time>2026-04-21T08:40:51.999Z</time></trkpt><trkpt lat="36.991260162660964" lon="-1.985383998239598"><ele>127.0</ele><time>2026-04-21T08:40:52.999Z</time></trkpt><trkpt lat="36.991287055060056" lon="-1.9855144618747802"><ele>126.0</ele><time>2026-04-21T08:40:53.999Z</time></trkpt><trkpt lat="36.99128594784654" lon="-1.9856510742122435"><ele>126.0</ele><time>2026-04-21T08:40:54.999Z</time></trkpt><trkpt lat="36.99126741534051" lon="-1.9857778236797718"><ele>126.0</ele><time>2026-04-21T08:40:55.999Z</time></trkpt><trkpt lat="36.99123069406757" lon="-1.9859035907987508"><ele>126.0</ele><time>2026-04-21T08:40:56.999Z</time></trkpt><trkpt lat="36.99121418672314" lon="-1.9860301092760733"><ele>126.0</ele><time>2026-04-21T08:40:57.999Z</time></trkpt><trkpt lat="36.991189728401025" lon="-1.9861641014818068"><ele>126.0</ele><time>2026-04-21T08:40:58.999Z</time></trkpt><trkpt lat="36.99114554687244" lon="-1.986307449938084"><ele>125.0</ele><time>2026-04-21T08:40:59.999Z</time></trkpt><trkpt lat="36.99110405332065" lon="-1.9864703228443545"><ele>124.0</ele><time>2026-04-21T08:41:00.999Z</time></trkpt><trkpt lat="36.991036305716186" lon="-1.9866523515293655"><ele>123.0</ele><time>2026-04-21T08:41:01.999Z</time></trkpt><trkpt lat="36.99097714548996" lon="-1.9868423263200414"><ele>123.0</ele><time>2026-04-21T08:41:02.999Z</time></trkpt><trkpt lat="36.99091001200456" lon="-1.9870292326877852"><ele>123.0</ele><time>2026-04-21T08:41:03.999Z</time></trkpt><trkpt lat="36.99085812078955" lon="-1.9872179269985355"><ele>123.0</ele><time>2026-04-21T08:41:04.999Z</time></trkpt><trkpt lat="36.99081193347328" lon="-1.9874007433132974"><ele>125.25</ele><time>2026-04-21T08:41:05.999Z</time></trkpt><trkpt lat="36.990753449804124" lon="-1.9875785840393367"><ele>127.5</ele><time>2026-04-21T08:41:06.999Z</time></trkpt><trkpt lat="36.99068886338546" lon="-1.987734283402444"><ele>129.75</ele><time>2026-04-21T08:41:07.999Z</time></trkpt><trkpt lat="36.990630100254" lon="-1.9878827437571862"><ele>132.0</ele><time>2026-04-21T08:41:08.999Z</time></trkpt><trkpt lat="36.990586354261566" lon="-1.9880238267776134"><ele>132.0</ele><time>2026-04-21T08:41:09.999Z</time></trkpt><trkpt lat="36.990544723262765" lon="-1.9881439943312176"><ele>132.0</ele><time>2026-04-21T08:41:10.999Z</time></trkpt><trkpt lat="36.99051724533345" lon="-1.9882697572812131"><ele>132.0</ele><time>2026-04-21T08:41:11.999Z</time></trkpt><trkpt lat="36.99049683936649" lon="-1.9883972525504767"><ele>132.0</ele><time>2026-04-21T08:41:12.999Z</time></trkpt><trkpt lat="36.990488979297034" lon="-1.9885438685130352"><ele>132.0</ele><time>2026-04-21T08:41:13.999Z</time></trkpt><trkpt lat="36.990506613429545" lon="-1.9886816456882834"><ele>132.4</ele><time>2026-04-21T08:41:14.999Z</time></trkpt><trkpt lat="36.990533363201216" lon="-1.9888105722651488"><ele>132.79999999999998</ele><time>2026-04-21T08:41:15.999Z</time></trkpt><trkpt lat="36.99054506927623" lon="-1.9889395427491199"><ele>133.2</ele><time>2026-04-21T08:41:16.999Z</time></trkpt><trkpt lat="36.990570481081456" lon="-1.9890761997800157"><ele>133.6</ele><time>2026-04-21T08:41:17.999Z</time></trkpt><trkpt lat="36.990606134803244" lon="-1.9892169412652962"><ele>134.0</ele><time>2026-04-21T08:41:18.999Z</time></trkpt><trkpt lat="36.99063260800839" lon="-1.9893715595575643"><ele>135.25</ele><time>2026-04-21T08:41:19.999Z</time></trkpt><trkpt lat="36.99064656653469" lon="-1.9895431280277878"><ele>136.5</ele><time>2026-04-21T08:41:20.999Z</time></trkpt><trkpt lat="36.990678564895866" lon="-1.98969176686705"><ele>137.75</ele><time>2026-04-21T08:41:21.999Z</time></trkpt><trkpt lat="36.990711429500784" lon="-1.9898285699490472"><ele>139.0</ele><time>2026-04-21T08:41:22.999Z</time></trkpt><trkpt lat="36.99074408340793" lon="-1.989952728794062"><ele>140.0</ele><time>2026-04-21T08:41:23.999Z</time></trkpt><trkpt lat="36.990764720486844" lon="-1.9900646479194062"><ele>141.0</ele><time>2026-04-21T08:41:24.999Z</time></trkpt><trkpt lat="36.99077121519904" lon="-1.9901883368415954"><ele>142.0</ele><time>2026-04-21T08:41:25.999Z</time></trkpt><trkpt lat="36.99075085555527" lon="-1.9903090575746054"><ele>143.0</ele><time>2026-04-21T08:41:26.999Z</time></trkpt><trkpt lat="36.990731809551676" lon="-1.9904304246229638"><ele>144.0</ele><time>2026-04-21T08:41:27.999Z</time></trkpt><trkpt lat="36.990719260689765" lon="-1.9905439198031067"><ele>144.0</ele><time>2026-04-21T08:41:28.998Z</time></trkpt><trkpt lat="36.990716204234346" lon="-1.9906462787367418"><ele>144.0</ele><time>2026-04-21T08:41:29.998Z</time></trkpt><trkpt lat="36.99073135419923" lon="-1.9907411512923288"><ele>144.0</ele><time>2026-04-21T08:41:30.998Z</time></trkpt><trkpt lat="36.990773950177086" lon="-1.9908289967846708"><ele>144.0</ele><time>2026-04-21T08:41:31.998Z</time></trkpt><trkpt lat="36.990852932912006" lon="-1.9908996451944396"><ele>144.0</ele><time>2026-04-21T08:41:32.998Z</time></trkpt><trkpt lat="36.99093092425509" lon="-1.9909650298347912"><ele>144.0</ele><time>2026-04-21T08:41:33.998Z</time></trkpt><trkpt lat="36.99101487309098" lon="-1.9910137407667663"><ele>142.6</ele><time>2026-04-21T08:41:34.998Z</time></trkpt><trkpt lat="36.9910924619643" lon="-1.9910623311818483"><ele>141.2</ele><time>2026-04-21T08:41:35.998Z</time></trkpt><trkpt lat="36.991166697156" lon="-1.9911369684647116"><ele>139.79999999999998</ele><time>2026-04-21T08:41:36.998Z</time></trkpt><trkpt lat="36.99121981365921" lon="-1.991249139236073"><ele>138.4</ele><time>2026-04-21T08:41:37.998Z</time></trkpt><trkpt lat="36.99128363220883" lon="-1.9913562722029716"><ele>137.0</ele><time>2026-04-21T08:41:38.998Z</time></trkpt><trkpt lat="36.99134911256405" lon="-1.9914635341239335"><ele>137.0</ele><time>2026-04-21T08:41:39.998Z</time></trkpt><trkpt lat="36.99141328036536" lon="-1.991572791402322"><ele>137.0</ele><time>2026-04-21T08:41:40.998Z</time></trkpt><trkpt lat="36.991469131274876" lon="-1.9916690037794533"><ele>137.0</ele><time>2026-04-21T08:41:41.998Z</time></trkpt><trkpt lat="36.991521592364165" lon="-1.9917646814269852"><ele>137.0</ele><time>2026-04-21T08:41:42.998Z</time></trkpt><trkpt lat="36.991577325342" lon="-1.9918400029270877"><ele>137.0</ele><time>2026-04-21T08:41:43.998Z</time></trkpt><trkpt lat="36.99162970644081" lon="-1.991911727580914"><ele>137.16666666666666</ele><time>2026-04-21T08:41:44.998Z</time></trkpt><trkpt lat="36.9916467180017" lon="-1.9919895550877944"><ele>137.33333333333331</ele><time>2026-04-21T08:41:45.998Z</time></trkpt><trkpt lat="36.99164126003697" lon="-1.9921228326303373"><ele>137.5</ele><time>2026-04-21T08:41:47.998Z</time></trkpt><trkpt lat="36.991626697567206" lon="-1.9922010888719242"><ele>137.66666666666666</ele><time>2026-04-21T08:41:48.998Z</time></trkpt><trkpt lat="36.99161522070835" lon="-1.9922871107674043"><ele>137.83333333333334</ele><time>2026-04-21T08:41:49.998Z</time></trkpt><trkpt lat="36.99159662327308" lon="-1.9923833968527358"><ele>138.0</ele><time>2026-04-21T08:41:50.998Z</time></trkpt><trkpt lat="36.99157021787625" lon="-1.9924836458640098"><ele>137.83333333333334</ele><time>2026-04-21T08:41:51.998Z</time></trkpt><trkpt lat="36.99153813180122" lon="-1.9925804930090214"><ele>137.66666666666666</ele><time>2026-04-21T08:41:52.998Z</time></trkpt><trkpt lat="36.991481458857315" lon="-1.9926542836897039"><ele>137.5</ele><time>2026-04-21T08:41:53.998Z</time></trkpt><trkpt lat="36.991446678751615" lon="-1.9927435013578942"><ele>137.33333333333331</ele><time>2026-04-21T08:41:54.998Z</time></trkpt><trkpt lat="36.991423002390675" lon="-1.9928331461584792"><ele>137.16666666666666</ele><time>2026-04-21T08:41:55.998Z</time></trkpt><trkpt lat="36.99140307574927" lon="-1.9929182409549844"><ele>137.0</ele><time>2026-04-21T08:41:56.998Z</time></trkpt><trkpt lat="36.99139076765659" lon="-1.993007537040999"><ele>137.0</ele><time>2026-04-21T08:41:57.998Z</time></trkpt><trkpt lat="36.991358504304564" lon="-1.9930806564236807"><ele>137.0</ele><time>2026-04-21T08:41:58.998Z</time></trkpt><trkpt lat="36.99130948202418" lon="-1.9932252685564569"><ele>137.0</ele><time>2026-04-21T08:42:00.998Z</time></trkpt><trkpt lat="36.9912694144359" lon="-1.9932937746577712"><ele>137.0</ele><time>2026-04-21T08:42:01.998Z</time></trkpt><trkpt lat="36.99120686361376" lon="-1.9933116690763295"><ele>137.0</ele><time>2026-04-21T08:42:02.998Z</time></trkpt><trkpt lat="36.9911539670175" lon="-1.9933624982065556"><ele>137.0</ele><time>2026-04-21T08:42:03.998Z</time></trkpt><trkpt lat="36.991102175182775" lon="-1.993418263736318"><ele>137.71428571428572</ele><time>2026-04-21T08:42:04.998Z</time></trkpt><trkpt lat="36.99105018686497" lon="-1.9934636342541714"><ele>138.42857142857144</ele><time>2026-04-21T08:42:05.998Z</time></trkpt><trkpt lat="36.99100357420132" lon="-1.9935265047261066"><ele>139.14285714285714</ele><time>2026-04-21T08:42:06.998Z</time></trkpt><trkpt lat="36.99095947048079" lon="-1.9935948304323545"><ele>139.85714285714286</ele><time>2026-04-21T08:42:07.998Z</time></trkpt><trkpt lat="36.99089429038733" lon="-1.9936554752239317"><ele>140.57142857142856</ele><time>2026-04-21T08:42:08.998Z</time></trkpt><trkpt lat="36.99082789604775" lon="-1.9937041597410357"><ele>141.28571428571428</ele><time>2026-04-21T08:42:09.998Z</time></trkpt><trkpt lat="36.99076845716588" lon="-1.9937429536548643"><ele>142.0</ele><time>2026-04-21T08:42:10.998Z</time></trkpt><trkpt lat="36.990703749916705" lon="-1.9937847332431853"><ele>143.14285714285714</ele><time>2026-04-21T08:42:11.998Z</time></trkpt><trkpt lat="36.99063884703274" lon="-1.9938241369276841"><ele>144.28571428571428</ele><time>2026-04-21T08:42:12.998Z</time></trkpt><trkpt lat="36.990569791697176" lon="-1.9938487536823055"><ele>145.42857142857142</ele><time>2026-04-21T08:42:13.998Z</time></trkpt><trkpt lat="36.99050873926464" lon="-1.9938791677309715"><ele>146.57142857142856</ele><time>2026-04-21T08:42:14.998Z</time></trkpt><trkpt lat="36.9904479566767" lon="-1.993925142849762"><ele>147.71428571428572</ele><time>2026-04-21T08:42:15.998Z</time></trkpt><trkpt lat="36.99037824342905" lon="-1.993967309563495"><ele>148.85714285714283</ele><time>2026-04-21T08:42:16.998Z</time></trkpt><trkpt lat="36.99031183087231" lon="-1.9940043349865029"><ele>150.0</ele><time>2026-04-21T08:42:17.998Z</time></trkpt><trkpt lat="36.99024803862206" lon="-1.9940623519767602"><ele>150.0</ele><time>2026-04-21T08:42:18.998Z</time></trkpt><trkpt lat="36.99018607852386" lon="-1.9941192846791873"><ele>150.0</ele><time>2026-04-21T08:42:19.998Z</time></trkpt><trkpt lat="36.990129888921125" lon="-1.994198972258904"><ele>150.0</ele><time>2026-04-21T08:42:20.998Z</time></trkpt><trkpt lat="36.9900575202499" lon="-1.9942762316783849"><ele>150.0</ele><time>2026-04-21T08:42:21.998Z</time></trkpt><trkpt lat="36.98999990624389" lon="-1.9943635879184591"><ele>150.0</ele><time>2026-04-21T08:42:22.998Z</time></trkpt><trkpt lat="36.989943988025765" lon="-1.9944549920628691"><ele>150.0</ele><time>2026-04-21T08:42:23.998Z</time></trkpt><trkpt lat="36.98989241893836" lon="-1.994547914733443"><ele>151.33333333333334</ele><time>2026-04-21T08:42:24.998Z</time></trkpt><trkpt lat="36.989847356370824" lon="-1.9946340019446367"><ele>152.66666666666666</ele><time>2026-04-21T08:42:25.998Z</time></trkpt><trkpt lat="36.98980575322885" lon="-1.9947313839502288"><ele>154.0</ele><time>2026-04-21T08:42:26.998Z</time></trkpt><trkpt lat="36.98976251795476" lon="-1.9948103382475062"><ele>155.33333333333331</ele><time>2026-04-21T08:42:27.998Z</time></trkpt><trkpt lat="36.98970188252097" lon="-1.9948848753182786"><ele>156.66666666666666</ele><time>2026-04-21T08:42:28.998Z</time></trkpt><trkpt lat="36.98965188485601" lon="-1.994957076514801"><ele>158.0</ele><time>2026-04-21T08:42:29.998Z</time></trkpt><trkpt lat="36.98958604315932" lon="-1.9949974906321217"><ele>157.42857142857144</ele><time>2026-04-21T08:42:30.998Z</time></trkpt><trkpt lat="36.98952204403211" lon="-1.9950371884221225"><ele>156.85714285714286</ele><time>2026-04-21T08:42:31.998Z</time></trkpt><trkpt lat="36.98946482748119" lon="-1.9950965045387123"><ele>156.28571428571428</ele><time>2026-04-21T08:42:32.998Z</time></trkpt><trkpt lat="36.9894130536199" lon="-1.9951653390170145"><ele>155.71428571428572</ele><time>2026-04-21T08:42:33.998Z</time></trkpt><trkpt lat="36.989363641162484" lon="-1.9952243807557102"><ele>155.14285714285714</ele><time>2026-04-21T08:42:34.997Z</time></trkpt><trkpt lat="36.989309068870014" lon="-1.9952688236729978"><ele>154.57142857142858</ele><time>2026-04-21T08:42:35.997Z</time></trkpt><trkpt lat="36.98924835606937" lon="-1.9953217272417214"><ele>154.0</ele><time>2026-04-21T08:42:36.997Z</time></trkpt><trkpt lat="36.98918839452846" lon="-1.995372577373894"><ele>154.5</ele><time>2026-04-21T08:42:37.997Z</time></trkpt><trkpt lat="36.989131726257135" lon="-1.9954347898352152"><ele>155.0</ele><time>2026-04-21T08:42:38.997Z</time></trkpt><trkpt lat="36.989062597382414" lon="-1.9955183541733195"><ele>155.5</ele><time>2026-04-21T08:42:39.997Z</time></trkpt><trkpt lat="36.989009928332514" lon="-1.9955837161691132"><ele>156.0</ele><time>2026-04-21T08:42:40.997Z</time></trkpt><trkpt lat="36.988951465949725" lon="-1.9956628400715641"><ele>156.5</ele><time>2026-04-21T08:42:41.997Z</time></trkpt><trkpt lat="36.9889074305676" lon="-1.99572099219049"><ele>157.0</ele><time>2026-04-21T08:42:42.997Z</time></trkpt><trkpt lat="36.98885580899215" lon="-1.9958016046096603"><ele>156.66666666666669</ele><time>2026-04-21T08:42:43.997Z</time></trkpt><trkpt lat="36.98878369847655" lon="-1.9958661503142916"><ele>156.33333333333334</ele><time>2026-04-21T08:42:44.997Z</time></trkpt><trkpt lat="36.988737703660036" lon="-1.995940552637711"><ele>156.0</ele><time>2026-04-21T08:42:45.997Z</time></trkpt><trkpt lat="36.988678086083134" lon="-1.996028979240374"><ele>155.66666666666666</ele><time>2026-04-21T08:42:46.997Z</time></trkpt><trkpt lat="36.9886308476859" lon="-1.9961167592922828"><ele>155.33333333333331</ele><time>2026-04-21T08:42:47.997Z</time></trkpt><trkpt lat="36.988586808237415" lon="-1.9961968516720725"><ele>155.0</ele><time>2026-04-21T08:42:48.997Z</time></trkpt><trkpt lat="36.98854054908504" lon="-1.996276630287067"><ele>155.0</ele><time>2026-04-21T08:42:49.997Z</time></trkpt><trkpt lat="36.98849314266746" lon="-1.9963431486016752"><ele>155.0</ele><time>2026-04-21T08:42:50.997Z</time></trkpt><trkpt lat="36.98843827825911" lon="-1.9964083282767875"><ele>155.0</ele><time>2026-04-21T08:42:51.997Z</time></trkpt><trkpt lat="36.98837571227272" lon="-1.9964753553597556"><ele>155.0</ele><time>2026-04-21T08:42:52.997Z</time></trkpt><trkpt lat="36.988310596702505" lon="-1.996542538818084"><ele>155.0</ele><time>2026-04-21T08:42:53.997Z</time></trkpt><trkpt lat="36.98818717357251" lon="-1.9966269136835726"><ele>156.33333333333331</ele><time>2026-04-21T08:42:55.997Z</time></trkpt><trkpt lat="36.98812463188514" lon="-1.9966641969834433"><ele>157.66666666666666</ele><time>2026-04-21T08:42:56.997Z</time></trkpt><trkpt lat="36.98806318121557" lon="-1.9967047771350965"><ele>159.0</ele><time>2026-04-21T08:42:57.997Z</time></trkpt><trkpt lat="36.98800371629082" lon="-1.9967787365314973"><ele>160.33333333333334</ele><time>2026-04-21T08:42:58.997Z</time></trkpt><trkpt lat="36.98796602935952" lon="-1.9968660801603566"><ele>161.66666666666669</ele><time>2026-04-21T08:42:59.997Z</time></trkpt><trkpt lat="36.98795234494439" lon="-1.9969618363215724"><ele>163.0</ele><time>2026-04-21T08:43:00.997Z</time></trkpt><trkpt lat="36.987915182844525" lon="-1.9971164962176176"><ele>163.0</ele><time>2026-04-21T08:43:02.997Z</time></trkpt><trkpt lat="36.98788320695904" lon="-1.9972165177496863"><ele>163.0</ele><time>2026-04-21T08:43:03.997Z</time></trkpt><trkpt lat="36.98785859083029" lon="-1.9973141396421568"><ele>163.0</ele><time>2026-04-21T08:43:04.997Z</time></trkpt><trkpt lat="36.987829088469105" lon="-1.997410002981001"><ele>163.0</ele><time>2026-04-21T08:43:05.997Z</time></trkpt><trkpt lat="36.987797290095365" lon="-1.997500061912456"><ele>163.0</ele><time>2026-04-21T08:43:06.997Z</time></trkpt><trkpt lat="36.98776919431339" lon="-1.9975783686010569"><ele>163.0</ele><time>2026-04-21T08:43:07.997Z</time></trkpt><trkpt lat="36.98771400432385" lon="-1.9977030396371573"><ele>163.4</ele><time>2026-04-21T08:43:09.997Z</time></trkpt><trkpt lat="36.9876426420975" lon="-1.9978078347156083"><ele>163.8</ele><time>2026-04-21T08:43:11.997Z</time></trkpt><trkpt lat="36.98754160613219" lon="-1.9978788836121968"><ele>164.2</ele><time>2026-04-21T08:43:13.997Z</time></trkpt><trkpt lat="36.98743992804335" lon="-1.997954967027649"><ele>164.6</ele><time>2026-04-21T08:43:15.997Z</time></trkpt><trkpt lat="36.9873737673924" lon="-1.997998252594336"><ele>165.0</ele><time>2026-04-21T08:43:16.997Z</time></trkpt><trkpt lat="36.98731816832755" lon="-1.998039044858726"><ele>165.00000000000003</ele><time>2026-04-21T08:43:17.997Z</time></trkpt><trkpt lat="36.987262875575766" lon="-1.998082853095662"><ele>165.0</ele><time>2026-04-21T08:43:18.997Z</time></trkpt><trkpt lat="36.98720414873006" lon="-1.998132189360456"><ele>165.0</ele><time>2026-04-21T08:43:19.997Z</time></trkpt><trkpt lat="36.98714768167873" lon="-1.998176312811969"><ele>165.0</ele><time>2026-04-21T08:43:20.997Z</time></trkpt><trkpt lat="36.987087639127374" lon="-1.9982437693394512"><ele>165.0</ele><time>2026-04-21T08:43:21.997Z</time></trkpt><trkpt lat="36.987031046371364" lon="-1.9983102675031745"><ele>165.00000000000003</ele><time>2026-04-21T08:43:22.997Z</time></trkpt><trkpt lat="36.98699261686573" lon="-1.998373739245219"><ele>165.0</ele><time>2026-04-21T08:43:23.997Z</time></trkpt><trkpt lat="36.98695926116191" lon="-1.9984446420756883"><ele>165.00000000000003</ele><time>2026-04-21T08:43:24.997Z</time></trkpt><trkpt lat="36.98693031757721" lon="-1.9985203823781152"><ele>165.0</ele><time>2026-04-21T08:43:25.997Z</time></trkpt><trkpt lat="36.98690049293668" lon="-1.9985968149430444"><ele>165.0</ele><time>2026-04-21T08:43:26.997Z</time></trkpt><trkpt lat="36.98686959147835" lon="-1.9986771242786356"><ele>165.0</ele><time>2026-04-21T08:43:27.997Z</time></trkpt><trkpt lat="36.98683053497439" lon="-1.9987593787532532"><ele>165.0</ele><time>2026-04-21T08:43:28.997Z</time></trkpt><trkpt lat="36.986783968429926" lon="-1.998840770070428"><ele>165.00000000000003</ele><time>2026-04-21T08:43:29.997Z</time></trkpt><trkpt lat="36.986730973136495" lon="-1.9989155078173415"><ele>165.0</ele><time>2026-04-21T08:43:30.997Z</time></trkpt><trkpt lat="36.986676697027704" lon="-1.9989853158388444"><ele>166.0</ele><time>2026-04-21T08:43:31.997Z</time></trkpt><trkpt lat="36.98662644877959" lon="-1.9990540696694121"><ele>167.0</ele><time>2026-04-21T08:43:32.997Z</time></trkpt><trkpt lat="36.98657477737873" lon="-1.9991281028606258"><ele>168.0</ele><time>2026-04-21T08:43:33.997Z</time></trkpt><trkpt lat="36.9865321769966" lon="-1.9992101639135507"><ele>169.0</ele><time>2026-04-21T08:43:34.997Z</time></trkpt><trkpt lat="36.98649622874861" lon="-1.9992886772680698"><ele>170.0</ele><time>2026-04-21T08:43:35.997Z</time></trkpt><trkpt lat="36.986460284427615" lon="-1.9993732893040799"><ele>171.0</ele><time>2026-04-21T08:43:36.997Z</time></trkpt><trkpt lat="36.986425225984505" lon="-1.9994499666571421"><ele>171.0</ele><time>2026-04-21T08:43:37.997Z</time></trkpt><trkpt lat="36.98636038524313" lon="-1.9995849209207033"><ele>171.0</ele><time>2026-04-21T08:43:39.997Z</time></trkpt><trkpt lat="36.986284532301575" lon="-1.999711664387503"><ele>171.0</ele><time>2026-04-21T08:43:41.997Z</time></trkpt><trkpt lat="36.98624530191325" lon="-1.9997866898903627"><ele>171.0</ele><time>2026-04-21T08:43:42.997Z</time></trkpt><trkpt lat="36.98620750786908" lon="-1.999858931349034"><ele>171.0</ele><time>2026-04-21T08:43:43.997Z</time></trkpt><trkpt lat="36.98615283713779" lon="-1.9999567220085657"><ele>171.0</ele><time>2026-04-21T08:43:44.997Z</time></trkpt><trkpt lat="36.986109712655626" lon="-2.000044681201685"><ele>171.0</ele><time>2026-04-21T08:43:45.997Z</time></trkpt><trkpt lat="36.98606355087317" lon="-2.0001417355420616"><ele>171.0</ele><time>2026-04-21T08:43:46.997Z</time></trkpt><trkpt lat="36.986017584381194" lon="-2.0002415533735234"><ele>171.0</ele><time>2026-04-21T08:43:47.997Z</time></trkpt><trkpt lat="36.985973441685054" lon="-2.000340810904237"><ele>171.0</ele><time>2026-04-21T08:43:48.997Z</time></trkpt><trkpt lat="36.985935953992374" lon="-2.0004355539785434"><ele>171.0</ele><time>2026-04-21T08:43:49.997Z</time></trkpt><trkpt lat="36.98590509747132" lon="-2.000523132242699"><ele>170.99999999999997</ele><time>2026-04-21T08:43:50.997Z</time></trkpt><trkpt lat="36.98588363325333" lon="-2.0006068605587664"><ele>171.0</ele><time>2026-04-21T08:43:51.997Z</time></trkpt><trkpt lat="36.9858623764757" lon="-2.0006867953634417"><ele>171.0</ele><time>2026-04-21T08:43:52.997Z</time></trkpt><trkpt lat="36.985846611525595" lon="-2.000783510771498"><ele>171.0</ele><time>2026-04-21T08:43:53.997Z</time></trkpt><trkpt lat="36.98582307260819" lon="-2.000877157578922"><ele>171.0</ele><time>2026-04-21T08:43:54.997Z</time></trkpt><trkpt lat="36.98578901290755" lon="-2.0009702476691595"><ele>170.99999999999997</ele><time>2026-04-21T08:43:55.997Z</time></trkpt><trkpt lat="36.98575771908586" lon="-2.0010487264821637"><ele>171.0</ele><time>2026-04-21T08:43:56.997Z</time></trkpt><trkpt lat="36.98573212976534" lon="-2.0011311022085914"><ele>173.33333333333334</ele><time>2026-04-21T08:43:57.997Z</time></trkpt><trkpt lat="36.985696643883024" lon="-2.0012200153825885"><ele>175.66666666666666</ele><time>2026-04-21T08:43:58.997Z</time></trkpt><trkpt lat="36.9856648598171" lon="-2.0013194383385335"><ele>178.0</ele><time>2026-04-21T08:43:59.997Z</time></trkpt><trkpt lat="36.98563321257296" lon="-2.001416110660731"><ele>180.33333333333331</ele><time>2026-04-21T08:44:00.997Z</time></trkpt><trkpt lat="36.985602326104676" lon="-2.0014938404950335"><ele>182.66666666666666</ele><time>2026-04-21T08:44:01.997Z</time></trkpt><trkpt lat="36.98556416100688" lon="-2.001572348879525"><ele>185.0</ele><time>2026-04-21T08:44:02.997Z</time></trkpt><trkpt lat="36.98552230684536" lon="-2.001652601808234"><ele>185.33333333333331</ele><time>2026-04-21T08:44:03.997Z</time></trkpt><trkpt lat="36.98547794230111" lon="-2.0017222841136855"><ele>185.66666666666666</ele><time>2026-04-21T08:44:04.997Z</time></trkpt><trkpt lat="36.985421359632745" lon="-2.0017895482774053"><ele>186.0</ele><time>2026-04-21T08:44:05.997Z</time></trkpt><trkpt lat="36.98535534554181" lon="-2.0018506813092336"><ele>186.33333333333334</ele><time>2026-04-21T08:44:06.997Z</time></trkpt><trkpt lat="36.985287227351726" lon="-2.0019100137825223"><ele>186.66666666666669</ele><time>2026-04-21T08:44:07.997Z</time></trkpt><trkpt lat="36.98522531781183" lon="-2.0019589438775096"><ele>187.0</ele><time>2026-04-21T08:44:08.997Z</time></trkpt><trkpt lat="36.98516852737358" lon="-2.0020056171924514"><ele>187.0</ele><time>2026-04-21T08:44:09.997Z</time></trkpt><trkpt lat="36.985102274511085" lon="-2.002044007036722"><ele>187.0</ele><time>2026-04-21T08:44:10.997Z</time></trkpt><trkpt lat="36.98503549147809" lon="-2.0020834925135054"><ele>187.0</ele><time>2026-04-21T08:44:11.997Z</time></trkpt><trkpt lat="36.98497003937212" lon="-2.0021176915325003"><ele>187.0</ele><time>2026-04-21T08:44:12.997Z</time></trkpt><trkpt lat="36.98488827212802" lon="-2.002148680883983"><ele>187.0</ele><time>2026-04-21T08:44:13.997Z</time></trkpt><trkpt lat="36.98480592855288" lon="-2.0021673810574403"><ele>187.0</ele><time>2026-04-21T08:44:14.997Z</time></trkpt><trkpt lat="36.98472801231101" lon="-2.002183129131471"><ele>190.16666666666669</ele><time>2026-04-21T08:44:15.997Z</time></trkpt><trkpt lat="36.984648978930835" lon="-2.002189132894783"><ele>193.33333333333334</ele><time>2026-04-21T08:44:16.997Z</time></trkpt><trkpt lat="36.98457857165819" lon="-2.002177017113452"><ele>196.5</ele><time>2026-04-21T08:44:17.997Z</time></trkpt><trkpt lat="36.98447552804366" lon="-2.002173745254416"><ele>199.66666666666669</ele><time>2026-04-21T08:44:19.997Z</time></trkpt><trkpt lat="36.984376184850674" lon="-2.0021793746271004"><ele>202.83333333333334</ele><time>2026-04-21T08:44:21.997Z</time></trkpt><trkpt lat="36.98430984436646" lon="-2.00217775837097"><ele>206.0</ele><time>2026-04-21T08:44:22.996Z</time></trkpt><trkpt lat="36.98423819459525" lon="-2.0021843816377087"><ele>207.16666666666669</ele><time>2026-04-21T08:44:24.996Z</time></trkpt><trkpt lat="36.9841640539345" lon="-2.0022161536445835"><ele>208.33333333333334</ele><time>2026-04-21T08:44:34.996Z</time></trkpt><trkpt lat="36.98407355951481" lon="-2.0022067605716285"><ele>209.5</ele><time>2026-04-21T08:44:51.996Z</time></trkpt><trkpt lat="36.983980300189735" lon="-2.0022263536685276"><ele>210.66666666666669</ele><time>2026-04-21T08:44:53.996Z</time></trkpt><trkpt lat="36.9838938266294" lon="-2.0023009790283908"><ele>211.83333333333334</ele><time>2026-04-21T08:44:55.996Z</time></trkpt><trkpt lat="36.98383636886079" lon="-2.0023580665675524"><ele>213.0</ele><time>2026-04-21T08:44:57.996Z</time></trkpt><trkpt lat="36.9837570439335" lon="-2.002416904731129"><ele>213.0</ele><time>2026-04-21T08:45:24.996Z</time></trkpt><trkpt lat="36.98371152312515" lon="-2.00247598611589"><ele>213.0</ele><time>2026-04-21T08:45:26.996Z</time></trkpt><trkpt lat="36.98366334709907" lon="-2.0025610916638046"><ele>213.0</ele><time>2026-04-21T08:45:28.996Z</time></trkpt><trkpt lat="36.9835736451515" lon="-2.0026672349996146"><ele>213.0</ele><time>2026-04-21T08:45:30.996Z</time></trkpt><trkpt lat="36.9835297940182" lon="-2.002737490078594"><ele>213.0</ele><time>2026-04-21T08:45:31.996Z</time></trkpt><trkpt lat="36.983489743100385" lon="-2.0028090638959863"><ele>213.0</ele><time>2026-04-21T08:45:32.996Z</time></trkpt><trkpt lat="36.98345215358002" lon="-2.002887225755034"><ele>213.5</ele><time>2026-04-21T08:45:33.996Z</time></trkpt><trkpt lat="36.98340851863855" lon="-2.002977267106577"><ele>214.0</ele><time>2026-04-21T08:45:34.996Z</time></trkpt><trkpt lat="36.983363141744405" lon="-2.0030515355747287"><ele>214.5</ele><time>2026-04-21T08:45:35.996Z</time></trkpt><trkpt lat="36.98330988398461" lon="-2.0031187666571877"><ele>215.0</ele><time>2026-04-21T08:45:36.996Z</time></trkpt><trkpt lat="36.98326437998958" lon="-2.0031856934651993"><ele>215.5</ele><time>2026-04-21T08:45:37.996Z</time></trkpt><trkpt lat="36.98321228653289" lon="-2.003255650664722"><ele>216.0</ele><time>2026-04-21T08:45:38.996Z</time></trkpt><trkpt lat="36.98315775787476" lon="-2.0033214519435547"><ele>216.33333333333334</ele><time>2026-04-21T08:45:39.996Z</time></trkpt><trkpt lat="36.983111164853874" lon="-2.003391386832555"><ele>216.66666666666669</ele><time>2026-04-21T08:45:40.996Z</time></trkpt><trkpt lat="36.98306244874826" lon="-2.0034688416088726"><ele>217.0</ele><time>2026-04-21T08:45:41.996Z</time></trkpt><trkpt lat="36.98302056936095" lon="-2.0035500697183197"><ele>217.33333333333334</ele><time>2026-04-21T08:45:42.996Z</time></trkpt><trkpt lat="36.98297502901928" lon="-2.0037073354042425"><ele>217.66666666666669</ele><time>2026-04-21T08:45:44.996Z</time></trkpt><trkpt lat="36.98295850351869" lon="-2.0037965478399253"><ele>218.0</ele><time>2026-04-21T08:45:45.996Z</time></trkpt><trkpt lat="36.98294146748855" lon="-2.0039506441593242"><ele>218.0</ele><time>2026-04-21T08:45:47.996Z</time></trkpt><trkpt lat="36.982913216951545" lon="-2.0040955188018788"><ele>218.0</ele><time>2026-04-21T08:45:49.996Z</time></trkpt><trkpt lat="36.982858030996745" lon="-2.004210477256942"><ele>218.0</ele><time>2026-04-21T08:45:51.996Z</time></trkpt><trkpt lat="36.98278893452329" lon="-2.0042987050992673"><ele>218.0</ele><time>2026-04-21T08:45:53.996Z</time></trkpt><trkpt lat="36.982741021184644" lon="-2.004441664356875"><ele>218.0</ele><time>2026-04-21T08:45:55.996Z</time></trkpt><trkpt lat="36.982708225897554" lon="-2.0045203352601426"><ele>218.85714285714286</ele><time>2026-04-21T08:45:56.996Z</time></trkpt><trkpt lat="36.98267086142067" lon="-2.004590935603589"><ele>219.71428571428572</ele><time>2026-04-21T08:45:57.996Z</time></trkpt><trkpt lat="36.98262800803841" lon="-2.00465400648308"><ele>220.57142857142856</ele><time>2026-04-21T08:45:58.996Z</time></trkpt><trkpt lat="36.98257558599844" lon="-2.0047239618383004"><ele>221.42857142857144</ele><time>2026-04-21T08:45:59.996Z</time></trkpt><trkpt lat="36.982527185379766" lon="-2.0047841974886484"><ele>222.28571428571428</ele><time>2026-04-21T08:46:00.996Z</time></trkpt><trkpt lat="36.9824826482382" lon="-2.0048400460698668"><ele>223.14285714285714</ele><time>2026-04-21T08:46:01.996Z</time></trkpt><trkpt lat="36.98242950911424" lon="-2.00488875583012"><ele>224.0</ele><time>2026-04-21T08:46:02.996Z</time></trkpt><trkpt lat="36.98236884148142" lon="-2.0049408193018943"><ele>223.33333333333334</ele><time>2026-04-21T08:46:03.996Z</time></trkpt><trkpt lat="36.98232290223602" lon="-2.0050018440287136"><ele>222.66666666666669</ele><time>2026-04-21T08:46:04.996Z</time></trkpt><trkpt lat="36.982252791349616" lon="-2.0051339700391324"><ele>222.0</ele><time>2026-04-21T08:46:06.996Z</time></trkpt><trkpt lat="36.98222841170183" lon="-2.005212957830336"><ele>221.33333333333331</ele><time>2026-04-21T08:46:07.996Z</time></trkpt><trkpt lat="36.98220790162403" lon="-2.005298897540992"><ele>220.66666666666666</ele><time>2026-04-21T08:46:09Z</time></trkpt><trkpt lat="36.98219388103369" lon="-2.005385531275553"><ele>220.0</ele><time>2026-04-21T08:46:10Z</time></trkpt><trkpt lat="36.98217774005624" lon="-2.005466523545908"><ele>220.0</ele><time>2026-04-21T08:46:11Z</time></trkpt><trkpt lat="36.982148196589456" lon="-2.005618151531801"><ele>220.0</ele><time>2026-04-21T08:46:13Z</time></trkpt><trkpt lat="36.982140592593474" lon="-2.005697744483162"><ele>220.0</ele><time>2026-04-21T08:46:14Z</time></trkpt><trkpt lat="36.98215356751618" lon="-2.005825843366161"><ele>220.0</ele><time>2026-04-21T08:46:16Z</time></trkpt><trkpt lat="36.98222043029115" lon="-2.0059397858341006"><ele>220.0</ele><time>2026-04-21T08:46:18Z</time></trkpt><trkpt lat="36.98225903203647" lon="-2.0060095529720208"><ele>221.0</ele><time>2026-04-21T08:46:19Z</time></trkpt><trkpt lat="36.98232500141141" lon="-2.0061551395232016"><ele>222.0</ele><time>2026-04-21T08:46:21Z</time></trkpt><trkpt lat="36.9823612164837" lon="-2.0062481747350103"><ele>223.0</ele><time>2026-04-21T08:46:22Z</time></trkpt><trkpt lat="36.982395838217215" lon="-2.006344282704589"><ele>224.0</ele><time>2026-04-21T08:46:23Z</time></trkpt><trkpt lat="36.982428040935496" lon="-2.00642760523708"><ele>225.0</ele><time>2026-04-21T08:46:24Z</time></trkpt><trkpt lat="36.98246243330117" lon="-2.006511513541184"><ele>225.0</ele><time>2026-04-21T08:46:25Z</time></trkpt><trkpt lat="36.98249062407864" lon="-2.0065880171106802"><ele>225.0</ele><time>2026-04-21T08:46:26Z</time></trkpt><trkpt lat="36.98251524754786" lon="-2.0066669423826067"><ele>225.0</ele><time>2026-04-21T08:46:27Z</time></trkpt><trkpt lat="36.982529326690916" lon="-2.0067696071761327"><ele>225.0</ele><time>2026-04-21T08:46:28Z</time></trkpt><trkpt lat="36.982535939385784" lon="-2.006879466027515"><ele>225.0</ele><time>2026-04-21T08:46:29Z</time></trkpt><trkpt lat="36.98254627571185" lon="-2.0069763585859928"><ele>225.0</ele><time>2026-04-21T08:46:30Z</time></trkpt><trkpt lat="36.98255221851705" lon="-2.0070621707612784"><ele>226.0</ele><time>2026-04-21T08:46:31Z</time></trkpt><trkpt lat="36.98256022987923" lon="-2.007157873729273"><ele>227.0</ele><time>2026-04-21T08:46:32Z</time></trkpt><trkpt lat="36.98257065861872" lon="-2.0072545800686115"><ele>228.0</ele><time>2026-04-21T08:46:33Z</time></trkpt><trkpt lat="36.98257751226941" lon="-2.0073485767025434"><ele>229.0</ele><time>2026-04-21T08:46:34Z</time></trkpt><trkpt lat="36.982583674122935" lon="-2.0074506125297322"><ele>230.0</ele><time>2026-04-21T08:46:35Z</time></trkpt><trkpt lat="36.982594250570635" lon="-2.0075515876100307"><ele>231.0</ele><time>2026-04-21T08:46:36Z</time></trkpt><trkpt lat="36.982603392065975" lon="-2.007650551450622"><ele>231.5</ele><time>2026-04-21T08:46:37Z</time></trkpt><trkpt lat="36.98261355938988" lon="-2.007742319460774"><ele>232.0</ele><time>2026-04-21T08:46:38Z</time></trkpt><trkpt lat="36.98262759123486" lon="-2.007837891006062"><ele>232.5</ele><time>2026-04-21T08:46:39Z</time></trkpt><trkpt lat="36.9826477516162" lon="-2.0079418973130765"><ele>233.0</ele><time>2026-04-21T08:46:40Z</time></trkpt><trkpt lat="36.98266609688151" lon="-2.0080418507438926"><ele>233.5</ele><time>2026-04-21T08:46:41Z</time></trkpt><trkpt lat="36.982683358747174" lon="-2.00814718700636"><ele>234.0</ele><time>2026-04-21T08:46:42Z</time></trkpt><trkpt lat="36.98270214217466" lon="-2.0082591020174294"><ele>234.16666666666666</ele><time>2026-04-21T08:46:43Z</time></trkpt><trkpt lat="36.98271806061421" lon="-2.0083658428062106"><ele>234.33333333333331</ele><time>2026-04-21T08:46:44Z</time></trkpt><trkpt lat="36.982726496862256" lon="-2.008468587831498"><ele>234.5</ele><time>2026-04-21T08:46:45Z</time></trkpt><trkpt lat="36.98273526899963" lon="-2.0085701517309893"><ele>234.66666666666666</ele><time>2026-04-21T08:46:46Z</time></trkpt><trkpt lat="36.98274596191157" lon="-2.0086734810985742"><ele>234.83333333333331</ele><time>2026-04-21T08:46:47Z</time></trkpt><trkpt lat="36.98275167306283" lon="-2.0087751231453566"><ele>235.0</ele><time>2026-04-21T08:46:48Z</time></trkpt><trkpt lat="36.98275498281336" lon="-2.0088691280362507"><ele>234.99999999999997</ele><time>2026-04-21T08:46:49Z</time></trkpt><trkpt lat="36.982755036847855" lon="-2.0089663408430165"><ele>235.0</ele><time>2026-04-21T08:46:50Z</time></trkpt><trkpt lat="36.98275132240564" lon="-2.0090640318251536"><ele>235.0</ele><time>2026-04-21T08:46:51Z</time></trkpt><trkpt lat="36.982740265439475" lon="-2.0091628224079385"><ele>235.0</ele><time>2026-04-21T08:46:52Z</time></trkpt><trkpt lat="36.98271738825825" lon="-2.0092661246367642"><ele>234.99999999999997</ele><time>2026-04-21T08:46:53Z</time></trkpt><trkpt lat="36.98269852171471" lon="-2.009366761459765"><ele>235.0</ele><time>2026-04-21T08:46:54Z</time></trkpt><trkpt lat="36.98267827012754" lon="-2.0094705194409324"><ele>234.99999999999997</ele><time>2026-04-21T08:46:55Z</time></trkpt><trkpt lat="36.982659952517416" lon="-2.009569757518564"><ele>235.0</ele><time>2026-04-21T08:46:55.999Z</time></trkpt><trkpt lat="36.98264060263966" lon="-2.0096560682093605"><ele>235.0</ele><time>2026-04-21T08:46:56.999Z</time></trkpt><trkpt lat="36.98261869190341" lon="-2.009745597539251"><ele>235.0</ele><time>2026-04-21T08:46:57.999Z</time></trkpt><trkpt lat="36.982588255927226" lon="-2.009842567641963"><ele>234.99999999999997</ele><time>2026-04-21T08:46:58.999Z</time></trkpt><trkpt lat="36.98255545512784" lon="-2.009932160915631"><ele>235.0</ele><time>2026-04-21T08:46:59.999Z</time></trkpt><trkpt lat="36.982525242462486" lon="-2.01001820156786"><ele>234.99999999999997</ele><time>2026-04-21T08:47:00.999Z</time></trkpt><trkpt lat="36.982495144467386" lon="-2.010104182767706"><ele>235.0</ele><time>2026-04-21T08:47:01.999Z</time></trkpt><trkpt lat="36.982466715508046" lon="-2.010187066105788"><ele>235.0</ele><time>2026-04-21T08:47:02.999Z</time></trkpt><trkpt lat="36.98242823867528" lon="-2.010294448897398"><ele>235.0</ele><time>2026-04-21T08:47:03.999Z</time></trkpt><trkpt lat="36.982386799680135" lon="-2.010407997750293"><ele>234.99999999999997</ele><time>2026-04-21T08:47:04.999Z</time></trkpt><trkpt lat="36.98234836020403" lon="-2.010511513876364"><ele>235.0</ele><time>2026-04-21T08:47:05.999Z</time></trkpt><trkpt lat="36.982307135181756" lon="-2.0105886081279376"><ele>234.99999999999997</ele><time>2026-04-21T08:47:06.999Z</time></trkpt><trkpt lat="36.98225735531758" lon="-2.0106644196307695"><ele>235.0</ele><time>2026-04-21T08:47:07.999Z</time></trkpt><trkpt lat="36.982208806030194" lon="-2.0107451209077007"><ele>235.0</ele><time>2026-04-21T08:47:08.999Z</time></trkpt><trkpt lat="36.9821623002213" lon="-2.010828758294068"><ele>235.0</ele><time>2026-04-21T08:47:09.999Z</time></trkpt><trkpt lat="36.98211200886637" lon="-2.0109230932963835"><ele>234.99999999999997</ele><time>2026-04-21T08:47:10.999Z</time></trkpt><trkpt lat="36.982067367113196" lon="-2.0110091557778693"><ele>235.0</ele><time>2026-04-21T08:47:11.999Z</time></trkpt><trkpt lat="36.98202686029198" lon="-2.0110891515381923"><ele>235.7142857142857</ele><time>2026-04-21T08:47:12.999Z</time></trkpt><trkpt lat="36.981989426366226" lon="-2.0111613981676393"><ele>236.4285714285714</ele><time>2026-04-21T08:47:13.999Z</time></trkpt><trkpt lat="36.98194848531066" lon="-2.011227966071479"><ele>237.14285714285714</ele><time>2026-04-21T08:47:14.999Z</time></trkpt><trkpt lat="36.98189620060156" lon="-2.01129499700463"><ele>237.85714285714283</ele><time>2026-04-21T08:47:15.999Z</time></trkpt><trkpt lat="36.981847645067184" lon="-2.011353583083806"><ele>238.57142857142856</ele><time>2026-04-21T08:47:16.999Z</time></trkpt><trkpt lat="36.98180234140659" lon="-2.0114147566760163"><ele>239.28571428571428</ele><time>2026-04-21T08:47:17.999Z</time></trkpt><trkpt lat="36.981755782488875" lon="-2.0114733732841383"><ele>240.0</ele><time>2026-04-21T08:47:18.999Z</time></trkpt><trkpt lat="36.98171125618381" lon="-2.0115361977131196"><ele>240.57142857142858</ele><time>2026-04-21T08:47:19.999Z</time></trkpt><trkpt lat="36.98166634908755" lon="-2.0115979010321614"><ele>241.1428571428571</ele><time>2026-04-21T08:47:20.999Z</time></trkpt><trkpt lat="36.981625499759915" lon="-2.011668363566243"><ele>241.7142857142857</ele><time>2026-04-21T08:47:21.999Z</time></trkpt><trkpt lat="36.98158911286756" lon="-2.0117407298778605"><ele>242.28571428571428</ele><time>2026-04-21T08:47:22.999Z</time></trkpt><trkpt lat="36.981554158775566" lon="-2.0118199631650153"><ele>242.85714285714283</ele><time>2026-04-21T08:47:23.999Z</time></trkpt><trkpt lat="36.98152606762586" lon="-2.0119042397657396"><ele>243.4285714285714</ele><time>2026-04-21T08:47:24.999Z</time></trkpt><trkpt lat="36.98149642188793" lon="-2.011984073646491"><ele>243.99999999999997</ele><time>2026-04-21T08:47:25.999Z</time></trkpt><trkpt lat="36.98146816838542" lon="-2.012069241027694"><ele>244.33333333333331</ele><time>2026-04-21T08:47:26.999Z</time></trkpt><trkpt lat="36.98143873231646" lon="-2.012150305091489"><ele>244.66666666666666</ele><time>2026-04-21T08:47:27.999Z</time></trkpt><trkpt lat="36.98141184981363" lon="-2.012237979300265"><ele>245.0</ele><time>2026-04-21T08:47:28.999Z</time></trkpt><trkpt lat="36.98139148608551" lon="-2.0123229520302854"><ele>245.33333333333331</ele><time>2026-04-21T08:47:29.999Z</time></trkpt><trkpt lat="36.98137189086102" lon="-2.0124069005754976"><ele>245.66666666666666</ele><time>2026-04-21T08:47:30.999Z</time></trkpt><trkpt lat="36.98135749968128" lon="-2.0124945450052065"><ele>246.0</ele><time>2026-04-21T08:47:31.999Z</time></trkpt><trkpt lat="36.98132473444903" lon="-2.012602151063827"><ele>247.14285714285717</ele><time>2026-04-21T08:47:33.999Z</time></trkpt><trkpt lat="36.981293312549035" lon="-2.0126935270705366"><ele>248.28571428571428</ele><time>2026-04-21T08:47:48.999Z</time></trkpt><trkpt lat="36.98130476957741" lon="-2.012613834203214"><ele>249.42857142857144</ele><time>2026-04-21T08:48:40.999Z</time></trkpt><trkpt lat="36.98125885020064" lon="-2.012678684190223"><ele>250.57142857142858</ele><time>2026-04-21T08:48:44.998Z</time></trkpt><trkpt lat="36.981303516351026" lon="-2.0126080588435453"><ele>251.71428571428572</ele><time>2026-04-21T08:49:42.998Z</time></trkpt><trkpt lat="36.98130917694578" lon="-2.0125221637791606"><ele>252.85714285714286</ele><time>2026-04-21T08:49:48.998Z</time></trkpt><trkpt lat="36.98137336298867" lon="-2.012507009828346"><ele>254.0</ele><time>2026-04-21T08:50:57.997Z</time></trkpt><trkpt lat="36.98142276577116" lon="-2.0125689502853583"><ele>254.0</ele><time>2026-04-21T08:51:47.997Z</time></trkpt><trkpt lat="36.98135702091963" lon="-2.012643012714513"><ele>253.99999999999997</ele><time>2026-04-21T08:51:49.997Z</time></trkpt><trkpt lat="36.98128669912972" lon="-2.0126871452039827"><ele>253.99999999999997</ele><time>2026-04-21T08:51:51.997Z</time></trkpt><trkpt lat="36.9812150385942" lon="-2.0127591829588387"><ele>254.0</ele><time>2026-04-21T08:51:53.997Z</time></trkpt><trkpt lat="36.98114175137305" lon="-2.0128390357166444"><ele>254.0</ele><time>2026-04-21T08:51:55.997Z</time></trkpt><trkpt lat="36.981065962961104" lon="-2.01292261103584"><ele>254.00000000000003</ele><time>2026-04-21T08:51:57.997Z</time></trkpt><trkpt lat="36.98100053132421" lon="-2.013008852765882"><ele>254.0</ele><time>2026-04-21T08:51:59.997Z</time></trkpt><trkpt lat="36.98094570620696" lon="-2.01306593434409"><ele>254.0</ele><time>2026-04-21T08:52:01.997Z</time></trkpt><trkpt lat="36.98090377493603" lon="-2.0131531166268"><ele>254.0</ele><time>2026-04-21T08:52:03.997Z</time></trkpt><trkpt lat="36.98086541217313" lon="-2.0132428990459186"><ele>254.00000000000003</ele><time>2026-04-21T08:52:05.997Z</time></trkpt><trkpt lat="36.980841546608126" lon="-2.0133185298426794"><ele>254.0</ele><time>2026-04-21T08:52:07.997Z</time></trkpt><trkpt lat="36.980791565785125" lon="-2.0134110784226604"><ele>254.50000000000003</ele><time>2026-04-21T08:55:08.999Z</time></trkpt><trkpt lat="36.98076084669423" lon="-2.013501165758297"><ele>255.0</ele><time>2026-04-21T08:58:08.997Z</time></trkpt><trkpt lat="36.980758475890106" lon="-2.0135880417954084"><ele>255.5</ele><time>2026-04-21T09:03:08.999Z</time></trkpt><trkpt lat="36.980762862344946" lon="-2.0137159381055367"><ele>256.0</ele><time>2026-04-21T09:03:10.999Z</time></trkpt><trkpt lat="36.98076383978753" lon="-2.013827965533498"><ele>256.5</ele><time>2026-04-21T09:03:12.999Z</time></trkpt><trkpt lat="36.98074605801009" lon="-2.013941058246775"><ele>257.0</ele><time>2026-04-21T09:03:14.999Z</time></trkpt><trkpt lat="36.98069948446146" lon="-2.0140295639366492"><ele>257.0</ele><time>2026-04-21T09:03:16.999Z</time></trkpt><trkpt lat="36.980619550649514" lon="-2.0141019180990787"><ele>257.0</ele><time>2026-04-21T09:03:18.999Z</time></trkpt><trkpt lat="36.98053817584287" lon="-2.0141921867076276"><ele>257.0</ele><time>2026-04-21T09:03:20.999Z</time></trkpt><trkpt lat="36.980462896507674" lon="-2.014296290254878"><ele>257.0</ele><time>2026-04-21T09:03:22.999Z</time></trkpt><trkpt lat="36.980432947521315" lon="-2.0143679935533663"><ele>257.0</ele><time>2026-04-21T09:03:23.999Z</time></trkpt><trkpt lat="36.9803975511333" lon="-2.0145243331526927"><ele>257.0</ele><time>2026-04-21T09:03:25.999Z</time></trkpt><trkpt lat="36.98038018463253" lon="-2.01460919083446"><ele>257.0</ele><time>2026-04-21T09:03:26.999Z</time></trkpt><trkpt lat="36.98034392629819" lon="-2.014755039582959"><ele>257.0</ele><time>2026-04-21T09:03:28.998Z</time></trkpt><trkpt lat="36.98032734476155" lon="-2.014837843898514"><ele>257.0</ele><time>2026-04-21T09:03:29.998Z</time></trkpt><trkpt lat="36.980308806457536" lon="-2.0149212525418148"><ele>257.0</ele><time>2026-04-21T09:03:30.998Z</time></trkpt><trkpt lat="36.980279993373706" lon="-2.0150101900138164"><ele>257.0</ele><time>2026-04-21T09:03:31.998Z</time></trkpt><trkpt lat="36.98024730647648" lon="-2.0150898106909336"><ele>258.33333333333337</ele><time>2026-04-21T09:03:32.998Z</time></trkpt><trkpt lat="36.98021390729221" lon="-2.0151757503090098"><ele>259.6666666666667</ele><time>2026-04-21T09:03:33.998Z</time></trkpt><trkpt lat="36.980178163525814" lon="-2.0152655501093615"><ele>261.0</ele><time>2026-04-21T09:03:34.998Z</time></trkpt><trkpt lat="36.9801383720437" lon="-2.015356920485065"><ele>262.3333333333333</ele><time>2026-04-21T09:03:35.998Z</time></trkpt><trkpt lat="36.98010006454907" lon="-2.0154465888248563"><ele>263.66666666666663</ele><time>2026-04-21T09:03:36.998Z</time></trkpt><trkpt lat="36.98006229551006" lon="-2.0155431029184387"><ele>265.0</ele><time>2026-04-21T09:03:37.998Z</time></trkpt><trkpt lat="36.98002693167937" lon="-2.015632534418911"><ele>264.8333333333333</ele><time>2026-04-21T09:03:38.998Z</time></trkpt><trkpt lat="36.97999037671291" lon="-2.01571203686149"><ele>264.66666666666663</ele><time>2026-04-21T09:03:39.998Z</time></trkpt><trkpt lat="36.979949191140534" lon="-2.015779010056642"><ele>264.5</ele><time>2026-04-21T09:03:40.998Z</time></trkpt><trkpt lat="36.97989739163798" lon="-2.0158546606960974"><ele>264.3333333333333</ele><time>2026-04-21T09:03:41.998Z</time></trkpt><trkpt lat="36.97983792060149" lon="-2.015914232001495"><ele>264.1666666666667</ele><time>2026-04-21T09:03:42.998Z</time></trkpt><trkpt lat="36.97977173888425" lon="-2.015972446278633"><ele>264.0</ele><time>2026-04-21T09:03:43.998Z</time></trkpt><trkpt lat="36.97970402754604" lon="-2.0160328009000765"><ele>264.3333333333333</ele><time>2026-04-21T09:03:44.998Z</time></trkpt><trkpt lat="36.97962688477198" lon="-2.016103367330931"><ele>264.6666666666667</ele><time>2026-04-21T09:03:45.998Z</time></trkpt><trkpt lat="36.97957103969138" lon="-2.016172655702255"><ele>265.0</ele><time>2026-04-21T09:03:46.998Z</time></trkpt><trkpt lat="36.979512353402065" lon="-2.01624268327936"><ele>265.33333333333337</ele><time>2026-04-21T09:03:47.998Z</time></trkpt><trkpt lat="36.979451457799634" lon="-2.0163086756737836"><ele>265.6666666666667</ele><time>2026-04-21T09:03:48.998Z</time></trkpt><trkpt lat="36.97938726559296" lon="-2.0163663309384434"><ele>266.0</ele><time>2026-04-21T09:03:49.998Z</time></trkpt><trkpt lat="36.979322129454495" lon="-2.0164118256370305"><ele>266.0</ele><time>2026-04-21T09:03:50.998Z</time></trkpt><trkpt lat="36.97925060399965" lon="-2.0164498076337867"><ele>266.0</ele><time>2026-04-21T09:03:51.998Z</time></trkpt><trkpt lat="36.97918240751699" lon="-2.0164834148128277"><ele>266.0</ele><time>2026-04-21T09:03:52.998Z</time></trkpt><trkpt lat="36.97910898485551" lon="-2.0165240959566435"><ele>266.0</ele><time>2026-04-21T09:03:53.998Z</time></trkpt><trkpt lat="36.97904355318577" lon="-2.016557132091013"><ele>266.0</ele><time>2026-04-21T09:03:54.998Z</time></trkpt><trkpt lat="36.97897699091859" lon="-2.016589410666289"><ele>266.0</ele><time>2026-04-21T09:03:55.998Z</time></trkpt><trkpt lat="36.978916722177395" lon="-2.0166184718638682"><ele>266.0</ele><time>2026-04-21T09:03:56.998Z</time></trkpt><trkpt lat="36.97885051706263" lon="-2.0166508312499816"><ele>265.5</ele><time>2026-04-21T09:03:57.998Z</time></trkpt><trkpt lat="36.97878565138189" lon="-2.0166926384706"><ele>265.0</ele><time>2026-04-21T09:03:58.998Z</time></trkpt><trkpt lat="36.978727625110544" lon="-2.0167525547310805"><ele>264.5</ele><time>2026-04-21T09:03:59.998Z</time></trkpt><trkpt lat="36.978682130042806" lon="-2.0168271281419234"><ele>264.0</ele><time>2026-04-21T09:04:00.998Z</time></trkpt><trkpt lat="36.9786359908453" lon="-2.016903481361849"><ele>263.5</ele><time>2026-04-21T09:04:01.998Z</time></trkpt><trkpt lat="36.978588665933565" lon="-2.016985087455403"><ele>263.0</ele><time>2026-04-21T09:04:02.998Z</time></trkpt><trkpt lat="36.97853886283899" lon="-2.017062048762165"><ele>263.0</ele><time>2026-04-21T09:04:03.998Z</time></trkpt><trkpt lat="36.97848507052267" lon="-2.017140252572733"><ele>263.0</ele><time>2026-04-21T09:04:04.998Z</time></trkpt><trkpt lat="36.9784315905466" lon="-2.0172129797402856"><ele>263.0</ele><time>2026-04-21T09:04:05.998Z</time></trkpt><trkpt lat="36.978374987182704" lon="-2.017284104947042"><ele>263.0</ele><time>2026-04-21T09:04:06.998Z</time></trkpt><trkpt lat="36.978306024642364" lon="-2.0173618461556027"><ele>263.0</ele><time>2026-04-21T09:04:07.998Z</time></trkpt><trkpt lat="36.97822817581782" lon="-2.0174383747197204"><ele>263.0</ele><time>2026-04-21T09:04:08.998Z</time></trkpt><trkpt lat="36.978155306473965" lon="-2.0175182111175527"><ele>262.6</ele><time>2026-04-21T09:04:09.998Z</time></trkpt><trkpt lat="36.97808356072267" lon="-2.017603067247884"><ele>262.20000000000005</ele><time>2026-04-21T09:04:10.998Z</time></trkpt><trkpt lat="36.97801217378372" lon="-2.0176790990372635"><ele>261.8</ele><time>2026-04-21T09:04:11.998Z</time></trkpt><trkpt lat="36.97794135074462" lon="-2.017753456109716"><ele>261.40000000000003</ele><time>2026-04-21T09:04:12.998Z</time></trkpt><trkpt lat="36.9778711107373" lon="-2.01782285441155"><ele>261.0</ele><time>2026-04-21T09:04:13.998Z</time></trkpt><trkpt lat="36.97780095089257" lon="-2.0179024403786014"><ele>261.0</ele><time>2026-04-21T09:04:14.998Z</time></trkpt><trkpt lat="36.97773330651989" lon="-2.017974823463375"><ele>261.0</ele><time>2026-04-21T09:04:15.998Z</time></trkpt><trkpt lat="36.9776656979071" lon="-2.0180438044653175"><ele>261.0</ele><time>2026-04-21T09:04:16.998Z</time></trkpt><trkpt lat="36.97760101210331" lon="-2.0181101763416023"><ele>261.0</ele><time>2026-04-21T09:04:17.998Z</time></trkpt><trkpt lat="36.977540757161556" lon="-2.0181699446304484"><ele>261.0</ele><time>2026-04-21T09:04:18.998Z</time></trkpt><trkpt lat="36.97748129924633" lon="-2.018227503351575"><ele>261.0</ele><time>2026-04-21T09:04:19.998Z</time></trkpt><trkpt lat="36.977414296005705" lon="-2.018340033846902"><ele>261.2</ele><time>2026-04-21T09:04:21.998Z</time></trkpt><trkpt lat="36.977340531806625" lon="-2.0184100416690187"><ele>261.40000000000003</ele><time>2026-04-21T09:04:23.998Z</time></trkpt><trkpt lat="36.97722634370815" lon="-2.0184333441929825"><ele>261.6</ele><time>2026-04-21T09:04:25.998Z</time></trkpt><trkpt lat="36.97710639136693" lon="-2.0184705857145997"><ele>261.8</ele><time>2026-04-21T09:04:27.998Z</time></trkpt><trkpt lat="36.977034503003345" lon="-2.0184812899110676"><ele>262.0</ele><time>2026-04-21T09:04:28.998Z</time></trkpt><trkpt lat="36.97696461112774" lon="-2.018505107351786"><ele>262.0</ele><time>2026-04-21T09:04:29.998Z</time></trkpt><trkpt lat="36.976896013729785" lon="-2.0185311817875746"><ele>262.0</ele><time>2026-04-21T09:04:30.998Z</time></trkpt><trkpt lat="36.97682503773795" lon="-2.018560375160868"><ele>262.0</ele><time>2026-04-21T09:04:31.998Z</time></trkpt><trkpt lat="36.97675074158928" lon="-2.018583578165397"><ele>262.0</ele><time>2026-04-21T09:04:32.998Z</time></trkpt><trkpt lat="36.976677988475565" lon="-2.018598371995102"><ele>262.0</ele><time>2026-04-21T09:04:33.998Z</time></trkpt><trkpt lat="36.97660843889879" lon="-2.01861059170227"><ele>262.0</ele><time>2026-04-21T09:04:34.998Z</time></trkpt><trkpt lat="36.97653854567073" lon="-2.018612112180979"><ele>262.0</ele><time>2026-04-21T09:04:35.998Z</time></trkpt><trkpt lat="36.9764680450519" lon="-2.018614186824461"><ele>261.66666666666663</ele><time>2026-04-21T09:04:36.998Z</time></trkpt><trkpt lat="36.97639333419085" lon="-2.0186108693555957"><ele>261.3333333333333</ele><time>2026-04-21T09:04:37.998Z</time></trkpt><trkpt lat="36.97632614367621" lon="-2.018614497331789"><ele>261.0</ele><time>2026-04-21T09:04:38.998Z</time></trkpt><trkpt lat="36.97622450107853" lon="-2.0186431246784675"><ele>260.6666666666667</ele><time>2026-04-21T09:04:40.998Z</time></trkpt><trkpt lat="36.976142761402734" lon="-2.018668624331426"><ele>260.33333333333337</ele><time>2026-04-21T09:04:42.998Z</time></trkpt><trkpt lat="36.97610122317864" lon="-2.0187603891936425"><ele>260.0</ele><time>2026-04-21T09:04:45.998Z</time></trkpt><trkpt lat="36.97611523903402" lon="-2.018869673860056"><ele>260.0</ele><time>2026-04-21T09:04:48.998Z</time></trkpt><trkpt lat="36.97619493575478" lon="-2.018904184310517"><ele>260.0</ele><time>2026-04-21T09:04:52.998Z</time></trkpt><trkpt lat="36.97630470635787" lon="-2.018878298191642"><ele>260.0</ele><time>2026-04-21T09:04:54.998Z</time></trkpt><trkpt lat="36.97637947429406" lon="-2.0188852577615175"><ele>260.0</ele><time>2026-04-21T09:04:55.998Z</time></trkpt><trkpt lat="36.97646523926096" lon="-2.018894960982884"><ele>260.0</ele><time>2026-04-21T09:04:56.998Z</time></trkpt><trkpt lat="36.97655401417915" lon="-2.018910561003765"><ele>260.0</ele><time>2026-04-21T09:04:57.998Z</time></trkpt><trkpt lat="36.97664263979645" lon="-2.018943355129417"><ele>260.4</ele><time>2026-04-21T09:04:58.998Z</time></trkpt><trkpt lat="36.97672233613941" lon="-2.019001618131119"><ele>260.8</ele><time>2026-04-21T09:04:59.998Z</time></trkpt><trkpt lat="36.976790790723115" lon="-2.01907570839058"><ele>261.2</ele><time>2026-04-21T09:05:00.998Z</time></trkpt><trkpt lat="36.97687024179499" lon="-2.0191670142265234"><ele>261.6</ele><time>2026-04-21T09:05:01.998Z</time></trkpt><trkpt lat="36.97693557759809" lon="-2.019289300590812"><ele>262.0</ele><time>2026-04-21T09:05:02.998Z</time></trkpt><trkpt lat="36.97698916986289" lon="-2.0194235273209418"><ele>262.25</ele><time>2026-04-21T09:05:03.998Z</time></trkpt><trkpt lat="36.977036049402415" lon="-2.01956299418316"><ele>262.5</ele><time>2026-04-21T09:05:04.998Z</time></trkpt><trkpt lat="36.97707810958865" lon="-2.0196990210926224"><ele>262.75</ele><time>2026-04-21T09:05:05.998Z</time></trkpt><trkpt lat="36.97712266871951" lon="-2.0198322680131873"><ele>263.0</ele><time>2026-04-21T09:05:06.998Z</time></trkpt><trkpt lat="36.97716323435433" lon="-2.0199658164092313"><ele>263.0</ele><time>2026-04-21T09:05:07.998Z</time></trkpt><trkpt lat="36.97720274036185" lon="-2.0200909088408716"><ele>263.0</ele><time>2026-04-21T09:05:08.998Z</time></trkpt><trkpt lat="36.97723993176963" lon="-2.0201994189780694"><ele>263.0</ele><time>2026-04-21T09:05:09.998Z</time></trkpt><trkpt lat="36.977275048349426" lon="-2.0202931868725535"><ele>263.0</ele><time>2026-04-21T09:05:10.998Z</time></trkpt><trkpt lat="36.977304792575715" lon="-2.0203783876881856"><ele>263.0</ele><time>2026-04-21T09:05:11.998Z</time></trkpt><trkpt lat="36.97733034676501" lon="-2.020461024583686"><ele>263.0</ele><time>2026-04-21T09:05:12.998Z</time></trkpt><trkpt lat="36.97735649544687" lon="-2.0205435117603607"><ele>263.0</ele><time>2026-04-21T09:05:13.998Z</time></trkpt><trkpt lat="36.97737917872106" lon="-2.0206299093542595"><ele>263.0</ele><time>2026-04-21T09:05:14.998Z</time></trkpt><trkpt lat="36.97739835332688" lon="-2.020720091543483"><ele>263.0</ele><time>2026-04-21T09:05:15.998Z</time></trkpt><trkpt lat="36.9773959647617" lon="-2.0208153283354924"><ele>263.0</ele><time>2026-04-21T09:05:16.998Z</time></trkpt><trkpt lat="36.977390652229765" lon="-2.020915960370574"><ele>263.0</ele><time>2026-04-21T09:05:17.998Z</time></trkpt><trkpt lat="36.977371069036096" lon="-2.021014387836876"><ele>263.0</ele><time>2026-04-21T09:05:18.998Z</time></trkpt><trkpt lat="36.977346847250566" lon="-2.0211112134792466"><ele>262.83333333333337</ele><time>2026-04-21T09:05:19.998Z</time></trkpt><trkpt lat="36.97731284221376" lon="-2.0212067014093598"><ele>262.6666666666667</ele><time>2026-04-21T09:05:20.998Z</time></trkpt><trkpt lat="36.977270527816806" lon="-2.021304811740125"><ele>262.5</ele><time>2026-04-21T09:05:21.998Z</time></trkpt><trkpt lat="36.97722601823865" lon="-2.02140127155504"><ele>262.3333333333333</ele><time>2026-04-21T09:05:22.998Z</time></trkpt><trkpt lat="36.97717856944033" lon="-2.0214941231344272"><ele>262.16666666666663</ele><time>2026-04-21T09:05:23.998Z</time></trkpt><trkpt lat="36.97713298686256" lon="-2.021590679776039"><ele>262.0</ele><time>2026-04-21T09:05:24.998Z</time></trkpt><trkpt lat="36.97708461897107" lon="-2.021688715664418"><ele>261.2</ele><time>2026-04-21T09:05:25.998Z</time></trkpt><trkpt lat="36.97703127470878" lon="-2.0217878114749213"><ele>260.4</ele><time>2026-04-21T09:05:26.998Z</time></trkpt><trkpt lat="36.97698051617148" lon="-2.0218879742565994"><ele>259.6</ele><time>2026-04-21T09:05:27.998Z</time></trkpt><trkpt lat="36.97692969987138" lon="-2.021987525512084"><ele>258.8</ele><time>2026-04-21T09:05:28.998Z</time></trkpt><trkpt lat="36.976894143431394" lon="-2.022094294095935"><ele>258.0</ele><time>2026-04-21T09:05:29.998Z</time></trkpt><trkpt lat="36.97686493962589" lon="-2.022208701395889"><ele>258.0</ele><time>2026-04-21T09:05:30.998Z</time></trkpt><trkpt lat="36.97686345702492" lon="-2.022325817533666"><ele>258.0</ele><time>2026-04-21T09:05:31.998Z</time></trkpt><trkpt lat="36.97688483806336" lon="-2.022445248143624"><ele>258.0</ele><time>2026-04-21T09:05:32.998Z</time></trkpt><trkpt lat="36.97692063985948" lon="-2.0225639514926166"><ele>258.0</ele><time>2026-04-21T09:05:33.998Z</time></trkpt><trkpt lat="36.976971391733024" lon="-2.022677293241377"><ele>258.0</ele><time>2026-04-21T09:05:34.998Z</time></trkpt><trkpt lat="36.977036888889934" lon="-2.0227793437695736"><ele>257.0</ele><time>2026-04-21T09:05:35.998Z</time></trkpt><trkpt lat="36.97711706152526" lon="-2.0228588132827574"><ele>256.0</ele><time>2026-04-21T09:05:36.998Z</time></trkpt><trkpt lat="36.97720220123734" lon="-2.022925027688626"><ele>255.0</ele><time>2026-04-21T09:05:37.998Z</time></trkpt><trkpt lat="36.977285247476466" lon="-2.0229842419637887"><ele>254.0</ele><time>2026-04-21T09:05:38.998Z</time></trkpt><trkpt lat="36.977364914286724" lon="-2.023045506030324"><ele>253.0</ele><time>2026-04-21T09:05:39.998Z</time></trkpt><trkpt lat="36.97744054281845" lon="-2.0231036480285365"><ele>252.99999999999997</ele><time>2026-04-21T09:05:40.998Z</time></trkpt><trkpt lat="36.97749935873364" lon="-2.0231755592225626"><ele>253.0</ele><time>2026-04-21T09:05:41.998Z</time></trkpt><trkpt lat="36.97754223190313" lon="-2.0232597164687975"><ele>253.0</ele><time>2026-04-21T09:05:42.998Z</time></trkpt><trkpt lat="36.977569042377006" lon="-2.023348786835278"><ele>253.0</ele><time>2026-04-21T09:05:43.998Z</time></trkpt><trkpt lat="36.97758656031716" lon="-2.023443027702639"><ele>252.99999999999997</ele><time>2026-04-21T09:05:44.998Z</time></trkpt><trkpt lat="36.977610082842816" lon="-2.0235358194237314"><ele>253.0</ele><time>2026-04-21T09:05:45.998Z</time></trkpt><trkpt lat="36.97765176050899" lon="-2.0236250392727517"><ele>251.49999999999997</ele><time>2026-04-21T09:05:46.998Z</time></trkpt><trkpt lat="36.97771438523547" lon="-2.023703114573354"><ele>250.0</ele><time>2026-04-21T09:05:47.998Z</time></trkpt><trkpt lat="36.97778868532959" lon="-2.023770734893035"><ele>248.5</ele><time>2026-04-21T09:05:48.998Z</time></trkpt><trkpt lat="36.97786174325402" lon="-2.0238337094005283"><ele>247.0</ele><time>2026-04-21T09:05:49.998Z</time></trkpt><trkpt lat="36.97792774662344" lon="-2.0238997971493604"><ele>245.49999999999997</ele><time>2026-04-21T09:05:50.998Z</time></trkpt><trkpt lat="36.97799341656622" lon="-2.023966626830989"><ele>244.0</ele><time>2026-04-21T09:05:51.998Z</time></trkpt><trkpt lat="36.97805169815144" lon="-2.0240465322918233"><ele>244.0</ele><time>2026-04-21T09:05:52.998Z</time></trkpt><trkpt lat="36.97810403791862" lon="-2.0241432460730175"><ele>243.99999999999997</ele><time>2026-04-21T09:05:53.998Z</time></trkpt><trkpt lat="36.9781555855605" lon="-2.0242509405077413"><ele>243.99999999999997</ele><time>2026-04-21T09:05:54.998Z</time></trkpt><trkpt lat="36.97819883613848" lon="-2.0243684871515346"><ele>244.0</ele><time>2026-04-21T09:05:55.998Z</time></trkpt><trkpt lat="36.97824361903832" lon="-2.024483421762027"><ele>244.0</ele><time>2026-04-21T09:05:56.998Z</time></trkpt><trkpt lat="36.978282716210636" lon="-2.02460033921871"><ele>244.39999999999998</ele><time>2026-04-21T09:05:57.998Z</time></trkpt><trkpt lat="36.978311208529895" lon="-2.0247197171052687"><ele>244.79999999999998</ele><time>2026-04-21T09:05:58.998Z</time></trkpt><trkpt lat="36.978331292466535" lon="-2.0248445510663466"><ele>245.20000000000002</ele><time>2026-04-21T09:05:59.998Z</time></trkpt><trkpt lat="36.97834401714672" lon="-2.0249793257278874"><ele>245.60000000000002</ele><time>2026-04-21T09:06:00.998Z</time></trkpt><trkpt lat="36.97834628141657" lon="-2.0251222354036233"><ele>246.0</ele><time>2026-04-21T09:06:01.998Z</time></trkpt><trkpt lat="36.97834423716044" lon="-2.025262555658202"><ele>246.20000000000002</ele><time>2026-04-21T09:06:02.998Z</time></trkpt><trkpt lat="36.97834248923939" lon="-2.025399986519249"><ele>246.40000000000003</ele><time>2026-04-21T09:06:03.998Z</time></trkpt><trkpt lat="36.97834242965709" lon="-2.0255297547011293"><ele>246.6</ele><time>2026-04-21T09:06:04.998Z</time></trkpt><trkpt lat="36.9783390222629" lon="-2.025654139119618"><ele>246.8</ele><time>2026-04-21T09:06:05.998Z</time></trkpt><trkpt lat="36.97833901618423" lon="-2.0257702602605345"><ele>247.0</ele><time>2026-04-21T09:06:06.998Z</time></trkpt><trkpt lat="36.97834533152304" lon="-2.0258818999184234"><ele>245.33333333333331</ele><time>2026-04-21T09:06:07.998Z</time></trkpt><trkpt lat="36.9783623887574" lon="-2.0259913727668706"><ele>243.66666666666666</ele><time>2026-04-21T09:06:08.998Z</time></trkpt><trkpt lat="36.978399628828214" lon="-2.026090203430241"><ele>242.0</ele><time>2026-04-21T09:06:09.998Z</time></trkpt><trkpt lat="36.978439240177" lon="-2.02618475323319"><ele>240.33333333333331</ele><time>2026-04-21T09:06:10.998Z</time></trkpt><trkpt lat="36.978501411917094" lon="-2.0262581041235643"><ele>238.66666666666666</ele><time>2026-04-21T09:06:11.997Z</time></trkpt><trkpt lat="36.97858211170492" lon="-2.0263052530114902"><ele>237.0</ele><time>2026-04-21T09:06:12.997Z</time></trkpt><trkpt lat="36.978674191001446" lon="-2.0263243605175094"><ele>237.0</ele><time>2026-04-21T09:06:13.997Z</time></trkpt><trkpt lat="36.97876823469856" lon="-2.0263163687470365"><ele>237.0</ele><time>2026-04-21T09:06:14.997Z</time></trkpt><trkpt lat="36.97885603953561" lon="-2.0262718335865846"><ele>237.0</ele><time>2026-04-21T09:06:15.997Z</time></trkpt><trkpt lat="36.97894024669678" lon="-2.02620900667714"><ele>237.0</ele><time>2026-04-21T09:06:16.997Z</time></trkpt><trkpt lat="36.97901930865988" lon="-2.0261288351500895"><ele>237.0</ele><time>2026-04-21T09:06:17.997Z</time></trkpt><trkpt lat="36.979100418574475" lon="-2.0260465540184818"><ele>237.0</ele><time>2026-04-21T09:06:18.997Z</time></trkpt><trkpt lat="36.97918176797827" lon="-2.025970575148718"><ele>237.0</ele><time>2026-04-21T09:06:19.997Z</time></trkpt><trkpt lat="36.9792564959898" lon="-2.0258882183914553"><ele>237.0</ele><time>2026-04-21T09:06:20.997Z</time></trkpt><trkpt lat="36.97932874441387" lon="-2.025808420003664"><ele>237.0</ele><time>2026-04-21T09:06:21.997Z</time></trkpt><trkpt lat="36.979403602446844" lon="-2.025733045876905"><ele>237.0</ele><time>2026-04-21T09:06:22.997Z</time></trkpt><trkpt lat="36.979477103131" lon="-2.025653063191967"><ele>237.0</ele><time>2026-04-21T09:06:23.997Z</time></trkpt><trkpt lat="36.97955234169261" lon="-2.0255869894630054"><ele>237.0</ele><time>2026-04-21T09:06:24.997Z</time></trkpt><trkpt lat="36.97962819155037" lon="-2.025539617231059"><ele>237.0</ele><time>2026-04-21T09:06:25.997Z</time></trkpt><trkpt lat="36.979704757401876" lon="-2.0255144752407026"><ele>237.0</ele><time>2026-04-21T09:06:26.997Z</time></trkpt><trkpt lat="36.97978412593282" lon="-2.02551821903812"><ele>237.0</ele><time>2026-04-21T09:06:27.997Z</time></trkpt><trkpt lat="36.97985854006922" lon="-2.025532430767986"><ele>237.0</ele><time>2026-04-21T09:06:28.997Z</time></trkpt><trkpt lat="36.979924669244376" lon="-2.025556040299809"><ele>237.0</ele><time>2026-04-21T09:06:29.997Z</time></trkpt><trkpt lat="36.97998045237198" lon="-2.025595979804458"><ele>237.0</ele><time>2026-04-21T09:06:30.997Z</time></trkpt><trkpt lat="36.98003233776682" lon="-2.025648317805112"><ele>237.0</ele><time>2026-04-21T09:06:31.997Z</time></trkpt><trkpt lat="36.980069348449234" lon="-2.0257257967689655"><ele>237.0</ele><time>2026-04-21T09:06:32.997Z</time></trkpt><trkpt lat="36.98007509843487" lon="-2.0258399269594007"><ele>237.0</ele><time>2026-04-21T09:06:33.997Z</time></trkpt><trkpt lat="36.98006901778899" lon="-2.025973596798542"><ele>237.0</ele><time>2026-04-21T09:06:34.997Z</time></trkpt><trkpt lat="36.98005798384806" lon="-2.026121017887975"><ele>236.2</ele><time>2026-04-21T09:06:35.997Z</time></trkpt><trkpt lat="36.98005268718229" lon="-2.02626856692604"><ele>235.39999999999998</ele><time>2026-04-21T09:06:36.997Z</time></trkpt><trkpt lat="36.98004508782709" lon="-2.026412037939891"><ele>234.60000000000002</ele><time>2026-04-21T09:06:37.997Z</time></trkpt><trkpt lat="36.98004188590551" lon="-2.0265405927278586"><ele>233.8</ele><time>2026-04-21T09:06:38.997Z</time></trkpt><trkpt lat="36.98004385718279" lon="-2.026656914755068"><ele>233.0</ele><time>2026-04-21T09:06:39.997Z</time></trkpt><trkpt lat="36.980048337620374" lon="-2.026761541648009"><ele>232.60000000000002</ele><time>2026-04-21T09:06:40.997Z</time></trkpt><trkpt lat="36.98006994502281" lon="-2.026860655050253"><ele>232.20000000000002</ele><time>2026-04-21T09:06:41.997Z</time></trkpt><trkpt lat="36.980112419337296" lon="-2.0269537137008005"><ele>231.8</ele><time>2026-04-21T09:06:42.997Z</time></trkpt><trkpt lat="36.98017648250701" lon="-2.027033178397908"><ele>231.4</ele><time>2026-04-21T09:06:43.997Z</time></trkpt><trkpt lat="36.98025658602764" lon="-2.0271052696673006"><ele>231.0</ele><time>2026-04-21T09:06:44.997Z</time></trkpt><trkpt lat="36.98034796030115" lon="-2.027177072942437"><ele>231.0</ele><time>2026-04-21T09:06:45.997Z</time></trkpt><trkpt lat="36.98044401083804" lon="-2.0272425585355887"><ele>231.00000000000003</ele><time>2026-04-21T09:06:46.997Z</time></trkpt><trkpt lat="36.98054090709384" lon="-2.0273073521462326"><ele>231.00000000000003</ele><time>2026-04-21T09:06:47.997Z</time></trkpt><trkpt lat="36.980636925245584" lon="-2.027371424578938"><ele>231.0</ele><time>2026-04-21T09:06:48.997Z</time></trkpt><trkpt lat="36.98072774780984" lon="-2.027436782831687"><ele>231.0</ele><time>2026-04-21T09:06:49.997Z</time></trkpt><trkpt lat="36.980814165690084" lon="-2.027501403656144"><ele>230.8</ele><time>2026-04-21T09:06:50.997Z</time></trkpt><trkpt lat="36.98090039269916" lon="-2.0275621760674394"><ele>230.60000000000002</ele><time>2026-04-21T09:06:51.997Z</time></trkpt><trkpt lat="36.98099205682425" lon="-2.0276149707246907"><ele>230.4</ele><time>2026-04-21T09:06:52.997Z</time></trkpt><trkpt lat="36.98108282700219" lon="-2.0276626754806393"><ele>230.2</ele><time>2026-04-21T09:06:53.997Z</time></trkpt><trkpt lat="36.981165854082725" lon="-2.0277160580747964"><ele>230.0</ele><time>2026-04-21T09:06:54.997Z</time></trkpt><trkpt lat="36.98124314893055" lon="-2.027769680565281"><ele>230.00000000000003</ele><time>2026-04-21T09:06:55.997Z</time></trkpt><trkpt lat="36.981305214363985" lon="-2.027837768009155"><ele>230.0</ele><time>2026-04-21T09:06:56.997Z</time></trkpt><trkpt lat="36.981366078074664" lon="-2.027915357619158"><ele>230.0</ele><time>2026-04-21T09:06:57.997Z</time></trkpt><trkpt lat="36.98141864428208" lon="-2.0279998319064"><ele>230.0</ele><time>2026-04-21T09:06:58.997Z</time></trkpt><trkpt lat="36.981430067844656" lon="-2.028105014235083"><ele>230.00000000000003</ele><time>2026-04-21T09:06:59.997Z</time></trkpt><trkpt lat="36.981420109477966" lon="-2.0282161151363094"><ele>230.0</ele><time>2026-04-21T09:07:00.997Z</time></trkpt><trkpt lat="36.98139848972049" lon="-2.0283283532032064"><ele>230.0</ele><time>2026-04-21T09:07:01.997Z</time></trkpt><trkpt lat="36.98135067067332" lon="-2.0284380433906906"><ele>230.0</ele><time>2026-04-21T09:07:02.997Z</time></trkpt><trkpt lat="36.98129007626572" lon="-2.0285533717236914"><ele>230.0</ele><time>2026-04-21T09:07:03.997Z</time></trkpt><trkpt lat="36.9812314628127" lon="-2.028676803009865"><ele>230.0</ele><time>2026-04-21T09:07:04.997Z</time></trkpt><trkpt lat="36.981170485413934" lon="-2.028801383103943"><ele>230.0</ele><time>2026-04-21T09:07:05.997Z</time></trkpt><trkpt lat="36.98111082517228" lon="-2.0289204465459423"><ele>230.0</ele><time>2026-04-21T09:07:06.997Z</time></trkpt><trkpt lat="36.98105027053872" lon="-2.029031642227858"><ele>230.0</ele><time>2026-04-21T09:07:07.997Z</time></trkpt><trkpt lat="36.980993461872245" lon="-2.0291385538691453"><ele>230.0</ele><time>2026-04-21T09:07:08.997Z</time></trkpt><trkpt lat="36.9809444217916" lon="-2.029244516967861"><ele>230.0</ele><time>2026-04-21T09:07:09.997Z</time></trkpt><trkpt lat="36.98090398924205" lon="-2.029359108364191"><ele>230.0</ele><time>2026-04-21T09:07:10.997Z</time></trkpt><trkpt lat="36.98087589448055" lon="-2.02948852980218"><ele>230.0</ele><time>2026-04-21T09:07:11.997Z</time></trkpt><trkpt lat="36.98086288330099" lon="-2.02962616397456"><ele>230.0</ele><time>2026-04-21T09:07:12.997Z</time></trkpt><trkpt lat="36.98086763632115" lon="-2.0297653254571744"><ele>230.0</ele><time>2026-04-21T09:07:13.997Z</time></trkpt><trkpt lat="36.98088152092429" lon="-2.029904760073567"><ele>230.0</ele><time>2026-04-21T09:07:14.997Z</time></trkpt><trkpt lat="36.98089137773109" lon="-2.0300508795854366"><ele>230.0</ele><time>2026-04-21T09:07:15.997Z</time></trkpt><trkpt lat="36.98090568761284" lon="-2.0301969731182363"><ele>230.0</ele><time>2026-04-21T09:07:16.997Z</time></trkpt><trkpt lat="36.9809191312242" lon="-2.030347496631702"><ele>230.0</ele><time>2026-04-21T09:07:17.997Z</time></trkpt><trkpt lat="36.980931060075235" lon="-2.03049964491912"><ele>230.0</ele><time>2026-04-21T09:07:18.997Z</time></trkpt><trkpt lat="36.98094896538391" lon="-2.03064945518227"><ele>230.0</ele><time>2026-04-21T09:07:19.997Z</time></trkpt><trkpt lat="36.98096275398801" lon="-2.0307980749789056"><ele>230.0</ele><time>2026-04-21T09:07:20.997Z</time></trkpt><trkpt lat="36.98097782843429" lon="-2.030942261708267"><ele>230.0</ele><time>2026-04-21T09:07:21.997Z</time></trkpt><trkpt lat="36.98099408935953" lon="-2.031085053743379"><ele>230.0</ele><time>2026-04-21T09:07:22.997Z</time></trkpt><trkpt lat="36.98101532618851" lon="-2.0312255222904265"><ele>229.25</ele><time>2026-04-21T09:07:23.997Z</time></trkpt><trkpt lat="36.981032032214706" lon="-2.031368124479557"><ele>228.5</ele><time>2026-04-21T09:07:24.997Z</time></trkpt><trkpt lat="36.98105348950331" lon="-2.031510745305884"><ele>227.75</ele><time>2026-04-21T09:07:26.001Z</time></trkpt><trkpt lat="36.98107452137501" lon="-2.0316579168313917"><ele>227.0</ele><time>2026-04-21T09:07:27.001Z</time></trkpt><trkpt lat="36.98109644593325" lon="-2.031806923803053"><ele>226.25</ele><time>2026-04-21T09:07:28.001Z</time></trkpt><trkpt lat="36.981119789369565" lon="-2.0319556720087317"><ele>225.5</ele><time>2026-04-21T09:07:29.001Z</time></trkpt><trkpt lat="36.98114370271843" lon="-2.0321044815615448"><ele>224.75</ele><time>2026-04-21T09:07:30.001Z</time></trkpt><trkpt lat="36.98116947972976" lon="-2.032244365269673"><ele>224.0</ele><time>2026-04-21T09:07:31.001Z</time></trkpt><trkpt lat="36.9811937356104" lon="-2.0323788564198657"><ele>222.75</ele><time>2026-04-21T09:07:32.001Z</time></trkpt><trkpt lat="36.98122005621776" lon="-2.0325160798987327"><ele>221.5</ele><time>2026-04-21T09:07:33.001Z</time></trkpt><trkpt lat="36.981248558652595" lon="-2.032663550743813"><ele>220.25</ele><time>2026-04-21T09:07:34.001Z</time></trkpt><trkpt lat="36.98127228246952" lon="-2.0328171541382067"><ele>219.0</ele><time>2026-04-21T09:07:35.001Z</time></trkpt><trkpt lat="36.981294434142114" lon="-2.0329671843100425"><ele>219.0</ele><time>2026-04-21T09:07:36.001Z</time></trkpt><trkpt lat="36.981316763025205" lon="-2.033109498126129"><ele>219.0</ele><time>2026-04-21T09:07:37.001Z</time></trkpt><trkpt lat="36.981339326786184" lon="-2.033250317912114"><ele>219.0</ele><time>2026-04-21T09:07:38.001Z</time></trkpt><trkpt lat="36.98136354064421" lon="-2.033391402914952"><ele>219.0</ele><time>2026-04-21T09:07:39.001Z</time></trkpt><trkpt lat="36.98139162151393" lon="-2.0335342509363574"><ele>219.0</ele><time>2026-04-21T09:07:40.001Z</time></trkpt><trkpt lat="36.981417869717546" lon="-2.033680726998261"><ele>219.0</ele><time>2026-04-21T09:07:41.001Z</time></trkpt><trkpt lat="36.98144288697706" lon="-2.0338297531808505"><ele>219.0</ele><time>2026-04-21T09:07:42.001Z</time></trkpt><trkpt lat="36.98147031193138" lon="-2.03397787774205"><ele>219.0</ele><time>2026-04-21T09:07:43.001Z</time></trkpt><trkpt lat="36.98149648948655" lon="-2.034126235465455"><ele>218.39999999999998</ele><time>2026-04-21T09:07:44.001Z</time></trkpt><trkpt lat="36.98152159946838" lon="-2.034265746138544"><ele>217.79999999999998</ele><time>2026-04-21T09:07:45.001Z</time></trkpt><trkpt lat="36.98154519100513" lon="-2.03439550457218"><ele>217.20000000000002</ele><time>2026-04-21T09:07:46.001Z</time></trkpt><trkpt lat="36.98156571397334" lon="-2.0345222200389554"><ele>216.60000000000002</ele><time>2026-04-21T09:07:47.001Z</time></trkpt><trkpt lat="36.981585534051526" lon="-2.0346435549343567"><ele>216.0</ele><time>2026-04-21T09:07:48.001Z</time></trkpt><trkpt lat="36.98160634072648" lon="-2.0347615980244393"><ele>216.0</ele><time>2026-04-21T09:07:49Z</time></trkpt><trkpt lat="36.98162565036563" lon="-2.034877331153057"><ele>216.00000000000003</ele><time>2026-04-21T09:07:50Z</time></trkpt><trkpt lat="36.98164615379103" lon="-2.0349928612701826"><ele>216.00000000000003</ele><time>2026-04-21T09:07:51Z</time></trkpt><trkpt lat="36.98166924248899" lon="-2.03510894276186"><ele>216.0</ele><time>2026-04-21T09:07:52Z</time></trkpt><trkpt lat="36.98169176070206" lon="-2.03523203853912"><ele>216.0</ele><time>2026-04-21T09:07:53Z</time></trkpt><trkpt lat="36.98171450738461" lon="-2.035370912320413"><ele>217.25</ele><time>2026-04-21T09:07:54Z</time></trkpt><trkpt lat="36.98173829609061" lon="-2.035528025091373"><ele>218.5</ele><time>2026-04-21T09:07:55Z</time></trkpt><trkpt lat="36.981766950092364" lon="-2.0357008067392255"><ele>219.75</ele><time>2026-04-21T09:07:56Z</time></trkpt><trkpt lat="36.98180276334105" lon="-2.035884176806425"><ele>221.0</ele><time>2026-04-21T09:07:57Z</time></trkpt><trkpt lat="36.981840606683484" lon="-2.036075635697383"><ele>221.33333333333334</ele><time>2026-04-21T09:07:58Z</time></trkpt><trkpt lat="36.98187847864653" lon="-2.0362676970878115"><ele>221.66666666666669</ele><time>2026-04-21T09:07:59Z</time></trkpt><trkpt lat="36.98191619721864" lon="-2.0364635243148714"><ele>222.0</ele><time>2026-04-21T09:08:00Z</time></trkpt><trkpt lat="36.981962898868936" lon="-2.0366597376929345"><ele>221.0</ele><time>2026-04-21T09:08:01Z</time></trkpt><trkpt lat="36.98200314766015" lon="-2.036869732785167"><ele>220.0</ele><time>2026-04-21T09:08:02Z</time></trkpt><trkpt lat="36.982052586305315" lon="-2.037076543925051"><ele>219.0</ele><time>2026-04-21T09:08:03Z</time></trkpt><trkpt lat="36.982097865372474" lon="-2.0372766697200597"><ele>218.0</ele><time>2026-04-21T09:08:04Z</time></trkpt><trkpt lat="36.98214117816363" lon="-2.037476320016972"><ele>217.0</ele><time>2026-04-21T09:08:05Z</time></trkpt><trkpt lat="36.982176478280216" lon="-2.037694699563288"><ele>216.0</ele><time>2026-04-21T09:08:06Z</time></trkpt><trkpt lat="36.98220156715725" lon="-2.0379134659652443"><ele>216.0</ele><time>2026-04-21T09:08:07Z</time></trkpt><trkpt lat="36.98224164790282" lon="-2.038107621814685"><ele>216.0</ele><time>2026-04-21T09:08:08Z</time></trkpt><trkpt lat="36.98227312431581" lon="-2.0382919028437967"><ele>216.0</ele><time>2026-04-21T09:08:09Z</time></trkpt><trkpt lat="36.982301208041214" lon="-2.0384729540816187"><ele>215.25</ele><time>2026-04-21T09:08:10Z</time></trkpt><trkpt lat="36.98233842077778" lon="-2.0386513059935263"><ele>214.5</ele><time>2026-04-21T09:08:11Z</time></trkpt><trkpt lat="36.982361994422035" lon="-2.0388312652348946"><ele>213.75</ele><time>2026-04-21T09:08:12Z</time></trkpt><trkpt lat="36.98239472706477" lon="-2.039001575166474"><ele>213.0</ele><time>2026-04-21T09:08:13Z</time></trkpt><trkpt lat="36.98242669851896" lon="-2.0391762785466"><ele>213.25</ele><time>2026-04-21T09:08:14Z</time></trkpt><trkpt lat="36.98246032042647" lon="-2.0393429425679273"><ele>213.5</ele><time>2026-04-21T09:08:15Z</time></trkpt><trkpt lat="36.98250133728105" lon="-2.0395028180621404"><ele>213.75</ele><time>2026-04-21T09:08:16Z</time></trkpt><trkpt lat="36.982540927821915" lon="-2.0396636173863123"><ele>214.0</ele><time>2026-04-21T09:08:17Z</time></trkpt><trkpt lat="36.98257594292826" lon="-2.0398144350912495"><ele>214.0</ele><time>2026-04-21T09:08:18Z</time></trkpt><trkpt lat="36.98259386380164" lon="-2.039955574602905"><ele>213.99999999999997</ele><time>2026-04-21T09:08:19Z</time></trkpt><trkpt lat="36.982602039002344" lon="-2.0400943890139454"><ele>213.99999999999997</ele><time>2026-04-21T09:08:20Z</time></trkpt><trkpt lat="36.98263734851019" lon="-2.0402060879794273"><ele>214.0</ele><time>2026-04-21T09:08:21Z</time></trkpt><trkpt lat="36.982680084042244" lon="-2.040304520756914"><ele>214.0</ele><time>2026-04-21T09:08:22Z</time></trkpt><trkpt lat="36.98267229527182" lon="-2.04043075231742"><ele>213.99999999999997</ele><time>2026-04-21T09:08:23Z</time></trkpt><trkpt lat="36.98268386921384" lon="-2.0405392969066942"><ele>214.0</ele><time>2026-04-21T09:08:24Z</time></trkpt><trkpt lat="36.982657783459835" lon="-2.040637480964285"><ele>214.0</ele><time>2026-04-21T09:08:25Z</time></trkpt><trkpt lat="36.98262315833656" lon="-2.040708369826211"><ele>214.0</ele><time>2026-04-21T09:08:26Z</time></trkpt><trkpt lat="36.98255412879612" lon="-2.0408088424630337"><ele>213.99999999999997</ele><time>2026-04-21T09:08:28Z</time></trkpt><trkpt lat="36.98249550216005" lon="-2.040901435930055"><ele>214.0</ele><time>2026-04-21T09:08:30Z</time></trkpt><trkpt lat="36.98246215611674" lon="-2.0410055429083465"><ele>213.49999999999997</ele><time>2026-04-21T09:08:45Z</time></trkpt><trkpt lat="36.98236482891016" lon="-2.0410962613337067"><ele>213.0</ele><time>2026-04-21T09:08:47Z</time></trkpt><trkpt lat="36.98228728110376" lon="-2.0411134896843612"><ele>212.5</ele><time>2026-04-21T09:08:48Z</time></trkpt><trkpt lat="36.98221565747966" lon="-2.0411272735258015"><ele>212.0</ele><time>2026-04-21T09:08:49Z</time></trkpt><trkpt lat="36.98215160125346" lon="-2.0411410788361053"><ele>211.49999999999997</ele><time>2026-04-21T09:08:50Z</time></trkpt><trkpt lat="36.982086106181065" lon="-2.0411690264016586"><ele>211.0</ele><time>2026-04-21T09:08:51Z</time></trkpt><trkpt lat="36.98199930651007" lon="-2.041201359476414"><ele>210.99999999999997</ele><time>2026-04-21T09:08:52Z</time></trkpt><trkpt lat="36.98191443131295" lon="-2.041186739368121"><ele>211.0</ele><time>2026-04-21T09:08:53Z</time></trkpt><trkpt lat="36.98183792249243" lon="-2.0411688698013566"><ele>211.0</ele><time>2026-04-21T09:08:54Z</time></trkpt><trkpt lat="36.981762405186124" lon="-2.041179331079996"><ele>211.0</ele><time>2026-04-21T09:08:55Z</time></trkpt><trkpt lat="36.98169221645343" lon="-2.041196036569353"><ele>210.99999999999997</ele><time>2026-04-21T09:08:56Z</time></trkpt><trkpt lat="36.9816244588961" lon="-2.04122067088892"><ele>211.0</ele><time>2026-04-21T09:08:57Z</time></trkpt><trkpt lat="36.98155275759028" lon="-2.041262698197741"><ele>210.99999999999997</ele><time>2026-04-21T09:08:58Z</time></trkpt><trkpt lat="36.98148520236478" lon="-2.0412920713888174"><ele>211.0</ele><time>2026-04-21T09:08:59Z</time></trkpt><trkpt lat="36.9814052897588" lon="-2.0413101781893612"><ele>211.0</ele><time>2026-04-21T09:09:00Z</time></trkpt><trkpt lat="36.9813257575669" lon="-2.0413177820489348"><ele>211.0</ele><time>2026-04-21T09:09:01Z</time></trkpt><trkpt lat="36.981246555273216" lon="-2.0413352934600515"><ele>210.99999999999997</ele><time>2026-04-21T09:09:02Z</time></trkpt><trkpt lat="36.98115924070209" lon="-2.041343461220288"><ele>211.0</ele><time>2026-04-21T09:09:03Z</time></trkpt><trkpt lat="36.9810830709866" lon="-2.0413582418106264"><ele>210.99999999999997</ele><time>2026-04-21T09:09:04Z</time></trkpt><trkpt lat="36.98099741458774" lon="-2.0413437935202206"><ele>211.0</ele><time>2026-04-21T09:09:05Z</time></trkpt><trkpt lat="36.98091761393297" lon="-2.041373607065041"><ele>211.0</ele><time>2026-04-21T09:09:06Z</time></trkpt><trkpt lat="36.980830484975186" lon="-2.0413841120794802"><ele>211.0</ele><time>2026-04-21T09:09:07Z</time></trkpt><trkpt lat="36.98075616243187" lon="-2.0414024450587407"><ele>210.99999999999997</ele><time>2026-04-21T09:09:08Z</time></trkpt><trkpt lat="36.98068305898845" lon="-2.0414067207581548"><ele>211.0</ele><time>2026-04-21T09:09:09Z</time></trkpt><trkpt lat="36.9806149865342" lon="-2.0413997351162574"><ele>210.49999999999997</ele><time>2026-04-21T09:09:10Z</time></trkpt><trkpt lat="36.980527586725664" lon="-2.0414012384894993"><ele>210.0</ele><time>2026-04-21T09:09:11Z</time></trkpt><trkpt lat="36.98044597886758" lon="-2.0413830962268302"><ele>209.5</ele><time>2026-04-21T09:09:12Z</time></trkpt><trkpt lat="36.98037477022943" lon="-2.0414106407956063"><ele>209.0</ele><time>2026-04-21T09:09:13Z</time></trkpt><trkpt lat="36.98029727898641" lon="-2.041428042518869"><ele>208.49999999999997</ele><time>2026-04-21T09:09:14Z</time></trkpt><trkpt lat="36.98022167456066" lon="-2.041472966089211"><ele>208.0</ele><time>2026-04-21T09:09:15Z</time></trkpt><trkpt lat="36.980152697436765" lon="-2.0414953102412623"><ele>208.0</ele><time>2026-04-21T09:09:16Z</time></trkpt><trkpt lat="36.980055040770274" lon="-2.041605341244689"><ele>208.0</ele><time>2026-04-21T09:09:18Z</time></trkpt><trkpt lat="36.980011235249115" lon="-2.0416780773828203"><ele>208.0</ele><time>2026-04-21T09:09:19Z</time></trkpt><trkpt lat="36.97995095815608" lon="-2.04173685478782"><ele>208.0</ele><time>2026-04-21T09:09:20Z</time></trkpt><trkpt lat="36.97988915223474" lon="-2.041815586129138"><ele>208.0</ele><time>2026-04-21T09:09:21Z</time></trkpt><trkpt lat="36.97983551168782" lon="-2.041897191530898"><ele>208.0</ele><time>2026-04-21T09:09:22Z</time></trkpt><trkpt lat="36.97975931270357" lon="-2.041973973509452"><ele>208.0</ele><time>2026-04-21T09:09:22.999Z</time></trkpt><trkpt lat="36.97966864229297" lon="-2.0420448490445224"><ele>208.0</ele><time>2026-04-21T09:09:23.999Z</time></trkpt><trkpt lat="36.97958949107973" lon="-2.042120923178509"><ele>208.0</ele><time>2026-04-21T09:09:24.999Z</time></trkpt><trkpt lat="36.97950463276546" lon="-2.0421817196290366"><ele>208.0</ele><time>2026-04-21T09:09:25.999Z</time></trkpt><trkpt lat="36.979438283652804" lon="-2.0422715837463867"><ele>208.0</ele><time>2026-04-21T09:09:26.999Z</time></trkpt><trkpt lat="36.97935515310744" lon="-2.0423278282969117"><ele>208.0</ele><time>2026-04-21T09:09:27.999Z</time></trkpt><trkpt lat="36.979285255201496" lon="-2.042404231812345"><ele>208.0</ele><time>2026-04-21T09:09:28.999Z</time></trkpt><trkpt lat="36.97920036260997" lon="-2.0424386281040134"><ele>208.0</ele><time>2026-04-21T09:09:29.999Z</time></trkpt><trkpt lat="36.97912920862691" lon="-2.0425010073927052"><ele>208.0</ele><time>2026-04-21T09:09:30.999Z</time></trkpt><trkpt lat="36.979048507407015" lon="-2.0425497146431506"><ele>207.8</ele><time>2026-04-21T09:09:31.999Z</time></trkpt><trkpt lat="36.97898892401973" lon="-2.0426324818315855"><ele>207.60000000000002</ele><time>2026-04-21T09:09:32.999Z</time></trkpt><trkpt lat="36.978918493409175" lon="-2.042708864200053"><ele>207.39999999999998</ele><time>2026-04-21T09:09:33.999Z</time></trkpt><trkpt lat="36.978834397175326" lon="-2.04277380083129"><ele>207.2</ele><time>2026-04-21T09:09:34.999Z</time></trkpt><trkpt lat="36.97874371473098" lon="-2.04280208258694"><ele>207.0</ele><time>2026-04-21T09:09:35.999Z</time></trkpt><trkpt lat="36.978664091216956" lon="-2.0428531921978177"><ele>207.0</ele><time>2026-04-21T09:09:36.999Z</time></trkpt><trkpt lat="36.97857685475919" lon="-2.0428790303096354"><ele>207.0</ele><time>2026-04-21T09:09:37.999Z</time></trkpt><trkpt lat="36.97850735201064" lon="-2.0429423171267493"><ele>207.0</ele><time>2026-04-21T09:09:38.999Z</time></trkpt><trkpt lat="36.978443209762766" lon="-2.042995443664864"><ele>207.0</ele><time>2026-04-21T09:09:39.999Z</time></trkpt><trkpt lat="36.978347397755066" lon="-2.0429983135511"><ele>207.0</ele><time>2026-04-21T09:09:40.999Z</time></trkpt><trkpt lat="36.97827238439328" lon="-2.0430298533769764"><ele>207.0</ele><time>2026-04-21T09:09:41.999Z</time></trkpt><trkpt lat="36.97821391773192" lon="-2.0430867560625856"><ele>206.57142857142858</ele><time>2026-04-21T09:09:42.999Z</time></trkpt><trkpt lat="36.97814975402327" lon="-2.043130763076027"><ele>206.14285714285714</ele><time>2026-04-21T09:09:43.999Z</time></trkpt><trkpt lat="36.97809200302879" lon="-2.04318095452961"><ele>205.71428571428572</ele><time>2026-04-21T09:09:44.999Z</time></trkpt><trkpt lat="36.97802486531104" lon="-2.0432153264660564"><ele>205.28571428571428</ele><time>2026-04-21T09:09:45.999Z</time></trkpt><trkpt lat="36.97795679469026" lon="-2.0432487518146027"><ele>204.85714285714286</ele><time>2026-04-21T09:09:46.999Z</time></trkpt><trkpt lat="36.97789481846327" lon="-2.0432916349661654"><ele>204.42857142857144</ele><time>2026-04-21T09:09:47.999Z</time></trkpt><trkpt lat="36.977831903216156" lon="-2.043314866664526"><ele>204.0</ele><time>2026-04-21T09:09:48.999Z</time></trkpt><trkpt lat="36.977750817323624" lon="-2.0433741971234465"><ele>203.79999999999998</ele><time>2026-04-21T09:09:50.999Z</time></trkpt><trkpt lat="36.977652050239925" lon="-2.0434157828859396"><ele>203.6</ele><time>2026-04-21T09:09:52.999Z</time></trkpt><trkpt lat="36.977556421514734" lon="-2.043472541313615"><ele>203.4</ele><time>2026-04-21T09:09:54.999Z</time></trkpt><trkpt lat="36.977449763479484" lon="-2.0435186746636185"><ele>203.2</ele><time>2026-04-21T09:09:56.999Z</time></trkpt><trkpt lat="36.977350365850555" lon="-2.043552263108807"><ele>203.0</ele><time>2026-04-21T09:09:58.999Z</time></trkpt><trkpt lat="36.97724312308999" lon="-2.0435831846508647"><ele>202.2</ele><time>2026-04-21T09:10:00.999Z</time></trkpt><trkpt lat="36.977096298595626" lon="-2.0436142823022423"><ele>201.4</ele><time>2026-04-21T09:10:02.999Z</time></trkpt><trkpt lat="36.97700810457135" lon="-2.0436253603026606"><ele>200.6</ele><time>2026-04-21T09:10:03.999Z</time></trkpt><trkpt lat="36.97692413755666" lon="-2.0436468873100977"><ele>199.79999999999998</ele><time>2026-04-21T09:10:04.999Z</time></trkpt><trkpt lat="36.976839297361074" lon="-2.043679285986762"><ele>199.0</ele><time>2026-04-21T09:10:05.999Z</time></trkpt><trkpt lat="36.976776390702824" lon="-2.0437133830960406"><ele>198.0</ele><time>2026-04-21T09:10:06.999Z</time></trkpt><trkpt lat="36.97668122305093" lon="-2.04380179586453"><ele>197.0</ele><time>2026-04-21T09:10:08.999Z</time></trkpt><trkpt lat="36.976636111659865" lon="-2.043937685273"><ele>196.0</ele><time>2026-04-21T09:10:10.999Z</time></trkpt><trkpt lat="36.97657841818257" lon="-2.0440418766075568"><ele>195.0</ele><time>2026-04-21T09:10:12.999Z</time></trkpt><trkpt lat="36.97652283330083" lon="-2.0441666801614535"><ele>194.8</ele><time>2026-04-21T09:10:14.999Z</time></trkpt><trkpt lat="36.976481179389204" lon="-2.044300761924616"><ele>194.6</ele><time>2026-04-21T09:10:16.999Z</time></trkpt><trkpt lat="36.97645091611818" lon="-2.0444239600691687"><ele>194.39999999999998</ele><time>2026-04-21T09:10:18.999Z</time></trkpt><trkpt lat="36.97641370370766" lon="-2.044548812532255"><ele>194.2</ele><time>2026-04-21T09:10:20.999Z</time></trkpt><trkpt lat="36.97638295304339" lon="-2.0446640240875817"><ele>194.0</ele><time>2026-04-21T09:10:22.999Z</time></trkpt><trkpt lat="36.9763472156637" lon="-2.04480979498147"><ele>194.0</ele><time>2026-04-21T09:10:24.999Z</time></trkpt><trkpt lat="36.976327559628125" lon="-2.044889116727716"><ele>194.0</ele><time>2026-04-21T09:10:25.999Z</time></trkpt><trkpt lat="36.976291149466704" lon="-2.045023256678217"><ele>194.0</ele><time>2026-04-21T09:10:27.999Z</time></trkpt><trkpt lat="36.97625290994666" lon="-2.045178942093186"><ele>194.0</ele><time>2026-04-21T09:10:29.999Z</time></trkpt><trkpt lat="36.976230287373205" lon="-2.045328080128634"><ele>194.0</ele><time>2026-04-21T09:10:31.999Z</time></trkpt><trkpt lat="36.976220904286556" lon="-2.0454784774530097"><ele>194.5</ele><time>2026-04-21T09:10:33.999Z</time></trkpt><trkpt lat="36.976197160100334" lon="-2.0456304006154853"><ele>195.0</ele><time>2026-04-21T09:10:35.999Z</time></trkpt><trkpt lat="36.976172752298986" lon="-2.0457762744534955"><ele>195.5</ele><time>2026-04-21T09:10:37.999Z</time></trkpt><trkpt lat="36.976147345322914" lon="-2.0459125888582546"><ele>196.0</ele><time>2026-04-21T09:10:39.999Z</time></trkpt><trkpt lat="36.976132691148536" lon="-2.0460408420819793"><ele>196.4</ele><time>2026-04-21T09:10:41.999Z</time></trkpt><trkpt lat="36.97612288944638" lon="-2.0461602812635453"><ele>196.8</ele><time>2026-04-21T09:10:43.999Z</time></trkpt><trkpt lat="36.97613295535307" lon="-2.046269912526897"><ele>197.20000000000002</ele><time>2026-04-21T09:10:45.999Z</time></trkpt><trkpt lat="36.97614473372831" lon="-2.046392448056968"><ele>197.60000000000002</ele><time>2026-04-21T09:10:47.999Z</time></trkpt><trkpt lat="36.97615894458478" lon="-2.0465147496867813"><ele>198.0</ele><time>2026-04-21T09:10:49.999Z</time></trkpt><trkpt lat="36.97616444234178" lon="-2.046640918942107"><ele>198.4</ele><time>2026-04-21T09:10:51.999Z</time></trkpt><trkpt lat="36.9761540383424" lon="-2.046771092422346"><ele>198.8</ele><time>2026-04-21T09:10:53.999Z</time></trkpt><trkpt lat="36.97613645157496" lon="-2.0469100002794463"><ele>199.2</ele><time>2026-04-21T09:10:55.999Z</time></trkpt><trkpt lat="36.97611650070749" lon="-2.047040852661402"><ele>199.6</ele><time>2026-04-21T09:10:57.999Z</time></trkpt><trkpt lat="36.976088362513" lon="-2.0471751635393116"><ele>200.0</ele><time>2026-04-21T09:10:59.999Z</time></trkpt><trkpt lat="36.97605922965136" lon="-2.0473163213779166"><ele>200.0</ele><time>2026-04-21T09:11:01.999Z</time></trkpt><trkpt lat="36.97603676118496" lon="-2.0474303997032317"><ele>200.0</ele><time>2026-04-21T09:11:03.999Z</time></trkpt><trkpt lat="36.97600541494606" lon="-2.047579289524543"><ele>200.0</ele><time>2026-04-21T09:11:05.999Z</time></trkpt><trkpt lat="36.97598763842007" lon="-2.047713303739494"><ele>200.0</ele><time>2026-04-21T09:11:07.999Z</time></trkpt><trkpt lat="36.97598278389817" lon="-2.047834050538953"><ele>200.0</ele><time>2026-04-21T09:11:09.999Z</time></trkpt><trkpt lat="36.97601927473028" lon="-2.0479289631743423"><ele>199.6</ele><time>2026-04-21T09:11:11.999Z</time></trkpt><trkpt lat="36.97610463163807" lon="-2.0479939515436745"><ele>199.2</ele><time>2026-04-21T09:11:13.999Z</time></trkpt><trkpt lat="36.97620515101255" lon="-2.0480506673301453"><ele>198.8</ele><time>2026-04-21T09:11:15.999Z</time></trkpt><trkpt lat="36.97626448449828" lon="-2.048080604197431"><ele>198.4</ele><time>2026-04-21T09:11:16.999Z</time></trkpt><trkpt lat="36.97635914674852" lon="-2.048136738474708"><ele>198.0</ele><time>2026-04-21T09:11:18.999Z</time></trkpt><trkpt lat="36.97642168693297" lon="-2.0482160304493173"><ele>197.8</ele><time>2026-04-21T09:11:20.999Z</time></trkpt><trkpt lat="36.97642771282868" lon="-2.0483329871266425"><ele>197.60000000000002</ele><time>2026-04-21T09:11:22.999Z</time></trkpt><trkpt lat="36.97636866509885" lon="-2.0484778266208834"><ele>197.39999999999998</ele><time>2026-04-21T09:11:24.999Z</time></trkpt><trkpt lat="36.97632717697051" lon="-2.048562113549516"><ele>197.2</ele><time>2026-04-21T09:11:25.999Z</time></trkpt><trkpt lat="36.97627434721196" lon="-2.0486310967592303"><ele>197.0</ele><time>2026-04-21T09:11:26.999Z</time></trkpt><trkpt lat="36.97622055697005" lon="-2.048711071506502"><ele>197.00000000000003</ele><time>2026-04-21T09:11:27.999Z</time></trkpt><trkpt lat="36.976167906665594" lon="-2.0487964455129926"><ele>197.0</ele><time>2026-04-21T09:11:28.999Z</time></trkpt><trkpt lat="36.97612006424946" lon="-2.0488769449608224"><ele>197.0</ele><time>2026-04-21T09:11:29.999Z</time></trkpt><trkpt lat="36.976079729539286" lon="-2.048947784171115"><ele>197.0</ele><time>2026-04-21T09:11:30.999Z</time></trkpt><trkpt lat="36.97604014676037" lon="-2.049017709522409"><ele>197.00000000000003</ele><time>2026-04-21T09:11:31.998Z</time></trkpt><trkpt lat="36.97599121086759" lon="-2.0490934043656215"><ele>197.0</ele><time>2026-04-21T09:11:32.998Z</time></trkpt><trkpt lat="36.97594651319617" lon="-2.049169972626598"><ele>196.42857142857144</ele><time>2026-04-21T09:11:33.998Z</time></trkpt><trkpt lat="36.97590632492883" lon="-2.049235589820871"><ele>195.85714285714286</ele><time>2026-04-21T09:11:34.998Z</time></trkpt><trkpt lat="36.97586200110561" lon="-2.0493003506774343"><ele>195.28571428571428</ele><time>2026-04-21T09:11:35.998Z</time></trkpt><trkpt lat="36.975814315158" lon="-2.049375602819358"><ele>194.71428571428572</ele><time>2026-04-21T09:11:36.998Z</time></trkpt><trkpt lat="36.975766668532394" lon="-2.049446548939519"><ele>194.14285714285714</ele><time>2026-04-21T09:11:37.998Z</time></trkpt><trkpt lat="36.97572157224495" lon="-2.0495171161209957"><ele>193.57142857142858</ele><time>2026-04-21T09:11:38.998Z</time></trkpt><trkpt lat="36.97567623092371" lon="-2.0495945906170334"><ele>193.0</ele><time>2026-04-21T09:11:39.998Z</time></trkpt><trkpt lat="36.975614757647264" lon="-2.049681294260539"><ele>192.8</ele><time>2026-04-21T09:11:40.998Z</time></trkpt><trkpt lat="36.97556568977393" lon="-2.0497643409687685"><ele>192.60000000000002</ele><time>2026-04-21T09:11:41.998Z</time></trkpt><trkpt lat="36.97551350810037" lon="-2.0498542603274585"><ele>192.39999999999998</ele><time>2026-04-21T09:11:42.998Z</time></trkpt><trkpt lat="36.97545429219836" lon="-2.0499479650108747"><ele>192.2</ele><time>2026-04-21T09:11:43.998Z</time></trkpt><trkpt lat="36.97538640182775" lon="-2.050053483269208"><ele>192.0</ele><time>2026-04-21T09:11:44.998Z</time></trkpt><trkpt lat="36.97531729686481" lon="-2.050170462261329"><ele>192.0</ele><time>2026-04-21T09:11:45.998Z</time></trkpt><trkpt lat="36.975252193530416" lon="-2.0502773217575436"><ele>192.0</ele><time>2026-04-21T09:11:46.998Z</time></trkpt><trkpt lat="36.975187932721454" lon="-2.050384069450331"><ele>192.0</ele><time>2026-04-21T09:11:47.998Z</time></trkpt><trkpt lat="36.97513070900454" lon="-2.050484779372696"><ele>192.0</ele><time>2026-04-21T09:11:48.998Z</time></trkpt><trkpt lat="36.97506859487482" lon="-2.050587509773441"><ele>192.0</ele><time>2026-04-21T09:11:49.998Z</time></trkpt><trkpt lat="36.97500907072462" lon="-2.050686658753895"><ele>191.8</ele><time>2026-04-21T09:11:50.998Z</time></trkpt><trkpt lat="36.97494745651598" lon="-2.0507879991759532"><ele>191.6</ele><time>2026-04-21T09:11:51.998Z</time></trkpt><trkpt lat="36.97488538565567" lon="-2.050893385377446"><ele>191.4</ele><time>2026-04-21T09:11:52.998Z</time></trkpt><trkpt lat="36.97482669739198" lon="-2.050996940465828"><ele>191.20000000000002</ele><time>2026-04-21T09:11:53.998Z</time></trkpt><trkpt lat="36.97476347265496" lon="-2.0511030367157552"><ele>191.0</ele><time>2026-04-21T09:11:54.998Z</time></trkpt><trkpt lat="36.97469768400025" lon="-2.051210929872396"><ele>191.0</ele><time>2026-04-21T09:11:55.998Z</time></trkpt><trkpt lat="36.97463080610511" lon="-2.0513185758468677"><ele>191.0</ele><time>2026-04-21T09:11:56.998Z</time></trkpt><trkpt lat="36.97456248322942" lon="-2.051421729790306"><ele>191.0</ele><time>2026-04-21T09:11:57.998Z</time></trkpt><trkpt lat="36.974494469465846" lon="-2.051530634598896"><ele>191.0</ele><time>2026-04-21T09:11:58.998Z</time></trkpt><trkpt lat="36.97442973929326" lon="-2.051642679015991"><ele>191.0</ele><time>2026-04-21T09:11:59.998Z</time></trkpt><trkpt lat="36.97436473217556" lon="-2.051753218426823"><ele>191.0</ele><time>2026-04-21T09:12:00.998Z</time></trkpt><trkpt lat="36.974301596984475" lon="-2.051865419668805"><ele>191.0</ele><time>2026-04-21T09:12:01.998Z</time></trkpt><trkpt lat="36.974237163843746" lon="-2.0519787783114176"><ele>191.0</ele><time>2026-04-21T09:12:02.998Z</time></trkpt><trkpt lat="36.97417276309682" lon="-2.0520934864681966"><ele>191.0</ele><time>2026-04-21T09:12:03.998Z</time></trkpt><trkpt lat="36.974108336609206" lon="-2.052209970159234"><ele>191.0</ele><time>2026-04-21T09:12:04.998Z</time></trkpt><trkpt lat="36.97404259097785" lon="-2.052328175695975"><ele>190.5</ele><time>2026-04-21T09:12:05.998Z</time></trkpt><trkpt lat="36.97397623613893" lon="-2.0524433710307624"><ele>190.0</ele><time>2026-04-21T09:12:06.998Z</time></trkpt><trkpt lat="36.973909494905044" lon="-2.052558487938766"><ele>189.5</ele><time>2026-04-21T09:12:07.998Z</time></trkpt><trkpt lat="36.973842118050015" lon="-2.052671358891645"><ele>189.0</ele><time>2026-04-21T09:12:08.998Z</time></trkpt><trkpt lat="36.973776257844285" lon="-2.052787592535355"><ele>189.0</ele><time>2026-04-21T09:12:09.998Z</time></trkpt><trkpt lat="36.97370665541762" lon="-2.0529000971318383"><ele>189.0</ele><time>2026-04-21T09:12:10.998Z</time></trkpt><trkpt lat="36.973640155469226" lon="-2.053010821796756"><ele>189.0</ele><time>2026-04-21T09:12:11.998Z</time></trkpt><trkpt lat="36.97357731298803" lon="-2.0531219429094514"><ele>189.0</ele><time>2026-04-21T09:12:12.998Z</time></trkpt><trkpt lat="36.97351713122419" lon="-2.053222882947688"><ele>189.0</ele><time>2026-04-21T09:12:13.998Z</time></trkpt><trkpt lat="36.97346402670717" lon="-2.0533152436955975"><ele>189.0</ele><time>2026-04-21T09:12:14.998Z</time></trkpt><trkpt lat="36.97341078236381" lon="-2.053399485385155"><ele>189.0</ele><time>2026-04-21T09:12:15.998Z</time></trkpt><trkpt lat="36.973359956878056" lon="-2.0534836245221575"><ele>189.0</ele><time>2026-04-21T09:12:16.998Z</time></trkpt><trkpt lat="36.97330727904818" lon="-2.0535683291394635"><ele>189.0</ele><time>2026-04-21T09:12:17.998Z</time></trkpt><trkpt lat="36.973256045035896" lon="-2.053655180836272"><ele>189.0</ele><time>2026-04-21T09:12:18.998Z</time></trkpt><trkpt lat="36.97320616885084" lon="-2.053739798043232"><ele>189.0</ele><time>2026-04-21T09:12:19.998Z</time></trkpt><trkpt lat="36.973162207405906" lon="-2.0538200897830152"><ele>189.0</ele><time>2026-04-21T09:12:20.998Z</time></trkpt><trkpt lat="36.97311638058321" lon="-2.0538960131426847"><ele>189.0</ele><time>2026-04-21T09:12:21.998Z</time></trkpt><trkpt lat="36.97307124296405" lon="-2.0539776934689606"><ele>189.0</ele><time>2026-04-21T09:12:22.998Z</time></trkpt><trkpt lat="36.97302470101076" lon="-2.0540630287427692"><ele>189.0</ele><time>2026-04-21T09:12:23.998Z</time></trkpt><trkpt lat="36.972976415183766" lon="-2.0541524164851115"><ele>189.0</ele><time>2026-04-21T09:12:24.998Z</time></trkpt><trkpt lat="36.9729243947106" lon="-2.054248729820428"><ele>189.0</ele><time>2026-04-21T09:12:25.998Z</time></trkpt><trkpt lat="36.97286677779427" lon="-2.0543539899685084"><ele>189.0</ele><time>2026-04-21T09:12:26.998Z</time></trkpt><trkpt lat="36.97280617082341" lon="-2.0544622190538044"><ele>189.0</ele><time>2026-04-21T09:12:27.998Z</time></trkpt><trkpt lat="36.97273783282129" lon="-2.054577409676188"><ele>189.0</ele><time>2026-04-21T09:12:28.998Z</time></trkpt><trkpt lat="36.97265950596148" lon="-2.054709933640669"><ele>189.0</ele><time>2026-04-21T09:12:29.998Z</time></trkpt><trkpt lat="36.972574076480065" lon="-2.0548624514281695"><ele>188.5</ele><time>2026-04-21T09:12:30.998Z</time></trkpt><trkpt lat="36.972486846292206" lon="-2.0550151117038675"><ele>188.0</ele><time>2026-04-21T09:12:31.998Z</time></trkpt><trkpt lat="36.972409732201385" lon="-2.055161040383765"><ele>187.5</ele><time>2026-04-21T09:12:32.998Z</time></trkpt><trkpt lat="36.97233403572263" lon="-2.055297410549531"><ele>187.0</ele><time>2026-04-21T09:12:33.998Z</time></trkpt><trkpt lat="36.97226228988289" lon="-2.0554364190191245"><ele>187.0</ele><time>2026-04-21T09:12:34.998Z</time></trkpt><trkpt lat="36.9721835568994" lon="-2.0555770291220345"><ele>187.0</ele><time>2026-04-21T09:12:35.998Z</time></trkpt><trkpt lat="36.972107940432146" lon="-2.0557241060566023"><ele>187.0</ele><time>2026-04-21T09:12:36.998Z</time></trkpt><trkpt lat="36.972020588840984" lon="-2.0558689119394074"><ele>187.0</ele><time>2026-04-21T09:12:37.998Z</time></trkpt><trkpt lat="36.971929599509146" lon="-2.0560155874700317"><ele>187.0</ele><time>2026-04-21T09:12:38.998Z</time></trkpt><trkpt lat="36.971839456956324" lon="-2.0561598804042447"><ele>187.0</ele><time>2026-04-21T09:12:39.998Z</time></trkpt><trkpt lat="36.971749727915736" lon="-2.0563018624580094"><ele>187.0</ele><time>2026-04-21T09:12:40.998Z</time></trkpt><trkpt lat="36.971669205871926" lon="-2.056447858696348"><ele>187.0</ele><time>2026-04-21T09:12:41.998Z</time></trkpt><trkpt lat="36.97159097422364" lon="-2.056593124409474"><ele>186.25</ele><time>2026-04-21T09:12:42.998Z</time></trkpt><trkpt lat="36.97151074532899" lon="-2.0567350541329907"><ele>185.5</ele><time>2026-04-21T09:12:43.998Z</time></trkpt><trkpt lat="36.97142687091888" lon="-2.056871125850691"><ele>184.75</ele><time>2026-04-21T09:12:44.998Z</time></trkpt><trkpt lat="36.97133815463019" lon="-2.056998642138669"><ele>184.0</ele><time>2026-04-21T09:12:45.998Z</time></trkpt><trkpt lat="36.97124638380241" lon="-2.057116217711308"><ele>184.0</ele><time>2026-04-21T09:12:46.998Z</time></trkpt><trkpt lat="36.971157620061284" lon="-2.0572330043828173"><ele>184.0</ele><time>2026-04-21T09:12:47.998Z</time></trkpt><trkpt lat="36.97107131011283" lon="-2.0573485279632395"><ele>184.0</ele><time>2026-04-21T09:12:48.998Z</time></trkpt><trkpt lat="36.970990506740335" lon="-2.057453830733136"><ele>184.0</ele><time>2026-04-21T09:12:49.998Z</time></trkpt><trkpt lat="36.970921066970206" lon="-2.057547403754397"><ele>184.0</ele><time>2026-04-21T09:12:50.998Z</time></trkpt><trkpt lat="36.970863901216056" lon="-2.057645937421179"><ele>184.0</ele><time>2026-04-21T09:12:51.998Z</time></trkpt><trkpt lat="36.97081203851764" lon="-2.0577502067989095"><ele>184.0</ele><time>2026-04-21T09:12:52.998Z</time></trkpt><trkpt lat="36.97077150116895" lon="-2.0578514422266667"><ele>184.0</ele><time>2026-04-21T09:12:53.998Z</time></trkpt><trkpt lat="36.97073739515943" lon="-2.057944808046971"><ele>184.0</ele><time>2026-04-21T09:12:54.998Z</time></trkpt><trkpt lat="36.97070492303848" lon="-2.0580303329815273"><ele>184.0</ele><time>2026-04-21T09:12:55.998Z</time></trkpt><trkpt lat="36.97067480196762" lon="-2.0581097121172847"><ele>184.0</ele><time>2026-04-21T09:12:56.998Z</time></trkpt><trkpt lat="36.970623669769026" lon="-2.0582377085906174"><ele>184.0</ele><time>2026-04-21T09:12:58.998Z</time></trkpt><trkpt lat="36.97056814895221" lon="-2.0583240295114265"><ele>184.0</ele><time>2026-04-21T09:13:00.998Z</time></trkpt><trkpt lat="36.97046967799469" lon="-2.058287758294992"><ele>184.0</ele><time>2026-04-21T09:13:02.998Z</time></trkpt><trkpt lat="36.970383354161974" lon="-2.058232099203372"><ele>184.0</ele><time>2026-04-21T09:13:03.998Z</time></trkpt><trkpt lat="36.970268016703194" lon="-2.058176964822662"><ele>184.0</ele><time>2026-04-21T09:13:04.998Z</time></trkpt><trkpt lat="36.97013159401307" lon="-2.0581251287749365"><ele>184.0</ele><time>2026-04-21T09:13:05.998Z</time></trkpt><trkpt lat="36.96999369528831" lon="-2.0580694301233273"><ele>184.0</ele><time>2026-04-21T09:13:06.998Z</time></trkpt><trkpt lat="36.96985835349259" lon="-2.0580406607609834"><ele>184.0</ele><time>2026-04-21T09:13:07.998Z</time></trkpt><trkpt lat="36.96972341172837" lon="-2.058023950366151"><ele>184.0</ele><time>2026-04-21T09:13:08.998Z</time></trkpt><trkpt lat="36.96958014562546" lon="-2.058037299338588"><ele>184.0</ele><time>2026-04-21T09:13:09.998Z</time></trkpt><trkpt lat="36.96943450504678" lon="-2.0580767480230695"><ele>184.0</ele><time>2026-04-21T09:13:10.998Z</time></trkpt><trkpt lat="36.96928085710845" lon="-2.0581456880532127"><ele>184.0</ele><time>2026-04-21T09:13:11.998Z</time></trkpt><trkpt lat="36.96911155525556" lon="-2.058211495930417"><ele>184.0</ele><time>2026-04-21T09:13:12.998Z</time></trkpt><trkpt lat="36.96893149580874" lon="-2.0582650562578637"><ele>184.0</ele><time>2026-04-21T09:13:13.998Z</time></trkpt><trkpt lat="36.96873806787345" lon="-2.058327864893395"><ele>184.0</ele><time>2026-04-21T09:13:14.998Z</time></trkpt><trkpt lat="36.96855203778595" lon="-2.0584204270332065"><ele>184.0</ele><time>2026-04-21T09:13:15.998Z</time></trkpt><trkpt lat="36.9683609960904" lon="-2.058525404084997"><ele>184.0</ele><time>2026-04-21T09:13:16.998Z</time></trkpt><trkpt lat="36.96816790774959" lon="-2.058640821879703"><ele>184.33333333333334</ele><time>2026-04-21T09:13:17.998Z</time></trkpt><trkpt lat="36.967986977883825" lon="-2.058731299030814"><ele>184.66666666666666</ele><time>2026-04-21T09:13:18.998Z</time></trkpt><trkpt lat="36.9678226151552" lon="-2.0588157632455264"><ele>185.0</ele><time>2026-04-21T09:13:19.997Z</time></trkpt><trkpt lat="36.9676587186939" lon="-2.058901735828688"><ele>185.0</ele><time>2026-04-21T09:13:20.997Z</time></trkpt><trkpt lat="36.967492180013366" lon="-2.0589694748120917"><ele>185.0</ele><time>2026-04-21T09:13:21.997Z</time></trkpt><trkpt lat="36.96734123629217" lon="-2.059043972457936"><ele>185.0</ele><time>2026-04-21T09:13:22.997Z</time></trkpt><trkpt lat="36.96718501070172" lon="-2.0591006840477197"><ele>186.66666666666666</ele><time>2026-04-21T09:13:23.997Z</time></trkpt><trkpt lat="36.967025864941995" lon="-2.059118974177813"><ele>188.33333333333334</ele><time>2026-04-21T09:13:24.997Z</time></trkpt><trkpt lat="36.96686215483576" lon="-2.0591538941997696"><ele>190.0</ele><time>2026-04-21T09:13:25.997Z</time></trkpt><trkpt lat="36.96669822102097" lon="-2.0591918547202965"><ele>190.33333333333334</ele><time>2026-04-21T09:13:26.997Z</time></trkpt><trkpt lat="36.96654490221363" lon="-2.0592300191650454"><ele>190.66666666666666</ele><time>2026-04-21T09:13:27.997Z</time></trkpt><trkpt lat="36.966387048696774" lon="-2.0592488111001908"><ele>191.0</ele><time>2026-04-21T09:13:28.997Z</time></trkpt><trkpt lat="36.96624329201" lon="-2.059291865683034"><ele>191.0</ele><time>2026-04-21T09:13:29.997Z</time></trkpt><trkpt lat="36.96610867667221" lon="-2.059319225100832"><ele>191.0</ele><time>2026-04-21T09:13:30.997Z</time></trkpt><trkpt lat="36.96599649169278" lon="-2.059389064332754"><ele>191.0</ele><time>2026-04-21T09:13:31.997Z</time></trkpt><trkpt lat="36.96591382513777" lon="-2.059461259248162"><ele>191.0</ele><time>2026-04-21T09:13:32.997Z</time></trkpt><trkpt lat="36.96587567144023" lon="-2.059557013265298"><ele>191.0</ele><time>2026-04-21T09:13:33.997Z</time></trkpt><trkpt lat="36.96587093542183" lon="-2.0596464436209554"><ele>191.0</ele><time>2026-04-21T09:13:35.997Z</time></trkpt><trkpt lat="36.96592146527615" lon="-2.0596997103209707"><ele>191.0</ele><time>2026-04-21T09:13:41.996Z</time></trkpt><trkpt lat="36.96584824899126" lon="-2.059626020725444"><ele>191.0</ele><time>2026-04-21T09:13:45.996Z</time></trkpt><trkpt lat="36.9657114429095" lon="-2.0596248474878305"><ele>191.0</ele><time>2026-04-21T09:13:47.996Z</time></trkpt><trkpt lat="36.96563981975642" lon="-2.0596432095550092"><ele>191.0</ele><time>2026-04-21T09:13:48.996Z</time></trkpt><trkpt lat="36.96556639784713" lon="-2.0596587432232316"><ele>191.0</ele><time>2026-04-21T09:13:49.996Z</time></trkpt><trkpt lat="36.9654778288683" lon="-2.059655000863003"><ele>190.16666666666666</ele><time>2026-04-21T09:13:50.996Z</time></trkpt><trkpt lat="36.96538696173733" lon="-2.0596462031700145"><ele>189.33333333333331</ele><time>2026-04-21T09:13:51.996Z</time></trkpt><trkpt lat="36.96529543006658" lon="-2.059651023344908"><ele>188.5</ele><time>2026-04-21T09:13:52.996Z</time></trkpt><trkpt lat="36.965222002025605" lon="-2.0596450161717814"><ele>187.66666666666666</ele><time>2026-04-21T09:13:53.996Z</time></trkpt><trkpt lat="36.96515590413079" lon="-2.0596413747955005"><ele>186.83333333333334</ele><time>2026-04-21T09:13:54.996Z</time></trkpt><trkpt lat="36.96509755059436" lon="-2.05967267677197"><ele>186.0</ele><time>2026-04-21T09:13:55.996Z</time></trkpt><trkpt lat="36.96499383775724" lon="-2.0596872716963137"><ele>185.20000000000002</ele><time>2026-04-21T09:13:57.996Z</time></trkpt><trkpt lat="36.964889308679425" lon="-2.059717550562383"><ele>184.4</ele><time>2026-04-21T09:13:59.996Z</time></trkpt><trkpt lat="36.964802591889764" lon="-2.0596828309544546"><ele>183.6</ele><time>2026-04-21T09:14:01.996Z</time></trkpt><trkpt lat="36.96473160001306" lon="-2.0597101912610447"><ele>182.8</ele><time>2026-04-21T09:14:02.996Z</time></trkpt><trkpt lat="36.964617394435116" lon="-2.059705970537578"><ele>182.0</ele><time>2026-04-21T09:14:04.996Z</time></trkpt><trkpt lat="36.96454000064282" lon="-2.0596781363596017"><ele>182.0</ele><time>2026-04-21T09:14:06.996Z</time></trkpt><trkpt lat="36.96444353282571" lon="-2.0596856875024714"><ele>182.0</ele><time>2026-04-21T09:14:08.996Z</time></trkpt><trkpt lat="36.96435775311823" lon="-2.059670034205192"><ele>182.0</ele><time>2026-04-21T09:14:10.996Z</time></trkpt><trkpt lat="36.96427382626559" lon="-2.059687667798349"><ele>182.0</ele><time>2026-04-21T09:14:12.996Z</time></trkpt><trkpt lat="36.964203647229915" lon="-2.059676796978688"><ele>182.0</ele><time>2026-04-21T09:14:13.996Z</time></trkpt><trkpt lat="36.964098865646484" lon="-2.0596755526416097"><ele>182.0</ele><time>2026-04-21T09:14:15.996Z</time></trkpt><trkpt lat="36.964016989063545" lon="-2.0596926880988318"><ele>181.2</ele><time>2026-04-21T09:14:16.996Z</time></trkpt><trkpt lat="36.96393627565783" lon="-2.0596997744108103"><ele>180.39999999999998</ele><time>2026-04-21T09:14:17.996Z</time></trkpt><trkpt lat="36.96384618479763" lon="-2.059704333986599"><ele>179.60000000000002</ele><time>2026-04-21T09:14:18.996Z</time></trkpt><trkpt lat="36.963739182061495" lon="-2.059721662113966"><ele>178.8</ele><time>2026-04-21T09:14:19.996Z</time></trkpt><trkpt lat="36.963599936477884" lon="-2.059738675244029"><ele>178.0</ele><time>2026-04-21T09:14:20.996Z</time></trkpt><trkpt lat="36.96346119377424" lon="-2.059741250176724"><ele>177.0</ele><time>2026-04-21T09:14:21.996Z</time></trkpt><trkpt lat="36.963300160959825" lon="-2.059745185718692"><ele>176.0</ele><time>2026-04-21T09:14:22.996Z</time></trkpt><trkpt lat="36.963147213155565" lon="-2.0597512483496696"><ele>175.0</ele><time>2026-04-21T09:14:23.996Z</time></trkpt><trkpt lat="36.96298748919972" lon="-2.0597608725193965"><ele>175.0</ele><time>2026-04-21T09:14:24.996Z</time></trkpt><trkpt lat="36.96283181662271" lon="-2.059755891001524"><ele>175.0</ele><time>2026-04-21T09:14:25.996Z</time></trkpt><trkpt lat="36.96269443595132" lon="-2.059736588863995"><ele>175.0</ele><time>2026-04-21T09:14:26.996Z</time></trkpt><trkpt lat="36.962575431416326" lon="-2.059713256348174"><ele>175.0</ele><time>2026-04-21T09:14:27.996Z</time></trkpt><trkpt lat="36.9624473063796" lon="-2.059760837916509"><ele>175.0</ele><time>2026-04-21T09:14:28.996Z</time></trkpt><trkpt lat="36.962324799366584" lon="-2.0597439416798347"><ele>175.0</ele><time>2026-04-21T09:14:29.996Z</time></trkpt><trkpt lat="36.9621957129609" lon="-2.059716456891105"><ele>175.0</ele><time>2026-04-21T09:14:30.996Z</time></trkpt><trkpt lat="36.96205606069998" lon="-2.059759463481471"><ele>175.0</ele><time>2026-04-21T09:14:32.001Z</time></trkpt><trkpt lat="36.96191065315468" lon="-2.0597765356799185"><ele>175.0</ele><time>2026-04-21T09:14:33.001Z</time></trkpt><trkpt lat="36.9617699112197" lon="-2.0597855180811475"><ele>175.0</ele><time>2026-04-21T09:14:34.001Z</time></trkpt><trkpt lat="36.96162580158263" lon="-2.059812353680333"><ele>175.0</ele><time>2026-04-21T09:14:35.001Z</time></trkpt><trkpt lat="36.961497000292454" lon="-2.059821143463414"><ele>175.0</ele><time>2026-04-21T09:14:36.001Z</time></trkpt><trkpt lat="36.961359746301305" lon="-2.0598505074784597"><ele>174.33333333333334</ele><time>2026-04-21T09:14:37.001Z</time></trkpt><trkpt lat="36.961209867770044" lon="-2.0598670597328463"><ele>173.66666666666666</ele><time>2026-04-21T09:14:38.001Z</time></trkpt><trkpt lat="36.96105730679629" lon="-2.059897533037457"><ele>173.0</ele><time>2026-04-21T09:14:39.001Z</time></trkpt><trkpt lat="36.96091588815187" lon="-2.0599614421441155"><ele>172.25</ele><time>2026-04-21T09:14:40.001Z</time></trkpt><trkpt lat="36.96077023315297" lon="-2.060000130454913"><ele>171.5</ele><time>2026-04-21T09:14:41.001Z</time></trkpt><trkpt lat="36.96065172761112" lon="-2.0600452733771077"><ele>170.75</ele><time>2026-04-21T09:14:42.001Z</time></trkpt><trkpt lat="36.960547568161346" lon="-2.0600804098636347"><ele>170.0</ele><time>2026-04-21T09:14:43.001Z</time></trkpt><trkpt lat="36.96043067334818" lon="-2.0601577928211836"><ele>170.0</ele><time>2026-04-21T09:14:44.001Z</time></trkpt><trkpt lat="36.96030847440665" lon="-2.0602124747945143"><ele>170.0</ele><time>2026-04-21T09:14:45.001Z</time></trkpt><trkpt lat="36.960185840438804" lon="-2.060258129030492"><ele>170.0</ele><time>2026-04-21T09:14:46.001Z</time></trkpt><trkpt lat="36.96007637507505" lon="-2.060319274260317"><ele>170.0</ele><time>2026-04-21T09:14:47.001Z</time></trkpt><trkpt lat="36.95997248484057" lon="-2.0603791966825433"><ele>169.8</ele><time>2026-04-21T09:14:48Z</time></trkpt><trkpt lat="36.95988213364104" lon="-2.06045734512472"><ele>169.6</ele><time>2026-04-21T09:14:49Z</time></trkpt><trkpt lat="36.959805741136" lon="-2.060531961757453"><ele>169.39999999999998</ele><time>2026-04-21T09:14:50Z</time></trkpt><trkpt lat="36.959740891611965" lon="-2.060611808047695"><ele>169.2</ele><time>2026-04-21T09:14:51Z</time></trkpt><trkpt lat="36.95966304256857" lon="-2.060652291647591"><ele>169.0</ele><time>2026-04-21T09:14:52Z</time></trkpt><trkpt lat="36.95958608551353" lon="-2.0607089351294374"><ele>169.0</ele><time>2026-04-21T09:14:53Z</time></trkpt><trkpt lat="36.959491618474296" lon="-2.0607615149288723"><ele>169.0</ele><time>2026-04-21T09:14:54Z</time></trkpt><trkpt lat="36.95939417089449" lon="-2.0608408566924763"><ele>169.0</ele><time>2026-04-21T09:14:55Z</time></trkpt><trkpt lat="36.95929697554544" lon="-2.0609151841065794"><ele>169.0</ele><time>2026-04-21T09:14:56Z</time></trkpt><trkpt lat="36.95923318531414" lon="-2.0609695759698377"><ele>169.0</ele><time>2026-04-21T09:14:57Z</time></trkpt><trkpt lat="36.95915139045248" lon="-2.0609920634646097"><ele>169.0</ele><time>2026-04-21T09:14:58Z</time></trkpt><trkpt lat="36.959086999141576" lon="-2.06101793898043"><ele>169.0</ele><time>2026-04-21T09:14:59Z</time></trkpt><trkpt lat="36.95901939930573" lon="-2.0610629526488013"><ele>169.0</ele><time>2026-04-21T09:15:00Z</time></trkpt><trkpt lat="36.95894120499433" lon="-2.0610993004874323"><ele>169.0</ele><time>2026-04-21T09:15:01Z</time></trkpt><trkpt lat="36.95886569314726" lon="-2.061130627793916"><ele>169.0</ele><time>2026-04-21T09:15:02Z</time></trkpt><trkpt lat="36.958800219897064" lon="-2.0611938135392616"><ele>169.0</ele><time>2026-04-21T09:15:03Z</time></trkpt><trkpt lat="36.958709213026644" lon="-2.0612110852234533"><ele>169.0</ele><time>2026-04-21T09:15:04Z</time></trkpt><trkpt lat="36.95864485944106" lon="-2.061268274457102"><ele>169.0</ele><time>2026-04-21T09:15:05Z</time></trkpt><trkpt lat="36.958585614522" lon="-2.0613067998352137"><ele>169.0</ele><time>2026-04-21T09:15:06Z</time></trkpt><trkpt lat="36.9585328613127" lon="-2.061391485458582"><ele>169.0</ele><time>2026-04-21T09:15:08Z</time></trkpt><trkpt lat="36.958561662810766" lon="-2.0615316159136605"><ele>169.0</ele><time>2026-04-21T09:15:10Z</time></trkpt><trkpt lat="36.958587188212086" lon="-2.0616242466314634"><ele>169.0</ele><time>2026-04-21T09:15:11Z</time></trkpt><trkpt lat="36.958618349459044" lon="-2.061721654144552"><ele>169.2</ele><time>2026-04-21T09:15:12Z</time></trkpt><trkpt lat="36.95864761523065" lon="-2.0618212052634655"><ele>169.39999999999998</ele><time>2026-04-21T09:15:13Z</time></trkpt><trkpt lat="36.958689202333744" lon="-2.0619217451909213"><ele>169.6</ele><time>2026-04-21T09:15:14Z</time></trkpt><trkpt lat="36.95871353413719" lon="-2.0620303635110475"><ele>169.8</ele><time>2026-04-21T09:15:15Z</time></trkpt><trkpt lat="36.958742612155305" lon="-2.0621439309081584"><ele>170.0</ele><time>2026-04-21T09:15:16Z</time></trkpt><trkpt lat="36.95877542296937" lon="-2.062260410110735"><ele>170.0</ele><time>2026-04-21T09:15:17Z</time></trkpt><trkpt lat="36.95879261922837" lon="-2.062373496206064"><ele>170.0</ele><time>2026-04-21T09:15:18Z</time></trkpt><trkpt lat="36.958830216116695" lon="-2.0624797241650468"><ele>170.0</ele><time>2026-04-21T09:15:19Z</time></trkpt><trkpt lat="36.95885722796459" lon="-2.06260177750485"><ele>170.0</ele><time>2026-04-21T09:15:20Z</time></trkpt><trkpt lat="36.958875682791984" lon="-2.0627049478372954"><ele>170.0</ele><time>2026-04-21T09:15:20.999Z</time></trkpt><trkpt lat="36.95890578813943" lon="-2.062805706870676"><ele>169.57142857142858</ele><time>2026-04-21T09:15:21.999Z</time></trkpt><trkpt lat="36.95893124880051" lon="-2.062907116052719"><ele>169.14285714285714</ele><time>2026-04-21T09:15:22.999Z</time></trkpt><trkpt lat="36.95895530350883" lon="-2.0629879553795996"><ele>168.71428571428572</ele><time>2026-04-21T09:15:23.999Z</time></trkpt><trkpt lat="36.958974710256584" lon="-2.06307103865918"><ele>168.28571428571428</ele><time>2026-04-21T09:15:24.999Z</time></trkpt><trkpt lat="36.958993331434904" lon="-2.0631533924813032"><ele>167.85714285714286</ele><time>2026-04-21T09:15:25.999Z</time></trkpt><trkpt lat="36.959035070698825" lon="-2.0632272614601876"><ele>167.42857142857142</ele><time>2026-04-21T09:15:26.999Z</time></trkpt><trkpt lat="36.95907048312877" lon="-2.063303054591199"><ele>167.0</ele><time>2026-04-21T09:15:27.999Z</time></trkpt><trkpt lat="36.95909769125436" lon="-2.0633811069742665"><ele>167.0</ele><time>2026-04-21T09:15:28.999Z</time></trkpt><trkpt lat="36.959083456892365" lon="-2.063492008794039"><ele>167.0</ele><time>2026-04-21T09:15:29.999Z</time></trkpt><trkpt lat="36.9590835902461" lon="-2.0635985353103785"><ele>167.0</ele><time>2026-04-21T09:15:30.999Z</time></trkpt><trkpt lat="36.95907474160339" lon="-2.063700003732142"><ele>167.0</ele><time>2026-04-21T09:15:31.999Z</time></trkpt><trkpt lat="36.95905075820235" lon="-2.0638245066373035"><ele>167.0</ele><time>2026-04-21T09:15:32.999Z</time></trkpt><trkpt lat="36.959026850401806" lon="-2.0639736756295073"><ele>166.6</ele><time>2026-04-21T09:15:33.999Z</time></trkpt><trkpt lat="36.958992055748354" lon="-2.0641180388599993"><ele>166.2</ele><time>2026-04-21T09:15:34.999Z</time></trkpt><trkpt lat="36.9589718780519" lon="-2.0642571683316415"><ele>165.8</ele><time>2026-04-21T09:15:35.999Z</time></trkpt><trkpt lat="36.95893062581087" lon="-2.0643757025947957"><ele>165.4</ele><time>2026-04-21T09:15:36.999Z</time></trkpt><trkpt lat="36.95888813375861" lon="-2.0644983706635944"><ele>165.0</ele><time>2026-04-21T09:15:37.999Z</time></trkpt><trkpt lat="36.958843005204336" lon="-2.0646249864020576"><ele>165.0</ele><time>2026-04-21T09:15:38.999Z</time></trkpt><trkpt lat="36.95880702351609" lon="-2.0647415010373456"><ele>165.0</ele><time>2026-04-21T09:15:39.999Z</time></trkpt><trkpt lat="36.958778394042575" lon="-2.064861495017252"><ele>165.0</ele><time>2026-04-21T09:15:40.999Z</time></trkpt><trkpt lat="36.95874747374628" lon="-2.064999889253239"><ele>165.0</ele><time>2026-04-21T09:15:41.999Z</time></trkpt><trkpt lat="36.95873147817313" lon="-2.0651273205351193"><ele>165.0</ele><time>2026-04-21T09:15:42.999Z</time></trkpt><trkpt lat="36.95871599054579" lon="-2.065255683346225"><ele>165.2</ele><time>2026-04-21T09:15:43.999Z</time></trkpt><trkpt lat="36.95871558465975" lon="-2.0653691687344367"><ele>165.4</ele><time>2026-04-21T09:15:44.999Z</time></trkpt><trkpt lat="36.95870195970176" lon="-2.0654968911680216"><ele>165.60000000000002</ele><time>2026-04-21T09:15:45.999Z</time></trkpt><trkpt lat="36.95866549197002" lon="-2.0656350889057227"><ele>165.8</ele><time>2026-04-21T09:15:46.999Z</time></trkpt><trkpt lat="36.958649036598565" lon="-2.0657636462341427"><ele>166.0</ele><time>2026-04-21T09:15:47.999Z</time></trkpt><trkpt lat="36.95865317956692" lon="-2.0659028146792435"><ele>166.20000000000002</ele><time>2026-04-21T09:15:48.999Z</time></trkpt><trkpt lat="36.95862561396747" lon="-2.06603153149754"><ele>166.4</ele><time>2026-04-21T09:15:49.999Z</time></trkpt><trkpt lat="36.95857405043069" lon="-2.0661455847638925"><ele>166.6</ele><time>2026-04-21T09:15:50.999Z</time></trkpt><trkpt lat="36.95854467380521" lon="-2.0662619548509777"><ele>166.8</ele><time>2026-04-21T09:15:51.999Z</time></trkpt><trkpt lat="36.958526805311934" lon="-2.0663753763775943"><ele>167.0</ele><time>2026-04-21T09:15:52.999Z</time></trkpt><trkpt lat="36.958513992948866" lon="-2.06649835128001"><ele>167.2</ele><time>2026-04-21T09:15:53.999Z</time></trkpt><trkpt lat="36.95848916611289" lon="-2.0666261405392516"><ele>167.39999999999998</ele><time>2026-04-21T09:15:54.999Z</time></trkpt><trkpt lat="36.95845521184024" lon="-2.0667633523056264"><ele>167.60000000000002</ele><time>2026-04-21T09:15:55.999Z</time></trkpt><trkpt lat="36.95843094356201" lon="-2.0668936848252994"><ele>167.8</ele><time>2026-04-21T09:15:56.999Z</time></trkpt><trkpt lat="36.95839883373335" lon="-2.0670011614284642"><ele>168.0</ele><time>2026-04-21T09:15:57.999Z</time></trkpt><trkpt lat="36.95837186424256" lon="-2.0671058835734097"><ele>168.0</ele><time>2026-04-21T09:15:58.999Z</time></trkpt><trkpt lat="36.95835880707026" lon="-2.06720677973441"><ele>168.0</ele><time>2026-04-21T09:15:59.999Z</time></trkpt><trkpt lat="36.958360129425095" lon="-2.0672863186099706"><ele>168.0</ele><time>2026-04-21T09:16:00.999Z</time></trkpt><trkpt lat="36.95839205086752" lon="-2.067387442304227"><ele>168.0</ele><time>2026-04-21T09:16:02.999Z</time></trkpt><trkpt lat="36.958327500067725" lon="-2.0674211752604985"><ele>168.0</ele><time>2026-04-21T09:16:07.999Z</time></trkpt><trkpt lat="36.95825695383134" lon="-2.067461761615961"><ele>168.0</ele><time>2026-04-21T09:16:09.999Z</time></trkpt><trkpt lat="36.9582122371788" lon="-2.0675638431172754"><ele>167.5</ele><time>2026-04-21T09:16:11.999Z</time></trkpt><trkpt lat="36.958182808097554" lon="-2.0676728307767656"><ele>167.0</ele><time>2026-04-21T09:16:13.999Z</time></trkpt><trkpt lat="36.95819354858233" lon="-2.067759174028031"><ele>166.5</ele><time>2026-04-21T09:16:16.999Z</time></trkpt><trkpt lat="36.95813011110595" lon="-2.0676483956823484"><ele>166.0</ele><time>2026-04-21T09:16:26.999Z</time></trkpt><trkpt lat="36.95815266639409" lon="-2.0675721757716596"><ele>165.5</ele><time>2026-04-21T09:16:27.999Z</time></trkpt><trkpt lat="36.958223554791296" lon="-2.0674941156585"><ele>165.0</ele><time>2026-04-21T09:16:29.999Z</time></trkpt><trkpt lat="36.958303477504316" lon="-2.0675087313705864"><ele>165.71428571428572</ele><time>2026-04-21T09:16:31.999Z</time></trkpt><trkpt lat="36.958370724488105" lon="-2.067561652057819"><ele>166.42857142857144</ele><time>2026-04-21T09:16:33.999Z</time></trkpt><trkpt lat="36.958415746972236" lon="-2.0676239769718414"><ele>167.14285714285717</ele><time>2026-04-21T09:16:34.999Z</time></trkpt><trkpt lat="36.95850239303856" lon="-2.067677910315308"><ele>167.85714285714286</ele><time>2026-04-21T09:16:35.999Z</time></trkpt><trkpt lat="36.95854092985873" lon="-2.0677439965619886"><ele>168.57142857142856</ele><time>2026-04-21T09:16:36.999Z</time></trkpt><trkpt lat="36.9585538784623" lon="-2.067828527458375"><ele>169.2857142857143</ele><time>2026-04-21T09:16:37.999Z</time></trkpt><trkpt lat="36.95858415469342" lon="-2.0679071434086755"><ele>170.0</ele><time>2026-04-21T09:16:38.999Z</time></trkpt><trkpt lat="36.95860470817149" lon="-2.068001512528291"><ele>170.0</ele><time>2026-04-21T09:16:39.999Z</time></trkpt><trkpt lat="36.958630923187144" lon="-2.0680914114256908"><ele>170.0</ele><time>2026-04-21T09:16:40.999Z</time></trkpt><trkpt lat="36.95865334313867" lon="-2.0682516435624634"><ele>170.0</ele><time>2026-04-21T09:16:42.999Z</time></trkpt><trkpt lat="36.9586543909113" lon="-2.068340441155294"><ele>170.0</ele><time>2026-04-21T09:16:43.999Z</time></trkpt><trkpt lat="36.958663939208414" lon="-2.068445416150384"><ele>170.0</ele><time>2026-04-21T09:16:44.999Z</time></trkpt><trkpt lat="36.95868176157482" lon="-2.068560949917418"><ele>170.0</ele><time>2026-04-21T09:16:45.999Z</time></trkpt><trkpt lat="36.958696934141656" lon="-2.0686905079401483"><ele>170.0</ele><time>2026-04-21T09:16:46.999Z</time></trkpt><trkpt lat="36.95870806195403" lon="-2.0688345381347064"><ele>170.0</ele><time>2026-04-21T09:16:47.998Z</time></trkpt><trkpt lat="36.958715976184315" lon="-2.0689734693658948"><ele>170.0</ele><time>2026-04-21T09:16:48.998Z</time></trkpt><trkpt lat="36.958727261829836" lon="-2.069113246790479"><ele>170.0</ele><time>2026-04-21T09:16:49.998Z</time></trkpt><trkpt lat="36.95874056286834" lon="-2.069257337276334"><ele>169.6</ele><time>2026-04-21T09:16:50.998Z</time></trkpt><trkpt lat="36.958753314213816" lon="-2.0693955591964612"><ele>169.2</ele><time>2026-04-21T09:16:51.998Z</time></trkpt><trkpt lat="36.958762273341314" lon="-2.0695335135070616"><ele>168.8</ele><time>2026-04-21T09:16:52.998Z</time></trkpt><trkpt lat="36.95876975203704" lon="-2.0696712299759468"><ele>168.4</ele><time>2026-04-21T09:16:53.998Z</time></trkpt><trkpt lat="36.95877326465264" lon="-2.0698104280116807"><ele>168.0</ele><time>2026-04-21T09:16:54.998Z</time></trkpt><trkpt lat="36.95877474435623" lon="-2.0699488276478073"><ele>168.0</ele><time>2026-04-21T09:16:55.998Z</time></trkpt><trkpt lat="36.95877756051923" lon="-2.0700824510319813"><ele>168.0</ele><time>2026-04-21T09:16:56.998Z</time></trkpt><trkpt lat="36.95878181505573" lon="-2.0702131721406007"><ele>168.0</ele><time>2026-04-21T09:16:57.998Z</time></trkpt><trkpt lat="36.958793003828184" lon="-2.070338683871621"><ele>168.0</ele><time>2026-04-21T09:16:58.998Z</time></trkpt><trkpt lat="36.95881115936874" lon="-2.070467019798347"><ele>168.0</ele><time>2026-04-21T09:16:59.998Z</time></trkpt><trkpt lat="36.95883448204641" lon="-2.070596997318266"><ele>168.0</ele><time>2026-04-21T09:17:00.998Z</time></trkpt><trkpt lat="36.95885865514412" lon="-2.0707261876458296"><ele>168.0</ele><time>2026-04-21T09:17:01.998Z</time></trkpt><trkpt lat="36.95888058764655" lon="-2.0708529684355312"><ele>168.0</ele><time>2026-04-21T09:17:02.998Z</time></trkpt><trkpt lat="36.958896036151096" lon="-2.0709816534892087"><ele>168.0</ele><time>2026-04-21T09:17:03.998Z</time></trkpt><trkpt lat="36.95890089071045" lon="-2.071113032603854"><ele>168.0</ele><time>2026-04-21T09:17:04.998Z</time></trkpt><trkpt lat="36.95890365902929" lon="-2.0712480394355204"><ele>167.60000000000002</ele><time>2026-04-21T09:17:05.998Z</time></trkpt><trkpt lat="36.9589066493773" lon="-2.0713823161500504"><ele>167.20000000000002</ele><time>2026-04-21T09:17:06.998Z</time></trkpt><trkpt lat="36.95891189699835" lon="-2.0715066062667633"><ele>166.8</ele><time>2026-04-21T09:17:07.998Z</time></trkpt><trkpt lat="36.95892243769389" lon="-2.071622806530931"><ele>166.4</ele><time>2026-04-21T09:17:08.998Z</time></trkpt><trkpt lat="36.95894410845483" lon="-2.071736133655496"><ele>166.0</ele><time>2026-04-21T09:17:09.998Z</time></trkpt><trkpt lat="36.95897138463044" lon="-2.0718476532361367"><ele>166.0</ele><time>2026-04-21T09:17:10.998Z</time></trkpt><trkpt lat="36.95899815245152" lon="-2.071962680187745"><ele>166.0</ele><time>2026-04-21T09:17:11.998Z</time></trkpt><trkpt lat="36.95902306790685" lon="-2.072076019446478"><ele>166.0</ele><time>2026-04-21T09:17:12.998Z</time></trkpt><trkpt lat="36.9590454978028" lon="-2.0721911946879232"><ele>166.0</ele><time>2026-04-21T09:17:13.998Z</time></trkpt><trkpt lat="36.959061753247695" lon="-2.0723074000245867"><ele>166.0</ele><time>2026-04-21T09:17:14.998Z</time></trkpt><trkpt lat="36.959070495776096" lon="-2.072422287048477"><ele>166.0</ele><time>2026-04-21T09:17:15.998Z</time></trkpt><trkpt lat="36.95906792287132" lon="-2.0725370348554635"><ele>166.0</ele><time>2026-04-21T09:17:16.998Z</time></trkpt><trkpt lat="36.95906122390601" lon="-2.072648434877323"><ele>166.0</ele><time>2026-04-21T09:17:17.998Z</time></trkpt><trkpt lat="36.959052735190205" lon="-2.0727603583704277"><ele>166.0</ele><time>2026-04-21T09:17:18.998Z</time></trkpt><trkpt lat="36.9590410979363" lon="-2.072875538316176"><ele>166.0</ele><time>2026-04-21T09:17:19.998Z</time></trkpt><trkpt lat="36.95902902669716" lon="-2.0729921525271156"><ele>166.0</ele><time>2026-04-21T09:17:20.998Z</time></trkpt><trkpt lat="36.959018872701265" lon="-2.0731098080238843"><ele>166.0</ele><time>2026-04-21T09:17:21.998Z</time></trkpt><trkpt lat="36.95901225704495" lon="-2.0732366379457887"><ele>166.0</ele><time>2026-04-21T09:17:22.998Z</time></trkpt><trkpt lat="36.95901666557546" lon="-2.0733655814388867"><ele>166.0</ele><time>2026-04-21T09:17:23.998Z</time></trkpt><trkpt lat="36.959028280458966" lon="-2.073494453113989"><ele>166.0</ele><time>2026-04-21T09:17:24.998Z</time></trkpt><trkpt lat="36.95903899209966" lon="-2.0736270871724245"><ele>166.8</ele><time>2026-04-21T09:17:25.998Z</time></trkpt><trkpt lat="36.95905527090511" lon="-2.0737561268076914"><ele>167.60000000000002</ele><time>2026-04-21T09:17:26.998Z</time></trkpt><trkpt lat="36.959075556248706" lon="-2.0738797604096346"><ele>168.4</ele><time>2026-04-21T09:17:27.998Z</time></trkpt><trkpt lat="36.95909579465288" lon="-2.0740018623760585"><ele>169.2</ele><time>2026-04-21T09:17:28.998Z</time></trkpt><trkpt lat="36.95911970424899" lon="-2.0741238809799367"><ele>170.0</ele><time>2026-04-21T09:17:29.998Z</time></trkpt><trkpt lat="36.95914368434667" lon="-2.0742435892081317"><ele>170.4</ele><time>2026-04-21T09:17:30.998Z</time></trkpt><trkpt lat="36.95916897704151" lon="-2.074361821451605"><ele>170.8</ele><time>2026-04-21T09:17:31.998Z</time></trkpt><trkpt lat="36.95919127367491" lon="-2.0744780165533085"><ele>171.2</ele><time>2026-04-21T09:17:32.998Z</time></trkpt><trkpt lat="36.959210887753486" lon="-2.074591611606674"><ele>171.6</ele><time>2026-04-21T09:17:33.998Z</time></trkpt><trkpt lat="36.959220962514465" lon="-2.0747047893060686"><ele>172.0</ele><time>2026-04-21T09:17:34.998Z</time></trkpt><trkpt lat="36.959218516701526" lon="-2.0748183143990517"><ele>172.0</ele><time>2026-04-21T09:17:35.998Z</time></trkpt><trkpt lat="36.95920866223954" lon="-2.0749303501403653"><ele>172.0</ele><time>2026-04-21T09:17:36.998Z</time></trkpt><trkpt lat="36.9591987882773" lon="-2.0750418799033423"><ele>172.0</ele><time>2026-04-21T09:17:37.998Z</time></trkpt><trkpt lat="36.95918586300497" lon="-2.075146781839383"><ele>172.0</ele><time>2026-04-21T09:17:38.998Z</time></trkpt><trkpt lat="36.95917336507513" lon="-2.075237590527537"><ele>172.0</ele><time>2026-04-21T09:17:39.998Z</time></trkpt><trkpt lat="36.959163704264604" lon="-2.075317875915676"><ele>172.0</ele><time>2026-04-21T09:17:40.998Z</time></trkpt><trkpt lat="36.95913614213369" lon="-2.075455925016317"><ele>173.2</ele><time>2026-04-21T09:17:42.998Z</time></trkpt><trkpt lat="36.959075116151254" lon="-2.075579727937805"><ele>174.39999999999998</ele><time>2026-04-21T09:17:44.998Z</time></trkpt><trkpt lat="36.95905853940355" lon="-2.0756584238944233"><ele>175.60000000000002</ele><time>2026-04-21T09:17:45.998Z</time></trkpt><trkpt lat="36.95904183970139" lon="-2.0757373381054007"><ele>176.8</ele><time>2026-04-21T09:17:46.998Z</time></trkpt><trkpt lat="36.95907410288819" lon="-2.0758871233420706"><ele>178.0</ele><time>2026-04-21T09:17:48.998Z</time></trkpt><trkpt lat="36.959160581799864" lon="-2.0759986448680094"><ele>178.5</ele><time>2026-04-21T09:17:50.998Z</time></trkpt><trkpt lat="36.95921584738511" lon="-2.076043082399781"><ele>179.0</ele><time>2026-04-21T09:17:51.998Z</time></trkpt><trkpt lat="36.959269473427206" lon="-2.0760853343790298"><ele>179.5</ele><time>2026-04-21T09:17:52.998Z</time></trkpt><trkpt lat="36.95936259710535" lon="-2.0761797111047313"><ele>180.0</ele><time>2026-04-21T09:17:54.998Z</time></trkpt><trkpt lat="36.95941305568427" lon="-2.076293652374428"><ele>180.5</ele><time>2026-04-21T09:17:56.998Z</time></trkpt><trkpt lat="36.9593780447363" lon="-2.076378915650627"><ele>181.0</ele><time>2026-04-21T09:17:57.998Z</time></trkpt><trkpt lat="36.95935742134077" lon="-2.0764830803578307"><ele>181.0</ele><time>2026-04-21T09:17:58.998Z</time></trkpt><trkpt lat="36.95934426536227" lon="-2.0765906290321174"><ele>181.0</ele><time>2026-04-21T09:17:59.998Z</time></trkpt><trkpt lat="36.959335195387325" lon="-2.076701875580679"><ele>181.0</ele><time>2026-04-21T09:18:00.998Z</time></trkpt><trkpt lat="36.95933629595638" lon="-2.0768146731057517"><ele>181.0</ele><time>2026-04-21T09:18:01.998Z</time></trkpt><trkpt lat="36.95934795216474" lon="-2.076927418218782"><ele>181.0</ele><time>2026-04-21T09:18:02.998Z</time></trkpt><trkpt lat="36.95937144168945" lon="-2.0770395820108227"><ele>181.60000000000002</ele><time>2026-04-21T09:18:03.998Z</time></trkpt><trkpt lat="36.959393585948845" lon="-2.0771531820644307"><ele>182.2</ele><time>2026-04-21T09:18:04.998Z</time></trkpt><trkpt lat="36.95940810103743" lon="-2.07726692742578"><ele>182.8</ele><time>2026-04-21T09:18:05.998Z</time></trkpt><trkpt lat="36.959411538797546" lon="-2.0773795354316755"><ele>183.39999999999998</ele><time>2026-04-21T09:18:06.998Z</time></trkpt><trkpt lat="36.95941677934152" lon="-2.077490683930898"><ele>184.0</ele><time>2026-04-21T09:18:07.998Z</time></trkpt><trkpt lat="36.95942314322919" lon="-2.07759759766172"><ele>184.0</ele><time>2026-04-21T09:18:08.998Z</time></trkpt><trkpt lat="36.95943877932964" lon="-2.077692837283212"><ele>184.0</ele><time>2026-04-21T09:18:09.998Z</time></trkpt><trkpt lat="36.95945166281347" lon="-2.07778018155727"><ele>184.0</ele><time>2026-04-21T09:18:10.998Z</time></trkpt><trkpt lat="36.95945205778022" lon="-2.077870831914479"><ele>184.0</ele><time>2026-04-21T09:18:11.998Z</time></trkpt><trkpt lat="36.9594309960882" lon="-2.0779611330980106"><ele>184.0</ele><time>2026-04-21T09:18:12.998Z</time></trkpt><trkpt lat="36.95940960345991" lon="-2.0780576971719507"><ele>184.0</ele><time>2026-04-21T09:18:13.998Z</time></trkpt><trkpt lat="36.959381971125964" lon="-2.0781580348084643"><ele>184.0</ele><time>2026-04-21T09:18:14.998Z</time></trkpt><trkpt lat="36.959377871783595" lon="-2.0782618476312273"><ele>184.0</ele><time>2026-04-21T09:18:15.998Z</time></trkpt><trkpt lat="36.95937639607853" lon="-2.0783686798099996"><ele>184.0</ele><time>2026-04-21T09:18:16.998Z</time></trkpt><trkpt lat="36.95941247643283" lon="-2.078472431296625"><ele>184.0</ele><time>2026-04-21T09:18:17.998Z</time></trkpt><trkpt lat="36.95945316211311" lon="-2.0785746120913062"><ele>184.0</ele><time>2026-04-21T09:18:18.998Z</time></trkpt><trkpt lat="36.959488579866296" lon="-2.078670644631376"><ele>184.0</ele><time>2026-04-21T09:18:19.998Z</time></trkpt><trkpt lat="36.959506331770584" lon="-2.0787666639787594"><ele>184.2</ele><time>2026-04-21T09:18:20.998Z</time></trkpt><trkpt lat="36.959513584753815" lon="-2.0788673565823603"><ele>184.39999999999998</ele><time>2026-04-21T09:18:21.997Z</time></trkpt><trkpt lat="36.959515357642736" lon="-2.078983919721158"><ele>184.6</ele><time>2026-04-21T09:18:22.997Z</time></trkpt><trkpt lat="36.95951544949266" lon="-2.079114291794124"><ele>184.8</ele><time>2026-04-21T09:18:23.997Z</time></trkpt><trkpt lat="36.959508293357786" lon="-2.0792555377822906"><ele>185.0</ele><time>2026-04-21T09:18:24.997Z</time></trkpt><trkpt lat="36.95949378150768" lon="-2.079406220409659"><ele>184.0</ele><time>2026-04-21T09:18:25.997Z</time></trkpt><trkpt lat="36.95947739248344" lon="-2.0795576259367303"><ele>183.0</ele><time>2026-04-21T09:18:26.997Z</time></trkpt><trkpt lat="36.95946175220285" lon="-2.0797102141262114"><ele>182.0</ele><time>2026-04-21T09:18:27.997Z</time></trkpt><trkpt lat="36.95943622866855" lon="-2.079855480640914"><ele>181.0</ele><time>2026-04-21T09:18:28.997Z</time></trkpt><trkpt lat="36.959413855521554" lon="-2.079994023093888"><ele>180.20000000000002</ele><time>2026-04-21T09:18:29.997Z</time></trkpt><trkpt lat="36.9593823090484" lon="-2.08012499738359"><ele>179.4</ele><time>2026-04-21T09:18:30.997Z</time></trkpt><trkpt lat="36.95936456668447" lon="-2.0802562885339775"><ele>178.6</ele><time>2026-04-21T09:18:31.997Z</time></trkpt><trkpt lat="36.95935102079225" lon="-2.0803849977260307"><ele>177.8</ele><time>2026-04-21T09:18:32.997Z</time></trkpt><trkpt lat="36.95933209917554" lon="-2.08050588212934"><ele>177.0</ele><time>2026-04-21T09:18:33.997Z</time></trkpt><trkpt lat="36.95930154841951" lon="-2.0806175156090476"><ele>177.0</ele><time>2026-04-21T09:18:34.997Z</time></trkpt><trkpt lat="36.9592594482118" lon="-2.080725922899465"><ele>177.0</ele><time>2026-04-21T09:18:35.997Z</time></trkpt><trkpt lat="36.959192875045055" lon="-2.080824214280854"><ele>177.0</ele><time>2026-04-21T09:18:36.997Z</time></trkpt><trkpt lat="36.95911683668155" lon="-2.080929484641726"><ele>177.0</ele><time>2026-04-21T09:18:37.997Z</time></trkpt><trkpt lat="36.95903467000607" lon="-2.0810492038241657"><ele>177.0</ele><time>2026-04-21T09:18:38.997Z</time></trkpt><trkpt lat="36.95895178881746" lon="-2.081180565200223"><ele>176.0</ele><time>2026-04-21T09:18:39.997Z</time></trkpt><trkpt lat="36.958876507618086" lon="-2.081313002232327"><ele>175.0</ele><time>2026-04-21T09:18:40.997Z</time></trkpt><trkpt lat="36.958796664086584" lon="-2.081439913151652"><ele>174.0</ele><time>2026-04-21T09:18:41.997Z</time></trkpt><trkpt lat="36.95871468749496" lon="-2.081580775278114"><ele>173.0</ele><time>2026-04-21T09:18:42.997Z</time></trkpt><trkpt lat="36.95862459371152" lon="-2.0817328677423266"><ele>173.0</ele><time>2026-04-21T09:18:43.997Z</time></trkpt><trkpt lat="36.95853241944824" lon="-2.08188927750442"><ele>173.0</ele><time>2026-04-21T09:18:44.997Z</time></trkpt><trkpt lat="36.95843837644126" lon="-2.0820413324030396"><ele>173.0</ele><time>2026-04-21T09:18:45.997Z</time></trkpt><trkpt lat="36.95833611994658" lon="-2.082196572207804"><ele>173.0</ele><time>2026-04-21T09:18:46.997Z</time></trkpt><trkpt lat="36.95821458279243" lon="-2.0823482488902734"><ele>173.0</ele><time>2026-04-21T09:18:47.997Z</time></trkpt><trkpt lat="36.95808845599074" lon="-2.082497432071467"><ele>173.0</ele><time>2026-04-21T09:18:48.997Z</time></trkpt><trkpt lat="36.95800391886862" lon="-2.0826594011370982"><ele>173.5</ele><time>2026-04-21T09:18:49.997Z</time></trkpt><trkpt lat="36.95794723005709" lon="-2.082847971512801"><ele>174.0</ele><time>2026-04-21T09:18:50.997Z</time></trkpt><trkpt lat="36.957889775405604" lon="-2.082998723723509"><ele>174.5</ele><time>2026-04-21T09:18:51.997Z</time></trkpt><trkpt lat="36.9578503641754" lon="-2.083182077637808"><ele>175.0</ele><time>2026-04-21T09:18:52.997Z</time></trkpt><trkpt lat="36.95778469967607" lon="-2.083339845411219"><ele>175.5</ele><time>2026-04-21T09:18:53.997Z</time></trkpt><trkpt lat="36.95772110408154" lon="-2.0834931612941956"><ele>176.0</ele><time>2026-04-21T09:18:54.997Z</time></trkpt><trkpt lat="36.95767017782344" lon="-2.0836401329308747"><ele>176.5</ele><time>2026-04-21T09:18:55.997Z</time></trkpt><trkpt lat="36.957629352594246" lon="-2.0837723812233886"><ele>177.0</ele><time>2026-04-21T09:18:56.997Z</time></trkpt><trkpt lat="36.95758927158871" lon="-2.083886492707483"><ele>176.39999999999998</ele><time>2026-04-21T09:18:57.997Z</time></trkpt><trkpt lat="36.95751605262766" lon="-2.0839838636305457"><ele>175.79999999999998</ele><time>2026-04-21T09:18:58.997Z</time></trkpt><trkpt lat="36.95745186437305" lon="-2.084083374270267"><ele>175.2</ele><time>2026-04-21T09:18:59.997Z</time></trkpt><trkpt lat="36.95737187044682" lon="-2.084153490461284"><ele>174.6</ele><time>2026-04-21T09:19:00.997Z</time></trkpt><trkpt lat="36.95729760045231" lon="-2.0842432590391247"><ele>174.0</ele><time>2026-04-21T09:19:01.997Z</time></trkpt><trkpt lat="36.95723032248188" lon="-2.0843159612386315"><ele>174.0</ele><time>2026-04-21T09:19:02.997Z</time></trkpt><trkpt lat="36.95716046550978" lon="-2.084411037945139"><ele>174.0</ele><time>2026-04-21T09:19:03.997Z</time></trkpt><trkpt lat="36.957104474202886" lon="-2.0845342381303174"><ele>174.0</ele><time>2026-04-21T09:19:04.997Z</time></trkpt><trkpt lat="36.957037560675516" lon="-2.084666649708215"><ele>174.0</ele><time>2026-04-21T09:19:05.997Z</time></trkpt><trkpt lat="36.9569879455318" lon="-2.0848127727327532"><ele>174.33333333333334</ele><time>2026-04-21T09:19:06.997Z</time></trkpt><trkpt lat="36.95692259717118" lon="-2.0849919865713096"><ele>174.66666666666669</ele><time>2026-04-21T09:19:07.997Z</time></trkpt><trkpt lat="36.95685205858683" lon="-2.085154826777911"><ele>175.0</ele><time>2026-04-21T09:19:08.997Z</time></trkpt><trkpt lat="36.95679657084763" lon="-2.0853267407377944"><ele>175.33333333333334</ele><time>2026-04-21T09:19:09.997Z</time></trkpt><trkpt lat="36.9567001049513" lon="-2.085494717948038"><ele>175.66666666666666</ele><time>2026-04-21T09:19:10.997Z</time></trkpt><trkpt lat="36.95663988642046" lon="-2.0856836658705804"><ele>176.0</ele><time>2026-04-21T09:19:11.997Z</time></trkpt><trkpt lat="36.956568434025726" lon="-2.085839781659013"><ele>176.0</ele><time>2026-04-21T09:19:12.997Z</time></trkpt><trkpt lat="36.95650878365741" lon="-2.0859646443363853"><ele>176.0</ele><time>2026-04-21T09:19:13.997Z</time></trkpt><trkpt lat="36.95643128494365" lon="-2.0860808397974084"><ele>176.0</ele><time>2026-04-21T09:19:14.997Z</time></trkpt><trkpt lat="36.956405611013615" lon="-2.0861679344373103"><ele>176.0</ele><time>2026-04-21T09:19:15.997Z</time></trkpt><trkpt lat="36.95636527278195" lon="-2.0862475211295264"><ele>176.0</ele><time>2026-04-21T09:19:16.997Z</time></trkpt><trkpt lat="36.95635391949468" lon="-2.0863318619243856"><ele>176.0</ele><time>2026-04-21T09:19:19.997Z</time></trkpt><trkpt lat="36.956535958350344" lon="-2.086361522212266"><ele>176.0</ele><time>2026-04-21T09:19:29.997Z</time></trkpt><trkpt lat="36.956652931859026" lon="-2.086381536273688"><ele>176.0</ele><time>2026-04-21T09:19:31.997Z</time></trkpt><trkpt lat="36.95675394686632" lon="-2.0864002205574415"><ele>176.0</ele><time>2026-04-21T09:19:33.997Z</time></trkpt><trkpt lat="36.95684560379567" lon="-2.0863752323538747"><ele>176.4</ele><time>2026-04-21T09:19:35.997Z</time></trkpt><trkpt lat="36.95695209836791" lon="-2.0863265521680767"><ele>176.8</ele><time>2026-04-21T09:19:37.997Z</time></trkpt><trkpt lat="36.957046629824006" lon="-2.086276921946691"><ele>177.20000000000002</ele><time>2026-04-21T09:19:39.997Z</time></trkpt><trkpt lat="36.9571331308871" lon="-2.0862252157371843"><ele>177.60000000000002</ele><time>2026-04-21T09:19:41.997Z</time></trkpt><trkpt lat="36.95720137572781" lon="-2.086206431181665"><ele>178.0</ele><time>2026-04-21T09:19:43.997Z</time></trkpt><trkpt lat="36.95712534884849" lon="-2.0862642982447177"><ele>178.0</ele><time>2026-04-21T09:20:20.996Z</time></trkpt><trkpt lat="36.957017893588265" lon="-2.0863544836055707"><ele>178.0</ele><time>2026-04-21T09:20:22.996Z</time></trkpt><trkpt lat="36.956955778540895" lon="-2.0863804682159994"><ele>178.0</ele><time>2026-04-21T09:20:23.996Z</time></trkpt><trkpt lat="36.956849828719754" lon="-2.0864172355585917"><ele>178.0</ele><time>2026-04-21T09:20:25.996Z</time></trkpt><trkpt lat="36.95675898671624" lon="-2.086457466446729"><ele>178.0</ele><time>2026-04-21T09:20:26.996Z</time></trkpt><trkpt lat="36.956638926039275" lon="-2.086456719091641"><ele>177.60000000000002</ele><time>2026-04-21T09:20:28.996Z</time></trkpt><trkpt lat="36.95652574353543" lon="-2.086410764818628"><ele>177.20000000000002</ele><time>2026-04-21T09:20:30.996Z</time></trkpt><trkpt lat="36.95643245113795" lon="-2.0863889948111685"><ele>176.8</ele><time>2026-04-21T09:20:32.996Z</time></trkpt><trkpt lat="36.95634252155458" lon="-2.086409039152228"><ele>176.4</ele><time>2026-04-21T09:20:34.996Z</time></trkpt><trkpt lat="36.95630737875409" lon="-2.0864819507312378"><ele>176.0</ele><time>2026-04-21T09:20:36.996Z</time></trkpt><trkpt lat="36.95633013706417" lon="-2.0865892201641505"><ele>176.20000000000002</ele><time>2026-04-21T09:20:39.996Z</time></trkpt><trkpt lat="36.95643155432658" lon="-2.0866299164785946"><ele>176.4</ele><time>2026-04-21T09:20:42.996Z</time></trkpt><trkpt lat="36.95655966836223" lon="-2.0866630725477426"><ele>176.6</ele><time>2026-04-21T09:20:44.996Z</time></trkpt><trkpt lat="36.956626595795335" lon="-2.086680941926601"><ele>176.8</ele><time>2026-04-21T09:20:45.996Z</time></trkpt><trkpt lat="36.95671476751165" lon="-2.086694545658867"><ele>177.0</ele><time>2026-04-21T09:20:46.996Z</time></trkpt><trkpt lat="36.95680600227142" lon="-2.0867118765233266"><ele>177.2</ele><time>2026-04-21T09:20:47.996Z</time></trkpt><trkpt lat="36.956901098689954" lon="-2.0867330066920893"><ele>177.39999999999998</ele><time>2026-04-21T09:20:48.996Z</time></trkpt><trkpt lat="36.95699174639117" lon="-2.0867481167134114"><ele>177.60000000000002</ele><time>2026-04-21T09:20:49.996Z</time></trkpt><trkpt lat="36.9570844771497" lon="-2.0867605876287225"><ele>177.8</ele><time>2026-04-21T09:20:50.996Z</time></trkpt><trkpt lat="36.95718400135684" lon="-2.0867826362723814"><ele>178.0</ele><time>2026-04-21T09:20:51.996Z</time></trkpt><trkpt lat="36.95728064359692" lon="-2.0868131374622374"><ele>178.0</ele><time>2026-04-21T09:20:52.996Z</time></trkpt><trkpt lat="36.957381716781136" lon="-2.0868437106217"><ele>178.0</ele><time>2026-04-21T09:20:53.996Z</time></trkpt><trkpt lat="36.957481678881855" lon="-2.086876565423369"><ele>178.0</ele><time>2026-04-21T09:20:54.996Z</time></trkpt><trkpt lat="36.9575827017567" lon="-2.0869118858590725"><ele>178.0</ele><time>2026-04-21T09:20:55.996Z</time></trkpt><trkpt lat="36.95768954236761" lon="-2.0869513860172875"><ele>178.0</ele><time>2026-04-21T09:20:56.996Z</time></trkpt><trkpt lat="36.95779710991603" lon="-2.0869940645015506"><ele>178.5</ele><time>2026-04-21T09:20:57.996Z</time></trkpt><trkpt lat="36.95790183984422" lon="-2.0870410281984917"><ele>179.0</ele><time>2026-04-21T09:20:58.996Z</time></trkpt><trkpt lat="36.95800732432828" lon="-2.0870978474142445"><ele>179.5</ele><time>2026-04-21T09:20:59.996Z</time></trkpt><trkpt lat="36.958115185779135" lon="-2.0871611219232196"><ele>180.0</ele><time>2026-04-21T09:21:00.996Z</time></trkpt><trkpt lat="36.95822133042906" lon="-2.087231399504404"><ele>180.0</ele><time>2026-04-21T09:21:01.996Z</time></trkpt><trkpt lat="36.95833071374049" lon="-2.087302257280963"><ele>180.0</ele><time>2026-04-21T09:21:02.996Z</time></trkpt><trkpt lat="36.95843604116003" lon="-2.087378176569082"><ele>180.0</ele><time>2026-04-21T09:21:03.996Z</time></trkpt><trkpt lat="36.958540671819556" lon="-2.0874500622569734"><ele>180.0</ele><time>2026-04-21T09:21:04.996Z</time></trkpt><trkpt lat="36.958645672970945" lon="-2.087514363306933"><ele>179.0</ele><time>2026-04-21T09:21:05.996Z</time></trkpt><trkpt lat="36.958751809464914" lon="-2.0875774982159148"><ele>178.0</ele><time>2026-04-21T09:21:06.996Z</time></trkpt><trkpt lat="36.95885558420966" lon="-2.0876413004517795"><ele>177.0</ele><time>2026-04-21T09:21:07.996Z</time></trkpt><trkpt lat="36.958954848849466" lon="-2.0877081222623515"><ele>176.0</ele><time>2026-04-21T09:21:08.996Z</time></trkpt><trkpt lat="36.959053064600745" lon="-2.0877729228213986"><ele>176.0</ele><time>2026-04-21T09:21:09.996Z</time></trkpt><trkpt lat="36.95915124687982" lon="-2.0878336282666807"><ele>176.0</ele><time>2026-04-21T09:21:10.996Z</time></trkpt><trkpt lat="36.95924531921232" lon="-2.087894550397418"><ele>176.0</ele><time>2026-04-21T09:21:11.996Z</time></trkpt><trkpt lat="36.9593343817715" lon="-2.0879547496177575"><ele>176.0</ele><time>2026-04-21T09:21:12.996Z</time></trkpt><trkpt lat="36.95941796198454" lon="-2.0880120014468826"><ele>176.0</ele><time>2026-04-21T09:21:13.996Z</time></trkpt><trkpt lat="36.959492252064535" lon="-2.0880627874738433"><ele>175.66666666666666</ele><time>2026-04-21T09:21:14.996Z</time></trkpt><trkpt lat="36.95956087733329" lon="-2.0881152055691827"><ele>175.33333333333331</ele><time>2026-04-21T09:21:15.996Z</time></trkpt><trkpt lat="36.95963107420777" lon="-2.0881685431998998"><ele>175.0</ele><time>2026-04-21T09:21:16.996Z</time></trkpt><trkpt lat="36.95970508603391" lon="-2.0882203234164707"><ele>174.66666666666666</ele><time>2026-04-21T09:21:17.996Z</time></trkpt><trkpt lat="36.9597860196859" lon="-2.0882732319343864"><ele>174.33333333333334</ele><time>2026-04-21T09:21:18.996Z</time></trkpt><trkpt lat="36.959876559964805" lon="-2.0883379184953665"><ele>174.0</ele><time>2026-04-21T09:21:19.996Z</time></trkpt><trkpt lat="36.9599741397414" lon="-2.08839970553929"><ele>174.0</ele><time>2026-04-21T09:21:20.996Z</time></trkpt><trkpt lat="36.96007082346698" lon="-2.0884523579696213"><ele>174.0</ele><time>2026-04-21T09:21:21.996Z</time></trkpt><trkpt lat="36.96016294559582" lon="-2.0885069461013455"><ele>174.0</ele><time>2026-04-21T09:21:22.996Z</time></trkpt><trkpt lat="36.96025260730656" lon="-2.0885557116860256"><ele>174.0</ele><time>2026-04-21T09:21:23.996Z</time></trkpt><trkpt lat="36.96033945908887" lon="-2.088604266548939"><ele>174.0</ele><time>2026-04-21T09:21:24.996Z</time></trkpt><trkpt lat="36.96042627640072" lon="-2.088655472124512"><ele>174.0</ele><time>2026-04-21T09:21:25.996Z</time></trkpt><trkpt lat="36.96051532412584" lon="-2.0887117292853983"><ele>174.0</ele><time>2026-04-21T09:21:26.996Z</time></trkpt><trkpt lat="36.96060735731318" lon="-2.088768919049409"><ele>174.0</ele><time>2026-04-21T09:21:27.996Z</time></trkpt><trkpt lat="36.9607032321103" lon="-2.0888294671023497"><ele>174.0</ele><time>2026-04-21T09:21:28.996Z</time></trkpt><trkpt lat="36.96080569163705" lon="-2.088897467345696"><ele>174.0</ele><time>2026-04-21T09:21:29.996Z</time></trkpt><trkpt lat="36.96091588951871" lon="-2.0889712832026603"><ele>175.5</ele><time>2026-04-21T09:21:30.995Z</time></trkpt><trkpt lat="36.96103152916842" lon="-2.0890459844747316"><ele>177.0</ele><time>2026-04-21T09:21:31.995Z</time></trkpt><trkpt lat="36.96115144956961" lon="-2.0891276060035544"><ele>178.5</ele><time>2026-04-21T09:21:32.995Z</time></trkpt><trkpt lat="36.961274566555076" lon="-2.089210894030867"><ele>180.0</ele><time>2026-04-21T09:21:33.995Z</time></trkpt><trkpt lat="36.9613982369765" lon="-2.0892907694791636"><ele>180.25</ele><time>2026-04-21T09:21:34.995Z</time></trkpt><trkpt lat="36.96151711984719" lon="-2.08936604709142"><ele>180.5</ele><time>2026-04-21T09:21:35.995Z</time></trkpt><trkpt lat="36.961632804200136" lon="-2.0894382019672197"><ele>180.75</ele><time>2026-04-21T09:21:37Z</time></trkpt><trkpt lat="36.961750097685076" lon="-2.0895098578711466"><ele>181.0</ele><time>2026-04-21T09:21:38Z</time></trkpt><trkpt lat="36.96187039716861" lon="-2.089582253619097"><ele>182.25</ele><time>2026-04-21T09:21:39Z</time></trkpt><trkpt lat="36.961991684836065" lon="-2.08965754951559"><ele>183.5</ele><time>2026-04-21T09:21:40Z</time></trkpt><trkpt lat="36.96211240174458" lon="-2.089728206078772"><ele>184.75</ele><time>2026-04-21T09:21:41Z</time></trkpt><trkpt lat="36.96222970167477" lon="-2.089795141404648"><ele>186.0</ele><time>2026-04-21T09:21:42Z</time></trkpt><trkpt lat="36.96234673037274" lon="-2.089850341968982"><ele>186.0</ele><time>2026-04-21T09:21:43Z</time></trkpt><trkpt lat="36.96245653295345" lon="-2.0899128462473313"><ele>186.0</ele><time>2026-04-21T09:21:44Z</time></trkpt><trkpt lat="36.96256688561876" lon="-2.0899739646585482"><ele>186.0</ele><time>2026-04-21T09:21:45Z</time></trkpt><trkpt lat="36.962677927683565" lon="-2.0900342703983044"><ele>186.0</ele><time>2026-04-21T09:21:46Z</time></trkpt><trkpt lat="36.962791701657075" lon="-2.09009780404425"><ele>187.0</ele><time>2026-04-21T09:21:47Z</time></trkpt><trkpt lat="36.962906386538734" lon="-2.0901626035398473"><ele>188.0</ele><time>2026-04-21T09:21:48Z</time></trkpt><trkpt lat="36.96302341517876" lon="-2.090222862609107"><ele>189.0</ele><time>2026-04-21T09:21:49Z</time></trkpt><trkpt lat="36.963141204182534" lon="-2.0902864782304023"><ele>190.0</ele><time>2026-04-21T09:21:50Z</time></trkpt><trkpt lat="36.96325699040078" lon="-2.090347828989867"><ele>190.2</ele><time>2026-04-21T09:21:51Z</time></trkpt><trkpt lat="36.96336747627668" lon="-2.0904093199515517"><ele>190.4</ele><time>2026-04-21T09:21:52Z</time></trkpt><trkpt lat="36.96347349712167" lon="-2.090465802825532"><ele>190.60000000000002</ele><time>2026-04-21T09:21:53Z</time></trkpt><trkpt lat="36.96357124979221" lon="-2.090522109023809"><ele>190.8</ele><time>2026-04-21T09:21:54Z</time></trkpt><trkpt lat="36.96365954039425" lon="-2.0905721185802584"><ele>191.0</ele><time>2026-04-21T09:21:55Z</time></trkpt><trkpt lat="36.963733600839575" lon="-2.09060919716402"><ele>191.0</ele><time>2026-04-21T09:21:56Z</time></trkpt><trkpt lat="36.96379866943562" lon="-2.09063958386407"><ele>191.0</ele><time>2026-04-21T09:21:57Z</time></trkpt><trkpt lat="36.96386176587245" lon="-2.090670077008665"><ele>191.0</ele><time>2026-04-21T09:21:58Z</time></trkpt><trkpt lat="36.96392030019717" lon="-2.090705225407411"><ele>191.0</ele><time>2026-04-21T09:21:59Z</time></trkpt><trkpt lat="36.96397930801686" lon="-2.0907338439889487"><ele>191.0</ele><time>2026-04-21T09:22:00Z</time></trkpt><trkpt lat="36.96409418976418" lon="-2.090786880479552"><ele>191.0</ele><time>2026-04-21T09:22:02Z</time></trkpt><trkpt lat="36.964212830260294" lon="-2.090842522653007"><ele>190.33333333333331</ele><time>2026-04-21T09:22:04Z</time></trkpt><trkpt lat="36.964276895652894" lon="-2.090879633360461"><ele>189.66666666666666</ele><time>2026-04-21T09:22:05Z</time></trkpt><trkpt lat="36.964339083252526" lon="-2.0909209970885327"><ele>189.0</ele><time>2026-04-21T09:22:06Z</time></trkpt><trkpt lat="36.9643982589552" lon="-2.090958896180092"><ele>188.33333333333334</ele><time>2026-04-21T09:22:07Z</time></trkpt><trkpt lat="36.96445875335842" lon="-2.090987954439286"><ele>187.66666666666669</ele><time>2026-04-21T09:22:08Z</time></trkpt><trkpt lat="36.96457307054945" lon="-2.091047142495497"><ele>187.0</ele><time>2026-04-21T09:22:10Z</time></trkpt><trkpt lat="36.96463197231659" lon="-2.0910757832350026"><ele>187.0</ele><time>2026-04-21T09:22:11Z</time></trkpt><trkpt lat="36.96469206801268" lon="-2.0911118616450652"><ele>187.0</ele><time>2026-04-21T09:22:12Z</time></trkpt><trkpt lat="36.96475255704794" lon="-2.091148331794744"><ele>187.0</ele><time>2026-04-21T09:22:13Z</time></trkpt><trkpt lat="36.96481162984311" lon="-2.0911868389230928"><ele>187.0</ele><time>2026-04-21T09:22:14Z</time></trkpt><trkpt lat="36.964868342563506" lon="-2.0912251172003975"><ele>187.0</ele><time>2026-04-21T09:22:15Z</time></trkpt><trkpt lat="36.96492477015701" lon="-2.0912638752053194"><ele>187.0</ele><time>2026-04-21T09:22:16Z</time></trkpt><trkpt lat="36.964983604311996" lon="-2.091304047738994"><ele>187.0</ele><time>2026-04-21T09:22:17Z</time></trkpt><trkpt lat="36.965045974357324" lon="-2.091341277477132"><ele>186.7142857142857</ele><time>2026-04-21T09:22:18Z</time></trkpt><trkpt lat="36.96510866042958" lon="-2.0913828591286303"><ele>186.42857142857144</ele><time>2026-04-21T09:22:19Z</time></trkpt><trkpt lat="36.96517302686455" lon="-2.0914189338029834"><ele>186.14285714285714</ele><time>2026-04-21T09:22:20Z</time></trkpt><trkpt lat="36.96523853729945" lon="-2.0914502972389695"><ele>185.85714285714283</ele><time>2026-04-21T09:22:21Z</time></trkpt><trkpt lat="36.965305100618316" lon="-2.0914817481946777"><ele>185.57142857142856</ele><time>2026-04-21T09:22:22Z</time></trkpt><trkpt lat="36.96537507801634" lon="-2.091512197799419"><ele>185.28571428571428</ele><time>2026-04-21T09:22:23Z</time></trkpt><trkpt lat="36.965447113622446" lon="-2.0915471616304937"><ele>185.0</ele><time>2026-04-21T09:22:24Z</time></trkpt><trkpt lat="36.965526820406026" lon="-2.0915745678931024"><ele>184.4</ele><time>2026-04-21T09:22:25Z</time></trkpt><trkpt lat="36.965611717368304" lon="-2.091610351001979"><ele>183.8</ele><time>2026-04-21T09:22:26Z</time></trkpt><trkpt lat="36.96570124691926" lon="-2.0916540303819775"><ele>183.2</ele><time>2026-04-21T09:22:27Z</time></trkpt><trkpt lat="36.965793595439756" lon="-2.0916936235310764"><ele>182.6</ele><time>2026-04-21T09:22:28Z</time></trkpt><trkpt lat="36.96588187307625" lon="-2.0917435034618928"><ele>182.0</ele><time>2026-04-21T09:22:29Z</time></trkpt><trkpt lat="36.965971612099885" lon="-2.0918050154271297"><ele>182.0</ele><time>2026-04-21T09:22:30Z</time></trkpt><trkpt lat="36.96606035275975" lon="-2.091872431429768"><ele>182.0</ele><time>2026-04-21T09:22:31Z</time></trkpt><trkpt lat="36.966148939970644" lon="-2.0919458554970967"><ele>182.0</ele><time>2026-04-21T09:22:32Z</time></trkpt><trkpt lat="36.96623809877145" lon="-2.0920198447106575"><ele>182.0</ele><time>2026-04-21T09:22:33Z</time></trkpt><trkpt lat="36.966325433329935" lon="-2.0920924488761345"><ele>182.0</ele><time>2026-04-21T09:22:34Z</time></trkpt><trkpt lat="36.966406898673675" lon="-2.092161136005413"><ele>182.0</ele><time>2026-04-21T09:22:35Z</time></trkpt><trkpt lat="36.96647901949695" lon="-2.0922209521941264"><ele>182.0</ele><time>2026-04-21T09:22:36Z</time></trkpt><trkpt lat="36.96654282892636" lon="-2.0922759588528117"><ele>182.0</ele><time>2026-04-21T09:22:37Z</time></trkpt><trkpt lat="36.96660229966501" lon="-2.0923293447626627"><ele>182.0</ele><time>2026-04-21T09:22:38Z</time></trkpt><trkpt lat="36.96666049633275" lon="-2.092383418294965"><ele>182.0</ele><time>2026-04-21T09:22:39Z</time></trkpt><trkpt lat="36.966719273241104" lon="-2.09243600960813"><ele>182.0</ele><time>2026-04-21T09:22:40Z</time></trkpt><trkpt lat="36.96677447377292" lon="-2.092493132316141"><ele>181.83333333333331</ele><time>2026-04-21T09:22:40.999Z</time></trkpt><trkpt lat="36.966824574859785" lon="-2.092554770063651"><ele>181.66666666666666</ele><time>2026-04-21T09:22:41.999Z</time></trkpt><trkpt lat="36.96687290544714" lon="-2.0926131741623246"><ele>181.5</ele><time>2026-04-21T09:22:42.999Z</time></trkpt><trkpt lat="36.96691948185724" lon="-2.092667838661625"><ele>181.33333333333334</ele><time>2026-04-21T09:22:43.999Z</time></trkpt><trkpt lat="36.9670195243936" lon="-2.092760644674329"><ele>181.16666666666669</ele><time>2026-04-21T09:22:45.999Z</time></trkpt><trkpt lat="36.9670741286998" lon="-2.0928032640896155"><ele>181.0</ele><time>2026-04-21T09:22:46.999Z</time></trkpt><trkpt lat="36.967175186423376" lon="-2.092895608588148"><ele>181.0</ele><time>2026-04-21T09:22:48.999Z</time></trkpt><trkpt lat="36.96722627881355" lon="-2.092946797053273"><ele>181.0</ele><time>2026-04-21T09:22:49.999Z</time></trkpt><trkpt lat="36.9672732528919" lon="-2.0930088647337004"><ele>181.0</ele><time>2026-04-21T09:22:50.999Z</time></trkpt><trkpt lat="36.96732647147049" lon="-2.0930643752156275"><ele>181.0</ele><time>2026-04-21T09:22:51.999Z</time></trkpt><trkpt lat="36.96737735622342" lon="-2.0931196820063507"><ele>181.0</ele><time>2026-04-21T09:22:52.999Z</time></trkpt><trkpt lat="36.96742794525711" lon="-2.093176319623392"><ele>181.0</ele><time>2026-04-21T09:22:53.999Z</time></trkpt><trkpt lat="36.967477623466856" lon="-2.09324237213959"><ele>181.0</ele><time>2026-04-21T09:22:54.999Z</time></trkpt><trkpt lat="36.96753586738717" lon="-2.0932945854112304"><ele>182.16666666666669</ele><time>2026-04-21T09:22:55.999Z</time></trkpt><trkpt lat="36.967594734945855" lon="-2.0933428776024114"><ele>183.33333333333334</ele><time>2026-04-21T09:22:56.999Z</time></trkpt><trkpt lat="36.96765683653817" lon="-2.0933949344104037"><ele>184.5</ele><time>2026-04-21T09:22:57.999Z</time></trkpt><trkpt lat="36.96772482502618" lon="-2.093444674637534"><ele>185.66666666666666</ele><time>2026-04-21T09:22:58.999Z</time></trkpt><trkpt lat="36.96779545950107" lon="-2.093494543515782"><ele>186.83333333333331</ele><time>2026-04-21T09:22:59.999Z</time></trkpt><trkpt lat="36.967868729128845" lon="-2.093546398723902"><ele>188.0</ele><time>2026-04-21T09:23:00.999Z</time></trkpt><trkpt lat="36.96793950902179" lon="-2.0936031808137368"><ele>188.0</ele><time>2026-04-21T09:23:01.999Z</time></trkpt><trkpt lat="36.96800788490889" lon="-2.093666219485508"><ele>188.0</ele><time>2026-04-21T09:23:02.999Z</time></trkpt><trkpt lat="36.96807745988085" lon="-2.0937257830838756"><ele>188.0</ele><time>2026-04-21T09:23:03.999Z</time></trkpt><trkpt lat="36.96814421003053" lon="-2.0937874006685915"><ele>188.0</ele><time>2026-04-21T09:23:04.999Z</time></trkpt><trkpt lat="36.9682123465971" lon="-2.0938463453630423"><ele>188.0</ele><time>2026-04-21T09:23:05.999Z</time></trkpt><trkpt lat="36.968277732321575" lon="-2.0939048408453074"><ele>188.0</ele><time>2026-04-21T09:23:06.999Z</time></trkpt><trkpt lat="36.96833618177568" lon="-2.093959798839778"><ele>188.5</ele><time>2026-04-21T09:23:07.999Z</time></trkpt><trkpt lat="36.96839175132972" lon="-2.094005679297316"><ele>189.0</ele><time>2026-04-21T09:23:08.999Z</time></trkpt><trkpt lat="36.968443508662325" lon="-2.0940513995259713"><ele>189.5</ele><time>2026-04-21T09:23:09.999Z</time></trkpt><trkpt lat="36.96852630273481" lon="-2.094126656339112"><ele>190.0</ele><time>2026-04-21T09:23:11.999Z</time></trkpt><trkpt lat="36.96856617985438" lon="-2.0941971684429346"><ele>190.5</ele><time>2026-04-21T09:23:13.999Z</time></trkpt><trkpt lat="36.96852161669807" lon="-2.0943099743263662"><ele>191.0</ele><time>2026-04-21T09:23:15.999Z</time></trkpt><trkpt lat="36.96845907944543" lon="-2.0943740469777925"><ele>191.0</ele><time>2026-04-21T09:23:16.999Z</time></trkpt><trkpt lat="36.968396437276695" lon="-2.09445911863501"><ele>191.0</ele><time>2026-04-21T09:23:17.999Z</time></trkpt><trkpt lat="36.96833106995172" lon="-2.094546604993732"><ele>191.0</ele><time>2026-04-21T09:23:18.999Z</time></trkpt><trkpt lat="36.968261241347385" lon="-2.0946329527211027"><ele>191.0</ele><time>2026-04-21T09:23:19.999Z</time></trkpt><trkpt lat="36.96819261905336" lon="-2.0947114771449873"><ele>191.0</ele><time>2026-04-21T09:23:20.999Z</time></trkpt><trkpt lat="36.96812816155664" lon="-2.094782416317441"><ele>190.83333333333331</ele><time>2026-04-21T09:23:21.999Z</time></trkpt><trkpt lat="36.96807145137839" lon="-2.09484582505016"><ele>190.66666666666666</ele><time>2026-04-21T09:23:22.999Z</time></trkpt><trkpt lat="36.96801970310415" lon="-2.094916828817862"><ele>190.5</ele><time>2026-04-21T09:23:23.999Z</time></trkpt><trkpt lat="36.96796316480534" lon="-2.094998228400825"><ele>190.33333333333334</ele><time>2026-04-21T09:23:24.999Z</time></trkpt><trkpt lat="36.96789068638088" lon="-2.09507693404453"><ele>190.16666666666669</ele><time>2026-04-21T09:23:25.999Z</time></trkpt><trkpt lat="36.96781015117393" lon="-2.0951521623601157"><ele>190.0</ele><time>2026-04-21T09:23:26.999Z</time></trkpt><trkpt lat="36.96773586039974" lon="-2.095239377589072"><ele>190.0</ele><time>2026-04-21T09:23:27.999Z</time></trkpt><trkpt lat="36.967662558282534" lon="-2.0953299245609665"><ele>190.0</ele><time>2026-04-21T09:23:28.999Z</time></trkpt><trkpt lat="36.96758434307492" lon="-2.0954155117330386"><ele>190.0</ele><time>2026-04-21T09:23:29.999Z</time></trkpt><trkpt lat="36.96750800101048" lon="-2.0954994126304074"><ele>190.0</ele><time>2026-04-21T09:23:30.999Z</time></trkpt><trkpt lat="36.967437398472875" lon="-2.0955752759865387"><ele>190.0</ele><time>2026-04-21T09:23:31.999Z</time></trkpt><trkpt lat="36.96737539358092" lon="-2.0956494392317584"><ele>189.5</ele><time>2026-04-21T09:23:32.999Z</time></trkpt><trkpt lat="36.967329453795905" lon="-2.095735265434684"><ele>189.0</ele><time>2026-04-21T09:23:33.999Z</time></trkpt><trkpt lat="36.96728898132153" lon="-2.095829276690285"><ele>188.5</ele><time>2026-04-21T09:23:34.999Z</time></trkpt><trkpt lat="36.967250146915525" lon="-2.0959183668829"><ele>188.0</ele><time>2026-04-21T09:23:35.999Z</time></trkpt><trkpt lat="36.96721672174504" lon="-2.0959973828897587"><ele>187.5</ele><time>2026-04-21T09:23:36.999Z</time></trkpt><trkpt lat="36.96716479955185" lon="-2.0961161489071434"><ele>187.0</ele><time>2026-04-21T09:23:38.999Z</time></trkpt><trkpt lat="36.967150575494514" lon="-2.0962032327675257"><ele>187.0</ele><time>2026-04-21T09:23:40.999Z</time></trkpt><trkpt lat="36.967202087829214" lon="-2.0962572574405622"><ele>187.0</ele><time>2026-04-21T09:23:43.999Z</time></trkpt><trkpt lat="36.967316819549765" lon="-2.0962291624250384"><ele>187.0</ele><time>2026-04-21T09:23:45.999Z</time></trkpt><trkpt lat="36.96741975817503" lon="-2.0961951853637752"><ele>187.0</ele><time>2026-04-21T09:23:46.999Z</time></trkpt><trkpt lat="36.96754298615194" lon="-2.0961435629751732"><ele>187.0</ele><time>2026-04-21T09:23:47.999Z</time></trkpt><trkpt lat="36.96767850645197" lon="-2.0960886033978396"><ele>187.75</ele><time>2026-04-21T09:23:48.999Z</time></trkpt><trkpt lat="36.967822856739375" lon="-2.0960433066940447"><ele>188.5</ele><time>2026-04-21T09:23:49.999Z</time></trkpt><trkpt lat="36.967968743124246" lon="-2.0960297100583904"><ele>189.25</ele><time>2026-04-21T09:23:50.999Z</time></trkpt><trkpt lat="36.968117283914935" lon="-2.096046481999148"><ele>190.0</ele><time>2026-04-21T09:23:51.999Z</time></trkpt><trkpt lat="36.96826924648418" lon="-2.096078924781195"><ele>190.25</ele><time>2026-04-21T09:23:52.999Z</time></trkpt><trkpt lat="36.968411788136216" lon="-2.096115573609398"><ele>190.5</ele><time>2026-04-21T09:23:53.999Z</time></trkpt><trkpt lat="36.968544670285915" lon="-2.0961511595516713"><ele>190.75</ele><time>2026-04-21T09:23:54.999Z</time></trkpt><trkpt lat="36.96866853208569" lon="-2.0961851743194333"><ele>191.0</ele><time>2026-04-21T09:23:55.999Z</time></trkpt><trkpt lat="36.968782951479945" lon="-2.0962183434864636"><ele>191.0</ele><time>2026-04-21T09:23:56.999Z</time></trkpt><trkpt lat="36.96888745970306" lon="-2.096247221906359"><ele>191.0</ele><time>2026-04-21T09:23:57.999Z</time></trkpt><trkpt lat="36.96898036919536" lon="-2.0962713977652476"><ele>191.0</ele><time>2026-04-21T09:23:58.999Z</time></trkpt><trkpt lat="36.96906569604585" lon="-2.0962932665711715"><ele>191.0</ele><time>2026-04-21T09:23:59.999Z</time></trkpt><trkpt lat="36.96914865373704" lon="-2.0963087018244204"><ele>191.0</ele><time>2026-04-21T09:24:00.999Z</time></trkpt><trkpt lat="36.96922431053584" lon="-2.096318129231633"><ele>191.0</ele><time>2026-04-21T09:24:01.999Z</time></trkpt><trkpt lat="36.96929241878605" lon="-2.096309601109102"><ele>191.60000000000002</ele><time>2026-04-21T09:24:02.999Z</time></trkpt><trkpt lat="36.96935579377691" lon="-2.096290679791014"><ele>192.2</ele><time>2026-04-21T09:24:03.999Z</time></trkpt><trkpt lat="36.969463001096564" lon="-2.0961926329927785"><ele>192.8</ele><time>2026-04-21T09:24:05.999Z</time></trkpt><trkpt lat="36.96951936405441" lon="-2.096110529098276"><ele>193.39999999999998</ele><time>2026-04-21T09:24:06.999Z</time></trkpt><trkpt lat="36.9695844904824" lon="-2.0960125929524818"><ele>194.0</ele><time>2026-04-21T09:24:07.999Z</time></trkpt><trkpt lat="36.96966829959501" lon="-2.095905901128532"><ele>194.0</ele><time>2026-04-21T09:24:08.999Z</time></trkpt><trkpt lat="36.969764387700835" lon="-2.095790719947853"><ele>194.0</ele><time>2026-04-21T09:24:09.999Z</time></trkpt><trkpt lat="36.96985901601919" lon="-2.0956726246399278"><ele>194.0</ele><time>2026-04-21T09:24:10.999Z</time></trkpt><trkpt lat="36.96995572270886" lon="-2.095557933917473"><ele>194.0</ele><time>2026-04-21T09:24:11.999Z</time></trkpt><trkpt lat="36.970054536763165" lon="-2.095443807212382"><ele>195.0</ele><time>2026-04-21T09:24:12.999Z</time></trkpt><trkpt lat="36.970148925276476" lon="-2.095327732618937"><ele>196.0</ele><time>2026-04-21T09:24:13.999Z</time></trkpt><trkpt lat="36.970243862726825" lon="-2.0952196501346028"><ele>197.0</ele><time>2026-04-21T09:24:14.998Z</time></trkpt><trkpt lat="36.970340761608846" lon="-2.095113419191407"><ele>198.0</ele><time>2026-04-21T09:24:15.998Z</time></trkpt><trkpt lat="36.97042850055142" lon="-2.094991456921686"><ele>197.5</ele><time>2026-04-21T09:24:16.998Z</time></trkpt><trkpt lat="36.97051203697407" lon="-2.094865918368859"><ele>197.0</ele><time>2026-04-21T09:24:17.998Z</time></trkpt><trkpt lat="36.97059739313765" lon="-2.0947471702018343"><ele>196.5</ele><time>2026-04-21T09:24:18.998Z</time></trkpt><trkpt lat="36.970683971911306" lon="-2.0946254121543535"><ele>196.0</ele><time>2026-04-21T09:24:19.998Z</time></trkpt><trkpt lat="36.970772426023046" lon="-2.0944987896363045"><ele>196.25</ele><time>2026-04-21T09:24:20.998Z</time></trkpt><trkpt lat="36.97085941431995" lon="-2.09436652192616"><ele>196.5</ele><time>2026-04-21T09:24:21.998Z</time></trkpt><trkpt lat="36.97094530973641" lon="-2.0942281338693887"><ele>196.75</ele><time>2026-04-21T09:24:22.998Z</time></trkpt><trkpt lat="36.9710299763931" lon="-2.0940872849542638"><ele>197.0</ele><time>2026-04-21T09:24:23.998Z</time></trkpt><trkpt lat="36.971125282887165" lon="-2.0939352069415684"><ele>197.0</ele><time>2026-04-21T09:24:24.998Z</time></trkpt><trkpt lat="36.97122540952588" lon="-2.0937693375370388"><ele>197.0</ele><time>2026-04-21T09:24:25.998Z</time></trkpt><trkpt lat="36.971326633225615" lon="-2.093598685164003"><ele>197.0</ele><time>2026-04-21T09:24:26.998Z</time></trkpt><trkpt lat="36.971430596652574" lon="-2.0934313837100995"><ele>197.66666666666669</ele><time>2026-04-21T09:24:27.998Z</time></trkpt><trkpt lat="36.97151752679523" lon="-2.0932517830377506"><ele>198.33333333333331</ele><time>2026-04-21T09:24:28.998Z</time></trkpt><trkpt lat="36.971616116762284" lon="-2.0931017432900254"><ele>199.0</ele><time>2026-04-21T09:24:29.998Z</time></trkpt><trkpt lat="36.9717236107639" lon="-2.0929391100169945"><ele>199.0</ele><time>2026-04-21T09:24:30.998Z</time></trkpt><trkpt lat="36.971825534292925" lon="-2.092791147675657"><ele>199.0</ele><time>2026-04-21T09:24:31.998Z</time></trkpt><trkpt lat="36.971930446196104" lon="-2.0926220457520386"><ele>199.0</ele><time>2026-04-21T09:24:32.998Z</time></trkpt><trkpt lat="36.97202684006491" lon="-2.092474614551793"><ele>198.5</ele><time>2026-04-21T09:24:33.998Z</time></trkpt><trkpt lat="36.972113887613816" lon="-2.092332050019302"><ele>198.0</ele><time>2026-04-21T09:24:34.998Z</time></trkpt><trkpt lat="36.972200264727796" lon="-2.092201929753968"><ele>197.5</ele><time>2026-04-21T09:24:35.998Z</time></trkpt><trkpt lat="36.972284353129176" lon="-2.092069219276513"><ele>197.0</ele><time>2026-04-21T09:24:36.998Z</time></trkpt><trkpt lat="36.97236924203183" lon="-2.0919462420122077"><ele>197.0</ele><time>2026-04-21T09:24:37.998Z</time></trkpt><trkpt lat="36.97245114819261" lon="-2.091830021167865"><ele>197.0</ele><time>2026-04-21T09:24:38.998Z</time></trkpt><trkpt lat="36.97252677889649" lon="-2.0917143363262682"><ele>197.0</ele><time>2026-04-21T09:24:39.998Z</time></trkpt><trkpt lat="36.972592938175694" lon="-2.091588102318112"><ele>197.0</ele><time>2026-04-21T09:24:40.998Z</time></trkpt><trkpt lat="36.97266185407047" lon="-2.0914633562469094"><ele>197.0</ele><time>2026-04-21T09:24:41.998Z</time></trkpt><trkpt lat="36.97274026346408" lon="-2.0913434269825886"><ele>197.0</ele><time>2026-04-21T09:24:42.998Z</time></trkpt><trkpt lat="36.9728392129141" lon="-2.091215479756845"><ele>197.0</ele><time>2026-04-21T09:24:43.998Z</time></trkpt><trkpt lat="36.972928174459504" lon="-2.091081651344923"><ele>197.0</ele><time>2026-04-21T09:24:44.998Z</time></trkpt><trkpt lat="36.973021315375014" lon="-2.0909343032142496"><ele>197.0</ele><time>2026-04-21T09:24:45.998Z</time></trkpt><trkpt lat="36.973123291386656" lon="-2.0908109655522433"><ele>197.0</ele><time>2026-04-21T09:24:46.998Z</time></trkpt><trkpt lat="36.97319233052762" lon="-2.090693221436015"><ele>197.0</ele><time>2026-04-21T09:24:47.998Z</time></trkpt><trkpt lat="36.97326288625065" lon="-2.090607042285036"><ele>197.0</ele><time>2026-04-21T09:24:48.998Z</time></trkpt><trkpt lat="36.973327962738395" lon="-2.0905148208101547"><ele>197.0</ele><time>2026-04-21T09:24:49.998Z</time></trkpt><trkpt lat="36.973381958213714" lon="-2.090422168546042"><ele>197.0</ele><time>2026-04-21T09:24:50.998Z</time></trkpt><trkpt lat="36.97342211270906" lon="-2.0903530393749623"><ele>197.0</ele><time>2026-04-21T09:24:51.998Z</time></trkpt><trkpt lat="36.97345683145088" lon="-2.090196473194955"><ele>197.0</ele><time>2026-04-21T09:24:53.998Z</time></trkpt><trkpt lat="36.97349257901598" lon="-2.090117614250499"><ele>197.0</ele><time>2026-04-21T09:24:54.998Z</time></trkpt><trkpt lat="36.973556709557734" lon="-2.089986411492741"><ele>197.0</ele><time>2026-04-21T09:24:56.998Z</time></trkpt><trkpt lat="36.97360893727301" lon="-2.0898820165555017"><ele>197.0</ele><time>2026-04-21T09:24:58.998Z</time></trkpt><trkpt lat="36.97376011161018" lon="-2.0899356812287757"><ele>197.0</ele><time>2026-04-21T09:25:04.998Z</time></trkpt><trkpt lat="36.97379728343211" lon="-2.0900003730874963"><ele>197.0</ele><time>2026-04-21T09:25:05.998Z</time></trkpt><trkpt lat="36.9738420305841" lon="-2.090055945579278"><ele>197.0</ele><time>2026-04-21T09:25:06.998Z</time></trkpt><trkpt lat="36.973925682660116" lon="-2.0901472381168023"><ele>197.0</ele><time>2026-04-21T09:25:08.998Z</time></trkpt><trkpt lat="36.97389317533594" lon="-2.0903935899174124"><ele>197.0</ele><time>2026-04-21T09:25:23.998Z</time></trkpt><trkpt lat="36.97384377441795" lon="-2.0904613471076456"><ele>197.0</ele><time>2026-04-21T09:25:24.998Z</time></trkpt><trkpt lat="36.973776510289255" lon="-2.0905421825984822"><ele>197.0</ele><time>2026-04-21T09:25:25.998Z</time></trkpt><trkpt lat="36.9737218825093" lon="-2.0906424512951713"><ele>197.0</ele><time>2026-04-21T09:25:26.998Z</time></trkpt><trkpt lat="36.97366301235861" lon="-2.090729662777681"><ele>197.0</ele><time>2026-04-21T09:25:27.998Z</time></trkpt><trkpt lat="36.97360409484078" lon="-2.090813960354805"><ele>197.0</ele><time>2026-04-21T09:25:28.998Z</time></trkpt><trkpt lat="36.973553980901315" lon="-2.090917221594873"><ele>197.0</ele><time>2026-04-21T09:25:29.998Z</time></trkpt><trkpt lat="36.97349021755382" lon="-2.091026054779255"><ele>197.0</ele><time>2026-04-21T09:25:30.998Z</time></trkpt><trkpt lat="36.9734215506722" lon="-2.09113904129319"><ele>197.0</ele><time>2026-04-21T09:25:31.998Z</time></trkpt><trkpt lat="36.97335276257444" lon="-2.0912636011813293"><ele>197.0</ele><time>2026-04-21T09:25:32.998Z</time></trkpt><trkpt lat="36.97326758008451" lon="-2.0913822869925354"><ele>197.0</ele><time>2026-04-21T09:25:33.998Z</time></trkpt><trkpt lat="36.97317612132937" lon="-2.0915004596012916"><ele>197.0</ele><time>2026-04-21T09:25:34.998Z</time></trkpt><trkpt lat="36.97308801417011" lon="-2.0916313102838746"><ele>198.0</ele><time>2026-04-21T09:25:35.998Z</time></trkpt><trkpt lat="36.97301067684382" lon="-2.0917727170171854"><ele>199.0</ele><time>2026-04-21T09:25:36.998Z</time></trkpt><trkpt lat="36.97292898547328" lon="-2.0919290279196785"><ele>200.0</ele><time>2026-04-21T09:25:37.998Z</time></trkpt><trkpt lat="36.972840405167815" lon="-2.092097289232568"><ele>201.0</ele><time>2026-04-21T09:25:38.998Z</time></trkpt><trkpt lat="36.972753302663165" lon="-2.0922625839280786"><ele>201.0</ele><time>2026-04-21T09:25:39.998Z</time></trkpt><trkpt lat="36.972648240253385" lon="-2.092413294146523"><ele>201.0</ele><time>2026-04-21T09:25:40.998Z</time></trkpt><trkpt lat="36.972535866255726" lon="-2.0925686601748867"><ele>201.0</ele><time>2026-04-21T09:25:41.998Z</time></trkpt><trkpt lat="36.97243817621842" lon="-2.092715458636963"><ele>200.33333333333331</ele><time>2026-04-21T09:25:42.998Z</time></trkpt><trkpt lat="36.97233510486879" lon="-2.0928675560204395"><ele>199.66666666666666</ele><time>2026-04-21T09:25:43.998Z</time></trkpt><trkpt lat="36.97224895369288" lon="-2.09303432951977"><ele>199.0</ele><time>2026-04-21T09:25:44.998Z</time></trkpt><trkpt lat="36.97215658792196" lon="-2.0931969088597895"><ele>199.66666666666666</ele><time>2026-04-21T09:25:45.998Z</time></trkpt><trkpt lat="36.97206497465682" lon="-2.093352123867635"><ele>200.33333333333331</ele><time>2026-04-21T09:25:46.998Z</time></trkpt><trkpt lat="36.971945017515395" lon="-2.0935089685347754"><ele>201.0</ele><time>2026-04-21T09:25:47.998Z</time></trkpt><trkpt lat="36.971863168065816" lon="-2.0936662342388717"><ele>201.0</ele><time>2026-04-21T09:25:48.997Z</time></trkpt><trkpt lat="36.971774697385456" lon="-2.0938146707523773"><ele>201.0</ele><time>2026-04-21T09:25:49.997Z</time></trkpt><trkpt lat="36.97166907675102" lon="-2.0939617850046797"><ele>201.0</ele><time>2026-04-21T09:25:50.997Z</time></trkpt><trkpt lat="36.97157400982245" lon="-2.0941114510248493"><ele>200.75</ele><time>2026-04-21T09:25:51.997Z</time></trkpt><trkpt lat="36.971491961516385" lon="-2.09425105412521"><ele>200.5</ele><time>2026-04-21T09:25:52.997Z</time></trkpt><trkpt lat="36.971414112317625" lon="-2.094376293693172"><ele>200.25</ele><time>2026-04-21T09:25:53.997Z</time></trkpt><trkpt lat="36.97132566492194" lon="-2.0944821762587327"><ele>200.0</ele><time>2026-04-21T09:25:54.997Z</time></trkpt><trkpt lat="36.97125448253672" lon="-2.0946014066349727"><ele>200.0</ele><time>2026-04-21T09:25:55.997Z</time></trkpt><trkpt lat="36.9711962175957" lon="-2.094728436708325"><ele>200.0</ele><time>2026-04-21T09:25:56.997Z</time></trkpt><trkpt lat="36.971129293546966" lon="-2.094834367551332"><ele>200.0</ele><time>2026-04-21T09:25:57.997Z</time></trkpt><trkpt lat="36.97104763841654" lon="-2.094939484692452"><ele>200.0</ele><time>2026-04-21T09:25:58.997Z</time></trkpt><trkpt lat="36.97095589451965" lon="-2.095059847782218"><ele>199.5</ele><time>2026-04-21T09:25:59.997Z</time></trkpt><trkpt lat="36.9708693006485" lon="-2.0951868481825064"><ele>199.0</ele><time>2026-04-21T09:26:00.997Z</time></trkpt><trkpt lat="36.97077399365834" lon="-2.095324356973151"><ele>198.5</ele><time>2026-04-21T09:26:01.997Z</time></trkpt><trkpt lat="36.970681042082845" lon="-2.095460990494477"><ele>198.0</ele><time>2026-04-21T09:26:02.997Z</time></trkpt><trkpt lat="36.97057171706767" lon="-2.0955859891803077"><ele>198.0</ele><time>2026-04-21T09:26:03.997Z</time></trkpt><trkpt lat="36.97048514082081" lon="-2.095717789782372"><ele>198.0</ele><time>2026-04-21T09:26:04.997Z</time></trkpt><trkpt lat="36.970393132793525" lon="-2.0958193117910633"><ele>198.0</ele><time>2026-04-21T09:26:05.997Z</time></trkpt><trkpt lat="36.97031429028037" lon="-2.0959466043307144"><ele>198.0</ele><time>2026-04-21T09:26:06.997Z</time></trkpt><trkpt lat="36.9702184058851" lon="-2.0960539711031383"><ele>198.0</ele><time>2026-04-21T09:26:07.997Z</time></trkpt><trkpt lat="36.97011982681651" lon="-2.096179509534125"><ele>198.0</ele><time>2026-04-21T09:26:08.997Z</time></trkpt><trkpt lat="36.97002487108636" lon="-2.096306347936303"><ele>198.0</ele><time>2026-04-21T09:26:09.997Z</time></trkpt><trkpt lat="36.96993420072182" lon="-2.0964365863856167"><ele>198.0</ele><time>2026-04-21T09:26:10.997Z</time></trkpt><trkpt lat="36.969842036928256" lon="-2.096564734293493"><ele>197.5</ele><time>2026-04-21T09:26:11.997Z</time></trkpt><trkpt lat="36.96975606049854" lon="-2.096683536309389"><ele>197.0</ele><time>2026-04-21T09:26:12.997Z</time></trkpt><trkpt lat="36.96965296625397" lon="-2.0967944932637868"><ele>196.5</ele><time>2026-04-21T09:26:13.997Z</time></trkpt><trkpt lat="36.96956063404879" lon="-2.0969174599092306"><ele>196.0</ele><time>2026-04-21T09:26:14.997Z</time></trkpt><trkpt lat="36.96945974474298" lon="-2.097034861696214"><ele>196.0</ele><time>2026-04-21T09:26:15.997Z</time></trkpt><trkpt lat="36.96936702403923" lon="-2.097142296193796"><ele>196.0</ele><time>2026-04-21T09:26:16.997Z</time></trkpt><trkpt lat="36.969287237276276" lon="-2.0972401713912507"><ele>196.0</ele><time>2026-04-21T09:26:17.997Z</time></trkpt><trkpt lat="36.9692296652584" lon="-2.0973210875268062"><ele>196.0</ele><time>2026-04-21T09:26:18.997Z</time></trkpt><trkpt lat="36.96917258587018" lon="-2.0973860551668397"><ele>196.0</ele><time>2026-04-21T09:26:19.997Z</time></trkpt><trkpt lat="36.96914342676923" lon="-2.0974636139114637"><ele>196.16666666666666</ele><time>2026-04-21T09:26:21.997Z</time></trkpt><trkpt lat="36.969170935238665" lon="-2.0975554511548764"><ele>196.33333333333331</ele><time>2026-04-21T09:26:23.997Z</time></trkpt><trkpt lat="36.969229670662166" lon="-2.0976171399290173"><ele>196.5</ele><time>2026-04-21T09:26:25.997Z</time></trkpt><trkpt lat="36.96932828177973" lon="-2.0976498425183294"><ele>196.66666666666669</ele><time>2026-04-21T09:26:27.997Z</time></trkpt><trkpt lat="36.969409721357806" lon="-2.097639598712322"><ele>196.83333333333334</ele><time>2026-04-21T09:26:28.997Z</time></trkpt><trkpt lat="36.969503978194716" lon="-2.097628528156243"><ele>197.0</ele><time>2026-04-21T09:26:29.997Z</time></trkpt><trkpt lat="36.96961619794206" lon="-2.0976194408088675"><ele>197.0</ele><time>2026-04-21T09:26:30.997Z</time></trkpt><trkpt lat="36.96974731307694" lon="-2.0976114570758035"><ele>197.0</ele><time>2026-04-21T09:26:31.997Z</time></trkpt><trkpt lat="36.96987303995361" lon="-2.0975901312084937"><ele>197.0</ele><time>2026-04-21T09:26:32.997Z</time></trkpt><trkpt lat="36.969993371545" lon="-2.0975837922838636"><ele>197.0</ele><time>2026-04-21T09:26:33.997Z</time></trkpt><trkpt lat="36.97011770758125" lon="-2.097585619883834"><ele>198.25</ele><time>2026-04-21T09:26:34.997Z</time></trkpt><trkpt lat="36.97024276593979" lon="-2.0975866553716522"><ele>199.5</ele><time>2026-04-21T09:26:35.997Z</time></trkpt><trkpt lat="36.97036016564097" lon="-2.0975920256190976"><ele>200.75</ele><time>2026-04-21T09:26:36.997Z</time></trkpt><trkpt lat="36.970467852307856" lon="-2.0976036247144285"><ele>202.0</ele><time>2026-04-21T09:26:37.997Z</time></trkpt><trkpt lat="36.970592661653455" lon="-2.0976184388981247"><ele>202.0</ele><time>2026-04-21T09:26:38.997Z</time></trkpt><trkpt lat="36.97069773717746" lon="-2.0976444171204904"><ele>202.0</ele><time>2026-04-21T09:26:39.997Z</time></trkpt><trkpt lat="36.97083477143821" lon="-2.097631717514872"><ele>202.0</ele><time>2026-04-21T09:26:40.997Z</time></trkpt><trkpt lat="36.970964906108556" lon="-2.097653393546662"><ele>202.0</ele><time>2026-04-21T09:26:41.997Z</time></trkpt><trkpt lat="36.971098274600116" lon="-2.0976916573457856"><ele>202.25</ele><time>2026-04-21T09:26:42.997Z</time></trkpt><trkpt lat="36.97122512940682" lon="-2.097725434180192"><ele>202.5</ele><time>2026-04-21T09:26:43.997Z</time></trkpt><trkpt lat="36.97135063790248" lon="-2.0977661570515913"><ele>202.75</ele><time>2026-04-21T09:26:44.997Z</time></trkpt><trkpt lat="36.97146906677624" lon="-2.0978192001832667"><ele>203.0</ele><time>2026-04-21T09:26:45.997Z</time></trkpt><trkpt lat="36.971581598592124" lon="-2.0978767802373386"><ele>203.5</ele><time>2026-04-21T09:26:46.997Z</time></trkpt><trkpt lat="36.97169296602102" lon="-2.0979420389091157"><ele>204.0</ele><time>2026-04-21T09:26:47.997Z</time></trkpt><trkpt lat="36.97181667156728" lon="-2.0979895846479266"><ele>204.5</ele><time>2026-04-21T09:26:48.997Z</time></trkpt><trkpt lat="36.97192688739059" lon="-2.098050727429688"><ele>205.0</ele><time>2026-04-21T09:26:49.997Z</time></trkpt><trkpt lat="36.972029672317014" lon="-2.09808740898442"><ele>205.0</ele><time>2026-04-21T09:26:50.997Z</time></trkpt><trkpt lat="36.972124044176816" lon="-2.0981172239737966"><ele>205.0</ele><time>2026-04-21T09:26:51.997Z</time></trkpt><trkpt lat="36.97219427524626" lon="-2.098184560416563"><ele>205.0</ele><time>2026-04-21T09:26:52.997Z</time></trkpt><trkpt lat="36.97228987520466" lon="-2.098225141829598"><ele>205.0</ele><time>2026-04-21T09:26:53.997Z</time></trkpt><trkpt lat="36.972375655649124" lon="-2.098302379533099"><ele>205.0</ele><time>2026-04-21T09:26:54.997Z</time></trkpt><trkpt lat="36.97246219755471" lon="-2.0983532347006686"><ele>205.75</ele><time>2026-04-21T09:26:55.997Z</time></trkpt><trkpt lat="36.972565641073636" lon="-2.098395532061812"><ele>206.5</ele><time>2026-04-21T09:26:56.997Z</time></trkpt><trkpt lat="36.97267880250228" lon="-2.0984442497132187"><ele>207.25</ele><time>2026-04-21T09:26:57.997Z</time></trkpt><trkpt lat="36.97281778320629" lon="-2.0984865775410717"><ele>208.0</ele><time>2026-04-21T09:26:58.997Z</time></trkpt><trkpt lat="36.9729355917723" lon="-2.098573706230552"><ele>208.0</ele><time>2026-04-21T09:26:59.997Z</time></trkpt><trkpt lat="36.97306768977144" lon="-2.0986124891946334"><ele>208.0</ele><time>2026-04-21T09:27:00.997Z</time></trkpt><trkpt lat="36.97317769246655" lon="-2.0986898080396306"><ele>208.0</ele><time>2026-04-21T09:27:01.997Z</time></trkpt><trkpt lat="36.97329097303632" lon="-2.098733627261305"><ele>208.0</ele><time>2026-04-21T09:27:02.997Z</time></trkpt><trkpt lat="36.973398616246115" lon="-2.0987690751899355"><ele>208.0</ele><time>2026-04-21T09:27:03.997Z</time></trkpt><trkpt lat="36.9735036668028" lon="-2.0988235111605857"><ele>208.0</ele><time>2026-04-21T09:27:04.997Z</time></trkpt><trkpt lat="36.97360595408237" lon="-2.0988877212958066"><ele>208.0</ele><time>2026-04-21T09:27:05.997Z</time></trkpt><trkpt lat="36.973698149437865" lon="-2.0989419510570406"><ele>208.0</ele><time>2026-04-21T09:27:06.997Z</time></trkpt><trkpt lat="36.97377346410522" lon="-2.0990082583071663"><ele>208.0</ele><time>2026-04-21T09:27:07.997Z</time></trkpt><trkpt lat="36.97385006117557" lon="-2.099068295599645"><ele>208.0</ele><time>2026-04-21T09:27:08.997Z</time></trkpt><trkpt lat="36.973913106997124" lon="-2.099138988819848"><ele>208.0</ele><time>2026-04-21T09:27:09.997Z</time></trkpt><trkpt lat="36.97399252982944" lon="-2.099204590405817"><ele>208.0</ele><time>2026-04-21T09:27:10.997Z</time></trkpt><trkpt lat="36.97408109518825" lon="-2.0992853173881696"><ele>208.0</ele><time>2026-04-21T09:27:11.997Z</time></trkpt><trkpt lat="36.97416476369312" lon="-2.099363039765258"><ele>208.0</ele><time>2026-04-21T09:27:12.997Z</time></trkpt><trkpt lat="36.97425942190494" lon="-2.099402144966358"><ele>208.25</ele><time>2026-04-21T09:27:13.997Z</time></trkpt><trkpt lat="36.97434895096766" lon="-2.0994735253922725"><ele>208.5</ele><time>2026-04-21T09:27:14.997Z</time></trkpt><trkpt lat="36.974446377910695" lon="-2.099540388326296"><ele>208.75</ele><time>2026-04-21T09:27:15.997Z</time></trkpt><trkpt lat="36.974543430607255" lon="-2.0996203511056675"><ele>209.0</ele><time>2026-04-21T09:27:16.997Z</time></trkpt><trkpt lat="36.97464959957579" lon="-2.099685160720087"><ele>209.0</ele><time>2026-04-21T09:27:17.997Z</time></trkpt><trkpt lat="36.97476939659756" lon="-2.099742407309129"><ele>209.0</ele><time>2026-04-21T09:27:18.997Z</time></trkpt><trkpt lat="36.97487691744252" lon="-2.099803510430672"><ele>209.0</ele><time>2026-04-21T09:27:19.997Z</time></trkpt><trkpt lat="36.97498571372122" lon="-2.0998519210236353"><ele>209.0</ele><time>2026-04-21T09:27:20.997Z</time></trkpt><trkpt lat="36.97509656443386" lon="-2.0999008600601634"><ele>209.0</ele><time>2026-04-21T09:27:21.996Z</time></trkpt><trkpt lat="36.97520600463706" lon="-2.0999203609429817"><ele>209.0</ele><time>2026-04-21T09:27:22.996Z</time></trkpt><trkpt lat="36.97531116947574" lon="-2.099949050066537"><ele>209.0</ele><time>2026-04-21T09:27:23.996Z</time></trkpt><trkpt lat="36.97541924960639" lon="-2.0999681371145122"><ele>209.0</ele><time>2026-04-21T09:27:24.996Z</time></trkpt><trkpt lat="36.97551667368133" lon="-2.0999816453179583"><ele>209.0</ele><time>2026-04-21T09:27:25.996Z</time></trkpt><trkpt lat="36.97561132633496" lon="-2.100009311692588"><ele>209.0</ele><time>2026-04-21T09:27:26.996Z</time></trkpt><trkpt lat="36.97570660728897" lon="-2.100039192173983"><ele>209.0</ele><time>2026-04-21T09:27:27.996Z</time></trkpt><trkpt lat="36.97578721662011" lon="-2.100077479970815"><ele>209.0</ele><time>2026-04-21T09:27:28.996Z</time></trkpt><trkpt lat="36.975888983000296" lon="-2.1000889790751742"><ele>209.0</ele><time>2026-04-21T09:27:29.996Z</time></trkpt><trkpt lat="36.975999569670826" lon="-2.1000768202732094"><ele>209.0</ele><time>2026-04-21T09:27:30.996Z</time></trkpt><trkpt lat="36.97607941758761" lon="-2.1001061945196233"><ele>209.79999999999998</ele><time>2026-04-21T09:27:31.996Z</time></trkpt><trkpt lat="36.97616781615554" lon="-2.100089397021717"><ele>210.6</ele><time>2026-04-21T09:27:32.996Z</time></trkpt><trkpt lat="36.97625176224924" lon="-2.1000812983455606"><ele>211.4</ele><time>2026-04-21T09:27:33.996Z</time></trkpt><trkpt lat="36.97633934519729" lon="-2.1000672509496154"><ele>212.2</ele><time>2026-04-21T09:27:34.996Z</time></trkpt><trkpt lat="36.97643887393905" lon="-2.100062728859911"><ele>213.0</ele><time>2026-04-21T09:27:35.996Z</time></trkpt><trkpt lat="36.9765470200252" lon="-2.1000856842939006"><ele>213.0</ele><time>2026-04-21T09:27:36.996Z</time></trkpt><trkpt lat="36.976651929740065" lon="-2.100097755408673"><ele>213.0</ele><time>2026-04-21T09:27:37.996Z</time></trkpt><trkpt lat="36.976767266889134" lon="-2.100106708726192"><ele>213.0</ele><time>2026-04-21T09:27:38.996Z</time></trkpt><trkpt lat="36.97687521297987" lon="-2.100120497186466"><ele>213.0</ele><time>2026-04-21T09:27:39.996Z</time></trkpt><trkpt lat="36.97698326731792" lon="-2.100138221164273"><ele>213.0</ele><time>2026-04-21T09:27:40.996Z</time></trkpt><trkpt lat="36.977095274694946" lon="-2.1001623779761327"><ele>213.0</ele><time>2026-04-21T09:27:41.996Z</time></trkpt><trkpt lat="36.97722071105623" lon="-2.1001741318822758"><ele>213.0</ele><time>2026-04-21T09:27:42.996Z</time></trkpt><trkpt lat="36.97734465588736" lon="-2.1001785041932144"><ele>213.0</ele><time>2026-04-21T09:27:43.996Z</time></trkpt><trkpt lat="36.97746012107913" lon="-2.1001767166552257"><ele>213.0</ele><time>2026-04-21T09:27:44.996Z</time></trkpt><trkpt lat="36.97757843847466" lon="-2.1001949667815523"><ele>213.0</ele><time>2026-04-21T09:27:45.996Z</time></trkpt><trkpt lat="36.97768730441709" lon="-2.100202748337325"><ele>213.0</ele><time>2026-04-21T09:27:46.996Z</time></trkpt><trkpt lat="36.977804054526125" lon="-2.1002149744415193"><ele>213.0</ele><time>2026-04-21T09:27:47.996Z</time></trkpt><trkpt lat="36.97791285151681" lon="-2.10023461220235"><ele>213.0</ele><time>2026-04-21T09:27:48.996Z</time></trkpt><trkpt lat="36.97802461514928" lon="-2.1002165468694"><ele>213.0</ele><time>2026-04-21T09:27:49.996Z</time></trkpt><trkpt lat="36.9781269640165" lon="-2.1002107938625447"><ele>213.0</ele><time>2026-04-21T09:27:50.996Z</time></trkpt><trkpt lat="36.97824545518518" lon="-2.100214029592042"><ele>213.0</ele><time>2026-04-21T09:27:51.996Z</time></trkpt><trkpt lat="36.97835044524973" lon="-2.100233534550311"><ele>213.0</ele><time>2026-04-21T09:27:52.996Z</time></trkpt><trkpt lat="36.9784525170739" lon="-2.1002327733414528"><ele>213.0</ele><time>2026-04-21T09:27:53.996Z</time></trkpt><trkpt lat="36.978554784486775" lon="-2.100238553441258"><ele>213.0</ele><time>2026-04-21T09:27:54.996Z</time></trkpt><trkpt lat="36.97864921886265" lon="-2.1002420305557545"><ele>213.66666666666666</ele><time>2026-04-21T09:27:55.996Z</time></trkpt><trkpt lat="36.97873849175427" lon="-2.1002452972688403"><ele>214.33333333333331</ele><time>2026-04-21T09:27:56.996Z</time></trkpt><trkpt lat="36.97882588766898" lon="-2.100266832754571"><ele>215.0</ele><time>2026-04-21T09:27:57.996Z</time></trkpt><trkpt lat="36.97890074442799" lon="-2.100295149846525"><ele>215.66666666666666</ele><time>2026-04-21T09:27:58.996Z</time></trkpt><trkpt lat="36.978963598858215" lon="-2.100333486330302"><ele>216.33333333333331</ele><time>2026-04-21T09:27:59.996Z</time></trkpt><trkpt lat="36.97901904658845" lon="-2.100376421648946"><ele>217.0</ele><time>2026-04-21T09:28:00.996Z</time></trkpt><trkpt lat="36.97912334111135" lon="-2.1004603871397003"><ele>217.0</ele><time>2026-04-21T09:28:02.996Z</time></trkpt><trkpt lat="36.97918123080607" lon="-2.1004981535784735"><ele>217.0</ele><time>2026-04-21T09:28:03.996Z</time></trkpt><trkpt lat="36.979238001453645" lon="-2.100539207132814"><ele>217.0</ele><time>2026-04-21T09:28:04.996Z</time></trkpt><trkpt lat="36.97929545711795" lon="-2.1005790425548065"><ele>217.0</ele><time>2026-04-21T09:28:05.996Z</time></trkpt><trkpt lat="36.97934404239381" lon="-2.100634949774585"><ele>217.0</ele><time>2026-04-21T09:28:06.996Z</time></trkpt><trkpt lat="36.97939979617942" lon="-2.100695566775114"><ele>217.0</ele><time>2026-04-21T09:28:07.996Z</time></trkpt><trkpt lat="36.97946652117811" lon="-2.1007615266242388"><ele>217.0</ele><time>2026-04-21T09:28:08.996Z</time></trkpt><trkpt lat="36.97953823646716" lon="-2.10081825560601"><ele>216.85714285714286</ele><time>2026-04-21T09:28:09.996Z</time></trkpt><trkpt lat="36.97961046264391" lon="-2.1008611938079405"><ele>216.71428571428572</ele><time>2026-04-21T09:28:10.996Z</time></trkpt><trkpt lat="36.97968177618914" lon="-2.1008854243038435"><ele>216.57142857142856</ele><time>2026-04-21T09:28:11.996Z</time></trkpt><trkpt lat="36.97974838682125" lon="-2.100908143112485"><ele>216.42857142857144</ele><time>2026-04-21T09:28:12.996Z</time></trkpt><trkpt lat="36.97981223649806" lon="-2.100936056816883"><ele>216.28571428571428</ele><time>2026-04-21T09:28:13.996Z</time></trkpt><trkpt lat="36.97987578555972" lon="-2.1009693617682412"><ele>216.14285714285714</ele><time>2026-04-21T09:28:14.996Z</time></trkpt><trkpt lat="36.97993924449513" lon="-2.101019563122411"><ele>216.0</ele><time>2026-04-21T09:28:15.996Z</time></trkpt><trkpt lat="36.9800029973842" lon="-2.101077475001927"><ele>216.83333333333334</ele><time>2026-04-21T09:28:16.996Z</time></trkpt><trkpt lat="36.98006800570004" lon="-2.1011393685962294"><ele>217.66666666666669</ele><time>2026-04-21T09:28:17.996Z</time></trkpt><trkpt lat="36.98013555969176" lon="-2.1012064557484207"><ele>218.5</ele><time>2026-04-21T09:28:18.996Z</time></trkpt><trkpt lat="36.98020733013147" lon="-2.1012584918970316"><ele>219.33333333333334</ele><time>2026-04-21T09:28:19.996Z</time></trkpt><trkpt lat="36.98027735906059" lon="-2.1013109814072406"><ele>220.16666666666669</ele><time>2026-04-21T09:28:20.996Z</time></trkpt><trkpt lat="36.98034305129344" lon="-2.1013578141575397"><ele>221.0</ele><time>2026-04-21T09:28:21.996Z</time></trkpt><trkpt lat="36.980405989921614" lon="-2.101391951276796"><ele>221.0</ele><time>2026-04-21T09:28:22.996Z</time></trkpt><trkpt lat="36.980463768347164" lon="-2.101426454945044"><ele>221.00000000000003</ele><time>2026-04-21T09:28:23.996Z</time></trkpt><trkpt lat="36.98057060684061" lon="-2.1014909842027985"><ele>221.00000000000003</ele><time>2026-04-21T09:28:25.996Z</time></trkpt><trkpt lat="36.98066177155666" lon="-2.101542815014905"><ele>221.0</ele><time>2026-04-21T09:28:27.996Z</time></trkpt><trkpt lat="36.98075292943725" lon="-2.1015838903349913"><ele>221.0</ele><time>2026-04-21T09:28:29.996Z</time></trkpt><trkpt lat="36.98084769965428" lon="-2.1016777650294425"><ele>221.42857142857144</ele><time>2026-04-21T09:28:31.996Z</time></trkpt><trkpt lat="36.98090522773801" lon="-2.1017344214649505"><ele>221.85714285714286</ele><time>2026-04-21T09:28:32.996Z</time></trkpt><trkpt lat="36.980967153356836" lon="-2.1017877001198504"><ele>222.28571428571428</ele><time>2026-04-21T09:28:33.996Z</time></trkpt><trkpt lat="36.98102390117686" lon="-2.1018388901094434"><ele>222.71428571428572</ele><time>2026-04-21T09:28:34.996Z</time></trkpt><trkpt lat="36.98108081388393" lon="-2.101881153975193"><ele>223.14285714285714</ele><time>2026-04-21T09:28:35.996Z</time></trkpt><trkpt lat="36.98114176355536" lon="-2.1019181048549243"><ele>223.57142857142858</ele><time>2026-04-21T09:28:36.996Z</time></trkpt><trkpt lat="36.98120760102389" lon="-2.101950255625836"><ele>224.0</ele><time>2026-04-21T09:28:37.996Z</time></trkpt><trkpt lat="36.98127976540657" lon="-2.101974943995888"><ele>224.00000000000003</ele><time>2026-04-21T09:28:38.996Z</time></trkpt><trkpt lat="36.98135427567407" lon="-2.1020111963285544"><ele>224.0</ele><time>2026-04-21T09:28:39.996Z</time></trkpt><trkpt lat="36.98142989182798" lon="-2.1020438346341352"><ele>224.0</ele><time>2026-04-21T09:28:40.996Z</time></trkpt><trkpt lat="36.981511040422205" lon="-2.1020806486893306"><ele>224.0</ele><time>2026-04-21T09:28:41.996Z</time></trkpt><trkpt lat="36.981595936036854" lon="-2.1021131746761403"><ele>224.00000000000003</ele><time>2026-04-21T09:28:43Z</time></trkpt><trkpt lat="36.98167780227704" lon="-2.102144624601379"><ele>224.0</ele><time>2026-04-21T09:28:44Z</time></trkpt><trkpt lat="36.98175106550816" lon="-2.102176487556589"><ele>225.00000000000003</ele><time>2026-04-21T09:28:45Z</time></trkpt><trkpt lat="36.9818184866279" lon="-2.102211845752565"><ele>226.0</ele><time>2026-04-21T09:28:46Z</time></trkpt><trkpt lat="36.98188206055285" lon="-2.10224836695244"><ele>227.0</ele><time>2026-04-21T09:28:47Z</time></trkpt><trkpt lat="36.98194422497608" lon="-2.102281078972353"><ele>228.0</ele><time>2026-04-21T09:28:48Z</time></trkpt><trkpt lat="36.982005108286444" lon="-2.1023098404983016"><ele>229.00000000000003</ele><time>2026-04-21T09:28:49Z</time></trkpt><trkpt lat="36.98208720388215" lon="-2.1023591777553197"><ele>230.0</ele><time>2026-04-21T09:28:51Z</time></trkpt><trkpt lat="36.98214430246679" lon="-2.102439625275644"><ele>231.16666666666669</ele><time>2026-04-21T09:28:54Z</time></trkpt><trkpt lat="36.982136663469674" lon="-2.1025401031277697"><ele>232.33333333333334</ele><time>2026-04-21T09:28:56Z</time></trkpt><trkpt lat="36.98209836626689" lon="-2.1026210479685643"><ele>233.5</ele><time>2026-04-21T09:28:57Z</time></trkpt><trkpt lat="36.98207361237259" lon="-2.1027107295803784"><ele>234.66666666666669</ele><time>2026-04-21T09:28:58Z</time></trkpt><trkpt lat="36.982048056913705" lon="-2.102791054416702"><ele>235.83333333333334</ele><time>2026-04-21T09:28:59Z</time></trkpt><trkpt lat="36.98201878235867" lon="-2.102874182275837"><ele>237.0</ele><time>2026-04-21T09:29:00Z</time></trkpt><trkpt lat="36.98198784950415" lon="-2.102963508317829"><ele>237.0</ele><time>2026-04-21T09:29:01Z</time></trkpt><trkpt lat="36.981966450203366" lon="-2.1030718637591983"><ele>237.0</ele><time>2026-04-21T09:29:02Z</time></trkpt><trkpt lat="36.98194069763529" lon="-2.1031847502579124"><ele>237.0</ele><time>2026-04-21T09:29:03Z</time></trkpt><trkpt lat="36.98191542444903" lon="-2.103309847009982"><ele>237.0</ele><time>2026-04-21T09:29:04Z</time></trkpt><trkpt lat="36.981898294528456" lon="-2.1034338581737817"><ele>237.0</ele><time>2026-04-21T09:29:05Z</time></trkpt><trkpt lat="36.981886742001095" lon="-2.1035658731916147"><ele>237.0</ele><time>2026-04-21T09:29:06Z</time></trkpt><trkpt lat="36.98188291372447" lon="-2.103699486070529"><ele>237.0</ele><time>2026-04-21T09:29:07Z</time></trkpt><trkpt lat="36.98187590823538" lon="-2.1038380840541056"><ele>237.0</ele><time>2026-04-21T09:29:08Z</time></trkpt><trkpt lat="36.98186860693586" lon="-2.103963521187395"><ele>237.0</ele><time>2026-04-21T09:29:09Z</time></trkpt><trkpt lat="36.98186137174644" lon="-2.1040930909555313"><ele>237.0</ele><time>2026-04-21T09:29:10Z</time></trkpt><trkpt lat="36.981856815398146" lon="-2.1042163749534164"><ele>237.39999999999998</ele><time>2026-04-21T09:29:11Z</time></trkpt><trkpt lat="36.98185173759024" lon="-2.1043314735668464"><ele>237.79999999999998</ele><time>2026-04-21T09:29:12Z</time></trkpt><trkpt lat="36.98184510963936" lon="-2.1044447059053892"><ele>238.2</ele><time>2026-04-21T09:29:13Z</time></trkpt><trkpt lat="36.98184251008721" lon="-2.1045484073580174"><ele>238.6</ele><time>2026-04-21T09:29:14Z</time></trkpt><trkpt lat="36.9818324749375" lon="-2.1046789157750108"><ele>239.0</ele><time>2026-04-21T09:29:15Z</time></trkpt><trkpt lat="36.98182610504294" lon="-2.1048118939643117"><ele>239.16666666666669</ele><time>2026-04-21T09:29:16Z</time></trkpt><trkpt lat="36.981819776686706" lon="-2.1049365468134944"><ele>239.33333333333334</ele><time>2026-04-21T09:29:17Z</time></trkpt><trkpt lat="36.9818113264808" lon="-2.105054003647941"><ele>239.5</ele><time>2026-04-21T09:29:18Z</time></trkpt><trkpt lat="36.98180626565494" lon="-2.105162729881638"><ele>239.66666666666669</ele><time>2026-04-21T09:29:19Z</time></trkpt><trkpt lat="36.981794667337766" lon="-2.1052677776462936"><ele>239.83333333333334</ele><time>2026-04-21T09:29:19.999Z</time></trkpt><trkpt lat="36.98177907684926" lon="-2.1053707636759476"><ele>240.0</ele><time>2026-04-21T09:29:20.999Z</time></trkpt><trkpt lat="36.98176265973354" lon="-2.105473521099229"><ele>240.0</ele><time>2026-04-21T09:29:21.999Z</time></trkpt><trkpt lat="36.98174424209982" lon="-2.105580389047942"><ele>240.0</ele><time>2026-04-21T09:29:22.999Z</time></trkpt><trkpt lat="36.98172006718107" lon="-2.105693775825259"><ele>240.0</ele><time>2026-04-21T09:29:23.999Z</time></trkpt><trkpt lat="36.9816823987165" lon="-2.105807024579069"><ele>240.0</ele><time>2026-04-21T09:29:24.999Z</time></trkpt><trkpt lat="36.98163706797006" lon="-2.1059208969466083"><ele>240.0</ele><time>2026-04-21T09:29:25.999Z</time></trkpt><trkpt lat="36.981592219943515" lon="-2.1060362321790067"><ele>238.4</ele><time>2026-04-21T09:29:26.999Z</time></trkpt><trkpt lat="36.98154925436929" lon="-2.106145304821533"><ele>236.8</ele><time>2026-04-21T09:29:27.999Z</time></trkpt><trkpt lat="36.98152478026072" lon="-2.106260731659574"><ele>235.2</ele><time>2026-04-21T09:29:28.999Z</time></trkpt><trkpt lat="36.98149303317751" lon="-2.1063775884041847"><ele>233.6</ele><time>2026-04-21T09:29:29.999Z</time></trkpt><trkpt lat="36.981458548120294" lon="-2.1064940013072255"><ele>232.0</ele><time>2026-04-21T09:29:30.999Z</time></trkpt><trkpt lat="36.98141521311878" lon="-2.1066071210156836"><ele>232.0</ele><time>2026-04-21T09:29:31.999Z</time></trkpt><trkpt lat="36.9813760588945" lon="-2.106723087118925"><ele>232.0</ele><time>2026-04-21T09:29:32.999Z</time></trkpt><trkpt lat="36.98133443014453" lon="-2.1068422582462327"><ele>232.0</ele><time>2026-04-21T09:29:33.999Z</time></trkpt><trkpt lat="36.98129248981996" lon="-2.106960476270546"><ele>232.0</ele><time>2026-04-21T09:29:34.999Z</time></trkpt><trkpt lat="36.98125569538259" lon="-2.1070830531174103"><ele>232.0</ele><time>2026-04-21T09:29:35.999Z</time></trkpt><trkpt lat="36.981214172081515" lon="-2.1072000070164902"><ele>232.0</ele><time>2026-04-21T09:29:36.999Z</time></trkpt><trkpt lat="36.98117223826416" lon="-2.1073266883760584"><ele>232.0</ele><time>2026-04-21T09:29:37.999Z</time></trkpt><trkpt lat="36.98112981900311" lon="-2.107467372864691"><ele>232.0</ele><time>2026-04-21T09:29:38.999Z</time></trkpt><trkpt lat="36.98108352050623" lon="-2.1076125596489037"><ele>232.0</ele><time>2026-04-21T09:29:39.999Z</time></trkpt><trkpt lat="36.981036897805204" lon="-2.107760688853765"><ele>231.75</ele><time>2026-04-21T09:29:40.999Z</time></trkpt><trkpt lat="36.98099242409554" lon="-2.107910981638605"><ele>231.5</ele><time>2026-04-21T09:29:41.999Z</time></trkpt><trkpt lat="36.980951728723795" lon="-2.108061697730801"><ele>231.25</ele><time>2026-04-21T09:29:42.999Z</time></trkpt><trkpt lat="36.980905800174256" lon="-2.108209640135266"><ele>231.0</ele><time>2026-04-21T09:29:43.999Z</time></trkpt><trkpt lat="36.98085711693407" lon="-2.108353645751776"><ele>230.5</ele><time>2026-04-21T09:29:44.999Z</time></trkpt><trkpt lat="36.980801364454585" lon="-2.108497217649677"><ele>230.0</ele><time>2026-04-21T09:29:45.999Z</time></trkpt><trkpt lat="36.980752892664306" lon="-2.1086425120298284"><ele>229.5</ele><time>2026-04-21T09:29:46.999Z</time></trkpt><trkpt lat="36.980706144087" lon="-2.108786541304976"><ele>229.0</ele><time>2026-04-21T09:29:47.999Z</time></trkpt><trkpt lat="36.98066219434008" lon="-2.108925068062331"><ele>229.0</ele><time>2026-04-21T09:29:48.999Z</time></trkpt><trkpt lat="36.98062082743333" lon="-2.1090526860852172"><ele>228.99999999999997</ele><time>2026-04-21T09:29:49.999Z</time></trkpt><trkpt lat="36.98058306538658" lon="-2.109172678983893"><ele>228.99999999999997</ele><time>2026-04-21T09:29:50.999Z</time></trkpt><trkpt lat="36.980546958955564" lon="-2.109287560682483"><ele>229.0</ele><time>2026-04-21T09:29:51.999Z</time></trkpt><trkpt lat="36.98050957731216" lon="-2.109403921168934"><ele>229.0</ele><time>2026-04-21T09:29:52.999Z</time></trkpt><trkpt lat="36.98047098064983" lon="-2.109527011224244"><ele>229.6</ele><time>2026-04-21T09:29:53.999Z</time></trkpt><trkpt lat="36.98042821015905" lon="-2.1096520797154104"><ele>230.2</ele><time>2026-04-21T09:29:54.999Z</time></trkpt><trkpt lat="36.98037733550839" lon="-2.1097729787875235"><ele>230.79999999999998</ele><time>2026-04-21T09:29:55.999Z</time></trkpt><trkpt lat="36.98032987917307" lon="-2.109894807354681"><ele>231.39999999999998</ele><time>2026-04-21T09:29:56.999Z</time></trkpt><trkpt lat="36.98028279665567" lon="-2.1100191570085873"><ele>232.0</ele><time>2026-04-21T09:29:57.999Z</time></trkpt><trkpt lat="36.980241825118085" lon="-2.110150568343324"><ele>232.0</ele><time>2026-04-21T09:29:58.999Z</time></trkpt><trkpt lat="36.98021168553412" lon="-2.1102831557465187"><ele>232.0</ele><time>2026-04-21T09:29:59.999Z</time></trkpt><trkpt lat="36.98017695597215" lon="-2.110400776412592"><ele>232.0</ele><time>2026-04-21T09:30:00.999Z</time></trkpt><trkpt lat="36.9801443255143" lon="-2.110507634603114"><ele>232.0</ele><time>2026-04-21T09:30:01.999Z</time></trkpt><trkpt lat="36.98011427682969" lon="-2.110617849489113"><ele>232.0</ele><time>2026-04-21T09:30:02.999Z</time></trkpt><trkpt lat="36.98008038890917" lon="-2.110731843315045"><ele>232.39999999999998</ele><time>2026-04-21T09:30:03.999Z</time></trkpt><trkpt lat="36.98004800213133" lon="-2.1108435472157185"><ele>232.79999999999998</ele><time>2026-04-21T09:30:04.999Z</time></trkpt><trkpt lat="36.98001434653347" lon="-2.110953877511263"><ele>233.2</ele><time>2026-04-21T09:30:05.999Z</time></trkpt><trkpt lat="36.97998904961223" lon="-2.1110683333679727"><ele>233.6</ele><time>2026-04-21T09:30:06.999Z</time></trkpt><trkpt lat="36.97996456300404" lon="-2.1111856322172264"><ele>234.0</ele><time>2026-04-21T09:30:07.999Z</time></trkpt><trkpt lat="36.979939429060856" lon="-2.111308779431026"><ele>234.0</ele><time>2026-04-21T09:30:08.999Z</time></trkpt><trkpt lat="36.97990631132118" lon="-2.1114357018025927"><ele>233.99999999999997</ele><time>2026-04-21T09:30:09.999Z</time></trkpt><trkpt lat="36.979869848748216" lon="-2.111564692061549"><ele>233.99999999999997</ele><time>2026-04-21T09:30:10.999Z</time></trkpt><trkpt lat="36.979837203064804" lon="-2.1116961582866716"><ele>234.0</ele><time>2026-04-21T09:30:11.999Z</time></trkpt><trkpt lat="36.97980834494055" lon="-2.1118307054228804"><ele>234.0</ele><time>2026-04-21T09:30:12.999Z</time></trkpt><trkpt lat="36.97977769600282" lon="-2.1119700008287436"><ele>234.5</ele><time>2026-04-21T09:30:13.999Z</time></trkpt><trkpt lat="36.97975430129836" lon="-2.1121173077414728"><ele>235.0</ele><time>2026-04-21T09:30:14.999Z</time></trkpt><trkpt lat="36.97972994418726" lon="-2.1122656270110967"><ele>235.5</ele><time>2026-04-21T09:30:15.999Z</time></trkpt><trkpt lat="36.9797059969848" lon="-2.112411651407626"><ele>236.0</ele><time>2026-04-21T09:30:16.999Z</time></trkpt><trkpt lat="36.979679395621574" lon="-2.1125540275458556"><ele>236.20000000000002</ele><time>2026-04-21T09:30:17.999Z</time></trkpt><trkpt lat="36.97965603954362" lon="-2.1126914736346887"><ele>236.40000000000003</ele><time>2026-04-21T09:30:18.999Z</time></trkpt><trkpt lat="36.97963889276811" lon="-2.1128251460076135"><ele>236.6</ele><time>2026-04-21T09:30:19.999Z</time></trkpt><trkpt lat="36.979623396436835" lon="-2.1129568339445215"><ele>236.8</ele><time>2026-04-21T09:30:20.999Z</time></trkpt><trkpt lat="36.97960532342742" lon="-2.113089519317133"><ele>237.0</ele><time>2026-04-21T09:30:21.999Z</time></trkpt><trkpt lat="36.97958251365903" lon="-2.11322596083223"><ele>237.25</ele><time>2026-04-21T09:30:22.999Z</time></trkpt><trkpt lat="36.97955516250599" lon="-2.11336816704976"><ele>237.5</ele><time>2026-04-21T09:30:23.999Z</time></trkpt><trkpt lat="36.97953083394829" lon="-2.1135117336270772"><ele>237.75</ele><time>2026-04-21T09:30:24.999Z</time></trkpt><trkpt lat="36.97951529453531" lon="-2.113651045712706"><ele>238.0</ele><time>2026-04-21T09:30:25.999Z</time></trkpt><trkpt lat="36.97949863155644" lon="-2.113779201323105"><ele>238.0</ele><time>2026-04-21T09:30:26.999Z</time></trkpt><trkpt lat="36.979481796286315" lon="-2.113897996308608"><ele>238.0</ele><time>2026-04-21T09:30:27.999Z</time></trkpt><trkpt lat="36.9794642830604" lon="-2.114021316752497"><ele>238.0</ele><time>2026-04-21T09:30:28.999Z</time></trkpt><trkpt lat="36.97944726071373" lon="-2.114154592445099"><ele>238.0</ele><time>2026-04-21T09:30:29.999Z</time></trkpt><trkpt lat="36.97943516822708" lon="-2.114293021535823"><ele>238.0</ele><time>2026-04-21T09:30:30.999Z</time></trkpt><trkpt lat="36.979426563981534" lon="-2.1144229915060317"><ele>238.25</ele><time>2026-04-21T09:30:31.999Z</time></trkpt><trkpt lat="36.979411466331456" lon="-2.114555289668882"><ele>238.5</ele><time>2026-04-21T09:30:32.998Z</time></trkpt><trkpt lat="36.97938633719893" lon="-2.114693564425904"><ele>238.75</ele><time>2026-04-21T09:30:33.998Z</time></trkpt><trkpt lat="36.97935871138273" lon="-2.1148363508719568"><ele>239.0</ele><time>2026-04-21T09:30:34.998Z</time></trkpt><trkpt lat="36.97933071472041" lon="-2.114978165107096"><ele>239.5</ele><time>2026-04-21T09:30:35.998Z</time></trkpt><trkpt lat="36.97931142594065" lon="-2.115116960571674"><ele>240.0</ele><time>2026-04-21T09:30:36.998Z</time></trkpt><trkpt lat="36.97928932533003" lon="-2.1152522129943505"><ele>240.5</ele><time>2026-04-21T09:30:37.998Z</time></trkpt><trkpt lat="36.97926459874206" lon="-2.1153897170548532"><ele>241.0</ele><time>2026-04-21T09:30:38.998Z</time></trkpt><trkpt lat="36.97923540903016" lon="-2.1155340314098705"><ele>241.0</ele><time>2026-04-21T09:30:39.998Z</time></trkpt><trkpt lat="36.979202530732536" lon="-2.1156847973099593"><ele>241.0</ele><time>2026-04-21T09:30:40.998Z</time></trkpt><trkpt lat="36.97916476247043" lon="-2.115830180470132"><ele>241.0</ele><time>2026-04-21T09:30:41.998Z</time></trkpt><trkpt lat="36.9791230123515" lon="-2.115965947986454"><ele>241.0</ele><time>2026-04-21T09:30:42.998Z</time></trkpt><trkpt lat="36.97908118556765" lon="-2.116095593020493"><ele>240.4</ele><time>2026-04-21T09:30:43.998Z</time></trkpt><trkpt lat="36.97903626725494" lon="-2.1162182987827145"><ele>239.8</ele><time>2026-04-21T09:30:44.998Z</time></trkpt><trkpt lat="36.97899377625922" lon="-2.1163354860385915"><ele>239.20000000000002</ele><time>2026-04-21T09:30:45.998Z</time></trkpt><trkpt lat="36.978946944475474" lon="-2.1164414351919087"><ele>238.60000000000002</ele><time>2026-04-21T09:30:46.998Z</time></trkpt><trkpt lat="36.97890093036495" lon="-2.1165356649087554"><ele>238.0</ele><time>2026-04-21T09:30:47.998Z</time></trkpt><trkpt lat="36.9788544866746" lon="-2.116617437031325"><ele>237.99999999999997</ele><time>2026-04-21T09:30:48.998Z</time></trkpt><trkpt lat="36.97880883838018" lon="-2.1166873046535066"><ele>238.0</ele><time>2026-04-21T09:30:49.998Z</time></trkpt><trkpt lat="36.97874036262991" lon="-2.1167944439708637"><ele>238.0</ele><time>2026-04-21T09:30:51.998Z</time></trkpt><trkpt lat="36.97869179247885" lon="-2.116860075496762"><ele>238.0</ele><time>2026-04-21T09:30:53.998Z</time></trkpt><trkpt lat="36.97865766259475" lon="-2.116926743683412"><ele>237.99999999999997</ele><time>2026-04-21T09:30:55.998Z</time></trkpt><trkpt lat="36.97860183246378" lon="-2.116990476011167"><ele>238.0</ele><time>2026-04-21T09:30:58.998Z</time></trkpt><trkpt lat="36.97855144789815" lon="-2.1170440004505187"><ele>238.0</ele><time>2026-04-21T09:31:01.998Z</time></trkpt><trkpt lat="36.97848491895215" lon="-2.1170870723519153"><ele>238.0</ele><time>2026-04-21T09:31:04.998Z</time></trkpt><trkpt lat="36.978408177481754" lon="-2.1171322775946138"><ele>238.0</ele><time>2026-04-21T09:31:07.998Z</time></trkpt><trkpt lat="36.978325525651066" lon="-2.1172390695794574"><ele>238.0</ele><time>2026-04-21T09:31:09.998Z</time></trkpt><trkpt lat="36.978270189879616" lon="-2.1173144063657814"><ele>238.0</ele><time>2026-04-21T09:31:10.998Z</time></trkpt><trkpt lat="36.97820763773212" lon="-2.117394981058167"><ele>237.49999999999997</ele><time>2026-04-21T09:31:11.998Z</time></trkpt><trkpt lat="36.978142744972885" lon="-2.1174727786663814"><ele>237.0</ele><time>2026-04-21T09:31:12.998Z</time></trkpt><trkpt lat="36.97808069524679" lon="-2.117547578089221"><ele>236.5</ele><time>2026-04-21T09:31:13.998Z</time></trkpt><trkpt lat="36.97801868074851" lon="-2.117618459254913"><ele>236.0</ele><time>2026-04-21T09:31:14.998Z</time></trkpt><trkpt lat="36.97795415522913" lon="-2.117691763715547"><ele>235.49999999999997</ele><time>2026-04-21T09:31:15.998Z</time></trkpt><trkpt lat="36.9778825651105" lon="-2.1177631889435475"><ele>235.0</ele><time>2026-04-21T09:31:16.998Z</time></trkpt><trkpt lat="36.977808460916314" lon="-2.117841565073959"><ele>235.0</ele><time>2026-04-21T09:31:17.998Z</time></trkpt><trkpt lat="36.97773068671885" lon="-2.117918783402155"><ele>235.0</ele><time>2026-04-21T09:31:18.998Z</time></trkpt><trkpt lat="36.97764819766737" lon="-2.1180006008291654"><ele>235.0</ele><time>2026-04-21T09:31:19.998Z</time></trkpt><trkpt lat="36.97755961628584" lon="-2.118081680332443"><ele>235.0</ele><time>2026-04-21T09:31:20.998Z</time></trkpt><trkpt lat="36.977471057886774" lon="-2.1181654074388434"><ele>235.0</ele><time>2026-04-21T09:31:21.998Z</time></trkpt><trkpt lat="36.97738245878074" lon="-2.118249212890741"><ele>234.6</ele><time>2026-04-21T09:31:22.998Z</time></trkpt><trkpt lat="36.977296410942614" lon="-2.1183328803767045"><ele>234.2</ele><time>2026-04-21T09:31:23.998Z</time></trkpt><trkpt lat="36.977213189193115" lon="-2.1184051723991066"><ele>233.8</ele><time>2026-04-21T09:31:24.998Z</time></trkpt><trkpt lat="36.97714398990561" lon="-2.1184707666877047"><ele>233.4</ele><time>2026-04-21T09:31:25.998Z</time></trkpt><trkpt lat="36.97707158891248" lon="-2.1185352100283756"><ele>233.0</ele><time>2026-04-21T09:31:26.998Z</time></trkpt><trkpt lat="36.9769970609843" lon="-2.1186082538327504"><ele>233.0</ele><time>2026-04-21T09:31:27.998Z</time></trkpt><trkpt lat="36.97692009422619" lon="-2.1186852817415214"><ele>233.0</ele><time>2026-04-21T09:31:28.998Z</time></trkpt><trkpt lat="36.976844008621384" lon="-2.118757512749231"><ele>233.0</ele><time>2026-04-21T09:31:29.998Z</time></trkpt><trkpt lat="36.97677129005356" lon="-2.1188319611828192"><ele>233.0</ele><time>2026-04-21T09:31:30.998Z</time></trkpt><trkpt lat="36.97669732386026" lon="-2.118900163464364"><ele>233.0</ele><time>2026-04-21T09:31:31.998Z</time></trkpt><trkpt lat="36.97663122314856" lon="-2.1189675263479235"><ele>232.66666666666669</ele><time>2026-04-21T09:31:32.998Z</time></trkpt><trkpt lat="36.97656886820738" lon="-2.1190245404282373"><ele>232.33333333333334</ele><time>2026-04-21T09:31:33.998Z</time></trkpt><trkpt lat="36.97651099280038" lon="-2.119070972833806"><ele>232.0</ele><time>2026-04-21T09:31:34.998Z</time></trkpt><trkpt lat="36.97642228253138" lon="-2.1191731936841927"><ele>231.66666666666669</ele><time>2026-04-21T09:31:36.998Z</time></trkpt><trkpt lat="36.97637631878713" lon="-2.119227633705087"><ele>231.33333333333334</ele><time>2026-04-21T09:31:37.998Z</time></trkpt><trkpt lat="36.976323227468335" lon="-2.119280933383115"><ele>231.0</ele><time>2026-04-21T09:31:38.998Z</time></trkpt><trkpt lat="36.97625936127455" lon="-2.1193355262783817"><ele>231.0</ele><time>2026-04-21T09:31:39.998Z</time></trkpt><trkpt lat="36.976196449276586" lon="-2.119397112190938"><ele>231.0</ele><time>2026-04-21T09:31:40.998Z</time></trkpt><trkpt lat="36.976130894887824" lon="-2.1194573957188267"><ele>231.0</ele><time>2026-04-21T09:31:41.998Z</time></trkpt><trkpt lat="36.97606574511078" lon="-2.119518480080274"><ele>231.0</ele><time>2026-04-21T09:31:42.998Z</time></trkpt><trkpt lat="36.9760078995107" lon="-2.119590591435255"><ele>231.0</ele><time>2026-04-21T09:31:43.998Z</time></trkpt><trkpt lat="36.975950809328" lon="-2.1196603916244716"><ele>231.0</ele><time>2026-04-21T09:31:44.998Z</time></trkpt><trkpt lat="36.975895950169345" lon="-2.119726728907602"><ele>230.66666666666666</ele><time>2026-04-21T09:31:45.998Z</time></trkpt><trkpt lat="36.97584150068228" lon="-2.119792505966336"><ele>230.33333333333331</ele><time>2026-04-21T09:31:46.998Z</time></trkpt><trkpt lat="36.975778986140966" lon="-2.1198568855769695"><ele>230.0</ele><time>2026-04-21T09:31:47.998Z</time></trkpt><trkpt lat="36.97571387883283" lon="-2.119934130665472"><ele>229.66666666666666</ele><time>2026-04-21T09:31:48.998Z</time></trkpt><trkpt lat="36.9756415269557" lon="-2.1200169552778023"><ele>229.33333333333331</ele><time>2026-04-21T09:31:49.998Z</time></trkpt><trkpt lat="36.975575676941034" lon="-2.120104994087043"><ele>229.0</ele><time>2026-04-21T09:31:50.998Z</time></trkpt><trkpt lat="36.97551873459134" lon="-2.1201921980982856"><ele>228.99999999999997</ele><time>2026-04-21T09:31:51.998Z</time></trkpt><trkpt lat="36.97546365526608" lon="-2.1202690315804973"><ele>229.0</ele><time>2026-04-21T09:31:52.998Z</time></trkpt><trkpt lat="36.975408554854326" lon="-2.1203491805925694"><ele>229.0</ele><time>2026-04-21T09:31:53.998Z</time></trkpt><trkpt lat="36.97535076378844" lon="-2.1204295819009182"><ele>229.0</ele><time>2026-04-21T09:31:54.998Z</time></trkpt><trkpt lat="36.975294175871106" lon="-2.120512158772033"><ele>228.99999999999997</ele><time>2026-04-21T09:31:55.998Z</time></trkpt><trkpt lat="36.97524244248448" lon="-2.1205939417388886"><ele>229.0</ele><time>2026-04-21T09:31:56.998Z</time></trkpt><trkpt lat="36.975194535393186" lon="-2.120673119966068"><ele>229.66666666666666</ele><time>2026-04-21T09:31:57.998Z</time></trkpt><trkpt lat="36.97515225637604" lon="-2.120756601057004"><ele>230.33333333333331</ele><time>2026-04-21T09:31:58.998Z</time></trkpt><trkpt lat="36.975106302682654" lon="-2.1208460835399934"><ele>231.0</ele><time>2026-04-21T09:31:59.998Z</time></trkpt><trkpt lat="36.97505611676313" lon="-2.120935757288378"><ele>231.66666666666669</ele><time>2026-04-21T09:32:00.998Z</time></trkpt><trkpt lat="36.975015187014975" lon="-2.121026056358813"><ele>232.33333333333334</ele><time>2026-04-21T09:32:01.998Z</time></trkpt><trkpt lat="36.97497843542767" lon="-2.1211151098132803"><ele>233.0</ele><time>2026-04-21T09:32:02.998Z</time></trkpt><trkpt lat="36.97494246719813" lon="-2.121204532625335"><ele>233.66666666666669</ele><time>2026-04-21T09:32:03.998Z</time></trkpt><trkpt lat="36.9749046499154" lon="-2.121291975192477"><ele>234.33333333333334</ele><time>2026-04-21T09:32:04.998Z</time></trkpt><trkpt lat="36.974867256893916" lon="-2.1213787585272033"><ele>235.0</ele><time>2026-04-21T09:32:05.997Z</time></trkpt><trkpt lat="36.974828235170726" lon="-2.1214701519773773"><ele>235.66666666666669</ele><time>2026-04-21T09:32:06.997Z</time></trkpt><trkpt lat="36.974790146209145" lon="-2.1215698445832283"><ele>236.33333333333334</ele><time>2026-04-21T09:32:07.997Z</time></trkpt><trkpt lat="36.97475020503341" lon="-2.1216752041694855"><ele>237.0</ele><time>2026-04-21T09:32:08.997Z</time></trkpt><trkpt lat="36.974718851337364" lon="-2.12177817739045"><ele>237.16666666666666</ele><time>2026-04-21T09:32:09.997Z</time></trkpt><trkpt lat="36.974694207697326" lon="-2.121879174163557"><ele>237.33333333333331</ele><time>2026-04-21T09:32:10.997Z</time></trkpt><trkpt lat="36.974669844944984" lon="-2.121982262660272"><ele>237.5</ele><time>2026-04-21T09:32:11.997Z</time></trkpt><trkpt lat="36.97464975357889" lon="-2.1220940321421526"><ele>237.66666666666666</ele><time>2026-04-21T09:32:12.997Z</time></trkpt><trkpt lat="36.974626721017785" lon="-2.1222083411738306"><ele>237.83333333333331</ele><time>2026-04-21T09:32:13.997Z</time></trkpt><trkpt lat="36.9746022156683" lon="-2.1223202828236234"><ele>238.0</ele><time>2026-04-21T09:32:14.997Z</time></trkpt><trkpt lat="36.9745864773359" lon="-2.122433940361767"><ele>238.4</ele><time>2026-04-21T09:32:15.997Z</time></trkpt><trkpt lat="36.9745719123063" lon="-2.1225517198288815"><ele>238.8</ele><time>2026-04-21T09:32:16.997Z</time></trkpt><trkpt lat="36.97455679127095" lon="-2.122672691836986"><ele>239.2</ele><time>2026-04-21T09:32:17.997Z</time></trkpt><trkpt lat="36.97454797432231" lon="-2.1227916940590066"><ele>239.6</ele><time>2026-04-21T09:32:18.997Z</time></trkpt><trkpt lat="36.974540876069305" lon="-2.1229162064326674"><ele>240.0</ele><time>2026-04-21T09:32:19.997Z</time></trkpt><trkpt lat="36.97453662100459" lon="-2.1230476092057002"><ele>240.0</ele><time>2026-04-21T09:32:20.997Z</time></trkpt><trkpt lat="36.9745358702466" lon="-2.1231813138143245"><ele>240.0</ele><time>2026-04-21T09:32:21.997Z</time></trkpt><trkpt lat="36.97453669611566" lon="-2.1233147345901044"><ele>240.0</ele><time>2026-04-21T09:32:22.997Z</time></trkpt><trkpt lat="36.974538794865666" lon="-2.123451947559327"><ele>240.0</ele><time>2026-04-21T09:32:23.997Z</time></trkpt><trkpt lat="36.974543549905796" lon="-2.1235948311038886"><ele>240.0</ele><time>2026-04-21T09:32:24.997Z</time></trkpt><trkpt lat="36.9745513156" lon="-2.1237395449734997"><ele>241.0</ele><time>2026-04-21T09:32:25.997Z</time></trkpt><trkpt lat="36.974563247610185" lon="-2.12388515339795"><ele>242.0</ele><time>2026-04-21T09:32:26.997Z</time></trkpt><trkpt lat="36.97457720990197" lon="-2.124038118393678"><ele>243.0</ele><time>2026-04-21T09:32:27.997Z</time></trkpt><trkpt lat="36.97459158754097" lon="-2.1241969686699593"><ele>244.0</ele><time>2026-04-21T09:32:28.997Z</time></trkpt><trkpt lat="36.97461225914142" lon="-2.1243575171354703"><ele>244.75</ele><time>2026-04-21T09:32:29.997Z</time></trkpt><trkpt lat="36.9746309050581" lon="-2.1245190144593433"><ele>245.5</ele><time>2026-04-21T09:32:30.997Z</time></trkpt><trkpt lat="36.97465259421951" lon="-2.1246829588093203"><ele>246.25</ele><time>2026-04-21T09:32:31.997Z</time></trkpt><trkpt lat="36.97467122547215" lon="-2.1248516965599036"><ele>247.0</ele><time>2026-04-21T09:32:32.997Z</time></trkpt><trkpt lat="36.97468479299039" lon="-2.1250266766543957"><ele>247.0</ele><time>2026-04-21T09:32:33.997Z</time></trkpt><trkpt lat="36.97470167785868" lon="-2.125204347373499"><ele>247.0</ele><time>2026-04-21T09:32:34.997Z</time></trkpt><trkpt lat="36.974724715255476" lon="-2.1253840725951365"><ele>247.0</ele><time>2026-04-21T09:32:35.997Z</time></trkpt><trkpt lat="36.97474897065167" lon="-2.125567071927476"><ele>247.0</ele><time>2026-04-21T09:32:36.997Z</time></trkpt><trkpt lat="36.974767549365914" lon="-2.125750475476195"><ele>247.5</ele><time>2026-04-21T09:32:37.997Z</time></trkpt><trkpt lat="36.974775888833236" lon="-2.1259322791452666"><ele>248.0</ele><time>2026-04-21T09:32:38.997Z</time></trkpt><trkpt lat="36.97478039143994" lon="-2.1261113471456237"><ele>248.5</ele><time>2026-04-21T09:32:39.997Z</time></trkpt><trkpt lat="36.974776183191764" lon="-2.1262804605155443"><ele>249.0</ele><time>2026-04-21T09:32:40.997Z</time></trkpt><trkpt lat="36.974761362361946" lon="-2.1264329125683177"><ele>249.39999999999998</ele><time>2026-04-21T09:32:41.997Z</time></trkpt><trkpt lat="36.97474331299372" lon="-2.1265749280071415"><ele>249.79999999999998</ele><time>2026-04-21T09:32:42.997Z</time></trkpt><trkpt lat="36.97471452147901" lon="-2.1267104369037924"><ele>250.20000000000002</ele><time>2026-04-21T09:32:43.997Z</time></trkpt><trkpt lat="36.97468548291526" lon="-2.126841136493412"><ele>250.60000000000002</ele><time>2026-04-21T09:32:44.997Z</time></trkpt><trkpt lat="36.97466056875161" lon="-2.1269650442673087"><ele>251.0</ele><time>2026-04-21T09:32:45.997Z</time></trkpt><trkpt lat="36.974630547181896" lon="-2.1270798953610695"><ele>251.0</ele><time>2026-04-21T09:32:46.997Z</time></trkpt><trkpt lat="36.974590905635175" lon="-2.1271906769845503"><ele>251.00000000000003</ele><time>2026-04-21T09:32:47.997Z</time></trkpt><trkpt lat="36.97455323563688" lon="-2.1273063697736454"><ele>251.00000000000003</ele><time>2026-04-21T09:32:48.997Z</time></trkpt><trkpt lat="36.97451445474444" lon="-2.1274223928849088"><ele>251.0</ele><time>2026-04-21T09:32:49.997Z</time></trkpt><trkpt lat="36.974475192990894" lon="-2.127530619881483"><ele>251.0</ele><time>2026-04-21T09:32:50.997Z</time></trkpt><trkpt lat="36.97444084101734" lon="-2.1276327177979617"><ele>251.8</ele><time>2026-04-21T09:32:51.997Z</time></trkpt><trkpt lat="36.974405202598476" lon="-2.127729844320112"><ele>252.60000000000002</ele><time>2026-04-21T09:32:52.997Z</time></trkpt><trkpt lat="36.974370251391896" lon="-2.1278260611369992"><ele>253.4</ele><time>2026-04-21T09:32:53.997Z</time></trkpt><trkpt lat="36.97432623741652" lon="-2.1279205107154935"><ele>254.2</ele><time>2026-04-21T09:32:54.997Z</time></trkpt><trkpt lat="36.97427488826055" lon="-2.128022832746532"><ele>255.0</ele><time>2026-04-21T09:32:55.997Z</time></trkpt><trkpt lat="36.97421842887712" lon="-2.1281355681722314"><ele>254.6</ele><time>2026-04-21T09:32:56.997Z</time></trkpt><trkpt lat="36.974159953152146" lon="-2.1282489782135365"><ele>254.2</ele><time>2026-04-21T09:32:57.997Z</time></trkpt><trkpt lat="36.97410412635245" lon="-2.1283621489160796"><ele>253.8</ele><time>2026-04-21T09:32:58.997Z</time></trkpt><trkpt lat="36.97404346530793" lon="-2.1284715019626876"><ele>253.4</ele><time>2026-04-21T09:32:59.997Z</time></trkpt><trkpt lat="36.97398270835455" lon="-2.1285750711701366"><ele>253.0</ele><time>2026-04-21T09:33:00.997Z</time></trkpt><trkpt lat="36.97393017593543" lon="-2.1286782525785917"><ele>253.0</ele><time>2026-04-21T09:33:01.997Z</time></trkpt><trkpt lat="36.97387979201296" lon="-2.1287818992654803"><ele>253.0</ele><time>2026-04-21T09:33:02.997Z</time></trkpt><trkpt lat="36.97382229256031" lon="-2.1288823061035718"><ele>253.0</ele><time>2026-04-21T09:33:03.997Z</time></trkpt><trkpt lat="36.97375928890087" lon="-2.1289823696481682"><ele>253.0</ele><time>2026-04-21T09:33:04.997Z</time></trkpt><trkpt lat="36.97369321797908" lon="-2.129081834169"><ele>253.0</ele><time>2026-04-21T09:33:05.997Z</time></trkpt><trkpt lat="36.97363083633511" lon="-2.129175955120614"><ele>252.83333333333331</ele><time>2026-04-21T09:33:06.997Z</time></trkpt><trkpt lat="36.97357119073835" lon="-2.1292576768992983"><ele>252.66666666666666</ele><time>2026-04-21T09:33:07.997Z</time></trkpt><trkpt lat="36.973512541206986" lon="-2.1293338788820337"><ele>252.5</ele><time>2026-04-21T09:33:08.997Z</time></trkpt><trkpt lat="36.973457777903455" lon="-2.1294111316100155"><ele>252.33333333333331</ele><time>2026-04-21T09:33:09.997Z</time></trkpt><trkpt lat="36.97340384701515" lon="-2.1294935721476533"><ele>252.16666666666666</ele><time>2026-04-21T09:33:10.997Z</time></trkpt><trkpt lat="36.97334459448141" lon="-2.129575799381517"><ele>252.0</ele><time>2026-04-21T09:33:11.997Z</time></trkpt><trkpt lat="36.973278779797084" lon="-2.129658253311167"><ele>251.6</ele><time>2026-04-21T09:33:12.997Z</time></trkpt><trkpt lat="36.97320395930002" lon="-2.1297444350478956"><ele>251.2</ele><time>2026-04-21T09:33:13.997Z</time></trkpt><trkpt lat="36.97312508422419" lon="-2.129840701428049"><ele>250.8</ele><time>2026-04-21T09:33:14.997Z</time></trkpt><trkpt lat="36.97303880629117" lon="-2.1299368394644196"><ele>250.4</ele><time>2026-04-21T09:33:15.997Z</time></trkpt><trkpt lat="36.972953278269436" lon="-2.1300325486851577"><ele>250.0</ele><time>2026-04-21T09:33:16.997Z</time></trkpt><trkpt lat="36.97287861941051" lon="-2.1301237674404"><ele>249.4</ele><time>2026-04-21T09:33:17.997Z</time></trkpt><trkpt lat="36.972805743606166" lon="-2.1302046707357256"><ele>248.8</ele><time>2026-04-21T09:33:18.997Z</time></trkpt><trkpt lat="36.97272946499747" lon="-2.1302821628468287"><ele>248.2</ele><time>2026-04-21T09:33:19.997Z</time></trkpt><trkpt lat="36.97265362512923" lon="-2.1303613088836033"><ele>247.6</ele><time>2026-04-21T09:33:20.997Z</time></trkpt><trkpt lat="36.972585349784744" lon="-2.1304391486814946"><ele>247.0</ele><time>2026-04-21T09:33:21.997Z</time></trkpt><trkpt lat="36.972525033836696" lon="-2.130515046810459"><ele>247.0</ele><time>2026-04-21T09:33:22.997Z</time></trkpt><trkpt lat="36.972458802555096" lon="-2.1305960831156447"><ele>247.0</ele><time>2026-04-21T09:33:23.997Z</time></trkpt><trkpt lat="36.972386056619776" lon="-2.1306845420529803"><ele>247.0</ele><time>2026-04-21T09:33:24.997Z</time></trkpt><trkpt lat="36.97230655721908" lon="-2.130777678885504"><ele>247.0</ele><time>2026-04-21T09:33:25.997Z</time></trkpt><trkpt lat="36.97222099453559" lon="-2.1308792396373657"><ele>247.0</ele><time>2026-04-21T09:33:26.997Z</time></trkpt><trkpt lat="36.972134040020464" lon="-2.1309901338681674"><ele>247.0</ele><time>2026-04-21T09:33:27.997Z</time></trkpt><trkpt lat="36.97204259105699" lon="-2.131099130849826"><ele>247.0</ele><time>2026-04-21T09:33:28.997Z</time></trkpt><trkpt lat="36.9719563073074" lon="-2.1312058640161773"><ele>247.0</ele><time>2026-04-21T09:33:29.997Z</time></trkpt><trkpt lat="36.97187160375477" lon="-2.1313080017220254"><ele>247.0</ele><time>2026-04-21T09:33:30.997Z</time></trkpt><trkpt lat="36.9718000672253" lon="-2.131395024163532"><ele>246.99999999999997</ele><time>2026-04-21T09:33:31.997Z</time></trkpt><trkpt lat="36.971743458259304" lon="-2.131469870702083"><ele>247.0</ele><time>2026-04-21T09:33:32.997Z</time></trkpt><trkpt lat="36.97169239991682" lon="-2.1315326124021716"><ele>247.0</ele><time>2026-04-21T09:33:33.997Z</time></trkpt><trkpt lat="36.971619859808825" lon="-2.131631178998061"><ele>247.0</ele><time>2026-04-21T09:33:35.997Z</time></trkpt><trkpt lat="36.971579927730424" lon="-2.1316976200684445"><ele>246.99999999999997</ele><time>2026-04-21T09:33:37.997Z</time></trkpt><trkpt lat="36.97159469765026" lon="-2.131793150274351"><ele>247.0</ele><time>2026-04-21T09:33:40.996Z</time></trkpt><trkpt lat="36.97163645415104" lon="-2.1318538293428313"><ele>247.33333333333331</ele><time>2026-04-21T09:33:42.996Z</time></trkpt><trkpt lat="36.971709739589535" lon="-2.1319193231093783"><ele>247.66666666666666</ele><time>2026-04-21T09:33:44.996Z</time></trkpt><trkpt lat="36.97175569958854" lon="-2.131996084659281"><ele>248.0</ele><time>2026-04-21T09:33:47.996Z</time></trkpt><trkpt lat="36.97180016435185" lon="-2.132067284317257"><ele>248.33333333333331</ele><time>2026-04-21T09:34:01.996Z</time></trkpt><trkpt lat="36.97189505059049" lon="-2.132150601940323"><ele>248.66666666666666</ele><time>2026-04-21T09:34:03.996Z</time></trkpt><trkpt lat="36.97194244703875" lon="-2.132203337329426"><ele>249.0</ele><time>2026-04-21T09:34:04.996Z</time></trkpt><trkpt lat="36.97198889573531" lon="-2.1322610647955784"><ele>249.0</ele><time>2026-04-21T09:34:05.996Z</time></trkpt><trkpt lat="36.97204282571564" lon="-2.132318487664693"><ele>249.0</ele><time>2026-04-21T09:34:06.996Z</time></trkpt><trkpt lat="36.972102290818015" lon="-2.1323773499111405"><ele>249.0</ele><time>2026-04-21T09:34:07.996Z</time></trkpt><trkpt lat="36.97216849889263" lon="-2.1324279426494313"><ele>249.0</ele><time>2026-04-21T09:34:08.996Z</time></trkpt><trkpt lat="36.97223639082502" lon="-2.13248565099305"><ele>249.0</ele><time>2026-04-21T09:34:09.996Z</time></trkpt><trkpt lat="36.97230420962107" lon="-2.1325486000183367"><ele>249.0</ele><time>2026-04-21T09:34:10.996Z</time></trkpt><trkpt lat="36.97237219695453" lon="-2.132611581726613"><ele>249.33333333333334</ele><time>2026-04-21T09:34:11.996Z</time></trkpt><trkpt lat="36.972440797989236" lon="-2.1326693739977007"><ele>249.66666666666669</ele><time>2026-04-21T09:34:12.996Z</time></trkpt><trkpt lat="36.97251102907245" lon="-2.1327263543657793"><ele>250.0</ele><time>2026-04-21T09:34:13.996Z</time></trkpt><trkpt lat="36.9725821356568" lon="-2.1327815671174863"><ele>250.33333333333334</ele><time>2026-04-21T09:34:14.996Z</time></trkpt><trkpt lat="36.972654788301284" lon="-2.132835064149793"><ele>250.66666666666669</ele><time>2026-04-21T09:34:15.996Z</time></trkpt><trkpt lat="36.972732356499385" lon="-2.1328857671296393"><ele>251.0</ele><time>2026-04-21T09:34:16.996Z</time></trkpt><trkpt lat="36.97281308640298" lon="-2.1329403372222617"><ele>251.20000000000002</ele><time>2026-04-21T09:34:17.996Z</time></trkpt><trkpt lat="36.972894740624255" lon="-2.1330040594368302"><ele>251.40000000000003</ele><time>2026-04-21T09:34:18.996Z</time></trkpt><trkpt lat="36.972980828839496" lon="-2.1330636412592163"><ele>251.6</ele><time>2026-04-21T09:34:19.996Z</time></trkpt><trkpt lat="36.97307056509797" lon="-2.1331265070998247"><ele>251.8</ele><time>2026-04-21T09:34:20.996Z</time></trkpt><trkpt lat="36.97316235261142" lon="-2.1331895402991545"><ele>252.0</ele><time>2026-04-21T09:34:21.996Z</time></trkpt><trkpt lat="36.97326503196725" lon="-2.1332314321314283"><ele>253.2</ele><time>2026-04-21T09:34:22.996Z</time></trkpt><trkpt lat="36.973369508573775" lon="-2.133254435970195"><ele>254.39999999999998</ele><time>2026-04-21T09:34:23.996Z</time></trkpt><trkpt lat="36.97346939127557" lon="-2.1332733055597606"><ele>255.60000000000002</ele><time>2026-04-21T09:34:24.996Z</time></trkpt><trkpt lat="36.97356496337594" lon="-2.133307169841375"><ele>256.8</ele><time>2026-04-21T09:34:25.996Z</time></trkpt><trkpt lat="36.97365599346574" lon="-2.133343869793591"><ele>258.0</ele><time>2026-04-21T09:34:26.996Z</time></trkpt><trkpt lat="36.97374217508407" lon="-2.1333918050328253"><ele>258.0</ele><time>2026-04-21T09:34:27.996Z</time></trkpt><trkpt lat="36.973819437032866" lon="-2.1334396878774053"><ele>258.0</ele><time>2026-04-21T09:34:28.996Z</time></trkpt><trkpt lat="36.97389186940393" lon="-2.133474997406192"><ele>258.0</ele><time>2026-04-21T09:34:29.996Z</time></trkpt><trkpt lat="36.97396171252797" lon="-2.133504622324921"><ele>258.0</ele><time>2026-04-21T09:34:30.996Z</time></trkpt><trkpt lat="36.974035968076294" lon="-2.133518631287521"><ele>258.0</ele><time>2026-04-21T09:34:31.996Z</time></trkpt><trkpt lat="36.97411976484039" lon="-2.133501472215994"><ele>258.0</ele><time>2026-04-21T09:34:32.996Z</time></trkpt><trkpt lat="36.97419715128919" lon="-2.13344237939982"><ele>258.5</ele><time>2026-04-21T09:34:33.996Z</time></trkpt><trkpt lat="36.974264654348296" lon="-2.1333728043323235"><ele>259.0</ele><time>2026-04-21T09:34:34.996Z</time></trkpt><trkpt lat="36.97432245936154" lon="-2.133299310995395"><ele>259.5</ele><time>2026-04-21T09:34:35.996Z</time></trkpt><trkpt lat="36.974373390395925" lon="-2.133227263322393"><ele>260.0</ele><time>2026-04-21T09:34:36.996Z</time></trkpt><trkpt lat="36.97443300612219" lon="-2.1331790910128423"><ele>260.5</ele><time>2026-04-21T09:34:37.996Z</time></trkpt><trkpt lat="36.974503155417196" lon="-2.1331519194371227"><ele>261.0</ele><time>2026-04-21T09:34:38.996Z</time></trkpt><trkpt lat="36.97458145757691" lon="-2.133139211499745"><ele>261.0</ele><time>2026-04-21T09:34:39.996Z</time></trkpt><trkpt lat="36.974666401760736" lon="-2.13313024706844"><ele>261.0</ele><time>2026-04-21T09:34:40.996Z</time></trkpt><trkpt lat="36.97475325950589" lon="-2.1331254262952815"><ele>261.0</ele><time>2026-04-21T09:34:41.996Z</time></trkpt><trkpt lat="36.97484009539136" lon="-2.133135417846907"><ele>261.0</ele><time>2026-04-21T09:34:42.996Z</time></trkpt><trkpt lat="36.97492939688533" lon="-2.1331449467755825"><ele>261.0</ele><time>2026-04-21T09:34:43.996Z</time></trkpt><trkpt lat="36.97501515127999" lon="-2.133151045217078"><ele>261.0</ele><time>2026-04-21T09:34:44.996Z</time></trkpt><trkpt lat="36.975100806161684" lon="-2.1331525198305425"><ele>261.8</ele><time>2026-04-21T09:34:45.996Z</time></trkpt><trkpt lat="36.97519255459148" lon="-2.133149370814916"><ele>262.6</ele><time>2026-04-21T09:34:46.996Z</time></trkpt><trkpt lat="36.975290805159176" lon="-2.1331444973839693"><ele>263.4</ele><time>2026-04-21T09:34:47.996Z</time></trkpt><trkpt lat="36.97539180337129" lon="-2.1331322318674215"><ele>264.2</ele><time>2026-04-21T09:34:48.996Z</time></trkpt><trkpt lat="36.97549346538339" lon="-2.1331234975046303"><ele>265.0</ele><time>2026-04-21T09:34:49.996Z</time></trkpt><trkpt lat="36.975597489490994" lon="-2.1331229823590765"><ele>265.0</ele><time>2026-04-21T09:34:50.996Z</time></trkpt><trkpt lat="36.97570681667144" lon="-2.1331289808381393"><ele>265.0</ele><time>2026-04-21T09:34:51.996Z</time></trkpt><trkpt lat="36.97582776037295" lon="-2.1331516131568784"><ele>265.0</ele><time>2026-04-21T09:34:52.996Z</time></trkpt><trkpt lat="36.97596353774748" lon="-2.133190039294935"><ele>265.0</ele><time>2026-04-21T09:34:53.996Z</time></trkpt><trkpt lat="36.97609665335196" lon="-2.1332270368203177"><ele>266.0</ele><time>2026-04-21T09:34:54.996Z</time></trkpt><trkpt lat="36.97622572057321" lon="-2.1332587165540917"><ele>267.0</ele><time>2026-04-21T09:34:55.996Z</time></trkpt><trkpt lat="36.97634139373312" lon="-2.1332946221717934"><ele>268.0</ele><time>2026-04-21T09:34:56.996Z</time></trkpt><trkpt lat="36.97644526823799" lon="-2.133325472550043"><ele>269.0</ele><time>2026-04-21T09:34:57.996Z</time></trkpt><trkpt lat="36.97653789326603" lon="-2.1333720899901527"><ele>269.0</ele><time>2026-04-21T09:34:58.996Z</time></trkpt><trkpt lat="36.97662938798772" lon="-2.1334360969312143"><ele>269.0</ele><time>2026-04-21T09:34:59.996Z</time></trkpt><trkpt lat="36.976725976312416" lon="-2.133521497562961"><ele>269.0</ele><time>2026-04-21T09:35:00.996Z</time></trkpt><trkpt lat="36.97682838069121" lon="-2.1336240093148713"><ele>269.0</ele><time>2026-04-21T09:35:01.996Z</time></trkpt><trkpt lat="36.976939497389196" lon="-2.1337334133880064"><ele>269.0</ele><time>2026-04-21T09:35:02.996Z</time></trkpt><trkpt lat="36.977048991300705" lon="-2.1338429893283046"><ele>269.0</ele><time>2026-04-21T09:35:03.996Z</time></trkpt><trkpt lat="36.977152897257916" lon="-2.133937365235645"><ele>269.0</ele><time>2026-04-21T09:35:04.996Z</time></trkpt><trkpt lat="36.97724489598474" lon="-2.1340355211425472"><ele>269.0</ele><time>2026-04-21T09:35:05.996Z</time></trkpt><trkpt lat="36.977319805106205" lon="-2.134152283669042"><ele>270.2</ele><time>2026-04-21T09:35:06.996Z</time></trkpt><trkpt lat="36.977396672422415" lon="-2.1342569752135914"><ele>271.4</ele><time>2026-04-21T09:35:07.996Z</time></trkpt><trkpt lat="36.97748545085021" lon="-2.134345736564239"><ele>272.6</ele><time>2026-04-21T09:35:08.996Z</time></trkpt><trkpt lat="36.97757657267157" lon="-2.1344227792218398"><ele>273.8</ele><time>2026-04-21T09:35:09.996Z</time></trkpt><trkpt lat="36.97765653044271" lon="-2.134496630520276"><ele>275.0</ele><time>2026-04-21T09:35:10.996Z</time></trkpt><trkpt lat="36.97774527919254" lon="-2.1345344672571427"><ele>275.0</ele><time>2026-04-21T09:35:11.996Z</time></trkpt><trkpt lat="36.97783738391426" lon="-2.1345606070970677"><ele>275.0</ele><time>2026-04-21T09:35:12.995Z</time></trkpt><trkpt lat="36.97793040304511" lon="-2.134578604739813"><ele>275.0</ele><time>2026-04-21T09:35:13.995Z</time></trkpt><trkpt lat="36.97802151672025" lon="-2.1346120472979346"><ele>275.0</ele><time>2026-04-21T09:35:14.995Z</time></trkpt><trkpt lat="36.978114357259386" lon="-2.1346699796449493"><ele>275.0</ele><time>2026-04-21T09:35:15.995Z</time></trkpt><trkpt lat="36.97820219873185" lon="-2.134750325168977"><ele>275.0</ele><time>2026-04-21T09:35:16.995Z</time></trkpt><trkpt lat="36.97829890541014" lon="-2.134816577554508"><ele>275.0</ele><time>2026-04-21T09:35:17.995Z</time></trkpt><trkpt lat="36.97838272347122" lon="-2.1349221582164546"><ele>275.0</ele><time>2026-04-21T09:35:18.995Z</time></trkpt><trkpt lat="36.9784792642187" lon="-2.135033242747453"><ele>275.0</ele><time>2026-04-21T09:35:19.995Z</time></trkpt><trkpt lat="36.97859139112205" lon="-2.1351397149197138"><ele>275.75</ele><time>2026-04-21T09:35:20.995Z</time></trkpt><trkpt lat="36.97870123832248" lon="-2.1352594452701443"><ele>276.5</ele><time>2026-04-21T09:35:21.995Z</time></trkpt><trkpt lat="36.97880777783103" lon="-2.135388723672772"><ele>277.25</ele><time>2026-04-21T09:35:22.995Z</time></trkpt><trkpt lat="36.97891731646823" lon="-2.1355186960248007"><ele>278.0</ele><time>2026-04-21T09:35:23.995Z</time></trkpt><trkpt lat="36.97902211373749" lon="-2.135655722871831"><ele>277.6666666666667</ele><time>2026-04-21T09:35:24.995Z</time></trkpt><trkpt lat="36.97912699512272" lon="-2.135796431566774"><ele>277.3333333333333</ele><time>2026-04-21T09:35:25.995Z</time></trkpt><trkpt lat="36.97923210830833" lon="-2.1359361715078866"><ele>277.0</ele><time>2026-04-21T09:35:26.995Z</time></trkpt><trkpt lat="36.979336123749604" lon="-2.1360797058991374"><ele>279.66666666666663</ele><time>2026-04-21T09:35:27.995Z</time></trkpt><trkpt lat="36.97945443104581" lon="-2.1362039204759866"><ele>282.3333333333333</ele><time>2026-04-21T09:35:28.995Z</time></trkpt><trkpt lat="36.97956968027378" lon="-2.1363314840625915"><ele>285.0</ele><time>2026-04-21T09:35:29.995Z</time></trkpt><trkpt lat="36.979699749836776" lon="-2.1364460915643915"><ele>284.75</ele><time>2026-04-21T09:35:30.995Z</time></trkpt><trkpt lat="36.97982407676978" lon="-2.136557884324948"><ele>284.5</ele><time>2026-04-21T09:35:31.995Z</time></trkpt><trkpt lat="36.97993892745395" lon="-2.1366485403565005"><ele>284.25</ele><time>2026-04-21T09:35:32.995Z</time></trkpt><trkpt lat="36.98003494022096" lon="-2.136744420967588"><ele>284.0</ele><time>2026-04-21T09:35:33.995Z</time></trkpt><trkpt lat="36.980138650644435" lon="-2.136830775164468"><ele>285.25</ele><time>2026-04-21T09:35:34.995Z</time></trkpt><trkpt lat="36.98024407973796" lon="-2.136930504545317"><ele>286.5</ele><time>2026-04-21T09:35:35.995Z</time></trkpt><trkpt lat="36.98032953805269" lon="-2.137063094492432"><ele>287.75</ele><time>2026-04-21T09:35:36.995Z</time></trkpt><trkpt lat="36.98040496069714" lon="-2.1372003519387346"><ele>289.0</ele><time>2026-04-21T09:35:37.995Z</time></trkpt><trkpt lat="36.98048720527505" lon="-2.13732106687608"><ele>289.0</ele><time>2026-04-21T09:35:38.995Z</time></trkpt><trkpt lat="36.98057052000274" lon="-2.137435971753297"><ele>289.0</ele><time>2026-04-21T09:35:39.995Z</time></trkpt><trkpt lat="36.98066049436293" lon="-2.137545198697558"><ele>289.0</ele><time>2026-04-21T09:35:40.995Z</time></trkpt><trkpt lat="36.98074609450732" lon="-2.137668223748257"><ele>289.0</ele><time>2026-04-21T09:35:41.995Z</time></trkpt><trkpt lat="36.98086734717895" lon="-2.1377457544117475"><ele>288.75</ele><time>2026-04-21T09:35:42.995Z</time></trkpt><trkpt lat="36.980955047372724" lon="-2.137875177020979"><ele>288.5</ele><time>2026-04-21T09:35:43.995Z</time></trkpt><trkpt lat="36.98103912251184" lon="-2.1380227047844027"><ele>288.25</ele><time>2026-04-21T09:35:44.995Z</time></trkpt><trkpt lat="36.98110041939818" lon="-2.138173283035118"><ele>288.0</ele><time>2026-04-21T09:35:45.995Z</time></trkpt><trkpt lat="36.98116958136258" lon="-2.138303469271208"><ele>289.0</ele><time>2026-04-21T09:35:46.995Z</time></trkpt><trkpt lat="36.981242080635084" lon="-2.1384366437517377"><ele>290.0</ele><time>2026-04-21T09:35:47.995Z</time></trkpt><trkpt lat="36.981318446895116" lon="-2.1385667800041914"><ele>291.0</ele><time>2026-04-21T09:35:49Z</time></trkpt><trkpt lat="36.98137852065237" lon="-2.138701902010576"><ele>292.0</ele><time>2026-04-21T09:35:50Z</time></trkpt><trkpt lat="36.98140915852731" lon="-2.138842369436362"><ele>292.0</ele><time>2026-04-21T09:35:51Z</time></trkpt><trkpt lat="36.98143243403508" lon="-2.138975298010042"><ele>292.0</ele><time>2026-04-21T09:35:52Z</time></trkpt><trkpt lat="36.98145666713809" lon="-2.1391224692868698"><ele>292.0</ele><time>2026-04-21T09:35:53Z</time></trkpt><trkpt lat="36.98151095786344" lon="-2.139272208506324"><ele>292.0</ele><time>2026-04-21T09:35:54Z</time></trkpt><trkpt lat="36.98156820291952" lon="-2.1394188738120503"><ele>293.0</ele><time>2026-04-21T09:35:55Z</time></trkpt><trkpt lat="36.98162321817259" lon="-2.139564633423237"><ele>294.0</ele><time>2026-04-21T09:35:56Z</time></trkpt><trkpt lat="36.9817036842864" lon="-2.139685253576293"><ele>295.0</ele><time>2026-04-21T09:35:57Z</time></trkpt><trkpt lat="36.98177092731649" lon="-2.139821212783193"><ele>296.0</ele><time>2026-04-21T09:35:58Z</time></trkpt><trkpt lat="36.98184886329581" lon="-2.1399333148266764"><ele>299.5</ele><time>2026-04-21T09:35:59Z</time></trkpt><trkpt lat="36.981928492476655" lon="-2.1400655264902118"><ele>303.0</ele><time>2026-04-21T09:36:00Z</time></trkpt><trkpt lat="36.98198510654171" lon="-2.1402132525526483"><ele>306.5</ele><time>2026-04-21T09:36:01Z</time></trkpt><trkpt lat="36.98203381455638" lon="-2.140363668476797"><ele>310.0</ele><time>2026-04-21T09:36:02Z</time></trkpt><trkpt lat="36.982096505325586" lon="-2.140524792760927"><ele>310.0</ele><time>2026-04-21T09:36:03Z</time></trkpt><trkpt lat="36.98214432864154" lon="-2.1406674115054782"><ele>310.0</ele><time>2026-04-21T09:36:04Z</time></trkpt><trkpt lat="36.98217729403555" lon="-2.14079785552362"><ele>310.0</ele><time>2026-04-21T09:36:05Z</time></trkpt><trkpt lat="36.982228622566346" lon="-2.1409167408524077"><ele>310.0</ele><time>2026-04-21T09:36:06Z</time></trkpt><trkpt lat="36.98228774833026" lon="-2.1410293579914383"><ele>310.0</ele><time>2026-04-21T09:36:07Z</time></trkpt><trkpt lat="36.98236485199643" lon="-2.1411340463694257"><ele>309.6</ele><time>2026-04-21T09:36:08Z</time></trkpt><trkpt lat="36.98243896368183" lon="-2.1412200632630047"><ele>309.2</ele><time>2026-04-21T09:36:09Z</time></trkpt><trkpt lat="36.98251965835581" lon="-2.1413121804987"><ele>308.8</ele><time>2026-04-21T09:36:10Z</time></trkpt><trkpt lat="36.982611286848496" lon="-2.141404642018284"><ele>308.4</ele><time>2026-04-21T09:36:11Z</time></trkpt><trkpt lat="36.98269481543734" lon="-2.1414844678000833"><ele>308.0</ele><time>2026-04-21T09:36:12Z</time></trkpt><trkpt lat="36.982774284735164" lon="-2.141543883979725"><ele>307.33333333333337</ele><time>2026-04-21T09:36:13Z</time></trkpt><trkpt lat="36.98282072161864" lon="-2.1416097462794763"><ele>306.6666666666667</ele><time>2026-04-21T09:36:14Z</time></trkpt><trkpt lat="36.98287760871555" lon="-2.1416450191180183"><ele>306.0</ele><time>2026-04-21T09:36:15Z</time></trkpt><trkpt lat="36.98293773858168" lon="-2.1416694889459085"><ele>305.3333333333333</ele><time>2026-04-21T09:36:16Z</time></trkpt><trkpt lat="36.98304473527732" lon="-2.141703207824748"><ele>304.66666666666663</ele><time>2026-04-21T09:36:18Z</time></trkpt><trkpt lat="36.98313849784974" lon="-2.1416783250622635"><ele>304.0</ele><time>2026-04-21T09:36:20Z</time></trkpt><trkpt lat="36.983246825776774" lon="-2.141692454322822"><ele>304.0</ele><time>2026-04-21T09:36:22Z</time></trkpt><trkpt lat="36.98331783492203" lon="-2.141649221956009"><ele>304.0</ele><time>2026-04-21T09:36:23Z</time></trkpt><trkpt lat="36.983383662014596" lon="-2.141641458563715"><ele>304.0</ele><time>2026-04-21T09:36:24Z</time></trkpt><trkpt lat="36.98345093834377" lon="-2.1416306977961472"><ele>304.0</ele><time>2026-04-21T09:36:25Z</time></trkpt><trkpt lat="36.98351786605389" lon="-2.141617397726041"><ele>304.0</ele><time>2026-04-21T09:36:26Z</time></trkpt><trkpt lat="36.98360887308641" lon="-2.141596589500029"><ele>304.0</ele><time>2026-04-21T09:36:28Z</time></trkpt><trkpt lat="36.98368882373487" lon="-2.141586160702549"><ele>304.8</ele><time>2026-04-21T09:36:31Z</time></trkpt><trkpt lat="36.98376981433119" lon="-2.141590612670816"><ele>305.59999999999997</ele><time>2026-04-21T09:36:33Z</time></trkpt><trkpt lat="36.98387615900565" lon="-2.1416122854999866"><ele>306.4</ele><time>2026-04-21T09:36:35Z</time></trkpt><trkpt lat="36.98394471634145" lon="-2.141631405666513"><ele>307.2</ele><time>2026-04-21T09:36:39Z</time></trkpt><trkpt lat="36.98399672869985" lon="-2.141682200230487"><ele>308.0</ele><time>2026-04-21T09:36:42.999Z</time></trkpt><trkpt lat="36.98385387652824" lon="-2.1416344972998442"><ele>308.0</ele><time>2026-04-21T09:36:48.999Z</time></trkpt><trkpt lat="36.98377237498215" lon="-2.141626778601571"><ele>308.0</ele><time>2026-04-21T09:36:49.999Z</time></trkpt><trkpt lat="36.98369382658716" lon="-2.1416307303660775"><ele>308.0</ele><time>2026-04-21T09:36:50.999Z</time></trkpt><trkpt lat="36.983616253788895" lon="-2.1416318382798343"><ele>308.0</ele><time>2026-04-21T09:36:51.999Z</time></trkpt><trkpt lat="36.983545699098286" lon="-2.141615338496772"><ele>308.0</ele><time>2026-04-21T09:36:52.999Z</time></trkpt><trkpt lat="36.983487320708385" lon="-2.1416516282123843"><ele>308.0</ele><time>2026-04-21T09:36:53.999Z</time></trkpt><trkpt lat="36.98338259039698" lon="-2.1416902714173274"><ele>307.2</ele><time>2026-04-21T09:36:55.999Z</time></trkpt><trkpt lat="36.9832726899396" lon="-2.141720350702961"><ele>306.4</ele><time>2026-04-21T09:36:57.999Z</time></trkpt><trkpt lat="36.9831688822001" lon="-2.1417204730816275"><ele>305.59999999999997</ele><time>2026-04-21T09:36:59.999Z</time></trkpt><trkpt lat="36.98307172584354" lon="-2.141699427338279"><ele>304.8</ele><time>2026-04-21T09:37:01.999Z</time></trkpt><trkpt lat="36.98300258158865" lon="-2.141666575064715"><ele>304.0</ele><time>2026-04-21T09:37:04.999Z</time></trkpt><trkpt lat="36.982937951353236" lon="-2.141733920799777"><ele>304.0</ele><time>2026-04-21T09:37:08.999Z</time></trkpt><trkpt lat="36.982951271776656" lon="-2.141886574594016"><ele>304.0</ele><time>2026-04-21T09:37:10.999Z</time></trkpt><trkpt lat="36.98301747040735" lon="-2.1420164302681135"><ele>304.0</ele><time>2026-04-21T09:37:12.999Z</time></trkpt><trkpt lat="36.9830693551258" lon="-2.14213453723547"><ele>304.0</ele><time>2026-04-21T09:37:14.999Z</time></trkpt><trkpt lat="36.983107578017034" lon="-2.1422596576293484"><ele>304.0</ele><time>2026-04-21T09:37:16.999Z</time></trkpt><trkpt lat="36.98318596995098" lon="-2.142345038529915"><ele>304.0</ele><time>2026-04-21T09:37:18.999Z</time></trkpt><trkpt lat="36.98327387191104" lon="-2.1424059279049095"><ele>304.0</ele><time>2026-04-21T09:37:20.999Z</time></trkpt><trkpt lat="36.98334390632782" lon="-2.1424761077717314"><ele>304.0</ele><time>2026-04-21T09:37:23.999Z</time></trkpt><trkpt lat="36.983437024979324" lon="-2.1425346828009157"><ele>304.0</ele><time>2026-04-21T09:37:26.999Z</time></trkpt><trkpt lat="36.98348038667265" lon="-2.142625764199395"><ele>304.3333333333333</ele><time>2026-04-21T09:37:28.999Z</time></trkpt><trkpt lat="36.98355388657999" lon="-2.1426959855729497"><ele>304.66666666666663</ele><time>2026-04-21T09:37:30.999Z</time></trkpt><trkpt lat="36.98361572766739" lon="-2.14274678156234"><ele>305.0</ele><time>2026-04-21T09:37:32.999Z</time></trkpt><trkpt lat="36.983678205374176" lon="-2.142794336678243"><ele>305.3333333333333</ele><time>2026-04-21T09:37:35.999Z</time></trkpt><trkpt lat="36.98375612564378" lon="-2.1428454796889933"><ele>305.6666666666667</ele><time>2026-04-21T09:38:04.999Z</time></trkpt><trkpt lat="36.983815648848186" lon="-2.1428875027926884"><ele>306.0</ele><time>2026-04-21T09:38:05.999Z</time></trkpt><trkpt lat="36.98390140148585" lon="-2.1429911055564506"><ele>306.0</ele><time>2026-04-21T09:38:07.999Z</time></trkpt><trkpt lat="36.983978714722156" lon="-2.143103889098492"><ele>306.0</ele><time>2026-04-21T09:38:09.999Z</time></trkpt><trkpt lat="36.98404316532893" lon="-2.14322512187541"><ele>306.0</ele><time>2026-04-21T09:38:11.998Z</time></trkpt><trkpt lat="36.98410723121428" lon="-2.143339941974558"><ele>306.0</ele><time>2026-04-21T09:38:13.998Z</time></trkpt><trkpt lat="36.98419304605205" lon="-2.143430461878437"><ele>306.6</ele><time>2026-04-21T09:38:15.998Z</time></trkpt><trkpt lat="36.984250773402444" lon="-2.143489630931467"><ele>307.20000000000005</ele><time>2026-04-21T09:38:17.998Z</time></trkpt><trkpt lat="36.984326168930906" lon="-2.143542733140244"><ele>307.79999999999995</ele><time>2026-04-21T09:38:21.998Z</time></trkpt><trkpt lat="36.98438653237425" lon="-2.143642373945155"><ele>308.4</ele><time>2026-04-21T09:38:24.998Z</time></trkpt><trkpt lat="36.98445535090471" lon="-2.1437319861086808"><ele>309.0</ele><time>2026-04-21T09:38:26.998Z</time></trkpt><trkpt lat="36.984537156698615" lon="-2.1437977215524926"><ele>309.0</ele><time>2026-04-21T09:38:28.998Z</time></trkpt><trkpt lat="36.98463222836018" lon="-2.143860372743365"><ele>309.0</ele><time>2026-04-21T09:38:30.998Z</time></trkpt><trkpt lat="36.984740555992346" lon="-2.1439196805687355"><ele>309.0</ele><time>2026-04-21T09:38:32.998Z</time></trkpt><trkpt lat="36.98480312494204" lon="-2.1439642185568357"><ele>309.0</ele><time>2026-04-21T09:38:33.998Z</time></trkpt><trkpt lat="36.98486446278791" lon="-2.144008404213468"><ele>309.0</ele><time>2026-04-21T09:38:34.998Z</time></trkpt><trkpt lat="36.984931416350115" lon="-2.1440386550493646"><ele>309.0</ele><time>2026-04-21T09:38:35.998Z</time></trkpt><trkpt lat="36.984999987646546" lon="-2.1440660496522077"><ele>309.6666666666667</ele><time>2026-04-21T09:38:36.998Z</time></trkpt><trkpt lat="36.98506786613925" lon="-2.1440910430335127"><ele>310.3333333333333</ele><time>2026-04-21T09:38:37.998Z</time></trkpt><trkpt lat="36.985127684050006" lon="-2.1441259493965807"><ele>311.0</ele><time>2026-04-21T09:38:38.998Z</time></trkpt><trkpt lat="36.98517895163737" lon="-2.144177654906524"><ele>311.66666666666663</ele><time>2026-04-21T09:38:39.998Z</time></trkpt><trkpt lat="36.98523143111087" lon="-2.14424614858883"><ele>312.3333333333333</ele><time>2026-04-21T09:38:40.998Z</time></trkpt><trkpt lat="36.98528604243922" lon="-2.1443363750781352"><ele>313.0</ele><time>2026-04-21T09:38:41.998Z</time></trkpt><trkpt lat="36.98533711964077" lon="-2.1444283826713892"><ele>313.0</ele><time>2026-04-21T09:38:42.998Z</time></trkpt><trkpt lat="36.98537906695388" lon="-2.1445176347016424"><ele>313.0</ele><time>2026-04-21T09:38:43.998Z</time></trkpt><trkpt lat="36.98542172954614" lon="-2.1446003489498846"><ele>313.0</ele><time>2026-04-21T09:38:44.998Z</time></trkpt><trkpt lat="36.985460704741186" lon="-2.1446859231173554"><ele>313.0</ele><time>2026-04-21T09:38:45.998Z</time></trkpt><trkpt lat="36.985498783405546" lon="-2.1447708711073163"><ele>313.0</ele><time>2026-04-21T09:38:46.998Z</time></trkpt><trkpt lat="36.98553173539089" lon="-2.1448524208391553"><ele>313.0</ele><time>2026-04-21T09:38:47.998Z</time></trkpt><trkpt lat="36.98555896827969" lon="-2.144928823569206"><ele>313.5</ele><time>2026-04-21T09:38:48.998Z</time></trkpt><trkpt lat="36.98557473142753" lon="-2.145009687708321"><ele>314.0</ele><time>2026-04-21T09:38:49.998Z</time></trkpt><trkpt lat="36.98558357314839" lon="-2.1451012897119455"><ele>314.5</ele><time>2026-04-21T09:38:50.998Z</time></trkpt><trkpt lat="36.9855946902428" lon="-2.145203586146815"><ele>315.0</ele><time>2026-04-21T09:38:51.998Z</time></trkpt><trkpt lat="36.98561237668493" lon="-2.1453167230949273"><ele>315.5</ele><time>2026-04-21T09:38:52.998Z</time></trkpt><trkpt lat="36.985626050274085" lon="-2.145431955209644"><ele>316.0</ele><time>2026-04-21T09:38:53.998Z</time></trkpt><trkpt lat="36.985635101056424" lon="-2.1455483277442653"><ele>316.0</ele><time>2026-04-21T09:38:54.998Z</time></trkpt><trkpt lat="36.98564861342344" lon="-2.1456670333580012"><ele>316.0</ele><time>2026-04-21T09:38:55.998Z</time></trkpt><trkpt lat="36.98566329583727" lon="-2.1457871870795526"><ele>316.0</ele><time>2026-04-21T09:38:56.998Z</time></trkpt><trkpt lat="36.98567448314037" lon="-2.145907472965035"><ele>316.0</ele><time>2026-04-21T09:38:57.998Z</time></trkpt><trkpt lat="36.9856831681197" lon="-2.146026251807508"><ele>316.0</ele><time>2026-04-21T09:38:58.998Z</time></trkpt><trkpt lat="36.98569378199974" lon="-2.1461389666754247"><ele>316.5</ele><time>2026-04-21T09:38:59.998Z</time></trkpt><trkpt lat="36.98569675125107" lon="-2.146238548188179"><ele>317.0</ele><time>2026-04-21T09:39:00.998Z</time></trkpt><trkpt lat="36.98569042710389" lon="-2.1463361504167553"><ele>317.5</ele><time>2026-04-21T09:39:01.998Z</time></trkpt><trkpt lat="36.98567656759688" lon="-2.1464392744340373"><ele>318.0</ele><time>2026-04-21T09:39:02.998Z</time></trkpt><trkpt lat="36.98565786675705" lon="-2.1465497161171267"><ele>318.5</ele><time>2026-04-21T09:39:03.998Z</time></trkpt><trkpt lat="36.98563506310536" lon="-2.146661051809511"><ele>319.0</ele><time>2026-04-21T09:39:04.998Z</time></trkpt><trkpt lat="36.98560715362994" lon="-2.1467603837778"><ele>319.8333333333333</ele><time>2026-04-21T09:39:05.998Z</time></trkpt><trkpt lat="36.98557765631467" lon="-2.146845195026848"><ele>320.66666666666663</ele><time>2026-04-21T09:39:06.998Z</time></trkpt><trkpt lat="36.9855350466558" lon="-2.146914852111244"><ele>321.5</ele><time>2026-04-21T09:39:07.998Z</time></trkpt><trkpt lat="36.98549310662872" lon="-2.1469832732342335"><ele>322.3333333333333</ele><time>2026-04-21T09:39:08.998Z</time></trkpt><trkpt lat="36.985444573323555" lon="-2.147050924303594"><ele>323.1666666666667</ele><time>2026-04-21T09:39:09.998Z</time></trkpt><trkpt lat="36.985395517418766" lon="-2.1471376585996436"><ele>324.0</ele><time>2026-04-21T09:39:10.998Z</time></trkpt><trkpt lat="36.9853382690537" lon="-2.1472258531686768"><ele>324.0</ele><time>2026-04-21T09:39:11.998Z</time></trkpt><trkpt lat="36.98528268808155" lon="-2.1473202432396827"><ele>324.0</ele><time>2026-04-21T09:39:12.998Z</time></trkpt><trkpt lat="36.98523399832034" lon="-2.1474255933218283"><ele>324.0</ele><time>2026-04-21T09:39:13.998Z</time></trkpt><trkpt lat="36.9851794212248" lon="-2.1475296275027116"><ele>324.0</ele><time>2026-04-21T09:39:14.998Z</time></trkpt><trkpt lat="36.985131185227026" lon="-2.147624611375426"><ele>324.0</ele><time>2026-04-21T09:39:15.998Z</time></trkpt><trkpt lat="36.98508240596622" lon="-2.1477116666512672"><ele>324.3333333333333</ele><time>2026-04-21T09:39:16.998Z</time></trkpt><trkpt lat="36.98502087047597" lon="-2.147781665666041"><ele>324.6666666666667</ele><time>2026-04-21T09:39:17.998Z</time></trkpt><trkpt lat="36.984949907322545" lon="-2.147842780166734"><ele>325.0</ele><time>2026-04-21T09:39:18.998Z</time></trkpt><trkpt lat="36.98488011149029" lon="-2.147899855563655"><ele>325.33333333333337</ele><time>2026-04-21T09:39:19.998Z</time></trkpt><trkpt lat="36.98481574959659" lon="-2.147968470560153"><ele>325.6666666666667</ele><time>2026-04-21T09:39:20.998Z</time></trkpt><trkpt lat="36.98478010623589" lon="-2.148060321420758"><ele>326.0</ele><time>2026-04-21T09:39:21.998Z</time></trkpt><trkpt lat="36.98475016282103" lon="-2.148162826284084"><ele>326.20000000000005</ele><time>2026-04-21T09:39:22.998Z</time></trkpt><trkpt lat="36.98474227240435" lon="-2.1482751132148703"><ele>326.40000000000003</ele><time>2026-04-21T09:39:23.998Z</time></trkpt><trkpt lat="36.98474316073995" lon="-2.148393636382008"><ele>326.6</ele><time>2026-04-21T09:39:24.998Z</time></trkpt><trkpt lat="36.984745143687746" lon="-2.148514795868626"><ele>326.8</ele><time>2026-04-21T09:39:25.998Z</time></trkpt><trkpt lat="36.984747489170644" lon="-2.148630504229919"><ele>327.0</ele><time>2026-04-21T09:39:26.998Z</time></trkpt><trkpt lat="36.98473699089784" lon="-2.148745844823871"><ele>327.0</ele><time>2026-04-21T09:39:27.998Z</time></trkpt><trkpt lat="36.984724240170216" lon="-2.1488664249678164"><ele>327.0</ele><time>2026-04-21T09:39:28.998Z</time></trkpt><trkpt lat="36.98470607529939" lon="-2.1489989758148242"><ele>327.0</ele><time>2026-04-21T09:39:29.998Z</time></trkpt><trkpt lat="36.98467811901084" lon="-2.1491372696636892"><ele>327.0</ele><time>2026-04-21T09:39:30.998Z</time></trkpt><trkpt lat="36.984647856073046" lon="-2.149276546057791"><ele>327.0</ele><time>2026-04-21T09:39:31.998Z</time></trkpt><trkpt lat="36.9846178301566" lon="-2.1494140297820166"><ele>327.0</ele><time>2026-04-21T09:39:32.998Z</time></trkpt><trkpt lat="36.98458442039776" lon="-2.149545769387605"><ele>327.0</ele><time>2026-04-21T09:39:33.998Z</time></trkpt><trkpt lat="36.984565453920375" lon="-2.149669547319101"><ele>327.0</ele><time>2026-04-21T09:39:34.998Z</time></trkpt><trkpt lat="36.984552151644515" lon="-2.1497875676423988"><ele>327.0</ele><time>2026-04-21T09:39:35.998Z</time></trkpt><trkpt lat="36.98452426873571" lon="-2.149898921253598"><ele>327.0</ele><time>2026-04-21T09:39:36.998Z</time></trkpt><trkpt lat="36.984473937401624" lon="-2.1499929071849553"><ele>327.8</ele><time>2026-04-21T09:39:37.998Z</time></trkpt><trkpt lat="36.984421961727364" lon="-2.1500988270723678"><ele>328.6</ele><time>2026-04-21T09:39:38.998Z</time></trkpt><trkpt lat="36.98435205829326" lon="-2.1501971191487383"><ele>329.40000000000003</ele><time>2026-04-21T09:39:39.998Z</time></trkpt><trkpt lat="36.98428060600393" lon="-2.1502984633442828"><ele>330.20000000000005</ele><time>2026-04-21T09:39:40.998Z</time></trkpt><trkpt lat="36.984218399713285" lon="-2.150416981804405"><ele>331.0</ele><time>2026-04-21T09:39:41.997Z</time></trkpt><trkpt lat="36.984161489235696" lon="-2.150539473629716"><ele>331.8</ele><time>2026-04-21T09:39:42.997Z</time></trkpt><trkpt lat="36.98410890661621" lon="-2.1506612138655825"><ele>332.6</ele><time>2026-04-21T09:39:43.997Z</time></trkpt><trkpt lat="36.98405597243595" lon="-2.1507829795118276"><ele>333.4</ele><time>2026-04-21T09:39:44.997Z</time></trkpt><trkpt lat="36.98400727371888" lon="-2.1509113435981506"><ele>334.2</ele><time>2026-04-21T09:39:45.997Z</time></trkpt><trkpt lat="36.983964999177324" lon="-2.1510434488788928"><ele>335.0</ele><time>2026-04-21T09:39:46.997Z</time></trkpt><trkpt lat="36.983940918698366" lon="-2.1511854757393927"><ele>335.0</ele><time>2026-04-21T09:39:47.997Z</time></trkpt><trkpt lat="36.98392399854595" lon="-2.1513397120234408"><ele>335.0</ele><time>2026-04-21T09:39:48.997Z</time></trkpt><trkpt lat="36.983903094649826" lon="-2.1515019915753806"><ele>335.0</ele><time>2026-04-21T09:39:49.997Z</time></trkpt><trkpt lat="36.98388311816121" lon="-2.151666265167057"><ele>335.0</ele><time>2026-04-21T09:39:50.997Z</time></trkpt><trkpt lat="36.983867411280706" lon="-2.151830696606021"><ele>335.5</ele><time>2026-04-21T09:39:51.997Z</time></trkpt><trkpt lat="36.983850646991264" lon="-2.151996300367486"><ele>336.0</ele><time>2026-04-21T09:39:52.997Z</time></trkpt><trkpt lat="36.98383549336862" lon="-2.1521627030549184"><ele>336.5</ele><time>2026-04-21T09:39:53.997Z</time></trkpt><trkpt lat="36.9838181990719" lon="-2.1523239608064193"><ele>337.0</ele><time>2026-04-21T09:39:54.997Z</time></trkpt><trkpt lat="36.98379480595759" lon="-2.1524806005570625"><ele>338.25</ele><time>2026-04-21T09:39:55.997Z</time></trkpt><trkpt lat="36.98377192237536" lon="-2.152647049378742"><ele>339.5</ele><time>2026-04-21T09:39:56.997Z</time></trkpt><trkpt lat="36.98374959191209" lon="-2.152818237314958"><ele>340.75</ele><time>2026-04-21T09:39:57.997Z</time></trkpt><trkpt lat="36.98373597174804" lon="-2.1529811984849303"><ele>342.0</ele><time>2026-04-21T09:39:58.997Z</time></trkpt><trkpt lat="36.98372548871627" lon="-2.153127229587803"><ele>342.40000000000003</ele><time>2026-04-21T09:39:59.997Z</time></trkpt><trkpt lat="36.98371472611583" lon="-2.1532568155817278"><ele>342.8</ele><time>2026-04-21T09:40:00.997Z</time></trkpt><trkpt lat="36.98369960826253" lon="-2.1533824754594835"><ele>343.2</ele><time>2026-04-21T09:40:01.997Z</time></trkpt><trkpt lat="36.98369473469876" lon="-2.1535126349709497"><ele>343.6</ele><time>2026-04-21T09:40:02.997Z</time></trkpt><trkpt lat="36.98368317054421" lon="-2.1536389638376936"><ele>344.0</ele><time>2026-04-21T09:40:03.997Z</time></trkpt><trkpt lat="36.98366137088354" lon="-2.153771089362755"><ele>344.0</ele><time>2026-04-21T09:40:04.997Z</time></trkpt><trkpt lat="36.983623689220614" lon="-2.153905779346805"><ele>344.0</ele><time>2026-04-21T09:40:05.997Z</time></trkpt><trkpt lat="36.98358761026701" lon="-2.154039367000027"><ele>344.0</ele><time>2026-04-21T09:40:06.997Z</time></trkpt><trkpt lat="36.98355862692929" lon="-2.1541683049048244"><ele>344.0</ele><time>2026-04-21T09:40:07.997Z</time></trkpt><trkpt lat="36.98355299845926" lon="-2.1542846830686018"><ele>344.0</ele><time>2026-04-21T09:40:08.997Z</time></trkpt><trkpt lat="36.98355029037756" lon="-2.154395558382275"><ele>344.75</ele><time>2026-04-21T09:40:09.997Z</time></trkpt><trkpt lat="36.9835544262729" lon="-2.154525797660774"><ele>345.5</ele><time>2026-04-21T09:40:10.997Z</time></trkpt><trkpt lat="36.98356888470037" lon="-2.1546781419524765"><ele>346.25</ele><time>2026-04-21T09:40:11.997Z</time></trkpt><trkpt lat="36.98358683648048" lon="-2.1548325768136425"><ele>347.0</ele><time>2026-04-21T09:40:12.997Z</time></trkpt><trkpt lat="36.98358807608081" lon="-2.1549821604107406"><ele>347.5</ele><time>2026-04-21T09:40:13.997Z</time></trkpt><trkpt lat="36.98358750087038" lon="-2.1551322058573086"><ele>348.0</ele><time>2026-04-21T09:40:14.997Z</time></trkpt><trkpt lat="36.98358989861104" lon="-2.155281790111453"><ele>348.5</ele><time>2026-04-21T09:40:15.997Z</time></trkpt><trkpt lat="36.98359153188502" lon="-2.1554253897827316"><ele>349.0</ele><time>2026-04-21T09:40:16.997Z</time></trkpt><trkpt lat="36.98359459896008" lon="-2.1555623286894288"><ele>349.0</ele><time>2026-04-21T09:40:17.997Z</time></trkpt><trkpt lat="36.98360355549203" lon="-2.155697461098077"><ele>349.0</ele><time>2026-04-21T09:40:18.997Z</time></trkpt><trkpt lat="36.98361550671095" lon="-2.1558306381641206"><ele>349.0</ele><time>2026-04-21T09:40:19.997Z</time></trkpt><trkpt lat="36.983630918915125" lon="-2.1559531312863225"><ele>349.0</ele><time>2026-04-21T09:40:20.997Z</time></trkpt><trkpt lat="36.983661307216096" lon="-2.1560600296788537"><ele>349.0</ele><time>2026-04-21T09:40:21.997Z</time></trkpt><trkpt lat="36.983703564064264" lon="-2.156164597244164"><ele>349.6</ele><time>2026-04-21T09:40:22.997Z</time></trkpt><trkpt lat="36.983770633988975" lon="-2.1562630192214747"><ele>350.2</ele><time>2026-04-21T09:40:23.997Z</time></trkpt><trkpt lat="36.98384053136529" lon="-2.1563680988484606"><ele>350.8</ele><time>2026-04-21T09:40:24.997Z</time></trkpt><trkpt lat="36.98391128938514" lon="-2.1564755870072503"><ele>351.40000000000003</ele><time>2026-04-21T09:40:25.997Z</time></trkpt><trkpt lat="36.98398162446299" lon="-2.156583469396581"><ele>352.0</ele><time>2026-04-21T09:40:26.997Z</time></trkpt><trkpt lat="36.984049002982296" lon="-2.156693022693148"><ele>353.20000000000005</ele><time>2026-04-21T09:40:27.997Z</time></trkpt><trkpt lat="36.9841150932497" lon="-2.156811615568353"><ele>354.4</ele><time>2026-04-21T09:40:28.997Z</time></trkpt><trkpt lat="36.98417356660277" lon="-2.156940324540124"><ele>355.6</ele><time>2026-04-21T09:40:29.997Z</time></trkpt><trkpt lat="36.98422596500525" lon="-2.157061910746476"><ele>356.79999999999995</ele><time>2026-04-21T09:40:30.997Z</time></trkpt><trkpt lat="36.984284273024585" lon="-2.157170868870625"><ele>358.0</ele><time>2026-04-21T09:40:31.997Z</time></trkpt><trkpt lat="36.984335009073256" lon="-2.1572775671809805"><ele>358.59999999999997</ele><time>2026-04-21T09:40:32.997Z</time></trkpt><trkpt lat="36.98438269038888" lon="-2.157387561449138"><ele>359.2</ele><time>2026-04-21T09:40:33.997Z</time></trkpt><trkpt lat="36.98441534492633" lon="-2.1575023937762"><ele>359.8</ele><time>2026-04-21T09:40:34.997Z</time></trkpt><trkpt lat="36.98443628112245" lon="-2.15761152372837"><ele>360.4</ele><time>2026-04-21T09:40:35.997Z</time></trkpt><trkpt lat="36.98444646336426" lon="-2.1577152691009016"><ele>361.0</ele><time>2026-04-21T09:40:36.997Z</time></trkpt><trkpt lat="36.98446702657706" lon="-2.15781812835071"><ele>361.0</ele><time>2026-04-21T09:40:37.997Z</time></trkpt><trkpt lat="36.98452277449923" lon="-2.1579049810706206"><ele>361.0</ele><time>2026-04-21T09:40:38.997Z</time></trkpt><trkpt lat="36.98459109084656" lon="-2.157983852100591"><ele>361.0</ele><time>2026-04-21T09:40:39.997Z</time></trkpt><trkpt lat="36.98466941094516" lon="-2.158057788568713"><ele>361.0</ele><time>2026-04-21T09:40:40.997Z</time></trkpt><trkpt lat="36.98475380419879" lon="-2.158128938028582"><ele>361.0</ele><time>2026-04-21T09:40:41.997Z</time></trkpt><trkpt lat="36.984832345985225" lon="-2.1581973486198507"><ele>360.8333333333333</ele><time>2026-04-21T09:40:42.997Z</time></trkpt><trkpt lat="36.984908212104905" lon="-2.1582683568397343"><ele>360.66666666666663</ele><time>2026-04-21T09:40:43.997Z</time></trkpt><trkpt lat="36.98498074307022" lon="-2.1583504861217064"><ele>360.5</ele><time>2026-04-21T09:40:44.997Z</time></trkpt><trkpt lat="36.98504824761785" lon="-2.1584319383644837"><ele>360.3333333333333</ele><time>2026-04-21T09:40:45.997Z</time></trkpt><trkpt lat="36.985099876780765" lon="-2.1585157351257678"><ele>360.1666666666667</ele><time>2026-04-21T09:40:46.997Z</time></trkpt><trkpt lat="36.98512521651444" lon="-2.158604268876614"><ele>360.0</ele><time>2026-04-21T09:40:47.997Z</time></trkpt><trkpt lat="36.985131110931164" lon="-2.158701650657786"><ele>361.0</ele><time>2026-04-21T09:40:48.997Z</time></trkpt><trkpt lat="36.98511880479941" lon="-2.15880933808608"><ele>362.0</ele><time>2026-04-21T09:40:49.997Z</time></trkpt><trkpt lat="36.985117495921926" lon="-2.1589271999594866"><ele>363.0</ele><time>2026-04-21T09:40:50.997Z</time></trkpt><trkpt lat="36.98513421731878" lon="-2.159052741891499"><ele>364.0</ele><time>2026-04-21T09:40:51.997Z</time></trkpt><trkpt lat="36.98516588590197" lon="-2.1591806867614194"><ele>365.0</ele><time>2026-04-21T09:40:52.997Z</time></trkpt><trkpt lat="36.98520930400487" lon="-2.159306861587059"><ele>365.0</ele><time>2026-04-21T09:40:53.997Z</time></trkpt><trkpt lat="36.98526421715306" lon="-2.1594261589413755"><ele>365.0</ele><time>2026-04-21T09:40:54.997Z</time></trkpt><trkpt lat="36.98533736976653" lon="-2.159535507897189"><ele>365.0</ele><time>2026-04-21T09:40:55.997Z</time></trkpt><trkpt lat="36.98542063768673" lon="-2.159640472882058"><ele>365.0</ele><time>2026-04-21T09:40:56.997Z</time></trkpt><trkpt lat="36.98550668019503" lon="-2.159738135838577"><ele>365.0</ele><time>2026-04-21T09:40:57.997Z</time></trkpt><trkpt lat="36.98558341567215" lon="-2.159830925185067"><ele>365.0</ele><time>2026-04-21T09:40:58.997Z</time></trkpt><trkpt lat="36.985648042689355" lon="-2.1599271610159683"><ele>365.0</ele><time>2026-04-21T09:40:59.997Z</time></trkpt><trkpt lat="36.9857028475776" lon="-2.160027966799697"><ele>365.0</ele><time>2026-04-21T09:41:00.997Z</time></trkpt><trkpt lat="36.98572378535287" lon="-2.1601557518397567"><ele>365.0</ele><time>2026-04-21T09:41:01.997Z</time></trkpt><trkpt lat="36.985737115588215" lon="-2.1602839080668548"><ele>365.1666666666667</ele><time>2026-04-21T09:41:02.997Z</time></trkpt><trkpt lat="36.985757541204016" lon="-2.1603991680964825"><ele>365.33333333333337</ele><time>2026-04-21T09:41:03.997Z</time></trkpt><trkpt lat="36.98577198728073" lon="-2.160497315722396"><ele>365.5</ele><time>2026-04-21T09:41:04.997Z</time></trkpt><trkpt lat="36.98578080434105" lon="-2.1605810926202778"><ele>365.6666666666667</ele><time>2026-04-21T09:41:05.997Z</time></trkpt><trkpt lat="36.985784050555424" lon="-2.1607362979718636"><ele>365.8333333333333</ele><time>2026-04-21T09:41:07.997Z</time></trkpt><trkpt lat="36.98577386006151" lon="-2.160816628359512"><ele>366.0</ele><time>2026-04-21T09:41:08.997Z</time></trkpt><trkpt lat="36.985763206446144" lon="-2.1608944419842"><ele>366.42857142857144</ele><time>2026-04-21T09:41:09.997Z</time></trkpt><trkpt lat="36.985759104297614" lon="-2.1609790129302735"><ele>366.8571428571429</ele><time>2026-04-21T09:41:10.997Z</time></trkpt><trkpt lat="36.98575944414576" lon="-2.161071995645987"><ele>367.2857142857143</ele><time>2026-04-21T09:41:11.996Z</time></trkpt><trkpt lat="36.985772152832" lon="-2.161164755905615"><ele>367.7142857142857</ele><time>2026-04-21T09:41:12.996Z</time></trkpt><trkpt lat="36.9857983903987" lon="-2.161247722362677"><ele>368.1428571428571</ele><time>2026-04-21T09:41:13.996Z</time></trkpt><trkpt lat="36.98583974186739" lon="-2.1613199954137507"><ele>368.57142857142856</ele><time>2026-04-21T09:41:14.996Z</time></trkpt><trkpt lat="36.98588928755938" lon="-2.1613801721672465"><ele>369.0</ele><time>2026-04-21T09:41:15.996Z</time></trkpt><trkpt lat="36.985931210852804" lon="-2.161440787158931"><ele>369.42857142857144</ele><time>2026-04-21T09:41:16.996Z</time></trkpt><trkpt lat="36.98597092740935" lon="-2.161504700262311"><ele>369.85714285714283</ele><time>2026-04-21T09:41:17.996Z</time></trkpt><trkpt lat="36.98601305074608" lon="-2.1615784365076145"><ele>370.28571428571433</ele><time>2026-04-21T09:41:18.996Z</time></trkpt><trkpt lat="36.98605305237704" lon="-2.161664127168025"><ele>370.7142857142857</ele><time>2026-04-21T09:41:19.996Z</time></trkpt><trkpt lat="36.98609184617382" lon="-2.1617448232653054"><ele>371.14285714285717</ele><time>2026-04-21T09:41:20.996Z</time></trkpt><trkpt lat="36.98612023272814" lon="-2.1618200535888406"><ele>371.5714285714286</ele><time>2026-04-21T09:41:21.996Z</time></trkpt><trkpt lat="36.986146409601844" lon="-2.161898338479865"><ele>372.0</ele><time>2026-04-21T09:41:22.996Z</time></trkpt><trkpt lat="36.986157879074256" lon="-2.161983869647806"><ele>372.3333333333333</ele><time>2026-04-21T09:41:23.996Z</time></trkpt><trkpt lat="36.98615123004476" lon="-2.1620702280294375"><ele>372.6666666666667</ele><time>2026-04-21T09:41:24.996Z</time></trkpt><trkpt lat="36.986139168048695" lon="-2.162162373028791"><ele>373.0</ele><time>2026-04-21T09:41:25.996Z</time></trkpt><trkpt lat="36.986123078727246" lon="-2.162267764041245"><ele>373.33333333333337</ele><time>2026-04-21T09:41:26.996Z</time></trkpt><trkpt lat="36.98610574147615" lon="-2.1623815953514054"><ele>373.6666666666667</ele><time>2026-04-21T09:41:27.996Z</time></trkpt><trkpt lat="36.98608931844653" lon="-2.1624957352953778"><ele>374.0</ele><time>2026-04-21T09:41:28.996Z</time></trkpt><trkpt lat="36.98606206907787" lon="-2.1625950671516745"><ele>374.4</ele><time>2026-04-21T09:41:29.996Z</time></trkpt><trkpt lat="36.9860201650758" lon="-2.1626845950050986"><ele>374.79999999999995</ele><time>2026-04-21T09:41:30.996Z</time></trkpt><trkpt lat="36.98596418811623" lon="-2.162769521315932"><ele>375.20000000000005</ele><time>2026-04-21T09:41:31.996Z</time></trkpt><trkpt lat="36.985892549955494" lon="-2.1628498818795094"><ele>375.6</ele><time>2026-04-21T09:41:32.996Z</time></trkpt><trkpt lat="36.98582104141113" lon="-2.162937446276784"><ele>376.0</ele><time>2026-04-21T09:41:33.996Z</time></trkpt><trkpt lat="36.98573098307954" lon="-2.1630288900455303"><ele>373.5</ele><time>2026-04-21T09:41:34.996Z</time></trkpt><trkpt lat="36.98563488410637" lon="-2.163130549889763"><ele>371.0</ele><time>2026-04-21T09:41:35.996Z</time></trkpt><trkpt lat="36.98554441240119" lon="-2.1632411937789393"><ele>368.5</ele><time>2026-04-21T09:41:36.996Z</time></trkpt><trkpt lat="36.98546464573732" lon="-2.1633514622668666"><ele>366.0</ele><time>2026-04-21T09:41:37.996Z</time></trkpt><trkpt lat="36.98539330980369" lon="-2.1634627787723275"><ele>366.0</ele><time>2026-04-21T09:41:38.996Z</time></trkpt><trkpt lat="36.98531031338065" lon="-2.1635654936347697"><ele>366.0</ele><time>2026-04-21T09:41:39.996Z</time></trkpt><trkpt lat="36.985222437403685" lon="-2.1636703927678846"><ele>366.0</ele><time>2026-04-21T09:41:40.996Z</time></trkpt><trkpt lat="36.98513170903814" lon="-2.1637782626727975"><ele>366.0</ele><time>2026-04-21T09:41:41.996Z</time></trkpt><trkpt lat="36.98504120728778" lon="-2.1638989742275037"><ele>366.25</ele><time>2026-04-21T09:41:42.996Z</time></trkpt><trkpt lat="36.98495100287375" lon="-2.16401984299529"><ele>366.5</ele><time>2026-04-21T09:41:43.996Z</time></trkpt><trkpt lat="36.98486088500989" lon="-2.1641470248922943"><ele>366.75</ele><time>2026-04-21T09:41:44.996Z</time></trkpt><trkpt lat="36.98478212147833" lon="-2.164283152917025"><ele>367.0</ele><time>2026-04-21T09:41:45.996Z</time></trkpt><trkpt lat="36.98471549587621" lon="-2.1644240024342167"><ele>367.0</ele><time>2026-04-21T09:41:46.996Z</time></trkpt><trkpt lat="36.98464380476694" lon="-2.1645532838982797"><ele>367.0</ele><time>2026-04-21T09:41:47.996Z</time></trkpt><trkpt lat="36.98456655749958" lon="-2.164679188188918"><ele>367.0</ele><time>2026-04-21T09:41:48.996Z</time></trkpt><trkpt lat="36.98448816535641" lon="-2.1647993561749175"><ele>367.0</ele><time>2026-04-21T09:41:49.996Z</time></trkpt><trkpt lat="36.984411403321324" lon="-2.1649167419479123"><ele>367.0</ele><time>2026-04-21T09:41:50.996Z</time></trkpt><trkpt lat="36.98433896580254" lon="-2.16503547165456"><ele>367.0</ele><time>2026-04-21T09:41:51.996Z</time></trkpt><trkpt lat="36.98426323225729" lon="-2.1651567827677547"><ele>367.0</ele><time>2026-04-21T09:41:52.996Z</time></trkpt><trkpt lat="36.98418251450705" lon="-2.165285786705519"><ele>367.0</ele><time>2026-04-21T09:41:53.996Z</time></trkpt><trkpt lat="36.9840912618047" lon="-2.165411223082442"><ele>367.0</ele><time>2026-04-21T09:41:54.996Z</time></trkpt><trkpt lat="36.98399889253987" lon="-2.165528719810114"><ele>367.0</ele><time>2026-04-21T09:41:55.996Z</time></trkpt><trkpt lat="36.98390635065052" lon="-2.1656445399207045"><ele>367.0</ele><time>2026-04-21T09:41:56.996Z</time></trkpt><trkpt lat="36.98380719956157" lon="-2.165763225112439"><ele>367.0</ele><time>2026-04-21T09:41:57.996Z</time></trkpt><trkpt lat="36.98370668576668" lon="-2.1658832115927193"><ele>367.75</ele><time>2026-04-21T09:41:58.996Z</time></trkpt><trkpt lat="36.983613915202504" lon="-2.165996951933408"><ele>368.5</ele><time>2026-04-21T09:41:59.996Z</time></trkpt><trkpt lat="36.98352777168084" lon="-2.166100174014926"><ele>369.25</ele><time>2026-04-21T09:42:00.996Z</time></trkpt><trkpt lat="36.98344448523676" lon="-2.1662047738167534"><ele>370.0</ele><time>2026-04-21T09:42:01.996Z</time></trkpt><trkpt lat="36.983368322772264" lon="-2.1663119909637527"><ele>370.8</ele><time>2026-04-21T09:42:02.996Z</time></trkpt><trkpt lat="36.9833110128307" lon="-2.166418737059533"><ele>371.6</ele><time>2026-04-21T09:42:03.996Z</time></trkpt><trkpt lat="36.983276686505306" lon="-2.166522527588575"><ele>372.4</ele><time>2026-04-21T09:42:04.996Z</time></trkpt><trkpt lat="36.983256813730044" lon="-2.1666341455150153"><ele>373.2</ele><time>2026-04-21T09:42:05.996Z</time></trkpt><trkpt lat="36.98324602880586" lon="-2.166760095288431"><ele>374.0</ele><time>2026-04-21T09:42:06.996Z</time></trkpt><trkpt lat="36.98324745685857" lon="-2.166902560086618"><ele>374.0</ele><time>2026-04-21T09:42:07.996Z</time></trkpt><trkpt lat="36.98324945373618" lon="-2.1670491248908417"><ele>374.0</ele><time>2026-04-21T09:42:08.996Z</time></trkpt><trkpt lat="36.98325305554789" lon="-2.1671908354490874"><ele>374.0</ele><time>2026-04-21T09:42:09.996Z</time></trkpt><trkpt lat="36.98325575044309" lon="-2.167329880449618"><ele>374.0</ele><time>2026-04-21T09:42:10.996Z</time></trkpt><trkpt lat="36.98326149856591" lon="-2.167466643852023"><ele>374.1666666666667</ele><time>2026-04-21T09:42:11.996Z</time></trkpt><trkpt lat="36.983269359444975" lon="-2.1675978941876406"><ele>374.33333333333337</ele><time>2026-04-21T09:42:12.996Z</time></trkpt><trkpt lat="36.98327572104725" lon="-2.1677185881132477"><ele>374.5</ele><time>2026-04-21T09:42:13.996Z</time></trkpt><trkpt lat="36.983284516094336" lon="-2.167827543829529"><ele>374.6666666666667</ele><time>2026-04-21T09:42:14.996Z</time></trkpt><trkpt lat="36.98329589555699" lon="-2.167926011024342"><ele>374.8333333333333</ele><time>2026-04-21T09:42:15.996Z</time></trkpt><trkpt lat="36.98331137874343" lon="-2.168019298512539"><ele>375.0</ele><time>2026-04-21T09:42:16.996Z</time></trkpt><trkpt lat="36.98331842915734" lon="-2.168120532502719"><ele>375.5</ele><time>2026-04-21T09:42:17.996Z</time></trkpt><trkpt lat="36.9833216358888" lon="-2.168229724000265"><ele>376.0</ele><time>2026-04-21T09:42:18.996Z</time></trkpt><trkpt lat="36.9833297318029" lon="-2.168339500959581"><ele>376.5</ele><time>2026-04-21T09:42:19.996Z</time></trkpt><trkpt lat="36.983335628678134" lon="-2.1684432846432613"><ele>377.0</ele><time>2026-04-21T09:42:20.996Z</time></trkpt><trkpt lat="36.983343100919846" lon="-2.168540641849485"><ele>377.5</ele><time>2026-04-21T09:42:21.996Z</time></trkpt><trkpt lat="36.98335404042783" lon="-2.168635089574846"><ele>378.0</ele><time>2026-04-21T09:42:22.996Z</time></trkpt><trkpt lat="36.983370042976745" lon="-2.1687282425232253"><ele>378.0</ele><time>2026-04-21T09:42:23.996Z</time></trkpt><trkpt lat="36.983385054674166" lon="-2.1688189855210305"><ele>378.0</ele><time>2026-04-21T09:42:24.996Z</time></trkpt><trkpt lat="36.98340202774359" lon="-2.1689094042108175"><ele>378.0</ele><time>2026-04-21T09:42:25.996Z</time></trkpt><trkpt lat="36.98341386471951" lon="-2.168999217177948"><ele>378.0</ele><time>2026-04-21T09:42:26.996Z</time></trkpt><trkpt lat="36.9834231916128" lon="-2.1690850925185265"><ele>378.0</ele><time>2026-04-21T09:42:27.996Z</time></trkpt><trkpt lat="36.98343258161945" lon="-2.169166997682979"><ele>378.0</ele><time>2026-04-21T09:42:28.996Z</time></trkpt><trkpt lat="36.98343870460315" lon="-2.1692471575635404"><ele>378.0</ele><time>2026-04-21T09:42:29.996Z</time></trkpt><trkpt lat="36.98346221436839" lon="-2.1693922966068353"><ele>378.0</ele><time>2026-04-21T09:42:31.996Z</time></trkpt><trkpt lat="36.983494723867516" lon="-2.169519332817731"><ele>378.0</ele><time>2026-04-21T09:42:33.996Z</time></trkpt><trkpt lat="36.983511018724755" lon="-2.1696045925490264"><ele>378.0</ele><time>2026-04-21T09:42:35.996Z</time></trkpt><trkpt lat="36.98348631897887" lon="-2.169677624314404"><ele>378.0</ele><time>2026-04-21T09:42:37.996Z</time></trkpt><trkpt lat="36.983383150845874" lon="-2.1697671845096216"><ele>378.0</ele><time>2026-04-21T09:42:39.996Z</time></trkpt><trkpt lat="36.98330449870886" lon="-2.169782063543114"><ele>378.0</ele><time>2026-04-21T09:42:40.996Z</time></trkpt><trkpt lat="36.9832233014634" lon="-2.169743032710714"><ele>377.79999999999995</ele><time>2026-04-21T09:42:41.995Z</time></trkpt><trkpt lat="36.98314472441132" lon="-2.1696799104616757"><ele>377.6</ele><time>2026-04-21T09:42:42.995Z</time></trkpt><trkpt lat="36.983071803014994" lon="-2.169595684280759"><ele>377.4</ele><time>2026-04-21T09:42:43.995Z</time></trkpt><trkpt lat="36.98298382114813" lon="-2.1695383386164"><ele>377.20000000000005</ele><time>2026-04-21T09:42:44.995Z</time></trkpt><trkpt lat="36.98288354119597" lon="-2.1694955524442303"><ele>377.0</ele><time>2026-04-21T09:42:45.995Z</time></trkpt><trkpt lat="36.98276385348592" lon="-2.1694761801691493"><ele>377.0</ele><time>2026-04-21T09:42:46.995Z</time></trkpt><trkpt lat="36.98262661233436" lon="-2.1694848089624323"><ele>377.0</ele><time>2026-04-21T09:42:47.995Z</time></trkpt><trkpt lat="36.98248896966767" lon="-2.1695382098965723"><ele>377.0</ele><time>2026-04-21T09:42:48.995Z</time></trkpt><trkpt lat="36.98235406129165" lon="-2.16961221890676"><ele>377.0</ele><time>2026-04-21T09:42:49.995Z</time></trkpt><trkpt lat="36.98221916976485" lon="-2.1697028530668683"><ele>377.6666666666667</ele><time>2026-04-21T09:42:50.995Z</time></trkpt><trkpt lat="36.98207727967716" lon="-2.169788119863586"><ele>378.3333333333333</ele><time>2026-04-21T09:42:51.995Z</time></trkpt><trkpt lat="36.98193042931683" lon="-2.169852217318391"><ele>379.0</ele><time>2026-04-21T09:42:52.995Z</time></trkpt><trkpt lat="36.981781495470145" lon="-2.1698852484889697"><ele>381.0</ele><time>2026-04-21T09:42:53.995Z</time></trkpt><trkpt lat="36.981632169596686" lon="-2.1699031009832614"><ele>383.0</ele><time>2026-04-21T09:42:55.001Z</time></trkpt><trkpt lat="36.9814889056463" lon="-2.169930226412133"><ele>385.0</ele><time>2026-04-21T09:42:56.001Z</time></trkpt><trkpt lat="36.98134605094814" lon="-2.169926588439027"><ele>387.0</ele><time>2026-04-21T09:42:57.001Z</time></trkpt><trkpt lat="36.98120861530085" lon="-2.169936556563612"><ele>387.0</ele><time>2026-04-21T09:42:58.001Z</time></trkpt><trkpt lat="36.98107416179277" lon="-2.169989639968725"><ele>387.0</ele><time>2026-04-21T09:42:59.001Z</time></trkpt><trkpt lat="36.98095772447016" lon="-2.170028719928153"><ele>387.0</ele><time>2026-04-21T09:43:00.001Z</time></trkpt><trkpt lat="36.98086654470491" lon="-2.170101262456743"><ele>387.0</ele><time>2026-04-21T09:43:01Z</time></trkpt><trkpt lat="36.98076388180777" lon="-2.170161050127394"><ele>387.40000000000003</ele><time>2026-04-21T09:43:02Z</time></trkpt><trkpt lat="36.98066739770082" lon="-2.170240735645308"><ele>387.8</ele><time>2026-04-21T09:43:03Z</time></trkpt><trkpt lat="36.98058465587521" lon="-2.170329918016791"><ele>388.2</ele><time>2026-04-21T09:43:04Z</time></trkpt><trkpt lat="36.98050681285775" lon="-2.170426974114004"><ele>388.6</ele><time>2026-04-21T09:43:05Z</time></trkpt><trkpt lat="36.98044125015841" lon="-2.170543702285884"><ele>389.0</ele><time>2026-04-21T09:43:06Z</time></trkpt><trkpt lat="36.980374642172144" lon="-2.1706605269591517"><ele>391.0</ele><time>2026-04-21T09:43:07Z</time></trkpt><trkpt lat="36.98031266175727" lon="-2.170756447975524"><ele>393.0</ele><time>2026-04-21T09:43:08Z</time></trkpt><trkpt lat="36.98024556222993" lon="-2.170859053217372"><ele>395.0</ele><time>2026-04-21T09:43:09Z</time></trkpt><trkpt lat="36.980206744611415" lon="-2.170968144677754"><ele>397.0</ele><time>2026-04-21T09:43:10Z</time></trkpt><trkpt lat="36.980165465019276" lon="-2.1710798026145106"><ele>399.0</ele><time>2026-04-21T09:43:11Z</time></trkpt><trkpt lat="36.980156167289266" lon="-2.171199394001659"><ele>399.0</ele><time>2026-04-21T09:43:12Z</time></trkpt><trkpt lat="36.98016571973211" lon="-2.171327862659699"><ele>399.0</ele><time>2026-04-21T09:43:13Z</time></trkpt><trkpt lat="36.98018968063975" lon="-2.1714646707252645"><ele>399.0</ele><time>2026-04-21T09:43:14Z</time></trkpt><trkpt lat="36.98021199582659" lon="-2.1716006283476563"><ele>399.0</ele><time>2026-04-21T09:43:15Z</time></trkpt><trkpt lat="36.980208237383316" lon="-2.1717429313214525"><ele>399.0</ele><time>2026-04-21T09:43:16Z</time></trkpt><trkpt lat="36.980199747777355" lon="-2.171870420912326"><ele>398.79999999999995</ele><time>2026-04-21T09:43:17Z</time></trkpt><trkpt lat="36.98018457369817" lon="-2.1720047335929205"><ele>398.59999999999997</ele><time>2026-04-21T09:43:18Z</time></trkpt><trkpt lat="36.980152726285894" lon="-2.172125132195634"><ele>398.4</ele><time>2026-04-21T09:43:19Z</time></trkpt><trkpt lat="36.98011726174461" lon="-2.1722612504105587"><ele>398.2</ele><time>2026-04-21T09:43:20Z</time></trkpt><trkpt lat="36.98007895059865" lon="-2.1723841567988282"><ele>398.0</ele><time>2026-04-21T09:43:21Z</time></trkpt><trkpt lat="36.98003399727467" lon="-2.172496286793329"><ele>398.0</ele><time>2026-04-21T09:43:22Z</time></trkpt><trkpt lat="36.979980872979965" lon="-2.1726011434692407"><ele>398.0</ele><time>2026-04-21T09:43:23Z</time></trkpt><trkpt lat="36.979889495029894" lon="-2.172666027958848"><ele>398.0</ele><time>2026-04-21T09:43:24Z</time></trkpt><trkpt lat="36.979777054816076" lon="-2.172682991495505"><ele>398.0</ele><time>2026-04-21T09:43:25Z</time></trkpt><trkpt lat="36.97967862818661" lon="-2.172671308041653"><ele>398.0</ele><time>2026-04-21T09:43:26Z</time></trkpt><trkpt lat="36.97957690321015" lon="-2.172629271069595"><ele>398.0</ele><time>2026-04-21T09:43:27Z</time></trkpt><trkpt lat="36.97947452035453" lon="-2.172595249653071"><ele>398.0</ele><time>2026-04-21T09:43:28Z</time></trkpt><trkpt lat="36.97935745828496" lon="-2.17258063921594"><ele>398.0</ele><time>2026-04-21T09:43:29Z</time></trkpt><trkpt lat="36.97925016911167" lon="-2.1725543107135974"><ele>398.0</ele><time>2026-04-21T09:43:30Z</time></trkpt><trkpt lat="36.979137131181616" lon="-2.1725650214914864"><ele>398.0</ele><time>2026-04-21T09:43:31Z</time></trkpt><trkpt lat="36.979029952211185" lon="-2.1725632286324497"><ele>400.0</ele><time>2026-04-21T09:43:32Z</time></trkpt><trkpt lat="36.97890229149368" lon="-2.17259213840901"><ele>402.0</ele><time>2026-04-21T09:43:33Z</time></trkpt><trkpt lat="36.97879799614625" lon="-2.1726857662939603"><ele>404.0</ele><time>2026-04-21T09:43:34Z</time></trkpt><trkpt lat="36.978685881203475" lon="-2.172781675728074"><ele>406.0</ele><time>2026-04-21T09:43:35Z</time></trkpt><trkpt lat="36.97855812538602" lon="-2.1728439884389967"><ele>406.0</ele><time>2026-04-21T09:43:36Z</time></trkpt><trkpt lat="36.97842586667316" lon="-2.1728820451182362"><ele>406.0</ele><time>2026-04-21T09:43:37Z</time></trkpt><trkpt lat="36.97829214005146" lon="-2.1729081359156037"><ele>406.0</ele><time>2026-04-21T09:43:38Z</time></trkpt><trkpt lat="36.97815673212683" lon="-2.1729409385933263"><ele>406.0</ele><time>2026-04-21T09:43:39Z</time></trkpt><trkpt lat="36.978027563732226" lon="-2.1729910690075105"><ele>406.4</ele><time>2026-04-21T09:43:40Z</time></trkpt><trkpt lat="36.97791642605448" lon="-2.1730659196176005"><ele>406.8</ele><time>2026-04-21T09:43:41Z</time></trkpt><trkpt lat="36.977823698634914" lon="-2.1731547502708657"><ele>407.2</ele><time>2026-04-21T09:43:42Z</time></trkpt><trkpt lat="36.97773608353905" lon="-2.173221477428317"><ele>407.59999999999997</ele><time>2026-04-21T09:43:43Z</time></trkpt><trkpt lat="36.97766167113065" lon="-2.1733052951699783"><ele>408.0</ele><time>2026-04-21T09:43:44Z</time></trkpt><trkpt lat="36.977588912464654" lon="-2.1733859098734425"><ele>410.0</ele><time>2026-04-21T09:43:45Z</time></trkpt><trkpt lat="36.977542108034854" lon="-2.1734959340349342"><ele>412.0</ele><time>2026-04-21T09:43:46Z</time></trkpt><trkpt lat="36.97750933810591" lon="-2.1735906944642016"><ele>414.0</ele><time>2026-04-21T09:43:47Z</time></trkpt><trkpt lat="36.97748393150785" lon="-2.173681852731175"><ele>416.0</ele><time>2026-04-21T09:43:48Z</time></trkpt><trkpt lat="36.97745036755181" lon="-2.173796162765823"><ele>418.0</ele><time>2026-04-21T09:43:49Z</time></trkpt><trkpt lat="36.97742568134996" lon="-2.173922788800211"><ele>418.4</ele><time>2026-04-21T09:43:50Z</time></trkpt><trkpt lat="36.97741940845664" lon="-2.1740641019953335"><ele>418.79999999999995</ele><time>2026-04-21T09:43:51Z</time></trkpt><trkpt lat="36.977426631935415" lon="-2.1742008756568594"><ele>419.2</ele><time>2026-04-21T09:43:52Z</time></trkpt><trkpt lat="36.97741710513074" lon="-2.1743349752821786"><ele>419.6</ele><time>2026-04-21T09:43:53Z</time></trkpt><trkpt lat="36.97741218028898" lon="-2.174470508816756"><ele>420.0</ele><time>2026-04-21T09:43:54Z</time></trkpt><trkpt lat="36.97743582136634" lon="-2.174589276292429"><ele>420.0</ele><time>2026-04-21T09:43:55Z</time></trkpt><trkpt lat="36.97747322986747" lon="-2.174707197676496"><ele>420.0</ele><time>2026-04-21T09:43:56Z</time></trkpt><trkpt lat="36.97748749650114" lon="-2.1748329167825604"><ele>420.0</ele><time>2026-04-21T09:43:57Z</time></trkpt><trkpt lat="36.97750364174887" lon="-2.17495548222957"><ele>420.0</ele><time>2026-04-21T09:43:58Z</time></trkpt><trkpt lat="36.9775273374904" lon="-2.175068486545733"><ele>420.0</ele><time>2026-04-21T09:43:59Z</time></trkpt><trkpt lat="36.977554695983805" lon="-2.175190063642424"><ele>418.4</ele><time>2026-04-21T09:44:00Z</time></trkpt><trkpt lat="36.977545766011865" lon="-2.175314951993835"><ele>416.8</ele><time>2026-04-21T09:44:01Z</time></trkpt><trkpt lat="36.97754198064134" lon="-2.175409916545481"><ele>415.20000000000005</ele><time>2026-04-21T09:44:02Z</time></trkpt><trkpt lat="36.97748186165607" lon="-2.175474774030453"><ele>413.6</ele><time>2026-04-21T09:44:03Z</time></trkpt><trkpt lat="36.97740899043105" lon="-2.175565611054003"><ele>412.0</ele><time>2026-04-21T09:44:04Z</time></trkpt><trkpt lat="36.97735532227004" lon="-2.1756691325649435"><ele>411.5</ele><time>2026-04-21T09:44:05Z</time></trkpt><trkpt lat="36.97728475275696" lon="-2.175787447245308"><ele>411.0</ele><time>2026-04-21T09:44:06Z</time></trkpt><trkpt lat="36.97720796563466" lon="-2.1759193459072046"><ele>410.5</ele><time>2026-04-21T09:44:07Z</time></trkpt><trkpt lat="36.97713855721534" lon="-2.1760673400634882"><ele>410.0</ele><time>2026-04-21T09:44:08Z</time></trkpt><trkpt lat="36.977030395169315" lon="-2.1761891010759618"><ele>410.0</ele><time>2026-04-21T09:44:09Z</time></trkpt><trkpt lat="36.9769083709439" lon="-2.1762743889305898"><ele>410.0</ele><time>2026-04-21T09:44:10Z</time></trkpt><trkpt lat="36.976785180906006" lon="-2.1763378053749363"><ele>410.0</ele><time>2026-04-21T09:44:11Z</time></trkpt><trkpt lat="36.97670879148068" lon="-2.176419105146838"><ele>410.0</ele><time>2026-04-21T09:44:12Z</time></trkpt><trkpt lat="36.976646467148434" lon="-2.176528235767665"><ele>408.25</ele><time>2026-04-21T09:44:13Z</time></trkpt><trkpt lat="36.97657498527594" lon="-2.176666868500866"><ele>406.5</ele><time>2026-04-21T09:44:14Z</time></trkpt><trkpt lat="36.976542415268874" lon="-2.1768124113139358"><ele>404.75</ele><time>2026-04-21T09:44:15Z</time></trkpt><trkpt lat="36.97651105973511" lon="-2.176940520644394"><ele>403.0</ele><time>2026-04-21T09:44:16Z</time></trkpt><trkpt lat="36.97645629506028" lon="-2.1770515590591963"><ele>403.0</ele><time>2026-04-21T09:44:17Z</time></trkpt><trkpt lat="36.976400229310826" lon="-2.1771590875826305"><ele>403.0</ele><time>2026-04-21T09:44:18Z</time></trkpt><trkpt lat="36.976322187066465" lon="-2.17722416928417"><ele>403.0</ele><time>2026-04-21T09:44:19Z</time></trkpt><trkpt lat="36.97624122767872" lon="-2.177290914159821"><ele>403.0</ele><time>2026-04-21T09:44:20Z</time></trkpt><trkpt lat="36.976151814965796" lon="-2.1773334348137396"><ele>403.0</ele><time>2026-04-21T09:44:21Z</time></trkpt><trkpt lat="36.97608404931446" lon="-2.1773714635822015"><ele>403.0</ele><time>2026-04-21T09:44:22Z</time></trkpt><trkpt lat="36.97597715742553" lon="-2.1773746022038356"><ele>403.0</ele><time>2026-04-21T09:44:23Z</time></trkpt><trkpt lat="36.97588273117325" lon="-2.1773199681681814"><ele>403.0</ele><time>2026-04-21T09:44:24Z</time></trkpt><trkpt lat="36.97580360766758" lon="-2.1772469100665632"><ele>403.0</ele><time>2026-04-21T09:44:25Z</time></trkpt><trkpt lat="36.97574882068658" lon="-2.1771644304625757"><ele>403.0</ele><time>2026-04-21T09:44:26Z</time></trkpt><trkpt lat="36.97568561704126" lon="-2.177112344938212"><ele>402.00000000000006</ele><time>2026-04-21T09:44:27Z</time></trkpt><trkpt lat="36.97561830132246" lon="-2.177098745076799"><ele>401.0</ele><time>2026-04-21T09:44:28Z</time></trkpt><trkpt lat="36.97553572628722" lon="-2.177110328478879"><ele>400.0</ele><time>2026-04-21T09:44:28.999Z</time></trkpt><trkpt lat="36.97546893443621" lon="-2.1771659517975737"><ele>399.0</ele><time>2026-04-21T09:44:29.999Z</time></trkpt><trkpt lat="36.97541925216498" lon="-2.177251046482571"><ele>398.00000000000006</ele><time>2026-04-21T09:44:30.999Z</time></trkpt><trkpt lat="36.975377073578805" lon="-2.177338467941827"><ele>397.0</ele><time>2026-04-21T09:44:31.999Z</time></trkpt><trkpt lat="36.97532590299206" lon="-2.1774225885332337"><ele>397.00000000000006</ele><time>2026-04-21T09:44:32.999Z</time></trkpt><trkpt lat="36.97528504360566" lon="-2.1775126368089883"><ele>397.0</ele><time>2026-04-21T09:44:33.999Z</time></trkpt><trkpt lat="36.97523227050741" lon="-2.1776088374779254"><ele>397.0</ele><time>2026-04-21T09:44:34.999Z</time></trkpt><trkpt lat="36.97519687828035" lon="-2.1776843484445885"><ele>397.0</ele><time>2026-04-21T09:44:35.999Z</time></trkpt><trkpt lat="36.97512669388674" lon="-2.1777484675895424"><ele>397.00000000000006</ele><time>2026-04-21T09:44:36.999Z</time></trkpt><trkpt lat="36.97502914584979" lon="-2.177819767483197"><ele>397.0</ele><time>2026-04-21T09:44:37.999Z</time></trkpt><trkpt lat="36.97494389945795" lon="-2.1778982858325255"><ele>394.20000000000005</ele><time>2026-04-21T09:44:38.999Z</time></trkpt><trkpt lat="36.97483628038875" lon="-2.1779590065922156"><ele>391.4</ele><time>2026-04-21T09:44:39.999Z</time></trkpt><trkpt lat="36.9747325778715" lon="-2.1780070121568635"><ele>388.6</ele><time>2026-04-21T09:44:40.999Z</time></trkpt><trkpt lat="36.97462641503871" lon="-2.1780522345181224"><ele>385.79999999999995</ele><time>2026-04-21T09:44:41.999Z</time></trkpt><trkpt lat="36.97452545881245" lon="-2.178062689152421"><ele>383.0</ele><time>2026-04-21T09:44:42.999Z</time></trkpt><trkpt lat="36.97440790503597" lon="-2.178031910205214"><ele>383.0</ele><time>2026-04-21T09:44:43.999Z</time></trkpt><trkpt lat="36.97429921456204" lon="-2.177925953269446"><ele>383.0</ele><time>2026-04-21T09:44:44.999Z</time></trkpt><trkpt lat="36.97419339733523" lon="-2.177838793659878"><ele>383.0</ele><time>2026-04-21T09:44:45.999Z</time></trkpt><trkpt lat="36.97405121572333" lon="-2.1777398043072984"><ele>383.0</ele><time>2026-04-21T09:44:46.999Z</time></trkpt><trkpt lat="36.973943850074455" lon="-2.1776329392645852"><ele>381.0</ele><time>2026-04-21T09:44:47.999Z</time></trkpt><trkpt lat="36.97379503593214" lon="-2.1775888883238146"><ele>379.0</ele><time>2026-04-21T09:44:48.999Z</time></trkpt><trkpt lat="36.97365218935752" lon="-2.1775669115114185"><ele>377.0</ele><time>2026-04-21T09:44:49.999Z</time></trkpt><trkpt lat="36.973512040966824" lon="-2.1775490851185175"><ele>375.0</ele><time>2026-04-21T09:44:50.999Z</time></trkpt><trkpt lat="36.97337498698548" lon="-2.1775168766294493"><ele>374.75</ele><time>2026-04-21T09:44:51.999Z</time></trkpt><trkpt lat="36.973230453307394" lon="-2.1774579969582586"><ele>374.5</ele><time>2026-04-21T09:44:52.999Z</time></trkpt><trkpt lat="36.97309494971645" lon="-2.177394471712491"><ele>374.25</ele><time>2026-04-21T09:44:53.999Z</time></trkpt><trkpt lat="36.9729815453898" lon="-2.1772973929771524"><ele>374.0</ele><time>2026-04-21T09:44:54.999Z</time></trkpt><trkpt lat="36.972874448420264" lon="-2.177200958254402"><ele>372.25</ele><time>2026-04-21T09:44:55.999Z</time></trkpt><trkpt lat="36.972772431851986" lon="-2.1770947490446733"><ele>370.5</ele><time>2026-04-21T09:44:56.999Z</time></trkpt><trkpt lat="36.972681525933325" lon="-2.1769970098847513"><ele>368.75</ele><time>2026-04-21T09:44:57.999Z</time></trkpt><trkpt lat="36.972593637191835" lon="-2.176905705634164"><ele>367.0</ele><time>2026-04-21T09:44:58.999Z</time></trkpt><trkpt lat="36.972533023061544" lon="-2.17680517028139"><ele>367.40000000000003</ele><time>2026-04-21T09:44:59.999Z</time></trkpt><trkpt lat="36.972461917400985" lon="-2.176723729759494"><ele>367.8</ele><time>2026-04-21T09:45:00.999Z</time></trkpt><trkpt lat="36.97239870830263" lon="-2.176647469273488"><ele>368.2</ele><time>2026-04-21T09:45:01.999Z</time></trkpt><trkpt lat="36.972330662410634" lon="-2.176584177755385"><ele>368.6</ele><time>2026-04-21T09:45:02.999Z</time></trkpt><trkpt lat="36.972246928654926" lon="-2.1765244906228203"><ele>369.0</ele><time>2026-04-21T09:45:03.999Z</time></trkpt><trkpt lat="36.97215293555102" lon="-2.1764693893126004"><ele>367.5</ele><time>2026-04-21T09:45:04.999Z</time></trkpt><trkpt lat="36.972035553269954" lon="-2.1764395391761977"><ele>366.0</ele><time>2026-04-21T09:45:05.999Z</time></trkpt><trkpt lat="36.97191146405753" lon="-2.1763908464315076"><ele>364.5</ele><time>2026-04-21T09:45:06.999Z</time></trkpt><trkpt lat="36.97179418501141" lon="-2.176337263318983"><ele>363.0</ele><time>2026-04-21T09:45:07.999Z</time></trkpt><trkpt lat="36.97169124935068" lon="-2.176304532991093"><ele>363.0</ele><time>2026-04-21T09:45:08.999Z</time></trkpt><trkpt lat="36.97157846310297" lon="-2.176263569710355"><ele>363.0</ele><time>2026-04-21T09:45:09.999Z</time></trkpt><trkpt lat="36.97147107569304" lon="-2.176250743517349"><ele>363.0</ele><time>2026-04-21T09:45:10.999Z</time></trkpt><trkpt lat="36.971349284361544" lon="-2.176268474280772"><ele>363.0</ele><time>2026-04-21T09:45:11.999Z</time></trkpt><trkpt lat="36.971229075539654" lon="-2.1763247036293656"><ele>363.0</ele><time>2026-04-21T09:45:12.999Z</time></trkpt><trkpt lat="36.97109148804837" lon="-2.1763651266611808"><ele>363.0</ele><time>2026-04-21T09:45:13.999Z</time></trkpt><trkpt lat="36.970964448534275" lon="-2.1764564996947655"><ele>363.0</ele><time>2026-04-21T09:45:14.999Z</time></trkpt><trkpt lat="36.97082049736888" lon="-2.176509809317927"><ele>363.0</ele><time>2026-04-21T09:45:15.999Z</time></trkpt><trkpt lat="36.97068496224754" lon="-2.1765770319472226"><ele>362.0</ele><time>2026-04-21T09:45:16.999Z</time></trkpt><trkpt lat="36.97054525431876" lon="-2.176624805807121"><ele>361.0</ele><time>2026-04-21T09:45:17.999Z</time></trkpt><trkpt lat="36.97039358244076" lon="-2.1766785730654243"><ele>360.0</ele><time>2026-04-21T09:45:18.999Z</time></trkpt><trkpt lat="36.970256992125336" lon="-2.1767500185251842"><ele>360.0</ele><time>2026-04-21T09:45:19.999Z</time></trkpt><trkpt lat="36.97010470921135" lon="-2.176807299900108"><ele>360.0</ele><time>2026-04-21T09:45:20.999Z</time></trkpt><trkpt lat="36.96994834623093" lon="-2.176854594846433"><ele>360.0</ele><time>2026-04-21T09:45:21.999Z</time></trkpt><trkpt lat="36.96980914293199" lon="-2.1769188326822295"><ele>357.75</ele><time>2026-04-21T09:45:22.999Z</time></trkpt><trkpt lat="36.96967123739523" lon="-2.176981552924156"><ele>355.5</ele><time>2026-04-21T09:45:23.999Z</time></trkpt><trkpt lat="36.969525303194246" lon="-2.1770101393412284"><ele>353.25</ele><time>2026-04-21T09:45:24.999Z</time></trkpt><trkpt lat="36.96937522013023" lon="-2.1770323284311517"><ele>351.0</ele><time>2026-04-21T09:45:25.999Z</time></trkpt><trkpt lat="36.96922626926837" lon="-2.1770500759051785"><ele>350.0</ele><time>2026-04-21T09:45:26.999Z</time></trkpt><trkpt lat="36.9690914904565" lon="-2.1770684618282155"><ele>349.0</ele><time>2026-04-21T09:45:27.999Z</time></trkpt><trkpt lat="36.96896226925633" lon="-2.1770846891405204"><ele>348.0</ele><time>2026-04-21T09:45:28.999Z</time></trkpt><trkpt lat="36.96884630800137" lon="-2.177101127495891"><ele>347.0</ele><time>2026-04-21T09:45:29.998Z</time></trkpt><trkpt lat="36.968729156790154" lon="-2.1771158115644833"><ele>347.0</ele><time>2026-04-21T09:45:30.998Z</time></trkpt><trkpt lat="36.968625212928195" lon="-2.1771900793702623"><ele>347.0</ele><time>2026-04-21T09:45:31.998Z</time></trkpt><trkpt lat="36.968532657971245" lon="-2.1773171495603236"><ele>347.0</ele><time>2026-04-21T09:45:32.998Z</time></trkpt><trkpt lat="36.96844015604783" lon="-2.177456577849467"><ele>347.0</ele><time>2026-04-21T09:45:33.998Z</time></trkpt><trkpt lat="36.968336016860356" lon="-2.1775705310575426"><ele>346.5</ele><time>2026-04-21T09:45:34.998Z</time></trkpt><trkpt lat="36.96824086339983" lon="-2.1776810528026607"><ele>346.0</ele><time>2026-04-21T09:45:35.998Z</time></trkpt><trkpt lat="36.968158554066534" lon="-2.1778045996158966"><ele>345.5</ele><time>2026-04-21T09:45:36.998Z</time></trkpt><trkpt lat="36.96811525977028" lon="-2.1779562024075583"><ele>345.0</ele><time>2026-04-21T09:45:37.998Z</time></trkpt><trkpt lat="36.96808432890627" lon="-2.1781196569290424"><ele>347.0</ele><time>2026-04-21T09:45:38.998Z</time></trkpt><trkpt lat="36.968032172554764" lon="-2.1782820147675825"><ele>349.0</ele><time>2026-04-21T09:45:39.998Z</time></trkpt><trkpt lat="36.96797203620341" lon="-2.1784366483886006"><ele>351.0</ele><time>2026-04-21T09:45:40.998Z</time></trkpt><trkpt lat="36.96791717265647" lon="-2.1786075854850697"><ele>353.0</ele><time>2026-04-21T09:45:41.998Z</time></trkpt><trkpt lat="36.96786112474172" lon="-2.178752398801918"><ele>353.0</ele><time>2026-04-21T09:45:42.998Z</time></trkpt><trkpt lat="36.967802251661176" lon="-2.1788933166377125"><ele>353.0</ele><time>2026-04-21T09:45:43.998Z</time></trkpt><trkpt lat="36.96772557767393" lon="-2.1790225175873075"><ele>353.0</ele><time>2026-04-21T09:45:44.998Z</time></trkpt><trkpt lat="36.967667127159075" lon="-2.179181145906856"><ele>353.0</ele><time>2026-04-21T09:45:45.998Z</time></trkpt><trkpt lat="36.967609312929085" lon="-2.179326702765411"><ele>356.0</ele><time>2026-04-21T09:45:46.998Z</time></trkpt><trkpt lat="36.96753164533489" lon="-2.179447560092886"><ele>359.0</ele><time>2026-04-21T09:45:47.998Z</time></trkpt><trkpt lat="36.967450011343445" lon="-2.179584077988622"><ele>362.0</ele><time>2026-04-21T09:45:48.998Z</time></trkpt><trkpt lat="36.96733986168717" lon="-2.179676855651269"><ele>365.0</ele><time>2026-04-21T09:45:49.998Z</time></trkpt><trkpt lat="36.967230308375946" lon="-2.179776230525832"><ele>359.5</ele><time>2026-04-21T09:45:50.998Z</time></trkpt><trkpt lat="36.96711388493811" lon="-2.1798566676885645"><ele>354.0</ele><time>2026-04-21T09:45:51.998Z</time></trkpt><trkpt lat="36.96700374686511" lon="-2.179947573178249"><ele>348.5</ele><time>2026-04-21T09:45:52.998Z</time></trkpt><trkpt lat="36.96691758293526" lon="-2.1800269571818816"><ele>343.0</ele><time>2026-04-21T09:45:53.998Z</time></trkpt><trkpt lat="36.966834329166076" lon="-2.1801222108942984"><ele>343.0</ele><time>2026-04-21T09:45:54.998Z</time></trkpt><trkpt lat="36.96676052024336" lon="-2.1802221694294506"><ele>343.0</ele><time>2026-04-21T09:45:55.998Z</time></trkpt><trkpt lat="36.96673179064973" lon="-2.1803433115360504"><ele>343.0</ele><time>2026-04-21T09:45:56.997Z</time></trkpt><trkpt lat="36.96672476750933" lon="-2.180502428677401"><ele>343.0</ele><time>2026-04-21T09:45:57.997Z</time></trkpt><trkpt lat="36.96673837575333" lon="-2.180666333748637"><ele>342.5</ele><time>2026-04-21T09:45:58.997Z</time></trkpt><trkpt lat="36.966773020702135" lon="-2.180825425739158"><ele>342.0</ele><time>2026-04-21T09:45:59.997Z</time></trkpt><trkpt lat="36.96680388451766" lon="-2.1809875308393143"><ele>341.5</ele><time>2026-04-21T09:46:00.997Z</time></trkpt><trkpt lat="36.96681632447444" lon="-2.181168998892474"><ele>341.0</ele><time>2026-04-21T09:46:01.997Z</time></trkpt><trkpt lat="36.96681812056888" lon="-2.1813506947578998"><ele>339.75</ele><time>2026-04-21T09:46:02.997Z</time></trkpt><trkpt lat="36.966817411690315" lon="-2.1815289022007884"><ele>338.5</ele><time>2026-04-21T09:46:03.997Z</time></trkpt><trkpt lat="36.966809425883994" lon="-2.1817133115643443"><ele>337.25</ele><time>2026-04-21T09:46:04.997Z</time></trkpt><trkpt lat="36.966801570084876" lon="-2.181886081491985"><ele>336.0</ele><time>2026-04-21T09:46:05.997Z</time></trkpt><trkpt lat="36.9668216955174" lon="-2.1820559555673613"><ele>336.0</ele><time>2026-04-21T09:46:06.997Z</time></trkpt><trkpt lat="36.9668242909348" lon="-2.1822405519550503"><ele>336.0</ele><time>2026-04-21T09:46:07.997Z</time></trkpt><trkpt lat="36.96682492950197" lon="-2.182425064479674"><ele>336.0</ele><time>2026-04-21T09:46:08.997Z</time></trkpt><trkpt lat="36.96682719194272" lon="-2.182607460796387"><ele>336.0</ele><time>2026-04-21T09:46:09.997Z</time></trkpt><trkpt lat="36.966859634795874" lon="-2.1827809480028386"><ele>340.3333333333333</ele><time>2026-04-21T09:46:10.997Z</time></trkpt><trkpt lat="36.966905382626955" lon="-2.1829608658488913"><ele>344.66666666666663</ele><time>2026-04-21T09:46:11.997Z</time></trkpt><trkpt lat="36.96697258690254" lon="-2.183125564510546"><ele>349.0</ele><time>2026-04-21T09:46:12.997Z</time></trkpt><trkpt lat="36.967015495891786" lon="-2.1833157481988024"><ele>351.0</ele><time>2026-04-21T09:46:13.997Z</time></trkpt><trkpt lat="36.96703426944916" lon="-2.1835008898959543"><ele>353.0</ele><time>2026-04-21T09:46:14.997Z</time></trkpt><trkpt lat="36.96706199234041" lon="-2.183683899394173"><ele>355.0</ele><time>2026-04-21T09:46:15.997Z</time></trkpt><trkpt lat="36.96708614234464" lon="-2.183858809716777"><ele>357.0</ele><time>2026-04-21T09:46:16.997Z</time></trkpt><trkpt lat="36.96710846339812" lon="-2.1840373782218165"><ele>357.0</ele><time>2026-04-21T09:46:17.997Z</time></trkpt><trkpt lat="36.967132989869214" lon="-2.1842281573875337"><ele>357.0</ele><time>2026-04-21T09:46:18.997Z</time></trkpt><trkpt lat="36.967157758759456" lon="-2.184409882598233"><ele>357.0</ele><time>2026-04-21T09:46:19.997Z</time></trkpt><trkpt lat="36.96714539016371" lon="-2.184592018714005"><ele>357.0</ele><time>2026-04-21T09:46:20.997Z</time></trkpt><trkpt lat="36.96717876648267" lon="-2.1847551352143406"><ele>355.3333333333333</ele><time>2026-04-21T09:46:21.997Z</time></trkpt><trkpt lat="36.96717375190975" lon="-2.184929581861918"><ele>353.66666666666663</ele><time>2026-04-21T09:46:22.997Z</time></trkpt><trkpt lat="36.96714879107633" lon="-2.185112286910263"><ele>352.0</ele><time>2026-04-21T09:46:23.997Z</time></trkpt><trkpt lat="36.967119102118254" lon="-2.185316210537508"><ele>352.0</ele><time>2026-04-21T09:46:24.997Z</time></trkpt><trkpt lat="36.96706118068303" lon="-2.185510432219065"><ele>352.0</ele><time>2026-04-21T09:46:25.997Z</time></trkpt><trkpt lat="36.967005335586435" lon="-2.1856962143737464"><ele>352.0</ele><time>2026-04-21T09:46:26.997Z</time></trkpt><trkpt lat="36.966965233878675" lon="-2.185887440251521"><ele>352.3333333333333</ele><time>2026-04-21T09:46:27.997Z</time></trkpt><trkpt lat="36.96690856801715" lon="-2.1860877420059612"><ele>352.6666666666667</ele><time>2026-04-21T09:46:28.997Z</time></trkpt><trkpt lat="36.966866007870976" lon="-2.186279754810428"><ele>353.0</ele><time>2026-04-21T09:46:29.997Z</time></trkpt><trkpt lat="36.96682347468428" lon="-2.1864778929846573"><ele>353.33333333333337</ele><time>2026-04-21T09:46:30.997Z</time></trkpt><trkpt lat="36.96677409346278" lon="-2.186677329933676"><ele>353.6666666666667</ele><time>2026-04-21T09:46:31.997Z</time></trkpt><trkpt lat="36.966730886625704" lon="-2.1868674090301408"><ele>354.0</ele><time>2026-04-21T09:46:32.997Z</time></trkpt><trkpt lat="36.96670171033007" lon="-2.1870551599990598"><ele>353.0</ele><time>2026-04-21T09:46:33.997Z</time></trkpt><trkpt lat="36.96665979766949" lon="-2.1872265880735537"><ele>352.0</ele><time>2026-04-21T09:46:34.997Z</time></trkpt><trkpt lat="36.96662158597696" lon="-2.1873848008903236"><ele>351.0</ele><time>2026-04-21T09:46:35.997Z</time></trkpt><trkpt lat="36.96654859037803" lon="-2.187580552743237"><ele>350.0</ele><time>2026-04-21T09:46:36.997Z</time></trkpt><trkpt lat="36.96654566274046" lon="-2.1877525525145485"><ele>349.33333333333337</ele><time>2026-04-21T09:46:37.997Z</time></trkpt><trkpt lat="36.966527960229016" lon="-2.187941902585247"><ele>348.6666666666667</ele><time>2026-04-21T09:46:38.997Z</time></trkpt><trkpt lat="36.966510983088" lon="-2.1881361374300354"><ele>348.0</ele><time>2026-04-21T09:46:39.997Z</time></trkpt><trkpt lat="36.96648421048447" lon="-2.188319765497748"><ele>346.75</ele><time>2026-04-21T09:46:40.997Z</time></trkpt><trkpt lat="36.9664663558422" lon="-2.188511610400308"><ele>345.5</ele><time>2026-04-21T09:46:41.997Z</time></trkpt><trkpt lat="36.96645864744185" lon="-2.188697025983099"><ele>344.25</ele><time>2026-04-21T09:46:42.997Z</time></trkpt><trkpt lat="36.966470310978195" lon="-2.1888791802130925"><ele>343.0</ele><time>2026-04-21T09:46:43.997Z</time></trkpt><trkpt lat="36.96646238439019" lon="-2.1890609966180805"><ele>342.5</ele><time>2026-04-21T09:46:44.997Z</time></trkpt><trkpt lat="36.96644985630635" lon="-2.1892328035311253"><ele>342.0</ele><time>2026-04-21T09:46:45.997Z</time></trkpt><trkpt lat="36.96643489969996" lon="-2.1894183629524306"><ele>341.5</ele><time>2026-04-21T09:46:46.997Z</time></trkpt><trkpt lat="36.96642035601434" lon="-2.1896049319074544"><ele>341.0</ele><time>2026-04-21T09:46:47.997Z</time></trkpt><trkpt lat="36.96640198139911" lon="-2.1897898803523392"><ele>340.25</ele><time>2026-04-21T09:46:48.997Z</time></trkpt><trkpt lat="36.966390121581334" lon="-2.189963782602059"><ele>339.5</ele><time>2026-04-21T09:46:49.997Z</time></trkpt><trkpt lat="36.966390409507326" lon="-2.190129241445485"><ele>338.75</ele><time>2026-04-21T09:46:50.997Z</time></trkpt><trkpt lat="36.96636834025259" lon="-2.1902739437563277"><ele>338.0</ele><time>2026-04-21T09:46:51.997Z</time></trkpt><trkpt lat="36.96634466171779" lon="-2.190431905680496"><ele>338.0</ele><time>2026-04-21T09:46:52.997Z</time></trkpt><trkpt lat="36.966334003773255" lon="-2.1905994825753"><ele>338.0</ele><time>2026-04-21T09:46:53.997Z</time></trkpt><trkpt lat="36.96633664076355" lon="-2.1907684228500695"><ele>338.0</ele><time>2026-04-21T09:46:54.997Z</time></trkpt><trkpt lat="36.966324400729896" lon="-2.1909286126984835"><ele>338.0</ele><time>2026-04-21T09:46:55.997Z</time></trkpt><trkpt lat="36.9663170183986" lon="-2.191089966514474"><ele>338.0</ele><time>2026-04-21T09:46:56.997Z</time></trkpt><trkpt lat="36.9663066183669" lon="-2.1912611968402422"><ele>338.0</ele><time>2026-04-21T09:46:57.997Z</time></trkpt><trkpt lat="36.96628896756677" lon="-2.191439800130496"><ele>338.0</ele><time>2026-04-21T09:46:58.997Z</time></trkpt><trkpt lat="36.966268207858754" lon="-2.1916133129658157"><ele>338.0</ele><time>2026-04-21T09:46:59.997Z</time></trkpt><trkpt lat="36.96626566435015" lon="-2.19178412558109"><ele>336.5</ele><time>2026-04-21T09:47:00.997Z</time></trkpt><trkpt lat="36.9662507405468" lon="-2.191941283194516"><ele>335.0</ele><time>2026-04-21T09:47:01.997Z</time></trkpt><trkpt lat="36.96621213127247" lon="-2.1921034004457995"><ele>333.5</ele><time>2026-04-21T09:47:02.997Z</time></trkpt><trkpt lat="36.96617444658691" lon="-2.1922619166664963"><ele>332.0</ele><time>2026-04-21T09:47:03.997Z</time></trkpt><trkpt lat="36.96611961263952" lon="-2.1924070596186556"><ele>330.5</ele><time>2026-04-21T09:47:04.997Z</time></trkpt><trkpt lat="36.966063381756754" lon="-2.1925585663187253"><ele>329.0</ele><time>2026-04-21T09:47:05.997Z</time></trkpt><trkpt lat="36.96602137951058" lon="-2.1927447937032363"><ele>327.5</ele><time>2026-04-21T09:47:06.997Z</time></trkpt><trkpt lat="36.96597266263755" lon="-2.192900789749206"><ele>326.0</ele><time>2026-04-21T09:47:07.997Z</time></trkpt><trkpt lat="36.965978711988875" lon="-2.1930349318687625"><ele>326.0</ele><time>2026-04-21T09:47:08.997Z</time></trkpt><trkpt lat="36.96603876660873" lon="-2.1931673186604708"><ele>326.0</ele><time>2026-04-21T09:47:09.997Z</time></trkpt><trkpt lat="36.966090583661384" lon="-2.1932950651071006"><ele>326.0</ele><time>2026-04-21T09:47:10.997Z</time></trkpt><trkpt lat="36.96612203856509" lon="-2.1934411818134913"><ele>326.0</ele><time>2026-04-21T09:47:11.997Z</time></trkpt><trkpt lat="36.96612485281379" lon="-2.193601831805133"><ele>327.6666666666667</ele><time>2026-04-21T09:47:12.997Z</time></trkpt><trkpt lat="36.96609693397315" lon="-2.1937857539151535"><ele>329.3333333333333</ele><time>2026-04-21T09:47:13.997Z</time></trkpt><trkpt lat="36.96603479320791" lon="-2.193976364461521"><ele>331.0</ele><time>2026-04-21T09:47:14.997Z</time></trkpt><trkpt lat="36.966005065739026" lon="-2.1941732987060174"><ele>333.25</ele><time>2026-04-21T09:47:15.997Z</time></trkpt><trkpt lat="36.9660028490399" lon="-2.1943432489587575"><ele>335.5</ele><time>2026-04-21T09:47:16.997Z</time></trkpt><trkpt lat="36.96600392966074" lon="-2.1945208856285516"><ele>337.75</ele><time>2026-04-21T09:47:17.997Z</time></trkpt><trkpt lat="36.96603450762488" lon="-2.194660508023012"><ele>340.0</ele><time>2026-04-21T09:47:18.997Z</time></trkpt><trkpt lat="36.966026249627575" lon="-2.1947963664872643"><ele>341.25</ele><time>2026-04-21T09:47:19.997Z</time></trkpt><trkpt lat="36.96601957533182" lon="-2.1949475946387347"><ele>342.5</ele><time>2026-04-21T09:47:20.997Z</time></trkpt><trkpt lat="36.966037291367435" lon="-2.195098665813137"><ele>343.75</ele><time>2026-04-21T09:47:21.997Z</time></trkpt><trkpt lat="36.96603345365056" lon="-2.195259194246431"><ele>345.0</ele><time>2026-04-21T09:47:22.997Z</time></trkpt><trkpt lat="36.96604122648727" lon="-2.195418071242641"><ele>345.0</ele><time>2026-04-21T09:47:23.996Z</time></trkpt><trkpt lat="36.96607074937661" lon="-2.1955854965365895"><ele>345.0</ele><time>2026-04-21T09:47:24.996Z</time></trkpt><trkpt lat="36.96608331709885" lon="-2.1957755689715195"><ele>345.0</ele><time>2026-04-21T09:47:25.996Z</time></trkpt><trkpt lat="36.96607034243995" lon="-2.1959570626013134"><ele>345.0</ele><time>2026-04-21T09:47:26.996Z</time></trkpt><trkpt lat="36.966057286038385" lon="-2.196129471774151"><ele>344.5</ele><time>2026-04-21T09:47:27.996Z</time></trkpt><trkpt lat="36.96606457464835" lon="-2.196285802401445"><ele>344.0</ele><time>2026-04-21T09:47:28.996Z</time></trkpt><trkpt lat="36.96608531279874" lon="-2.1964370106035296"><ele>343.5</ele><time>2026-04-21T09:47:29.996Z</time></trkpt><trkpt lat="36.96611303490465" lon="-2.19659617135307"><ele>343.0</ele><time>2026-04-21T09:47:30.996Z</time></trkpt><trkpt lat="36.966166661849485" lon="-2.1967507049193515"><ele>343.0</ele><time>2026-04-21T09:47:31.996Z</time></trkpt><trkpt lat="36.96629243719689" lon="-2.1968605930755136"><ele>343.0</ele><time>2026-04-21T09:47:32.996Z</time></trkpt><trkpt lat="36.96638317534182" lon="-2.197003991167677"><ele>343.0</ele><time>2026-04-21T09:47:33.996Z</time></trkpt><trkpt lat="36.9664557794248" lon="-2.1971571903067915"><ele>343.0</ele><time>2026-04-21T09:47:34.996Z</time></trkpt><trkpt lat="36.96652551160688" lon="-2.1973056912276467"><ele>341.0</ele><time>2026-04-21T09:47:35.996Z</time></trkpt><trkpt lat="36.966587095554665" lon="-2.1974657344783384"><ele>339.0</ele><time>2026-04-21T09:47:36.996Z</time></trkpt><trkpt lat="36.96665286738402" lon="-2.1976008893753773"><ele>337.0</ele><time>2026-04-21T09:47:37.996Z</time></trkpt><trkpt lat="36.96670817919141" lon="-2.1977296890101377"><ele>335.0</ele><time>2026-04-21T09:47:38.996Z</time></trkpt><trkpt lat="36.96678238971506" lon="-2.1978179171367502"><ele>336.33333333333337</ele><time>2026-04-21T09:47:39.996Z</time></trkpt><trkpt lat="36.96687086915334" lon="-2.1978719639844964"><ele>337.6666666666667</ele><time>2026-04-21T09:47:40.996Z</time></trkpt><trkpt lat="36.966965581125386" lon="-2.197866849020337"><ele>339.0</ele><time>2026-04-21T09:47:41.996Z</time></trkpt><trkpt lat="36.96704403515598" lon="-2.1978822780459115"><ele>340.3333333333333</ele><time>2026-04-21T09:47:42.996Z</time></trkpt><trkpt lat="36.96710605785916" lon="-2.197947793117239"><ele>341.66666666666663</ele><time>2026-04-21T09:47:43.996Z</time></trkpt><trkpt lat="36.96714787674186" lon="-2.19805184856378"><ele>343.0</ele><time>2026-04-21T09:47:44.996Z</time></trkpt><trkpt lat="36.96714269906771" lon="-2.1982110445431076"><ele>343.0</ele><time>2026-04-21T09:47:45.996Z</time></trkpt><trkpt lat="36.967141346910864" lon="-2.198395620957228"><ele>343.0</ele><time>2026-04-21T09:47:46.996Z</time></trkpt><trkpt lat="36.96714179124579" lon="-2.1985771779286294"><ele>343.0</ele><time>2026-04-21T09:47:47.996Z</time></trkpt><trkpt lat="36.967133994687345" lon="-2.1987639427860386"><ele>343.0</ele><time>2026-04-21T09:47:48.996Z</time></trkpt><trkpt lat="36.96714843323505" lon="-2.1989442620178585"><ele>344.0</ele><time>2026-04-21T09:47:49.996Z</time></trkpt><trkpt lat="36.967157194577084" lon="-2.1991104917642974"><ele>345.0</ele><time>2026-04-21T09:47:50.996Z</time></trkpt><trkpt lat="36.967150943537284" lon="-2.1992785332433877"><ele>346.0</ele><time>2026-04-21T09:47:51.996Z</time></trkpt><trkpt lat="36.96719559212616" lon="-2.1994293325987435"><ele>347.0</ele><time>2026-04-21T09:47:52.996Z</time></trkpt><trkpt lat="36.967181107596915" lon="-2.1995937957899225"><ele>347.0</ele><time>2026-04-21T09:47:53.996Z</time></trkpt><trkpt lat="36.967186744003506" lon="-2.1997526088536103"><ele>347.0</ele><time>2026-04-21T09:47:54.996Z</time></trkpt><trkpt lat="36.96718185942219" lon="-2.1999029373147847"><ele>347.0</ele><time>2026-04-21T09:47:55.996Z</time></trkpt><trkpt lat="36.967217255496614" lon="-2.2000296192390243"><ele>347.0</ele><time>2026-04-21T09:47:56.996Z</time></trkpt><trkpt lat="36.967263658765724" lon="-2.200140307957828"><ele>347.1666666666667</ele><time>2026-04-21T09:47:57.996Z</time></trkpt><trkpt lat="36.96731858727278" lon="-2.200231646445752"><ele>347.33333333333337</ele><time>2026-04-21T09:47:58.996Z</time></trkpt><trkpt lat="36.96734312139536" lon="-2.200325852512796"><ele>347.5</ele><time>2026-04-21T09:47:59.996Z</time></trkpt><trkpt lat="36.967321073707595" lon="-2.200413206393411"><ele>347.6666666666667</ele><time>2026-04-21T09:48:00.996Z</time></trkpt><trkpt lat="36.9672847408786" lon="-2.2005022265049363"><ele>347.8333333333333</ele><time>2026-04-21T09:48:01.996Z</time></trkpt><trkpt lat="36.96720739228506" lon="-2.2005549684468146"><ele>348.0</ele><time>2026-04-21T09:48:02.996Z</time></trkpt><trkpt lat="36.967100444547604" lon="-2.2005969225026107"><ele>348.0</ele><time>2026-04-21T09:48:03.996Z</time></trkpt><trkpt lat="36.96697315743343" lon="-2.200653542443917"><ele>348.0</ele><time>2026-04-21T09:48:04.996Z</time></trkpt><trkpt lat="36.96684722202991" lon="-2.200700749952678"><ele>348.0</ele><time>2026-04-21T09:48:05.996Z</time></trkpt><trkpt lat="36.966725201144094" lon="-2.200752840864555"><ele>348.0</ele><time>2026-04-21T09:48:06.996Z</time></trkpt><trkpt lat="36.96660613592404" lon="-2.2007912007145145"><ele>346.2</ele><time>2026-04-21T09:48:07.996Z</time></trkpt><trkpt lat="36.9664873704139" lon="-2.20080698386866"><ele>344.4</ele><time>2026-04-21T09:48:08.996Z</time></trkpt><trkpt lat="36.966375303410324" lon="-2.200837120405055"><ele>342.59999999999997</ele><time>2026-04-21T09:48:09.996Z</time></trkpt><trkpt lat="36.966276199095084" lon="-2.200893289815887"><ele>340.79999999999995</ele><time>2026-04-21T09:48:10.996Z</time></trkpt><trkpt lat="36.966211968627924" lon="-2.2009769797212897"><ele>339.0</ele><time>2026-04-21T09:48:11.996Z</time></trkpt><trkpt lat="36.96612547425519" lon="-2.201083255846467"><ele>339.0</ele><time>2026-04-21T09:48:12.996Z</time></trkpt><trkpt lat="36.966040634432915" lon="-2.2011758852598184"><ele>339.0</ele><time>2026-04-21T09:48:13.996Z</time></trkpt><trkpt lat="36.96593234812625" lon="-2.20121836384151"><ele>339.0</ele><time>2026-04-21T09:48:14.996Z</time></trkpt><trkpt lat="36.965829407198" lon="-2.201284877874125"><ele>339.0</ele><time>2026-04-21T09:48:15.996Z</time></trkpt><trkpt lat="36.96572944352333" lon="-2.2012977629975605"><ele>339.0</ele><time>2026-04-21T09:48:16.996Z</time></trkpt><trkpt lat="36.965623968068385" lon="-2.201257989630786"><ele>336.75</ele><time>2026-04-21T09:48:17.996Z</time></trkpt><trkpt lat="36.96551291376315" lon="-2.2012041867772396"><ele>334.5</ele><time>2026-04-21T09:48:18.996Z</time></trkpt><trkpt lat="36.96539550959512" lon="-2.2011597059925943"><ele>332.25</ele><time>2026-04-21T09:48:19.996Z</time></trkpt><trkpt lat="36.96528113995632" lon="-2.201090331513929"><ele>330.0</ele><time>2026-04-21T09:48:20.996Z</time></trkpt><trkpt lat="36.965177026759925" lon="-2.2010451168632263"><ele>330.0</ele><time>2026-04-21T09:48:21.996Z</time></trkpt><trkpt lat="36.96507798255873" lon="-2.201009760388481"><ele>330.0</ele><time>2026-04-21T09:48:22.996Z</time></trkpt><trkpt lat="36.964985468184125" lon="-2.2009726260887854"><ele>330.0</ele><time>2026-04-21T09:48:23.996Z</time></trkpt><trkpt lat="36.96489122516432" lon="-2.20093021623231"><ele>330.0</ele><time>2026-04-21T09:48:24.996Z</time></trkpt><trkpt lat="36.96479105302139" lon="-2.2009404816145666"><ele>330.0</ele><time>2026-04-21T09:48:25.996Z</time></trkpt><trkpt lat="36.96470907066182" lon="-2.201004059373975"><ele>330.0</ele><time>2026-04-21T09:48:26.996Z</time></trkpt><trkpt lat="36.964609764542814" lon="-2.2010900500440798"><ele>330.0</ele><time>2026-04-21T09:48:27.996Z</time></trkpt><trkpt lat="36.96448794227042" lon="-2.201171136385842"><ele>330.0</ele><time>2026-04-21T09:48:28.996Z</time></trkpt><trkpt lat="36.96436563102249" lon="-2.2012486882638176"><ele>330.0</ele><time>2026-04-21T09:48:29.996Z</time></trkpt><trkpt lat="36.96424713981389" lon="-2.2013187692665457"><ele>329.75</ele><time>2026-04-21T09:48:30.996Z</time></trkpt><trkpt lat="36.964126646561496" lon="-2.2013826511051593"><ele>329.5</ele><time>2026-04-21T09:48:31.996Z</time></trkpt><trkpt lat="36.96402506826627" lon="-2.2014543893145775"><ele>329.25</ele><time>2026-04-21T09:48:32.996Z</time></trkpt><trkpt lat="36.963941849318594" lon="-2.2015316257515187"><ele>329.0</ele><time>2026-04-21T09:48:33.996Z</time></trkpt><trkpt lat="36.963879371603326" lon="-2.201638050902877"><ele>329.6</ele><time>2026-04-21T09:48:34.996Z</time></trkpt><trkpt lat="36.96381706394251" lon="-2.201758056164839"><ele>330.2</ele><time>2026-04-21T09:48:35.996Z</time></trkpt><trkpt lat="36.96376318164888" lon="-2.2018940547895998"><ele>330.8</ele><time>2026-04-21T09:48:36.996Z</time></trkpt><trkpt lat="36.96374246033406" lon="-2.202018143211516"><ele>331.40000000000003</ele><time>2026-04-21T09:48:37.996Z</time></trkpt><trkpt lat="36.96373928178971" lon="-2.202129871943993"><ele>332.0</ele><time>2026-04-21T09:48:38.996Z</time></trkpt><trkpt lat="36.9637690398711" lon="-2.202231557214708"><ele>332.0</ele><time>2026-04-21T09:48:39.996Z</time></trkpt><trkpt lat="36.963839430677695" lon="-2.202306819121347"><ele>332.0</ele><time>2026-04-21T09:48:40.996Z</time></trkpt><trkpt lat="36.96393298559402" lon="-2.202366210764882"><ele>332.0</ele><time>2026-04-21T09:48:41.996Z</time></trkpt><trkpt lat="36.96403749474216" lon="-2.202433630489665"><ele>332.0</ele><time>2026-04-21T09:48:42.996Z</time></trkpt><trkpt lat="36.96414159943269" lon="-2.202498235517625"><ele>332.0</ele><time>2026-04-21T09:48:43.996Z</time></trkpt><trkpt lat="36.96424606078156" lon="-2.202552098066636"><ele>332.0</ele><time>2026-04-21T09:48:44.996Z</time></trkpt><trkpt lat="36.96436867745355" lon="-2.2025948528418495"><ele>332.0</ele><time>2026-04-21T09:48:45.996Z</time></trkpt><trkpt lat="36.96447969292376" lon="-2.2026427828890665"><ele>332.0</ele><time>2026-04-21T09:48:46.996Z</time></trkpt><trkpt lat="36.964578683356436" lon="-2.2027001534105666"><ele>332.0</ele><time>2026-04-21T09:48:47.996Z</time></trkpt><trkpt lat="36.96466176184097" lon="-2.2027495489563313"><ele>332.0</ele><time>2026-04-21T09:48:48.996Z</time></trkpt><trkpt lat="36.96473741607191" lon="-2.202804648120804"><ele>332.0</ele><time>2026-04-21T09:48:49.996Z</time></trkpt><trkpt lat="36.96479483235254" lon="-2.2028745219187273"><ele>332.0</ele><time>2026-04-21T09:48:50.996Z</time></trkpt><trkpt lat="36.96483454229604" lon="-2.202952144479247"><ele>332.0</ele><time>2026-04-21T09:48:51.995Z</time></trkpt><trkpt lat="36.96483308981853" lon="-2.203038727377498"><ele>332.0</ele><time>2026-04-21T09:48:52.995Z</time></trkpt><trkpt lat="36.964805883200626" lon="-2.203125263767357"><ele>332.0</ele><time>2026-04-21T09:48:53.995Z</time></trkpt><trkpt lat="36.964750813408585" lon="-2.203195256010203"><ele>332.0</ele><time>2026-04-21T09:48:54.995Z</time></trkpt><trkpt lat="36.96466789922368" lon="-2.2032389146115476"><ele>331.20000000000005</ele><time>2026-04-21T09:48:55.995Z</time></trkpt><trkpt lat="36.964579104801885" lon="-2.2032583763142646"><ele>330.4</ele><time>2026-04-21T09:48:56.995Z</time></trkpt><trkpt lat="36.964484742842465" lon="-2.203264461320565"><ele>329.6</ele><time>2026-04-21T09:48:57.995Z</time></trkpt><trkpt lat="36.96438296157816" lon="-2.2032738117468917"><ele>328.79999999999995</ele><time>2026-04-21T09:48:58.995Z</time></trkpt><trkpt lat="36.96427665672632" lon="-2.203297211018827"><ele>328.0</ele><time>2026-04-21T09:48:59.995Z</time></trkpt><trkpt lat="36.96416986689361" lon="-2.2033283228239746"><ele>327.4</ele><time>2026-04-21T09:49:00.995Z</time></trkpt><trkpt lat="36.96406508909297" lon="-2.2033607903803496"><ele>326.79999999999995</ele><time>2026-04-21T09:49:01.995Z</time></trkpt><trkpt lat="36.96396354910785" lon="-2.2034015936660074"><ele>326.2</ele><time>2026-04-21T09:49:02.995Z</time></trkpt><trkpt lat="36.96385725694939" lon="-2.203421987174856"><ele>325.6</ele><time>2026-04-21T09:49:03.995Z</time></trkpt><trkpt lat="36.96375001095079" lon="-2.2034014491187577"><ele>325.0</ele><time>2026-04-21T09:49:04.995Z</time></trkpt><trkpt lat="36.96365608451278" lon="-2.203397385952143"><ele>325.0</ele><time>2026-04-21T09:49:05.995Z</time></trkpt><trkpt lat="36.96357118315252" lon="-2.2034127082378774"><ele>325.0</ele><time>2026-04-21T09:49:06.995Z</time></trkpt><trkpt lat="36.96349732659119" lon="-2.2034762577993154"><ele>325.0</ele><time>2026-04-21T09:49:07.995Z</time></trkpt><trkpt lat="36.963451661007106" lon="-2.203595283167198"><ele>325.0</ele><time>2026-04-21T09:49:08.995Z</time></trkpt><trkpt lat="36.96340070634886" lon="-2.2037229900075217"><ele>325.0</ele><time>2026-04-21T09:49:09.995Z</time></trkpt><trkpt lat="36.96334785162904" lon="-2.203855459583937"><ele>325.6</ele><time>2026-04-21T09:49:10.995Z</time></trkpt><trkpt lat="36.963298492284245" lon="-2.2039878755275053"><ele>326.2</ele><time>2026-04-21T09:49:11.995Z</time></trkpt><trkpt lat="36.96324879953791" lon="-2.2041113032195248"><ele>326.79999999999995</ele><time>2026-04-21T09:49:12.995Z</time></trkpt><trkpt lat="36.963198356286405" lon="-2.204230658126449"><ele>327.4</ele><time>2026-04-21T09:49:13.995Z</time></trkpt><trkpt lat="36.963158830182564" lon="-2.204354306421448"><ele>328.0</ele><time>2026-04-21T09:49:14.995Z</time></trkpt><trkpt lat="36.963123606289884" lon="-2.204484009715866"><ele>328.0</ele><time>2026-04-21T09:49:15.995Z</time></trkpt><trkpt lat="36.96309981914605" lon="-2.204624854935794"><ele>328.0</ele><time>2026-04-21T09:49:16.995Z</time></trkpt><trkpt lat="36.963077470722794" lon="-2.2047659378328284"><ele>328.0</ele><time>2026-04-21T09:49:17.995Z</time></trkpt><trkpt lat="36.96306372758419" lon="-2.2049065640897823"><ele>328.0</ele><time>2026-04-21T09:49:18.995Z</time></trkpt><trkpt lat="36.963048533133765" lon="-2.2050391062681824"><ele>327.59999999999997</ele><time>2026-04-21T09:49:19.995Z</time></trkpt><trkpt lat="36.96303073272637" lon="-2.205157759894334"><ele>327.2</ele><time>2026-04-21T09:49:20.995Z</time></trkpt><trkpt lat="36.96301336778238" lon="-2.2052678514314996"><ele>326.8</ele><time>2026-04-21T09:49:21.995Z</time></trkpt><trkpt lat="36.963003792860604" lon="-2.2053608728320104"><ele>326.4</ele><time>2026-04-21T09:49:22.995Z</time></trkpt><trkpt lat="36.963012224955754" lon="-2.2054899800502636"><ele>326.0</ele><time>2026-04-21T09:49:24.995Z</time></trkpt><trkpt lat="36.963084915562376" lon="-2.2055869556171417"><ele>326.0</ele><time>2026-04-21T09:49:26.995Z</time></trkpt><trkpt lat="36.963143540101335" lon="-2.2056342038833483"><ele>326.0</ele><time>2026-04-21T09:49:27.995Z</time></trkpt><trkpt lat="36.963210855380254" lon="-2.2056919935644017"><ele>326.0</ele><time>2026-04-21T09:49:28.995Z</time></trkpt><trkpt lat="36.96328276149695" lon="-2.2057514028772167"><ele>326.0</ele><time>2026-04-21T09:49:29.995Z</time></trkpt><trkpt lat="36.963347999651724" lon="-2.2058117505511334"><ele>326.0</ele><time>2026-04-21T09:49:30.995Z</time></trkpt><trkpt lat="36.96339691205029" lon="-2.2058810373108915"><ele>326.0</ele><time>2026-04-21T09:49:31.995Z</time></trkpt><trkpt lat="36.96343718961753" lon="-2.205950507409008"><ele>327.33333333333337</ele><time>2026-04-21T09:49:32.995Z</time></trkpt><trkpt lat="36.96346746479378" lon="-2.2060311052314323"><ele>328.6666666666667</ele><time>2026-04-21T09:49:33.995Z</time></trkpt><trkpt lat="36.96347196465548" lon="-2.206131493633112"><ele>330.0</ele><time>2026-04-21T09:49:34.995Z</time></trkpt><trkpt lat="36.96347933981462" lon="-2.206235443972744"><ele>331.3333333333333</ele><time>2026-04-21T09:49:35.995Z</time></trkpt><trkpt lat="36.96349329152072" lon="-2.2063307702757453"><ele>332.66666666666663</ele><time>2026-04-21T09:49:36.995Z</time></trkpt><trkpt lat="36.96353569240445" lon="-2.2064109602817092"><ele>334.0</ele><time>2026-04-21T09:49:37.995Z</time></trkpt><trkpt lat="36.96360514002254" lon="-2.2064576852625533"><ele>334.0</ele><time>2026-04-21T09:49:38.995Z</time></trkpt><trkpt lat="36.96368487318103" lon="-2.2064860398932655"><ele>334.0</ele><time>2026-04-21T09:49:39.995Z</time></trkpt><trkpt lat="36.96376307264816" lon="-2.2065163768519596"><ele>334.0</ele><time>2026-04-21T09:49:40.995Z</time></trkpt><trkpt lat="36.96383322769246" lon="-2.2065391590630914"><ele>334.0</ele><time>2026-04-21T09:49:41.995Z</time></trkpt><trkpt lat="36.96393719987069" lon="-2.2065761309640224"><ele>334.0</ele><time>2026-04-21T09:49:43.995Z</time></trkpt><trkpt lat="36.96402026233318" lon="-2.206621446883766"><ele>334.0</ele><time>2026-04-21T09:49:45.995Z</time></trkpt><trkpt lat="36.96413195637718" lon="-2.206674640766977"><ele>335.5</ele><time>2026-04-21T09:49:47.995Z</time></trkpt><trkpt lat="36.964197048201655" lon="-2.206692741341539"><ele>337.0</ele><time>2026-04-21T09:49:48.995Z</time></trkpt><trkpt lat="36.96430316582401" lon="-2.206729158943522"><ele>338.5</ele><time>2026-04-21T09:49:50.995Z</time></trkpt><trkpt lat="36.96436579608674" lon="-2.2067595915170592"><ele>340.0</ele><time>2026-04-21T09:49:54.995Z</time></trkpt><trkpt lat="36.964424358126806" lon="-2.2067896664989566"><ele>341.5</ele><time>2026-04-21T09:50:01.999Z</time></trkpt><trkpt lat="36.964525540665825" lon="-2.20682830335222"><ele>343.0</ele><time>2026-04-21T09:50:03.999Z</time></trkpt><trkpt lat="36.964712977912015" lon="-2.2068656489019314"><ele>343.0</ele><time>2026-04-21T09:50:09Z</time></trkpt><trkpt lat="36.96474013470294" lon="-2.206955967178298"><ele>343.0</ele><time>2026-04-21T09:50:11Z</time></trkpt><trkpt lat="36.96469246180757" lon="-2.2070619647319965"><ele>343.0</ele><time>2026-04-21T09:50:13Z</time></trkpt><trkpt lat="36.964653244086854" lon="-2.207167599338697"><ele>343.0</ele><time>2026-04-21T09:50:15Z</time></trkpt><trkpt lat="36.964612770915444" lon="-2.2072862240272726"><ele>343.0</ele><time>2026-04-21T09:50:17Z</time></trkpt><trkpt lat="36.96458388901574" lon="-2.207376082181189"><ele>343.0</ele><time>2026-04-21T09:50:19Z</time></trkpt><trkpt lat="36.96457553563065" lon="-2.207456611960574"><ele>342.2857142857143</ele><time>2026-04-21T09:50:21Z</time></trkpt><trkpt lat="36.96454606585538" lon="-2.2075358770470674"><ele>341.57142857142856</ele><time>2026-04-21T09:50:26Z</time></trkpt><trkpt lat="36.96450578013979" lon="-2.207608077741007"><ele>340.8571428571429</ele><time>2026-04-21T09:50:31.999Z</time></trkpt><trkpt lat="36.96446110907104" lon="-2.20766519741727"><ele>340.1428571428571</ele><time>2026-04-21T09:50:38.999Z</time></trkpt><trkpt lat="36.96445640088532" lon="-2.2077846686829994"><ele>339.42857142857144</ele><time>2026-04-21T09:51:06.999Z</time></trkpt><trkpt lat="36.96451790809545" lon="-2.20783775435338"><ele>338.7142857142857</ele><time>2026-04-21T09:51:08.999Z</time></trkpt><trkpt lat="36.964581639186896" lon="-2.2078815021141716"><ele>338.0</ele><time>2026-04-21T09:51:10.999Z</time></trkpt><trkpt lat="36.96463412374282" lon="-2.2079339301413103"><ele>338.0</ele><time>2026-04-21T09:51:14.999Z</time></trkpt><trkpt lat="36.964698690325626" lon="-2.2079203931140423"><ele>338.0</ele><time>2026-04-21T09:51:27.999Z</time></trkpt><trkpt lat="36.964624456220896" lon="-2.2078898381045313"><ele>338.0</ele><time>2026-04-21T09:51:43.999Z</time></trkpt><trkpt lat="36.96468464792671" lon="-2.2079199877830376"><ele>338.0</ele><time>2026-04-21T09:51:47.999Z</time></trkpt><trkpt lat="36.96475309874095" lon="-2.208010916909254"><ele>338.0</ele><time>2026-04-21T09:53:54.997Z</time></trkpt><trkpt lat="36.964887164964786" lon="-2.208028080798651"><ele>338.0</ele><time>2026-04-21T10:05:51.999Z</time></trkpt><trkpt lat="36.96480868438324" lon="-2.2079853101563875"><ele>338.0</ele><time>2026-04-21T10:39:17.997Z</time></trkpt><trkpt lat="36.96474027474751" lon="-2.2079563565023754"><ele>338.0</ele><time>2026-04-21T10:39:24.997Z</time></trkpt><trkpt lat="36.96468487441669" lon="-2.2079171614290187"><ele>338.0</ele><time>2026-04-21T10:39:30.997Z</time></trkpt><trkpt lat="36.96458974603305" lon="-2.207986278450718"><ele>338.0</ele><time>2026-04-21T10:42:29.999Z</time></trkpt><trkpt lat="36.96464579042334" lon="-2.2080223890210897"><ele>338.0</ele><time>2026-04-21T10:42:46.999Z</time></trkpt><trkpt lat="36.96472256337543" lon="-2.208082861573925"><ele>338.0</ele><time>2026-04-21T10:42:49.999Z</time></trkpt><trkpt lat="36.964825145486614" lon="-2.208173852292798"><ele>338.14285714285717</ele><time>2026-04-21T10:42:51.999Z</time></trkpt><trkpt lat="36.96487819070227" lon="-2.208219615465925"><ele>338.2857142857143</ele><time>2026-04-21T10:42:52.999Z</time></trkpt><trkpt lat="36.96494350512103" lon="-2.2082496087406787"><ele>338.42857142857144</ele><time>2026-04-21T10:42:53.999Z</time></trkpt><trkpt lat="36.96501017768371" lon="-2.208287084936003"><ele>338.57142857142856</ele><time>2026-04-21T10:42:54.999Z</time></trkpt><trkpt lat="36.965069232863506" lon="-2.208331785285769"><ele>338.7142857142857</ele><time>2026-04-21T10:42:55.999Z</time></trkpt><trkpt lat="36.965125831906434" lon="-2.208375105219298"><ele>338.85714285714283</ele><time>2026-04-21T10:42:56.999Z</time></trkpt><trkpt lat="36.96518358538995" lon="-2.2084199583582893"><ele>339.0</ele><time>2026-04-21T10:42:57.999Z</time></trkpt><trkpt lat="36.965248680583834" lon="-2.2084461740508092"><ele>340.1666666666667</ele><time>2026-04-21T10:42:58.999Z</time></trkpt><trkpt lat="36.965313013232326" lon="-2.2084638770015825"><ele>341.3333333333333</ele><time>2026-04-21T10:42:59.999Z</time></trkpt><trkpt lat="36.96537999955176" lon="-2.20845350487443"><ele>342.5</ele><time>2026-04-21T10:43:00.999Z</time></trkpt><trkpt lat="36.96544654417768" lon="-2.2084110123242198"><ele>343.66666666666663</ele><time>2026-04-21T10:43:01.999Z</time></trkpt><trkpt lat="36.96551031571973" lon="-2.208350740639223"><ele>344.8333333333333</ele><time>2026-04-21T10:43:02.999Z</time></trkpt><trkpt lat="36.96556468804705" lon="-2.2082676091263123"><ele>346.0</ele><time>2026-04-21T10:43:03.999Z</time></trkpt><trkpt lat="36.96560690922755" lon="-2.2081731809306144"><ele>346.5</ele><time>2026-04-21T10:43:04.999Z</time></trkpt><trkpt lat="36.96564032990557" lon="-2.208068337170203"><ele>347.0</ele><time>2026-04-21T10:43:05.999Z</time></trkpt><trkpt lat="36.96566242170411" lon="-2.2079586742473807"><ele>347.5</ele><time>2026-04-21T10:43:06.999Z</time></trkpt><trkpt lat="36.9656810894269" lon="-2.2078552766459167"><ele>348.0</ele><time>2026-04-21T10:43:07.999Z</time></trkpt><trkpt lat="36.96570091829275" lon="-2.2077564386102497"><ele>348.5</ele><time>2026-04-21T10:43:08.999Z</time></trkpt><trkpt lat="36.96571716797924" lon="-2.207663120335255"><ele>349.0</ele><time>2026-04-21T10:43:09.999Z</time></trkpt><trkpt lat="36.96573251930924" lon="-2.20757272440987"><ele>349.0</ele><time>2026-04-21T10:43:10.999Z</time></trkpt><trkpt lat="36.965750917671194" lon="-2.207490732361075"><ele>349.0</ele><time>2026-04-21T10:43:11.999Z</time></trkpt><trkpt lat="36.965766646370604" lon="-2.20741212968052"><ele>349.0</ele><time>2026-04-21T10:43:12.999Z</time></trkpt><trkpt lat="36.96579414808843" lon="-2.207263204557927"><ele>349.0</ele><time>2026-04-21T10:43:14.999Z</time></trkpt><trkpt lat="36.965807037073866" lon="-2.2071840832663705"><ele>349.0</ele><time>2026-04-21T10:43:15.999Z</time></trkpt><trkpt lat="36.965829774990084" lon="-2.2070459522526846"><ele>349.0</ele><time>2026-04-21T10:43:17.999Z</time></trkpt><trkpt lat="36.96585501454598" lon="-2.2069660392833526"><ele>351.4</ele><time>2026-04-21T10:43:19.999Z</time></trkpt><trkpt lat="36.96587834604842" lon="-2.2068831894650267"><ele>353.79999999999995</ele><time>2026-04-21T10:43:22.999Z</time></trkpt><trkpt lat="36.96597813347414" lon="-2.2069334188860026"><ele>356.20000000000005</ele><time>2026-04-21T10:43:26.999Z</time></trkpt><trkpt lat="36.96605220869155" lon="-2.206989049944756"><ele>358.6</ele><time>2026-04-21T10:43:28.999Z</time></trkpt><trkpt lat="36.9661198645" lon="-2.2069860091022417"><ele>361.0</ele><time>2026-04-21T10:43:30.999Z</time></trkpt><trkpt lat="36.966293473824166" lon="-2.2069963387834233"><ele>361.0</ele><time>2026-04-21T10:43:34.999Z</time></trkpt><trkpt lat="36.966395310040745" lon="-2.20699309114926"><ele>361.0</ele><time>2026-04-21T10:43:36.999Z</time></trkpt><trkpt lat="36.96650848443506" lon="-2.2069870467118915"><ele>361.0</ele><time>2026-04-21T10:43:38.999Z</time></trkpt><trkpt lat="36.96661833554414" lon="-2.2070184453270696"><ele>361.0</ele><time>2026-04-21T10:43:40.999Z</time></trkpt><trkpt lat="36.96671549623492" lon="-2.207087264463746"><ele>361.0</ele><time>2026-04-21T10:43:42.999Z</time></trkpt><trkpt lat="36.96677655729857" lon="-2.207186076740103"><ele>360.8</ele><time>2026-04-21T10:43:44.999Z</time></trkpt><trkpt lat="36.96684369154978" lon="-2.20730397914869"><ele>360.6</ele><time>2026-04-21T10:43:46.999Z</time></trkpt><trkpt lat="36.9669161647525" lon="-2.2074021683009284"><ele>360.4</ele><time>2026-04-21T10:43:48.999Z</time></trkpt><trkpt lat="36.966981635764036" lon="-2.207463899691159"><ele>360.2</ele><time>2026-04-21T10:43:50.999Z</time></trkpt><trkpt lat="36.967065466399546" lon="-2.2075637830225254"><ele>360.0</ele><time>2026-04-21T10:43:52.999Z</time></trkpt><trkpt lat="36.967139687137994" lon="-2.2076473898695537"><ele>360.0</ele><time>2026-04-21T10:43:54.999Z</time></trkpt><trkpt lat="36.96719425357995" lon="-2.207708867188335"><ele>360.0</ele><time>2026-04-21T10:43:56.998Z</time></trkpt><trkpt lat="36.9672503086245" lon="-2.2077666478232376"><ele>360.0</ele><time>2026-04-21T10:43:58.998Z</time></trkpt><trkpt lat="36.967291459206514" lon="-2.2078289691509925"><ele>360.0</ele><time>2026-04-21T10:44:00.998Z</time></trkpt><trkpt lat="36.96735102929621" lon="-2.20787364690209"><ele>360.0</ele><time>2026-04-21T10:44:03.998Z</time></trkpt><trkpt lat="36.96743625502094" lon="-2.2079019367440234"><ele>360.0</ele><time>2026-04-21T10:44:06.998Z</time></trkpt><trkpt lat="36.967530285685946" lon="-2.2078951251836387"><ele>364.0</ele><time>2026-04-21T10:44:08.998Z</time></trkpt><trkpt lat="36.96762955824293" lon="-2.207895635910807"><ele>368.0</ele><time>2026-04-21T10:44:10.998Z</time></trkpt><trkpt lat="36.96775751288516" lon="-2.2079258294731745"><ele>372.0</ele><time>2026-04-21T10:44:12.998Z</time></trkpt><trkpt lat="36.96787844954318" lon="-2.207930725749293"><ele>376.0</ele><time>2026-04-21T10:44:14.998Z</time></trkpt><trkpt lat="36.96799558338207" lon="-2.2079433573452225"><ele>376.0</ele><time>2026-04-21T10:44:16.998Z</time></trkpt><trkpt lat="36.96809468486265" lon="-2.2079549607623"><ele>376.0</ele><time>2026-04-21T10:44:18.998Z</time></trkpt><trkpt lat="36.96815911843819" lon="-2.2079793779910792"><ele>376.0</ele><time>2026-04-21T10:44:19.998Z</time></trkpt><trkpt lat="36.968272796936645" lon="-2.208018719523811"><ele>376.0</ele><time>2026-04-21T10:44:21.998Z</time></trkpt><trkpt lat="36.968333950429724" lon="-2.208060672597268"><ele>376.0</ele><time>2026-04-21T10:44:22.998Z</time></trkpt><trkpt lat="36.96843355864245" lon="-2.2081559728506437"><ele>379.16666666666663</ele><time>2026-04-21T10:44:24.998Z</time></trkpt><trkpt lat="36.96851950015545" lon="-2.2082725652478237"><ele>382.3333333333333</ele><time>2026-04-21T10:44:26.998Z</time></trkpt><trkpt lat="36.968563263089415" lon="-2.2083382729682812"><ele>385.5</ele><time>2026-04-21T10:44:27.998Z</time></trkpt><trkpt lat="36.96861481981693" lon="-2.208402200888089"><ele>388.66666666666663</ele><time>2026-04-21T10:44:28.998Z</time></trkpt><trkpt lat="36.968661581538846" lon="-2.208461851582949"><ele>391.8333333333333</ele><time>2026-04-21T10:44:29.998Z</time></trkpt><trkpt lat="36.96870460179013" lon="-2.208540710781574"><ele>395.0</ele><time>2026-04-21T10:44:30.998Z</time></trkpt><trkpt lat="36.96874420777563" lon="-2.2086273141059976"><ele>394.99999999999994</ele><time>2026-04-21T10:44:31.998Z</time></trkpt><trkpt lat="36.96877804465635" lon="-2.208717702772244"><ele>395.0</ele><time>2026-04-21T10:44:32.998Z</time></trkpt><trkpt lat="36.968803181778995" lon="-2.2088072050211873"><ele>395.0</ele><time>2026-04-21T10:44:33.998Z</time></trkpt><trkpt lat="36.96883428688039" lon="-2.208902864183909"><ele>395.0</ele><time>2026-04-21T10:44:34.998Z</time></trkpt><trkpt lat="36.96887680598601" lon="-2.2089984307476924"><ele>394.99999999999994</ele><time>2026-04-21T10:44:35.998Z</time></trkpt><trkpt lat="36.968927835918336" lon="-2.2091009872532963"><ele>395.0</ele><time>2026-04-21T10:44:36.998Z</time></trkpt><trkpt lat="36.968984166721484" lon="-2.209209877364798"><ele>392.8</ele><time>2026-04-21T10:44:37.998Z</time></trkpt><trkpt lat="36.96904018266202" lon="-2.209309339498343"><ele>390.6</ele><time>2026-04-21T10:44:38.998Z</time></trkpt><trkpt lat="36.96909635028595" lon="-2.2094000266334985"><ele>388.4</ele><time>2026-04-21T10:44:39.998Z</time></trkpt><trkpt lat="36.96915209056872" lon="-2.2094679261912105"><ele>386.2</ele><time>2026-04-21T10:44:40.998Z</time></trkpt><trkpt lat="36.96926760923956" lon="-2.2095750167314114"><ele>384.0</ele><time>2026-04-21T10:44:42.998Z</time></trkpt><trkpt lat="36.9693296437996" lon="-2.209623463210228"><ele>384.5</ele><time>2026-04-21T10:44:43.998Z</time></trkpt><trkpt lat="36.96940663848795" lon="-2.2096690762024562"><ele>385.0</ele><time>2026-04-21T10:44:44.998Z</time></trkpt><trkpt lat="36.96949393189053" lon="-2.209712368000229"><ele>385.5</ele><time>2026-04-21T10:44:45.998Z</time></trkpt><trkpt lat="36.969578550053214" lon="-2.209746451687802"><ele>386.0</ele><time>2026-04-21T10:44:46.998Z</time></trkpt><trkpt lat="36.96966127429739" lon="-2.209776811998967"><ele>386.5</ele><time>2026-04-21T10:44:47.998Z</time></trkpt><trkpt lat="36.969741575624056" lon="-2.209801191497883"><ele>387.0</ele><time>2026-04-21T10:44:48.998Z</time></trkpt><trkpt lat="36.969819832364706" lon="-2.2098261052053942"><ele>387.0</ele><time>2026-04-21T10:44:49.998Z</time></trkpt><trkpt lat="36.96990101429987" lon="-2.209850831008167"><ele>387.0</ele><time>2026-04-21T10:44:50.998Z</time></trkpt><trkpt lat="36.96997034842046" lon="-2.209867957190064"><ele>387.0</ele><time>2026-04-21T10:44:51.998Z</time></trkpt><trkpt lat="36.97004997982184" lon="-2.2098905767233936"><ele>387.0</ele><time>2026-04-21T10:44:52.998Z</time></trkpt><trkpt lat="36.97012632388231" lon="-2.209910453255848"><ele>387.0</ele><time>2026-04-21T10:44:53.998Z</time></trkpt><trkpt lat="36.970202710597476" lon="-2.2099356313993668"><ele>387.0</ele><time>2026-04-21T10:44:54.998Z</time></trkpt><trkpt lat="36.97027000539904" lon="-2.2099636303460324"><ele>389.57142857142856</ele><time>2026-04-21T10:44:55.998Z</time></trkpt><trkpt lat="36.970339153259765" lon="-2.209990016779575"><ele>392.14285714285717</ele><time>2026-04-21T10:44:56.998Z</time></trkpt><trkpt lat="36.970410291615885" lon="-2.210015565234028"><ele>394.71428571428567</ele><time>2026-04-21T10:44:57.998Z</time></trkpt><trkpt lat="36.9704852790129" lon="-2.2100365164015376"><ele>397.2857142857143</ele><time>2026-04-21T10:44:58.998Z</time></trkpt><trkpt lat="36.97055508018812" lon="-2.210057278277147"><ele>399.85714285714283</ele><time>2026-04-21T10:44:59.998Z</time></trkpt><trkpt lat="36.97062500424869" lon="-2.2100775437748217"><ele>402.4285714285714</ele><time>2026-04-21T10:45:00.998Z</time></trkpt><trkpt lat="36.97069875985048" lon="-2.2100948277496593"><ele>405.0</ele><time>2026-04-21T10:45:01.998Z</time></trkpt><trkpt lat="36.97076839455691" lon="-2.2101101252402096"><ele>405.0</ele><time>2026-04-21T10:45:02.998Z</time></trkpt><trkpt lat="36.97083693977201" lon="-2.210128402510749"><ele>405.0</ele><time>2026-04-21T10:45:03.998Z</time></trkpt><trkpt lat="36.970899014287774" lon="-2.2101486780578234"><ele>405.0</ele><time>2026-04-21T10:45:04.998Z</time></trkpt><trkpt lat="36.97101532064535" lon="-2.210229988561371"><ele>405.0</ele><time>2026-04-21T10:45:06.998Z</time></trkpt><trkpt lat="36.9710761243216" lon="-2.210279457439006"><ele>405.0</ele><time>2026-04-21T10:45:07.998Z</time></trkpt><trkpt lat="36.97112830405933" lon="-2.2103282497478776"><ele>405.0</ele><time>2026-04-21T10:45:08.998Z</time></trkpt><trkpt lat="36.971185393273934" lon="-2.21038566368715"><ele>406.0</ele><time>2026-04-21T10:45:09.998Z</time></trkpt><trkpt lat="36.97122952025433" lon="-2.2104546547860506"><ele>407.0</ele><time>2026-04-21T10:45:10.998Z</time></trkpt><trkpt lat="36.97123773952598" lon="-2.2105813164701362"><ele>408.0</ele><time>2026-04-21T10:45:12.998Z</time></trkpt><trkpt lat="36.97125374488239" lon="-2.210660988665356"><ele>409.0</ele><time>2026-04-21T10:45:13.998Z</time></trkpt><trkpt lat="36.97130211354369" lon="-2.2107299589955844"><ele>410.0</ele><time>2026-04-21T10:45:14.998Z</time></trkpt><trkpt lat="36.97136557896289" lon="-2.210796600989845"><ele>411.0</ele><time>2026-04-21T10:45:15.998Z</time></trkpt><trkpt lat="36.9714447162354" lon="-2.2108656450869857"><ele>411.0</ele><time>2026-04-21T10:45:16.998Z</time></trkpt><trkpt lat="36.971529829937275" lon="-2.2109301659133775"><ele>411.0</ele><time>2026-04-21T10:45:17.998Z</time></trkpt><trkpt lat="36.971613222261055" lon="-2.2109770167736733"><ele>411.0</ele><time>2026-04-21T10:45:18.998Z</time></trkpt><trkpt lat="36.97169823304859" lon="-2.2110195435845785"><ele>411.0</ele><time>2026-04-21T10:45:19.998Z</time></trkpt><trkpt lat="36.971782202046406" lon="-2.2110676524484987"><ele>411.0</ele><time>2026-04-21T10:45:20.998Z</time></trkpt><trkpt lat="36.971858772529345" lon="-2.2111151771698005"><ele>414.3333333333333</ele><time>2026-04-21T10:45:21.998Z</time></trkpt><trkpt lat="36.971930011252994" lon="-2.2111579786538593"><ele>417.66666666666663</ele><time>2026-04-21T10:45:22.998Z</time></trkpt><trkpt lat="36.97199822673641" lon="-2.211203156994593"><ele>421.0</ele><time>2026-04-21T10:45:23.998Z</time></trkpt><trkpt lat="36.972062234540225" lon="-2.2112527815210647"><ele>424.3333333333333</ele><time>2026-04-21T10:45:24.998Z</time></trkpt><trkpt lat="36.97213295295001" lon="-2.2113167683296426"><ele>427.66666666666663</ele><time>2026-04-21T10:45:25.998Z</time></trkpt><trkpt lat="36.97219908314613" lon="-2.211381036758952"><ele>431.0</ele><time>2026-04-21T10:45:26.998Z</time></trkpt><trkpt lat="36.97226792281031" lon="-2.211456454985546"><ele>432.3333333333333</ele><time>2026-04-21T10:45:27.998Z</time></trkpt><trkpt lat="36.97232322878259" lon="-2.211521488663246"><ele>433.66666666666663</ele><time>2026-04-21T10:45:28.998Z</time></trkpt><trkpt lat="36.972381708772886" lon="-2.2115899322437866"><ele>435.0</ele><time>2026-04-21T10:45:29.998Z</time></trkpt><trkpt lat="36.97243413911637" lon="-2.2116517794373265"><ele>436.33333333333337</ele><time>2026-04-21T10:45:30.998Z</time></trkpt><trkpt lat="36.972493069970376" lon="-2.211706364883202"><ele>437.6666666666667</ele><time>2026-04-21T10:45:31.998Z</time></trkpt><trkpt lat="36.97255390207005" lon="-2.2117551310228794"><ele>439.0</ele><time>2026-04-21T10:45:32.998Z</time></trkpt><trkpt lat="36.97266632904452" lon="-2.2117772842296883"><ele>439.0</ele><time>2026-04-21T10:45:34.998Z</time></trkpt><trkpt lat="36.97274041991412" lon="-2.2116620581430535"><ele>439.0</ele><time>2026-04-21T10:45:36.998Z</time></trkpt><trkpt lat="36.97271611541951" lon="-2.211516787442513"><ele>439.0</ele><time>2026-04-21T10:45:38.998Z</time></trkpt><trkpt lat="36.97268775900768" lon="-2.211441885841915"><ele>439.0</ele><time>2026-04-21T10:45:39.998Z</time></trkpt><trkpt lat="36.97264579634028" lon="-2.211364653295259"><ele>439.0</ele><time>2026-04-21T10:45:40.998Z</time></trkpt><trkpt lat="36.97259234506612" lon="-2.211301444791463"><ele>437.6666666666667</ele><time>2026-04-21T10:45:41.998Z</time></trkpt><trkpt lat="36.97253446721963" lon="-2.2112205866772077"><ele>436.33333333333337</ele><time>2026-04-21T10:45:42.998Z</time></trkpt><trkpt lat="36.97247955815418" lon="-2.211132409615055"><ele>435.0</ele><time>2026-04-21T10:45:43.998Z</time></trkpt><trkpt lat="36.97242114705607" lon="-2.2110545003374393"><ele>433.66666666666663</ele><time>2026-04-21T10:45:44.998Z</time></trkpt><trkpt lat="36.972370548727675" lon="-2.210969093891453"><ele>432.3333333333333</ele><time>2026-04-21T10:45:45.998Z</time></trkpt><trkpt lat="36.97232507064715" lon="-2.21087785516949"><ele>431.0</ele><time>2026-04-21T10:45:46.998Z</time></trkpt><trkpt lat="36.97228489052829" lon="-2.2107799346514607"><ele>430.99999999999994</ele><time>2026-04-21T10:45:47.998Z</time></trkpt><trkpt lat="36.97224818018382" lon="-2.2106919003224683"><ele>431.0</ele><time>2026-04-21T10:45:48.998Z</time></trkpt><trkpt lat="36.972206056543236" lon="-2.2106220699811208"><ele>431.0</ele><time>2026-04-21T10:45:49.998Z</time></trkpt><trkpt lat="36.9721492570942" lon="-2.2105625226507573"><ele>431.0</ele><time>2026-04-21T10:45:50.998Z</time></trkpt><trkpt lat="36.9720746588894" lon="-2.2105224892755393"><ele>430.99999999999994</ele><time>2026-04-21T10:45:51.998Z</time></trkpt><trkpt lat="36.97200203903125" lon="-2.210477811196727"><ele>431.0</ele><time>2026-04-21T10:45:52.998Z</time></trkpt><trkpt lat="36.971942586728765" lon="-2.2104220383358752"><ele>430.8</ele><time>2026-04-21T10:45:53.998Z</time></trkpt><trkpt lat="36.971892961722375" lon="-2.210341035926607"><ele>430.6</ele><time>2026-04-21T10:45:54.998Z</time></trkpt><trkpt lat="36.97184181460831" lon="-2.210259511127325"><ele>430.4</ele><time>2026-04-21T10:45:55.998Z</time></trkpt><trkpt lat="36.971783586646566" lon="-2.2101716279522625"><ele>430.2</ele><time>2026-04-21T10:45:56.998Z</time></trkpt><trkpt lat="36.971720741325335" lon="-2.2100672915883535"><ele>430.0</ele><time>2026-04-21T10:45:57.998Z</time></trkpt><trkpt lat="36.971658911759384" lon="-2.20994570049207"><ele>436.75</ele><time>2026-04-21T10:45:58.998Z</time></trkpt><trkpt lat="36.97160340594778" lon="-2.209824213244009"><ele>443.5</ele><time>2026-04-21T10:45:59.998Z</time></trkpt><trkpt lat="36.97153599110132" lon="-2.2096874135615563"><ele>450.25</ele><time>2026-04-21T10:46:00.998Z</time></trkpt><trkpt lat="36.971461934083415" lon="-2.209538086518997"><ele>457.0</ele><time>2026-04-21T10:46:01.998Z</time></trkpt><trkpt lat="36.97138857387882" lon="-2.2094072916968512"><ele>457.0</ele><time>2026-04-21T10:46:02.998Z</time></trkpt><trkpt lat="36.97131581804631" lon="-2.2092834168791593"><ele>457.00000000000006</ele><time>2026-04-21T10:46:03.998Z</time></trkpt><trkpt lat="36.97124229331985" lon="-2.209174128580662"><ele>457.00000000000006</ele><time>2026-04-21T10:46:04.998Z</time></trkpt><trkpt lat="36.97117751649833" lon="-2.2090843815892454"><ele>457.0</ele><time>2026-04-21T10:46:05.998Z</time></trkpt><trkpt lat="36.97111472756438" lon="-2.2090063631665338"><ele>457.0</ele><time>2026-04-21T10:46:06.998Z</time></trkpt><trkpt lat="36.971038306203205" lon="-2.208974319020966"><ele>456.1666666666667</ele><time>2026-04-21T10:46:07.998Z</time></trkpt><trkpt lat="36.97095133698371" lon="-2.2089569661570847"><ele>455.33333333333337</ele><time>2026-04-21T10:46:08.998Z</time></trkpt><trkpt lat="36.970862759347796" lon="-2.2089338722302103"><ele>454.5</ele><time>2026-04-21T10:46:09.998Z</time></trkpt><trkpt lat="36.97077460513237" lon="-2.20891033040083"><ele>453.66666666666663</ele><time>2026-04-21T10:46:10.998Z</time></trkpt><trkpt lat="36.970699662463595" lon="-2.208853262853173"><ele>452.8333333333333</ele><time>2026-04-21T10:46:11.998Z</time></trkpt><trkpt lat="36.970629354817206" lon="-2.2087842618624807"><ele>452.0</ele><time>2026-04-21T10:46:12.998Z</time></trkpt><trkpt lat="36.970556164168656" lon="-2.208733114091327"><ele>451.99999999999994</ele><time>2026-04-21T10:46:13.998Z</time></trkpt><trkpt lat="36.970484346614455" lon="-2.2086941986790043"><ele>452.0</ele><time>2026-04-21T10:46:14.998Z</time></trkpt><trkpt lat="36.970424898310206" lon="-2.2086564624748313"><ele>452.0</ele><time>2026-04-21T10:46:15.998Z</time></trkpt><trkpt lat="36.97037332721744" lon="-2.2085673235758834"><ele>452.0</ele><time>2026-04-21T10:46:17.998Z</time></trkpt><trkpt lat="36.97038998369536" lon="-2.208485163640282"><ele>451.99999999999994</ele><time>2026-04-21T10:46:19.998Z</time></trkpt><trkpt lat="36.97051446870484" lon="-2.208477870356579"><ele>452.0</ele><time>2026-04-21T10:46:21.998Z</time></trkpt><trkpt lat="36.970583179854025" lon="-2.2085073777490454"><ele>451.99999999999994</ele><time>2026-04-21T10:46:22.998Z</time></trkpt><trkpt lat="36.970646668495355" lon="-2.208564329281887"><ele>452.0</ele><time>2026-04-21T10:46:23.998Z</time></trkpt><trkpt lat="36.970724202928736" lon="-2.2086098196104698"><ele>452.0</ele><time>2026-04-21T10:46:24.998Z</time></trkpt><trkpt lat="36.970801953557554" lon="-2.2086564753304243"><ele>452.0</ele><time>2026-04-21T10:46:25.998Z</time></trkpt><trkpt lat="36.97087763226526" lon="-2.208701033625858"><ele>451.99999999999994</ele><time>2026-04-21T10:46:26.998Z</time></trkpt><trkpt lat="36.970958332412145" lon="-2.208719893268145"><ele>452.0</ele><time>2026-04-21T10:46:27.998Z</time></trkpt><trkpt lat="36.9710388635692" lon="-2.208754193520072"><ele>453.0</ele><time>2026-04-21T10:46:28.998Z</time></trkpt><trkpt lat="36.9711196575423" lon="-2.2087841887792"><ele>454.00000000000006</ele><time>2026-04-21T10:46:29.998Z</time></trkpt><trkpt lat="36.97119711297338" lon="-2.2088374024872177"><ele>455.00000000000006</ele><time>2026-04-21T10:46:30.998Z</time></trkpt><trkpt lat="36.97127452212241" lon="-2.208907883500369"><ele>456.0</ele><time>2026-04-21T10:46:31.998Z</time></trkpt><trkpt lat="36.97135271472532" lon="-2.2089835853937267"><ele>457.0</ele><time>2026-04-21T10:46:32.998Z</time></trkpt><trkpt lat="36.97143334188143" lon="-2.2090541797444163"><ele>457.0</ele><time>2026-04-21T10:46:33.997Z</time></trkpt><trkpt lat="36.97150864882914" lon="-2.209131678496464"><ele>457.00000000000006</ele><time>2026-04-21T10:46:34.997Z</time></trkpt><trkpt lat="36.97158371539362" lon="-2.2092095389690876"><ele>457.00000000000006</ele><time>2026-04-21T10:46:35.997Z</time></trkpt><trkpt lat="36.971662208312615" lon="-2.2092820684010768"><ele>457.0</ele><time>2026-04-21T10:46:36.997Z</time></trkpt><trkpt lat="36.97175090555472" lon="-2.2093505705869916"><ele>457.0</ele><time>2026-04-21T10:46:37.997Z</time></trkpt><trkpt lat="36.971837792265475" lon="-2.2094209010864616"><ele>466.40000000000003</ele><time>2026-04-21T10:46:38.997Z</time></trkpt><trkpt lat="36.97192684704779" lon="-2.2094908675021574"><ele>475.80000000000007</ele><time>2026-04-21T10:46:39.997Z</time></trkpt><trkpt lat="36.97201539636709" lon="-2.2095641511502224"><ele>485.2</ele><time>2026-04-21T10:46:40.997Z</time></trkpt><trkpt lat="36.972104840991875" lon="-2.209631040718108"><ele>494.6</ele><time>2026-04-21T10:46:41.997Z</time></trkpt><trkpt lat="36.97219452456028" lon="-2.209694582630141"><ele>504.0</ele><time>2026-04-21T10:46:42.997Z</time></trkpt><trkpt lat="36.972285036017425" lon="-2.209754805252242"><ele>504.0</ele><time>2026-04-21T10:46:43.997Z</time></trkpt><trkpt lat="36.97237767322704" lon="-2.20980046393406"><ele>504.0</ele><time>2026-04-21T10:46:44.997Z</time></trkpt><trkpt lat="36.97246865168553" lon="-2.209857212718042"><ele>504.0</ele><time>2026-04-21T10:46:45.997Z</time></trkpt><trkpt lat="36.97256789262958" lon="-2.20987627075051"><ele>504.0</ele><time>2026-04-21T10:46:47.003Z</time></trkpt><trkpt lat="36.97266270312477" lon="-2.209919817841156"><ele>504.0</ele><time>2026-04-21T10:46:48.003Z</time></trkpt><trkpt lat="36.97276577865479" lon="-2.2099605268301565"><ele>502.2</ele><time>2026-04-21T10:46:49.003Z</time></trkpt><trkpt lat="36.97288342081899" lon="-2.2099726356887612"><ele>500.4</ele><time>2026-04-21T10:46:50.003Z</time></trkpt><trkpt lat="36.972979318893465" lon="-2.210040113108504"><ele>498.6</ele><time>2026-04-21T10:46:51.003Z</time></trkpt><trkpt lat="36.97306531547178" lon="-2.210124738352799"><ele>496.8</ele><time>2026-04-21T10:46:52.002Z</time></trkpt><trkpt lat="36.973150044633606" lon="-2.2101960604875974"><ele>495.0</ele><time>2026-04-21T10:46:53.002Z</time></trkpt><trkpt lat="36.97323750120306" lon="-2.2102709245055756"><ele>495.0</ele><time>2026-04-21T10:46:54.002Z</time></trkpt><trkpt lat="36.97332878920942" lon="-2.210340145986007"><ele>495.0</ele><time>2026-04-21T10:46:55.002Z</time></trkpt><trkpt lat="36.973419731676934" lon="-2.2103995133018124"><ele>495.0</ele><time>2026-04-21T10:46:56.002Z</time></trkpt><trkpt lat="36.973507531899294" lon="-2.210465104399541"><ele>495.0</ele><time>2026-04-21T10:46:57.002Z</time></trkpt><trkpt lat="36.9735993023349" lon="-2.2105324723165096"><ele>495.0</ele><time>2026-04-21T10:46:58.002Z</time></trkpt><trkpt lat="36.97369642931965" lon="-2.2105924988357777"><ele>494.0</ele><time>2026-04-21T10:46:59.002Z</time></trkpt><trkpt lat="36.97379602870018" lon="-2.21064666385889"><ele>493.0</ele><time>2026-04-21T10:47:00.002Z</time></trkpt><trkpt lat="36.97389505584184" lon="-2.21069368931474"><ele>492.0</ele><time>2026-04-21T10:47:01.002Z</time></trkpt><trkpt lat="36.97399315437702" lon="-2.2107411360765803"><ele>491.0</ele><time>2026-04-21T10:47:02.002Z</time></trkpt><trkpt lat="36.974091342803064" lon="-2.210792766319651"><ele>490.0</ele><time>2026-04-21T10:47:03.002Z</time></trkpt><trkpt lat="36.974195216015104" lon="-2.210843828468"><ele>495.0</ele><time>2026-04-21T10:47:04.002Z</time></trkpt><trkpt lat="36.97429754129603" lon="-2.2108902833288093"><ele>500.0</ele><time>2026-04-21T10:47:05.001Z</time></trkpt><trkpt lat="36.97439926550982" lon="-2.210932318195414"><ele>505.0</ele><time>2026-04-21T10:47:06.001Z</time></trkpt><trkpt lat="36.974497822177185" lon="-2.210981234232618"><ele>510.0</ele><time>2026-04-21T10:47:07.001Z</time></trkpt><trkpt lat="36.97459674104023" lon="-2.2110339541700617"><ele>515.0</ele><time>2026-04-21T10:47:08.001Z</time></trkpt><trkpt lat="36.97468717388806" lon="-2.2110836777288294"><ele>515.0</ele><time>2026-04-21T10:47:09.001Z</time></trkpt><trkpt lat="36.974768431100784" lon="-2.2111329282301986"><ele>515.0</ele><time>2026-04-21T10:47:10.001Z</time></trkpt><trkpt lat="36.97483965674284" lon="-2.211186603638988"><ele>515.0</ele><time>2026-04-21T10:47:11.001Z</time></trkpt><trkpt lat="36.974894638982974" lon="-2.211258487105918"><ele>515.0</ele><time>2026-04-21T10:47:12.001Z</time></trkpt><trkpt lat="36.974928633438026" lon="-2.211351323459284"><ele>515.0</ele><time>2026-04-21T10:47:13.001Z</time></trkpt><trkpt lat="36.97495267373815" lon="-2.211450533463997"><ele>515.0</ele><time>2026-04-21T10:47:14.001Z</time></trkpt><trkpt lat="36.97497007830965" lon="-2.2115488090733466"><ele>514.5</ele><time>2026-04-21T10:47:15.001Z</time></trkpt><trkpt lat="36.97499570088384" lon="-2.211643495037176"><ele>514.0</ele><time>2026-04-21T10:47:16.001Z</time></trkpt><trkpt lat="36.97502695765375" lon="-2.2117201223543406"><ele>513.5</ele><time>2026-04-21T10:47:17.001Z</time></trkpt><trkpt lat="36.97507082267013" lon="-2.2117771978499725"><ele>513.0</ele><time>2026-04-21T10:47:18.001Z</time></trkpt><trkpt lat="36.97519763989431" lon="-2.211800743684491"><ele>512.5</ele><time>2026-04-21T10:47:20.001Z</time></trkpt><trkpt lat="36.97526654360404" lon="-2.211763569590755"><ele>512.0</ele><time>2026-04-21T10:47:21.001Z</time></trkpt><trkpt lat="36.975344290051055" lon="-2.2117374801907475"><ele>511.99999999999994</ele><time>2026-04-21T10:47:22.001Z</time></trkpt><trkpt lat="36.97542445326199" lon="-2.211742515856845"><ele>512.0</ele><time>2026-04-21T10:47:23.001Z</time></trkpt><trkpt lat="36.975514029359914" lon="-2.211777543292202"><ele>512.0</ele><time>2026-04-21T10:47:24.001Z</time></trkpt><trkpt lat="36.97559450665951" lon="-2.2118420628939126"><ele>512.0</ele><time>2026-04-21T10:47:25.001Z</time></trkpt><trkpt lat="36.975667308535215" lon="-2.211908954680792"><ele>511.99999999999994</ele><time>2026-04-21T10:47:26.001Z</time></trkpt><trkpt lat="36.97574185854366" lon="-2.2119699036948206"><ele>512.0</ele><time>2026-04-21T10:47:27.001Z</time></trkpt><trkpt lat="36.97581992393654" lon="-2.21201092372542"><ele>513.8000000000001</ele><time>2026-04-21T10:47:28.001Z</time></trkpt><trkpt lat="36.97590714538998" lon="-2.2120355221741934"><ele>515.6</ele><time>2026-04-21T10:47:29.001Z</time></trkpt><trkpt lat="36.97600116933043" lon="-2.2120502576471353"><ele>517.4000000000001</ele><time>2026-04-21T10:47:30.001Z</time></trkpt><trkpt lat="36.976098206350365" lon="-2.212058303817038"><ele>519.2</ele><time>2026-04-21T10:47:31.001Z</time></trkpt><trkpt lat="36.976193731616206" lon="-2.2120746364819093"><ele>521.0</ele><time>2026-04-21T10:47:32.001Z</time></trkpt><trkpt lat="36.97628772946351" lon="-2.2120896326376105"><ele>521.0</ele><time>2026-04-21T10:47:33.001Z</time></trkpt><trkpt lat="36.976384829143335" lon="-2.2121053760578184"><ele>521.0</ele><time>2026-04-21T10:47:34.001Z</time></trkpt><trkpt lat="36.97648200989165" lon="-2.212135081385732"><ele>521.0</ele><time>2026-04-21T10:47:35Z</time></trkpt><trkpt lat="36.976575769868035" lon="-2.2121663477447857"><ele>521.0</ele><time>2026-04-21T10:47:36Z</time></trkpt><trkpt lat="36.97666623163007" lon="-2.212192070908547"><ele>521.0</ele><time>2026-04-21T10:47:37Z</time></trkpt><trkpt lat="36.976756829824815" lon="-2.2122055015163062"><ele>520.6666666666666</ele><time>2026-04-21T10:47:38Z</time></trkpt><trkpt lat="36.97684601472861" lon="-2.2121996714203203"><ele>520.3333333333333</ele><time>2026-04-21T10:47:39Z</time></trkpt><trkpt lat="36.97693371671996" lon="-2.212181842936529"><ele>520.0</ele><time>2026-04-21T10:47:40Z</time></trkpt><trkpt lat="36.97701688341794" lon="-2.2121519199696875"><ele>519.6666666666666</ele><time>2026-04-21T10:47:41Z</time></trkpt><trkpt lat="36.97709086315079" lon="-2.212095471387967"><ele>519.3333333333334</ele><time>2026-04-21T10:47:42Z</time></trkpt><trkpt lat="36.977165230342315" lon="-2.212044877708325"><ele>519.0</ele><time>2026-04-21T10:47:43Z</time></trkpt><trkpt lat="36.97724079153579" lon="-2.2120076049911925"><ele>519.0</ele><time>2026-04-21T10:47:44Z</time></trkpt><trkpt lat="36.97731047105896" lon="-2.2119836406730347"><ele>519.0</ele><time>2026-04-21T10:47:45Z</time></trkpt><trkpt lat="36.977377542467885" lon="-2.211985608015456"><ele>519.0</ele><time>2026-04-21T10:47:46Z</time></trkpt><trkpt lat="36.977482240276444" lon="-2.2120583719820845"><ele>519.0</ele><time>2026-04-21T10:47:48Z</time></trkpt><trkpt lat="36.977511829755386" lon="-2.2121446245310734"><ele>519.0</ele><time>2026-04-21T10:47:49Z</time></trkpt><trkpt lat="36.97753152990201" lon="-2.2122521922837484"><ele>519.0</ele><time>2026-04-21T10:47:50Z</time></trkpt><trkpt lat="36.977552493394086" lon="-2.2123670216760587"><ele>522.0</ele><time>2026-04-21T10:47:51Z</time></trkpt><trkpt lat="36.97758902542321" lon="-2.2124753301093394"><ele>525.0</ele><time>2026-04-21T10:47:52Z</time></trkpt><trkpt lat="36.97762842850699" lon="-2.212576257638676"><ele>528.0</ele><time>2026-04-21T10:47:53Z</time></trkpt><trkpt lat="36.97765858991863" lon="-2.212682135690162"><ele>531.0</ele><time>2026-04-21T10:47:54Z</time></trkpt><trkpt lat="36.97767615214466" lon="-2.212795315056143"><ele>534.0</ele><time>2026-04-21T10:47:55Z</time></trkpt><trkpt lat="36.97769021119974" lon="-2.2129202617360195"><ele>534.0</ele><time>2026-04-21T10:47:56Z</time></trkpt><trkpt lat="36.977686852955564" lon="-2.213056475645093"><ele>534.0</ele><time>2026-04-21T10:47:57Z</time></trkpt><trkpt lat="36.97766995150654" lon="-2.2131980958950903"><ele>534.0</ele><time>2026-04-21T10:47:58Z</time></trkpt><trkpt lat="36.97765671530429" lon="-2.21334442154206"><ele>534.0</ele><time>2026-04-21T10:47:59Z</time></trkpt><trkpt lat="36.97765396916746" lon="-2.2134806682971964"><ele>533.4</ele><time>2026-04-21T10:48:00Z</time></trkpt><trkpt lat="36.9776689215517" lon="-2.2136132911843056"><ele>532.8</ele><time>2026-04-21T10:48:01Z</time></trkpt><trkpt lat="36.97769030159619" lon="-2.2137493349453927"><ele>532.2</ele><time>2026-04-21T10:48:02Z</time></trkpt><trkpt lat="36.977723251948966" lon="-2.2138861321127967"><ele>531.6</ele><time>2026-04-21T10:48:03Z</time></trkpt><trkpt lat="36.977760056764055" lon="-2.2140237165977776"><ele>531.0</ele><time>2026-04-21T10:48:04Z</time></trkpt><trkpt lat="36.97780420650884" lon="-2.2141508326353887"><ele>529.4</ele><time>2026-04-21T10:48:05Z</time></trkpt><trkpt lat="36.97785452261182" lon="-2.21427006679174"><ele>527.8</ele><time>2026-04-21T10:48:06Z</time></trkpt><trkpt lat="36.977911303633604" lon="-2.2143845084160745"><ele>526.1999999999999</ele><time>2026-04-21T10:48:07Z</time></trkpt><trkpt lat="36.97797458048277" lon="-2.2144834600629535"><ele>524.6</ele><time>2026-04-21T10:48:08Z</time></trkpt><trkpt lat="36.97804133716332" lon="-2.2145566973772546"><ele>523.0</ele><time>2026-04-21T10:48:09Z</time></trkpt><trkpt lat="36.97813595124589" lon="-2.214582729751341"><ele>523.0</ele><time>2026-04-21T10:48:10Z</time></trkpt><trkpt lat="36.978244210408874" lon="-2.2146017512734324"><ele>523.0</ele><time>2026-04-21T10:48:11Z</time></trkpt><trkpt lat="36.978342363565055" lon="-2.214615922886983"><ele>523.0</ele><time>2026-04-21T10:48:12Z</time></trkpt><trkpt lat="36.97842417452374" lon="-2.214597980655499"><ele>523.0</ele><time>2026-04-21T10:48:13Z</time></trkpt><trkpt lat="36.97849362087726" lon="-2.2145587983184756"><ele>523.0</ele><time>2026-04-21T10:48:14Z</time></trkpt><trkpt lat="36.97855830356226" lon="-2.214502270830367"><ele>523.0</ele><time>2026-04-21T10:48:15Z</time></trkpt><trkpt lat="36.97862179024891" lon="-2.214433702299026"><ele>524.6</ele><time>2026-04-21T10:48:16Z</time></trkpt><trkpt lat="36.97868446198839" lon="-2.2143505779872474"><ele>526.1999999999999</ele><time>2026-04-21T10:48:17Z</time></trkpt><trkpt lat="36.97874193733155" lon="-2.214248070979143"><ele>527.8</ele><time>2026-04-21T10:48:18Z</time></trkpt><trkpt lat="36.97879052458097" lon="-2.214137158503693"><ele>529.4</ele><time>2026-04-21T10:48:19Z</time></trkpt><trkpt lat="36.97884576850167" lon="-2.214045167766896"><ele>531.0</ele><time>2026-04-21T10:48:20Z</time></trkpt><trkpt lat="36.9788991523269" lon="-2.2139652424326366"><ele>533.5</ele><time>2026-04-21T10:48:21Z</time></trkpt><trkpt lat="36.97893608588793" lon="-2.213888724689008"><ele>536.0</ele><time>2026-04-21T10:48:22Z</time></trkpt><trkpt lat="36.97894806058925" lon="-2.2138098775518205"><ele>538.5</ele><time>2026-04-21T10:48:23Z</time></trkpt><trkpt lat="36.97891723875494" lon="-2.21372691147602"><ele>541.0</ele><time>2026-04-21T10:48:24Z</time></trkpt><trkpt lat="36.97886518256057" lon="-2.2136364741935513"><ele>543.5</ele><time>2026-04-21T10:48:25Z</time></trkpt><trkpt lat="36.97879871650051" lon="-2.213539480035605"><ele>546.0</ele><time>2026-04-21T10:48:26Z</time></trkpt><trkpt lat="36.978741636876244" lon="-2.213439976388523"><ele>546.0</ele><time>2026-04-21T10:48:27Z</time></trkpt><trkpt lat="36.97869661623867" lon="-2.213347948325025"><ele>546.0</ele><time>2026-04-21T10:48:28Z</time></trkpt><trkpt lat="36.97867862875837" lon="-2.2132717662575723"><ele>546.0</ele><time>2026-04-21T10:48:29Z</time></trkpt><trkpt lat="36.97870723645742" lon="-2.213163667888777"><ele>546.0</ele><time>2026-04-21T10:48:31Z</time></trkpt><trkpt lat="36.97881185857565" lon="-2.2131608930794697"><ele>546.0</ele><time>2026-04-21T10:48:33Z</time></trkpt><trkpt lat="36.9788849192981" lon="-2.2131912248790884"><ele>546.0</ele><time>2026-04-21T10:48:34Z</time></trkpt><trkpt lat="36.97896878162931" lon="-2.2132240140309607"><ele>546.0</ele><time>2026-04-21T10:48:35Z</time></trkpt><trkpt lat="36.97906408985853" lon="-2.2132530308996965"><ele>546.0</ele><time>2026-04-21T10:48:36Z</time></trkpt><trkpt lat="36.97916132128675" lon="-2.2132663226116187"><ele>546.0</ele><time>2026-04-21T10:48:37Z</time></trkpt><trkpt lat="36.979254208090644" lon="-2.2132708657462645"><ele>546.0</ele><time>2026-04-21T10:48:38Z</time></trkpt><trkpt lat="36.979346650859824" lon="-2.2132559143300483"><ele>546.0</ele><time>2026-04-21T10:48:39Z</time></trkpt><trkpt lat="36.97943993381631" lon="-2.2132166375908087"><ele>551.25</ele><time>2026-04-21T10:48:40Z</time></trkpt><trkpt lat="36.979532417890276" lon="-2.2131400856241297"><ele>556.5</ele><time>2026-04-21T10:48:41Z</time></trkpt><trkpt lat="36.979637677728405" lon="-2.213054838287215"><ele>561.75</ele><time>2026-04-21T10:48:42Z</time></trkpt><trkpt lat="36.979753517406614" lon="-2.212979734021545"><ele>567.0</ele><time>2026-04-21T10:48:43Z</time></trkpt><trkpt lat="36.97985899302316" lon="-2.2129204770283804"><ele>567.0</ele><time>2026-04-21T10:48:44Z</time></trkpt><trkpt lat="36.979957824022925" lon="-2.212876426140064"><ele>567.0</ele><time>2026-04-21T10:48:45Z</time></trkpt><trkpt lat="36.980048044463565" lon="-2.212855231956655"><ele>567.0</ele><time>2026-04-21T10:48:46Z</time></trkpt><trkpt lat="36.98014349067457" lon="-2.2128671148637653"><ele>567.0</ele><time>2026-04-21T10:48:47Z</time></trkpt><trkpt lat="36.980233166732994" lon="-2.212922217682556"><ele>567.0</ele><time>2026-04-21T10:48:48Z</time></trkpt><trkpt lat="36.98033153503786" lon="-2.212974543609658"><ele>566.2</ele><time>2026-04-21T10:48:49Z</time></trkpt><trkpt lat="36.98040384469489" lon="-2.213078013102707"><ele>565.4000000000001</ele><time>2026-04-21T10:48:50Z</time></trkpt><trkpt lat="36.98047678656389" lon="-2.2131821178782363"><ele>564.5999999999999</ele><time>2026-04-21T10:48:51Z</time></trkpt><trkpt lat="36.980551007582484" lon="-2.213278567871452"><ele>563.8</ele><time>2026-04-21T10:48:52Z</time></trkpt><trkpt lat="36.980647233585415" lon="-2.21334660845495"><ele>563.0</ele><time>2026-04-21T10:48:53Z</time></trkpt><trkpt lat="36.98076115727177" lon="-2.213394905266536"><ele>567.4</ele><time>2026-04-21T10:48:54Z</time></trkpt><trkpt lat="36.98087387430558" lon="-2.213451339649068"><ele>571.8</ele><time>2026-04-21T10:48:55Z</time></trkpt><trkpt lat="36.98097977410471" lon="-2.213519670485016"><ele>576.2</ele><time>2026-04-21T10:48:56Z</time></trkpt><trkpt lat="36.981076535916515" lon="-2.2135706023894284"><ele>580.6</ele><time>2026-04-21T10:48:57Z</time></trkpt><trkpt lat="36.981171464037914" lon="-2.213579533312943"><ele>585.0</ele><time>2026-04-21T10:48:58Z</time></trkpt><trkpt lat="36.98126379914461" lon="-2.2135769225848088"><ele>585.0</ele><time>2026-04-21T10:48:59Z</time></trkpt><trkpt lat="36.981348889441186" lon="-2.2135046858496334"><ele>585.0</ele><time>2026-04-21T10:48:59.999Z</time></trkpt><trkpt lat="36.98142607047119" lon="-2.213402039929542"><ele>585.0</ele><time>2026-04-21T10:49:00.999Z</time></trkpt><trkpt lat="36.98150440790896" lon="-2.213328187069826"><ele>585.0</ele><time>2026-04-21T10:49:01.999Z</time></trkpt><trkpt lat="36.981575009771944" lon="-2.213274022885494"><ele>585.0</ele><time>2026-04-21T10:49:02.999Z</time></trkpt><trkpt lat="36.981656480773815" lon="-2.21325853180096"><ele>590.0</ele><time>2026-04-21T10:49:03.999Z</time></trkpt><trkpt lat="36.98173113022211" lon="-2.2132678455227155"><ele>595.0</ele><time>2026-04-21T10:49:04.999Z</time></trkpt><trkpt lat="36.98179104451911" lon="-2.2132935171568437"><ele>600.0</ele><time>2026-04-21T10:49:05.999Z</time></trkpt><trkpt lat="36.98186061854967" lon="-2.2133112642134316"><ele>605.0</ele><time>2026-04-21T10:49:06.999Z</time></trkpt><trkpt lat="36.98192819344516" lon="-2.2133646679871224"><ele>610.0</ele><time>2026-04-21T10:49:07.999Z</time></trkpt><trkpt lat="36.98195856002363" lon="-2.2134692600300907"><ele>615.0</ele><time>2026-04-21T10:49:08.999Z</time></trkpt><trkpt lat="36.98196734216682" lon="-2.213600482472043"><ele>615.0</ele><time>2026-04-21T10:49:09.999Z</time></trkpt><trkpt lat="36.981977271468985" lon="-2.2137431002578474"><ele>615.0</ele><time>2026-04-21T10:49:10.999Z</time></trkpt><trkpt lat="36.981991241196454" lon="-2.213881760619203"><ele>615.0</ele><time>2026-04-21T10:49:11.999Z</time></trkpt><trkpt lat="36.98200214042449" lon="-2.2140114054274522"><ele>615.0</ele><time>2026-04-21T10:49:12.999Z</time></trkpt><trkpt lat="36.98202555157525" lon="-2.2141400417019375"><ele>615.0</ele><time>2026-04-21T10:49:13.999Z</time></trkpt><trkpt lat="36.98202346809558" lon="-2.214265643100181"><ele>612.75</ele><time>2026-04-21T10:49:14.999Z</time></trkpt><trkpt lat="36.98201086521106" lon="-2.2144051846324526"><ele>610.5</ele><time>2026-04-21T10:49:15.999Z</time></trkpt><trkpt lat="36.981989161836374" lon="-2.214548717208482"><ele>608.25</ele><time>2026-04-21T10:49:16.998Z</time></trkpt><trkpt lat="36.98195440409816" lon="-2.2146885432760026"><ele>606.0</ele><time>2026-04-21T10:49:17.998Z</time></trkpt><trkpt lat="36.981918078218825" lon="-2.2148153029424376"><ele>606.3333333333334</ele><time>2026-04-21T10:49:18.998Z</time></trkpt><trkpt lat="36.98188358003815" lon="-2.214924523235832"><ele>606.6666666666666</ele><time>2026-04-21T10:49:19.998Z</time></trkpt><trkpt lat="36.98186027867322" lon="-2.2150276888116234"><ele>607.0</ele><time>2026-04-21T10:49:20.998Z</time></trkpt><trkpt lat="36.98185778761078" lon="-2.215142281403374"><ele>607.3333333333333</ele><time>2026-04-21T10:49:21.998Z</time></trkpt><trkpt lat="36.98186723088146" lon="-2.215254097569049"><ele>607.6666666666666</ele><time>2026-04-21T10:49:22.998Z</time></trkpt><trkpt lat="36.98187238614548" lon="-2.215352112201662"><ele>608.0</ele><time>2026-04-21T10:49:23.998Z</time></trkpt><trkpt lat="36.98188205192679" lon="-2.215433332386004"><ele>608.0</ele><time>2026-04-21T10:49:24.998Z</time></trkpt><trkpt lat="36.98191543675133" lon="-2.215565371383437"><ele>608.0</ele><time>2026-04-21T10:49:26.998Z</time></trkpt><trkpt lat="36.98202196222782" lon="-2.215587362587706"><ele>608.0</ele><time>2026-04-21T10:49:28.998Z</time></trkpt><trkpt lat="36.98209812079327" lon="-2.2154632518416535"><ele>608.0</ele><time>2026-04-21T10:49:30.998Z</time></trkpt><trkpt lat="36.982103462303705" lon="-2.2153667875914023"><ele>608.0</ele><time>2026-04-21T10:49:31.998Z</time></trkpt><trkpt lat="36.98209966211624" lon="-2.2152527214940663"><ele>608.0</ele><time>2026-04-21T10:49:32.998Z</time></trkpt><trkpt lat="36.98210173140986" lon="-2.215130204424438"><ele>608.0</ele><time>2026-04-21T10:49:33.998Z</time></trkpt><trkpt lat="36.982106688802546" lon="-2.2149980109005916"><ele>608.0</ele><time>2026-04-21T10:49:34.998Z</time></trkpt><trkpt lat="36.982142730768885" lon="-2.2148706193910077"><ele>608.0</ele><time>2026-04-21T10:49:35.998Z</time></trkpt><trkpt lat="36.98218667768772" lon="-2.214740004601064"><ele>608.0</ele><time>2026-04-21T10:49:36.998Z</time></trkpt><trkpt lat="36.98222456570183" lon="-2.21460049973604"><ele>607.6</ele><time>2026-04-21T10:49:37.998Z</time></trkpt><trkpt lat="36.982258353091275" lon="-2.214457827418953"><ele>607.1999999999999</ele><time>2026-04-21T10:49:38.998Z</time></trkpt><trkpt lat="36.98228515917463" lon="-2.214329255285833"><ele>606.8</ele><time>2026-04-21T10:49:39.998Z</time></trkpt><trkpt lat="36.982298411511415" lon="-2.2142249391505504"><ele>606.4</ele><time>2026-04-21T10:49:40.998Z</time></trkpt><trkpt lat="36.98230383003942" lon="-2.214137259558508"><ele>606.0</ele><time>2026-04-21T10:49:41.998Z</time></trkpt><trkpt lat="36.98236404579081" lon="-2.214032583225303"><ele>606.0</ele><time>2026-04-21T10:49:43.998Z</time></trkpt><trkpt lat="36.982475383417615" lon="-2.2140788633336568"><ele>606.0</ele><time>2026-04-21T10:49:45.998Z</time></trkpt><trkpt lat="36.982525900715714" lon="-2.2141427037912953"><ele>606.0</ele><time>2026-04-21T10:49:46.998Z</time></trkpt><trkpt lat="36.98256595576108" lon="-2.2142349165300974"><ele>606.0</ele><time>2026-04-21T10:49:47.998Z</time></trkpt><trkpt lat="36.98258841347807" lon="-2.2143399929157757"><ele>606.0</ele><time>2026-04-21T10:49:48.998Z</time></trkpt><trkpt lat="36.98261107333413" lon="-2.214446411406268"><ele>606.0</ele><time>2026-04-21T10:49:49.998Z</time></trkpt><trkpt lat="36.98262203327188" lon="-2.21455996445589"><ele>608.3333333333334</ele><time>2026-04-21T10:49:50.998Z</time></trkpt><trkpt lat="36.98261797180567" lon="-2.2146722259943137"><ele>610.6666666666666</ele><time>2026-04-21T10:49:51.998Z</time></trkpt><trkpt lat="36.98262192249832" lon="-2.214783988593853"><ele>613.0</ele><time>2026-04-21T10:49:52.998Z</time></trkpt><trkpt lat="36.98263862086576" lon="-2.2148829444812996"><ele>615.3333333333333</ele><time>2026-04-21T10:49:53.998Z</time></trkpt><trkpt lat="36.98267146497501" lon="-2.21495894727274"><ele>617.6666666666666</ele><time>2026-04-21T10:49:54.998Z</time></trkpt><trkpt lat="36.98272642074029" lon="-2.2150201985395364"><ele>620.0</ele><time>2026-04-21T10:49:55.998Z</time></trkpt><trkpt lat="36.982792197745546" lon="-2.215093182410886"><ele>620.0</ele><time>2026-04-21T10:49:56.998Z</time></trkpt><trkpt lat="36.98288095188115" lon="-2.2151605647524146"><ele>620.0</ele><time>2026-04-21T10:49:57.998Z</time></trkpt><trkpt lat="36.98298730908741" lon="-2.215229703274851"><ele>620.0</ele><time>2026-04-21T10:49:58.998Z</time></trkpt><trkpt lat="36.983110332514755" lon="-2.2152730961628744"><ele>620.0</ele><time>2026-04-21T10:49:59.998Z</time></trkpt><trkpt lat="36.983225021960905" lon="-2.2153205183596003"><ele>620.0</ele><time>2026-04-21T10:50:00.998Z</time></trkpt><trkpt lat="36.98333025500625" lon="-2.21537407634873"><ele>620.0</ele><time>2026-04-21T10:50:01.998Z</time></trkpt><trkpt lat="36.98342641717802" lon="-2.215443256064084"><ele>620.0</ele><time>2026-04-21T10:50:02.998Z</time></trkpt><trkpt lat="36.983517768942534" lon="-2.2155128448763968"><ele>620.0</ele><time>2026-04-21T10:50:03.998Z</time></trkpt><trkpt lat="36.9835995768671" lon="-2.2155710989396478"><ele>620.0</ele><time>2026-04-21T10:50:04.998Z</time></trkpt><trkpt lat="36.98367033290521" lon="-2.2156097295225403"><ele>622.0</ele><time>2026-04-21T10:50:05.998Z</time></trkpt><trkpt lat="36.98374688261427" lon="-2.2156249457992474"><ele>624.0</ele><time>2026-04-21T10:50:06.998Z</time></trkpt><trkpt lat="36.983820444447005" lon="-2.2155829353626575"><ele>626.0</ele><time>2026-04-21T10:50:07.998Z</time></trkpt><trkpt lat="36.98388622528337" lon="-2.215518939884773"><ele>628.0</ele><time>2026-04-21T10:50:08.998Z</time></trkpt><trkpt lat="36.983938167393305" lon="-2.215437080689714"><ele>630.0</ele><time>2026-04-21T10:50:09.998Z</time></trkpt><trkpt lat="36.98398198881381" lon="-2.2153428378069884"><ele>632.0</ele><time>2026-04-21T10:50:10.998Z</time></trkpt><trkpt lat="36.98403762895104" lon="-2.2152681313665092"><ele>632.0</ele><time>2026-04-21T10:50:11.998Z</time></trkpt><trkpt lat="36.984089377565326" lon="-2.2151944952262625"><ele>632.0</ele><time>2026-04-21T10:50:12.998Z</time></trkpt><trkpt lat="36.98416466649114" lon="-2.2151705761304696"><ele>632.0</ele><time>2026-04-21T10:50:13.998Z</time></trkpt><trkpt lat="36.98425593836871" lon="-2.2151785355978615"><ele>632.0</ele><time>2026-04-21T10:50:14.998Z</time></trkpt><trkpt lat="36.98435218990261" lon="-2.215181719379682"><ele>632.0</ele><time>2026-04-21T10:50:15.998Z</time></trkpt><trkpt lat="36.98444929765328" lon="-2.2151832802446143"><ele>632.0</ele><time>2026-04-21T10:50:16.998Z</time></trkpt><trkpt lat="36.984535951975865" lon="-2.2151444096371007"><ele>633.8333333333333</ele><time>2026-04-21T10:50:17.998Z</time></trkpt><trkpt lat="36.98461625878386" lon="-2.2150958858398786"><ele>635.6666666666666</ele><time>2026-04-21T10:50:18.998Z</time></trkpt><trkpt lat="36.98468932557529" lon="-2.2150636940762025"><ele>637.5</ele><time>2026-04-21T10:50:19.998Z</time></trkpt><trkpt lat="36.98476661403052" lon="-2.2150643575663835"><ele>639.3333333333334</ele><time>2026-04-21T10:50:20.998Z</time></trkpt><trkpt lat="36.9848262882044" lon="-2.2150974377276835"><ele>641.1666666666667</ele><time>2026-04-21T10:50:21.998Z</time></trkpt><trkpt lat="36.984872507801754" lon="-2.2151887112904256"><ele>643.0</ele><time>2026-04-21T10:50:23.998Z</time></trkpt><trkpt lat="36.98480018879412" lon="-2.215310926852982"><ele>643.0</ele><time>2026-04-21T10:50:25.998Z</time></trkpt><trkpt lat="36.98472896986481" lon="-2.2153614711406693"><ele>643.0</ele><time>2026-04-21T10:50:26.998Z</time></trkpt><trkpt lat="36.984661241484936" lon="-2.2154086536542543"><ele>643.0</ele><time>2026-04-21T10:50:27.998Z</time></trkpt><trkpt lat="36.98460306999633" lon="-2.2154605285622617"><ele>643.0</ele><time>2026-04-21T10:50:28.998Z</time></trkpt><trkpt lat="36.98454148429648" lon="-2.2155659598023423"><ele>643.0</ele><time>2026-04-21T10:50:30.998Z</time></trkpt><trkpt lat="36.984565750236925" lon="-2.215668074172015"><ele>643.0</ele><time>2026-04-21T10:50:31.998Z</time></trkpt><trkpt lat="36.98462155658839" lon="-2.215783865803343"><ele>644.5999999999999</ele><time>2026-04-21T10:50:32.998Z</time></trkpt><trkpt lat="36.98467178296029" lon="-2.2159041046583132"><ele>646.1999999999999</ele><time>2026-04-21T10:50:33.998Z</time></trkpt><trkpt lat="36.984711864852216" lon="-2.216017930201871"><ele>647.8</ele><time>2026-04-21T10:50:34.998Z</time></trkpt><trkpt lat="36.98474449860303" lon="-2.2161303953021347"><ele>649.4</ele><time>2026-04-21T10:50:35.998Z</time></trkpt><trkpt lat="36.98475251976176" lon="-2.216245144705312"><ele>651.0</ele><time>2026-04-21T10:50:36.997Z</time></trkpt><trkpt lat="36.984740554310875" lon="-2.216361899372501"><ele>651.0</ele><time>2026-04-21T10:50:37.997Z</time></trkpt><trkpt lat="36.98474406064481" lon="-2.216476881880591"><ele>651.0</ele><time>2026-04-21T10:50:38.997Z</time></trkpt><trkpt lat="36.98475611208012" lon="-2.2165822319791904"><ele>651.0</ele><time>2026-04-21T10:50:39.997Z</time></trkpt><trkpt lat="36.98477101196501" lon="-2.216679520521125"><ele>651.0</ele><time>2026-04-21T10:50:40.997Z</time></trkpt><trkpt lat="36.9848130411282" lon="-2.2167626625570502"><ele>651.0</ele><time>2026-04-21T10:50:41.997Z</time></trkpt><trkpt lat="36.98486137526536" lon="-2.2168372699239827"><ele>651.0</ele><time>2026-04-21T10:50:42.997Z</time></trkpt><trkpt lat="36.98493440424619" lon="-2.216872713938268"><ele>652.5</ele><time>2026-04-21T10:50:43.997Z</time></trkpt><trkpt lat="36.985013487148265" lon="-2.2169138735196214"><ele>654.0</ele><time>2026-04-21T10:50:44.997Z</time></trkpt><trkpt lat="36.985101011870356" lon="-2.216914177775227"><ele>655.5</ele><time>2026-04-21T10:50:45.997Z</time></trkpt><trkpt lat="36.985185975634884" lon="-2.216899158870024"><ele>657.0</ele><time>2026-04-21T10:50:46.997Z</time></trkpt><trkpt lat="36.98525966692055" lon="-2.2168374363041035"><ele>658.5</ele><time>2026-04-21T10:50:47.997Z</time></trkpt><trkpt lat="36.98531565136999" lon="-2.216736343186634"><ele>660.0</ele><time>2026-04-21T10:50:48.997Z</time></trkpt><trkpt lat="36.98536501118371" lon="-2.2166174080337453"><ele>660.0</ele><time>2026-04-21T10:50:49.997Z</time></trkpt><trkpt lat="36.98542609082072" lon="-2.2165242650633195"><ele>660.0</ele><time>2026-04-21T10:50:50.997Z</time></trkpt><trkpt lat="36.98550188531558" lon="-2.2164638133246974"><ele>660.0</ele><time>2026-04-21T10:50:51.997Z</time></trkpt><trkpt lat="36.98557983040328" lon="-2.2164281137952506"><ele>660.0</ele><time>2026-04-21T10:50:52.997Z</time></trkpt><trkpt lat="36.9856812124824" lon="-2.216430880441647"><ele>660.0</ele><time>2026-04-21T10:50:53.997Z</time></trkpt><trkpt lat="36.98579261389725" lon="-2.2164365722484"><ele>661.5</ele><time>2026-04-21T10:50:54.997Z</time></trkpt><trkpt lat="36.98590822094784" lon="-2.2164221632730383"><ele>663.0</ele><time>2026-04-21T10:50:55.997Z</time></trkpt><trkpt lat="36.986026020104774" lon="-2.2164029242632926"><ele>664.5</ele><time>2026-04-21T10:50:56.997Z</time></trkpt><trkpt lat="36.98614366456277" lon="-2.2163833409413884"><ele>666.0</ele><time>2026-04-21T10:50:57.997Z</time></trkpt><trkpt lat="36.9862619230801" lon="-2.216366106442259"><ele>666.0</ele><time>2026-04-21T10:50:58.997Z</time></trkpt><trkpt lat="36.986387070094146" lon="-2.2163769790957875"><ele>666.0</ele><time>2026-04-21T10:50:59.997Z</time></trkpt><trkpt lat="36.986511854769006" lon="-2.2164043285672195"><ele>666.0</ele><time>2026-04-21T10:51:00.997Z</time></trkpt><trkpt lat="36.98663621061213" lon="-2.216444329425469"><ele>666.0</ele><time>2026-04-21T10:51:01.997Z</time></trkpt><trkpt lat="36.98676024048135" lon="-2.216494337107101"><ele>669.1999999999999</ele><time>2026-04-21T10:51:02.997Z</time></trkpt><trkpt lat="36.9868781433096" lon="-2.2165387537676935"><ele>672.4</ele><time>2026-04-21T10:51:03.997Z</time></trkpt><trkpt lat="36.98698415093459" lon="-2.216581423196271"><ele>675.6</ele><time>2026-04-21T10:51:04.997Z</time></trkpt><trkpt lat="36.98707791141058" lon="-2.216626062601811"><ele>678.8</ele><time>2026-04-21T10:51:05.997Z</time></trkpt><trkpt lat="36.98716339132383" lon="-2.216661629337438"><ele>682.0</ele><time>2026-04-21T10:51:06.997Z</time></trkpt><trkpt lat="36.98722903218658" lon="-2.216695022628877"><ele>682.0</ele><time>2026-04-21T10:51:07.997Z</time></trkpt><trkpt lat="36.98732086438215" lon="-2.2167189950101394"><ele>682.0</ele><time>2026-04-21T10:51:09.997Z</time></trkpt><trkpt lat="36.98739721491528" lon="-2.2166517711867515"><ele>682.0</ele><time>2026-04-21T10:51:11.997Z</time></trkpt><trkpt lat="36.987444040017415" lon="-2.216518405034074"><ele>682.0</ele><time>2026-04-21T10:51:13.997Z</time></trkpt><trkpt lat="36.98745856388006" lon="-2.216441061317189"><ele>682.0</ele><time>2026-04-21T10:51:14.997Z</time></trkpt><trkpt lat="36.987460237441724" lon="-2.2163560283322843"><ele>682.0</ele><time>2026-04-21T10:51:15.997Z</time></trkpt><trkpt lat="36.987452041846254" lon="-2.2162775343713688"><ele>683.2</ele><time>2026-04-21T10:51:16.997Z</time></trkpt><trkpt lat="36.98737623937302" lon="-2.2161707618076756"><ele>684.4000000000001</ele><time>2026-04-21T10:51:18.997Z</time></trkpt><trkpt lat="36.98730915832181" lon="-2.216127345986884"><ele>685.5999999999999</ele><time>2026-04-21T10:51:19.997Z</time></trkpt><trkpt lat="36.98723961785036" lon="-2.216065321136862"><ele>686.8</ele><time>2026-04-21T10:51:20.997Z</time></trkpt><trkpt lat="36.98717482004566" lon="-2.215988543751939"><ele>688.0</ele><time>2026-04-21T10:51:21.997Z</time></trkpt><trkpt lat="36.987116302350096" lon="-2.215907116411626"><ele>688.0</ele><time>2026-04-21T10:51:22.997Z</time></trkpt><trkpt lat="36.98707479990651" lon="-2.215811308374344"><ele>688.0</ele><time>2026-04-21T10:51:23.997Z</time></trkpt><trkpt lat="36.98705968560061" lon="-2.2156937615213868"><ele>688.0</ele><time>2026-04-21T10:51:24.997Z</time></trkpt><trkpt lat="36.98706831584545" lon="-2.2155691318933664"><ele>688.0</ele><time>2026-04-21T10:51:25.997Z</time></trkpt><trkpt lat="36.987073939289566" lon="-2.2154527469251795"><ele>688.0</ele><time>2026-04-21T10:51:26.997Z</time></trkpt><trkpt lat="36.987082564688905" lon="-2.2153406342033426"><ele>688.0</ele><time>2026-04-21T10:51:27.997Z</time></trkpt><trkpt lat="36.98709208994591" lon="-2.215244411156644"><ele>688.0</ele><time>2026-04-21T10:51:28.997Z</time></trkpt><trkpt lat="36.98711244652455" lon="-2.215106983804458"><ele>688.0</ele><time>2026-04-21T10:51:30.997Z</time></trkpt><trkpt lat="36.98718344307999" lon="-2.2149636643251642"><ele>688.0</ele><time>2026-04-21T10:51:32.997Z</time></trkpt><trkpt lat="36.98723666574229" lon="-2.2148865941570746"><ele>688.0</ele><time>2026-04-21T10:51:33.997Z</time></trkpt><trkpt lat="36.98729697025456" lon="-2.2148172873566665"><ele>687.6666666666667</ele><time>2026-04-21T10:51:34.997Z</time></trkpt><trkpt lat="36.9873586561085" lon="-2.2147569957630284"><ele>687.3333333333334</ele><time>2026-04-21T10:51:35.997Z</time></trkpt><trkpt lat="36.98742726112192" lon="-2.2147056604844564"><ele>687.0</ele><time>2026-04-21T10:51:36.997Z</time></trkpt><trkpt lat="36.98749154856073" lon="-2.2146484969018014"><ele>686.6666666666666</ele><time>2026-04-21T10:51:37.997Z</time></trkpt><trkpt lat="36.987553908880386" lon="-2.214598160200999"><ele>686.3333333333333</ele><time>2026-04-21T10:51:38.997Z</time></trkpt><trkpt lat="36.98760704445373" lon="-2.2145535853317817"><ele>686.0</ele><time>2026-04-21T10:51:39.997Z</time></trkpt><trkpt lat="36.987695822538505" lon="-2.214458942536788"><ele>686.0</ele><time>2026-04-21T10:51:41.997Z</time></trkpt><trkpt lat="36.987732107014054" lon="-2.214393642591943"><ele>686.0</ele><time>2026-04-21T10:51:42.997Z</time></trkpt><trkpt lat="36.98773144469011" lon="-2.2142622364722384"><ele>686.0</ele><time>2026-04-21T10:51:44.997Z</time></trkpt><trkpt lat="36.98763760455432" lon="-2.214155374824323"><ele>686.0</ele><time>2026-04-21T10:51:46.997Z</time></trkpt><trkpt lat="36.98757564167578" lon="-2.2141174484999855"><ele>686.0</ele><time>2026-04-21T10:51:47.997Z</time></trkpt><trkpt lat="36.98752079573099" lon="-2.214072621790649"><ele>686.0</ele><time>2026-04-21T10:51:48.997Z</time></trkpt><trkpt lat="36.98747238194756" lon="-2.214021892481701"><ele>686.1999999999999</ele><time>2026-04-21T10:51:49.997Z</time></trkpt><trkpt lat="36.98743942994739" lon="-2.2139448547648652"><ele>686.4</ele><time>2026-04-21T10:51:50.997Z</time></trkpt><trkpt lat="36.98741669870505" lon="-2.2138413359040334"><ele>686.6</ele><time>2026-04-21T10:51:51.997Z</time></trkpt><trkpt lat="36.98740479097708" lon="-2.213720705898977"><ele>686.8</ele><time>2026-04-21T10:51:52.997Z</time></trkpt><trkpt lat="36.987389444643824" lon="-2.2135977795710033"><ele>687.0</ele><time>2026-04-21T10:51:53.997Z</time></trkpt><trkpt lat="36.98737477761109" lon="-2.2134746320884666"><ele>687.0</ele><time>2026-04-21T10:51:54.997Z</time></trkpt><trkpt lat="36.987378646591694" lon="-2.213350615962139"><ele>687.0</ele><time>2026-04-21T10:51:55.997Z</time></trkpt><trkpt lat="36.987389083939334" lon="-2.2132292957524515"><ele>687.0</ele><time>2026-04-21T10:51:56.997Z</time></trkpt><trkpt lat="36.98739760349373" lon="-2.213126326322321"><ele>687.0</ele><time>2026-04-21T10:51:57.997Z</time></trkpt><trkpt lat="36.98739570957267" lon="-2.213043881437322"><ele>687.0</ele><time>2026-04-21T10:51:58.997Z</time></trkpt><trkpt lat="36.98741966460713" lon="-2.212898046718355"><ele>689.2</ele><time>2026-04-21T10:52:00.997Z</time></trkpt><trkpt lat="36.98753206517524" lon="-2.212810441787538"><ele>691.4000000000001</ele><time>2026-04-21T10:52:02.997Z</time></trkpt><trkpt lat="36.98760400118573" lon="-2.212762447800668"><ele>693.5999999999999</ele><time>2026-04-21T10:52:03.997Z</time></trkpt><trkpt lat="36.98768228890619" lon="-2.212715121466619"><ele>695.8</ele><time>2026-04-21T10:52:04.997Z</time></trkpt><trkpt lat="36.987759961888415" lon="-2.212664078683341"><ele>698.0</ele><time>2026-04-21T10:52:05.997Z</time></trkpt><trkpt lat="36.987822268911806" lon="-2.21259371216754"><ele>698.0</ele><time>2026-04-21T10:52:06.997Z</time></trkpt><trkpt lat="36.98786351890327" lon="-2.212498778826533"><ele>698.0</ele><time>2026-04-21T10:52:07.997Z</time></trkpt><trkpt lat="36.98788943999333" lon="-2.212390928396016"><ele>698.0</ele><time>2026-04-21T10:52:08.997Z</time></trkpt><trkpt lat="36.987905747964014" lon="-2.21227846350395"><ele>698.0</ele><time>2026-04-21T10:52:09.997Z</time></trkpt><trkpt lat="36.987914678824374" lon="-2.2121694157165344"><ele>698.0</ele><time>2026-04-21T10:52:10.997Z</time></trkpt><trkpt lat="36.98792379835895" lon="-2.2120680465897733"><ele>698.0</ele><time>2026-04-21T10:52:11.997Z</time></trkpt><trkpt lat="36.98793540831408" lon="-2.211960191762378"><ele>698.1666666666666</ele><time>2026-04-21T10:52:12.997Z</time></trkpt><trkpt lat="36.98796411962707" lon="-2.211865180258442"><ele>698.3333333333333</ele><time>2026-04-21T10:52:13.997Z</time></trkpt><trkpt lat="36.98801165551539" lon="-2.2117950435103433"><ele>698.5</ele><time>2026-04-21T10:52:14.996Z</time></trkpt><trkpt lat="36.98806229988787" lon="-2.2117460230394754"><ele>698.6666666666666</ele><time>2026-04-21T10:52:15.996Z</time></trkpt><trkpt lat="36.988194296315214" lon="-2.211744599769332"><ele>698.8333333333334</ele><time>2026-04-21T10:52:17.996Z</time></trkpt><trkpt lat="36.98827018775319" lon="-2.211779616771941"><ele>699.0</ele><time>2026-04-21T10:52:18.996Z</time></trkpt><trkpt lat="36.98834714555397" lon="-2.2118163294322164"><ele>702.0</ele><time>2026-04-21T10:52:19.996Z</time></trkpt><trkpt lat="36.98842641789558" lon="-2.2118518144145174"><ele>705.0</ele><time>2026-04-21T10:52:20.996Z</time></trkpt><trkpt lat="36.98850793059065" lon="-2.2118856916530016"><ele>708.0</ele><time>2026-04-21T10:52:21.996Z</time></trkpt><trkpt lat="36.988591375668214" lon="-2.2119195178578805"><ele>711.0</ele><time>2026-04-21T10:52:22.996Z</time></trkpt><trkpt lat="36.98867149945058" lon="-2.211946432621158"><ele>714.0</ele><time>2026-04-21T10:52:23.996Z</time></trkpt><trkpt lat="36.988737393859644" lon="-2.2119702529400036"><ele>717.0</ele><time>2026-04-21T10:52:24.996Z</time></trkpt><trkpt lat="36.988807671586414" lon="-2.211992821799848"><ele>717.0</ele><time>2026-04-21T10:52:25.996Z</time></trkpt><trkpt lat="36.9888665022336" lon="-2.212055693737493"><ele>717.0</ele><time>2026-04-21T10:52:26.996Z</time></trkpt><trkpt lat="36.98890358014337" lon="-2.212141315054159"><ele>717.0</ele><time>2026-04-21T10:52:27.996Z</time></trkpt><trkpt lat="36.98893423472063" lon="-2.212218192421047"><ele>717.0</ele><time>2026-04-21T10:52:28.996Z</time></trkpt><trkpt lat="36.989012512431934" lon="-2.2123102955326077"><ele>717.0</ele><time>2026-04-21T10:52:30.996Z</time></trkpt><trkpt lat="36.989131473192614" lon="-2.2123287173550863"><ele>722.6</ele><time>2026-04-21T10:52:32.996Z</time></trkpt><trkpt lat="36.98923935905235" lon="-2.212383932358071"><ele>728.2</ele><time>2026-04-21T10:52:34.996Z</time></trkpt><trkpt lat="36.98926787102835" lon="-2.2125174913720604"><ele>733.8</ele><time>2026-04-21T10:52:36.996Z</time></trkpt><trkpt lat="36.98925415926178" lon="-2.212610672378789"><ele>739.4</ele><time>2026-04-21T10:52:37.996Z</time></trkpt><trkpt lat="36.989227843512566" lon="-2.2127016491233706"><ele>745.0</ele><time>2026-04-21T10:52:38.996Z</time></trkpt><trkpt lat="36.98921548884776" lon="-2.212799229875209"><ele>745.0</ele><time>2026-04-21T10:52:39.996Z</time></trkpt><trkpt lat="36.989224526620944" lon="-2.2129116347844175"><ele>745.0</ele><time>2026-04-21T10:52:40.996Z</time></trkpt><trkpt lat="36.989232127892045" lon="-2.2130268157120883"><ele>745.0</ele><time>2026-04-21T10:52:41.996Z</time></trkpt><trkpt lat="36.989241715068324" lon="-2.2131525291150407"><ele>745.0</ele><time>2026-04-21T10:52:42.996Z</time></trkpt><trkpt lat="36.98924955787625" lon="-2.2132845193262805"><ele>745.0</ele><time>2026-04-21T10:52:43.996Z</time></trkpt><trkpt lat="36.989259522242925" lon="-2.213420020039194"><ele>745.2</ele><time>2026-04-21T10:52:44.996Z</time></trkpt><trkpt lat="36.989268087924074" lon="-2.2135484894438346"><ele>745.4</ele><time>2026-04-21T10:52:45.996Z</time></trkpt><trkpt lat="36.98927543226926" lon="-2.2136726843175247"><ele>745.5999999999999</ele><time>2026-04-21T10:52:46.996Z</time></trkpt><trkpt lat="36.98928593087349" lon="-2.2137959352235805"><ele>745.8</ele><time>2026-04-21T10:52:47.996Z</time></trkpt><trkpt lat="36.98929603332387" lon="-2.213916330415597"><ele>746.0</ele><time>2026-04-21T10:52:48.996Z</time></trkpt><trkpt lat="36.98932236694565" lon="-2.2140342933465087"><ele>746.0</ele><time>2026-04-21T10:52:49.996Z</time></trkpt><trkpt lat="36.98937266251608" lon="-2.214146891059845"><ele>746.0</ele><time>2026-04-21T10:52:50.996Z</time></trkpt><trkpt lat="36.98942939505876" lon="-2.214254424391739"><ele>746.0</ele><time>2026-04-21T10:52:51.996Z</time></trkpt><trkpt lat="36.98947721422154" lon="-2.214365260738742"><ele>746.0</ele><time>2026-04-21T10:52:52.996Z</time></trkpt><trkpt lat="36.98951355605649" lon="-2.2144786413789506"><ele>746.0</ele><time>2026-04-21T10:52:53.996Z</time></trkpt><trkpt lat="36.98954435063117" lon="-2.2145945635453894"><ele>746.0</ele><time>2026-04-21T10:52:54.996Z</time></trkpt><trkpt lat="36.98957001274522" lon="-2.214712212818694"><ele>746.0</ele><time>2026-04-21T10:52:55.996Z</time></trkpt><trkpt lat="36.989596460360744" lon="-2.2148302598712855"><ele>746.0</ele><time>2026-04-21T10:52:56.996Z</time></trkpt><trkpt lat="36.98964645613763" lon="-2.2149348733620267"><ele>746.0</ele><time>2026-04-21T10:52:57.996Z</time></trkpt><trkpt lat="36.98971597642948" lon="-2.215027361551241"><ele>746.0</ele><time>2026-04-21T10:52:58.996Z</time></trkpt><trkpt lat="36.98977804457714" lon="-2.215129608852266"><ele>745.4</ele><time>2026-04-21T10:52:59.996Z</time></trkpt><trkpt lat="36.98984081747295" lon="-2.21523118015847"><ele>744.8</ele><time>2026-04-21T10:53:00.996Z</time></trkpt><trkpt lat="36.989915825873155" lon="-2.215309497735978"><ele>744.1999999999999</ele><time>2026-04-21T10:53:01.996Z</time></trkpt><trkpt lat="36.98998673103024" lon="-2.215381302429625"><ele>743.5999999999999</ele><time>2026-04-21T10:53:02.996Z</time></trkpt><trkpt lat="36.99005555856345" lon="-2.215440801177457"><ele>743.0</ele><time>2026-04-21T10:53:03.996Z</time></trkpt><trkpt lat="36.990124895105474" lon="-2.2154752618657714"><ele>745.5999999999999</ele><time>2026-04-21T10:53:04.996Z</time></trkpt><trkpt lat="36.99024496358966" lon="-2.2154768704243426"><ele>748.1999999999999</ele><time>2026-04-21T10:53:06.996Z</time></trkpt><trkpt lat="36.990356020662766" lon="-2.215429216545042"><ele>750.8</ele><time>2026-04-21T10:53:08.996Z</time></trkpt><trkpt lat="36.99041508491654" lon="-2.21535789250571"><ele>753.4</ele><time>2026-04-21T10:53:09.996Z</time></trkpt><trkpt lat="36.99048568313339" lon="-2.215290674352197"><ele>756.0</ele><time>2026-04-21T10:53:10.996Z</time></trkpt><trkpt lat="36.990558359863584" lon="-2.2152193894190377"><ele>756.0</ele><time>2026-04-21T10:53:11.996Z</time></trkpt><trkpt lat="36.99063741885383" lon="-2.2151657057265566"><ele>756.0</ele><time>2026-04-21T10:53:12.996Z</time></trkpt><trkpt lat="36.99071599995184" lon="-2.2151136479372364"><ele>756.0</ele><time>2026-04-21T10:53:13.996Z</time></trkpt><trkpt lat="36.99079811654447" lon="-2.2150684777014282"><ele>756.0</ele><time>2026-04-21T10:53:14.996Z</time></trkpt><trkpt lat="36.99088266633898" lon="-2.215026960548946"><ele>756.0</ele><time>2026-04-21T10:53:15.996Z</time></trkpt><trkpt lat="36.990965051255266" lon="-2.214995843620171"><ele>756.0</ele><time>2026-04-21T10:53:16.996Z</time></trkpt><trkpt lat="36.991049061417186" lon="-2.2149830389833274"><ele>759.8</ele><time>2026-04-21T10:53:17.996Z</time></trkpt><trkpt lat="36.991138438895675" lon="-2.214971021443492"><ele>763.5999999999999</ele><time>2026-04-21T10:53:18.996Z</time></trkpt><trkpt lat="36.99122895558419" lon="-2.2149703738408233"><ele>767.4</ele><time>2026-04-21T10:53:19.996Z</time></trkpt><trkpt lat="36.99132173182718" lon="-2.2149792924328033"><ele>771.2</ele><time>2026-04-21T10:53:20.996Z</time></trkpt><trkpt lat="36.99140919145128" lon="-2.21499848618844"><ele>775.0</ele><time>2026-04-21T10:53:21.996Z</time></trkpt><trkpt lat="36.99149515579171" lon="-2.2150212702278758"><ele>774.9999999999999</ele><time>2026-04-21T10:53:22.996Z</time></trkpt><trkpt lat="36.991582979713534" lon="-2.215052543051869"><ele>775.0</ele><time>2026-04-21T10:53:23.996Z</time></trkpt><trkpt lat="36.99166912673394" lon="-2.2150764274288264"><ele>775.0</ele><time>2026-04-21T10:53:24.996Z</time></trkpt><trkpt lat="36.991750493310164" lon="-2.2150806317429668"><ele>775.0</ele><time>2026-04-21T10:53:25.996Z</time></trkpt><trkpt lat="36.99182899628049" lon="-2.215071987922791"><ele>774.9999999999999</ele><time>2026-04-21T10:53:26.996Z</time></trkpt><trkpt lat="36.99190117039725" lon="-2.215072057853178"><ele>775.0</ele><time>2026-04-21T10:53:27.996Z</time></trkpt><trkpt lat="36.99198050421121" lon="-2.2150790360922095"><ele>779.6</ele><time>2026-04-21T10:53:28.996Z</time></trkpt><trkpt lat="36.99205554677907" lon="-2.215128068861573"><ele>784.2</ele><time>2026-04-21T10:53:29.996Z</time></trkpt><trkpt lat="36.99213716255247" lon="-2.2151936149917004"><ele>788.8</ele><time>2026-04-21T10:53:30.996Z</time></trkpt><trkpt lat="36.992219503650155" lon="-2.2152787117456554"><ele>793.4</ele><time>2026-04-21T10:53:31.996Z</time></trkpt><trkpt lat="36.992306410444144" lon="-2.215365371016844"><ele>798.0</ele><time>2026-04-21T10:53:32.996Z</time></trkpt><trkpt lat="36.99239710158328" lon="-2.2154493526540215"><ele>798.0</ele><time>2026-04-21T10:53:33.996Z</time></trkpt><trkpt lat="36.992487181174965" lon="-2.2155322516655125"><ele>798.0</ele><time>2026-04-21T10:53:34.996Z</time></trkpt><trkpt lat="36.99258892945525" lon="-2.2156140033458946"><ele>798.0</ele><time>2026-04-21T10:53:35.996Z</time></trkpt><trkpt lat="36.99270961247793" lon="-2.2156551045983113"><ele>798.0</ele><time>2026-04-21T10:53:36.996Z</time></trkpt><trkpt lat="36.99282623305798" lon="-2.2156926661078646"><ele>795.4</ele><time>2026-04-21T10:53:37.996Z</time></trkpt><trkpt lat="36.99292679819299" lon="-2.2157176822547124"><ele>792.8</ele><time>2026-04-21T10:53:38.996Z</time></trkpt><trkpt lat="36.99301292463257" lon="-2.215741350807525"><ele>790.2</ele><time>2026-04-21T10:53:39.996Z</time></trkpt><trkpt lat="36.99309409002891" lon="-2.2157948535480467"><ele>787.6</ele><time>2026-04-21T10:53:40.996Z</time></trkpt><trkpt lat="36.99316414492146" lon="-2.2158721923181215"><ele>785.0</ele><time>2026-04-21T10:53:41.996Z</time></trkpt><trkpt lat="36.9932296177739" lon="-2.215966104075135"><ele>785.0</ele><time>2026-04-21T10:53:42.996Z</time></trkpt><trkpt lat="36.99330346819914" lon="-2.216060733207211"><ele>785.0</ele><time>2026-04-21T10:53:43.996Z</time></trkpt><trkpt lat="36.99338906165701" lon="-2.2161472934101107"><ele>785.0</ele><time>2026-04-21T10:53:44.996Z</time></trkpt><trkpt lat="36.9934881386935" lon="-2.216210365311597"><ele>785.0</ele><time>2026-04-21T10:53:45.996Z</time></trkpt><trkpt lat="36.99358017558002" lon="-2.2162806656053866"><ele>785.0</ele><time>2026-04-21T10:53:46.996Z</time></trkpt><trkpt lat="36.9936762303237" lon="-2.216345001231067"><ele>783.0</ele><time>2026-04-21T10:53:47.996Z</time></trkpt><trkpt lat="36.99376684602918" lon="-2.216415804932231"><ele>781.0</ele><time>2026-04-21T10:53:48.996Z</time></trkpt><trkpt lat="36.9938446297447" lon="-2.216483885185674"><ele>779.0</ele><time>2026-04-21T10:53:49.996Z</time></trkpt><trkpt lat="36.99391714178695" lon="-2.216545260478419"><ele>777.0</ele><time>2026-04-21T10:53:50.996Z</time></trkpt><trkpt lat="36.993984035434394" lon="-2.2166144919062103"><ele>775.0</ele><time>2026-04-21T10:53:51.995Z</time></trkpt><trkpt lat="36.994036940515755" lon="-2.2166940757171867"><ele>774.9999999999999</ele><time>2026-04-21T10:53:53.001Z</time></trkpt><trkpt lat="36.994057840777806" lon="-2.216794640684218"><ele>775.0</ele><time>2026-04-21T10:53:54.001Z</time></trkpt><trkpt lat="36.99406999884317" lon="-2.216898440603202"><ele>775.0</ele><time>2026-04-21T10:53:55.001Z</time></trkpt><trkpt lat="36.99408427626425" lon="-2.217008382406999"><ele>775.0</ele><time>2026-04-21T10:53:56.001Z</time></trkpt><trkpt lat="36.99409859145507" lon="-2.2171196420820016"><ele>774.9999999999999</ele><time>2026-04-21T10:53:57.001Z</time></trkpt><trkpt lat="36.994139147266544" lon="-2.2172190916106764"><ele>775.0</ele><time>2026-04-21T10:53:58.001Z</time></trkpt><trkpt lat="36.994203310748226" lon="-2.21730704846692"><ele>775.0</ele><time>2026-04-21T10:53:59.001Z</time></trkpt><trkpt lat="36.994290216043446" lon="-2.2173652131155173"><ele>775.0</ele><time>2026-04-21T10:54:00.001Z</time></trkpt><trkpt lat="36.99438018524125" lon="-2.217397410325086"><ele>775.0</ele><time>2026-04-21T10:54:01.001Z</time></trkpt><trkpt lat="36.9944611993156" lon="-2.217429413506137"><ele>775.0</ele><time>2026-04-21T10:54:02.001Z</time></trkpt><trkpt lat="36.99452562840222" lon="-2.2174577108165874"><ele>775.0</ele><time>2026-04-21T10:54:03.001Z</time></trkpt><trkpt lat="36.99461405636193" lon="-2.2175267694420113"><ele>775.0</ele><time>2026-04-21T10:54:05.001Z</time></trkpt><trkpt lat="36.99465708803211" lon="-2.217662854911067"><ele>775.0</ele><time>2026-04-21T10:54:07.001Z</time></trkpt><trkpt lat="36.99463517625459" lon="-2.2178207596673"><ele>775.0</ele><time>2026-04-21T10:54:09Z</time></trkpt><trkpt lat="36.99459298866107" lon="-2.217915687329926"><ele>775.0</ele><time>2026-04-21T10:54:10Z</time></trkpt><trkpt lat="36.99456007520108" lon="-2.218025620736657"><ele>775.0</ele><time>2026-04-21T10:54:11Z</time></trkpt><trkpt lat="36.99454007322914" lon="-2.218147660515841"><ele>776.4</ele><time>2026-04-21T10:54:12Z</time></trkpt><trkpt lat="36.9945329419786" lon="-2.2182844430007944"><ele>777.8</ele><time>2026-04-21T10:54:13Z</time></trkpt><trkpt lat="36.99453164307856" lon="-2.2184223138639516"><ele>779.2</ele><time>2026-04-21T10:54:14Z</time></trkpt><trkpt lat="36.994532341966824" lon="-2.2185603618035183"><ele>780.6</ele><time>2026-04-21T10:54:15Z</time></trkpt><trkpt lat="36.99456326124971" lon="-2.2186956566542175"><ele>782.0</ele><time>2026-04-21T10:54:16Z</time></trkpt><trkpt lat="36.99459547024448" lon="-2.2188335309167253"><ele>782.0</ele><time>2026-04-21T10:54:17Z</time></trkpt><trkpt lat="36.9946258884521" lon="-2.2189716990174033"><ele>782.0</ele><time>2026-04-21T10:54:18Z</time></trkpt><trkpt lat="36.99466037774501" lon="-2.2191092506192183"><ele>782.0</ele><time>2026-04-21T10:54:19Z</time></trkpt><trkpt lat="36.99469842310772" lon="-2.219235569325302"><ele>782.0</ele><time>2026-04-21T10:54:20Z</time></trkpt><trkpt lat="36.99473274521608" lon="-2.2193539925781907"><ele>782.0</ele><time>2026-04-21T10:54:21Z</time></trkpt><trkpt lat="36.994766166830175" lon="-2.2194758353786628"><ele>783.0</ele><time>2026-04-21T10:54:22Z</time></trkpt><trkpt lat="36.99478155519793" lon="-2.2196099144811687"><ele>784.0</ele><time>2026-04-21T10:54:23Z</time></trkpt><trkpt lat="36.994778892700154" lon="-2.219748446651445"><ele>785.0</ele><time>2026-04-21T10:54:24Z</time></trkpt><trkpt lat="36.99476884860733" lon="-2.2198970330116126"><ele>786.0</ele><time>2026-04-21T10:54:25Z</time></trkpt><trkpt lat="36.994756299604205" lon="-2.2200571510462344"><ele>788.0</ele><time>2026-04-21T10:54:26Z</time></trkpt><trkpt lat="36.99474428515327" lon="-2.2202273659739054"><ele>790.0</ele><time>2026-04-21T10:54:27Z</time></trkpt><trkpt lat="36.99473194995907" lon="-2.2204030949609312"><ele>792.0</ele><time>2026-04-21T10:54:28Z</time></trkpt><trkpt lat="36.994726469037204" lon="-2.2205741109225934"><ele>794.0</ele><time>2026-04-21T10:54:29Z</time></trkpt><trkpt lat="36.994718105217636" lon="-2.220738195576131"><ele>795.0</ele><time>2026-04-21T10:54:30Z</time></trkpt><trkpt lat="36.994698015854524" lon="-2.2208964258652624"><ele>796.0</ele><time>2026-04-21T10:54:31Z</time></trkpt><trkpt lat="36.99467997155193" lon="-2.2210485333001957"><ele>797.0</ele><time>2026-04-21T10:54:32Z</time></trkpt><trkpt lat="36.99465119839068" lon="-2.2211965551772876"><ele>798.0</ele><time>2026-04-21T10:54:33Z</time></trkpt><trkpt lat="36.99461766423464" lon="-2.221338595289672"><ele>798.0</ele><time>2026-04-21T10:54:34Z</time></trkpt><trkpt lat="36.99458829736346" lon="-2.2214818045792826"><ele>798.0</ele><time>2026-04-21T10:54:35Z</time></trkpt><trkpt lat="36.99456814900988" lon="-2.22162706603728"><ele>798.0</ele><time>2026-04-21T10:54:36Z</time></trkpt><trkpt lat="36.994565150485535" lon="-2.2217741362128636"><ele>798.0</ele><time>2026-04-21T10:54:37Z</time></trkpt><trkpt lat="36.994569293718186" lon="-2.221922613601216"><ele>800.0</ele><time>2026-04-21T10:54:38Z</time></trkpt><trkpt lat="36.99458288457757" lon="-2.222066519174888"><ele>802.0</ele><time>2026-04-21T10:54:39Z</time></trkpt><trkpt lat="36.99460610913922" lon="-2.222207496834789"><ele>804.0</ele><time>2026-04-21T10:54:40Z</time></trkpt><trkpt lat="36.99464595819757" lon="-2.2223376309716327"><ele>806.0</ele><time>2026-04-21T10:54:41Z</time></trkpt><trkpt lat="36.99469491445458" lon="-2.222468548325149"><ele>808.5999999999999</ele><time>2026-04-21T10:54:42Z</time></trkpt><trkpt lat="36.994746688365744" lon="-2.2225967667963373"><ele>811.2</ele><time>2026-04-21T10:54:43Z</time></trkpt><trkpt lat="36.99478771895797" lon="-2.2227179560517922"><ele>813.8</ele><time>2026-04-21T10:54:44Z</time></trkpt><trkpt lat="36.994821566900406" lon="-2.222829322474075"><ele>816.4000000000001</ele><time>2026-04-21T10:54:45Z</time></trkpt><trkpt lat="36.994849465476825" lon="-2.222932410266564"><ele>819.0</ele><time>2026-04-21T10:54:45.999Z</time></trkpt><trkpt lat="36.99487272438683" lon="-2.223027732317696"><ele>819.0</ele><time>2026-04-21T10:54:46.999Z</time></trkpt><trkpt lat="36.99488742702313" lon="-2.223118950376385"><ele>819.0</ele><time>2026-04-21T10:54:47.999Z</time></trkpt><trkpt lat="36.99490101289373" lon="-2.2232065256207103"><ele>819.0</ele><time>2026-04-21T10:54:48.999Z</time></trkpt><trkpt lat="36.994907083896585" lon="-2.2232948540218747"><ele>819.0</ele><time>2026-04-21T10:54:49.999Z</time></trkpt><trkpt lat="36.994924441734554" lon="-2.2233788906601766"><ele>819.0</ele><time>2026-04-21T10:54:50.999Z</time></trkpt><trkpt lat="36.99496604668655" lon="-2.2234419426624665"><ele>819.0</ele><time>2026-04-21T10:54:51.999Z</time></trkpt><trkpt lat="36.995028560297996" lon="-2.2234720090968945"><ele>819.0</ele><time>2026-04-21T10:54:52.999Z</time></trkpt><trkpt lat="36.99510155580793" lon="-2.2234848408659076"><ele>824.6666666666666</ele><time>2026-04-21T10:54:53.999Z</time></trkpt><trkpt lat="36.995183247535664" lon="-2.223483823353179"><ele>830.3333333333333</ele><time>2026-04-21T10:54:54.999Z</time></trkpt><trkpt lat="36.99527255300611" lon="-2.223481312131665"><ele>836.0</ele><time>2026-04-21T10:54:55.999Z</time></trkpt><trkpt lat="36.99536193955312" lon="-2.2234829005920353"><ele>841.6666666666666</ele><time>2026-04-21T10:54:56.999Z</time></trkpt><trkpt lat="36.9954489256579" lon="-2.2234920439073993"><ele>847.3333333333333</ele><time>2026-04-21T10:54:57.999Z</time></trkpt><trkpt lat="36.99553246062025" lon="-2.223500094473139"><ele>853.0</ele><time>2026-04-21T10:54:58.999Z</time></trkpt><trkpt lat="36.99560991592306" lon="-2.223494847577922"><ele>852.9999999999999</ele><time>2026-04-21T10:54:59.999Z</time></trkpt><trkpt lat="36.99569158766899" lon="-2.2234802847050568"><ele>853.0</ele><time>2026-04-21T10:55:00.999Z</time></trkpt><trkpt lat="36.995767157906215" lon="-2.223434048362115"><ele>853.0</ele><time>2026-04-21T10:55:01.999Z</time></trkpt><trkpt lat="36.99583196977696" lon="-2.223376651885497"><ele>853.0</ele><time>2026-04-21T10:55:02.999Z</time></trkpt><trkpt lat="36.99588187893342" lon="-2.223293807932814"><ele>852.9999999999999</ele><time>2026-04-21T10:55:03.999Z</time></trkpt><trkpt lat="36.99592899841751" lon="-2.223172457320958"><ele>853.0</ele><time>2026-04-21T10:55:04.999Z</time></trkpt><trkpt lat="36.99597072688175" lon="-2.223043762170975"><ele>851.6666666666666</ele><time>2026-04-21T10:55:05.999Z</time></trkpt><trkpt lat="36.99601403680346" lon="-2.22294029718015"><ele>850.3333333333333</ele><time>2026-04-21T10:55:06.999Z</time></trkpt><trkpt lat="36.996056395317595" lon="-2.2228566445696076"><ele>849.0</ele><time>2026-04-21T10:55:07.999Z</time></trkpt><trkpt lat="36.99610136317941" lon="-2.222796454421765"><ele>847.6666666666667</ele><time>2026-04-21T10:55:08.999Z</time></trkpt><trkpt lat="36.996205329106964" lon="-2.222777077825968"><ele>846.3333333333334</ele><time>2026-04-21T10:55:10.999Z</time></trkpt><trkpt lat="36.9962747089732" lon="-2.2228123958508306"><ele>845.0</ele><time>2026-04-21T10:55:11.999Z</time></trkpt><trkpt lat="36.996365572379595" lon="-2.2228301826852026"><ele>845.0</ele><time>2026-04-21T10:55:12.999Z</time></trkpt><trkpt lat="36.99646212695703" lon="-2.2228648652969922"><ele>845.0</ele><time>2026-04-21T10:55:13.999Z</time></trkpt><trkpt lat="36.9965668580858" lon="-2.2228847544369073"><ele>845.0</ele><time>2026-04-21T10:55:14.999Z</time></trkpt><trkpt lat="36.99666277568947" lon="-2.222912329637825"><ele>845.0</ele><time>2026-04-21T10:55:15.999Z</time></trkpt><trkpt lat="36.996752723985736" lon="-2.222933976121008"><ele>845.0</ele><time>2026-04-21T10:55:16.999Z</time></trkpt><trkpt lat="36.99683070682727" lon="-2.222959498882084"><ele>846.0000000000001</ele><time>2026-04-21T10:55:17.999Z</time></trkpt><trkpt lat="36.99689248465816" lon="-2.222976583998874"><ele>847.0</ele><time>2026-04-21T10:55:18.999Z</time></trkpt><trkpt lat="36.9969964787356" lon="-2.2230081741228918"><ele>848.0</ele><time>2026-04-21T10:55:20.999Z</time></trkpt><trkpt lat="36.99706718303477" lon="-2.223016752433864"><ele>849.0</ele><time>2026-04-21T10:55:22.999Z</time></trkpt><trkpt lat="36.997124734070624" lon="-2.223089376380201"><ele>850.0000000000001</ele><time>2026-04-21T10:55:25.999Z</time></trkpt><trkpt lat="36.997174992059826" lon="-2.223226160191535"><ele>851.0</ele><time>2026-04-21T10:55:27.999Z</time></trkpt><trkpt lat="36.99720900560297" lon="-2.22331202268863"><ele>851.0000000000001</ele><time>2026-04-21T10:55:28.999Z</time></trkpt><trkpt lat="36.99724199700658" lon="-2.223398535034991"><ele>851.0</ele><time>2026-04-21T10:55:29.999Z</time></trkpt><trkpt lat="36.99727611332266" lon="-2.2235028149237626"><ele>851.0</ele><time>2026-04-21T10:55:30.999Z</time></trkpt><trkpt lat="36.99729519559008" lon="-2.22361044532407"><ele>851.0</ele><time>2026-04-21T10:55:31.999Z</time></trkpt><trkpt lat="36.997306399650455" lon="-2.2237001403347247"><ele>851.0000000000001</ele><time>2026-04-21T10:55:32.999Z</time></trkpt><trkpt lat="36.997304209452395" lon="-2.223794742742239"><ele>851.0</ele><time>2026-04-21T10:55:33.999Z</time></trkpt><trkpt lat="36.997298938576954" lon="-2.223896286384249"><ele>853.8</ele><time>2026-04-21T10:55:34.999Z</time></trkpt><trkpt lat="36.99730652924157" lon="-2.224023032858125"><ele>856.5999999999999</ele><time>2026-04-21T10:55:35.999Z</time></trkpt><trkpt lat="36.997330873917825" lon="-2.224150223462863"><ele>859.4</ele><time>2026-04-21T10:55:36.999Z</time></trkpt><trkpt lat="36.9973808939602" lon="-2.2242709003528347"><ele>862.2</ele><time>2026-04-21T10:55:37.999Z</time></trkpt><trkpt lat="36.997436943953915" lon="-2.2243887869329733"><ele>865.0</ele><time>2026-04-21T10:55:38.999Z</time></trkpt><trkpt lat="36.99748726010041" lon="-2.224506560045394"><ele>860.8</ele><time>2026-04-21T10:55:39.999Z</time></trkpt><trkpt lat="36.99753162509387" lon="-2.224629328356484"><ele>856.6</ele><time>2026-04-21T10:55:40.999Z</time></trkpt><trkpt lat="36.99757199987251" lon="-2.224757960049047"><ele>852.4000000000001</ele><time>2026-04-21T10:55:41.999Z</time></trkpt><trkpt lat="36.99760582026301" lon="-2.2248816211799474"><ele>848.2</ele><time>2026-04-21T10:55:42.999Z</time></trkpt><trkpt lat="36.997623575388424" lon="-2.225008121561552"><ele>844.0</ele><time>2026-04-21T10:55:43.999Z</time></trkpt><trkpt lat="36.99762481749443" lon="-2.2251283968802005"><ele>844.0</ele><time>2026-04-21T10:55:44.999Z</time></trkpt><trkpt lat="36.99762144712257" lon="-2.225257397318974"><ele>844.0</ele><time>2026-04-21T10:55:45.999Z</time></trkpt><trkpt lat="36.99760227549311" lon="-2.2253880374682367"><ele>844.0</ele><time>2026-04-21T10:55:46.999Z</time></trkpt><trkpt lat="36.99757942346455" lon="-2.2255172917886386"><ele>844.0</ele><time>2026-04-21T10:55:47.999Z</time></trkpt><trkpt lat="36.997560679153715" lon="-2.225648897355398"><ele>844.0</ele><time>2026-04-21T10:55:48.999Z</time></trkpt><trkpt lat="36.99754238202909" lon="-2.225785593100688"><ele>846.25</ele><time>2026-04-21T10:55:49.999Z</time></trkpt><trkpt lat="36.997524256094266" lon="-2.22592676338371"><ele>848.5</ele><time>2026-04-21T10:55:50.999Z</time></trkpt><trkpt lat="36.99749305836005" lon="-2.2260712862371737"><ele>850.75</ele><time>2026-04-21T10:55:51.999Z</time></trkpt><trkpt lat="36.997437005343336" lon="-2.2262177594979637"><ele>853.0</ele><time>2026-04-21T10:55:52.999Z</time></trkpt><trkpt lat="36.99738554436541" lon="-2.2263717171964514"><ele>859.0</ele><time>2026-04-21T10:55:53.999Z</time></trkpt><trkpt lat="36.99733741109787" lon="-2.226534558770871"><ele>865.0</ele><time>2026-04-21T10:55:54.999Z</time></trkpt><trkpt lat="36.99729908361188" lon="-2.226702089849749"><ele>871.0</ele><time>2026-04-21T10:55:55.999Z</time></trkpt><trkpt lat="36.99726085675013" lon="-2.226857251558876"><ele>877.0</ele><time>2026-04-21T10:55:56.999Z</time></trkpt><trkpt lat="36.99721136483164" lon="-2.226992593434317"><ele>877.0</ele><time>2026-04-21T10:55:57.999Z</time></trkpt><trkpt lat="36.99716268742062" lon="-2.2271167991671668"><ele>877.0</ele><time>2026-04-21T10:55:58.999Z</time></trkpt><trkpt lat="36.99711498288547" lon="-2.2272287107910382"><ele>877.0</ele><time>2026-04-21T10:55:59.999Z</time></trkpt><trkpt lat="36.9970751090368" lon="-2.2273261142243976"><ele>877.0</ele><time>2026-04-21T10:56:00.999Z</time></trkpt><trkpt lat="36.997041706847824" lon="-2.227414179323522"><ele>877.0</ele><time>2026-04-21T10:56:01.999Z</time></trkpt><trkpt lat="36.99702644246475" lon="-2.2275079017248998"><ele>878.0</ele><time>2026-04-21T10:56:02.998Z</time></trkpt><trkpt lat="36.99704501740345" lon="-2.2276210461597583"><ele>879.0</ele><time>2026-04-21T10:56:03.998Z</time></trkpt><trkpt lat="36.99707968376359" lon="-2.227756415916677"><ele>880.0</ele><time>2026-04-21T10:56:04.998Z</time></trkpt><trkpt lat="36.99712277651988" lon="-2.2279107114894976"><ele>881.0</ele><time>2026-04-21T10:56:05.998Z</time></trkpt><trkpt lat="36.99716203867003" lon="-2.2280624141750045"><ele>882.5</ele><time>2026-04-21T10:56:06.998Z</time></trkpt><trkpt lat="36.99720218506282" lon="-2.228206472239477"><ele>884.0</ele><time>2026-04-21T10:56:07.998Z</time></trkpt><trkpt lat="36.99723568678571" lon="-2.2283416309036377"><ele>885.5</ele><time>2026-04-21T10:56:08.998Z</time></trkpt><trkpt lat="36.99725851175749" lon="-2.228476071036616"><ele>887.0</ele><time>2026-04-21T10:56:09.998Z</time></trkpt><trkpt lat="36.99728185930155" lon="-2.228609128300343"><ele>887.0</ele><time>2026-04-21T10:56:10.998Z</time></trkpt><trkpt lat="36.99731908168645" lon="-2.2287380589394177"><ele>887.0</ele><time>2026-04-21T10:56:11.998Z</time></trkpt><trkpt lat="36.997374828351425" lon="-2.22885911158192"><ele>887.0</ele><time>2026-04-21T10:56:12.998Z</time></trkpt><trkpt lat="36.99743561137268" lon="-2.228979367238634"><ele>887.0</ele><time>2026-04-21T10:56:13.998Z</time></trkpt><trkpt lat="36.99751337973589" lon="-2.22909668329742"><ele>886.0</ele><time>2026-04-21T10:56:14.998Z</time></trkpt><trkpt lat="36.99759424470508" lon="-2.229220154449522"><ele>885.0</ele><time>2026-04-21T10:56:15.998Z</time></trkpt><trkpt lat="36.99766812301472" lon="-2.2293347518875875"><ele>884.0</ele><time>2026-04-21T10:56:16.998Z</time></trkpt><trkpt lat="36.99773499627638" lon="-2.229439961398292"><ele>883.0</ele><time>2026-04-21T10:56:17.998Z</time></trkpt><trkpt lat="36.99780088846362" lon="-2.2295480272261674"><ele>883.0</ele><time>2026-04-21T10:56:18.998Z</time></trkpt><trkpt lat="36.99786436395092" lon="-2.2296617296642682"><ele>883.0</ele><time>2026-04-21T10:56:19.998Z</time></trkpt><trkpt lat="36.9979016273385" lon="-2.229803043181043"><ele>883.0</ele><time>2026-04-21T10:56:20.998Z</time></trkpt><trkpt lat="36.99793180944085" lon="-2.229955555659527"><ele>883.0</ele><time>2026-04-21T10:56:21.998Z</time></trkpt><trkpt lat="36.997977981118936" lon="-2.230108997094886"><ele>886.0</ele><time>2026-04-21T10:56:22.998Z</time></trkpt><trkpt lat="36.99803766167639" lon="-2.230258650260714"><ele>889.0</ele><time>2026-04-21T10:56:23.998Z</time></trkpt><trkpt lat="36.99808787626592" lon="-2.230410761963963"><ele>892.0</ele><time>2026-04-21T10:56:24.998Z</time></trkpt><trkpt lat="36.99812732403907" lon="-2.230562679241062"><ele>895.0</ele><time>2026-04-21T10:56:25.998Z</time></trkpt><trkpt lat="36.998157432106076" lon="-2.2307078699247103"><ele>896.0</ele><time>2026-04-21T10:56:26.998Z</time></trkpt><trkpt lat="36.99819448031401" lon="-2.230849579644394"><ele>897.0</ele><time>2026-04-21T10:56:27.998Z</time></trkpt><trkpt lat="36.99822699348072" lon="-2.2309876096778747"><ele>898.0</ele><time>2026-04-21T10:56:28.998Z</time></trkpt><trkpt lat="36.99830142455749" lon="-2.231094543850165"><ele>899.0</ele><time>2026-04-21T10:56:29.998Z</time></trkpt><trkpt lat="36.99838557461933" lon="-2.231185795016906"><ele>899.0</ele><time>2026-04-21T10:56:30.998Z</time></trkpt><trkpt lat="36.9984649904213" lon="-2.2312699980016997"><ele>899.0000000000001</ele><time>2026-04-21T10:56:31.998Z</time></trkpt><trkpt lat="36.99854031377716" lon="-2.231367526637381"><ele>899.0000000000001</ele><time>2026-04-21T10:56:32.998Z</time></trkpt><trkpt lat="36.99862225968873" lon="-2.231475856886579"><ele>899.0</ele><time>2026-04-21T10:56:33.998Z</time></trkpt><trkpt lat="36.99867567906765" lon="-2.2316052938479722"><ele>899.0</ele><time>2026-04-21T10:56:34.998Z</time></trkpt><trkpt lat="36.99872700093038" lon="-2.23172165403158"><ele>900.3333333333334</ele><time>2026-04-21T10:56:35.998Z</time></trkpt><trkpt lat="36.99878204583426" lon="-2.2318157393485145"><ele>901.6666666666667</ele><time>2026-04-21T10:56:36.998Z</time></trkpt><trkpt lat="36.998831989886526" lon="-2.2319000257351114"><ele>903.0</ele><time>2026-04-21T10:56:37.998Z</time></trkpt><trkpt lat="36.99887424270016" lon="-2.2319763626204594"><ele>904.3333333333333</ele><time>2026-04-21T10:56:38.998Z</time></trkpt><trkpt lat="36.99891328623914" lon="-2.232040774059403"><ele>905.6666666666666</ele><time>2026-04-21T10:56:39.998Z</time></trkpt><trkpt lat="36.998997900945376" lon="-2.2321400441963664"><ele>907.0</ele><time>2026-04-21T10:56:41.998Z</time></trkpt><trkpt lat="36.999082500146216" lon="-2.2322413111125967"><ele>903.2</ele><time>2026-04-21T10:56:43.998Z</time></trkpt><trkpt lat="36.999170648032354" lon="-2.232329616151971"><ele>899.4000000000001</ele><time>2026-04-21T10:56:45.998Z</time></trkpt><trkpt lat="36.9992417985127" lon="-2.232423065018281"><ele>895.5999999999999</ele><time>2026-04-21T10:56:47.998Z</time></trkpt><trkpt lat="36.99933604161963" lon="-2.2324680232897722"><ele>891.8</ele><time>2026-04-21T10:56:49.998Z</time></trkpt><trkpt lat="36.999441559922715" lon="-2.2324429107446506"><ele>888.0</ele><time>2026-04-21T10:56:51.998Z</time></trkpt><trkpt lat="36.99955250689843" lon="-2.232435790609034"><ele>888.0</ele><time>2026-04-21T10:56:53.998Z</time></trkpt><trkpt lat="36.99966035859127" lon="-2.2324385134196376"><ele>888.0</ele><time>2026-04-21T10:56:55.998Z</time></trkpt><trkpt lat="36.99975979320699" lon="-2.232426046553878"><ele>888.0</ele><time>2026-04-21T10:56:57.998Z</time></trkpt><trkpt lat="36.99982419648253" lon="-2.232356424843105"><ele>888.0</ele><time>2026-04-21T10:56:59.998Z</time></trkpt><trkpt lat="36.99988752166929" lon="-2.232334331127716"><ele>888.0</ele><time>2026-04-21T10:57:01.998Z</time></trkpt><trkpt lat="36.99989603921966" lon="-2.2324344249668178"><ele>888.0</ele><time>2026-04-21T10:57:04.998Z</time></trkpt><trkpt lat="36.999834496721554" lon="-2.2325625732693033"><ele>888.0</ele><time>2026-04-21T10:57:06.998Z</time></trkpt><trkpt lat="36.99978399620249" lon="-2.23266718296712"><ele>888.0</ele><time>2026-04-21T10:57:07.998Z</time></trkpt><trkpt lat="36.99972183168568" lon="-2.232781865145693"><ele>888.0</ele><time>2026-04-21T10:57:08.998Z</time></trkpt><trkpt lat="36.99966927701771" lon="-2.2329008185542"><ele>888.0</ele><time>2026-04-21T10:57:09.998Z</time></trkpt><trkpt lat="36.999625483644955" lon="-2.2330109590335567"><ele>888.0</ele><time>2026-04-21T10:57:10.998Z</time></trkpt><trkpt lat="36.99959410403754" lon="-2.233111360343744"><ele>885.0</ele><time>2026-04-21T10:57:11.998Z</time></trkpt><trkpt lat="36.99957508161332" lon="-2.2332064291569407"><ele>882.0</ele><time>2026-04-21T10:57:12.998Z</time></trkpt><trkpt lat="36.99954496699068" lon="-2.2332928773144007"><ele>879.0</ele><time>2026-04-21T10:57:13.998Z</time></trkpt><trkpt lat="36.99950778101163" lon="-2.2333740209539528"><ele>876.0</ele><time>2026-04-21T10:57:14.998Z</time></trkpt><trkpt lat="36.999476130839575" lon="-2.2334501651574166"><ele>873.0</ele><time>2026-04-21T10:57:15.998Z</time></trkpt><trkpt lat="36.99945883212205" lon="-2.2335393890520496"><ele>870.0</ele><time>2026-04-21T10:57:16.998Z</time></trkpt><trkpt lat="36.99946158571941" lon="-2.233648095511817"><ele>870.0</ele><time>2026-04-21T10:57:17.998Z</time></trkpt><trkpt lat="36.9994768749728" lon="-2.2337653526551122"><ele>870.0</ele><time>2026-04-21T10:57:18.998Z</time></trkpt><trkpt lat="36.999502234888894" lon="-2.2338591283751446"><ele>870.0</ele><time>2026-04-21T10:57:19.998Z</time></trkpt><trkpt lat="36.99956935871621" lon="-2.233912190829376"><ele>870.0</ele><time>2026-04-21T10:57:20.998Z</time></trkpt><trkpt lat="36.9996313163904" lon="-2.2339896062346836"><ele>870.0</ele><time>2026-04-21T10:57:21.998Z</time></trkpt><trkpt lat="36.999686324112375" lon="-2.2340787823045956"><ele>870.0</ele><time>2026-04-21T10:57:22.998Z</time></trkpt><trkpt lat="36.99972507242707" lon="-2.2341659769884528"><ele>871.0</ele><time>2026-04-21T10:57:23.998Z</time></trkpt><trkpt lat="36.99975678988743" lon="-2.234267996474906"><ele>872.0</ele><time>2026-04-21T10:57:24.997Z</time></trkpt><trkpt lat="36.999809404393176" lon="-2.2343752862046062"><ele>873.0</ele><time>2026-04-21T10:57:25.997Z</time></trkpt><trkpt lat="36.99987784629744" lon="-2.234483027506725"><ele>874.0</ele><time>2026-04-21T10:57:26.997Z</time></trkpt><trkpt lat="36.99995615368642" lon="-2.2345830166759963"><ele>875.0</ele><time>2026-04-21T10:57:27.997Z</time></trkpt><trkpt lat="37.000040316873026" lon="-2.2346698354065953"><ele>875.0</ele><time>2026-04-21T10:57:28.997Z</time></trkpt><trkpt lat="37.00011599838146" lon="-2.2347512948845822"><ele>875.0</ele><time>2026-04-21T10:57:29.997Z</time></trkpt><trkpt lat="37.00018095449664" lon="-2.2348239022584826"><ele>875.0</ele><time>2026-04-21T10:57:30.997Z</time></trkpt><trkpt lat="37.00024484649486" lon="-2.2348639815254647"><ele>875.0</ele><time>2026-04-21T10:57:31.997Z</time></trkpt><trkpt lat="37.00034221446824" lon="-2.234944866179983"><ele>875.0</ele><time>2026-04-21T10:57:33.997Z</time></trkpt><trkpt lat="37.000384529517824" lon="-2.235060373958199"><ele>876.3333333333334</ele><time>2026-04-21T10:57:35.997Z</time></trkpt><trkpt lat="37.00035695456795" lon="-2.2351423244784434"><ele>877.6666666666667</ele><time>2026-04-21T10:57:36.997Z</time></trkpt><trkpt lat="37.0003232250536" lon="-2.2352343737657216"><ele>879.0</ele><time>2026-04-21T10:57:37.997Z</time></trkpt><trkpt lat="37.00028536327417" lon="-2.2353341484608475"><ele>880.3333333333333</ele><time>2026-04-21T10:57:38.997Z</time></trkpt><trkpt lat="37.00027027689331" lon="-2.235450226442958"><ele>881.6666666666666</ele><time>2026-04-21T10:57:39.997Z</time></trkpt><trkpt lat="37.00027581801155" lon="-2.235566992382943"><ele>883.0</ele><time>2026-04-21T10:57:40.997Z</time></trkpt><trkpt lat="37.000278809071524" lon="-2.235680054725637"><ele>883.0</ele><time>2026-04-21T10:57:41.997Z</time></trkpt><trkpt lat="37.00028803959933" lon="-2.2357952851541327"><ele>883.0</ele><time>2026-04-21T10:57:42.997Z</time></trkpt><trkpt lat="37.000299154145296" lon="-2.2359211216425816"><ele>883.0</ele><time>2026-04-21T10:57:43.997Z</time></trkpt><trkpt lat="37.000336634867125" lon="-2.236032679718165"><ele>883.0</ele><time>2026-04-21T10:57:44.997Z</time></trkpt><trkpt lat="37.00038880404701" lon="-2.236132229431871"><ele>883.0</ele><time>2026-04-21T10:57:45.997Z</time></trkpt><trkpt lat="37.000450922566195" lon="-2.2362212454985593"><ele>882.9999999999999</ele><time>2026-04-21T10:57:46.997Z</time></trkpt><trkpt lat="37.00050731989693" lon="-2.2363099801517317"><ele>883.0</ele><time>2026-04-21T10:57:47.997Z</time></trkpt><trkpt lat="37.00055574794714" lon="-2.236391789939672"><ele>883.0</ele><time>2026-04-21T10:57:48.997Z</time></trkpt><trkpt lat="37.00059300792163" lon="-2.236460218797414"><ele>883.0</ele><time>2026-04-21T10:57:49.997Z</time></trkpt><trkpt lat="37.000637638680395" lon="-2.2365964689362885"><ele>882.9999999999999</ele><time>2026-04-21T10:57:51.997Z</time></trkpt><trkpt lat="37.00065272646013" lon="-2.236693879775803"><ele>883.0</ele><time>2026-04-21T10:57:52.997Z</time></trkpt><trkpt lat="37.00064283220148" lon="-2.236814171244616"><ele>884.4</ele><time>2026-04-21T10:57:53.997Z</time></trkpt><trkpt lat="37.00063003132573" lon="-2.2369516208377545"><ele>885.8</ele><time>2026-04-21T10:57:54.997Z</time></trkpt><trkpt lat="37.000639587413346" lon="-2.237090733998996"><ele>887.2</ele><time>2026-04-21T10:57:55.997Z</time></trkpt><trkpt lat="37.00066021955644" lon="-2.2372267668246155"><ele>888.6</ele><time>2026-04-21T10:57:56.997Z</time></trkpt><trkpt lat="37.00069130353708" lon="-2.2373607737504067"><ele>890.0</ele><time>2026-04-21T10:57:57.997Z</time></trkpt><trkpt lat="37.0007164032015" lon="-2.2375009591189174"><ele>893.75</ele><time>2026-04-21T10:57:58.997Z</time></trkpt><trkpt lat="37.00074509208836" lon="-2.237642970351997"><ele>897.5</ele><time>2026-04-21T10:57:59.997Z</time></trkpt><trkpt lat="37.000773939051605" lon="-2.2377874723461892"><ele>901.25</ele><time>2026-04-21T10:58:00.997Z</time></trkpt><trkpt lat="37.000803304716456" lon="-2.237934172296102"><ele>905.0</ele><time>2026-04-21T10:58:01.997Z</time></trkpt><trkpt lat="37.00082042554383" lon="-2.2380775012792977"><ele>901.6</ele><time>2026-04-21T10:58:02.997Z</time></trkpt><trkpt lat="37.00083967298221" lon="-2.23821421979238"><ele>898.2</ele><time>2026-04-21T10:58:03.997Z</time></trkpt><trkpt lat="37.00087775302696" lon="-2.238333571868418"><ele>894.8</ele><time>2026-04-21T10:58:04.997Z</time></trkpt><trkpt lat="37.00092279866369" lon="-2.238444295773328"><ele>891.4</ele><time>2026-04-21T10:58:05.997Z</time></trkpt><trkpt lat="37.0009702911333" lon="-2.2385513530219927"><ele>888.0</ele><time>2026-04-21T10:58:06.997Z</time></trkpt><trkpt lat="37.001007062473825" lon="-2.238663859463493"><ele>888.0</ele><time>2026-04-21T10:58:07.997Z</time></trkpt><trkpt lat="37.0010245202637" lon="-2.238792581150001"><ele>888.0</ele><time>2026-04-21T10:58:08.997Z</time></trkpt><trkpt lat="37.00104654361008" lon="-2.238920167264882"><ele>888.0</ele><time>2026-04-21T10:58:09.997Z</time></trkpt><trkpt lat="37.00106821062549" lon="-2.2390423668220114"><ele>888.0</ele><time>2026-04-21T10:58:10.997Z</time></trkpt><trkpt lat="37.001094533921034" lon="-2.2391534440883585"><ele>888.0</ele><time>2026-04-21T10:58:11.997Z</time></trkpt><trkpt lat="37.00112387645287" lon="-2.239263616016583"><ele>892.0</ele><time>2026-04-21T10:58:12.997Z</time></trkpt><trkpt lat="37.00114861923103" lon="-2.239379236557057"><ele>896.0</ele><time>2026-04-21T10:58:13.997Z</time></trkpt><trkpt lat="37.00115932652071" lon="-2.239505839223911"><ele>900.0</ele><time>2026-04-21T10:58:14.997Z</time></trkpt><trkpt lat="37.00115921968559" lon="-2.2396359965770416"><ele>904.0</ele><time>2026-04-21T10:58:15.997Z</time></trkpt><trkpt lat="37.00115344469507" lon="-2.239761311555724"><ele>908.0</ele><time>2026-04-21T10:58:16.997Z</time></trkpt><trkpt lat="37.00116402562648" lon="-2.2398848410895136"><ele>909.5000000000001</ele><time>2026-04-21T10:58:17.997Z</time></trkpt><trkpt lat="37.00117152509387" lon="-2.2400148933607573"><ele>911.0</ele><time>2026-04-21T10:58:18.997Z</time></trkpt><trkpt lat="37.0011978687994" lon="-2.240127785646077"><ele>912.5</ele><time>2026-04-21T10:58:19.997Z</time></trkpt><trkpt lat="37.001214791663365" lon="-2.24022524842999"><ele>914.0</ele><time>2026-04-21T10:58:20.997Z</time></trkpt><trkpt lat="37.00122076625917" lon="-2.2403177652065467"><ele>915.5000000000001</ele><time>2026-04-21T10:58:21.997Z</time></trkpt><trkpt lat="37.001209881741424" lon="-2.24041803780639"><ele>917.0</ele><time>2026-04-21T10:58:22.997Z</time></trkpt><trkpt lat="37.00118094457212" lon="-2.240531370452855"><ele>917.8</ele><time>2026-04-21T10:58:23.997Z</time></trkpt><trkpt lat="37.00113245975058" lon="-2.2406493986070153"><ele>918.6</ele><time>2026-04-21T10:58:24.997Z</time></trkpt><trkpt lat="37.00108426843829" lon="-2.2407661113739814"><ele>919.3999999999999</ele><time>2026-04-21T10:58:25.997Z</time></trkpt><trkpt lat="37.00102948766934" lon="-2.240875853290343"><ele>920.1999999999999</ele><time>2026-04-21T10:58:26.997Z</time></trkpt><trkpt lat="37.000953722712374" lon="-2.2409718128315363"><ele>921.0</ele><time>2026-04-21T10:58:27.997Z</time></trkpt><trkpt lat="37.00088396954846" lon="-2.241068315167235"><ele>925.5</ele><time>2026-04-21T10:58:28.997Z</time></trkpt><trkpt lat="37.00082220101514" lon="-2.24115625327309"><ele>930.0</ele><time>2026-04-21T10:58:29.997Z</time></trkpt><trkpt lat="37.000772403990474" lon="-2.241244862587682"><ele>934.5</ele><time>2026-04-21T10:58:30.997Z</time></trkpt><trkpt lat="37.00074611706644" lon="-2.2413428866176126"><ele>939.0</ele><time>2026-04-21T10:58:31.997Z</time></trkpt><trkpt lat="37.000743128739835" lon="-2.241449393820842"><ele>943.5</ele><time>2026-04-21T10:58:32.997Z</time></trkpt><trkpt lat="37.00075966410963" lon="-2.24155278664871"><ele>948.0</ele><time>2026-04-21T10:58:33.997Z</time></trkpt><trkpt lat="37.000775914705784" lon="-2.241645622034908"><ele>948.0</ele><time>2026-04-21T10:58:34.997Z</time></trkpt><trkpt lat="37.00073756554551" lon="-2.241780411303512"><ele>948.0</ele><time>2026-04-21T10:58:36.997Z</time></trkpt><trkpt lat="37.00063347216193" lon="-2.2419076568413785"><ele>948.0</ele><time>2026-04-21T10:58:38.997Z</time></trkpt><trkpt lat="37.00055936273082" lon="-2.2419882846503003"><ele>948.0</ele><time>2026-04-21T10:58:39.997Z</time></trkpt><trkpt lat="37.00049177164312" lon="-2.2420783405679403"><ele>948.0</ele><time>2026-04-21T10:58:40.997Z</time></trkpt><trkpt lat="37.00042282855361" lon="-2.2421644742857003"><ele>948.0</ele><time>2026-04-21T10:58:41.997Z</time></trkpt><trkpt lat="37.000365791309655" lon="-2.242256004999852"><ele>948.0</ele><time>2026-04-21T10:58:42.997Z</time></trkpt><trkpt lat="37.000339365121164" lon="-2.242376500679932"><ele>948.0</ele><time>2026-04-21T10:58:43.997Z</time></trkpt><trkpt lat="37.000332524269034" lon="-2.242503063200278"><ele>948.0</ele><time>2026-04-21T10:58:44.997Z</time></trkpt><trkpt lat="37.00034583097548" lon="-2.2426233215443316"><ele>947.8333333333334</ele><time>2026-04-21T10:58:45.996Z</time></trkpt><trkpt lat="37.00035063234296" lon="-2.2427328763944363"><ele>947.6666666666667</ele><time>2026-04-21T10:58:46.996Z</time></trkpt><trkpt lat="37.000349850631615" lon="-2.2428265111269936"><ele>947.5</ele><time>2026-04-21T10:58:47.996Z</time></trkpt><trkpt lat="37.00033311683454" lon="-2.2429209865277273"><ele>947.3333333333334</ele><time>2026-04-21T10:58:48.996Z</time></trkpt><trkpt lat="37.00027378798073" lon="-2.2429995454089484"><ele>947.1666666666667</ele><time>2026-04-21T10:58:49.996Z</time></trkpt><trkpt lat="37.00018443498254" lon="-2.2430738614654353"><ele>947.0</ele><time>2026-04-21T10:58:50.996Z</time></trkpt><trkpt lat="37.000070625443165" lon="-2.2431322795549056"><ele>945.2</ele><time>2026-04-21T10:58:51.996Z</time></trkpt><trkpt lat="36.999969643111854" lon="-2.2432034962110987"><ele>943.4000000000001</ele><time>2026-04-21T10:58:52.996Z</time></trkpt><trkpt lat="36.99988333103712" lon="-2.2432659833438366"><ele>941.5999999999999</ele><time>2026-04-21T10:58:53.996Z</time></trkpt><trkpt lat="36.99980562288831" lon="-2.243315248342074"><ele>939.8</ele><time>2026-04-21T10:58:54.996Z</time></trkpt><trkpt lat="36.99973533072573" lon="-2.2433597605104425"><ele>938.0</ele><time>2026-04-21T10:58:55.996Z</time></trkpt><trkpt lat="36.999659134045864" lon="-2.243391384535895"><ele>938.0000000000001</ele><time>2026-04-21T10:58:56.996Z</time></trkpt><trkpt lat="36.99958224805349" lon="-2.243420899490405"><ele>938.0</ele><time>2026-04-21T10:58:57.996Z</time></trkpt><trkpt lat="36.999518219927765" lon="-2.2434734295494123"><ele>938.0</ele><time>2026-04-21T10:58:58.996Z</time></trkpt><trkpt lat="36.999467305549985" lon="-2.2435492855158246"><ele>938.0</ele><time>2026-04-21T10:58:59.996Z</time></trkpt><trkpt lat="36.999420113376374" lon="-2.243633588540705"><ele>938.0000000000001</ele><time>2026-04-21T10:59:00.996Z</time></trkpt><trkpt lat="36.99936912506029" lon="-2.2437137587041516"><ele>938.0</ele><time>2026-04-21T10:59:01.996Z</time></trkpt><trkpt lat="36.99930496618141" lon="-2.2437940170023962"><ele>938.0</ele><time>2026-04-21T10:59:02.996Z</time></trkpt><trkpt lat="36.99922853740758" lon="-2.24389257008482"><ele>938.0</ele><time>2026-04-21T10:59:03.996Z</time></trkpt><trkpt lat="36.999151566474886" lon="-2.2440023404286227"><ele>938.0</ele><time>2026-04-21T10:59:04.996Z</time></trkpt><trkpt lat="36.99908413366552" lon="-2.24410079522757"><ele>938.0</ele><time>2026-04-21T10:59:05.996Z</time></trkpt><trkpt lat="36.99901780463975" lon="-2.2441812109451593"><ele>938.0</ele><time>2026-04-21T10:59:06.996Z</time></trkpt><trkpt lat="36.998937157911506" lon="-2.244242453390436"><ele>940.3333333333334</ele><time>2026-04-21T10:59:07.996Z</time></trkpt><trkpt lat="36.99886808846056" lon="-2.2443095180386905"><ele>942.6666666666667</ele><time>2026-04-21T10:59:08.996Z</time></trkpt><trkpt lat="36.9988108002653" lon="-2.2443785654247717"><ele>945.0</ele><time>2026-04-21T10:59:09.996Z</time></trkpt><trkpt lat="36.99876146047194" lon="-2.2444569853726644"><ele>947.3333333333333</ele><time>2026-04-21T10:59:10.996Z</time></trkpt><trkpt lat="36.99871597936862" lon="-2.2445466661048568"><ele>949.6666666666666</ele><time>2026-04-21T10:59:11.996Z</time></trkpt><trkpt lat="36.998689521506286" lon="-2.244647004330345"><ele>952.0</ele><time>2026-04-21T10:59:12.996Z</time></trkpt><trkpt lat="36.99868192807648" lon="-2.2447578738389615"><ele>951.6666666666666</ele><time>2026-04-21T10:59:13.996Z</time></trkpt><trkpt lat="36.99870237373419" lon="-2.2448660309212607"><ele>951.3333333333333</ele><time>2026-04-21T10:59:14.996Z</time></trkpt><trkpt lat="36.99872209095426" lon="-2.2449730072363145"><ele>951.0</ele><time>2026-04-21T10:59:15.996Z</time></trkpt><trkpt lat="36.99873565730233" lon="-2.245076581074289"><ele>950.6666666666667</ele><time>2026-04-21T10:59:16.996Z</time></trkpt><trkpt lat="36.99873842997479" lon="-2.2451844154720977"><ele>950.3333333333334</ele><time>2026-04-21T10:59:17.996Z</time></trkpt><trkpt lat="36.998702925266265" lon="-2.245301480866301"><ele>950.0</ele><time>2026-04-21T10:59:18.996Z</time></trkpt><trkpt lat="36.998683901182595" lon="-2.245426173572134"><ele>950.0</ele><time>2026-04-21T10:59:19.996Z</time></trkpt><trkpt lat="36.998665698457806" lon="-2.245549623273831"><ele>950.0</ele><time>2026-04-21T10:59:20.996Z</time></trkpt><trkpt lat="36.9986515227414" lon="-2.2456697192557407"><ele>950.0</ele><time>2026-04-21T10:59:21.996Z</time></trkpt><trkpt lat="36.998630743836486" lon="-2.245779813366728"><ele>950.0</ele><time>2026-04-21T10:59:22.996Z</time></trkpt><trkpt lat="36.99860554463678" lon="-2.245892713095651"><ele>950.0</ele><time>2026-04-21T10:59:23.996Z</time></trkpt><trkpt lat="36.99858048413958" lon="-2.2460167586100632"><ele>953.25</ele><time>2026-04-21T10:59:24.996Z</time></trkpt><trkpt lat="36.99855784079518" lon="-2.246152070986052"><ele>956.5</ele><time>2026-04-21T10:59:25.996Z</time></trkpt><trkpt lat="36.998552099940575" lon="-2.246296456932932"><ele>959.75</ele><time>2026-04-21T10:59:26.996Z</time></trkpt><trkpt lat="36.998558996068354" lon="-2.246444912235746"><ele>963.0</ele><time>2026-04-21T10:59:27.996Z</time></trkpt><trkpt lat="36.998568225849695" lon="-2.2465902155661563"><ele>966.4</ele><time>2026-04-21T10:59:28.996Z</time></trkpt><trkpt lat="36.998564725052944" lon="-2.246731187183759"><ele>969.8</ele><time>2026-04-21T10:59:29.996Z</time></trkpt><trkpt lat="36.998563498503216" lon="-2.246863043125913"><ele>973.2</ele><time>2026-04-21T10:59:30.996Z</time></trkpt><trkpt lat="36.998544964720836" lon="-2.246988783922671"><ele>976.6</ele><time>2026-04-21T10:59:31.996Z</time></trkpt><trkpt lat="36.99852905054152" lon="-2.2471150465535246"><ele>980.0</ele><time>2026-04-21T10:59:32.996Z</time></trkpt><trkpt lat="36.998523828497326" lon="-2.2472471311632454"><ele>980.6666666666667</ele><time>2026-04-21T10:59:33.996Z</time></trkpt><trkpt lat="36.998530729713885" lon="-2.2473707710112896"><ele>981.3333333333334</ele><time>2026-04-21T10:59:34.996Z</time></trkpt><trkpt lat="36.99853948899187" lon="-2.247481378600996"><ele>982.0</ele><time>2026-04-21T10:59:35.996Z</time></trkpt><trkpt lat="36.99855246276802" lon="-2.247580362929027"><ele>982.6666666666667</ele><time>2026-04-21T10:59:36.996Z</time></trkpt><trkpt lat="36.99856371279315" lon="-2.2476768807694616"><ele>983.3333333333334</ele><time>2026-04-21T10:59:37.996Z</time></trkpt><trkpt lat="36.998582088699166" lon="-2.247761225170224"><ele>984.0</ele><time>2026-04-21T10:59:38.996Z</time></trkpt><trkpt lat="36.99868021468261" lon="-2.2478468445406414"><ele>984.0</ele><time>2026-04-21T10:59:40.996Z</time></trkpt><trkpt lat="36.998740136934174" lon="-2.2478922814179985"><ele>984.0000000000001</ele><time>2026-04-21T10:59:41.996Z</time></trkpt><trkpt lat="36.9988221247558" lon="-2.247889987160174"><ele>984.0000000000001</ele><time>2026-04-21T10:59:42.996Z</time></trkpt><trkpt lat="36.99891348163198" lon="-2.247869663083468"><ele>984.0</ele><time>2026-04-21T10:59:43.996Z</time></trkpt><trkpt lat="36.99901716794507" lon="-2.2478292184578947"><ele>984.0</ele><time>2026-04-21T10:59:44.996Z</time></trkpt><trkpt lat="36.99912536261028" lon="-2.2477764927107535"><ele>984.0</ele><time>2026-04-21T10:59:45.996Z</time></trkpt><trkpt lat="36.99924581626456" lon="-2.247689554969974"><ele>984.0</ele><time>2026-04-21T10:59:46.996Z</time></trkpt><trkpt lat="36.99937846507735" lon="-2.247596804119367"><ele>984.0</ele><time>2026-04-21T10:59:47.996Z</time></trkpt><trkpt lat="36.999505306204405" lon="-2.247501279764504"><ele>984.0</ele><time>2026-04-21T10:59:48.996Z</time></trkpt><trkpt lat="36.999619207425276" lon="-2.247406541077505"><ele>984.0</ele><time>2026-04-21T10:59:49.996Z</time></trkpt><trkpt lat="36.999723160225734" lon="-2.2473115497417746"><ele>984.0</ele><time>2026-04-21T10:59:50.996Z</time></trkpt><trkpt lat="36.99981977065625" lon="-2.2472285122354947"><ele>984.0</ele><time>2026-04-21T10:59:51.996Z</time></trkpt><trkpt lat="36.999909988177976" lon="-2.2471505010902257"><ele>984.0</ele><time>2026-04-21T10:59:52.996Z</time></trkpt><trkpt lat="36.999993655366815" lon="-2.2470815106337962"><ele>984.0</ele><time>2026-04-21T10:59:53.996Z</time></trkpt><trkpt lat="37.00006821583127" lon="-2.2470205257550107"><ele>984.0</ele><time>2026-04-21T10:59:54.996Z</time></trkpt><trkpt lat="37.000143114026464" lon="-2.2469738869879836"><ele>984.0</ele><time>2026-04-21T10:59:55.996Z</time></trkpt><trkpt lat="37.00022439094403" lon="-2.246954204682255"><ele>984.0</ele><time>2026-04-21T10:59:56.996Z</time></trkpt><trkpt lat="37.000307321065534" lon="-2.2469519922205112"><ele>984.0</ele><time>2026-04-21T10:59:57.996Z</time></trkpt><trkpt lat="37.000385314717306" lon="-2.2469836797257337"><ele>984.0</ele><time>2026-04-21T10:59:58.996Z</time></trkpt><trkpt lat="37.000461113862656" lon="-2.24703925731024"><ele>984.0</ele><time>2026-04-21T10:59:59.996Z</time></trkpt><trkpt lat="37.0005340423249" lon="-2.247112483637239"><ele>984.0000000000001</ele><time>2026-04-21T11:00:00.996Z</time></trkpt><trkpt lat="37.00059747140331" lon="-2.247199560540476"><ele>984.0000000000001</ele><time>2026-04-21T11:00:01.996Z</time></trkpt><trkpt lat="37.0006499669794" lon="-2.247295668731367"><ele>984.0</ele><time>2026-04-21T11:00:02.996Z</time></trkpt><trkpt lat="37.000689298523874" lon="-2.247406382927488"><ele>984.0</ele><time>2026-04-21T11:00:03.996Z</time></trkpt><trkpt lat="37.00071204885059" lon="-2.2475253326880025"><ele>984.0</ele><time>2026-04-21T11:00:04.996Z</time></trkpt><trkpt lat="37.000716774549275" lon="-2.2476505623387255"><ele>984.0000000000001</ele><time>2026-04-21T11:00:05.996Z</time></trkpt><trkpt lat="37.000698510757005" lon="-2.24777490051101"><ele>984.0000000000001</ele><time>2026-04-21T11:00:06.995Z</time></trkpt><trkpt lat="37.00067439141735" lon="-2.247894882523099"><ele>984.0</ele><time>2026-04-21T11:00:07.995Z</time></trkpt><trkpt lat="37.000662761130485" lon="-2.248011410910296"><ele>984.0</ele><time>2026-04-21T11:00:08.995Z</time></trkpt><trkpt lat="37.000678234585074" lon="-2.2481268232656286"><ele>983.2</ele><time>2026-04-21T11:00:09.995Z</time></trkpt><trkpt lat="37.00072343213935" lon="-2.2482414318471133"><ele>982.4000000000001</ele><time>2026-04-21T11:00:10.995Z</time></trkpt><trkpt lat="37.000772873976715" lon="-2.248361748152572"><ele>981.6</ele><time>2026-04-21T11:00:11.995Z</time></trkpt><trkpt lat="37.000813937924455" lon="-2.248477594630271"><ele>980.8</ele><time>2026-04-21T11:00:12.995Z</time></trkpt><trkpt lat="37.00085919387716" lon="-2.248584206055326"><ele>980.0</ele><time>2026-04-21T11:00:13.995Z</time></trkpt><trkpt lat="37.00092100898238" lon="-2.2486759266223606"><ele>983.6</ele><time>2026-04-21T11:00:14.995Z</time></trkpt><trkpt lat="37.001009765149405" lon="-2.2487486463353705"><ele>987.2</ele><time>2026-04-21T11:00:15.995Z</time></trkpt><trkpt lat="37.00111229337588" lon="-2.248806967816701"><ele>990.8</ele><time>2026-04-21T11:00:16.995Z</time></trkpt><trkpt lat="37.00120521059852" lon="-2.2488582370950003"><ele>994.4</ele><time>2026-04-21T11:00:17.995Z</time></trkpt><trkpt lat="37.00128166710709" lon="-2.248921318336975"><ele>998.0</ele><time>2026-04-21T11:00:18.995Z</time></trkpt><trkpt lat="37.0013525004122" lon="-2.2489891138658944"><ele>998.0000000000001</ele><time>2026-04-21T11:00:19.995Z</time></trkpt><trkpt lat="37.00140766457931" lon="-2.2490805519967143"><ele>998.0</ele><time>2026-04-21T11:00:20.995Z</time></trkpt><trkpt lat="37.00144530818372" lon="-2.249190030723357"><ele>998.0</ele><time>2026-04-21T11:00:21.995Z</time></trkpt><trkpt lat="37.00149879278492" lon="-2.2492798859415486"><ele>998.0</ele><time>2026-04-21T11:00:22.995Z</time></trkpt><trkpt lat="37.00155876545635" lon="-2.2493475955674485"><ele>998.0000000000001</ele><time>2026-04-21T11:00:23.995Z</time></trkpt><trkpt lat="37.00162105239087" lon="-2.249389956930729"><ele>998.0</ele><time>2026-04-21T11:00:24.995Z</time></trkpt><trkpt lat="37.001692267801744" lon="-2.2493993262616585"><ele>999.6666666666667</ele><time>2026-04-21T11:00:25.995Z</time></trkpt><trkpt lat="37.00176537924331" lon="-2.249410231191512"><ele>1001.3333333333334</ele><time>2026-04-21T11:00:26.995Z</time></trkpt><trkpt lat="37.00184100194315" lon="-2.24942128046718"><ele>1003.0</ele><time>2026-04-21T11:00:27.995Z</time></trkpt><trkpt lat="37.001903451480196" lon="-2.249461540229536"><ele>1004.6666666666667</ele><time>2026-04-21T11:00:28.995Z</time></trkpt><trkpt lat="37.00198272920225" lon="-2.2495760587025146"><ele>1006.3333333333334</ele><time>2026-04-21T11:00:30.995Z</time></trkpt><trkpt lat="37.001971848433016" lon="-2.2496775218499376"><ele>1008.0</ele><time>2026-04-21T11:00:31.995Z</time></trkpt><trkpt lat="37.0019580126212" lon="-2.2497958678017747"><ele>1008.0</ele><time>2026-04-21T11:00:32.995Z</time></trkpt><trkpt lat="37.00195255773419" lon="-2.2499293991342157"><ele>1008.0</ele><time>2026-04-21T11:00:33.995Z</time></trkpt><trkpt lat="37.001977361221044" lon="-2.2500694546805025"><ele>1008.0</ele><time>2026-04-21T11:00:34.995Z</time></trkpt><trkpt lat="37.0019998365187" lon="-2.2502060173191007"><ele>1008.0</ele><time>2026-04-21T11:00:35.995Z</time></trkpt><trkpt lat="37.002012883031725" lon="-2.2503378990949465"><ele>1008.0</ele><time>2026-04-21T11:00:36.995Z</time></trkpt><trkpt lat="37.00199874901259" lon="-2.250459938090392"><ele>1008.0</ele><time>2026-04-21T11:00:37.995Z</time></trkpt><trkpt lat="37.00197853234224" lon="-2.2505825193725895"><ele>1008.0</ele><time>2026-04-21T11:00:38.995Z</time></trkpt><trkpt lat="37.001963517330076" lon="-2.2507268673821583"><ele>1008.0</ele><time>2026-04-21T11:00:39.995Z</time></trkpt><trkpt lat="37.00195843127313" lon="-2.2508935530453886"><ele>1008.0</ele><time>2026-04-21T11:00:40.995Z</time></trkpt><trkpt lat="37.00195549618166" lon="-2.251073190768864"><ele>1009.25</ele><time>2026-04-21T11:00:41.995Z</time></trkpt><trkpt lat="37.001947981931345" lon="-2.25125847103948"><ele>1010.5</ele><time>2026-04-21T11:00:42.995Z</time></trkpt><trkpt lat="37.00193772862898" lon="-2.2514441863221903"><ele>1011.75</ele><time>2026-04-21T11:00:43.995Z</time></trkpt><trkpt lat="37.00191887118359" lon="-2.251620607117596"><ele>1013.0</ele><time>2026-04-21T11:00:44.995Z</time></trkpt><trkpt lat="37.00188155007115" lon="-2.251787443560702"><ele>1014.5</ele><time>2026-04-21T11:00:45.995Z</time></trkpt><trkpt lat="37.001851364827594" lon="-2.251958090156894"><ele>1016.0</ele><time>2026-04-21T11:00:46.995Z</time></trkpt><trkpt lat="37.00180674230715" lon="-2.252116760092713"><ele>1017.5</ele><time>2026-04-21T11:00:47.995Z</time></trkpt><trkpt lat="37.001765062642995" lon="-2.2522761579142303"><ele>1019.0</ele><time>2026-04-21T11:00:48.995Z</time></trkpt><trkpt lat="37.00172218974029" lon="-2.252422664105261"><ele>1020.4000000000001</ele><time>2026-04-21T11:00:49.995Z</time></trkpt><trkpt lat="37.00167386818248" lon="-2.2525415682820658"><ele>1021.8000000000001</ele><time>2026-04-21T11:00:50.995Z</time></trkpt><trkpt lat="37.00162239011178" lon="-2.252642957355444"><ele>1023.1999999999999</ele><time>2026-04-21T11:00:51.995Z</time></trkpt><trkpt lat="37.00158154522532" lon="-2.2527469994361664"><ele>1024.6</ele><time>2026-04-21T11:00:52.995Z</time></trkpt><trkpt lat="37.00154770491838" lon="-2.2528623966616212"><ele>1026.0</ele><time>2026-04-21T11:00:53.995Z</time></trkpt><trkpt lat="37.00151239741897" lon="-2.2529801690503364"><ele>1026.3999999999999</ele><time>2026-04-21T11:00:54.995Z</time></trkpt><trkpt lat="37.00149136116091" lon="-2.2530988550519355"><ele>1026.8</ele><time>2026-04-21T11:00:55.995Z</time></trkpt><trkpt lat="37.00149789242769" lon="-2.253223495967804"><ele>1027.1999999999998</ele><time>2026-04-21T11:00:56.995Z</time></trkpt><trkpt lat="37.001532348623165" lon="-2.2533537846761416"><ele>1027.6</ele><time>2026-04-21T11:00:58Z</time></trkpt><trkpt lat="37.00153287964471" lon="-2.2535077713325045"><ele>1028.0</ele><time>2026-04-21T11:00:59Z</time></trkpt><trkpt lat="37.001537151169366" lon="-2.253676164584158"><ele>1032.25</ele><time>2026-04-21T11:01:00Z</time></trkpt><trkpt lat="37.00154905462768" lon="-2.253853589024028"><ele>1036.5</ele><time>2026-04-21T11:01:01Z</time></trkpt><trkpt lat="37.00155651803943" lon="-2.2540252862836505"><ele>1040.75</ele><time>2026-04-21T11:01:02Z</time></trkpt><trkpt lat="37.00155831163693" lon="-2.2541975426833654"><ele>1045.0</ele><time>2026-04-21T11:01:03Z</time></trkpt><trkpt lat="37.0015636457631" lon="-2.2543702359620315"><ele>1045.5</ele><time>2026-04-21T11:01:04Z</time></trkpt><trkpt lat="37.00156972252154" lon="-2.2545439912905594"><ele>1046.0</ele><time>2026-04-21T11:01:05Z</time></trkpt><trkpt lat="37.001577006497044" lon="-2.254711874950543"><ele>1046.5</ele><time>2026-04-21T11:01:06Z</time></trkpt><trkpt lat="37.001583801908936" lon="-2.2548692771066445"><ele>1047.0</ele><time>2026-04-21T11:01:07Z</time></trkpt><trkpt lat="37.00158993135377" lon="-2.2550177037789925"><ele>1045.8</ele><time>2026-04-21T11:01:08Z</time></trkpt><trkpt lat="37.001591692286404" lon="-2.2551578371801067"><ele>1044.6</ele><time>2026-04-21T11:01:09Z</time></trkpt><trkpt lat="37.001588657448195" lon="-2.255291448316595"><ele>1043.3999999999999</ele><time>2026-04-21T11:01:10Z</time></trkpt><trkpt lat="37.00158830983352" lon="-2.255415836551368"><ele>1042.2</ele><time>2026-04-21T11:01:11Z</time></trkpt><trkpt lat="37.00158641659441" lon="-2.2555339371770216"><ele>1041.0</ele><time>2026-04-21T11:01:12Z</time></trkpt><trkpt lat="37.00158245025754" lon="-2.255648372611381"><ele>1041.0</ele><time>2026-04-21T11:01:13Z</time></trkpt><trkpt lat="37.00157785773005" lon="-2.255745295501037"><ele>1041.0</ele><time>2026-04-21T11:01:14Z</time></trkpt><trkpt lat="37.00159341582124" lon="-2.255897589542014"><ele>1041.0</ele><time>2026-04-21T11:01:16Z</time></trkpt><trkpt lat="37.001665567152635" lon="-2.2559700888756757"><ele>1041.0</ele><time>2026-04-21T11:01:18Z</time></trkpt><trkpt lat="37.00178392633759" lon="-2.2559435972212216"><ele>1041.0</ele><time>2026-04-21T11:01:20Z</time></trkpt><trkpt lat="37.00185920017298" lon="-2.255885038699202"><ele>1038.6666666666667</ele><time>2026-04-21T11:01:21Z</time></trkpt><trkpt lat="37.00194208191057" lon="-2.2558301873947375"><ele>1036.3333333333333</ele><time>2026-04-21T11:01:22Z</time></trkpt><trkpt lat="37.00202485518928" lon="-2.255800347775183"><ele>1034.0</ele><time>2026-04-21T11:01:23Z</time></trkpt><trkpt lat="37.00211062823037" lon="-2.255782129378431"><ele>1031.6666666666665</ele><time>2026-04-21T11:01:24Z</time></trkpt><trkpt lat="37.00219736463837" lon="-2.2557814970857843"><ele>1029.3333333333333</ele><time>2026-04-21T11:01:25Z</time></trkpt><trkpt lat="37.002281121216335" lon="-2.2557788668844245"><ele>1027.0</ele><time>2026-04-21T11:01:26Z</time></trkpt><trkpt lat="37.00234608345434" lon="-2.2557477990583563"><ele>1027.0</ele><time>2026-04-21T11:01:27Z</time></trkpt><trkpt lat="37.00239451847562" lon="-2.2556903024004984"><ele>1027.0</ele><time>2026-04-21T11:01:28Z</time></trkpt><trkpt lat="37.00242694843415" lon="-2.2556142195004667"><ele>1027.0</ele><time>2026-04-21T11:01:29Z</time></trkpt><trkpt lat="37.0024340383024" lon="-2.2555049308244817"><ele>1027.0</ele><time>2026-04-21T11:01:30Z</time></trkpt><trkpt lat="37.00245427861744" lon="-2.2553888986614337"><ele>1027.0</ele><time>2026-04-21T11:01:31Z</time></trkpt><trkpt lat="37.002492697756544" lon="-2.255272768981036"><ele>1027.0</ele><time>2026-04-21T11:01:32Z</time></trkpt><trkpt lat="37.00254948847364" lon="-2.255167851826642"><ele>1026.3333333333333</ele><time>2026-04-21T11:01:33Z</time></trkpt><trkpt lat="37.0026039433522" lon="-2.2550736762198436"><ele>1025.6666666666665</ele><time>2026-04-21T11:01:34Z</time></trkpt><trkpt lat="37.00264803931864" lon="-2.2549810538685024"><ele>1025.0</ele><time>2026-04-21T11:01:35Z</time></trkpt><trkpt lat="37.0026845782711" lon="-2.2548903938978895"><ele>1024.3333333333333</ele><time>2026-04-21T11:01:36Z</time></trkpt><trkpt lat="37.00272219914804" lon="-2.2548085708870227"><ele>1023.6666666666666</ele><time>2026-04-21T11:01:37Z</time></trkpt><trkpt lat="37.00278367891429" lon="-2.2547143373349416"><ele>1023.0</ele><time>2026-04-21T11:01:39Z</time></trkpt><trkpt lat="37.00284838144949" lon="-2.254753342208751"><ele>1025.2</ele><time>2026-04-21T11:01:41Z</time></trkpt><trkpt lat="37.00286623324479" lon="-2.254864068133949"><ele>1027.4</ele><time>2026-04-21T11:01:43Z</time></trkpt><trkpt lat="37.00282011474688" lon="-2.2550238013690294"><ele>1029.6000000000001</ele><time>2026-04-21T11:01:45Z</time></trkpt><trkpt lat="37.002817710052405" lon="-2.2551338325133634"><ele>1031.8</ele><time>2026-04-21T11:01:46Z</time></trkpt><trkpt lat="37.0028195404394" lon="-2.255250628016262"><ele>1034.0</ele><time>2026-04-21T11:01:47Z</time></trkpt><trkpt lat="37.002829065328434" lon="-2.2553682394339285"><ele>1034.0</ele><time>2026-04-21T11:01:48Z</time></trkpt><trkpt lat="37.002851089732864" lon="-2.2554812574732166"><ele>1034.0</ele><time>2026-04-21T11:01:49Z</time></trkpt><trkpt lat="37.002884203376716" lon="-2.255592293835291"><ele>1034.0</ele><time>2026-04-21T11:01:50Z</time></trkpt><trkpt lat="37.00292623851215" lon="-2.255696557149787"><ele>1034.0</ele><time>2026-04-21T11:01:51Z</time></trkpt><trkpt lat="37.0029882584314" lon="-2.255783545423135"><ele>1034.0</ele><time>2026-04-21T11:01:52Z</time></trkpt><trkpt lat="37.00306939504299" lon="-2.2558534129880883"><ele>1035.0</ele><time>2026-04-21T11:01:53Z</time></trkpt><trkpt lat="37.00315274391772" lon="-2.2559242134226936"><ele>1036.0</ele><time>2026-04-21T11:01:54Z</time></trkpt><trkpt lat="37.00323082969833" lon="-2.2560024397886296"><ele>1037.0</ele><time>2026-04-21T11:01:55Z</time></trkpt><trkpt lat="37.003296461136806" lon="-2.256096161335388"><ele>1038.0</ele><time>2026-04-21T11:01:56Z</time></trkpt><trkpt lat="37.003353211105896" lon="-2.2561980003782365"><ele>1039.0</ele><time>2026-04-21T11:01:57Z</time></trkpt><trkpt lat="37.00340366210902" lon="-2.2563022407854287"><ele>1040.8</ele><time>2026-04-21T11:01:58Z</time></trkpt><trkpt lat="37.003468882476206" lon="-2.256404071226722"><ele>1042.6000000000001</ele><time>2026-04-21T11:01:59Z</time></trkpt><trkpt lat="37.003541408046246" lon="-2.2565049792901175"><ele>1044.4</ele><time>2026-04-21T11:02:00Z</time></trkpt><trkpt lat="37.003633782074445" lon="-2.2565746287466566"><ele>1046.2</ele><time>2026-04-21T11:02:01Z</time></trkpt><trkpt lat="37.003714494893266" lon="-2.2566505914901684"><ele>1048.0</ele><time>2026-04-21T11:02:02Z</time></trkpt><trkpt lat="37.003796323418285" lon="-2.256716447367711"><ele>1049.0</ele><time>2026-04-21T11:02:03Z</time></trkpt><trkpt lat="37.00387484884821" lon="-2.2567762543031074"><ele>1050.0</ele><time>2026-04-21T11:02:04Z</time></trkpt><trkpt lat="37.00396596223562" lon="-2.2567921290853845"><ele>1051.0</ele><time>2026-04-21T11:02:05Z</time></trkpt><trkpt lat="37.00405274028536" lon="-2.256791204247756"><ele>1052.0</ele><time>2026-04-21T11:02:06Z</time></trkpt><trkpt lat="37.00413511428268" lon="-2.256776935286249"><ele>1053.0</ele><time>2026-04-21T11:02:07Z</time></trkpt><trkpt lat="37.004201371032295" lon="-2.2567444587171264"><ele>1054.0</ele><time>2026-04-21T11:02:08Z</time></trkpt><trkpt lat="37.00424320486562" lon="-2.256675630354121"><ele>1054.5</ele><time>2026-04-21T11:02:09Z</time></trkpt><trkpt lat="37.00426761083184" lon="-2.256581083648864"><ele>1055.0</ele><time>2026-04-21T11:02:09.999Z</time></trkpt><trkpt lat="37.00427597160262" lon="-2.256475488863487"><ele>1055.5</ele><time>2026-04-21T11:02:10.999Z</time></trkpt><trkpt lat="37.004296926532405" lon="-2.2563828745853294"><ele>1056.0</ele><time>2026-04-21T11:02:11.999Z</time></trkpt><trkpt lat="37.00434077279891" lon="-2.2563172186792544"><ele>1056.5</ele><time>2026-04-21T11:02:12.999Z</time></trkpt><trkpt lat="37.00440248218882" lon="-2.2562665158907858"><ele>1057.0</ele><time>2026-04-21T11:02:13.999Z</time></trkpt><trkpt lat="37.00447995576001" lon="-2.256243642659328"><ele>1053.5</ele><time>2026-04-21T11:02:14.999Z</time></trkpt><trkpt lat="37.00457194804134" lon="-2.2562441345349815"><ele>1050.0</ele><time>2026-04-21T11:02:15.999Z</time></trkpt><trkpt lat="37.00467565722792" lon="-2.2562790257205196"><ele>1046.5</ele><time>2026-04-21T11:02:16.999Z</time></trkpt><trkpt lat="37.00481207378291" lon="-2.2563143642593704"><ele>1043.0</ele><time>2026-04-21T11:02:17.999Z</time></trkpt><trkpt lat="37.0049710420866" lon="-2.256368201287045"><ele>1045.5</ele><time>2026-04-21T11:02:18.999Z</time></trkpt><trkpt lat="37.00511972099079" lon="-2.2564141990217412"><ele>1048.0</ele><time>2026-04-21T11:02:19.999Z</time></trkpt><trkpt lat="37.00525374677933" lon="-2.256446818774671"><ele>1050.5</ele><time>2026-04-21T11:02:20.999Z</time></trkpt><trkpt lat="37.00537568304476" lon="-2.256470159302175"><ele>1053.0</ele><time>2026-04-21T11:02:21.999Z</time></trkpt><trkpt lat="37.0054829535142" lon="-2.25649506201736"><ele>1055.6</ele><time>2026-04-21T11:02:22.999Z</time></trkpt><trkpt lat="37.00557994731316" lon="-2.25650741652062"><ele>1058.1999999999998</ele><time>2026-04-21T11:02:23.999Z</time></trkpt><trkpt lat="37.00567507445881" lon="-2.2565009945424683"><ele>1060.8</ele><time>2026-04-21T11:02:24.999Z</time></trkpt><trkpt lat="37.00577314693888" lon="-2.2564953070927"><ele>1063.3999999999999</ele><time>2026-04-21T11:02:25.999Z</time></trkpt><trkpt lat="37.00587293820212" lon="-2.256487933762646"><ele>1066.0</ele><time>2026-04-21T11:02:26.999Z</time></trkpt><trkpt lat="37.00596184597887" lon="-2.256463075411742"><ele>1066.5</ele><time>2026-04-21T11:02:27.999Z</time></trkpt><trkpt lat="37.00604284121536" lon="-2.256418764510465"><ele>1067.0</ele><time>2026-04-21T11:02:28.999Z</time></trkpt><trkpt lat="37.0061032544364" lon="-2.256335860483335"><ele>1067.5</ele><time>2026-04-21T11:02:29.999Z</time></trkpt><trkpt lat="37.00616915488249" lon="-2.256257654227772"><ele>1068.0</ele><time>2026-04-21T11:02:30.999Z</time></trkpt><trkpt lat="37.00624533428733" lon="-2.2562061979293326"><ele>1068.5</ele><time>2026-04-21T11:02:31.999Z</time></trkpt><trkpt lat="37.00633615991044" lon="-2.2561926605996"><ele>1069.0</ele><time>2026-04-21T11:02:32.999Z</time></trkpt><trkpt lat="37.00643840900269" lon="-2.256220172729301"><ele>1069.0</ele><time>2026-04-21T11:02:33.999Z</time></trkpt><trkpt lat="37.006550751144765" lon="-2.2562552810225402"><ele>1069.0</ele><time>2026-04-21T11:02:34.999Z</time></trkpt><trkpt lat="37.00667057840296" lon="-2.256305395788529"><ele>1069.0</ele><time>2026-04-21T11:02:35.999Z</time></trkpt><trkpt lat="37.00679241416087" lon="-2.2563564826781604"><ele>1069.0</ele><time>2026-04-21T11:02:36.999Z</time></trkpt><trkpt lat="37.006896536613205" lon="-2.25642496153811"><ele>1069.8</ele><time>2026-04-21T11:02:37.999Z</time></trkpt><trkpt lat="37.00698546186855" lon="-2.256492561056283"><ele>1070.6000000000001</ele><time>2026-04-21T11:02:38.999Z</time></trkpt><trkpt lat="37.007064622417055" lon="-2.256562948598715"><ele>1071.4</ele><time>2026-04-21T11:02:39.999Z</time></trkpt><trkpt lat="37.00714181185026" lon="-2.256642302895835"><ele>1072.2</ele><time>2026-04-21T11:02:40.999Z</time></trkpt><trkpt lat="37.00719263653396" lon="-2.256740703846967"><ele>1073.0</ele><time>2026-04-21T11:02:41.999Z</time></trkpt><trkpt lat="37.007222498343886" lon="-2.2568586106296245"><ele>1073.0</ele><time>2026-04-21T11:02:42.999Z</time></trkpt><trkpt lat="37.00723245256022" lon="-2.256994272366496"><ele>1073.0</ele><time>2026-04-21T11:02:43.999Z</time></trkpt><trkpt lat="37.0072422759246" lon="-2.257137573537241"><ele>1073.0</ele><time>2026-04-21T11:02:44.999Z</time></trkpt><trkpt lat="37.00725244772152" lon="-2.2572691009203676"><ele>1073.0</ele><time>2026-04-21T11:02:45.999Z</time></trkpt><trkpt lat="37.00726130571613" lon="-2.2573859123345636"><ele>1073.0</ele><time>2026-04-21T11:02:46.999Z</time></trkpt><trkpt lat="37.0072764459519" lon="-2.257485856561324"><ele>1072.5</ele><time>2026-04-21T11:02:47.999Z</time></trkpt><trkpt lat="37.00728306612886" lon="-2.257584855728815"><ele>1072.0</ele><time>2026-04-21T11:02:48.999Z</time></trkpt><trkpt lat="37.00729038208302" lon="-2.2576800025434465"><ele>1071.5</ele><time>2026-04-21T11:02:49.999Z</time></trkpt><trkpt lat="37.007295396966704" lon="-2.257764517639373"><ele>1071.0</ele><time>2026-04-21T11:02:50.999Z</time></trkpt><trkpt lat="37.00729448084879" lon="-2.2578890614281635"><ele>1070.5</ele><time>2026-04-21T11:02:52.999Z</time></trkpt><trkpt lat="37.00724523171858" lon="-2.257967370611438"><ele>1070.0</ele><time>2026-04-21T11:03:20.999Z</time></trkpt><trkpt lat="37.00726107795083" lon="-2.258046633334649"><ele>1070.1666666666667</ele><time>2026-04-21T11:04:22.998Z</time></trkpt><trkpt lat="37.00720240065056" lon="-2.2581190372202222"><ele>1070.3333333333335</ele><time>2026-04-21T11:05:05.997Z</time></trkpt><trkpt lat="37.00715058878812" lon="-2.2582316035664554"><ele>1070.5</ele><time>2026-04-21T11:05:07.997Z</time></trkpt><trkpt lat="37.00710600730024" lon="-2.2582925871327606"><ele>1070.6666666666667</ele><time>2026-04-21T11:05:08.997Z</time></trkpt><trkpt lat="37.00706191554292" lon="-2.258359527245185"><ele>1070.8333333333333</ele><time>2026-04-21T11:05:09.997Z</time></trkpt><trkpt lat="37.007014591701925" lon="-2.2584271659486306"><ele>1071.0</ele><time>2026-04-21T11:05:10.997Z</time></trkpt><trkpt lat="37.00698141318233" lon="-2.258501124717765"><ele>1071.0</ele><time>2026-04-21T11:05:11.997Z</time></trkpt><trkpt lat="37.006961362059734" lon="-2.258581264701399"><ele>1071.0</ele><time>2026-04-21T11:05:12.997Z</time></trkpt><trkpt lat="37.006970084356404" lon="-2.2586597274976734"><ele>1071.0</ele><time>2026-04-21T11:05:13.997Z</time></trkpt><trkpt lat="37.00700402305325" lon="-2.2587305175459087"><ele>1071.0</ele><time>2026-04-21T11:05:14.997Z</time></trkpt><trkpt lat="37.007053828413326" lon="-2.258808734004681"><ele>1071.0</ele><time>2026-04-21T11:05:15.997Z</time></trkpt><trkpt lat="37.00712372048154" lon="-2.2588891399725175"><ele>1071.0</ele><time>2026-04-21T11:05:16.997Z</time></trkpt><trkpt lat="37.007197510429904" lon="-2.258982002383425"><ele>1071.0</ele><time>2026-04-21T11:05:17.997Z</time></trkpt><trkpt lat="37.00726680467794" lon="-2.2590881879811393"><ele>1071.0</ele><time>2026-04-21T11:05:18.997Z</time></trkpt><trkpt lat="37.007334470120526" lon="-2.25920040315966"><ele>1071.0</ele><time>2026-04-21T11:05:19.997Z</time></trkpt><trkpt lat="37.00740644296321" lon="-2.259306742800657"><ele>1071.0</ele><time>2026-04-21T11:05:20.997Z</time></trkpt><trkpt lat="37.00747953832268" lon="-2.2594026653721015"><ele>1071.0</ele><time>2026-04-21T11:05:21.997Z</time></trkpt><trkpt lat="37.00755666543928" lon="-2.2594791082717056"><ele>1072.3999999999999</ele><time>2026-04-21T11:05:22.997Z</time></trkpt><trkpt lat="37.00762971934005" lon="-2.259551963090471"><ele>1073.8</ele><time>2026-04-21T11:05:23.997Z</time></trkpt><trkpt lat="37.00769911056165" lon="-2.259625675988412"><ele>1075.1999999999998</ele><time>2026-04-21T11:05:24.997Z</time></trkpt><trkpt lat="37.0077427567375" lon="-2.2597253424361305"><ele>1076.6</ele><time>2026-04-21T11:05:25.997Z</time></trkpt><trkpt lat="37.007767108859305" lon="-2.2598350520844437"><ele>1078.0</ele><time>2026-04-21T11:05:26.997Z</time></trkpt><trkpt lat="37.00776552292543" lon="-2.2599520183043253"><ele>1078.6</ele><time>2026-04-21T11:05:27.997Z</time></trkpt><trkpt lat="37.00775081582822" lon="-2.2600848132491214"><ele>1079.1999999999998</ele><time>2026-04-21T11:05:28.997Z</time></trkpt><trkpt lat="37.00773623196502" lon="-2.26021247544286"><ele>1079.8</ele><time>2026-04-21T11:05:29.996Z</time></trkpt><trkpt lat="37.00771536508373" lon="-2.260329144640943"><ele>1080.3999999999999</ele><time>2026-04-21T11:05:30.996Z</time></trkpt><trkpt lat="37.00768021372693" lon="-2.2604347180898947"><ele>1081.0</ele><time>2026-04-21T11:05:31.996Z</time></trkpt><trkpt lat="37.00762621213817" lon="-2.26052698673935"><ele>1082.2</ele><time>2026-04-21T11:05:32.996Z</time></trkpt><trkpt lat="37.007578479914116" lon="-2.260618152215859"><ele>1083.3999999999999</ele><time>2026-04-21T11:05:33.996Z</time></trkpt><trkpt lat="37.007556739635916" lon="-2.2607286711402206"><ele>1084.6</ele><time>2026-04-21T11:05:34.996Z</time></trkpt><trkpt lat="37.00755482340216" lon="-2.2608607716355094"><ele>1085.8</ele><time>2026-04-21T11:05:35.996Z</time></trkpt><trkpt lat="37.0075622532259" lon="-2.261005894393055"><ele>1087.0</ele><time>2026-04-21T11:05:36.996Z</time></trkpt><trkpt lat="37.00757766817224" lon="-2.2611561332681376"><ele>1087.0</ele><time>2026-04-21T11:05:37.996Z</time></trkpt><trkpt lat="37.007595728449125" lon="-2.261312153902579"><ele>1087.0</ele><time>2026-04-21T11:05:38.996Z</time></trkpt><trkpt lat="37.007628474376524" lon="-2.2614598109913198"><ele>1087.0</ele><time>2026-04-21T11:05:39.996Z</time></trkpt><trkpt lat="37.00768076124205" lon="-2.2615976687442583"><ele>1087.0</ele><time>2026-04-21T11:05:40.996Z</time></trkpt><trkpt lat="37.00774074959537" lon="-2.2617328271081543"><ele>1087.5</ele><time>2026-04-21T11:05:41.996Z</time></trkpt><trkpt lat="37.007818983636945" lon="-2.2618472587722036"><ele>1088.0</ele><time>2026-04-21T11:05:42.996Z</time></trkpt><trkpt lat="37.00789965425308" lon="-2.261961778049785"><ele>1088.5</ele><time>2026-04-21T11:05:43.996Z</time></trkpt><trkpt lat="37.00797946953461" lon="-2.262064571605782"><ele>1089.0</ele><time>2026-04-21T11:05:44.996Z</time></trkpt><trkpt lat="37.008037100327876" lon="-2.262170313601509"><ele>1089.0</ele><time>2026-04-21T11:05:45.996Z</time></trkpt><trkpt lat="37.00807567574096" lon="-2.2622795785856944"><ele>1089.0</ele><time>2026-04-21T11:05:46.996Z</time></trkpt><trkpt lat="37.008129180598736" lon="-2.2623753628565417"><ele>1089.0</ele><time>2026-04-21T11:05:47.996Z</time></trkpt><trkpt lat="37.008207471643445" lon="-2.2624508047145016"><ele>1089.0</ele><time>2026-04-21T11:05:48.996Z</time></trkpt><trkpt lat="37.00829918924765" lon="-2.2625033459902246"><ele>1089.0</ele><time>2026-04-21T11:05:49.996Z</time></trkpt><trkpt lat="37.00838545820688" lon="-2.262549828917966"><ele>1088.8</ele><time>2026-04-21T11:05:50.996Z</time></trkpt><trkpt lat="37.00845262286941" lon="-2.2626118738054575"><ele>1088.6000000000001</ele><time>2026-04-21T11:05:51.996Z</time></trkpt><trkpt lat="37.008517215025044" lon="-2.262688290144743"><ele>1088.4</ele><time>2026-04-21T11:05:52.996Z</time></trkpt><trkpt lat="37.00855780335275" lon="-2.2627926452135934"><ele>1088.2</ele><time>2026-04-21T11:05:53.996Z</time></trkpt><trkpt lat="37.0085908051287" lon="-2.2629072010400626"><ele>1088.0</ele><time>2026-04-21T11:05:54.996Z</time></trkpt><trkpt lat="37.00860055816936" lon="-2.2630464502982983"><ele>1088.75</ele><time>2026-04-21T11:05:55.996Z</time></trkpt><trkpt lat="37.00860957912057" lon="-2.263188203723632"><ele>1089.5</ele><time>2026-04-21T11:05:56.996Z</time></trkpt><trkpt lat="37.0086304835657" lon="-2.26333759193245"><ele>1090.25</ele><time>2026-04-21T11:05:57.996Z</time></trkpt><trkpt lat="37.00865961800944" lon="-2.2634913823521474"><ele>1091.0</ele><time>2026-04-21T11:05:58.996Z</time></trkpt><trkpt lat="37.008695195472804" lon="-2.2636595394520715"><ele>1091.0</ele><time>2026-04-21T11:05:59.996Z</time></trkpt><trkpt lat="37.00873857562562" lon="-2.2638358912126026"><ele>1091.0</ele><time>2026-04-21T11:06:00.996Z</time></trkpt><trkpt lat="37.00878886309085" lon="-2.264003455453587"><ele>1091.0</ele><time>2026-04-21T11:06:01.996Z</time></trkpt><trkpt lat="37.00883654909265" lon="-2.264167650901767"><ele>1091.0</ele><time>2026-04-21T11:06:02.996Z</time></trkpt><trkpt lat="37.008886244999005" lon="-2.2643233542707004"><ele>1090.25</ele><time>2026-04-21T11:06:03.996Z</time></trkpt><trkpt lat="37.00893334735211" lon="-2.264475553103447"><ele>1089.5</ele><time>2026-04-21T11:06:04.996Z</time></trkpt><trkpt lat="37.00897540077979" lon="-2.2646247995096047"><ele>1088.75</ele><time>2026-04-21T11:06:05.996Z</time></trkpt><trkpt lat="37.00901016231499" lon="-2.264762931653352"><ele>1088.0</ele><time>2026-04-21T11:06:06.996Z</time></trkpt><trkpt lat="37.00904407933267" lon="-2.2649023504363095"><ele>1088.0</ele><time>2026-04-21T11:06:07.996Z</time></trkpt><trkpt lat="37.00906705502642" lon="-2.2650522036098053"><ele>1088.0</ele><time>2026-04-21T11:06:08.996Z</time></trkpt><trkpt lat="37.009084611102445" lon="-2.26521194438079"><ele>1088.0</ele><time>2026-04-21T11:06:09.996Z</time></trkpt><trkpt lat="37.009086799827095" lon="-2.265377957095657"><ele>1088.0</ele><time>2026-04-21T11:06:10.996Z</time></trkpt><trkpt lat="37.00908399918328" lon="-2.26553833130842"><ele>1090.0</ele><time>2026-04-21T11:06:11.996Z</time></trkpt><trkpt lat="37.009078013297" lon="-2.265681033794321"><ele>1092.0</ele><time>2026-04-21T11:06:12.996Z</time></trkpt><trkpt lat="37.00906951430813" lon="-2.265803460766185"><ele>1094.0</ele><time>2026-04-21T11:06:13.996Z</time></trkpt><trkpt lat="37.00906110549745" lon="-2.2659162555877406"><ele>1096.0</ele><time>2026-04-21T11:06:14.996Z</time></trkpt><trkpt lat="37.00904158407006" lon="-2.266025622140183"><ele>1098.0</ele><time>2026-04-21T11:06:15.996Z</time></trkpt><trkpt lat="37.00900080541743" lon="-2.266126301517418"><ele>1098.0</ele><time>2026-04-21T11:06:16.996Z</time></trkpt><trkpt lat="37.00894976207383" lon="-2.2662149211478697"><ele>1098.0</ele><time>2026-04-21T11:06:17.996Z</time></trkpt><trkpt lat="37.00888938384311" lon="-2.266293651276238"><ele>1098.0</ele><time>2026-04-21T11:06:18.996Z</time></trkpt><trkpt lat="37.00881561702006" lon="-2.2663555593527263"><ele>1098.0</ele><time>2026-04-21T11:06:19.995Z</time></trkpt><trkpt lat="37.00874737729329" lon="-2.2664280557382845"><ele>1098.0</ele><time>2026-04-21T11:06:20.995Z</time></trkpt><trkpt lat="37.00869186814285" lon="-2.2665163790526783"><ele>1098.0</ele><time>2026-04-21T11:06:21.995Z</time></trkpt><trkpt lat="37.00865297647815" lon="-2.2666155079426518"><ele>1097.6</ele><time>2026-04-21T11:06:22.995Z</time></trkpt><trkpt lat="37.008638993830374" lon="-2.2667242480239715"><ele>1097.1999999999998</ele><time>2026-04-21T11:06:23.995Z</time></trkpt><trkpt lat="37.00865403534411" lon="-2.2668415617113458"><ele>1096.8</ele><time>2026-04-21T11:06:24.995Z</time></trkpt><trkpt lat="37.00867797647522" lon="-2.2669599512615455"><ele>1096.3999999999999</ele><time>2026-04-21T11:06:25.995Z</time></trkpt><trkpt lat="37.00870517970294" lon="-2.26708685331644"><ele>1096.0</ele><time>2026-04-21T11:06:26.995Z</time></trkpt><trkpt lat="37.00873902480257" lon="-2.2672243694650644"><ele>1094.75</ele><time>2026-04-21T11:06:27.995Z</time></trkpt><trkpt lat="37.00878031672585" lon="-2.2673710501948414"><ele>1093.5</ele><time>2026-04-21T11:06:28.995Z</time></trkpt><trkpt lat="37.008828824157014" lon="-2.267534476796692"><ele>1092.25</ele><time>2026-04-21T11:06:29.995Z</time></trkpt><trkpt lat="37.008882435097284" lon="-2.2677123781331407"><ele>1091.0</ele><time>2026-04-21T11:06:30.995Z</time></trkpt><trkpt lat="37.00894826498373" lon="-2.2678815307683178"><ele>1091.0</ele><time>2026-04-21T11:06:31.995Z</time></trkpt><trkpt lat="37.00901109876385" lon="-2.2680437811008933"><ele>1091.0</ele><time>2026-04-21T11:06:32.995Z</time></trkpt><trkpt lat="37.00906929965471" lon="-2.2681953853587222"><ele>1091.0</ele><time>2026-04-21T11:06:33.995Z</time></trkpt><trkpt lat="37.00912211573882" lon="-2.2683408945839307"><ele>1091.0</ele><time>2026-04-21T11:06:34.995Z</time></trkpt><trkpt lat="37.00916813942395" lon="-2.2684851066839804"><ele>1089.0</ele><time>2026-04-21T11:06:35.995Z</time></trkpt><trkpt lat="37.00921674420637" lon="-2.2686270054373425"><ele>1087.0</ele><time>2026-04-21T11:06:36.995Z</time></trkpt><trkpt lat="37.00927367969315" lon="-2.2687661712862357"><ele>1085.0</ele><time>2026-04-21T11:06:37.995Z</time></trkpt><trkpt lat="37.00934130729943" lon="-2.2689043500552972"><ele>1083.0</ele><time>2026-04-21T11:06:38.995Z</time></trkpt><trkpt lat="37.00943327071544" lon="-2.269026450535547"><ele>1083.0</ele><time>2026-04-21T11:06:39.995Z</time></trkpt><trkpt lat="37.00954774854363" lon="-2.269121331682896"><ele>1083.0</ele><time>2026-04-21T11:06:40.995Z</time></trkpt><trkpt lat="37.009662536988486" lon="-2.2692083428896597"><ele>1083.0</ele><time>2026-04-21T11:06:41.995Z</time></trkpt><trkpt lat="37.00976812493726" lon="-2.2692900501170756"><ele>1083.0</ele><time>2026-04-21T11:06:42.995Z</time></trkpt><trkpt lat="37.00986120977891" lon="-2.2693633101664172"><ele>1083.0</ele><time>2026-04-21T11:06:43.995Z</time></trkpt><trkpt lat="37.00995039020674" lon="-2.2694219414463723"><ele>1083.0</ele><time>2026-04-21T11:06:44.995Z</time></trkpt><trkpt lat="37.010036641174345" lon="-2.2694637470411227"><ele>1083.0</ele><time>2026-04-21T11:06:45.995Z</time></trkpt><trkpt lat="37.01011770464846" lon="-2.2695015147016746"><ele>1083.0</ele><time>2026-04-21T11:06:46.995Z</time></trkpt><trkpt lat="37.01019505603991" lon="-2.2695102869508648"><ele>1083.0</ele><time>2026-04-21T11:06:47.995Z</time></trkpt><trkpt lat="37.010264749075475" lon="-2.2694855103915135"><ele>1083.0</ele><time>2026-04-21T11:06:48.995Z</time></trkpt><trkpt lat="37.01032984558489" lon="-2.2694519387123373"><ele>1083.2</ele><time>2026-04-21T11:06:49.995Z</time></trkpt><trkpt lat="37.01039712290617" lon="-2.2693585606637465"><ele>1083.4</ele><time>2026-04-21T11:06:51.995Z</time></trkpt><trkpt lat="37.01043515677356" lon="-2.269231065869259"><ele>1083.6000000000001</ele><time>2026-04-21T11:06:53.995Z</time></trkpt><trkpt lat="37.01046102510974" lon="-2.2690912250395443"><ele>1083.8</ele><time>2026-04-21T11:06:54.995Z</time></trkpt><trkpt lat="37.01048155547269" lon="-2.268962243707741"><ele>1084.0</ele><time>2026-04-21T11:06:55.995Z</time></trkpt><trkpt lat="37.01049156794626" lon="-2.2688305851947344"><ele>1081.4</ele><time>2026-04-21T11:06:56.995Z</time></trkpt><trkpt lat="37.01049712835169" lon="-2.2687180862239087"><ele>1078.8000000000002</ele><time>2026-04-21T11:06:57.995Z</time></trkpt><trkpt lat="37.010508872755715" lon="-2.2685936961053152"><ele>1076.1999999999998</ele><time>2026-04-21T11:06:59.995Z</time></trkpt><trkpt lat="37.01057335204909" lon="-2.2684983793095768"><ele>1073.6</ele><time>2026-04-21T11:07:01.995Z</time></trkpt><trkpt lat="37.010628041889866" lon="-2.2684226216274848"><ele>1071.0</ele><time>2026-04-21T11:07:02.995Z</time></trkpt><trkpt lat="37.01070894135602" lon="-2.2683357680234932"><ele>1071.0</ele><time>2026-04-21T11:07:03.995Z</time></trkpt><trkpt lat="37.01081621564172" lon="-2.2682523603315503"><ele>1071.0</ele><time>2026-04-21T11:07:04.995Z</time></trkpt><trkpt lat="37.010933590518974" lon="-2.26817726239896"><ele>1071.0</ele><time>2026-04-21T11:07:05.995Z</time></trkpt><trkpt lat="37.01104769413073" lon="-2.268103340033313"><ele>1071.0</ele><time>2026-04-21T11:07:06.995Z</time></trkpt><trkpt lat="37.01115410901364" lon="-2.268031627397052"><ele>1070.5</ele><time>2026-04-21T11:07:07.995Z</time></trkpt><trkpt lat="37.01124619354073" lon="-2.267933321162734"><ele>1070.0</ele><time>2026-04-21T11:07:08.995Z</time></trkpt><trkpt lat="37.011323617407065" lon="-2.2678158649440032"><ele>1069.5</ele><time>2026-04-21T11:07:09.995Z</time></trkpt><trkpt lat="37.01139393182917" lon="-2.267701109115653"><ele>1069.0</ele><time>2026-04-21T11:07:10.995Z</time></trkpt><trkpt lat="37.011458408893034" lon="-2.267591417653455"><ele>1069.0</ele><time>2026-04-21T11:07:11.995Z</time></trkpt><trkpt lat="37.01153268108569" lon="-2.2674961921964276"><ele>1069.0</ele><time>2026-04-21T11:07:12.995Z</time></trkpt><trkpt lat="37.01161959593589" lon="-2.2674029499107"><ele>1069.0</ele><time>2026-04-21T11:07:13.995Z</time></trkpt><trkpt lat="37.011730443555415" lon="-2.2673414898138464"><ele>1069.0</ele><time>2026-04-21T11:07:14.995Z</time></trkpt><trkpt lat="37.01185288726871" lon="-2.267300744870925"><ele>1066.5</ele><time>2026-04-21T11:07:15.995Z</time></trkpt><trkpt lat="37.01197668137448" lon="-2.2672719222829425"><ele>1064.0</ele><time>2026-04-21T11:07:16.995Z</time></trkpt><trkpt lat="37.01210166128986" lon="-2.2672423758825606"><ele>1061.5</ele><time>2026-04-21T11:07:17.995Z</time></trkpt><trkpt lat="37.01222049363825" lon="-2.267216001309274"><ele>1059.0</ele><time>2026-04-21T11:07:18.995Z</time></trkpt><trkpt lat="37.01233412146177" lon="-2.2671863803676477"><ele>1059.0</ele><time>2026-04-21T11:07:19.995Z</time></trkpt><trkpt lat="37.01244286776351" lon="-2.26715148641769"><ele>1059.0</ele><time>2026-04-21T11:07:20.995Z</time></trkpt><trkpt lat="37.012538909395744" lon="-2.267096602050732"><ele>1059.0</ele><time>2026-04-21T11:07:21.995Z</time></trkpt><trkpt lat="37.01262790640223" lon="-2.267028596170698"><ele>1059.0</ele><time>2026-04-21T11:07:22.995Z</time></trkpt><trkpt lat="37.012712769780336" lon="-2.2669672202524023"><ele>1059.0</ele><time>2026-04-21T11:07:23.995Z</time></trkpt><trkpt lat="37.01279959797539" lon="-2.2669156940526882"><ele>1059.6000000000001</ele><time>2026-04-21T11:07:24.995Z</time></trkpt><trkpt lat="37.012895303063374" lon="-2.26688559700223"><ele>1060.2</ele><time>2026-04-21T11:07:25.995Z</time></trkpt><trkpt lat="37.01299737192262" lon="-2.266864515236264"><ele>1060.8000000000002</ele><time>2026-04-21T11:07:26.995Z</time></trkpt><trkpt lat="37.01310406324422" lon="-2.266854307311073"><ele>1061.4</ele><time>2026-04-21T11:07:27.995Z</time></trkpt><trkpt lat="37.01320914891743" lon="-2.2668415911430584"><ele>1062.0</ele><time>2026-04-21T11:07:28.995Z</time></trkpt><trkpt lat="37.01331667117364" lon="-2.266829107551049"><ele>1060.25</ele><time>2026-04-21T11:07:29.995Z</time></trkpt><trkpt lat="37.01342568474069" lon="-2.2668167298688098"><ele>1058.5</ele><time>2026-04-21T11:07:30.995Z</time></trkpt><trkpt lat="37.013536231488416" lon="-2.2667980980158045"><ele>1056.75</ele><time>2026-04-21T11:07:31.995Z</time></trkpt><trkpt lat="37.01365055019304" lon="-2.2667822776251945"><ele>1055.0</ele><time>2026-04-21T11:07:32.995Z</time></trkpt><trkpt lat="37.013766575045516" lon="-2.266764695494831"><ele>1055.0</ele><time>2026-04-21T11:07:33.995Z</time></trkpt><trkpt lat="37.01387884858737" lon="-2.2667476076537083"><ele>1055.0</ele><time>2026-04-21T11:07:34.995Z</time></trkpt><trkpt lat="37.01398528817391" lon="-2.2667273139956046"><ele>1055.0</ele><time>2026-04-21T11:07:35.995Z</time></trkpt><trkpt lat="37.01408802700639" lon="-2.2667089157498848"><ele>1055.0</ele><time>2026-04-21T11:07:36.995Z</time></trkpt><trkpt lat="37.01418896386984" lon="-2.2666926773237224"><ele>1055.0</ele><time>2026-04-21T11:07:37.995Z</time></trkpt><trkpt lat="37.01428498801359" lon="-2.266674771416639"><ele>1053.1666666666667</ele><time>2026-04-21T11:07:38.995Z</time></trkpt><trkpt lat="37.01437657792354" lon="-2.266656822150509"><ele>1051.3333333333335</ele><time>2026-04-21T11:07:39.995Z</time></trkpt><trkpt lat="37.0144666583775" lon="-2.2666467815255706"><ele>1049.5</ele><time>2026-04-21T11:07:40.995Z</time></trkpt><trkpt lat="37.01455317384559" lon="-2.2666354364130026"><ele>1047.6666666666667</ele><time>2026-04-21T11:07:41.995Z</time></trkpt><trkpt lat="37.014633748995365" lon="-2.26662434548202"><ele>1045.8333333333333</ele><time>2026-04-21T11:07:42.995Z</time></trkpt><trkpt lat="37.01471398494284" lon="-2.266616871053431"><ele>1044.0</ele><time>2026-04-21T11:07:43.994Z</time></trkpt><trkpt lat="37.014796373956365" lon="-2.2666074698250185"><ele>1044.0</ele><time>2026-04-21T11:07:44.994Z</time></trkpt><trkpt lat="37.01488363367176" lon="-2.2665981708082774"><ele>1044.0</ele><time>2026-04-21T11:07:45.994Z</time></trkpt><trkpt lat="37.01497738223047" lon="-2.2665905316616652"><ele>1044.0</ele><time>2026-04-21T11:07:46.994Z</time></trkpt><trkpt lat="37.01508353420772" lon="-2.2665916555189094"><ele>1044.0</ele><time>2026-04-21T11:07:47.994Z</time></trkpt><trkpt lat="37.01519717305647" lon="-2.2665840368747148"><ele>1044.0</ele><time>2026-04-21T11:07:48.994Z</time></trkpt><trkpt lat="37.01532452095955" lon="-2.266578462124203"><ele>1042.75</ele><time>2026-04-21T11:07:49.994Z</time></trkpt><trkpt lat="37.01545698597245" lon="-2.2665680532166417"><ele>1041.5</ele><time>2026-04-21T11:07:50.994Z</time></trkpt><trkpt lat="37.015591511315705" lon="-2.2665615028343007"><ele>1040.25</ele><time>2026-04-21T11:07:51.994Z</time></trkpt><trkpt lat="37.01572312732936" lon="-2.2665650994696493"><ele>1039.0</ele><time>2026-04-21T11:07:52.994Z</time></trkpt><trkpt lat="37.0158562248849" lon="-2.2665840341673515"><ele>1037.75</ele><time>2026-04-21T11:07:53.994Z</time></trkpt><trkpt lat="37.01598272228851" lon="-2.266622583445069"><ele>1036.5</ele><time>2026-04-21T11:07:54.994Z</time></trkpt><trkpt lat="37.016098253423" lon="-2.2666806349893616"><ele>1035.25</ele><time>2026-04-21T11:07:55.994Z</time></trkpt><trkpt lat="37.016207024607134" lon="-2.266744862511069"><ele>1034.0</ele><time>2026-04-21T11:07:56.994Z</time></trkpt><trkpt lat="37.01631432909296" lon="-2.2668048321454397"><ele>1034.0</ele><time>2026-04-21T11:07:57.994Z</time></trkpt><trkpt lat="37.016419979625766" lon="-2.266863573047721"><ele>1034.0</ele><time>2026-04-21T11:07:58.994Z</time></trkpt><trkpt lat="37.01652817993469" lon="-2.266935321679239"><ele>1034.0</ele><time>2026-04-21T11:07:59.994Z</time></trkpt><trkpt lat="37.01664414555003" lon="-2.267010085164997"><ele>1034.0</ele><time>2026-04-21T11:08:00.994Z</time></trkpt><trkpt lat="37.01677299952398" lon="-2.2670801841151245"><ele>1031.3333333333335</ele><time>2026-04-21T11:08:01.994Z</time></trkpt><trkpt lat="37.01692029906057" lon="-2.267123693277262"><ele>1028.6666666666667</ele><time>2026-04-21T11:08:02.994Z</time></trkpt><trkpt lat="37.01707511890428" lon="-2.2671392775651014"><ele>1026.0</ele><time>2026-04-21T11:08:03.999Z</time></trkpt><trkpt lat="37.01722364040182" lon="-2.267153338924206"><ele>1026.0</ele><time>2026-04-21T11:08:04.999Z</time></trkpt><trkpt lat="37.01736317278808" lon="-2.267162135496917"><ele>1026.0</ele><time>2026-04-21T11:08:05.999Z</time></trkpt><trkpt lat="37.01749445929694" lon="-2.267168421503296"><ele>1026.0</ele><time>2026-04-21T11:08:06.999Z</time></trkpt><trkpt lat="37.01761167173865" lon="-2.267161610974231"><ele>1026.0</ele><time>2026-04-21T11:08:07.999Z</time></trkpt><trkpt lat="37.017714810574276" lon="-2.2671457160878985"><ele>1026.3999999999999</ele><time>2026-04-21T11:08:08.999Z</time></trkpt><trkpt lat="37.0178075037752" lon="-2.2671341454188"><ele>1026.8</ele><time>2026-04-21T11:08:09.999Z</time></trkpt><trkpt lat="37.01789237653591" lon="-2.267113889540059"><ele>1027.1999999999998</ele><time>2026-04-21T11:08:10.999Z</time></trkpt><trkpt lat="37.0179663630828" lon="-2.267092558654442"><ele>1027.6</ele><time>2026-04-21T11:08:11.999Z</time></trkpt><trkpt lat="37.0180695455911" lon="-2.2670399513516704"><ele>1028.0</ele><time>2026-04-21T11:08:13.999Z</time></trkpt><trkpt lat="37.018151441288076" lon="-2.2669937086269782"><ele>1028.0</ele><time>2026-04-21T11:08:15.999Z</time></trkpt><trkpt lat="37.01827471793934" lon="-2.2668972258522495"><ele>1028.0</ele><time>2026-04-21T11:08:17.999Z</time></trkpt><trkpt lat="37.01835052085243" lon="-2.26680085951927"><ele>1028.0</ele><time>2026-04-21T11:08:18.999Z</time></trkpt><trkpt lat="37.01843502747406" lon="-2.2666944548323045"><ele>1028.0</ele><time>2026-04-21T11:08:19.999Z</time></trkpt><trkpt lat="37.01852956235277" lon="-2.2665998039760904"><ele>1027.6</ele><time>2026-04-21T11:08:20.999Z</time></trkpt><trkpt lat="37.018624837012204" lon="-2.2665268126702434"><ele>1027.1999999999998</ele><time>2026-04-21T11:08:21.999Z</time></trkpt><trkpt lat="37.01873121648435" lon="-2.266499673167447"><ele>1026.8</ele><time>2026-04-21T11:08:22.999Z</time></trkpt><trkpt lat="37.01884119289658" lon="-2.266503314958041"><ele>1026.3999999999999</ele><time>2026-04-21T11:08:23.999Z</time></trkpt><trkpt lat="37.0189530956707" lon="-2.2665171126550834"><ele>1026.0</ele><time>2026-04-21T11:08:24.999Z</time></trkpt><trkpt lat="37.01906493575001" lon="-2.266519217016301"><ele>1023.1999999999999</ele><time>2026-04-21T11:08:25.999Z</time></trkpt><trkpt lat="37.01917788733059" lon="-2.266510693283481"><ele>1020.3999999999999</ele><time>2026-04-21T11:08:26.999Z</time></trkpt><trkpt lat="37.01928960814082" lon="-2.266487645467194"><ele>1017.6</ele><time>2026-04-21T11:08:27.999Z</time></trkpt><trkpt lat="37.01939778130481" lon="-2.2664716146259836"><ele>1014.8</ele><time>2026-04-21T11:08:28.999Z</time></trkpt><trkpt lat="37.01950043120359" lon="-2.2664748346352233"><ele>1012.0</ele><time>2026-04-21T11:08:29.999Z</time></trkpt><trkpt lat="37.01960034904026" lon="-2.2665060883759938"><ele>1012.0</ele><time>2026-04-21T11:08:30.999Z</time></trkpt><trkpt lat="37.01968842194611" lon="-2.2665747422469646"><ele>1012.0</ele><time>2026-04-21T11:08:31.999Z</time></trkpt><trkpt lat="37.019767448569674" lon="-2.266655010648481"><ele>1012.0</ele><time>2026-04-21T11:08:32.999Z</time></trkpt><trkpt lat="37.01983317120275" lon="-2.266760426858248"><ele>1012.0</ele><time>2026-04-21T11:08:33.999Z</time></trkpt><trkpt lat="37.01989040265686" lon="-2.266873971731665"><ele>1012.0</ele><time>2026-04-21T11:08:34.999Z</time></trkpt><trkpt lat="37.019961315907445" lon="-2.2669867814270783"><ele>1011.4000000000001</ele><time>2026-04-21T11:08:35.999Z</time></trkpt><trkpt lat="37.02004445696489" lon="-2.2670860614293793"><ele>1010.8000000000001</ele><time>2026-04-21T11:08:36.999Z</time></trkpt><trkpt lat="37.020123754764356" lon="-2.2671842161604876"><ele>1010.2</ele><time>2026-04-21T11:08:37.999Z</time></trkpt><trkpt lat="37.020221579779495" lon="-2.267237264106198"><ele>1009.6</ele><time>2026-04-21T11:08:38.999Z</time></trkpt><trkpt lat="37.02033017764025" lon="-2.267259566274792"><ele>1009.0</ele><time>2026-04-21T11:08:39.999Z</time></trkpt><trkpt lat="37.02044296173827" lon="-2.2672866705280477"><ele>1008.0</ele><time>2026-04-21T11:08:40.999Z</time></trkpt><trkpt lat="37.020558294462276" lon="-2.2673032202317143"><ele>1007.0</ele><time>2026-04-21T11:08:41.999Z</time></trkpt><trkpt lat="37.02067133530417" lon="-2.2673003204424234"><ele>1006.0</ele><time>2026-04-21T11:08:42.999Z</time></trkpt><trkpt lat="37.0207827320802" lon="-2.2672803064309353"><ele>1005.0</ele><time>2026-04-21T11:08:43.999Z</time></trkpt><trkpt lat="37.02089095215589" lon="-2.267228614586228"><ele>1005.0</ele><time>2026-04-21T11:08:44.999Z</time></trkpt><trkpt lat="37.021007044366016" lon="-2.2671687466900936"><ele>1005.0</ele><time>2026-04-21T11:08:45.999Z</time></trkpt><trkpt lat="37.02113490634773" lon="-2.2670820612703153"><ele>1005.0</ele><time>2026-04-21T11:08:46.999Z</time></trkpt><trkpt lat="37.0212723311592" lon="-2.2669609332564504"><ele>1005.0</ele><time>2026-04-21T11:08:47.999Z</time></trkpt><trkpt lat="37.02143065065637" lon="-2.2668315673260957"><ele>1005.0</ele><time>2026-04-21T11:08:48.999Z</time></trkpt><trkpt lat="37.02159826393207" lon="-2.2666919069961526"><ele>1005.0</ele><time>2026-04-21T11:08:49.999Z</time></trkpt><trkpt lat="37.0217701327039" lon="-2.2665479673778766"><ele>1005.0</ele><time>2026-04-21T11:08:50.999Z</time></trkpt><trkpt lat="37.02192052488553" lon="-2.2663865838426407"><ele>1005.6666666666667</ele><time>2026-04-21T11:08:51.999Z</time></trkpt><trkpt lat="37.02206735925991" lon="-2.2662304006494725"><ele>1006.3333333333334</ele><time>2026-04-21T11:08:52.999Z</time></trkpt><trkpt lat="37.02222329858175" lon="-2.2661064625299847"><ele>1007.0</ele><time>2026-04-21T11:08:53.999Z</time></trkpt><trkpt lat="37.022358128275805" lon="-2.2659810730993257"><ele>1001.6666666666667</ele><time>2026-04-21T11:08:54.999Z</time></trkpt><trkpt lat="37.02251069639246" lon="-2.265864408100365"><ele>996.3333333333333</ele><time>2026-04-21T11:08:55.999Z</time></trkpt><trkpt lat="37.022669477350874" lon="-2.2658082106568505"><ele>991.0</ele><time>2026-04-21T11:08:56.999Z</time></trkpt><trkpt lat="37.022800267041845" lon="-2.265755335860414"><ele>991.0</ele><time>2026-04-21T11:08:57.999Z</time></trkpt><trkpt lat="37.022924549589234" lon="-2.26571846198203"><ele>991.0</ele><time>2026-04-21T11:08:58.999Z</time></trkpt><trkpt lat="37.023021409501226" lon="-2.2656733422105106"><ele>991.0</ele><time>2026-04-21T11:08:59.999Z</time></trkpt><trkpt lat="37.02311011979453" lon="-2.2656009696328856"><ele>991.0</ele><time>2026-04-21T11:09:00.999Z</time></trkpt><trkpt lat="37.02319687458363" lon="-2.2655034872748927"><ele>988.75</ele><time>2026-04-21T11:09:01.999Z</time></trkpt><trkpt lat="37.023262298156624" lon="-2.2653745298889105"><ele>986.5</ele><time>2026-04-21T11:09:02.999Z</time></trkpt><trkpt lat="37.02331586026507" lon="-2.26521525254049"><ele>984.25</ele><time>2026-04-21T11:09:03.999Z</time></trkpt><trkpt lat="37.02337076598268" lon="-2.265057458050114"><ele>982.0</ele><time>2026-04-21T11:09:04.999Z</time></trkpt><trkpt lat="37.02344382199118" lon="-2.264901970997601"><ele>982.0</ele><time>2026-04-21T11:09:05.999Z</time></trkpt><trkpt lat="37.0235528297616" lon="-2.2647954668482586"><ele>982.0</ele><time>2026-04-21T11:09:06.999Z</time></trkpt><trkpt lat="37.02366873433379" lon="-2.2647183615708557"><ele>982.0</ele><time>2026-04-21T11:09:07.999Z</time></trkpt><trkpt lat="37.02379333938313" lon="-2.2646577137952586"><ele>982.0</ele><time>2026-04-21T11:09:08.999Z</time></trkpt><trkpt lat="37.02392953412853" lon="-2.2646370406325262"><ele>986.0</ele><time>2026-04-21T11:09:09.999Z</time></trkpt><trkpt lat="37.02404913087251" lon="-2.2646200473907108"><ele>990.0</ele><time>2026-04-21T11:09:10.999Z</time></trkpt><trkpt lat="37.024172858431776" lon="-2.2646354241182305"><ele>994.0</ele><time>2026-04-21T11:09:11.999Z</time></trkpt><trkpt lat="37.02429507287599" lon="-2.264651643191089"><ele>998.0</ele><time>2026-04-21T11:09:12.999Z</time></trkpt><trkpt lat="37.02441855907728" lon="-2.2646418850982752"><ele>998.0</ele><time>2026-04-21T11:09:13.999Z</time></trkpt><trkpt lat="37.024558271751964" lon="-2.2646239134441015"><ele>998.0</ele><time>2026-04-21T11:09:14.999Z</time></trkpt><trkpt lat="37.02465409779631" lon="-2.2645425953696834"><ele>998.0</ele><time>2026-04-21T11:09:15.999Z</time></trkpt><trkpt lat="37.02476646645786" lon="-2.264464511646545"><ele>998.0</ele><time>2026-04-21T11:09:16.999Z</time></trkpt><trkpt lat="37.02488698037352" lon="-2.264387426201609"><ele>992.25</ele><time>2026-04-21T11:09:17.999Z</time></trkpt><trkpt lat="37.02500900954801" lon="-2.2642844116352836"><ele>986.5</ele><time>2026-04-21T11:09:18.999Z</time></trkpt><trkpt lat="37.0251144345476" lon="-2.2641815198746826"><ele>980.75</ele><time>2026-04-21T11:09:19.999Z</time></trkpt><trkpt lat="37.02523091448322" lon="-2.2641380010355037"><ele>975.0</ele><time>2026-04-21T11:09:20.999Z</time></trkpt><trkpt lat="37.025330070647364" lon="-2.2640558698646585"><ele>975.0</ele><time>2026-04-21T11:09:21.999Z</time></trkpt><trkpt lat="37.025442328217046" lon="-2.2639876061369204"><ele>975.0</ele><time>2026-04-21T11:09:22.999Z</time></trkpt><trkpt lat="37.025534247151285" lon="-2.2638887174255635"><ele>975.0</ele><time>2026-04-21T11:09:23.999Z</time></trkpt><trkpt lat="37.02562270873026" lon="-2.263753006059445"><ele>975.0</ele><time>2026-04-21T11:09:24.999Z</time></trkpt><trkpt lat="37.02573466632426" lon="-2.2636458867960068"><ele>971.0</ele><time>2026-04-21T11:09:25.999Z</time></trkpt><trkpt lat="37.02585374982226" lon="-2.263536881484979"><ele>967.0</ele><time>2026-04-21T11:09:26.999Z</time></trkpt><trkpt lat="37.025974890505104" lon="-2.263421481155665"><ele>963.0</ele><time>2026-04-21T11:09:27.999Z</time></trkpt><trkpt lat="37.02610271349693" lon="-2.26330108651416"><ele>963.0</ele><time>2026-04-21T11:09:28.999Z</time></trkpt><trkpt lat="37.026218305571554" lon="-2.2631568225797545"><ele>963.0</ele><time>2026-04-21T11:09:29.999Z</time></trkpt><trkpt lat="37.02632822308431" lon="-2.263007357033924"><ele>963.0</ele><time>2026-04-21T11:09:30.999Z</time></trkpt><trkpt lat="37.02642982033914" lon="-2.262849777289452"><ele>957.6666666666667</ele><time>2026-04-21T11:09:31.999Z</time></trkpt><trkpt lat="37.026505957211086" lon="-2.262677022447081"><ele>952.3333333333334</ele><time>2026-04-21T11:09:32.999Z</time></trkpt><trkpt lat="37.02657343161379" lon="-2.2625103128864232"><ele>947.0</ele><time>2026-04-21T11:09:33.999Z</time></trkpt><trkpt lat="37.02664469375769" lon="-2.262337927547483"><ele>950.5</ele><time>2026-04-21T11:09:34.999Z</time></trkpt><trkpt lat="37.02674201365088" lon="-2.2621931608652677"><ele>954.0</ele><time>2026-04-21T11:09:35.999Z</time></trkpt><trkpt lat="37.02680723257326" lon="-2.2620254313799815"><ele>957.5</ele><time>2026-04-21T11:09:36.999Z</time></trkpt><trkpt lat="37.0268840674594" lon="-2.2618876974131976"><ele>961.0</ele><time>2026-04-21T11:09:37.999Z</time></trkpt><trkpt lat="37.026922551866676" lon="-2.261731217732516"><ele>961.0</ele><time>2026-04-21T11:09:38.999Z</time></trkpt><trkpt lat="37.02696750092684" lon="-2.261583017913679"><ele>961.0</ele><time>2026-04-21T11:09:39.999Z</time></trkpt><trkpt lat="37.02703269915924" lon="-2.261460529224508"><ele>961.0</ele><time>2026-04-21T11:09:40.999Z</time></trkpt><trkpt lat="37.02713392163396" lon="-2.2613802988631835"><ele>961.0</ele><time>2026-04-21T11:09:41.999Z</time></trkpt><trkpt lat="37.027269992096244" lon="-2.261319813312062"><ele>956.25</ele><time>2026-04-21T11:09:42.999Z</time></trkpt><trkpt lat="37.02740579380593" lon="-2.2612678439315594"><ele>951.5</ele><time>2026-04-21T11:09:43.999Z</time></trkpt><trkpt lat="37.02750791234196" lon="-2.2611886862308928"><ele>946.75</ele><time>2026-04-21T11:09:44.999Z</time></trkpt><trkpt lat="37.027574995658384" lon="-2.26105588857455"><ele>942.0</ele><time>2026-04-21T11:09:45.999Z</time></trkpt><trkpt lat="37.02765027168633" lon="-2.260939318379302"><ele>942.0</ele><time>2026-04-21T11:09:46.999Z</time></trkpt><trkpt lat="37.02770951535266" lon="-2.260788405045029"><ele>942.0</ele><time>2026-04-21T11:09:47.999Z</time></trkpt><trkpt lat="37.027801735649035" lon="-2.2606967174880848"><ele>942.0</ele><time>2026-04-21T11:09:48.999Z</time></trkpt><trkpt lat="37.02790020103509" lon="-2.2605976517362656"><ele>942.0</ele><time>2026-04-21T11:09:49.999Z</time></trkpt><trkpt lat="37.02802466127659" lon="-2.2605274131957396"><ele>939.25</ele><time>2026-04-21T11:09:50.999Z</time></trkpt><trkpt lat="37.028161549939405" lon="-2.2604822510720086"><ele>936.5</ele><time>2026-04-21T11:09:51.999Z</time></trkpt><trkpt lat="37.028288589825486" lon="-2.2604195895910415"><ele>933.75</ele><time>2026-04-21T11:09:52.999Z</time></trkpt><trkpt lat="37.02841525587585" lon="-2.26035244137727"><ele>931.0</ele><time>2026-04-21T11:09:53.999Z</time></trkpt><trkpt lat="37.028527913110054" lon="-2.260251022933824"><ele>931.0</ele><time>2026-04-21T11:09:54.999Z</time></trkpt><trkpt lat="37.02864230378266" lon="-2.260158955142717"><ele>931.0</ele><time>2026-04-21T11:09:55.998Z</time></trkpt><trkpt lat="37.028765274559476" lon="-2.26007570144973"><ele>931.0</ele><time>2026-04-21T11:09:56.998Z</time></trkpt><trkpt lat="37.02890517855301" lon="-2.259985228383987"><ele>931.0</ele><time>2026-04-21T11:09:57.998Z</time></trkpt><trkpt lat="37.02903842464993" lon="-2.2599423126520315"><ele>926.25</ele><time>2026-04-21T11:09:58.998Z</time></trkpt><trkpt lat="37.02915878750634" lon="-2.2599073921504527"><ele>921.5</ele><time>2026-04-21T11:09:59.998Z</time></trkpt><trkpt lat="37.02927438259591" lon="-2.2598746037138824"><ele>916.75</ele><time>2026-04-21T11:10:00.998Z</time></trkpt><trkpt lat="37.02937385414953" lon="-2.2598017994501998"><ele>912.0</ele><time>2026-04-21T11:10:01.998Z</time></trkpt><trkpt lat="37.02944713536938" lon="-2.2596966900575635"><ele>912.0</ele><time>2026-04-21T11:10:02.998Z</time></trkpt><trkpt lat="37.029522455044514" lon="-2.2595849638310446"><ele>912.0</ele><time>2026-04-21T11:10:03.998Z</time></trkpt><trkpt lat="37.02957896673285" lon="-2.2594598119655367"><ele>912.0</ele><time>2026-04-21T11:10:04.998Z</time></trkpt><trkpt lat="37.02966148325137" lon="-2.2593574719275162"><ele>912.0</ele><time>2026-04-21T11:10:05.998Z</time></trkpt><trkpt lat="37.0297574716907" lon="-2.259302247194807"><ele>912.0</ele><time>2026-04-21T11:10:06.998Z</time></trkpt><trkpt lat="37.02981795499124" lon="-2.2592421362199064"><ele>912.0</ele><time>2026-04-21T11:10:07.998Z</time></trkpt><trkpt lat="37.029886165632426" lon="-2.2592329851877406"><ele>912.0</ele><time>2026-04-21T11:10:08.998Z</time></trkpt><trkpt lat="37.02998732311617" lon="-2.25930846277308"><ele>912.0</ele><time>2026-04-21T11:10:10.998Z</time></trkpt><trkpt lat="37.03002796419297" lon="-2.2593730605306903"><ele>912.0</ele><time>2026-04-21T11:10:11.998Z</time></trkpt><trkpt lat="37.03004895090217" lon="-2.2594610454138597"><ele>912.0</ele><time>2026-04-21T11:10:12.998Z</time></trkpt><trkpt lat="37.030022982486926" lon="-2.259553086349928"><ele>912.0</ele><time>2026-04-21T11:10:13.998Z</time></trkpt><trkpt lat="37.02998303923905" lon="-2.2596574044552744"><ele>912.0</ele><time>2026-04-21T11:10:14.998Z</time></trkpt><trkpt lat="37.02993230813619" lon="-2.259774218414403"><ele>912.0</ele><time>2026-04-21T11:10:15.998Z</time></trkpt><trkpt lat="37.02989764976337" lon="-2.259930172592689"><ele>912.0</ele><time>2026-04-21T11:10:16.998Z</time></trkpt><trkpt lat="37.02984415636258" lon="-2.2600896929869654"><ele>911.0</ele><time>2026-04-21T11:10:17.998Z</time></trkpt><trkpt lat="37.02981017717483" lon="-2.260253595724296"><ele>910.0</ele><time>2026-04-21T11:10:18.998Z</time></trkpt><trkpt lat="37.02976624025671" lon="-2.260419254965155"><ele>909.0</ele><time>2026-04-21T11:10:19.998Z</time></trkpt><trkpt lat="37.02973891754471" lon="-2.2605796117914707"><ele>908.0</ele><time>2026-04-21T11:10:20.998Z</time></trkpt><trkpt lat="37.029697621561354" lon="-2.260742442870514"><ele>904.75</ele><time>2026-04-21T11:10:21.998Z</time></trkpt><trkpt lat="37.02967281494772" lon="-2.2608967976041083"><ele>901.5</ele><time>2026-04-21T11:10:22.998Z</time></trkpt><trkpt lat="37.02963786633261" lon="-2.2610458782572587"><ele>898.25</ele><time>2026-04-21T11:10:23.998Z</time></trkpt><trkpt lat="37.029612770739064" lon="-2.2611849113961813"><ele>895.0</ele><time>2026-04-21T11:10:24.998Z</time></trkpt><trkpt lat="37.02960664706267" lon="-2.261306599845339"><ele>895.0</ele><time>2026-04-21T11:10:25.998Z</time></trkpt><trkpt lat="37.02961044469177" lon="-2.2614058166255426"><ele>895.0</ele><time>2026-04-21T11:10:26.998Z</time></trkpt><trkpt lat="37.02968188943226" lon="-2.2615364273400056"><ele>895.0</ele><time>2026-04-21T11:10:28.998Z</time></trkpt><trkpt lat="37.02975958196224" lon="-2.2615753632533075"><ele>895.0</ele><time>2026-04-21T11:10:29.998Z</time></trkpt><trkpt lat="37.02984379701666" lon="-2.2615587709248968"><ele>895.0</ele><time>2026-04-21T11:10:30.998Z</time></trkpt><trkpt lat="37.029913537932664" lon="-2.261518991362735"><ele>894.9999999999999</ele><time>2026-04-21T11:10:31.998Z</time></trkpt><trkpt lat="37.029969585493454" lon="-2.2614277318341927"><ele>895.0</ele><time>2026-04-21T11:10:32.998Z</time></trkpt><trkpt lat="37.03001590104645" lon="-2.2613345857346148"><ele>895.0</ele><time>2026-04-21T11:10:33.998Z</time></trkpt><trkpt lat="37.0300738997937" lon="-2.2612708362907403"><ele>895.0</ele><time>2026-04-21T11:10:34.998Z</time></trkpt><trkpt lat="37.03013730276288" lon="-2.261213883954251"><ele>894.9999999999999</ele><time>2026-04-21T11:10:35.998Z</time></trkpt><trkpt lat="37.03021972931221" lon="-2.261204283263988"><ele>895.0</ele><time>2026-04-21T11:10:36.998Z</time></trkpt><trkpt lat="37.03028746962917" lon="-2.261261927745498"><ele>891.4</ele><time>2026-04-21T11:10:37.998Z</time></trkpt><trkpt lat="37.030339140023955" lon="-2.2613513735866837"><ele>887.8</ele><time>2026-04-21T11:10:38.998Z</time></trkpt><trkpt lat="37.030391602058984" lon="-2.2614370817425833"><ele>884.2</ele><time>2026-04-21T11:10:39.998Z</time></trkpt><trkpt lat="37.030423054431644" lon="-2.2615712450853795"><ele>880.6</ele><time>2026-04-21T11:10:40.998Z</time></trkpt><trkpt lat="37.03041112738244" lon="-2.2617204153582215"><ele>877.0</ele><time>2026-04-21T11:10:41.998Z</time></trkpt><trkpt lat="37.0303726111385" lon="-2.261874372878841"><ele>875.0</ele><time>2026-04-21T11:10:42.998Z</time></trkpt><trkpt lat="37.0302964506992" lon="-2.2620241070852525"><ele>873.0</ele><time>2026-04-21T11:10:43.998Z</time></trkpt><trkpt lat="37.030221100566635" lon="-2.2621817503862087"><ele>871.0</ele><time>2026-04-21T11:10:44.998Z</time></trkpt><trkpt lat="37.03016025432185" lon="-2.2623166384843114"><ele>869.0</ele><time>2026-04-21T11:10:45.998Z</time></trkpt><trkpt lat="37.030109553588744" lon="-2.262423567856794"><ele>867.1666666666667</ele><time>2026-04-21T11:10:46.998Z</time></trkpt><trkpt lat="37.030086051534546" lon="-2.2625428797930756"><ele>865.3333333333334</ele><time>2026-04-21T11:10:47.998Z</time></trkpt><trkpt lat="37.03009447405121" lon="-2.262671901358604"><ele>863.5</ele><time>2026-04-21T11:10:48.998Z</time></trkpt><trkpt lat="37.0301539954634" lon="-2.26275022818233"><ele>861.6666666666667</ele><time>2026-04-21T11:10:49.998Z</time></trkpt><trkpt lat="37.03023669726145" lon="-2.2627681857642794"><ele>859.8333333333334</ele><time>2026-04-21T11:10:50.998Z</time></trkpt><trkpt lat="37.03030193257807" lon="-2.2627582829749047"><ele>858.0</ele><time>2026-04-21T11:10:51.998Z</time></trkpt><trkpt lat="37.03035595752493" lon="-2.2626863627932003"><ele>858.0</ele><time>2026-04-21T11:10:52.998Z</time></trkpt><trkpt lat="37.0304251049572" lon="-2.262608566675368"><ele>858.0</ele><time>2026-04-21T11:10:53.998Z</time></trkpt><trkpt lat="37.03049862681937" lon="-2.2625165870691557"><ele>858.0</ele><time>2026-04-21T11:10:54.998Z</time></trkpt><trkpt lat="37.030580884344594" lon="-2.262438246138411"><ele>858.0</ele><time>2026-04-21T11:10:55.998Z</time></trkpt><trkpt lat="37.03066572624564" lon="-2.2623820190975876"><ele>858.0</ele><time>2026-04-21T11:10:56.998Z</time></trkpt><trkpt lat="37.03075951628288" lon="-2.2624229155993296"><ele>854.8333333333334</ele><time>2026-04-21T11:10:57.998Z</time></trkpt><trkpt lat="37.03084148426188" lon="-2.2624766853870844"><ele>851.6666666666667</ele><time>2026-04-21T11:10:58.998Z</time></trkpt><trkpt lat="37.03089284404806" lon="-2.2625680029815936"><ele>848.5</ele><time>2026-04-21T11:10:59.998Z</time></trkpt><trkpt lat="37.030926735597205" lon="-2.262662982739455"><ele>845.3333333333334</ele><time>2026-04-21T11:11:00.998Z</time></trkpt><trkpt lat="37.03093310614255" lon="-2.262744826461438"><ele>842.1666666666667</ele><time>2026-04-21T11:11:01.998Z</time></trkpt><trkpt lat="37.030954074434206" lon="-2.2628211370932645"><ele>839.0</ele><time>2026-04-21T11:11:03.998Z</time></trkpt><trkpt lat="37.0310277994186" lon="-2.2629045270221777"><ele>839.0000000000001</ele><time>2026-04-21T11:11:05.998Z</time></trkpt><trkpt lat="37.03108196560602" lon="-2.262959211081142"><ele>839.0</ele><time>2026-04-21T11:11:06.998Z</time></trkpt><trkpt lat="37.031153149368784" lon="-2.2630074468198123"><ele>839.0</ele><time>2026-04-21T11:11:07.998Z</time></trkpt><trkpt lat="37.03124034604293" lon="-2.2630511829945568"><ele>839.0</ele><time>2026-04-21T11:11:08.998Z</time></trkpt><trkpt lat="37.031322105443564" lon="-2.2631008444573872"><ele>839.0000000000001</ele><time>2026-04-21T11:11:09.998Z</time></trkpt><trkpt lat="37.03141092757622" lon="-2.2631653919636436"><ele>839.0</ele><time>2026-04-21T11:11:10.998Z</time></trkpt><trkpt lat="37.031493322302566" lon="-2.263216781792306"><ele>838.5000000000001</ele><time>2026-04-21T11:11:11.998Z</time></trkpt><trkpt lat="37.031564659032036" lon="-2.2633097282584096"><ele>838.0</ele><time>2026-04-21T11:11:12.998Z</time></trkpt><trkpt lat="37.031642106878074" lon="-2.2633611375622436"><ele>837.5</ele><time>2026-04-21T11:11:13.998Z</time></trkpt><trkpt lat="37.03170647365789" lon="-2.2634171296646937"><ele>837.0</ele><time>2026-04-21T11:11:14.998Z</time></trkpt><trkpt lat="37.03175480788521" lon="-2.2634918430520643"><ele>836.5000000000001</ele><time>2026-04-21T11:11:15.998Z</time></trkpt><trkpt lat="37.031806011382585" lon="-2.2635810192909047"><ele>836.0</ele><time>2026-04-21T11:11:16.998Z</time></trkpt><trkpt lat="37.03181822230735" lon="-2.263672089993226"><ele>833.1666666666667</ele><time>2026-04-21T11:11:17.998Z</time></trkpt><trkpt lat="37.031842841837324" lon="-2.2637467525410577"><ele>830.3333333333334</ele><time>2026-04-21T11:11:18.998Z</time></trkpt><trkpt lat="37.0318681504081" lon="-2.26382654483813"><ele>827.5</ele><time>2026-04-21T11:11:19.998Z</time></trkpt><trkpt lat="37.03191705163133" lon="-2.2639387911812308"><ele>824.6666666666667</ele><time>2026-04-21T11:11:21.998Z</time></trkpt><trkpt lat="37.03195976470876" lon="-2.2640014369978343"><ele>821.8333333333334</ele><time>2026-04-21T11:11:23.998Z</time></trkpt><trkpt lat="37.031984729188416" lon="-2.2640792686337514"><ele>819.0</ele><time>2026-04-21T11:11:25.998Z</time></trkpt><trkpt lat="37.03208017190362" lon="-2.264242541711311"><ele>819.0</ele><time>2026-04-21T11:19:59.997Z</time></trkpt><trkpt lat="37.032130465449924" lon="-2.264182779412983"><ele>819.0</ele><time>2026-04-21T11:21:32.997Z</time></trkpt><trkpt lat="37.032156062704594" lon="-2.2640714486525217"><ele>819.0</ele><time>2026-04-21T11:21:35.995Z</time></trkpt><trkpt lat="37.03215545578757" lon="-2.2639770619738986"><ele>819.0</ele><time>2026-04-21T11:21:38.995Z</time></trkpt><trkpt lat="37.03215934026478" lon="-2.2638890446779762"><ele>819.0</ele><time>2026-04-21T11:21:42.995Z</time></trkpt><trkpt lat="37.03213047226387" lon="-2.263768630589894"><ele>819.0</ele><time>2026-04-21T11:21:45.995Z</time></trkpt><trkpt lat="37.032076694117016" lon="-2.2636602465102236"><ele>819.0</ele><time>2026-04-21T11:21:47.995Z</time></trkpt><trkpt lat="37.032014955871155" lon="-2.2635629241132134"><ele>819.0</ele><time>2026-04-21T11:21:49.995Z</time></trkpt><trkpt lat="37.031950495045834" lon="-2.2634496048458876"><ele>819.0</ele><time>2026-04-21T11:21:51.995Z</time></trkpt><trkpt lat="37.03186052328927" lon="-2.2633301994851194"><ele>819.0</ele><time>2026-04-21T11:21:53.995Z</time></trkpt><trkpt lat="37.031814612878655" lon="-2.2632711822586145"><ele>819.0</ele><time>2026-04-21T11:21:54.995Z</time></trkpt><trkpt lat="37.031760133669955" lon="-2.2632041897980955"><ele>819.0</ele><time>2026-04-21T11:21:55.995Z</time></trkpt><trkpt lat="37.031708241650065" lon="-2.2631391991256535"><ele>819.0</ele><time>2026-04-21T11:21:56.995Z</time></trkpt><trkpt lat="37.031656725064195" lon="-2.263068498400511"><ele>819.0</ele><time>2026-04-21T11:21:57.995Z</time></trkpt><trkpt lat="37.03160655159788" lon="-2.26298360288211"><ele>819.0</ele><time>2026-04-21T11:21:58.995Z</time></trkpt><trkpt lat="37.03155209809577" lon="-2.262881820284571"><ele>819.0</ele><time>2026-04-21T11:21:59.995Z</time></trkpt><trkpt lat="37.031506147512474" lon="-2.2627741227047036"><ele>819.0</ele><time>2026-04-21T11:22:00.995Z</time></trkpt><trkpt lat="37.03145732843418" lon="-2.262662295793715"><ele>823.0</ele><time>2026-04-21T11:22:01.995Z</time></trkpt><trkpt lat="37.03140629848693" lon="-2.2625436099466265"><ele>827.0</ele><time>2026-04-21T11:22:02.995Z</time></trkpt><trkpt lat="37.03135979058782" lon="-2.2624224493599856"><ele>831.0</ele><time>2026-04-21T11:22:03.995Z</time></trkpt><trkpt lat="37.03130488626907" lon="-2.262305112889972"><ele>835.0</ele><time>2026-04-21T11:22:04.995Z</time></trkpt><trkpt lat="37.031252828193125" lon="-2.2621842891556034"><ele>839.0</ele><time>2026-04-21T11:22:05.995Z</time></trkpt><trkpt lat="37.03121100290401" lon="-2.2620666890218932"><ele>839.0</ele><time>2026-04-21T11:22:06.995Z</time></trkpt><trkpt lat="37.03118091857005" lon="-2.261929277830544"><ele>839.0</ele><time>2026-04-21T11:22:07.995Z</time></trkpt><trkpt lat="37.031184418986584" lon="-2.261787884814464"><ele>839.0</ele><time>2026-04-21T11:22:08.995Z</time></trkpt><trkpt lat="37.031221261179546" lon="-2.2616455172971275"><ele>839.0</ele><time>2026-04-21T11:22:09.995Z</time></trkpt><trkpt lat="37.03128241038508" lon="-2.2614972347306446"><ele>840.25</ele><time>2026-04-21T11:22:10.995Z</time></trkpt><trkpt lat="37.03137147795804" lon="-2.2613685837687956"><ele>841.5</ele><time>2026-04-21T11:22:11.995Z</time></trkpt><trkpt lat="37.03147558528374" lon="-2.2612371120296273"><ele>842.75</ele><time>2026-04-21T11:22:12.995Z</time></trkpt><trkpt lat="37.03157707647246" lon="-2.2611107556084513"><ele>844.0</ele><time>2026-04-21T11:22:13.995Z</time></trkpt><trkpt lat="37.03167648196723" lon="-2.2609961661306914"><ele>833.0</ele><time>2026-04-21T11:22:14.999Z</time></trkpt><trkpt lat="37.03176725634363" lon="-2.2608883286191976"><ele>822.0</ele><time>2026-04-21T11:22:15.999Z</time></trkpt><trkpt lat="37.03183404920859" lon="-2.260764409851193"><ele>811.0</ele><time>2026-04-21T11:22:16.999Z</time></trkpt><trkpt lat="37.03187113205461" lon="-2.2606380584382664"><ele>800.0</ele><time>2026-04-21T11:22:17.999Z</time></trkpt><trkpt lat="37.0318755626764" lon="-2.260499603557507"><ele>800.0</ele><time>2026-04-21T11:22:18.999Z</time></trkpt><trkpt lat="37.03185112289059" lon="-2.2603485751024897"><ele>800.0</ele><time>2026-04-21T11:22:19.999Z</time></trkpt><trkpt lat="37.0318114171162" lon="-2.2601740978232434"><ele>800.0</ele><time>2026-04-21T11:22:20.999Z</time></trkpt><trkpt lat="37.03176776223003" lon="-2.2600042186153577"><ele>800.0</ele><time>2026-04-21T11:22:21.999Z</time></trkpt><trkpt lat="37.03172768709874" lon="-2.2598435825828758"><ele>798.75</ele><time>2026-04-21T11:22:22.999Z</time></trkpt><trkpt lat="37.03169564929834" lon="-2.259695461960684"><ele>797.5</ele><time>2026-04-21T11:22:23.999Z</time></trkpt><trkpt lat="37.03166678421764" lon="-2.259552943836928"><ele>796.25</ele><time>2026-04-21T11:22:24.999Z</time></trkpt><trkpt lat="37.03164997985822" lon="-2.2594188172639806"><ele>795.0</ele><time>2026-04-21T11:22:25.999Z</time></trkpt><trkpt lat="37.031650096491965" lon="-2.259289894872086"><ele>795.0</ele><time>2026-04-21T11:22:26.999Z</time></trkpt><trkpt lat="37.031667079837526" lon="-2.2591724673362283"><ele>795.0</ele><time>2026-04-21T11:22:27.999Z</time></trkpt><trkpt lat="37.031697628255415" lon="-2.2590738337829954"><ele>795.0</ele><time>2026-04-21T11:22:28.999Z</time></trkpt><trkpt lat="37.03173431338207" lon="-2.2589846562237055"><ele>795.0</ele><time>2026-04-21T11:22:29.999Z</time></trkpt><trkpt lat="37.03177698211815" lon="-2.2589092510811732"><ele>795.0</ele><time>2026-04-21T11:22:30.999Z</time></trkpt><trkpt lat="37.03182866305571" lon="-2.25885964817081"><ele>795.0</ele><time>2026-04-21T11:22:31.999Z</time></trkpt><trkpt lat="37.031897934858556" lon="-2.2588574937175125"><ele>795.0</ele><time>2026-04-21T11:22:32.999Z</time></trkpt><trkpt lat="37.031968415091136" lon="-2.258886990713093"><ele>795.0</ele><time>2026-04-21T11:22:33.999Z</time></trkpt><trkpt lat="37.032015831356425" lon="-2.2589549504960194"><ele>795.0</ele><time>2026-04-21T11:22:34.999Z</time></trkpt><trkpt lat="37.032029093361984" lon="-2.2590487418713656"><ele>795.0</ele><time>2026-04-21T11:22:35.999Z</time></trkpt><trkpt lat="37.03199832060422" lon="-2.2591455059953995"><ele>795.0</ele><time>2026-04-21T11:22:36.999Z</time></trkpt><trkpt lat="37.03193429764581" lon="-2.259236568174662"><ele>795.0</ele><time>2026-04-21T11:22:37.999Z</time></trkpt><trkpt lat="37.03188561429408" lon="-2.259341588232635"><ele>795.0</ele><time>2026-04-21T11:22:38.999Z</time></trkpt><trkpt lat="37.03185736962952" lon="-2.2594638344935967"><ele>795.0</ele><time>2026-04-21T11:22:39.999Z</time></trkpt><trkpt lat="37.03185359836068" lon="-2.2596070738779677"><ele>795.0</ele><time>2026-04-21T11:22:40.999Z</time></trkpt><trkpt lat="37.03188905340595" lon="-2.259771827770353"><ele>795.0</ele><time>2026-04-21T11:22:41.999Z</time></trkpt><trkpt lat="37.03195062992109" lon="-2.259952697490436"><ele>796.6666666666667</ele><time>2026-04-21T11:22:42.999Z</time></trkpt><trkpt lat="37.032006522309175" lon="-2.2601411949482912"><ele>798.3333333333334</ele><time>2026-04-21T11:22:43.999Z</time></trkpt><trkpt lat="37.032064170878435" lon="-2.2603206924694783"><ele>800.0</ele><time>2026-04-21T11:22:44.999Z</time></trkpt><trkpt lat="37.03211365846267" lon="-2.260488169828975"><ele>799.25</ele><time>2026-04-21T11:22:45.999Z</time></trkpt><trkpt lat="37.032162616522385" lon="-2.260645557692138"><ele>798.5</ele><time>2026-04-21T11:22:46.999Z</time></trkpt><trkpt lat="37.03219816526002" lon="-2.260801904967859"><ele>797.75</ele><time>2026-04-21T11:22:47.999Z</time></trkpt><trkpt lat="37.03222365023725" lon="-2.2609593835358144"><ele>797.0</ele><time>2026-04-21T11:22:48.999Z</time></trkpt><trkpt lat="37.03221619090814" lon="-2.2611136614265335"><ele>797.0</ele><time>2026-04-21T11:22:49.999Z</time></trkpt><trkpt lat="37.03218082921627" lon="-2.2612518188419375"><ele>797.0</ele><time>2026-04-21T11:22:50.999Z</time></trkpt><trkpt lat="37.032113308694534" lon="-2.26138658180333"><ele>797.0</ele><time>2026-04-21T11:22:51.999Z</time></trkpt><trkpt lat="37.03203793704874" lon="-2.261520922104846"><ele>797.0</ele><time>2026-04-21T11:22:52.999Z</time></trkpt><trkpt lat="37.03197871513172" lon="-2.2616607633199015"><ele>795.25</ele><time>2026-04-21T11:22:53.999Z</time></trkpt><trkpt lat="37.03194588793698" lon="-2.2618081591952377"><ele>793.5</ele><time>2026-04-21T11:22:54.999Z</time></trkpt><trkpt lat="37.03194426136948" lon="-2.261962683050994"><ele>791.75</ele><time>2026-04-21T11:22:55.999Z</time></trkpt><trkpt lat="37.031999864058335" lon="-2.262098385551829"><ele>790.0</ele><time>2026-04-21T11:22:56.999Z</time></trkpt><trkpt lat="37.032086456683146" lon="-2.262224393242818"><ele>791.75</ele><time>2026-04-21T11:22:57.999Z</time></trkpt><trkpt lat="37.032178828141966" lon="-2.2623343806453646"><ele>793.5</ele><time>2026-04-21T11:22:58.999Z</time></trkpt><trkpt lat="37.032268871889926" lon="-2.262429840047157"><ele>795.25</ele><time>2026-04-21T11:22:59.999Z</time></trkpt><trkpt lat="37.03236988130259" lon="-2.262474329092065"><ele>797.0</ele><time>2026-04-21T11:23:00.999Z</time></trkpt><trkpt lat="37.03247395044407" lon="-2.262484816490568"><ele>791.0</ele><time>2026-04-21T11:23:01.999Z</time></trkpt><trkpt lat="37.03257807355333" lon="-2.262485298553625"><ele>785.0</ele><time>2026-04-21T11:23:02.999Z</time></trkpt><trkpt lat="37.03267542098512" lon="-2.2625073783574567"><ele>779.0</ele><time>2026-04-21T11:23:03.999Z</time></trkpt><trkpt lat="37.03276960969929" lon="-2.2625464123344345"><ele>773.0</ele><time>2026-04-21T11:23:04.999Z</time></trkpt><trkpt lat="37.032860257594265" lon="-2.262604298069175"><ele>767.0</ele><time>2026-04-21T11:23:05.999Z</time></trkpt><trkpt lat="37.03295460780805" lon="-2.2626845325623948"><ele>767.0</ele><time>2026-04-21T11:23:06.999Z</time></trkpt><trkpt lat="37.03300747016497" lon="-2.262870052106132"><ele>767.0</ele><time>2026-04-21T11:23:07.999Z</time></trkpt><trkpt lat="37.03305165462289" lon="-2.263080876697252"><ele>767.0</ele><time>2026-04-21T11:23:08.999Z</time></trkpt><trkpt lat="37.03309618949696" lon="-2.2632760465538584"><ele>775.3333333333333</ele><time>2026-04-21T11:23:09.999Z</time></trkpt><trkpt lat="37.03316233599925" lon="-2.2634760314364923"><ele>783.6666666666666</ele><time>2026-04-21T11:23:10.999Z</time></trkpt><trkpt lat="37.03320383930873" lon="-2.2636573114018503"><ele>792.0</ele><time>2026-04-21T11:23:11.999Z</time></trkpt><trkpt lat="37.03323743854072" lon="-2.2638111918144865"><ele>792.0</ele><time>2026-04-21T11:23:12.999Z</time></trkpt><trkpt lat="37.03326606084046" lon="-2.2639452929284496"><ele>792.0</ele><time>2026-04-21T11:23:13.999Z</time></trkpt><trkpt lat="37.033310352847295" lon="-2.26402752377574"><ele>792.0</ele><time>2026-04-21T11:23:14.999Z</time></trkpt><trkpt lat="37.03342513114263" lon="-2.2640262772173116"><ele>792.0</ele><time>2026-04-21T11:23:16.999Z</time></trkpt><trkpt lat="37.03347952636218" lon="-2.2638614381113644"><ele>792.0</ele><time>2026-04-21T11:23:18.999Z</time></trkpt><trkpt lat="37.03344603672174" lon="-2.2637412038739853"><ele>792.0</ele><time>2026-04-21T11:23:19.999Z</time></trkpt><trkpt lat="37.03336445405136" lon="-2.2635736292866397"><ele>792.0</ele><time>2026-04-21T11:23:20.999Z</time></trkpt><trkpt lat="37.03327612764659" lon="-2.2633597505087026"><ele>792.0</ele><time>2026-04-21T11:23:21.999Z</time></trkpt><trkpt lat="37.03316506691955" lon="-2.2631198843410245"><ele>785.75</ele><time>2026-04-21T11:23:22.999Z</time></trkpt><trkpt lat="37.03310385537549" lon="-2.262894305525136"><ele>779.5</ele><time>2026-04-21T11:23:23.999Z</time></trkpt><trkpt lat="37.03305133383334" lon="-2.262722037451438"><ele>773.25</ele><time>2026-04-21T11:23:24.999Z</time></trkpt><trkpt lat="37.03301501128861" lon="-2.262592895123645"><ele>767.0</ele><time>2026-04-21T11:23:25.999Z</time></trkpt><trkpt lat="37.033000316014004" lon="-2.2624696098262302"><ele>767.0</ele><time>2026-04-21T11:23:26.999Z</time></trkpt><trkpt lat="37.03300954860693" lon="-2.2623371433263757"><ele>767.0</ele><time>2026-04-21T11:23:27.999Z</time></trkpt><trkpt lat="37.03300072103644" lon="-2.2622426212087143"><ele>767.0</ele><time>2026-04-21T11:23:28.999Z</time></trkpt><trkpt lat="37.03303173956794" lon="-2.2621690359137308"><ele>767.0</ele><time>2026-04-21T11:23:29.999Z</time></trkpt><trkpt lat="37.03309258485662" lon="-2.2621320677259957"><ele>767.0</ele><time>2026-04-21T11:23:30.999Z</time></trkpt><trkpt lat="37.03317070652942" lon="-2.262126349228579"><ele>767.0</ele><time>2026-04-21T11:23:31.999Z</time></trkpt><trkpt lat="37.03323566359831" lon="-2.262203670870133"><ele>767.0</ele><time>2026-04-21T11:23:32.999Z</time></trkpt><trkpt lat="37.03330525543313" lon="-2.2623313564296867"><ele>767.0</ele><time>2026-04-21T11:23:33.999Z</time></trkpt><trkpt lat="37.0333297554701" lon="-2.2624879875789268"><ele>767.0</ele><time>2026-04-21T11:23:34.999Z</time></trkpt><trkpt lat="37.033314411632794" lon="-2.2626845401334834"><ele>767.0</ele><time>2026-04-21T11:23:35.999Z</time></trkpt><trkpt lat="37.0333359432368" lon="-2.2628725865255395"><ele>759.6666666666666</ele><time>2026-04-21T11:23:36.999Z</time></trkpt><trkpt lat="37.033402341362724" lon="-2.2630655502358077"><ele>752.3333333333334</ele><time>2026-04-21T11:23:37.999Z</time></trkpt><trkpt lat="37.03349448114475" lon="-2.2632526727030013"><ele>745.0</ele><time>2026-04-21T11:23:38.999Z</time></trkpt><trkpt lat="37.03359909009784" lon="-2.263395394866777"><ele>745.0</ele><time>2026-04-21T11:23:39.999Z</time></trkpt><trkpt lat="37.033682832550525" lon="-2.2635431485697532"><ele>745.0</ele><time>2026-04-21T11:23:40.999Z</time></trkpt><trkpt lat="37.033784371231555" lon="-2.263638738668205"><ele>745.0</ele><time>2026-04-21T11:23:41.999Z</time></trkpt><trkpt lat="37.03391110003867" lon="-2.2636822293858967"><ele>745.0</ele><time>2026-04-21T11:23:42.999Z</time></trkpt><trkpt lat="37.03401133442231" lon="-2.263702112551318"><ele>745.0</ele><time>2026-04-21T11:23:43.999Z</time></trkpt><trkpt lat="37.034111432381955" lon="-2.263731432126512"><ele>745.0</ele><time>2026-04-21T11:23:44.999Z</time></trkpt><trkpt lat="37.03417034732728" lon="-2.26384808889434"><ele>745.0</ele><time>2026-04-21T11:23:45.999Z</time></trkpt><trkpt lat="37.03422583049395" lon="-2.2639516945749043"><ele>745.0</ele><time>2026-04-21T11:23:46.999Z</time></trkpt><trkpt lat="37.034264260515755" lon="-2.2640642797225077"><ele>745.0</ele><time>2026-04-21T11:23:47.999Z</time></trkpt><trkpt lat="37.03425125167848" lon="-2.2642042083333385"><ele>744.0</ele><time>2026-04-21T11:23:48.999Z</time></trkpt><trkpt lat="37.03420726502318" lon="-2.2643918419805784"><ele>743.0</ele><time>2026-04-21T11:23:49.999Z</time></trkpt><trkpt lat="37.03414145262583" lon="-2.2645906654321877"><ele>742.0</ele><time>2026-04-21T11:23:50.999Z</time></trkpt><trkpt lat="37.0340564749776" lon="-2.2648278815982334"><ele>742.0</ele><time>2026-04-21T11:23:51.999Z</time></trkpt><trkpt lat="37.033996012811485" lon="-2.2650782583947615"><ele>742.0</ele><time>2026-04-21T11:23:52.999Z</time></trkpt><trkpt lat="37.03395952453393" lon="-2.265312293147428"><ele>742.0</ele><time>2026-04-21T11:23:53.999Z</time></trkpt><trkpt lat="37.03393511100375" lon="-2.26553211953394"><ele>737.3333333333334</ele><time>2026-04-21T11:23:54.999Z</time></trkpt><trkpt lat="37.03389900359022" lon="-2.2657273583961324"><ele>732.6666666666666</ele><time>2026-04-21T11:23:55.999Z</time></trkpt><trkpt lat="37.03383977818743" lon="-2.2658990750277845"><ele>728.0</ele><time>2026-04-21T11:23:56.999Z</time></trkpt><trkpt lat="37.033781065130775" lon="-2.2660690303776834"><ele>728.0</ele><time>2026-04-21T11:23:57.999Z</time></trkpt><trkpt lat="37.03371243092815" lon="-2.2662145411101142"><ele>728.0</ele><time>2026-04-21T11:23:58.999Z</time></trkpt><trkpt lat="37.03364542427095" lon="-2.26632849451677"><ele>728.0</ele><time>2026-04-21T11:23:59.999Z</time></trkpt><trkpt lat="37.03357440064601" lon="-2.266448966327713"><ele>728.0</ele><time>2026-04-21T11:24:00.999Z</time></trkpt><trkpt lat="37.03355642004296" lon="-2.2665927592261044"><ele>725.5</ele><time>2026-04-21T11:24:01.999Z</time></trkpt><trkpt lat="37.033565587427375" lon="-2.2667518711268095"><ele>723.0</ele><time>2026-04-21T11:24:02.999Z</time></trkpt><trkpt lat="37.03361545850988" lon="-2.2668694968654277"><ele>720.5</ele><time>2026-04-21T11:24:03.999Z</time></trkpt><trkpt lat="37.03367456591908" lon="-2.2669809830734544"><ele>718.0</ele><time>2026-04-21T11:24:04.999Z</time></trkpt><trkpt lat="37.03370185699874" lon="-2.2671134834259057"><ele>718.0</ele><time>2026-04-21T11:24:05.999Z</time></trkpt><trkpt lat="37.03369397272825" lon="-2.267266916051919"><ele>718.0</ele><time>2026-04-21T11:24:06.999Z</time></trkpt><trkpt lat="37.03366151354028" lon="-2.267428263151722"><ele>718.0</ele><time>2026-04-21T11:24:07.999Z</time></trkpt><trkpt lat="37.033637595067894" lon="-2.267581336078224"><ele>718.0</ele><time>2026-04-21T11:24:08.999Z</time></trkpt><trkpt lat="37.03364836031103" lon="-2.267730401469531"><ele>717.1666666666667</ele><time>2026-04-21T11:24:09.999Z</time></trkpt><trkpt lat="37.03369091398558" lon="-2.2678273722358653"><ele>716.3333333333334</ele><time>2026-04-21T11:24:10.999Z</time></trkpt><trkpt lat="37.033757035539644" lon="-2.2679040361167444"><ele>715.5</ele><time>2026-04-21T11:24:11.999Z</time></trkpt><trkpt lat="37.033845994586784" lon="-2.267911450840882"><ele>714.6666666666666</ele><time>2026-04-21T11:24:12.999Z</time></trkpt><trkpt lat="37.03392343135118" lon="-2.2679108784911133"><ele>713.8333333333333</ele><time>2026-04-21T11:24:13.999Z</time></trkpt><trkpt lat="37.033989929344834" lon="-2.2678631105108655"><ele>713.0</ele><time>2026-04-21T11:24:14.999Z</time></trkpt><trkpt lat="37.03407091730404" lon="-2.2677676448264825"><ele>709.75</ele><time>2026-04-21T11:24:15.999Z</time></trkpt><trkpt lat="37.03414616411193" lon="-2.267632152434934"><ele>706.5</ele><time>2026-04-21T11:24:16.999Z</time></trkpt><trkpt lat="37.03424327842735" lon="-2.267537296083654"><ele>703.25</ele><time>2026-04-21T11:24:17.999Z</time></trkpt><trkpt lat="37.03437881888618" lon="-2.2674125640256135"><ele>700.0</ele><time>2026-04-21T11:24:18.999Z</time></trkpt><trkpt lat="37.03454656125087" lon="-2.2673600989129663"><ele>700.0</ele><time>2026-04-21T11:24:19.999Z</time></trkpt><trkpt lat="37.034714979352145" lon="-2.2673759787613417"><ele>700.0</ele><time>2026-04-21T11:24:20.999Z</time></trkpt><trkpt lat="37.03487764753268" lon="-2.267429423491492"><ele>700.0</ele><time>2026-04-21T11:24:21.999Z</time></trkpt><trkpt lat="37.03501813203942" lon="-2.267524757934437"><ele>695.3333333333334</ele><time>2026-04-21T11:24:22.999Z</time></trkpt><trkpt lat="37.03514495003015" lon="-2.267652962446869"><ele>690.6666666666666</ele><time>2026-04-21T11:24:23.999Z</time></trkpt><trkpt lat="37.03526037172047" lon="-2.267800028613056"><ele>686.0</ele><time>2026-04-21T11:24:24.999Z</time></trkpt><trkpt lat="37.03534433634313" lon="-2.2679687957531716"><ele>689.25</ele><time>2026-04-21T11:24:25.999Z</time></trkpt><trkpt lat="37.03542716341088" lon="-2.268117218670248"><ele>692.5</ele><time>2026-04-21T11:24:26.999Z</time></trkpt><trkpt lat="37.035506877189775" lon="-2.2682459154602244"><ele>695.75</ele><time>2026-04-21T11:24:27.999Z</time></trkpt><trkpt lat="37.035597788095906" lon="-2.2683597334148335"><ele>699.0</ele><time>2026-04-21T11:24:28.999Z</time></trkpt><trkpt lat="37.03573346543446" lon="-2.268377400370212"><ele>693.0</ele><time>2026-04-21T11:24:29.999Z</time></trkpt><trkpt lat="37.03588611094252" lon="-2.2683653703311104"><ele>687.0</ele><time>2026-04-21T11:24:30.999Z</time></trkpt><trkpt lat="37.03603014153539" lon="-2.2683868442313653"><ele>681.0</ele><time>2026-04-21T11:24:31.999Z</time></trkpt><trkpt lat="37.036163022226894" lon="-2.2684481144001194"><ele>675.0</ele><time>2026-04-21T11:24:32.998Z</time></trkpt><trkpt lat="37.03628554331758" lon="-2.2685631183167745"><ele>675.0</ele><time>2026-04-21T11:24:33.998Z</time></trkpt><trkpt lat="37.03637370668871" lon="-2.2687008883419475"><ele>675.0</ele><time>2026-04-21T11:24:34.998Z</time></trkpt><trkpt lat="37.03646624074404" lon="-2.2688356138368215"><ele>675.0</ele><time>2026-04-21T11:24:35.998Z</time></trkpt><trkpt lat="37.036578610911626" lon="-2.2689459169530863"><ele>675.0</ele><time>2026-04-21T11:24:36.998Z</time></trkpt><trkpt lat="37.036707077928035" lon="-2.2690332948455256"><ele>671.0</ele><time>2026-04-21T11:24:37.998Z</time></trkpt><trkpt lat="37.036873508088256" lon="-2.2690350835539923"><ele>667.0</ele><time>2026-04-21T11:24:38.998Z</time></trkpt><trkpt lat="37.0370567297159" lon="-2.2690711756887385"><ele>663.0</ele><time>2026-04-21T11:24:39.998Z</time></trkpt><trkpt lat="37.037249044111114" lon="-2.269142649789905"><ele>663.0</ele><time>2026-04-21T11:24:40.998Z</time></trkpt><trkpt lat="37.037444747844106" lon="-2.2692262642838132"><ele>663.0</ele><time>2026-04-21T11:24:41.998Z</time></trkpt><trkpt lat="37.03762803495746" lon="-2.2693012668215715"><ele>663.0</ele><time>2026-04-21T11:24:42.998Z</time></trkpt><trkpt lat="37.03781293552182" lon="-2.2693861107354945"><ele>660.3333333333334</ele><time>2026-04-21T11:24:43.998Z</time></trkpt><trkpt lat="37.0379946881291" lon="-2.269474791505649"><ele>657.6666666666667</ele><time>2026-04-21T11:24:44.998Z</time></trkpt><trkpt lat="37.03816704973715" lon="-2.269575080402428"><ele>655.0</ele><time>2026-04-21T11:24:45.998Z</time></trkpt><trkpt lat="37.03834345006233" lon="-2.269651230865657"><ele>654.3333333333334</ele><time>2026-04-21T11:24:46.998Z</time></trkpt><trkpt lat="37.038517864283904" lon="-2.2697368691705786"><ele>653.6666666666666</ele><time>2026-04-21T11:24:47.998Z</time></trkpt><trkpt lat="37.03869263276172" lon="-2.269805802140894"><ele>653.0</ele><time>2026-04-21T11:24:48.998Z</time></trkpt><trkpt lat="37.0388683741807" lon="-2.269893119441945"><ele>651.0</ele><time>2026-04-21T11:24:49.998Z</time></trkpt><trkpt lat="37.03904881494534" lon="-2.2699865279198517"><ele>649.0</ele><time>2026-04-21T11:24:50.998Z</time></trkpt><trkpt lat="37.039225248215025" lon="-2.2700726585830235"><ele>647.0</ele><time>2026-04-21T11:24:51.998Z</time></trkpt><trkpt lat="37.0394049347934" lon="-2.2701626885245494"><ele>646.6666666666666</ele><time>2026-04-21T11:24:52.998Z</time></trkpt><trkpt lat="37.039578912297216" lon="-2.270258859467968"><ele>646.3333333333334</ele><time>2026-04-21T11:24:53.998Z</time></trkpt><trkpt lat="37.03975353630414" lon="-2.2703459447459395"><ele>646.0</ele><time>2026-04-21T11:24:54.998Z</time></trkpt><trkpt lat="37.03992792944043" lon="-2.2704336238623406"><ele>644.0</ele><time>2026-04-21T11:24:55.998Z</time></trkpt><trkpt lat="37.04009564542637" lon="-2.2705195437299386"><ele>642.0</ele><time>2026-04-21T11:24:56.998Z</time></trkpt><trkpt lat="37.04026148282716" lon="-2.2706134685298203"><ele>640.0</ele><time>2026-04-21T11:24:57.998Z</time></trkpt><trkpt lat="37.040428181167265" lon="-2.270701346560541"><ele>640.0</ele><time>2026-04-21T11:24:58.998Z</time></trkpt><trkpt lat="37.04056299066763" lon="-2.270762443848527"><ele>640.0</ele><time>2026-04-21T11:24:59.998Z</time></trkpt><trkpt lat="37.040712924029116" lon="-2.270865316061426"><ele>640.0</ele><time>2026-04-21T11:25:00.998Z</time></trkpt><trkpt lat="37.0408579221362" lon="-2.2709703068843647"><ele>638.3333333333334</ele><time>2026-04-21T11:25:01.998Z</time></trkpt><trkpt lat="37.04100503692782" lon="-2.2710780678491242"><ele>636.6666666666666</ele><time>2026-04-21T11:25:02.998Z</time></trkpt><trkpt lat="37.04115505057632" lon="-2.2711750887582776"><ele>635.0</ele><time>2026-04-21T11:25:03.998Z</time></trkpt><trkpt lat="37.041317994469914" lon="-2.271282927291207"><ele>635.0</ele><time>2026-04-21T11:25:04.998Z</time></trkpt><trkpt lat="37.04149219907747" lon="-2.2714018554330413"><ele>635.0</ele><time>2026-04-21T11:25:05.998Z</time></trkpt><trkpt lat="37.04166846703348" lon="-2.2715188729754514"><ele>635.0</ele><time>2026-04-21T11:25:06.998Z</time></trkpt><trkpt lat="37.04183618109755" lon="-2.2716410313695796"><ele>633.0</ele><time>2026-04-21T11:25:07.998Z</time></trkpt><trkpt lat="37.04200135543361" lon="-2.271761149418455"><ele>631.0</ele><time>2026-04-21T11:25:08.998Z</time></trkpt><trkpt lat="37.04216272042139" lon="-2.2718854597136855"><ele>629.0</ele><time>2026-04-21T11:25:09.998Z</time></trkpt><trkpt lat="37.04233174759354" lon="-2.2719841145111155"><ele>626.6666666666666</ele><time>2026-04-21T11:25:10.998Z</time></trkpt><trkpt lat="37.04249699086942" lon="-2.272107042469298"><ele>624.3333333333334</ele><time>2026-04-21T11:25:11.998Z</time></trkpt><trkpt lat="37.042663371116106" lon="-2.272262920524503"><ele>622.0</ele><time>2026-04-21T11:25:12.998Z</time></trkpt><trkpt lat="37.04284046388341" lon="-2.2724123492219004"><ele>620.6666666666667</ele><time>2026-04-21T11:25:13.998Z</time></trkpt><trkpt lat="37.043018050284864" lon="-2.2725487396869113"><ele>619.3333333333334</ele><time>2026-04-21T11:25:14.998Z</time></trkpt><trkpt lat="37.04318242025493" lon="-2.272719186871201"><ele>618.0</ele><time>2026-04-21T11:25:15.998Z</time></trkpt><trkpt lat="37.043330895990756" lon="-2.272870860147665"><ele>617.0</ele><time>2026-04-21T11:25:16.998Z</time></trkpt><trkpt lat="37.04347490382311" lon="-2.273028444107809"><ele>616.0</ele><time>2026-04-21T11:25:17.998Z</time></trkpt><trkpt lat="37.04362130811339" lon="-2.2731874518662774"><ele>615.0</ele><time>2026-04-21T11:25:18.998Z</time></trkpt><trkpt lat="37.04377284248606" lon="-2.273352772398855"><ele>614.3333333333334</ele><time>2026-04-21T11:25:19.998Z</time></trkpt><trkpt lat="37.04393341400753" lon="-2.2735128691192816"><ele>613.6666666666667</ele><time>2026-04-21T11:25:20.998Z</time></trkpt><trkpt lat="37.04410992143474" lon="-2.2736305014682614"><ele>613.0</ele><time>2026-04-21T11:25:21.998Z</time></trkpt><trkpt lat="37.04428165613616" lon="-2.273764466257653"><ele>611.0</ele><time>2026-04-21T11:25:22.998Z</time></trkpt><trkpt lat="37.04445248328548" lon="-2.273902323687672"><ele>609.0</ele><time>2026-04-21T11:25:23.998Z</time></trkpt><trkpt lat="37.04462864607261" lon="-2.2740322324265505"><ele>607.0</ele><time>2026-04-21T11:25:24.998Z</time></trkpt><trkpt lat="37.044803637868704" lon="-2.2741588857406296"><ele>605.3333333333334</ele><time>2026-04-21T11:25:25.998Z</time></trkpt><trkpt lat="37.04498226899158" lon="-2.2742817285454695"><ele>603.6666666666666</ele><time>2026-04-21T11:25:26.998Z</time></trkpt><trkpt lat="37.04515752743711" lon="-2.2744053214624005"><ele>602.0</ele><time>2026-04-21T11:25:27.998Z</time></trkpt><trkpt lat="37.04533890034335" lon="-2.2745015370070085"><ele>602.0</ele><time>2026-04-21T11:25:28.998Z</time></trkpt><trkpt lat="37.04551963174802" lon="-2.2745903608812594"><ele>602.0</ele><time>2026-04-21T11:25:29.998Z</time></trkpt><trkpt lat="37.045698309031664" lon="-2.2746960663962517"><ele>602.0</ele><time>2026-04-21T11:25:30.998Z</time></trkpt><trkpt lat="37.045888732723846" lon="-2.2747923718535303"><ele>600.3333333333333</ele><time>2026-04-21T11:25:31.998Z</time></trkpt><trkpt lat="37.04607586050704" lon="-2.274917593975866"><ele>598.6666666666666</ele><time>2026-04-21T11:25:32.998Z</time></trkpt><trkpt lat="37.04626897614286" lon="-2.2750532288589023"><ele>597.0</ele><time>2026-04-21T11:25:33.998Z</time></trkpt><trkpt lat="37.04645084187553" lon="-2.2752149709856098"><ele>594.5</ele><time>2026-04-21T11:25:34.998Z</time></trkpt><trkpt lat="37.04663594843775" lon="-2.2753803273389943"><ele>592.0</ele><time>2026-04-21T11:25:35.998Z</time></trkpt><trkpt lat="37.04680530763387" lon="-2.2755681235729988"><ele>591.3333333333334</ele><time>2026-04-21T11:25:36.998Z</time></trkpt><trkpt lat="37.046973860677866" lon="-2.2757511986093313"><ele>590.6666666666666</ele><time>2026-04-21T11:25:37.998Z</time></trkpt><trkpt lat="37.047139402079694" lon="-2.2759321602460507"><ele>590.0</ele><time>2026-04-21T11:25:38.998Z</time></trkpt><trkpt lat="37.04729869498955" lon="-2.2761049034238288"><ele>588.6666666666666</ele><time>2026-04-21T11:25:39.998Z</time></trkpt><trkpt lat="37.047476657214794" lon="-2.276269434238098"><ele>587.3333333333334</ele><time>2026-04-21T11:25:40.998Z</time></trkpt><trkpt lat="37.04764492361846" lon="-2.2764474888912987"><ele>586.0</ele><time>2026-04-21T11:25:41.998Z</time></trkpt><trkpt lat="37.04782322774437" lon="-2.276611562504266"><ele>585.3333333333334</ele><time>2026-04-21T11:25:42.998Z</time></trkpt><trkpt lat="37.04799490901408" lon="-2.2767884981852684"><ele>584.6666666666666</ele><time>2026-04-21T11:25:43.998Z</time></trkpt><trkpt lat="37.04817279215139" lon="-2.276959711516869"><ele>584.0</ele><time>2026-04-21T11:25:44.998Z</time></trkpt><trkpt lat="37.04834601342118" lon="-2.277100767011833"><ele>583.3333333333333</ele><time>2026-04-21T11:25:45.998Z</time></trkpt><trkpt lat="37.04852553555309" lon="-2.277227907235486"><ele>582.6666666666666</ele><time>2026-04-21T11:25:46.998Z</time></trkpt><trkpt lat="37.04869197700724" lon="-2.277356378324885"><ele>582.0</ele><time>2026-04-21T11:25:47.998Z</time></trkpt><trkpt lat="37.048846387631656" lon="-2.2774881175438577"><ele>581.3333333333334</ele><time>2026-04-21T11:25:48.998Z</time></trkpt><trkpt lat="37.04899956844111" lon="-2.277610503731348"><ele>580.6666666666667</ele><time>2026-04-21T11:25:49.998Z</time></trkpt><trkpt lat="37.04914646228093" lon="-2.2777753960025096"><ele>580.0</ele><time>2026-04-21T11:25:50.998Z</time></trkpt><trkpt lat="37.04928085161749" lon="-2.2779667262661216"><ele>578.3333333333334</ele><time>2026-04-21T11:25:51.998Z</time></trkpt><trkpt lat="37.04939670643592" lon="-2.278180230129842"><ele>576.6666666666666</ele><time>2026-04-21T11:25:52.998Z</time></trkpt><trkpt lat="37.04951616705861" lon="-2.2784364071059198"><ele>575.0</ele><time>2026-04-21T11:25:53.998Z</time></trkpt><trkpt lat="37.049629005472546" lon="-2.278661771828352"><ele>575.0</ele><time>2026-04-21T11:25:54.998Z</time></trkpt><trkpt lat="37.04974521942306" lon="-2.278884377313726"><ele>575.0</ele><time>2026-04-21T11:25:55.998Z</time></trkpt><trkpt lat="37.04984458961293" lon="-2.2790918009180383"><ele>575.0</ele><time>2026-04-21T11:25:56.998Z</time></trkpt><trkpt lat="37.04994260605745" lon="-2.2792898389982734"><ele>573.6666666666666</ele><time>2026-04-21T11:25:57.998Z</time></trkpt><trkpt lat="37.05006817440688" lon="-2.2795076424622622"><ele>572.3333333333334</ele><time>2026-04-21T11:25:58.998Z</time></trkpt><trkpt lat="37.050162015274864" lon="-2.279725621938325"><ele>571.0</ele><time>2026-04-21T11:25:59.998Z</time></trkpt><trkpt lat="37.05026445295721" lon="-2.2799299255489722"><ele>569.6666666666667</ele><time>2026-04-21T11:26:00.998Z</time></trkpt><trkpt lat="37.050372220796845" lon="-2.2801341984843506"><ele>568.3333333333334</ele><time>2026-04-21T11:26:01.998Z</time></trkpt><trkpt lat="37.05049515268096" lon="-2.280317951296852"><ele>567.0</ele><time>2026-04-21T11:26:02.998Z</time></trkpt><trkpt lat="37.05062600962902" lon="-2.2804940485007927"><ele>566.3333333333334</ele><time>2026-04-21T11:26:03.998Z</time></trkpt><trkpt lat="37.0507654421226" lon="-2.280647056166482"><ele>565.6666666666667</ele><time>2026-04-21T11:26:04.998Z</time></trkpt><trkpt lat="37.05089763714713" lon="-2.2808236715900114"><ele>565.0</ele><time>2026-04-21T11:26:05.998Z</time></trkpt><trkpt lat="37.051027628432365" lon="-2.28102142030412"><ele>565.0</ele><time>2026-04-21T11:26:06.998Z</time></trkpt><trkpt lat="37.05115517427757" lon="-2.2812292167446455"><ele>565.0</ele><time>2026-04-21T11:26:07.998Z</time></trkpt><trkpt lat="37.05124776038192" lon="-2.2814437550808218"><ele>565.0</ele><time>2026-04-21T11:26:08.998Z</time></trkpt><trkpt lat="37.051328791828894" lon="-2.2816817612191618"><ele>564.0</ele><time>2026-04-21T11:26:09.998Z</time></trkpt><trkpt lat="37.05140277915973" lon="-2.2819327842632493"><ele>563.0</ele><time>2026-04-21T11:26:10.998Z</time></trkpt><trkpt lat="37.05148161509297" lon="-2.2821899085956225"><ele>562.0</ele><time>2026-04-21T11:26:11.998Z</time></trkpt><trkpt lat="37.05156164614326" lon="-2.2824676263757433"><ele>561.0</ele><time>2026-04-21T11:26:12.998Z</time></trkpt><trkpt lat="37.051632255912814" lon="-2.282732648012504"><ele>560.0</ele><time>2026-04-21T11:26:13.998Z</time></trkpt><trkpt lat="37.051699665766066" lon="-2.283003948878406"><ele>558.3333333333333</ele><time>2026-04-21T11:26:14.998Z</time></trkpt><trkpt lat="37.051760446568764" lon="-2.28326118764347"><ele>556.6666666666666</ele><time>2026-04-21T11:26:15.998Z</time></trkpt><trkpt lat="37.05182713224419" lon="-2.2835118244534494"><ele>555.0</ele><time>2026-04-21T11:26:16.998Z</time></trkpt><trkpt lat="37.05188498561543" lon="-2.2837661875955506"><ele>554.3333333333334</ele><time>2026-04-21T11:26:17.998Z</time></trkpt><trkpt lat="37.05196399308838" lon="-2.2840075059029585"><ele>553.6666666666667</ele><time>2026-04-21T11:26:18.998Z</time></trkpt><trkpt lat="37.05202917057773" lon="-2.2842740070445227"><ele>553.0</ele><time>2026-04-21T11:26:19.998Z</time></trkpt><trkpt lat="37.05207702795705" lon="-2.2845344170540054"><ele>552.3333333333334</ele><time>2026-04-21T11:26:20.998Z</time></trkpt><trkpt lat="37.05212485154942" lon="-2.2847919864431088"><ele>551.6666666666666</ele><time>2026-04-21T11:26:21.998Z</time></trkpt><trkpt lat="37.05218650567637" lon="-2.2850441310558405"><ele>551.0</ele><time>2026-04-21T11:26:22.998Z</time></trkpt><trkpt lat="37.0522524082314" lon="-2.285292727091773"><ele>551.0</ele><time>2026-04-21T11:26:23.998Z</time></trkpt><trkpt lat="37.05233788114586" lon="-2.2855261075224442"><ele>551.0</ele><time>2026-04-21T11:26:24.998Z</time></trkpt><trkpt lat="37.05239796171276" lon="-2.285749096297958"><ele>551.0</ele><time>2026-04-21T11:26:25.998Z</time></trkpt><trkpt lat="37.052503522101986" lon="-2.2859602898052827"><ele>549.6666666666666</ele><time>2026-04-21T11:26:26.998Z</time></trkpt><trkpt lat="37.052592929382214" lon="-2.286168877865549"><ele>548.3333333333334</ele><time>2026-04-21T11:26:27.998Z</time></trkpt><trkpt lat="37.05267575080106" lon="-2.2863807510148133"><ele>547.0</ele><time>2026-04-21T11:26:28.998Z</time></trkpt><trkpt lat="37.05274964502563" lon="-2.28657250596752"><ele>546.6666666666667</ele><time>2026-04-21T11:26:29.998Z</time></trkpt><trkpt lat="37.0528328104046" lon="-2.2867663985232407"><ele>546.3333333333334</ele><time>2026-04-21T11:26:30.998Z</time></trkpt><trkpt lat="37.05291604349797" lon="-2.286949277690969"><ele>546.0</ele><time>2026-04-21T11:26:31.998Z</time></trkpt><trkpt lat="37.05300203308972" lon="-2.287123520189192"><ele>546.3333333333334</ele><time>2026-04-21T11:26:32.998Z</time></trkpt><trkpt lat="37.05309400131236" lon="-2.2873056108743586"><ele>546.6666666666667</ele><time>2026-04-21T11:26:33.998Z</time></trkpt><trkpt lat="37.05319412058586" lon="-2.2874936536004173"><ele>547.0</ele><time>2026-04-21T11:26:34.998Z</time></trkpt><trkpt lat="37.053283691975444" lon="-2.287660976526801"><ele>547.3333333333334</ele><time>2026-04-21T11:26:35.998Z</time></trkpt><trkpt lat="37.0533743343166" lon="-2.287856375001318"><ele>547.6666666666666</ele><time>2026-04-21T11:26:36.998Z</time></trkpt><trkpt lat="37.05346307352085" lon="-2.2880668922259693"><ele>548.0</ele><time>2026-04-21T11:26:37.998Z</time></trkpt><trkpt lat="37.05354883520617" lon="-2.288275297762366"><ele>546.3333333333333</ele><time>2026-04-21T11:26:38.998Z</time></trkpt><trkpt lat="37.05364151814055" lon="-2.2884987322495767"><ele>544.6666666666666</ele><time>2026-04-21T11:26:39.998Z</time></trkpt><trkpt lat="37.05374160400619" lon="-2.2887120044051232"><ele>543.0</ele><time>2026-04-21T11:26:40.997Z</time></trkpt><trkpt lat="37.05384251830908" lon="-2.288923876401256"><ele>542.6666666666666</ele><time>2026-04-21T11:26:41.997Z</time></trkpt><trkpt lat="37.05395556275703" lon="-2.2891380976087894"><ele>542.3333333333333</ele><time>2026-04-21T11:26:42.997Z</time></trkpt><trkpt lat="37.05406622152374" lon="-2.2893325357155567"><ele>542.0</ele><time>2026-04-21T11:26:43.997Z</time></trkpt><trkpt lat="37.05418561677726" lon="-2.2895196492227656"><ele>542.0</ele><time>2026-04-21T11:26:44.997Z</time></trkpt><trkpt lat="37.05430622887972" lon="-2.2896839175419648"><ele>542.0</ele><time>2026-04-21T11:26:45.997Z</time></trkpt><trkpt lat="37.05442676381811" lon="-2.289853614452429"><ele>542.0</ele><time>2026-04-21T11:26:46.997Z</time></trkpt><trkpt lat="37.05456111363724" lon="-2.2900008721570924"><ele>542.0</ele><time>2026-04-21T11:26:47.997Z</time></trkpt><trkpt lat="37.05469995209068" lon="-2.2901777715841"><ele>542.0</ele><time>2026-04-21T11:26:48.997Z</time></trkpt><trkpt lat="37.05482620871096" lon="-2.290359273450438"><ele>542.0</ele><time>2026-04-21T11:26:49.997Z</time></trkpt><trkpt lat="37.054944841854635" lon="-2.2905315413875615"><ele>541.6666666666666</ele><time>2026-04-21T11:26:50.997Z</time></trkpt><trkpt lat="37.055071113222965" lon="-2.2907146376956633"><ele>541.3333333333334</ele><time>2026-04-21T11:26:51.997Z</time></trkpt><trkpt lat="37.05519682100091" lon="-2.29085759334507"><ele>541.0</ele><time>2026-04-21T11:26:52.997Z</time></trkpt><trkpt lat="37.055315816229786" lon="-2.2910357511771866"><ele>541.0</ele><time>2026-04-21T11:26:53.997Z</time></trkpt><trkpt lat="37.05544751760338" lon="-2.291201878281141"><ele>541.0</ele><time>2026-04-21T11:26:54.997Z</time></trkpt><trkpt lat="37.05556880951558" lon="-2.2913983305389847"><ele>541.0</ele><time>2026-04-21T11:26:55.997Z</time></trkpt><trkpt lat="37.05568592473989" lon="-2.291577559175018"><ele>541.0</ele><time>2026-04-21T11:26:56.997Z</time></trkpt><trkpt lat="37.055799776621015" lon="-2.291738974341942"><ele>541.0</ele><time>2026-04-21T11:26:57.997Z</time></trkpt><trkpt lat="37.05590034712164" lon="-2.291913362303443"><ele>541.0</ele><time>2026-04-21T11:26:58.997Z</time></trkpt><trkpt lat="37.05599272498884" lon="-2.292113075029934"><ele>540.3333333333334</ele><time>2026-04-21T11:26:59.997Z</time></trkpt><trkpt lat="37.05607060722041" lon="-2.292316133528584"><ele>539.6666666666666</ele><time>2026-04-21T11:27:00.997Z</time></trkpt><trkpt lat="37.05613135613762" lon="-2.2925235477598935"><ele>539.0</ele><time>2026-04-21T11:27:01.997Z</time></trkpt><trkpt lat="37.05618482040588" lon="-2.2927286153935884"><ele>539.0</ele><time>2026-04-21T11:27:02.997Z</time></trkpt><trkpt lat="37.05621220809527" lon="-2.2929266920496616"><ele>539.0</ele><time>2026-04-21T11:27:03.997Z</time></trkpt><trkpt lat="37.05625348749029" lon="-2.2931127938522273"><ele>539.0</ele><time>2026-04-21T11:27:04.997Z</time></trkpt><trkpt lat="37.056268616738635" lon="-2.293296928388551"><ele>538.5</ele><time>2026-04-21T11:27:05.997Z</time></trkpt><trkpt lat="37.05628534713015" lon="-2.293466339510938"><ele>538.0</ele><time>2026-04-21T11:27:06.997Z</time></trkpt><trkpt lat="37.056318734727135" lon="-2.293630317399046"><ele>537.5</ele><time>2026-04-21T11:27:07.997Z</time></trkpt><trkpt lat="37.05635478635531" lon="-2.293772272058163"><ele>537.0</ele><time>2026-04-21T11:27:08.997Z</time></trkpt><trkpt lat="37.05637260529068" lon="-2.293921659530407"><ele>536.8333333333334</ele><time>2026-04-21T11:27:09.997Z</time></trkpt><trkpt lat="37.056416811080084" lon="-2.2940582886901146"><ele>536.6666666666666</ele><time>2026-04-21T11:27:10.997Z</time></trkpt><trkpt lat="37.05644703372654" lon="-2.2941724134596724"><ele>536.5</ele><time>2026-04-21T11:27:11.997Z</time></trkpt><trkpt lat="37.056474557822895" lon="-2.2942760700609406"><ele>536.3333333333333</ele><time>2026-04-21T11:27:12.997Z</time></trkpt><trkpt lat="37.056482109788654" lon="-2.294360288101438"><ele>536.1666666666666</ele><time>2026-04-21T11:27:13.997Z</time></trkpt><trkpt lat="37.056486800851424" lon="-2.294440140625572"><ele>536.0</ele><time>2026-04-21T11:27:14.997Z</time></trkpt><trkpt lat="37.056465830842264" lon="-2.2945782777219765"><ele>536.0</ele><time>2026-04-21T11:27:16.997Z</time></trkpt><trkpt lat="37.056448747927504" lon="-2.294657834124074"><ele>536.0</ele><time>2026-04-21T11:27:17.997Z</time></trkpt><trkpt lat="37.05643254893288" lon="-2.294746130745923"><ele>536.0</ele><time>2026-04-21T11:27:18.997Z</time></trkpt><trkpt lat="37.05642121965976" lon="-2.294835763412604"><ele>536.0</ele><time>2026-04-21T11:27:19.997Z</time></trkpt><trkpt lat="37.056400018975836" lon="-2.2949217048872423"><ele>536.0</ele><time>2026-04-21T11:27:20.997Z</time></trkpt><trkpt lat="37.05639549997379" lon="-2.2950205177854435"><ele>536.0</ele><time>2026-04-21T11:27:21.997Z</time></trkpt><trkpt lat="37.05640454602552" lon="-2.295115522227203"><ele>536.0</ele><time>2026-04-21T11:27:22.997Z</time></trkpt><trkpt lat="37.056420580129256" lon="-2.295204009079058"><ele>536.0</ele><time>2026-04-21T11:27:23.997Z</time></trkpt><trkpt lat="37.05642014944991" lon="-2.295299484354551"><ele>536.0</ele><time>2026-04-21T11:27:24.997Z</time></trkpt><trkpt lat="37.05641238820108" lon="-2.2954001057910314"><ele>536.0</ele><time>2026-04-21T11:27:25.997Z</time></trkpt><trkpt lat="37.056394777963185" lon="-2.2954922138724934"><ele>536.0</ele><time>2026-04-21T11:27:26.997Z</time></trkpt><trkpt lat="37.0563816534087" lon="-2.29559696942861"><ele>536.0</ele><time>2026-04-21T11:27:27.997Z</time></trkpt><trkpt lat="37.05634749334506" lon="-2.2957018044852524"><ele>536.0</ele><time>2026-04-21T11:27:28.997Z</time></trkpt><trkpt lat="37.056289421799065" lon="-2.2957999046445945"><ele>535.8</ele><time>2026-04-21T11:27:29.997Z</time></trkpt><trkpt lat="37.056230783365656" lon="-2.2959028300055215"><ele>535.6</ele><time>2026-04-21T11:27:30.997Z</time></trkpt><trkpt lat="37.056163171524155" lon="-2.295985658437868"><ele>535.4</ele><time>2026-04-21T11:27:31.997Z</time></trkpt><trkpt lat="37.05609622632276" lon="-2.2960941975455014"><ele>535.2</ele><time>2026-04-21T11:27:32.997Z</time></trkpt><trkpt lat="37.056019635337755" lon="-2.296192953570855"><ele>535.0</ele><time>2026-04-21T11:27:33.997Z</time></trkpt><trkpt lat="37.0559525319235" lon="-2.296316864519868"><ele>535.2</ele><time>2026-04-21T11:27:34.997Z</time></trkpt><trkpt lat="37.055910970802536" lon="-2.296423428195924"><ele>535.4</ele><time>2026-04-21T11:27:35.997Z</time></trkpt><trkpt lat="37.055848217673045" lon="-2.2965352328066087"><ele>535.6</ele><time>2026-04-21T11:27:36.997Z</time></trkpt><trkpt lat="37.05578278670199" lon="-2.2966397014916384"><ele>535.8</ele><time>2026-04-21T11:27:37.997Z</time></trkpt><trkpt lat="37.05571761030476" lon="-2.2967385689138307"><ele>536.0</ele><time>2026-04-21T11:27:38.997Z</time></trkpt><trkpt lat="37.05565088744803" lon="-2.2968378332656094"><ele>536.2</ele><time>2026-04-21T11:27:39.997Z</time></trkpt><trkpt lat="37.05556007419971" lon="-2.2969067567132706"><ele>536.4000000000001</ele><time>2026-04-21T11:27:40.997Z</time></trkpt><trkpt lat="37.0554698622762" lon="-2.296969595731227"><ele>536.6</ele><time>2026-04-21T11:27:41.997Z</time></trkpt><trkpt lat="37.05539194596228" lon="-2.297018540353449"><ele>536.8000000000001</ele><time>2026-04-21T11:27:42.997Z</time></trkpt><trkpt lat="37.055320826437764" lon="-2.2970880516357353"><ele>537.0</ele><time>2026-04-21T11:27:43.997Z</time></trkpt><trkpt lat="37.055251489536126" lon="-2.2971759185212197"><ele>537.2</ele><time>2026-04-21T11:27:44.997Z</time></trkpt><trkpt lat="37.05519751558132" lon="-2.297298159898439"><ele>537.4000000000001</ele><time>2026-04-21T11:27:45.997Z</time></trkpt><trkpt lat="37.05514424436864" lon="-2.297397401202385"><ele>537.5999999999999</ele><time>2026-04-21T11:27:46.997Z</time></trkpt><trkpt lat="37.055085440253016" lon="-2.2974870247041337"><ele>537.8</ele><time>2026-04-21T11:27:47.997Z</time></trkpt><trkpt lat="37.05501309368484" lon="-2.2975842678126797"><ele>538.0</ele><time>2026-04-21T11:27:48.997Z</time></trkpt><trkpt lat="37.05495493922373" lon="-2.297622227202611"><ele>538.3333333333334</ele><time>2026-04-21T11:27:49.997Z</time></trkpt><trkpt lat="37.05488508914436" lon="-2.297723728783442"><ele>538.6666666666667</ele><time>2026-04-21T11:27:50.997Z</time></trkpt><trkpt lat="37.0548399199206" lon="-2.297808052028937"><ele>539.0</ele><time>2026-04-21T11:27:51.997Z</time></trkpt><trkpt lat="37.05481977349991" lon="-2.2979065282691282"><ele>539.3333333333334</ele><time>2026-04-21T11:27:52.997Z</time></trkpt><trkpt lat="37.054794093155415" lon="-2.2980162857193487"><ele>539.6666666666666</ele><time>2026-04-21T11:27:53.997Z</time></trkpt><trkpt lat="37.05476590196624" lon="-2.298113796098629"><ele>540.0</ele><time>2026-04-21T11:27:54.997Z</time></trkpt><trkpt lat="37.05471705654328" lon="-2.298199193525676"><ele>540.8</ele><time>2026-04-21T11:27:55.997Z</time></trkpt><trkpt lat="37.054658742741466" lon="-2.298270547341453"><ele>541.6</ele><time>2026-04-21T11:27:56.997Z</time></trkpt><trkpt lat="37.05457516352774" lon="-2.298320720173152"><ele>542.4</ele><time>2026-04-21T11:27:57.997Z</time></trkpt><trkpt lat="37.05448448943654" lon="-2.2983750480852043"><ele>543.2</ele><time>2026-04-21T11:27:58.997Z</time></trkpt><trkpt lat="37.05439855865367" lon="-2.2984035818363724"><ele>544.0</ele><time>2026-04-21T11:27:59.997Z</time></trkpt><trkpt lat="37.05430625120654" lon="-2.298435370016902"><ele>544.0</ele><time>2026-04-21T11:28:00.997Z</time></trkpt><trkpt lat="37.054225768805736" lon="-2.2984598665970952"><ele>544.0</ele><time>2026-04-21T11:28:01.997Z</time></trkpt><trkpt lat="37.05414378449847" lon="-2.2985199799315392"><ele>544.0</ele><time>2026-04-21T11:28:02.997Z</time></trkpt><trkpt lat="37.05406848210626" lon="-2.2985772966747"><ele>544.0</ele><time>2026-04-21T11:28:03.997Z</time></trkpt><trkpt lat="37.05398363649028" lon="-2.2986252455275604"><ele>544.0</ele><time>2026-04-21T11:28:04.997Z</time></trkpt><trkpt lat="37.0539002580537" lon="-2.298665941347985"><ele>544.0</ele><time>2026-04-21T11:28:05.997Z</time></trkpt><trkpt lat="37.053795516553194" lon="-2.2987344427411895"><ele>544.8</ele><time>2026-04-21T11:28:06.997Z</time></trkpt><trkpt lat="37.05369478702854" lon="-2.298768219195071"><ele>545.5999999999999</ele><time>2026-04-21T11:28:07.997Z</time></trkpt><trkpt lat="37.05359220019027" lon="-2.2987889452721193"><ele>546.4</ele><time>2026-04-21T11:28:08.997Z</time></trkpt><trkpt lat="37.0534778376384" lon="-2.2988133727058995"><ele>547.1999999999999</ele><time>2026-04-21T11:28:09.997Z</time></trkpt><trkpt lat="37.053364152391076" lon="-2.2988321216072563"><ele>548.0</ele><time>2026-04-21T11:28:10.997Z</time></trkpt><trkpt lat="37.053255431797695" lon="-2.2988708188980747"><ele>548.5</ele><time>2026-04-21T11:28:11.997Z</time></trkpt><trkpt lat="37.053129711298176" lon="-2.29890674339318"><ele>549.0</ele><time>2026-04-21T11:28:12.997Z</time></trkpt><trkpt lat="37.05296371612284" lon="-2.298897995817442"><ele>549.5</ele><time>2026-04-21T11:28:13.997Z</time></trkpt><trkpt lat="37.05283858526585" lon="-2.2988986942633494"><ele>550.0</ele><time>2026-04-21T11:28:14.997Z</time></trkpt><trkpt lat="37.05270705301739" lon="-2.2989506052547903"><ele>551.0</ele><time>2026-04-21T11:28:15.997Z</time></trkpt><trkpt lat="37.05259572241343" lon="-2.298978995005323"><ele>552.0</ele><time>2026-04-21T11:28:16.997Z</time></trkpt><trkpt lat="37.052500827313814" lon="-2.2990252497692727"><ele>553.0</ele><time>2026-04-21T11:28:17.997Z</time></trkpt><trkpt lat="37.05240886533172" lon="-2.2990652155527043"><ele>554.0</ele><time>2026-04-21T11:28:18.997Z</time></trkpt><trkpt lat="37.052317725871866" lon="-2.2991101841012327"><ele>555.0</ele><time>2026-04-21T11:28:19.997Z</time></trkpt><trkpt lat="37.052231285176106" lon="-2.2991309017443426"><ele>555.2</ele><time>2026-04-21T11:28:20.997Z</time></trkpt><trkpt lat="37.05213582494061" lon="-2.2991464038210987"><ele>555.4</ele><time>2026-04-21T11:28:21.997Z</time></trkpt><trkpt lat="37.05202976431534" lon="-2.2991353164994437"><ele>555.6</ele><time>2026-04-21T11:28:22.997Z</time></trkpt><trkpt lat="37.05193068125169" lon="-2.2991125232525147"><ele>555.8</ele><time>2026-04-21T11:28:23.997Z</time></trkpt><trkpt lat="37.05184007284697" lon="-2.2990466906593157"><ele>556.0</ele><time>2026-04-21T11:28:24.997Z</time></trkpt><trkpt lat="37.05173316879765" lon="-2.298991850412443"><ele>556.0</ele><time>2026-04-21T11:28:25.997Z</time></trkpt><trkpt lat="37.051636709697036" lon="-2.29895035489773"><ele>556.0</ele><time>2026-04-21T11:28:26.997Z</time></trkpt><trkpt lat="37.05152938495505" lon="-2.2989165500513162"><ele>556.0</ele><time>2026-04-21T11:28:27.997Z</time></trkpt><trkpt lat="37.05142216335298" lon="-2.298876003021365"><ele>556.0</ele><time>2026-04-21T11:28:28.997Z</time></trkpt><trkpt lat="37.05131224680415" lon="-2.2988615614423993"><ele>556.0</ele><time>2026-04-21T11:28:29.997Z</time></trkpt><trkpt lat="37.05118914227198" lon="-2.298845298841115"><ele>557.25</ele><time>2026-04-21T11:28:30.997Z</time></trkpt><trkpt lat="37.05106802929102" lon="-2.298813567659157"><ele>558.5</ele><time>2026-04-21T11:28:31.997Z</time></trkpt><trkpt lat="37.05093269748833" lon="-2.2988188699231897"><ele>559.75</ele><time>2026-04-21T11:28:32.997Z</time></trkpt><trkpt lat="37.050824214135005" lon="-2.2987804848994737"><ele>561.0</ele><time>2026-04-21T11:28:33.997Z</time></trkpt><trkpt lat="37.05073097689015" lon="-2.298705300242556"><ele>561.8</ele><time>2026-04-21T11:28:34.997Z</time></trkpt><trkpt lat="37.050620258354236" lon="-2.298734989423349"><ele>562.6</ele><time>2026-04-21T11:28:35.997Z</time></trkpt><trkpt lat="37.050501713048156" lon="-2.2987719235505053"><ele>563.4</ele><time>2026-04-21T11:28:36.997Z</time></trkpt><trkpt lat="37.0503955396617" lon="-2.2988044170026587"><ele>564.2</ele><time>2026-04-21T11:28:37.997Z</time></trkpt><trkpt lat="37.05030253933426" lon="-2.2988414432246116"><ele>565.0</ele><time>2026-04-21T11:28:38.997Z</time></trkpt><trkpt lat="37.05022269758546" lon="-2.298831212117472"><ele>565.0</ele><time>2026-04-21T11:28:39.997Z</time></trkpt><trkpt lat="37.05013804553746" lon="-2.2988398601158244"><ele>565.0</ele><time>2026-04-21T11:28:40.997Z</time></trkpt><trkpt lat="37.050070349581894" lon="-2.2988266966095754"><ele>565.0</ele><time>2026-04-21T11:28:41.997Z</time></trkpt><trkpt lat="37.049987723944746" lon="-2.2988617888891127"><ele>565.0</ele><time>2026-04-21T11:28:42.997Z</time></trkpt><trkpt lat="37.049901831139486" lon="-2.2988718870168534"><ele>565.0</ele><time>2026-04-21T11:28:43.997Z</time></trkpt><trkpt lat="37.049802959611306" lon="-2.2988670959145097"><ele>565.0</ele><time>2026-04-21T11:28:44.997Z</time></trkpt><trkpt lat="37.04973346078872" lon="-2.2989118727484685"><ele>564.4</ele><time>2026-04-21T11:28:45.997Z</time></trkpt><trkpt lat="37.04967809509702" lon="-2.2989924992924697"><ele>563.8</ele><time>2026-04-21T11:28:46.997Z</time></trkpt><trkpt lat="37.049630945742564" lon="-2.2991072107513406"><ele>563.2</ele><time>2026-04-21T11:28:47.997Z</time></trkpt><trkpt lat="37.04958121473349" lon="-2.299224726490002"><ele>562.6</ele><time>2026-04-21T11:28:48.996Z</time></trkpt><trkpt lat="37.04952560295176" lon="-2.299354856912517"><ele>562.0</ele><time>2026-04-21T11:28:49.996Z</time></trkpt><trkpt lat="37.049466868942936" lon="-2.299471316633001"><ele>562.0</ele><time>2026-04-21T11:28:50.996Z</time></trkpt><trkpt lat="37.04942353354177" lon="-2.299620263355311"><ele>562.0</ele><time>2026-04-21T11:28:51.996Z</time></trkpt><trkpt lat="37.049385581435125" lon="-2.29976689196639"><ele>562.0</ele><time>2026-04-21T11:28:52.996Z</time></trkpt><trkpt lat="37.04936358736636" lon="-2.299935969996105"><ele>562.0</ele><time>2026-04-21T11:28:53.996Z</time></trkpt><trkpt lat="37.04933635814662" lon="-2.3001039218252726"><ele>562.2</ele><time>2026-04-21T11:28:54.996Z</time></trkpt><trkpt lat="37.04930649049072" lon="-2.3002665878364925"><ele>562.4000000000001</ele><time>2026-04-21T11:28:55.996Z</time></trkpt><trkpt lat="37.04929167041384" lon="-2.300419020263089"><ele>562.5999999999999</ele><time>2026-04-21T11:28:56.996Z</time></trkpt><trkpt lat="37.04926144863415" lon="-2.3005328878252924"><ele>562.8</ele><time>2026-04-21T11:28:57.996Z</time></trkpt><trkpt lat="37.04925945987248" lon="-2.3006355979177315"><ele>563.0</ele><time>2026-04-21T11:28:58.996Z</time></trkpt><trkpt lat="37.049223354405406" lon="-2.3007166224785234"><ele>563.1999999999999</ele><time>2026-04-21T11:28:59.996Z</time></trkpt><trkpt lat="37.04916282024282" lon="-2.300768557708024"><ele>563.4</ele><time>2026-04-21T11:29:00.996Z</time></trkpt><trkpt lat="37.04907155077353" lon="-2.3007972247602515"><ele>563.5999999999999</ele><time>2026-04-21T11:29:01.996Z</time></trkpt><trkpt lat="37.04897037697944" lon="-2.300782521366301"><ele>563.8</ele><time>2026-04-21T11:29:02.996Z</time></trkpt><trkpt lat="37.04885973258743" lon="-2.300784518990561"><ele>564.0</ele><time>2026-04-21T11:29:03.996Z</time></trkpt><trkpt lat="37.04873638616425" lon="-2.3008076073000807"><ele>564.4</ele><time>2026-04-21T11:29:04.996Z</time></trkpt><trkpt lat="37.04864282838194" lon="-2.300815302524734"><ele>564.8</ele><time>2026-04-21T11:29:05.996Z</time></trkpt><trkpt lat="37.04854678249956" lon="-2.300858056916257"><ele>565.2</ele><time>2026-04-21T11:29:06.996Z</time></trkpt><trkpt lat="37.048453622961624" lon="-2.3009017163032723"><ele>565.6</ele><time>2026-04-21T11:29:07.996Z</time></trkpt><trkpt lat="37.04837064091757" lon="-2.3009582230464494"><ele>566.0</ele><time>2026-04-21T11:29:08.996Z</time></trkpt><trkpt lat="37.0482969115044" lon="-2.3010402724740677"><ele>567.0</ele><time>2026-04-21T11:29:09.996Z</time></trkpt><trkpt lat="37.04822176517378" lon="-2.3011182634759386"><ele>568.0</ele><time>2026-04-21T11:29:10.996Z</time></trkpt><trkpt lat="37.0481445402138" lon="-2.3011859843737343"><ele>569.0</ele><time>2026-04-21T11:29:11.996Z</time></trkpt><trkpt lat="37.048066428763875" lon="-2.301253908550921"><ele>570.0</ele><time>2026-04-21T11:29:12.996Z</time></trkpt><trkpt lat="37.04798874258576" lon="-2.3013251009278743"><ele>571.0</ele><time>2026-04-21T11:29:13.996Z</time></trkpt><trkpt lat="37.047919041858776" lon="-2.301411054028696"><ele>571.0</ele><time>2026-04-21T11:29:14.996Z</time></trkpt><trkpt lat="37.047867223483784" lon="-2.301527288996531"><ele>571.0</ele><time>2026-04-21T11:29:15.996Z</time></trkpt><trkpt lat="37.047832670040854" lon="-2.3016577265309928"><ele>571.0</ele><time>2026-04-21T11:29:16.996Z</time></trkpt><trkpt lat="37.04780455943593" lon="-2.3017858266325826"><ele>571.0</ele><time>2026-04-21T11:29:17.996Z</time></trkpt><trkpt lat="37.04777046016382" lon="-2.301905144620365"><ele>571.0</ele><time>2026-04-21T11:29:18.996Z</time></trkpt><trkpt lat="37.04773486667512" lon="-2.302010212664208"><ele>571.0</ele><time>2026-04-21T11:29:19.996Z</time></trkpt><trkpt lat="37.047700523514045" lon="-2.302109821090221"><ele>571.0</ele><time>2026-04-21T11:29:21.002Z</time></trkpt><trkpt lat="37.04766355420857" lon="-2.3022148134731957"><ele>571.0</ele><time>2026-04-21T11:29:22.002Z</time></trkpt><trkpt lat="37.04762992764986" lon="-2.3023309945423875"><ele>571.0</ele><time>2026-04-21T11:29:23.002Z</time></trkpt><trkpt lat="37.047613706699565" lon="-2.302459712069064"><ele>571.0</ele><time>2026-04-21T11:29:24.001Z</time></trkpt><trkpt lat="37.04760933956185" lon="-2.302608301430628"><ele>570.25</ele><time>2026-04-21T11:29:25.001Z</time></trkpt><trkpt lat="37.047606772486226" lon="-2.302761074872789"><ele>569.5</ele><time>2026-04-21T11:29:26.001Z</time></trkpt><trkpt lat="37.04760655467476" lon="-2.3029063227826008"><ele>568.75</ele><time>2026-04-21T11:29:27.001Z</time></trkpt><trkpt lat="37.047610983798684" lon="-2.303044182348413"><ele>568.0</ele><time>2026-04-21T11:29:28.001Z</time></trkpt><trkpt lat="37.0476097978252" lon="-2.3031792274553755"><ele>568.0</ele><time>2026-04-21T11:29:29.001Z</time></trkpt><trkpt lat="37.04761403330178" lon="-2.3033161664903514"><ele>568.0</ele><time>2026-04-21T11:29:30.001Z</time></trkpt><trkpt lat="37.047619391794676" lon="-2.303454573182229"><ele>568.0</ele><time>2026-04-21T11:29:31.001Z</time></trkpt><trkpt lat="37.04763744467992" lon="-2.3035874788012167"><ele>568.0</ele><time>2026-04-21T11:29:32.001Z</time></trkpt><trkpt lat="37.04767383526529" lon="-2.3037036937923467"><ele>568.0</ele><time>2026-04-21T11:29:33.001Z</time></trkpt><trkpt lat="37.04771766045558" lon="-2.3038197907212514"><ele>568.0</ele><time>2026-04-21T11:29:34.001Z</time></trkpt><trkpt lat="37.047761782292035" lon="-2.3039322409859992"><ele>568.0</ele><time>2026-04-21T11:29:35.001Z</time></trkpt><trkpt lat="37.04780330593652" lon="-2.3040478573710295"><ele>568.0</ele><time>2026-04-21T11:29:36.001Z</time></trkpt><trkpt lat="37.04784763241343" lon="-2.3041597332071717"><ele>568.0</ele><time>2026-04-21T11:29:37.001Z</time></trkpt><trkpt lat="37.047894004131386" lon="-2.304268530043098"><ele>568.0</ele><time>2026-04-21T11:29:38.001Z</time></trkpt><trkpt lat="37.0479420839944" lon="-2.304378065146553"><ele>568.0</ele><time>2026-04-21T11:29:39.001Z</time></trkpt><trkpt lat="37.04799509646284" lon="-2.3044830228122173"><ele>568.0</ele><time>2026-04-21T11:29:40.001Z</time></trkpt><trkpt lat="37.048044459641815" lon="-2.304592879879358"><ele>568.0</ele><time>2026-04-21T11:29:41.001Z</time></trkpt><trkpt lat="37.04808577191443" lon="-2.3047090448963616"><ele>568.0</ele><time>2026-04-21T11:29:42.001Z</time></trkpt><trkpt lat="37.048130157828474" lon="-2.3048282660054795"><ele>568.0</ele><time>2026-04-21T11:29:43.001Z</time></trkpt><trkpt lat="37.048180287446705" lon="-2.3049491182452972"><ele>568.6</ele><time>2026-04-21T11:29:44.001Z</time></trkpt><trkpt lat="37.04824472786055" lon="-2.3050696290566712"><ele>569.1999999999999</ele><time>2026-04-21T11:29:45Z</time></trkpt><trkpt lat="37.048305494545765" lon="-2.3051862833345496"><ele>569.8</ele><time>2026-04-21T11:29:46Z</time></trkpt><trkpt lat="37.04834710211315" lon="-2.305298380860543"><ele>570.4</ele><time>2026-04-21T11:29:47Z</time></trkpt><trkpt lat="37.04837452289481" lon="-2.305396058706951"><ele>571.0</ele><time>2026-04-21T11:29:48Z</time></trkpt><trkpt lat="37.048381203871884" lon="-2.305483706011948"><ele>571.6</ele><time>2026-04-21T11:29:49Z</time></trkpt><trkpt lat="37.04837009003741" lon="-2.305571108002101"><ele>572.2</ele><time>2026-04-21T11:29:50Z</time></trkpt><trkpt lat="37.04832884514342" lon="-2.305665119045275"><ele>572.8</ele><time>2026-04-21T11:29:51Z</time></trkpt><trkpt lat="37.04826646211478" lon="-2.3057623817400326"><ele>573.4</ele><time>2026-04-21T11:29:52Z</time></trkpt><trkpt lat="37.048200705994326" lon="-2.3058662365055294"><ele>574.0</ele><time>2026-04-21T11:29:53Z</time></trkpt><trkpt lat="37.048130608615836" lon="-2.3059662789949633"><ele>574.0</ele><time>2026-04-21T11:29:54Z</time></trkpt><trkpt lat="37.04806369158514" lon="-2.306070749627968"><ele>574.0</ele><time>2026-04-21T11:29:55Z</time></trkpt><trkpt lat="37.04800107939921" lon="-2.3061719916221204"><ele>574.0</ele><time>2026-04-21T11:29:56Z</time></trkpt><trkpt lat="37.047942421031124" lon="-2.3062663234695737"><ele>574.0</ele><time>2026-04-21T11:29:57Z</time></trkpt><trkpt lat="37.0478863843105" lon="-2.3063488781838073"><ele>574.0</ele><time>2026-04-21T11:29:58Z</time></trkpt><trkpt lat="37.04782767835083" lon="-2.3064269916007056"><ele>573.8333333333334</ele><time>2026-04-21T11:29:59Z</time></trkpt><trkpt lat="37.047760449965" lon="-2.306493438659097"><ele>573.6666666666667</ele><time>2026-04-21T11:30:00Z</time></trkpt><trkpt lat="37.047692537974356" lon="-2.306555513812763"><ele>573.5</ele><time>2026-04-21T11:30:01Z</time></trkpt><trkpt lat="37.04762385494959" lon="-2.306612550906376"><ele>573.3333333333334</ele><time>2026-04-21T11:30:02Z</time></trkpt><trkpt lat="37.04754943554086" lon="-2.3066694613108623"><ele>573.1666666666666</ele><time>2026-04-21T11:30:03Z</time></trkpt><trkpt lat="37.047461286598356" lon="-2.3067310579909135"><ele>573.0</ele><time>2026-04-21T11:30:04Z</time></trkpt><trkpt lat="37.04736812585274" lon="-2.3067999603464617"><ele>573.0</ele><time>2026-04-21T11:30:05Z</time></trkpt><trkpt lat="37.04727655325812" lon="-2.3068610284679867"><ele>573.0</ele><time>2026-04-21T11:30:06Z</time></trkpt><trkpt lat="37.04718222230111" lon="-2.306919071673013"><ele>573.0</ele><time>2026-04-21T11:30:07Z</time></trkpt><trkpt lat="37.04707587218619" lon="-2.3069707124151386"><ele>573.0</ele><time>2026-04-21T11:30:08Z</time></trkpt><trkpt lat="37.04694975145734" lon="-2.3070160895991387"><ele>573.0</ele><time>2026-04-21T11:30:09Z</time></trkpt><trkpt lat="37.046818104519645" lon="-2.3070426117637077"><ele>573.0</ele><time>2026-04-21T11:30:10Z</time></trkpt><trkpt lat="37.04669246247763" lon="-2.3070615369878595"><ele>573.0</ele><time>2026-04-21T11:30:11Z</time></trkpt><trkpt lat="37.04656659022075" lon="-2.3070574080816986"><ele>573.0</ele><time>2026-04-21T11:30:12Z</time></trkpt><trkpt lat="37.04645103120801" lon="-2.307039552046701"><ele>573.3333333333334</ele><time>2026-04-21T11:30:13Z</time></trkpt><trkpt lat="37.046350189694486" lon="-2.3070135817688993"><ele>573.6666666666666</ele><time>2026-04-21T11:30:14Z</time></trkpt><trkpt lat="37.04626600804853" lon="-2.3069900221339434"><ele>574.0</ele><time>2026-04-21T11:30:15Z</time></trkpt><trkpt lat="37.04619503418906" lon="-2.3069696584516386"><ele>574.3333333333333</ele><time>2026-04-21T11:30:16Z</time></trkpt><trkpt lat="37.0461283769203" lon="-2.3069543044925873"><ele>574.6666666666666</ele><time>2026-04-21T11:30:17Z</time></trkpt><trkpt lat="37.046064435955984" lon="-2.306951053166181"><ele>575.0</ele><time>2026-04-21T11:30:18Z</time></trkpt><trkpt lat="37.04596087612571" lon="-2.3070310525724924"><ele>575.0</ele><time>2026-04-21T11:30:20Z</time></trkpt><trkpt lat="37.04593667658507" lon="-2.3071112101621423"><ele>575.0</ele><time>2026-04-21T11:30:21Z</time></trkpt><trkpt lat="37.04594310124858" lon="-2.3072020593622145"><ele>575.0</ele><time>2026-04-21T11:30:22Z</time></trkpt><trkpt lat="37.04597636907284" lon="-2.3072946284948372"><ele>575.0</ele><time>2026-04-21T11:30:23Z</time></trkpt><trkpt lat="37.04603018946927" lon="-2.3073750308348093"><ele>575.0</ele><time>2026-04-21T11:30:24Z</time></trkpt><trkpt lat="37.0460907106563" lon="-2.307446828660009"><ele>575.0</ele><time>2026-04-21T11:30:25Z</time></trkpt><trkpt lat="37.04614428877635" lon="-2.307524719977155"><ele>574.8333333333333</ele><time>2026-04-21T11:30:26Z</time></trkpt><trkpt lat="37.046192786207314" lon="-2.307616440300715"><ele>574.6666666666666</ele><time>2026-04-21T11:30:27Z</time></trkpt><trkpt lat="37.04623676262232" lon="-2.3077150111253633"><ele>574.5</ele><time>2026-04-21T11:30:28Z</time></trkpt><trkpt lat="37.04625973325363" lon="-2.3078062066715983"><ele>574.3333333333334</ele><time>2026-04-21T11:30:29Z</time></trkpt><trkpt lat="37.04626247992946" lon="-2.307897747770918"><ele>574.1666666666667</ele><time>2026-04-21T11:30:30Z</time></trkpt><trkpt lat="37.04623530709684" lon="-2.307994919082156"><ele>574.0</ele><time>2026-04-21T11:30:31Z</time></trkpt><trkpt lat="37.04619023305777" lon="-2.308101573727016"><ele>573.0</ele><time>2026-04-21T11:30:32Z</time></trkpt><trkpt lat="37.04612137318956" lon="-2.3082167051824087"><ele>572.0</ele><time>2026-04-21T11:30:33Z</time></trkpt><trkpt lat="37.04604898465088" lon="-2.308344265795016"><ele>571.0</ele><time>2026-04-21T11:30:34Z</time></trkpt><trkpt lat="37.045971357626016" lon="-2.308471039092781"><ele>570.0</ele><time>2026-04-21T11:30:35Z</time></trkpt><trkpt lat="37.04589538589676" lon="-2.308605388100604"><ele>570.0</ele><time>2026-04-21T11:30:36Z</time></trkpt><trkpt lat="37.045822535050895" lon="-2.3087361579158525"><ele>570.0</ele><time>2026-04-21T11:30:37Z</time></trkpt><trkpt lat="37.04575137673903" lon="-2.308865805842984"><ele>570.0</ele><time>2026-04-21T11:30:38Z</time></trkpt><trkpt lat="37.04568810426232" lon="-2.308997439891004"><ele>570.0</ele><time>2026-04-21T11:30:39Z</time></trkpt><trkpt lat="37.045632141270595" lon="-2.3091266235481718"><ele>570.25</ele><time>2026-04-21T11:30:40Z</time></trkpt><trkpt lat="37.045582026912804" lon="-2.3092556449717"><ele>570.5</ele><time>2026-04-21T11:30:41Z</time></trkpt><trkpt lat="37.04554827637396" lon="-2.309397915640125"><ele>570.75</ele><time>2026-04-21T11:30:42Z</time></trkpt><trkpt lat="37.04552481147532" lon="-2.3095456346389294"><ele>571.0</ele><time>2026-04-21T11:30:43Z</time></trkpt><trkpt lat="37.045519242052585" lon="-2.309693485274554"><ele>570.75</ele><time>2026-04-21T11:30:44Z</time></trkpt><trkpt lat="37.045505178265905" lon="-2.3098402417266515"><ele>570.5</ele><time>2026-04-21T11:30:44.999Z</time></trkpt><trkpt lat="37.04547354785609" lon="-2.309987285124085"><ele>570.25</ele><time>2026-04-21T11:30:45.999Z</time></trkpt><trkpt lat="37.045416899030215" lon="-2.310133373010691"><ele>570.0</ele><time>2026-04-21T11:30:46.999Z</time></trkpt><trkpt lat="37.045362239270936" lon="-2.3102828288879165"><ele>570.0</ele><time>2026-04-21T11:30:47.999Z</time></trkpt><trkpt lat="37.045314699144605" lon="-2.3104291799803036"><ele>570.0</ele><time>2026-04-21T11:30:48.999Z</time></trkpt><trkpt lat="37.04527934383287" lon="-2.3105710620711903"><ele>570.0</ele><time>2026-04-21T11:30:49.999Z</time></trkpt><trkpt lat="37.04525531720656" lon="-2.3107140930872263"><ele>570.0</ele><time>2026-04-21T11:30:50.999Z</time></trkpt><trkpt lat="37.04525136324535" lon="-2.310854853819751"><ele>570.6</ele><time>2026-04-21T11:30:51.999Z</time></trkpt><trkpt lat="37.045257754049494" lon="-2.310991005001036"><ele>571.2</ele><time>2026-04-21T11:30:52.999Z</time></trkpt><trkpt lat="37.045274280884776" lon="-2.3111204836561683"><ele>571.8</ele><time>2026-04-21T11:30:53.999Z</time></trkpt><trkpt lat="37.04528949884308" lon="-2.3112412994579743"><ele>572.4</ele><time>2026-04-21T11:30:54.999Z</time></trkpt><trkpt lat="37.04528913277605" lon="-2.3113582768023435"><ele>573.0</ele><time>2026-04-21T11:30:55.999Z</time></trkpt><trkpt lat="37.045275828643085" lon="-2.311475472081379"><ele>573.4</ele><time>2026-04-21T11:30:56.999Z</time></trkpt><trkpt lat="37.04525168135301" lon="-2.3115939002361605"><ele>573.8</ele><time>2026-04-21T11:30:57.999Z</time></trkpt><trkpt lat="37.045225399777" lon="-2.31171456077181"><ele>574.2</ele><time>2026-04-21T11:30:58.999Z</time></trkpt><trkpt lat="37.04520145170353" lon="-2.311837086841455"><ele>574.6</ele><time>2026-04-21T11:30:59.999Z</time></trkpt><trkpt lat="37.045176616302136" lon="-2.311959763644918"><ele>575.0</ele><time>2026-04-21T11:31:00.999Z</time></trkpt><trkpt lat="37.04516515659247" lon="-2.3120869990788093"><ele>575.0</ele><time>2026-04-21T11:31:01.999Z</time></trkpt><trkpt lat="37.04516559406021" lon="-2.3122212572949192"><ele>575.0</ele><time>2026-04-21T11:31:02.999Z</time></trkpt><trkpt lat="37.045162030432" lon="-2.3123535251821195"><ele>575.0</ele><time>2026-04-21T11:31:03.999Z</time></trkpt><trkpt lat="37.04515620530254" lon="-2.312490443877533"><ele>575.0</ele><time>2026-04-21T11:31:04.999Z</time></trkpt><trkpt lat="37.045158379957826" lon="-2.3126335903105506"><ele>575.0</ele><time>2026-04-21T11:31:05.999Z</time></trkpt><trkpt lat="37.04516434331934" lon="-2.312774736603657"><ele>574.75</ele><time>2026-04-21T11:31:06.999Z</time></trkpt><trkpt lat="37.045170684020725" lon="-2.3129209495268297"><ele>574.5</ele><time>2026-04-21T11:31:07.999Z</time></trkpt><trkpt lat="37.045174502364205" lon="-2.3130769233834316"><ele>574.25</ele><time>2026-04-21T11:31:08.999Z</time></trkpt><trkpt lat="37.045184711664405" lon="-2.313244595213391"><ele>574.0</ele><time>2026-04-21T11:31:09.999Z</time></trkpt><trkpt lat="37.04520779169147" lon="-2.313421097384384"><ele>574.5</ele><time>2026-04-21T11:31:10.999Z</time></trkpt><trkpt lat="37.0452280530569" lon="-2.313603703783039"><ele>575.0</ele><time>2026-04-21T11:31:11.999Z</time></trkpt><trkpt lat="37.04524203776771" lon="-2.313779328924617"><ele>575.5</ele><time>2026-04-21T11:31:12.999Z</time></trkpt><trkpt lat="37.04525482163085" lon="-2.3139302866209146"><ele>576.0</ele><time>2026-04-21T11:31:13.999Z</time></trkpt><trkpt lat="37.045261200817436" lon="-2.314064617740904"><ele>576.8</ele><time>2026-04-21T11:31:14.999Z</time></trkpt><trkpt lat="37.04527217384588" lon="-2.3141887546070112"><ele>577.6</ele><time>2026-04-21T11:31:15.999Z</time></trkpt><trkpt lat="37.04528179260956" lon="-2.3143087438760026"><ele>578.4</ele><time>2026-04-21T11:31:16.999Z</time></trkpt><trkpt lat="37.0452748495438" lon="-2.3144232530296627"><ele>579.2</ele><time>2026-04-21T11:31:17.999Z</time></trkpt><trkpt lat="37.04525771634221" lon="-2.3145317139066712"><ele>580.0</ele><time>2026-04-21T11:31:18.999Z</time></trkpt><trkpt lat="37.045215163779794" lon="-2.3146445936806384"><ele>580.5</ele><time>2026-04-21T11:31:19.999Z</time></trkpt><trkpt lat="37.04513936754533" lon="-2.3147585597675984"><ele>581.0</ele><time>2026-04-21T11:31:20.999Z</time></trkpt><trkpt lat="37.04505833725451" lon="-2.3148726897147043"><ele>581.5</ele><time>2026-04-21T11:31:21.999Z</time></trkpt><trkpt lat="37.04498672109098" lon="-2.3149846421455815"><ele>582.0</ele><time>2026-04-21T11:31:22.999Z</time></trkpt><trkpt lat="37.044920188912585" lon="-2.3150979247929557"><ele>582.2</ele><time>2026-04-21T11:31:23.999Z</time></trkpt><trkpt lat="37.04487347280752" lon="-2.3152167263336865"><ele>582.4000000000001</ele><time>2026-04-21T11:31:24.999Z</time></trkpt><trkpt lat="37.044847948473354" lon="-2.3153443761966215"><ele>582.5999999999999</ele><time>2026-04-21T11:31:25.999Z</time></trkpt><trkpt lat="37.04483872254672" lon="-2.3154806929723115"><ele>582.8</ele><time>2026-04-21T11:31:26.999Z</time></trkpt><trkpt lat="37.044821097386325" lon="-2.3156088376739614"><ele>583.0</ele><time>2026-04-21T11:31:27.999Z</time></trkpt><trkpt lat="37.04478772212975" lon="-2.315724822834419"><ele>583.6</ele><time>2026-04-21T11:31:28.999Z</time></trkpt><trkpt lat="37.04473222983867" lon="-2.315828388120373"><ele>584.1999999999999</ele><time>2026-04-21T11:31:29.999Z</time></trkpt><trkpt lat="37.04466858686533" lon="-2.315925374732005"><ele>584.8</ele><time>2026-04-21T11:31:30.999Z</time></trkpt><trkpt lat="37.0445933057608" lon="-2.316014701257212"><ele>585.4</ele><time>2026-04-21T11:31:31.999Z</time></trkpt><trkpt lat="37.04449720180726" lon="-2.3160913198736006"><ele>586.0</ele><time>2026-04-21T11:31:32.999Z</time></trkpt><trkpt lat="37.04438915963356" lon="-2.316176558815292"><ele>586.0</ele><time>2026-04-21T11:31:33.999Z</time></trkpt><trkpt lat="37.044269772854285" lon="-2.316262510524994"><ele>586.0</ele><time>2026-04-21T11:31:34.999Z</time></trkpt><trkpt lat="37.044152220458095" lon="-2.3163456866312635"><ele>586.0</ele><time>2026-04-21T11:31:35.999Z</time></trkpt><trkpt lat="37.044043301480606" lon="-2.316434326002169"><ele>586.0</ele><time>2026-04-21T11:31:36.999Z</time></trkpt><trkpt lat="37.04394585309812" lon="-2.3165307096272185"><ele>587.5</ele><time>2026-04-21T11:31:37.999Z</time></trkpt><trkpt lat="37.043862998257346" lon="-2.316639985706217"><ele>589.0</ele><time>2026-04-21T11:31:38.999Z</time></trkpt><trkpt lat="37.04378722186818" lon="-2.3167582712115165"><ele>590.5</ele><time>2026-04-21T11:31:39.999Z</time></trkpt><trkpt lat="37.043718627690225" lon="-2.3168855840165614"><ele>592.0</ele><time>2026-04-21T11:31:40.999Z</time></trkpt><trkpt lat="37.043654152340025" lon="-2.3170125006733873"><ele>592.0</ele><time>2026-04-21T11:31:41.999Z</time></trkpt><trkpt lat="37.04358413114198" lon="-2.3171289743009473"><ele>592.0</ele><time>2026-04-21T11:31:42.999Z</time></trkpt><trkpt lat="37.043508215142104" lon="-2.3172302724965568"><ele>592.0</ele><time>2026-04-21T11:31:43.999Z</time></trkpt><trkpt lat="37.04342615923421" lon="-2.3173165715640662"><ele>592.0</ele><time>2026-04-21T11:31:44.999Z</time></trkpt><trkpt lat="37.043340217424976" lon="-2.3173798659528493"><ele>592.0</ele><time>2026-04-21T11:31:45.999Z</time></trkpt><trkpt lat="37.04324487192401" lon="-2.317419406807687"><ele>592.0</ele><time>2026-04-21T11:31:46.999Z</time></trkpt><trkpt lat="37.04314423346557" lon="-2.3174420828279443"><ele>592.0</ele><time>2026-04-21T11:31:47.999Z</time></trkpt><trkpt lat="37.04304149236065" lon="-2.3174501026406453"><ele>592.0</ele><time>2026-04-21T11:31:48.999Z</time></trkpt><trkpt lat="37.042947445921065" lon="-2.3174667612473048"><ele>592.0</ele><time>2026-04-21T11:31:49.999Z</time></trkpt><trkpt lat="37.042860246048825" lon="-2.3175028739245898"><ele>592.0</ele><time>2026-04-21T11:31:50.999Z</time></trkpt><trkpt lat="37.04278326663268" lon="-2.3175745511488954"><ele>592.0</ele><time>2026-04-21T11:31:51.999Z</time></trkpt><trkpt lat="37.04271511715126" lon="-2.3176832748254896"><ele>592.0</ele><time>2026-04-21T11:31:52.999Z</time></trkpt><trkpt lat="37.04266521620397" lon="-2.3178334485670633"><ele>592.0</ele><time>2026-04-21T11:31:53.999Z</time></trkpt><trkpt lat="37.04261398529278" lon="-2.3180035689803113"><ele>592.0</ele><time>2026-04-21T11:31:54.999Z</time></trkpt><trkpt lat="37.042543857955806" lon="-2.318207887137827"><ele>592.0</ele><time>2026-04-21T11:31:55.999Z</time></trkpt><trkpt lat="37.04246319001538" lon="-2.318439721648373"><ele>592.0</ele><time>2026-04-21T11:31:56.999Z</time></trkpt><trkpt lat="37.04238960483413" lon="-2.3186522943980767"><ele>592.0</ele><time>2026-04-21T11:31:57.999Z</time></trkpt><trkpt lat="37.042323710422245" lon="-2.3188487193767036"><ele>591.3333333333334</ele><time>2026-04-21T11:31:58.999Z</time></trkpt><trkpt lat="37.04225434138671" lon="-2.319030065383877"><ele>590.6666666666666</ele><time>2026-04-21T11:31:59.999Z</time></trkpt><trkpt lat="37.04220053073545" lon="-2.31920544164169"><ele>590.0</ele><time>2026-04-21T11:32:00.999Z</time></trkpt><trkpt lat="37.04214413812413" lon="-2.3193659858968187"><ele>590.0</ele><time>2026-04-21T11:32:01.999Z</time></trkpt><trkpt lat="37.04209721309901" lon="-2.3194870434004584"><ele>590.0</ele><time>2026-04-21T11:32:02.999Z</time></trkpt><trkpt lat="37.042044599138556" lon="-2.319595659535882"><ele>590.0</ele><time>2026-04-21T11:32:03.999Z</time></trkpt><trkpt lat="37.04201775773522" lon="-2.319694905062318"><ele>590.0</ele><time>2026-04-21T11:32:04.999Z</time></trkpt><trkpt lat="37.041978045226934" lon="-2.319769251798001"><ele>590.0</ele><time>2026-04-21T11:32:05.999Z</time></trkpt><trkpt lat="37.04194252895462" lon="-2.3198727989932983"><ele>590.0</ele><time>2026-04-21T11:32:06.999Z</time></trkpt><trkpt lat="37.04191576594629" lon="-2.3199694070088293"><ele>590.0</ele><time>2026-04-21T11:32:07.999Z</time></trkpt><trkpt lat="37.04195107344294" lon="-2.3200846637059316"><ele>590.0</ele><time>2026-04-21T11:32:09.999Z</time></trkpt><trkpt lat="37.042019299199985" lon="-2.320175189801965"><ele>590.0</ele><time>2026-04-21T11:32:11.999Z</time></trkpt><trkpt lat="37.042081045110464" lon="-2.3202120177914956"><ele>590.0</ele><time>2026-04-21T11:32:12.999Z</time></trkpt><trkpt lat="37.04214076931921" lon="-2.320250580704267"><ele>590.0</ele><time>2026-04-21T11:32:13.999Z</time></trkpt><trkpt lat="37.04219675214877" lon="-2.3202987106012873"><ele>590.0</ele><time>2026-04-21T11:32:14.999Z</time></trkpt><trkpt lat="37.04225209292342" lon="-2.3203491359546695"><ele>590.0</ele><time>2026-04-21T11:32:15.999Z</time></trkpt><trkpt lat="37.042303725031424" lon="-2.32039508136932"><ele>590.0</ele><time>2026-04-21T11:32:16.999Z</time></trkpt><trkpt lat="37.04240151890765" lon="-2.320452563859589"><ele>590.0</ele><time>2026-04-21T11:32:18.999Z</time></trkpt><trkpt lat="37.04248403025376" lon="-2.320501000160229"><ele>590.0</ele><time>2026-04-21T11:32:20.998Z</time></trkpt><trkpt lat="37.04255435752333" lon="-2.320592045586987"><ele>590.0</ele><time>2026-04-21T11:32:22.998Z</time></trkpt><trkpt lat="37.042634315271975" lon="-2.3206885874468846"><ele>589.8333333333333</ele><time>2026-04-21T11:32:24.998Z</time></trkpt><trkpt lat="37.04262557891417" lon="-2.32077384679408"><ele>589.6666666666666</ele><time>2026-04-21T11:32:26.998Z</time></trkpt><trkpt lat="37.04257621366094" lon="-2.320887201109885"><ele>589.5</ele><time>2026-04-21T11:32:28.998Z</time></trkpt><trkpt lat="37.04247530910511" lon="-2.320964348634106"><ele>589.3333333333334</ele><time>2026-04-21T11:32:30.998Z</time></trkpt><trkpt lat="37.04242033840442" lon="-2.3210049671244644"><ele>589.1666666666667</ele><time>2026-04-21T11:32:31.998Z</time></trkpt><trkpt lat="37.04238246870138" lon="-2.3210745323440687"><ele>589.0</ele><time>2026-04-21T11:32:32.998Z</time></trkpt><trkpt lat="37.042366189828485" lon="-2.321185750701297"><ele>589.0</ele><time>2026-04-21T11:32:34.998Z</time></trkpt><trkpt lat="37.042389100463964" lon="-2.321263432169876"><ele>589.0</ele><time>2026-04-21T11:32:35.998Z</time></trkpt><trkpt lat="37.042420629560084" lon="-2.3213556358668983"><ele>589.0</ele><time>2026-04-21T11:32:36.998Z</time></trkpt><trkpt lat="37.042439071513606" lon="-2.3214314777885"><ele>589.0</ele><time>2026-04-21T11:32:37.998Z</time></trkpt><trkpt lat="37.04243253603984" lon="-2.3215493269170193"><ele>589.0</ele><time>2026-04-21T11:32:39.998Z</time></trkpt><trkpt lat="37.04240362823944" lon="-2.3216530419753973"><ele>589.0</ele><time>2026-04-21T11:32:41.998Z</time></trkpt><trkpt lat="37.042369488052294" lon="-2.3217232382035045"><ele>588.4285714285714</ele><time>2026-04-21T11:32:42.998Z</time></trkpt><trkpt lat="37.04232064370014" lon="-2.3217832105537823"><ele>587.8571428571428</ele><time>2026-04-21T11:32:43.998Z</time></trkpt><trkpt lat="37.042250227287035" lon="-2.321829502623314"><ele>587.2857142857142</ele><time>2026-04-21T11:32:44.998Z</time></trkpt><trkpt lat="37.04218988024288" lon="-2.321875603084381"><ele>586.7142857142857</ele><time>2026-04-21T11:32:45.998Z</time></trkpt><trkpt lat="37.04213504124767" lon="-2.321938532313941"><ele>586.1428571428571</ele><time>2026-04-21T11:32:46.998Z</time></trkpt><trkpt lat="37.04207819406899" lon="-2.321987736243755"><ele>585.5714285714286</ele><time>2026-04-21T11:32:47.998Z</time></trkpt><trkpt lat="37.042026215869896" lon="-2.322060335087414"><ele>585.0</ele><time>2026-04-21T11:32:48.998Z</time></trkpt><trkpt lat="37.04198726797799" lon="-2.322182696839681"><ele>584.2</ele><time>2026-04-21T11:32:50.998Z</time></trkpt><trkpt lat="37.0419389938604" lon="-2.3223316208136215"><ele>583.4</ele><time>2026-04-21T11:32:52.998Z</time></trkpt><trkpt lat="37.041916089398114" lon="-2.322430300435941"><ele>582.6</ele><time>2026-04-21T11:32:53.998Z</time></trkpt><trkpt lat="37.04188920824888" lon="-2.3225154081582358"><ele>581.8</ele><time>2026-04-21T11:32:54.998Z</time></trkpt><trkpt lat="37.04184405670302" lon="-2.3226471543862837"><ele>581.0</ele><time>2026-04-21T11:32:56.998Z</time></trkpt><trkpt lat="37.04181431941792" lon="-2.3227964027221155"><ele>581.0</ele><time>2026-04-21T11:32:58.998Z</time></trkpt><trkpt lat="37.041750563541484" lon="-2.3229298674959162"><ele>581.0</ele><time>2026-04-21T11:33:00.998Z</time></trkpt><trkpt lat="37.04169276508648" lon="-2.3230689245539136"><ele>581.0</ele><time>2026-04-21T11:33:02.998Z</time></trkpt><trkpt lat="37.04166182516363" lon="-2.323188880952822"><ele>581.0</ele><time>2026-04-21T11:33:04.998Z</time></trkpt><trkpt lat="37.04162122293234" lon="-2.3233218263737165"><ele>581.3333333333333</ele><time>2026-04-21T11:33:06.998Z</time></trkpt><trkpt lat="37.041585102263895" lon="-2.3233947023976915"><ele>581.6666666666666</ele><time>2026-04-21T11:33:07.998Z</time></trkpt><trkpt lat="37.0415461244569" lon="-2.32352296009572"><ele>582.0</ele><time>2026-04-21T11:33:09.998Z</time></trkpt><trkpt lat="37.04151177642161" lon="-2.3235890837842557"><ele>582.3333333333334</ele><time>2026-04-21T11:33:10.998Z</time></trkpt><trkpt lat="37.04145290046131" lon="-2.3237288587973857"><ele>582.6666666666667</ele><time>2026-04-21T11:33:12.998Z</time></trkpt><trkpt lat="37.041415556459405" lon="-2.3238128022119775"><ele>583.0</ele><time>2026-04-21T11:33:13.998Z</time></trkpt><trkpt lat="37.0413747589127" lon="-2.323888894349738"><ele>582.6666666666667</ele><time>2026-04-21T11:33:14.998Z</time></trkpt><trkpt lat="37.041337504031134" lon="-2.3239906297986894"><ele>582.3333333333334</ele><time>2026-04-21T11:33:15.998Z</time></trkpt><trkpt lat="37.041310119310175" lon="-2.3240682867004856"><ele>582.0</ele><time>2026-04-21T11:33:16.998Z</time></trkpt><trkpt lat="37.041272272971284" lon="-2.3241618556425645"><ele>581.6666666666666</ele><time>2026-04-21T11:33:17.998Z</time></trkpt><trkpt lat="37.041254093746524" lon="-2.32425814459278"><ele>581.3333333333333</ele><time>2026-04-21T11:33:18.998Z</time></trkpt><trkpt lat="37.041234869441325" lon="-2.324345516504481"><ele>581.0</ele><time>2026-04-21T11:33:19.998Z</time></trkpt><trkpt lat="37.041235497985355" lon="-2.324434554043607"><ele>581.0</ele><time>2026-04-21T11:33:20.998Z</time></trkpt><trkpt lat="37.04122686274526" lon="-2.324527012948856"><ele>581.0</ele><time>2026-04-21T11:33:21.998Z</time></trkpt><trkpt lat="37.041221059198634" lon="-2.324607157559608"><ele>581.0</ele><time>2026-04-21T11:33:22.998Z</time></trkpt><trkpt lat="37.041210566845905" lon="-2.324688934273873"><ele>581.0</ele><time>2026-04-21T11:33:23.998Z</time></trkpt><trkpt lat="37.04120245240322" lon="-2.3247732311915565"><ele>581.0</ele><time>2026-04-21T11:33:24.998Z</time></trkpt><trkpt lat="37.041193621717376" lon="-2.3248662251403815"><ele>581.0</ele><time>2026-04-21T11:33:25.998Z</time></trkpt><trkpt lat="37.0411727146362" lon="-2.3249547485528916"><ele>581.0</ele><time>2026-04-21T11:33:26.998Z</time></trkpt><trkpt lat="37.04113832937851" lon="-2.325037806294809"><ele>580.0</ele><time>2026-04-21T11:33:27.998Z</time></trkpt><trkpt lat="37.041090654409814" lon="-2.3251693833142877"><ele>579.0</ele><time>2026-04-21T11:33:29.998Z</time></trkpt><trkpt lat="37.0410461807379" lon="-2.3253308813025204"><ele>578.0</ele><time>2026-04-21T11:33:31.998Z</time></trkpt><trkpt lat="37.04100639851352" lon="-2.3254046385734886"><ele>577.0</ele><time>2026-04-21T11:33:32.998Z</time></trkpt><trkpt lat="37.04098025075973" lon="-2.325563936975269"><ele>576.5</ele><time>2026-04-21T11:33:34.998Z</time></trkpt><trkpt lat="37.04097352333732" lon="-2.32564396281775"><ele>576.0</ele><time>2026-04-21T11:33:35.998Z</time></trkpt><trkpt lat="37.04100481016694" lon="-2.325798546552338"><ele>575.5</ele><time>2026-04-21T11:33:37.998Z</time></trkpt><trkpt lat="37.04101728429287" lon="-2.3259579652391036"><ele>575.0</ele><time>2026-04-21T11:33:39.998Z</time></trkpt><trkpt lat="37.04102592724777" lon="-2.3261337830021436"><ele>575.0</ele><time>2026-04-21T11:33:41.998Z</time></trkpt><trkpt lat="37.04103313655323" lon="-2.3262156471914506"><ele>575.0</ele><time>2026-04-21T11:33:42.998Z</time></trkpt><trkpt lat="37.04105328027364" lon="-2.32637542305703"><ele>575.0</ele><time>2026-04-21T11:33:44.998Z</time></trkpt><trkpt lat="37.04106258524467" lon="-2.3264870153304322"><ele>575.0</ele><time>2026-04-21T11:33:45.998Z</time></trkpt><trkpt lat="37.04109737293786" lon="-2.326591931685932"><ele>575.0</ele><time>2026-04-21T11:33:46.998Z</time></trkpt><trkpt lat="37.04114980693214" lon="-2.326670025337533"><ele>574.8</ele><time>2026-04-21T11:33:47.998Z</time></trkpt><trkpt lat="37.04117756717638" lon="-2.3267481806791093"><ele>574.6</ele><time>2026-04-21T11:33:48.998Z</time></trkpt><trkpt lat="37.04121708056763" lon="-2.3268364162023145"><ele>574.4</ele><time>2026-04-21T11:33:49.998Z</time></trkpt><trkpt lat="37.041237466725136" lon="-2.32692441744232"><ele>574.2</ele><time>2026-04-21T11:33:50.998Z</time></trkpt><trkpt lat="37.041274803554224" lon="-2.3270921892402847"><ele>574.0</ele><time>2026-04-21T11:33:52.998Z</time></trkpt><trkpt lat="37.04123554417899" lon="-2.3271923613853063"><ele>573.6666666666667</ele><time>2026-04-21T11:33:54.998Z</time></trkpt><trkpt lat="37.04119626706351" lon="-2.327293551845431"><ele>573.3333333333334</ele><time>2026-04-21T11:33:56.998Z</time></trkpt><trkpt lat="37.04117488203626" lon="-2.327378638437786"><ele>573.0</ele><time>2026-04-21T11:33:57.997Z</time></trkpt><trkpt lat="37.04113581912287" lon="-2.32747842280068"><ele>572.6666666666666</ele><time>2026-04-21T11:33:58.997Z</time></trkpt><trkpt lat="37.04109086624978" lon="-2.3275707264109453"><ele>572.3333333333333</ele><time>2026-04-21T11:33:59.997Z</time></trkpt><trkpt lat="37.04105576317275" lon="-2.3276543045504683"><ele>572.0</ele><time>2026-04-21T11:34:00.997Z</time></trkpt><trkpt lat="37.041012039426796" lon="-2.3277317202984795"><ele>572.0</ele><time>2026-04-21T11:34:01.997Z</time></trkpt><trkpt lat="37.04095540416763" lon="-2.3278046184452896"><ele>572.0</ele><time>2026-04-21T11:34:02.997Z</time></trkpt><trkpt lat="37.04090818190121" lon="-2.3278718249890877"><ele>572.0</ele><time>2026-04-21T11:34:03.997Z</time></trkpt><trkpt lat="37.04085871196263" lon="-2.327942305533713"><ele>572.0</ele><time>2026-04-21T11:34:04.997Z</time></trkpt><trkpt lat="37.04080842052731" lon="-2.3280022178465374"><ele>572.0</ele><time>2026-04-21T11:34:05.997Z</time></trkpt><trkpt lat="37.040730853330246" lon="-2.3281181300532596"><ele>572.0</ele><time>2026-04-21T11:34:07.997Z</time></trkpt><trkpt lat="37.04063992468766" lon="-2.3281876313777174"><ele>571.5</ele><time>2026-04-21T11:34:09.997Z</time></trkpt><trkpt lat="37.04053762518909" lon="-2.328229561592944"><ele>571.0</ele><time>2026-04-21T11:34:11.997Z</time></trkpt><trkpt lat="37.04043116390765" lon="-2.3283001397442735"><ele>570.5</ele><time>2026-04-21T11:34:13.997Z</time></trkpt><trkpt lat="37.04036700545691" lon="-2.328336228553498"><ele>570.0</ele><time>2026-04-21T11:34:14.997Z</time></trkpt><trkpt lat="37.0403075557322" lon="-2.328380556701021"><ele>569.5</ele><time>2026-04-21T11:34:15.997Z</time></trkpt><trkpt lat="37.040243587066435" lon="-2.328419203777422"><ele>569.0</ele><time>2026-04-21T11:34:16.997Z</time></trkpt><trkpt lat="37.04018525217006" lon="-2.3284549483485217"><ele>569.0</ele><time>2026-04-21T11:34:17.997Z</time></trkpt><trkpt lat="37.04008081149504" lon="-2.3285431381053048"><ele>569.0</ele><time>2026-04-21T11:34:19.997Z</time></trkpt><trkpt lat="37.03999498045508" lon="-2.32864065102223"><ele>569.0</ele><time>2026-04-21T11:34:21.997Z</time></trkpt><trkpt lat="37.03992135657407" lon="-2.328768014089297"><ele>569.0</ele><time>2026-04-21T11:34:23.997Z</time></trkpt><trkpt lat="37.039877803113725" lon="-2.3288430729217544"><ele>569.0</ele><time>2026-04-21T11:34:24.997Z</time></trkpt><trkpt lat="37.039832875526294" lon="-2.3289338302866494"><ele>568.8333333333333</ele><time>2026-04-21T11:34:25.997Z</time></trkpt><trkpt lat="37.039783531411416" lon="-2.329024076670848"><ele>568.6666666666666</ele><time>2026-04-21T11:34:26.997Z</time></trkpt><trkpt lat="37.039731372557" lon="-2.3291156526602435"><ele>568.5</ele><time>2026-04-21T11:34:27.997Z</time></trkpt><trkpt lat="37.039680296784155" lon="-2.3292094263205363"><ele>568.3333333333334</ele><time>2026-04-21T11:34:28.997Z</time></trkpt><trkpt lat="37.03962408473061" lon="-2.32929924709045"><ele>568.1666666666667</ele><time>2026-04-21T11:34:29.997Z</time></trkpt><trkpt lat="37.03958093493421" lon="-2.329394164556736"><ele>568.0</ele><time>2026-04-21T11:34:30.997Z</time></trkpt><trkpt lat="37.03954299713684" lon="-2.3294856812748646"><ele>568.0</ele><time>2026-04-21T11:34:31.997Z</time></trkpt><trkpt lat="37.039506540879124" lon="-2.3295766924669135"><ele>568.0</ele><time>2026-04-21T11:34:32.997Z</time></trkpt><trkpt lat="37.039482679971194" lon="-2.3296763374226583"><ele>568.0</ele><time>2026-04-21T11:34:33.997Z</time></trkpt><trkpt lat="37.039454321256926" lon="-2.329769309031341"><ele>568.0</ele><time>2026-04-21T11:34:34.997Z</time></trkpt><trkpt lat="37.03942075228672" lon="-2.3298561275114156"><ele>568.0</ele><time>2026-04-21T11:34:35.997Z</time></trkpt><trkpt lat="37.03938208444003" lon="-2.329938893155855"><ele>568.0</ele><time>2026-04-21T11:34:36.997Z</time></trkpt><trkpt lat="37.03933733896303" lon="-2.330021910850618"><ele>568.0</ele><time>2026-04-21T11:34:37.997Z</time></trkpt><trkpt lat="37.03928389326566" lon="-2.330107733756252"><ele>568.0</ele><time>2026-04-21T11:34:38.997Z</time></trkpt><trkpt lat="37.039229580548344" lon="-2.330198228563154"><ele>568.0</ele><time>2026-04-21T11:34:39.997Z</time></trkpt><trkpt lat="37.039179008539016" lon="-2.3302929946036115"><ele>568.0</ele><time>2026-04-21T11:34:40.997Z</time></trkpt><trkpt lat="37.039147720980615" lon="-2.330397886156743"><ele>568.0</ele><time>2026-04-21T11:34:41.997Z</time></trkpt><trkpt lat="37.03913007543267" lon="-2.330501533178262"><ele>568.0</ele><time>2026-04-21T11:34:42.997Z</time></trkpt><trkpt lat="37.03911549228004" lon="-2.3305992108272555"><ele>567.5</ele><time>2026-04-21T11:34:43.997Z</time></trkpt><trkpt lat="37.0390949381473" lon="-2.3306902403715477"><ele>567.0</ele><time>2026-04-21T11:34:44.997Z</time></trkpt><trkpt lat="37.039053754419676" lon="-2.3307756363258014"><ele>566.5</ele><time>2026-04-21T11:34:45.997Z</time></trkpt><trkpt lat="37.039007012481115" lon="-2.330869255172523"><ele>566.0</ele><time>2026-04-21T11:34:46.997Z</time></trkpt><trkpt lat="37.03896603017806" lon="-2.3309745184513178"><ele>565.5</ele><time>2026-04-21T11:34:47.997Z</time></trkpt><trkpt lat="37.03893637889354" lon="-2.3310919625589506"><ele>565.0</ele><time>2026-04-21T11:34:48.997Z</time></trkpt><trkpt lat="37.03891616360731" lon="-2.3312173897980126"><ele>565.0</ele><time>2026-04-21T11:34:49.997Z</time></trkpt><trkpt lat="37.038912156188395" lon="-2.3313463257445894"><ele>565.0</ele><time>2026-04-21T11:34:50.997Z</time></trkpt><trkpt lat="37.038910339413974" lon="-2.3314666777260142"><ele>565.0</ele><time>2026-04-21T11:34:51.997Z</time></trkpt><trkpt lat="37.038901363944895" lon="-2.331575861909326"><ele>565.0</ele><time>2026-04-21T11:34:52.997Z</time></trkpt><trkpt lat="37.03888879556221" lon="-2.3316609490977185"><ele>565.0</ele><time>2026-04-21T11:34:53.997Z</time></trkpt><trkpt lat="37.038850864563976" lon="-2.331787143546767"><ele>564.6</ele><time>2026-04-21T11:34:55.997Z</time></trkpt><trkpt lat="37.0387251302333" lon="-2.3318190792209657"><ele>564.2</ele><time>2026-04-21T11:34:57.997Z</time></trkpt><trkpt lat="37.038625126903966" lon="-2.3318034563449768"><ele>563.8</ele><time>2026-04-21T11:34:58.997Z</time></trkpt><trkpt lat="37.038512286750475" lon="-2.33179672542085"><ele>563.4</ele><time>2026-04-21T11:34:59.997Z</time></trkpt><trkpt lat="37.03841019504752" lon="-2.3318038932901564"><ele>563.0</ele><time>2026-04-21T11:35:00.997Z</time></trkpt><trkpt lat="37.0383181511667" lon="-2.3318273154952833"><ele>562.8</ele><time>2026-04-21T11:35:01.997Z</time></trkpt><trkpt lat="37.03823468816516" lon="-2.331843776977439"><ele>562.5999999999999</ele><time>2026-04-21T11:35:02.997Z</time></trkpt><trkpt lat="37.03815648415151" lon="-2.331854606616749"><ele>562.4000000000001</ele><time>2026-04-21T11:35:03.997Z</time></trkpt><trkpt lat="37.038048762205044" lon="-2.3317949639297697"><ele>562.2</ele><time>2026-04-21T11:35:05.997Z</time></trkpt><trkpt lat="37.03798325346602" lon="-2.3317370480855177"><ele>562.0</ele><time>2026-04-21T11:35:06.997Z</time></trkpt><trkpt lat="37.03791292891893" lon="-2.331651264008059"><ele>562.0</ele><time>2026-04-21T11:35:07.997Z</time></trkpt><trkpt lat="37.03784169854217" lon="-2.3315697631593264"><ele>562.0</ele><time>2026-04-21T11:35:08.997Z</time></trkpt><trkpt lat="37.03777797126578" lon="-2.331497786868007"><ele>562.0</ele><time>2026-04-21T11:35:09.997Z</time></trkpt><trkpt lat="37.03772512175243" lon="-2.331430290491063"><ele>562.0</ele><time>2026-04-21T11:35:10.997Z</time></trkpt><trkpt lat="37.03767397641362" lon="-2.331376396996338"><ele>562.0</ele><time>2026-04-21T11:35:11.997Z</time></trkpt><trkpt lat="37.03761791372343" lon="-2.3313385152856596"><ele>562.0</ele><time>2026-04-21T11:35:12.997Z</time></trkpt><trkpt lat="37.03753019825294" lon="-2.3313373991794486"><ele>562.0000000000001</ele><time>2026-04-21T11:35:14.997Z</time></trkpt><trkpt lat="37.03751111526179" lon="-2.3314323412457045"><ele>562.0</ele><time>2026-04-21T11:35:17.997Z</time></trkpt><trkpt lat="37.037538101905184" lon="-2.3315040985716955"><ele>562.0</ele><time>2026-04-21T11:35:18.997Z</time></trkpt><trkpt lat="37.037565436198754" lon="-2.3315812943056233"><ele>562.0</ele><time>2026-04-21T11:35:19.997Z</time></trkpt><trkpt lat="37.03757335214831" lon="-2.331665549871558"><ele>562.0</ele><time>2026-04-21T11:35:20.997Z</time></trkpt><trkpt lat="37.03757704623683" lon="-2.3317534740191657"><ele>562.0000000000001</ele><time>2026-04-21T11:35:21.997Z</time></trkpt><trkpt lat="37.03758242551584" lon="-2.3318560811743048"><ele>562.0</ele><time>2026-04-21T11:35:22.997Z</time></trkpt><trkpt lat="37.03757781642266" lon="-2.3319624031389385"><ele>562.0</ele><time>2026-04-21T11:35:23.997Z</time></trkpt><trkpt lat="37.03757931465648" lon="-2.332068068896466"><ele>562.0</ele><time>2026-04-21T11:35:24.997Z</time></trkpt><trkpt lat="37.0375761395321" lon="-2.332169314199189"><ele>562.0</ele><time>2026-04-21T11:35:25.997Z</time></trkpt><trkpt lat="37.037582709216466" lon="-2.332276269537956"><ele>562.0</ele><time>2026-04-21T11:35:26.997Z</time></trkpt><trkpt lat="37.03760505660647" lon="-2.3323910218606327"><ele>562.0</ele><time>2026-04-21T11:35:27.997Z</time></trkpt><trkpt lat="37.03763456503716" lon="-2.332507655755208"><ele>562.0</ele><time>2026-04-21T11:35:28.997Z</time></trkpt><trkpt lat="37.03767345877004" lon="-2.332615982668082"><ele>562.0</ele><time>2026-04-21T11:35:29.997Z</time></trkpt><trkpt lat="37.037716051701445" lon="-2.332725248657914"><ele>562.0</ele><time>2026-04-21T11:35:30.997Z</time></trkpt><trkpt lat="37.037755692686446" lon="-2.332837347542329"><ele>562.0</ele><time>2026-04-21T11:35:31.997Z</time></trkpt><trkpt lat="37.03779243830128" lon="-2.3329417048448553"><ele>562.0</ele><time>2026-04-21T11:35:32.997Z</time></trkpt><trkpt lat="37.03781868302491" lon="-2.3330410106843886"><ele>562.0</ele><time>2026-04-21T11:35:33.997Z</time></trkpt><trkpt lat="37.03783976855527" lon="-2.3331418654830003"><ele>562.0</ele><time>2026-04-21T11:35:34.996Z</time></trkpt><trkpt lat="37.03786450446057" lon="-2.3332377845813728"><ele>562.0</ele><time>2026-04-21T11:35:35.996Z</time></trkpt><trkpt lat="37.03789987711811" lon="-2.3333253441239137"><ele>562.0</ele><time>2026-04-21T11:35:36.996Z</time></trkpt><trkpt lat="37.037934325829944" lon="-2.333416228544561"><ele>562.0</ele><time>2026-04-21T11:35:37.996Z</time></trkpt><trkpt lat="37.037955829424426" lon="-2.3335068168355373"><ele>562.0</ele><time>2026-04-21T11:35:38.996Z</time></trkpt><trkpt lat="37.03796721050817" lon="-2.3336033455738456"><ele>562.0</ele><time>2026-04-21T11:35:39.996Z</time></trkpt><trkpt lat="37.037967534585604" lon="-2.333719500765114"><ele>562.0</ele><time>2026-04-21T11:35:40.996Z</time></trkpt><trkpt lat="37.03797185156947" lon="-2.3338455918224894"><ele>562.0</ele><time>2026-04-21T11:35:41.996Z</time></trkpt><trkpt lat="37.03798577685239" lon="-2.3339637855343387"><ele>562.0</ele><time>2026-04-21T11:35:42.996Z</time></trkpt><trkpt lat="37.03802140380535" lon="-2.334072571120504"><ele>562.0</ele><time>2026-04-21T11:35:43.996Z</time></trkpt><trkpt lat="37.03806273080651" lon="-2.334185535180076"><ele>562.0</ele><time>2026-04-21T11:35:44.996Z</time></trkpt><trkpt lat="37.03808976382015" lon="-2.3343117144980097"><ele>562.8000000000001</ele><time>2026-04-21T11:35:45.996Z</time></trkpt><trkpt lat="37.038120147813046" lon="-2.33443995566452"><ele>563.6</ele><time>2026-04-21T11:35:46.996Z</time></trkpt><trkpt lat="37.038149605301086" lon="-2.3345651687127225"><ele>564.4000000000001</ele><time>2026-04-21T11:35:47.996Z</time></trkpt><trkpt lat="37.03819216202736" lon="-2.334679534079549"><ele>565.2</ele><time>2026-04-21T11:35:48.996Z</time></trkpt><trkpt lat="37.03823784838925" lon="-2.3347968853150434"><ele>566.0</ele><time>2026-04-21T11:35:49.996Z</time></trkpt><trkpt lat="37.03828423153989" lon="-2.3349185203153455"><ele>564.6</ele><time>2026-04-21T11:35:50.996Z</time></trkpt><trkpt lat="37.03832354996285" lon="-2.3350397699199523"><ele>563.2</ele><time>2026-04-21T11:35:51.996Z</time></trkpt><trkpt lat="37.038343069219344" lon="-2.3351569094049096"><ele>561.8</ele><time>2026-04-21T11:35:52.996Z</time></trkpt><trkpt lat="37.03835125869494" lon="-2.3352718394827603"><ele>560.4</ele><time>2026-04-21T11:35:53.996Z</time></trkpt><trkpt lat="37.03834819544639" lon="-2.3353959591731943"><ele>559.0</ele><time>2026-04-21T11:35:54.996Z</time></trkpt><trkpt lat="37.03834465049065" lon="-2.3355227062193555"><ele>558.6</ele><time>2026-04-21T11:35:55.996Z</time></trkpt><trkpt lat="37.03835727854895" lon="-2.3356465263424813"><ele>558.2</ele><time>2026-04-21T11:35:56.996Z</time></trkpt><trkpt lat="37.03838244402961" lon="-2.335780689878704"><ele>557.8000000000001</ele><time>2026-04-21T11:35:57.996Z</time></trkpt><trkpt lat="37.0384162657937" lon="-2.3359231484594862"><ele>557.4</ele><time>2026-04-21T11:35:58.996Z</time></trkpt><trkpt lat="37.03844509848644" lon="-2.336064423976695"><ele>557.0</ele><time>2026-04-21T11:35:59.996Z</time></trkpt><trkpt lat="37.03846897109267" lon="-2.336197645945311"><ele>557.0</ele><time>2026-04-21T11:36:00.996Z</time></trkpt><trkpt lat="37.038496320342254" lon="-2.3363180088095743"><ele>557.0</ele><time>2026-04-21T11:36:01.996Z</time></trkpt><trkpt lat="37.03853638379734" lon="-2.3364297693670233"><ele>557.0</ele><time>2026-04-21T11:36:02.996Z</time></trkpt><trkpt lat="37.03858464865813" lon="-2.3365437637545017"><ele>557.0</ele><time>2026-04-21T11:36:03.996Z</time></trkpt><trkpt lat="37.03864367284354" lon="-2.3366570634057235"><ele>557.0</ele><time>2026-04-21T11:36:04.996Z</time></trkpt><trkpt lat="37.03872048249261" lon="-2.336765656885699"><ele>556.5</ele><time>2026-04-21T11:36:05.996Z</time></trkpt><trkpt lat="37.03880339391591" lon="-2.3368759796306615"><ele>556.0</ele><time>2026-04-21T11:36:06.996Z</time></trkpt><trkpt lat="37.0388859501085" lon="-2.3369771789435747"><ele>555.5</ele><time>2026-04-21T11:36:07.996Z</time></trkpt><trkpt lat="37.03896580520905" lon="-2.3370682451150664"><ele>555.0</ele><time>2026-04-21T11:36:08.996Z</time></trkpt><trkpt lat="37.0390483676076" lon="-2.337158128743244"><ele>554.8</ele><time>2026-04-21T11:36:09.996Z</time></trkpt><trkpt lat="37.03912733653164" lon="-2.337250369124878"><ele>554.6</ele><time>2026-04-21T11:36:10.996Z</time></trkpt><trkpt lat="37.03919798921659" lon="-2.3373504900993707"><ele>554.4</ele><time>2026-04-21T11:36:11.996Z</time></trkpt><trkpt lat="37.03926565590519" lon="-2.337459083662272"><ele>554.2</ele><time>2026-04-21T11:36:12.996Z</time></trkpt><trkpt lat="37.03933635407843" lon="-2.3375734255578804"><ele>554.0</ele><time>2026-04-21T11:36:13.996Z</time></trkpt><trkpt lat="37.03940793829553" lon="-2.337689616113952"><ele>554.0</ele><time>2026-04-21T11:36:14.996Z</time></trkpt><trkpt lat="37.03946431174216" lon="-2.3378047315711745"><ele>554.0</ele><time>2026-04-21T11:36:15.996Z</time></trkpt><trkpt lat="37.03951121179561" lon="-2.337917638727487"><ele>554.0</ele><time>2026-04-21T11:36:16.996Z</time></trkpt><trkpt lat="37.03955588378169" lon="-2.3380255361660285"><ele>554.0</ele><time>2026-04-21T11:36:17.996Z</time></trkpt><trkpt lat="37.039595761561685" lon="-2.338127097801938"><ele>554.0</ele><time>2026-04-21T11:36:18.996Z</time></trkpt><trkpt lat="37.039634302452804" lon="-2.3382249578291354"><ele>553.6666666666666</ele><time>2026-04-21T11:36:19.996Z</time></trkpt><trkpt lat="37.03966804614932" lon="-2.338322431161569"><ele>553.3333333333333</ele><time>2026-04-21T11:36:20.996Z</time></trkpt><trkpt lat="37.03967469152706" lon="-2.338428495322142"><ele>553.0</ele><time>2026-04-21T11:36:21.996Z</time></trkpt><trkpt lat="37.039670913208035" lon="-2.3385395683555332"><ele>552.6666666666666</ele><time>2026-04-21T11:36:22.996Z</time></trkpt><trkpt lat="37.03966070066842" lon="-2.3386511721391106"><ele>552.3333333333334</ele><time>2026-04-21T11:36:23.996Z</time></trkpt><trkpt lat="37.03964181210839" lon="-2.3387674128345552"><ele>552.0</ele><time>2026-04-21T11:36:24.996Z</time></trkpt><trkpt lat="37.039631104870665" lon="-2.338889135297775"><ele>550.6</ele><time>2026-04-21T11:36:25.996Z</time></trkpt><trkpt lat="37.03962089784081" lon="-2.3390163669611854"><ele>549.2</ele><time>2026-04-21T11:36:27.002Z</time></trkpt><trkpt lat="37.039615149474734" lon="-2.339147210427456"><ele>547.8</ele><time>2026-04-21T11:36:28.002Z</time></trkpt><trkpt lat="37.03960608680708" lon="-2.3392727599321588"><ele>546.4</ele><time>2026-04-21T11:36:29.002Z</time></trkpt><trkpt lat="37.03959895445568" lon="-2.3393903274675987"><ele>545.0</ele><time>2026-04-21T11:36:30.002Z</time></trkpt><trkpt lat="37.039592203059975" lon="-2.3394989671893582"><ele>545.0</ele><time>2026-04-21T11:36:31.002Z</time></trkpt><trkpt lat="37.03957828119268" lon="-2.339603753423312"><ele>545.0</ele><time>2026-04-21T11:36:32.001Z</time></trkpt><trkpt lat="37.03955797120911" lon="-2.339703493023169"><ele>545.0</ele><time>2026-04-21T11:36:33.001Z</time></trkpt><trkpt lat="37.0395581383604" lon="-2.339807321547577"><ele>545.0</ele><time>2026-04-21T11:36:34.001Z</time></trkpt><trkpt lat="37.03956947419384" lon="-2.3399288386749415"><ele>545.0</ele><time>2026-04-21T11:36:35.001Z</time></trkpt><trkpt lat="37.03959738627284" lon="-2.3400506417262994"><ele>545.0</ele><time>2026-04-21T11:36:36.001Z</time></trkpt><trkpt lat="37.039627035036304" lon="-2.3401735489927527"><ele>543.8</ele><time>2026-04-21T11:36:37.001Z</time></trkpt><trkpt lat="37.03966059283232" lon="-2.340297438275026"><ele>542.6</ele><time>2026-04-21T11:36:38.001Z</time></trkpt><trkpt lat="37.0397056594366" lon="-2.340406842196412"><ele>541.4</ele><time>2026-04-21T11:36:39.001Z</time></trkpt><trkpt lat="37.03976971449766" lon="-2.3404887629328877"><ele>540.2</ele><time>2026-04-21T11:36:40.001Z</time></trkpt><trkpt lat="37.03983832816203" lon="-2.3405649392946106"><ele>539.0</ele><time>2026-04-21T11:36:41.001Z</time></trkpt><trkpt lat="37.03990188904447" lon="-2.340642648152682"><ele>538.4285714285714</ele><time>2026-04-21T11:36:42.001Z</time></trkpt><trkpt lat="37.03996031871272" lon="-2.340720348579323"><ele>537.8571428571429</ele><time>2026-04-21T11:36:43.001Z</time></trkpt><trkpt lat="37.040004045299035" lon="-2.3408075289472405"><ele>537.2857142857142</ele><time>2026-04-21T11:36:44.001Z</time></trkpt><trkpt lat="37.04003161439316" lon="-2.3408912378672424"><ele>536.7142857142858</ele><time>2026-04-21T11:36:45.001Z</time></trkpt><trkpt lat="37.04005796872423" lon="-2.3409727336928743"><ele>536.1428571428571</ele><time>2026-04-21T11:36:46.001Z</time></trkpt><trkpt lat="37.04005708305695" lon="-2.3410571722754896"><ele>535.5714285714286</ele><time>2026-04-21T11:36:47.001Z</time></trkpt><trkpt lat="37.040048315564945" lon="-2.3411363824592826"><ele>535.0</ele><time>2026-04-21T11:36:48.001Z</time></trkpt><trkpt lat="37.040033068750894" lon="-2.341274156481547"><ele>534.75</ele><time>2026-04-21T11:36:50.001Z</time></trkpt><trkpt lat="37.04002773196146" lon="-2.3414126574791014"><ele>534.5</ele><time>2026-04-21T11:36:52.001Z</time></trkpt><trkpt lat="37.0399953212568" lon="-2.341531831754682"><ele>534.25</ele><time>2026-04-21T11:36:54.001Z</time></trkpt><trkpt lat="37.03993235868016" lon="-2.341646875676047"><ele>534.0</ele><time>2026-04-21T11:36:56.001Z</time></trkpt><trkpt lat="37.0398811830976" lon="-2.34179936054122"><ele>534.0000000000001</ele><time>2026-04-21T11:36:58.001Z</time></trkpt><trkpt lat="37.039873656480864" lon="-2.341885840314391"><ele>534.0</ele><time>2026-04-21T11:36:59Z</time></trkpt><trkpt lat="37.03986964772586" lon="-2.3419759503465656"><ele>534.0</ele><time>2026-04-21T11:37:00Z</time></trkpt><trkpt lat="37.03986966365168" lon="-2.342067648453539"><ele>534.0</ele><time>2026-04-21T11:37:01Z</time></trkpt><trkpt lat="37.0398679278286" lon="-2.342156076192917"><ele>534.0</ele><time>2026-04-21T11:37:02Z</time></trkpt><trkpt lat="37.03988132686111" lon="-2.3422397172215463"><ele>534.0000000000001</ele><time>2026-04-21T11:37:03Z</time></trkpt><trkpt lat="37.03987654628714" lon="-2.3423305400099297"><ele>534.0</ele><time>2026-04-21T11:37:04Z</time></trkpt><trkpt lat="37.039869374644944" lon="-2.34247311258016"><ele>532.3333333333334</ele><time>2026-04-21T11:37:06Z</time></trkpt><trkpt lat="37.03982920160743" lon="-2.3425823143562976"><ele>530.6666666666666</ele><time>2026-04-21T11:37:08Z</time></trkpt><trkpt lat="37.039786072326685" lon="-2.3426425010012983"><ele>529.0</ele><time>2026-04-21T11:37:10Z</time></trkpt><trkpt lat="37.039719127193216" lon="-2.342657958380275"><ele>527.3333333333333</ele><time>2026-04-21T11:37:13Z</time></trkpt><trkpt lat="37.03963123978233" lon="-2.3426685380991037"><ele>525.6666666666666</ele><time>2026-04-21T11:37:16Z</time></trkpt><trkpt lat="37.039547875725304" lon="-2.3426971872642115"><ele>524.0</ele><time>2026-04-21T11:37:18Z</time></trkpt><trkpt lat="37.03944371907026" lon="-2.342740900514751"><ele>524.0</ele><time>2026-04-21T11:37:20Z</time></trkpt><trkpt lat="37.039357352683" lon="-2.342793872382667"><ele>524.0</ele><time>2026-04-21T11:37:22Z</time></trkpt><trkpt lat="37.0392794089165" lon="-2.3428653938917123"><ele>524.0</ele><time>2026-04-21T11:37:24Z</time></trkpt><trkpt lat="37.039215360406814" lon="-2.3429841229486357"><ele>524.0</ele><time>2026-04-21T11:37:26Z</time></trkpt><trkpt lat="37.039151506650946" lon="-2.3431194940459092"><ele>524.0</ele><time>2026-04-21T11:37:28Z</time></trkpt><trkpt lat="37.03911440195469" lon="-2.343198511373713"><ele>524.6666666666666</ele><time>2026-04-21T11:37:29Z</time></trkpt><trkpt lat="37.03908812632216" lon="-2.3432771874505396"><ele>525.3333333333333</ele><time>2026-04-21T11:37:30Z</time></trkpt><trkpt lat="37.03908339649682" lon="-2.34342863730729"><ele>526.0</ele><time>2026-04-21T11:37:32Z</time></trkpt><trkpt lat="37.039098637209456" lon="-2.3435142195747565"><ele>526.6666666666666</ele><time>2026-04-21T11:37:33Z</time></trkpt><trkpt lat="37.03911781018226" lon="-2.3436084303448577"><ele>527.3333333333334</ele><time>2026-04-21T11:37:34Z</time></trkpt><trkpt lat="37.03914900254877" lon="-2.343699016846142"><ele>528.0</ele><time>2026-04-21T11:37:35Z</time></trkpt><trkpt lat="37.03918710515783" lon="-2.343790476104469"><ele>525.6666666666666</ele><time>2026-04-21T11:37:36Z</time></trkpt><trkpt lat="37.039228182479135" lon="-2.343880407178013"><ele>523.3333333333334</ele><time>2026-04-21T11:37:37Z</time></trkpt><trkpt lat="37.03926425198528" lon="-2.3439656582579276"><ele>521.0</ele><time>2026-04-21T11:37:38Z</time></trkpt><trkpt lat="37.039298308741984" lon="-2.3440487664630902"><ele>518.6666666666667</ele><time>2026-04-21T11:37:39Z</time></trkpt><trkpt lat="37.0393329077072" lon="-2.3441379738292976"><ele>516.3333333333334</ele><time>2026-04-21T11:37:40Z</time></trkpt><trkpt lat="37.03937137944488" lon="-2.344232888349984"><ele>514.0</ele><time>2026-04-21T11:37:41Z</time></trkpt><trkpt lat="37.039408695597295" lon="-2.3443314233275463"><ele>514.0</ele><time>2026-04-21T11:37:42Z</time></trkpt><trkpt lat="37.03944695523567" lon="-2.3444289429600427"><ele>514.0</ele><time>2026-04-21T11:37:43Z</time></trkpt><trkpt lat="37.03947597815953" lon="-2.344529393282237"><ele>514.0</ele><time>2026-04-21T11:37:44Z</time></trkpt><trkpt lat="37.03950712943706" lon="-2.344630345581355"><ele>514.0</ele><time>2026-04-21T11:37:45Z</time></trkpt><trkpt lat="37.039535071446544" lon="-2.344739878071341"><ele>514.0</ele><time>2026-04-21T11:37:46Z</time></trkpt><trkpt lat="37.03955656470661" lon="-2.344858964083295"><ele>514.0</ele><time>2026-04-21T11:37:47Z</time></trkpt><trkpt lat="37.03957581327045" lon="-2.3449809945137896"><ele>513.6</ele><time>2026-04-21T11:37:48Z</time></trkpt><trkpt lat="37.039582852509575" lon="-2.3451037206605667"><ele>513.2</ele><time>2026-04-21T11:37:49Z</time></trkpt><trkpt lat="37.03958748633271" lon="-2.3452244919085645"><ele>512.8000000000001</ele><time>2026-04-21T11:37:50Z</time></trkpt><trkpt lat="37.03958135233286" lon="-2.3453451069544773"><ele>512.4</ele><time>2026-04-21T11:37:50.999Z</time></trkpt><trkpt lat="37.03956464833249" lon="-2.3454712084541045"><ele>512.0</ele><time>2026-04-21T11:37:51.999Z</time></trkpt><trkpt lat="37.03954833850857" lon="-2.345606759763828"><ele>511.40000000000003</ele><time>2026-04-21T11:37:52.999Z</time></trkpt><trkpt lat="37.03952922960051" lon="-2.345741330296666"><ele>510.80000000000007</ele><time>2026-04-21T11:37:53.999Z</time></trkpt><trkpt lat="37.03951337137691" lon="-2.3458722039056767"><ele>510.2</ele><time>2026-04-21T11:37:54.999Z</time></trkpt><trkpt lat="37.03949076221281" lon="-2.346002084009833"><ele>509.6</ele><time>2026-04-21T11:37:55.999Z</time></trkpt><trkpt lat="37.03947480707701" lon="-2.346129064824796"><ele>509.0</ele><time>2026-04-21T11:37:56.999Z</time></trkpt><trkpt lat="37.0394589379314" lon="-2.346247211023228"><ele>509.0</ele><time>2026-04-21T11:37:57.999Z</time></trkpt><trkpt lat="37.0394471141486" lon="-2.346350786220396"><ele>509.0</ele><time>2026-04-21T11:37:58.999Z</time></trkpt><trkpt lat="37.03944111271054" lon="-2.3464374511708708"><ele>509.0</ele><time>2026-04-21T11:37:59.999Z</time></trkpt><trkpt lat="37.039458842371936" lon="-2.3465873589882538"><ele>509.0</ele><time>2026-04-21T11:38:01.999Z</time></trkpt><trkpt lat="37.03952305135072" lon="-2.346717771079029"><ele>509.0</ele><time>2026-04-21T11:38:03.999Z</time></trkpt><trkpt lat="37.039558482161674" lon="-2.3467876558873475"><ele>509.16666666666663</ele><time>2026-04-21T11:38:04.998Z</time></trkpt><trkpt lat="37.03958351342566" lon="-2.346877431202294"><ele>509.3333333333333</ele><time>2026-04-21T11:38:05.998Z</time></trkpt><trkpt lat="37.0396070369247" lon="-2.3469770732715993"><ele>509.5</ele><time>2026-04-21T11:38:06.998Z</time></trkpt><trkpt lat="37.03962598169868" lon="-2.347080652007252"><ele>509.66666666666663</ele><time>2026-04-21T11:38:07.998Z</time></trkpt><trkpt lat="37.039644903759616" lon="-2.3471829680716314"><ele>509.8333333333333</ele><time>2026-04-21T11:38:08.998Z</time></trkpt><trkpt lat="37.03966351149121" lon="-2.3472866104369965"><ele>510.0</ele><time>2026-04-21T11:38:09.998Z</time></trkpt><trkpt lat="37.03970063584218" lon="-2.3473862526942413"><ele>509.2</ele><time>2026-04-21T11:38:10.998Z</time></trkpt><trkpt lat="37.0397540618669" lon="-2.3474822131711894"><ele>508.4</ele><time>2026-04-21T11:38:11.998Z</time></trkpt><trkpt lat="37.03982494216481" lon="-2.3475738289615804"><ele>507.6</ele><time>2026-04-21T11:38:12.998Z</time></trkpt><trkpt lat="37.03990468342315" lon="-2.347671694243508"><ele>506.8</ele><time>2026-04-21T11:38:13.998Z</time></trkpt><trkpt lat="37.039989810560336" lon="-2.347764536890755"><ele>506.0</ele><time>2026-04-21T11:38:14.998Z</time></trkpt><trkpt lat="37.04006899338911" lon="-2.347852467909936"><ele>506.0</ele><time>2026-04-21T11:38:15.998Z</time></trkpt><trkpt lat="37.040136514851014" lon="-2.3479355180996375"><ele>506.0</ele><time>2026-04-21T11:38:16.998Z</time></trkpt><trkpt lat="37.04020095287379" lon="-2.3480135381451386"><ele>506.0</ele><time>2026-04-21T11:38:17.998Z</time></trkpt><trkpt lat="37.04025868757452" lon="-2.348096047466211"><ele>506.0</ele><time>2026-04-21T11:38:18.998Z</time></trkpt><trkpt lat="37.040304443093746" lon="-2.348193839339117"><ele>506.0</ele><time>2026-04-21T11:38:19.998Z</time></trkpt><trkpt lat="37.04033825525624" lon="-2.348301960940224"><ele>506.4</ele><time>2026-04-21T11:38:20.998Z</time></trkpt><trkpt lat="37.04036413995433" lon="-2.3484129202319624"><ele>506.8</ele><time>2026-04-21T11:38:21.998Z</time></trkpt><trkpt lat="37.04038548032435" lon="-2.3485294964043635"><ele>507.19999999999993</ele><time>2026-04-21T11:38:22.998Z</time></trkpt><trkpt lat="37.04039629902058" lon="-2.348653146769495"><ele>507.59999999999997</ele><time>2026-04-21T11:38:23.998Z</time></trkpt><trkpt lat="37.040391087627754" lon="-2.3487842929152762"><ele>508.0</ele><time>2026-04-21T11:38:24.998Z</time></trkpt><trkpt lat="37.040372375420304" lon="-2.348921404999615"><ele>508.0</ele><time>2026-04-21T11:38:25.998Z</time></trkpt><trkpt lat="37.04034530928553" lon="-2.349062046237608"><ele>508.0</ele><time>2026-04-21T11:38:26.998Z</time></trkpt><trkpt lat="37.0403050899653" lon="-2.3491990088555994"><ele>508.0</ele><time>2026-04-21T11:38:27.998Z</time></trkpt><trkpt lat="37.0402623240184" lon="-2.349340148302854"><ele>508.0</ele><time>2026-04-21T11:38:28.998Z</time></trkpt><trkpt lat="37.04022413163012" lon="-2.3494774232911033"><ele>508.0</ele><time>2026-04-21T11:38:29.998Z</time></trkpt><trkpt lat="37.04018744113813" lon="-2.3496125578489835"><ele>507.99999999999994</ele><time>2026-04-21T11:38:30.998Z</time></trkpt><trkpt lat="37.0401496807361" lon="-2.349737259678978"><ele>507.99999999999994</ele><time>2026-04-21T11:38:31.998Z</time></trkpt><trkpt lat="37.04012049757576" lon="-2.349851715446885"><ele>508.0</ele><time>2026-04-21T11:38:32.998Z</time></trkpt><trkpt lat="37.04009875600335" lon="-2.3499692790337914"><ele>508.0</ele><time>2026-04-21T11:38:33.998Z</time></trkpt><trkpt lat="37.04009914000226" lon="-2.3500965384207486"><ele>507.4</ele><time>2026-04-21T11:38:34.998Z</time></trkpt><trkpt lat="37.04010469734997" lon="-2.350236004617388"><ele>506.79999999999995</ele><time>2026-04-21T11:38:35.998Z</time></trkpt><trkpt lat="37.04009715667771" lon="-2.350370050466559"><ele>506.2</ele><time>2026-04-21T11:38:36.998Z</time></trkpt><trkpt lat="37.04009971901616" lon="-2.3504935670395812"><ele>505.6</ele><time>2026-04-21T11:38:37.998Z</time></trkpt><trkpt lat="37.04009146987206" lon="-2.3506042656532697"><ele>505.0</ele><time>2026-04-21T11:38:38.998Z</time></trkpt><trkpt lat="37.040066540339964" lon="-2.35069732026982"><ele>505.1666666666667</ele><time>2026-04-21T11:38:39.998Z</time></trkpt><trkpt lat="37.0400293635025" lon="-2.35077855436626"><ele>505.33333333333337</ele><time>2026-04-21T11:38:40.998Z</time></trkpt><trkpt lat="37.039984499594404" lon="-2.350852560272677"><ele>505.5</ele><time>2026-04-21T11:38:41.998Z</time></trkpt><trkpt lat="37.03994015442483" lon="-2.350912033877288"><ele>505.66666666666663</ele><time>2026-04-21T11:38:42.998Z</time></trkpt><trkpt lat="37.03988582357263" lon="-2.3510072679942673"><ele>505.8333333333333</ele><time>2026-04-21T11:38:44.998Z</time></trkpt><trkpt lat="37.03989811003793" lon="-2.351099092858401"><ele>506.0</ele><time>2026-04-21T11:38:46.998Z</time></trkpt><trkpt lat="37.03996871584853" lon="-2.3511889341301457"><ele>504.6</ele><time>2026-04-21T11:38:48.998Z</time></trkpt><trkpt lat="37.0400415919173" lon="-2.351274224102663"><ele>503.20000000000005</ele><time>2026-04-21T11:38:50.998Z</time></trkpt><trkpt lat="37.040133718594824" lon="-2.3513812452731346"><ele>501.79999999999995</ele><time>2026-04-21T11:38:52.998Z</time></trkpt><trkpt lat="37.04018291616034" lon="-2.3514446450467803"><ele>500.4</ele><time>2026-04-21T11:38:53.998Z</time></trkpt><trkpt lat="37.04022872113679" lon="-2.3515005566762635"><ele>499.0</ele><time>2026-04-21T11:38:54.998Z</time></trkpt><trkpt lat="37.04027924379476" lon="-2.3516460018087013"><ele>499.00000000000006</ele><time>2026-04-21T11:38:56.998Z</time></trkpt><trkpt lat="37.040295088651945" lon="-2.351738052626196"><ele>499.0</ele><time>2026-04-21T11:38:57.998Z</time></trkpt><trkpt lat="37.040294820120586" lon="-2.3518355741161523"><ele>499.0</ele><time>2026-04-21T11:38:58.998Z</time></trkpt><trkpt lat="37.04029395904425" lon="-2.351928015075401"><ele>499.0</ele><time>2026-04-21T11:38:59.998Z</time></trkpt><trkpt lat="37.040292253888964" lon="-2.3520175817037097"><ele>499.00000000000006</ele><time>2026-04-21T11:39:00.998Z</time></trkpt><trkpt lat="37.0402789486877" lon="-2.3521126657935603"><ele>499.0</ele><time>2026-04-21T11:39:01.998Z</time></trkpt><trkpt lat="37.040262016770704" lon="-2.352211120363137"><ele>498.83333333333337</ele><time>2026-04-21T11:39:02.998Z</time></trkpt><trkpt lat="37.040240705882816" lon="-2.3523143181523114"><ele>498.6666666666667</ele><time>2026-04-21T11:39:03.998Z</time></trkpt><trkpt lat="37.04021796014665" lon="-2.352420278978876"><ele>498.5</ele><time>2026-04-21T11:39:04.998Z</time></trkpt><trkpt lat="37.04019882796207" lon="-2.3525304672086667"><ele>498.33333333333337</ele><time>2026-04-21T11:39:05.998Z</time></trkpt><trkpt lat="37.04018259794508" lon="-2.3526378197787823"><ele>498.1666666666667</ele><time>2026-04-21T11:39:06.998Z</time></trkpt><trkpt lat="37.04017647517599" lon="-2.35275142004121"><ele>498.0</ele><time>2026-04-21T11:39:07.998Z</time></trkpt><trkpt lat="37.040173708228586" lon="-2.352861617811086"><ele>498.0</ele><time>2026-04-21T11:39:08.998Z</time></trkpt><trkpt lat="37.04016712338894" lon="-2.352965660729954"><ele>497.99999999999994</ele><time>2026-04-21T11:39:09.998Z</time></trkpt><trkpt lat="37.04015970331149" lon="-2.35305798196395"><ele>498.0</ele><time>2026-04-21T11:39:10.998Z</time></trkpt><trkpt lat="37.040146778759045" lon="-2.3531434329459757"><ele>498.0</ele><time>2026-04-21T11:39:11.998Z</time></trkpt><trkpt lat="37.04011642806869" lon="-2.353216872926356"><ele>497.99999999999994</ele><time>2026-04-21T11:39:12.998Z</time></trkpt><trkpt lat="37.04007268816112" lon="-2.35328616702771"><ele>498.0</ele><time>2026-04-21T11:39:13.998Z</time></trkpt><trkpt lat="37.04001101045321" lon="-2.353345403535887"><ele>498.0</ele><time>2026-04-21T11:39:14.998Z</time></trkpt><trkpt lat="37.039944410105676" lon="-2.353399819261561"><ele>497.8333333333333</ele><time>2026-04-21T11:39:15.998Z</time></trkpt><trkpt lat="37.03987992881176" lon="-2.353455795331545"><ele>497.66666666666663</ele><time>2026-04-21T11:39:16.998Z</time></trkpt><trkpt lat="37.03981830925819" lon="-2.3535073135868303"><ele>497.5</ele><time>2026-04-21T11:39:17.998Z</time></trkpt><trkpt lat="37.039761404187594" lon="-2.3535615775602245"><ele>497.3333333333333</ele><time>2026-04-21T11:39:18.998Z</time></trkpt><trkpt lat="37.039724004165" lon="-2.353629227333721"><ele>497.16666666666663</ele><time>2026-04-21T11:39:19.998Z</time></trkpt><trkpt lat="37.03969688132918" lon="-2.3537073324885185"><ele>497.0</ele><time>2026-04-21T11:39:20.998Z</time></trkpt><trkpt lat="37.03969592285904" lon="-2.353856509915909"><ele>495.49999999999994</ele><time>2026-04-21T11:39:22.998Z</time></trkpt><trkpt lat="37.03970593841353" lon="-2.3539768134048504"><ele>494.0</ele><time>2026-04-21T11:39:24.998Z</time></trkpt><trkpt lat="37.03968713260005" lon="-2.3540531482737883"><ele>492.5</ele><time>2026-04-21T11:39:26.997Z</time></trkpt><trkpt lat="37.039602039088834" lon="-2.3540699464321198"><ele>491.0</ele><time>2026-04-21T11:39:28.997Z</time></trkpt><trkpt lat="37.039503844186115" lon="-2.3540047066367347"><ele>489.49999999999994</ele><time>2026-04-21T11:39:30.997Z</time></trkpt><trkpt lat="37.03943901380605" lon="-2.3539694965566538"><ele>488.0</ele><time>2026-04-21T11:39:31.997Z</time></trkpt><trkpt lat="37.03936178760958" lon="-2.3539487371401715"><ele>487.99999999999994</ele><time>2026-04-21T11:39:32.997Z</time></trkpt><trkpt lat="37.039280603955966" lon="-2.3539304305613467"><ele>488.0</ele><time>2026-04-21T11:39:33.997Z</time></trkpt><trkpt lat="37.039198788171085" lon="-2.3539205094817466"><ele>488.0</ele><time>2026-04-21T11:39:34.997Z</time></trkpt><trkpt lat="37.039114301475934" lon="-2.3539106939014496"><ele>488.0</ele><time>2026-04-21T11:39:35.997Z</time></trkpt><trkpt lat="37.03902706790734" lon="-2.3539016029701663"><ele>487.99999999999994</ele><time>2026-04-21T11:39:36.997Z</time></trkpt><trkpt lat="37.03893888029948" lon="-2.353890249020284"><ele>488.0</ele><time>2026-04-21T11:39:37.997Z</time></trkpt><trkpt lat="37.03885070780062" lon="-2.3538884923409626"><ele>487.3333333333333</ele><time>2026-04-21T11:39:38.997Z</time></trkpt><trkpt lat="37.03876308904327" lon="-2.353888704076428"><ele>486.66666666666663</ele><time>2026-04-21T11:39:39.997Z</time></trkpt><trkpt lat="37.03867737358807" lon="-2.3539067100079336"><ele>486.0</ele><time>2026-04-21T11:39:40.997Z</time></trkpt><trkpt lat="37.03859242280304" lon="-2.3539204688352426"><ele>485.33333333333337</ele><time>2026-04-21T11:39:41.997Z</time></trkpt><trkpt lat="37.03850826274139" lon="-2.353939398134649"><ele>484.6666666666667</ele><time>2026-04-21T11:39:42.997Z</time></trkpt><trkpt lat="37.0384244287061" lon="-2.35395993558631"><ele>484.0</ele><time>2026-04-21T11:39:43.997Z</time></trkpt><trkpt lat="37.03834689899795" lon="-2.3539941328765988"><ele>485.33333333333337</ele><time>2026-04-21T11:39:44.997Z</time></trkpt><trkpt lat="37.038283963468345" lon="-2.354044011385814"><ele>486.6666666666667</ele><time>2026-04-21T11:39:45.997Z</time></trkpt><trkpt lat="37.03823058047231" lon="-2.3540885724820577"><ele>488.0</ele><time>2026-04-21T11:39:46.997Z</time></trkpt><trkpt lat="37.03817595943375" lon="-2.3541576475524706"><ele>489.33333333333337</ele><time>2026-04-21T11:39:48.997Z</time></trkpt><trkpt lat="37.03811205147793" lon="-2.3541997088425175"><ele>490.6666666666667</ele><time>2026-04-21T11:40:07.997Z</time></trkpt><trkpt lat="37.038132146075405" lon="-2.354095282207101"><ele>492.0</ele><time>2026-04-21T11:40:23.997Z</time></trkpt><trkpt lat="37.038195226110695" lon="-2.354008898646383"><ele>492.0</ele><time>2026-04-21T11:40:25.997Z</time></trkpt><trkpt lat="37.03827205328103" lon="-2.353945156951193"><ele>492.00000000000006</ele><time>2026-04-21T11:40:27.997Z</time></trkpt><trkpt lat="37.038366047447276" lon="-2.3538839644426903"><ele>492.00000000000006</ele><time>2026-04-21T11:40:29.997Z</time></trkpt><trkpt lat="37.038475417366335" lon="-2.3538593704161572"><ele>492.0</ele><time>2026-04-21T11:40:31.997Z</time></trkpt><trkpt lat="37.03858950003441" lon="-2.353841897520131"><ele>492.0</ele><time>2026-04-21T11:40:33.997Z</time></trkpt><trkpt lat="37.03871027999183" lon="-2.3538518106442035"><ele>492.1428571428572</ele><time>2026-04-21T11:40:35.997Z</time></trkpt><trkpt lat="37.03877353648539" lon="-2.353853309981561"><ele>492.28571428571433</ele><time>2026-04-21T11:40:36.997Z</time></trkpt><trkpt lat="37.03883792709264" lon="-2.353852899368048"><ele>492.42857142857144</ele><time>2026-04-21T11:40:37.997Z</time></trkpt><trkpt lat="37.038904018825434" lon="-2.3538572578886945"><ele>492.5714285714286</ele><time>2026-04-21T11:40:38.997Z</time></trkpt><trkpt lat="37.03897815088913" lon="-2.353851106371532"><ele>492.7142857142858</ele><time>2026-04-21T11:40:39.997Z</time></trkpt><trkpt lat="37.03905476627851" lon="-2.3538553743181554"><ele>492.85714285714283</ele><time>2026-04-21T11:40:40.997Z</time></trkpt><trkpt lat="37.039128853802445" lon="-2.35386483922896"><ele>493.0</ele><time>2026-04-21T11:40:41.997Z</time></trkpt><trkpt lat="37.03920052276534" lon="-2.353875312272154"><ele>492.1666666666667</ele><time>2026-04-21T11:40:42.997Z</time></trkpt><trkpt lat="37.03930574229557" lon="-2.3538948415533287"><ele>491.33333333333337</ele><time>2026-04-21T11:40:44.997Z</time></trkpt><trkpt lat="37.039367436248156" lon="-2.3539181938544873"><ele>490.5</ele><time>2026-04-21T11:40:46.996Z</time></trkpt><trkpt lat="37.03943935249204" lon="-2.3539963854216324"><ele>489.66666666666663</ele><time>2026-04-21T11:41:04.996Z</time></trkpt><trkpt lat="37.03941281913243" lon="-2.354079731769861"><ele>488.8333333333333</ele><time>2026-04-21T11:41:11.996Z</time></trkpt><trkpt lat="37.039337348456655" lon="-2.3541225463652764"><ele>488.0</ele><time>2026-04-21T11:41:13.996Z</time></trkpt><trkpt lat="37.039238808305775" lon="-2.3541483158322505"><ele>488.0</ele><time>2026-04-21T11:41:15.996Z</time></trkpt><trkpt lat="37.03914392897405" lon="-2.3541304073352474"><ele>487.99999999999994</ele><time>2026-04-21T11:41:17.996Z</time></trkpt><trkpt lat="37.03901523271336" lon="-2.3541185521029706"><ele>487.99999999999994</ele><time>2026-04-21T11:41:19.996Z</time></trkpt><trkpt lat="37.03894501694761" lon="-2.354120998651526"><ele>488.0</ele><time>2026-04-21T11:41:20.996Z</time></trkpt><trkpt lat="37.03887819465156" lon="-2.35412890062181"><ele>488.0</ele><time>2026-04-21T11:41:21.996Z</time></trkpt><trkpt lat="37.038769547802666" lon="-2.3541965809875567"><ele>487.3333333333333</ele><time>2026-04-21T11:41:23.996Z</time></trkpt><trkpt lat="37.03871214219568" lon="-2.35425684023569"><ele>486.66666666666663</ele><time>2026-04-21T11:41:24.996Z</time></trkpt><trkpt lat="37.03865390042148" lon="-2.3543296859713774"><ele>486.0</ele><time>2026-04-21T11:41:25.996Z</time></trkpt><trkpt lat="37.03859250428513" lon="-2.354403106166439"><ele>485.33333333333337</ele><time>2026-04-21T11:41:26.996Z</time></trkpt><trkpt lat="37.038533148509835" lon="-2.3544823845541956"><ele>484.6666666666667</ele><time>2026-04-21T11:41:27.996Z</time></trkpt><trkpt lat="37.03846954860401" lon="-2.354558601893506"><ele>484.0</ele><time>2026-04-21T11:41:28.996Z</time></trkpt><trkpt lat="37.038411288772735" lon="-2.3546411637253466"><ele>483.6666666666667</ele><time>2026-04-21T11:41:29.996Z</time></trkpt><trkpt lat="37.03835578161398" lon="-2.3547250415201146"><ele>483.33333333333337</ele><time>2026-04-21T11:41:30.996Z</time></trkpt><trkpt lat="37.03830220946878" lon="-2.3548088569961174"><ele>483.0</ele><time>2026-04-21T11:41:31.996Z</time></trkpt><trkpt lat="37.03824987558549" lon="-2.3548919883991277"><ele>482.66666666666663</ele><time>2026-04-21T11:41:32.996Z</time></trkpt><trkpt lat="37.03820238988249" lon="-2.354974179620515"><ele>482.3333333333333</ele><time>2026-04-21T11:41:33.996Z</time></trkpt><trkpt lat="37.03816175358302" lon="-2.355053957803621"><ele>482.0</ele><time>2026-04-21T11:41:34.996Z</time></trkpt><trkpt lat="37.038134500801974" lon="-2.3551332034948103"><ele>481.99999999999994</ele><time>2026-04-21T11:41:35.996Z</time></trkpt><trkpt lat="37.03812860178605" lon="-2.355221696533328"><ele>482.0</ele><time>2026-04-21T11:41:36.996Z</time></trkpt><trkpt lat="37.0381304161263" lon="-2.3553148391347927"><ele>482.0</ele><time>2026-04-21T11:41:37.996Z</time></trkpt><trkpt lat="37.03815067480873" lon="-2.3554106582862313"><ele>482.0</ele><time>2026-04-21T11:41:38.996Z</time></trkpt><trkpt lat="37.03818594094211" lon="-2.3555109943849724"><ele>481.99999999999994</ele><time>2026-04-21T11:41:39.996Z</time></trkpt><trkpt lat="37.038231158542175" lon="-2.3556159387112907"><ele>482.0</ele><time>2026-04-21T11:41:40.996Z</time></trkpt><trkpt lat="37.03827790165955" lon="-2.3557183361154506"><ele>483.3333333333333</ele><time>2026-04-21T11:41:41.996Z</time></trkpt><trkpt lat="37.03833108228963" lon="-2.3558125010937836"><ele>484.66666666666663</ele><time>2026-04-21T11:41:42.996Z</time></trkpt><trkpt lat="37.03838678435026" lon="-2.355901868680087"><ele>486.0</ele><time>2026-04-21T11:41:43.996Z</time></trkpt><trkpt lat="37.03844718635549" lon="-2.3559826868441345"><ele>487.33333333333337</ele><time>2026-04-21T11:41:44.996Z</time></trkpt><trkpt lat="37.03850722585949" lon="-2.356060737510115"><ele>488.6666666666667</ele><time>2026-04-21T11:41:45.996Z</time></trkpt><trkpt lat="37.03856917328991" lon="-2.3561220801873937"><ele>490.0</ele><time>2026-04-21T11:41:46.996Z</time></trkpt><trkpt lat="37.03863503889429" lon="-2.356161010457698"><ele>490.0</ele><time>2026-04-21T11:41:47.996Z</time></trkpt><trkpt lat="37.03873174387067" lon="-2.3561853338416148"><ele>490.0</ele><time>2026-04-21T11:41:49.996Z</time></trkpt><trkpt lat="37.03881073656863" lon="-2.3562436516804803"><ele>490.0</ele><time>2026-04-21T11:41:52.996Z</time></trkpt><trkpt lat="37.038769546424895" lon="-2.3563245363856082"><ele>490.0</ele><time>2026-04-21T11:41:55.996Z</time></trkpt><trkpt lat="37.03871182139415" lon="-2.356405963531996"><ele>490.0</ele><time>2026-04-21T11:41:57.996Z</time></trkpt><trkpt lat="37.038641352408526" lon="-2.356517287035365"><ele>490.6</ele><time>2026-04-21T11:41:59.996Z</time></trkpt><trkpt lat="37.038565894383716" lon="-2.3566016318155967"><ele>491.2</ele><time>2026-04-21T11:42:01.996Z</time></trkpt><trkpt lat="37.03847672954164" lon="-2.3566662085541563"><ele>491.79999999999995</ele><time>2026-04-21T11:42:03.996Z</time></trkpt><trkpt lat="37.03840157253608" lon="-2.3567628411161228"><ele>492.4</ele><time>2026-04-21T11:42:05.996Z</time></trkpt><trkpt lat="37.03840783801135" lon="-2.356898352949813"><ele>493.0</ele><time>2026-04-21T11:42:07.995Z</time></trkpt><trkpt lat="37.038466167607325" lon="-2.35703204317377"><ele>493.00000000000006</ele><time>2026-04-21T11:42:09.995Z</time></trkpt><trkpt lat="37.038508822903545" lon="-2.3571114255174215"><ele>493.0</ele><time>2026-04-21T11:42:10.995Z</time></trkpt><trkpt lat="37.03855118209477" lon="-2.3572003580920375"><ele>493.0</ele><time>2026-04-21T11:42:11.995Z</time></trkpt><trkpt lat="37.03858723268101" lon="-2.3572945208600755"><ele>493.0</ele><time>2026-04-21T11:42:12.995Z</time></trkpt><trkpt lat="37.03860772001739" lon="-2.357392029577854"><ele>493.00000000000006</ele><time>2026-04-21T11:42:13.995Z</time></trkpt><trkpt lat="37.038618691641894" lon="-2.35749154928705"><ele>493.0</ele><time>2026-04-21T11:42:14.995Z</time></trkpt><trkpt lat="37.03860034541172" lon="-2.357596819178153"><ele>493.00000000000006</ele><time>2026-04-21T11:42:15.995Z</time></trkpt><trkpt lat="37.03857115173709" lon="-2.3577024482805364"><ele>493.0</ele><time>2026-04-21T11:42:16.995Z</time></trkpt><trkpt lat="37.03854427394114" lon="-2.3578045244557195"><ele>493.0</ele><time>2026-04-21T11:42:17.995Z</time></trkpt><trkpt lat="37.03851648109733" lon="-2.3579044102501396"><ele>493.0</ele><time>2026-04-21T11:42:18.995Z</time></trkpt><trkpt lat="37.038488815635205" lon="-2.35800819133588"><ele>493.00000000000006</ele><time>2026-04-21T11:42:19.995Z</time></trkpt><trkpt lat="37.0384584424479" lon="-2.358117177423902"><ele>493.0</ele><time>2026-04-21T11:42:20.995Z</time></trkpt><trkpt lat="37.038422629638205" lon="-2.3582320637543317"><ele>493.1666666666667</ele><time>2026-04-21T11:42:21.995Z</time></trkpt><trkpt lat="37.03838765649099" lon="-2.358339416976378"><ele>493.33333333333337</ele><time>2026-04-21T11:42:22.995Z</time></trkpt><trkpt lat="37.03835413059688" lon="-2.3584356155591397"><ele>493.5</ele><time>2026-04-21T11:42:23.995Z</time></trkpt><trkpt lat="37.03832432552635" lon="-2.35852959771644"><ele>493.66666666666663</ele><time>2026-04-21T11:42:24.995Z</time></trkpt><trkpt lat="37.038313363680395" lon="-2.358625529489795"><ele>493.8333333333333</ele><time>2026-04-21T11:42:25.995Z</time></trkpt><trkpt lat="37.03832110810471" lon="-2.358723794718262"><ele>494.0</ele><time>2026-04-21T11:42:26.995Z</time></trkpt><trkpt lat="37.038346520232295" lon="-2.358822684028098"><ele>495.2</ele><time>2026-04-21T11:42:27.995Z</time></trkpt><trkpt lat="37.0383991974248" lon="-2.3588889352191758"><ele>496.4</ele><time>2026-04-21T11:42:28.995Z</time></trkpt><trkpt lat="37.0384686812224" lon="-2.3589652422667147"><ele>497.6</ele><time>2026-04-21T11:42:29.995Z</time></trkpt><trkpt lat="37.03855435167989" lon="-2.3590444892602287"><ele>498.8</ele><time>2026-04-21T11:42:30.995Z</time></trkpt><trkpt lat="37.03864075317311" lon="-2.35911488817706"><ele>500.0</ele><time>2026-04-21T11:42:31.995Z</time></trkpt><trkpt lat="37.038729167249606" lon="-2.359169939410778"><ele>500.0</ele><time>2026-04-21T11:42:32.995Z</time></trkpt><trkpt lat="37.038826274829944" lon="-2.3592069767180934"><ele>500.0</ele><time>2026-04-21T11:42:33.995Z</time></trkpt><trkpt lat="37.03892872356615" lon="-2.359227014097171"><ele>500.0</ele><time>2026-04-21T11:42:34.995Z</time></trkpt><trkpt lat="37.03903250396955" lon="-2.35923434313239"><ele>500.0</ele><time>2026-04-21T11:42:35.995Z</time></trkpt><trkpt lat="37.03912889914345" lon="-2.3592268853809646"><ele>500.0</ele><time>2026-04-21T11:42:36.995Z</time></trkpt><trkpt lat="37.03921501264806" lon="-2.35919439063068"><ele>499.99999999999994</ele><time>2026-04-21T11:42:37.995Z</time></trkpt><trkpt lat="37.03929454294585" lon="-2.359152811743181"><ele>500.0</ele><time>2026-04-21T11:42:38.995Z</time></trkpt><trkpt lat="37.03937006075371" lon="-2.359103882537979"><ele>500.0</ele><time>2026-04-21T11:42:39.995Z</time></trkpt><trkpt lat="37.03944385748625" lon="-2.3590497633739855"><ele>500.0</ele><time>2026-04-21T11:42:40.995Z</time></trkpt><trkpt lat="37.03952220366175" lon="-2.3590077114830414"><ele>499.99999999999994</ele><time>2026-04-21T11:42:41.995Z</time></trkpt><trkpt lat="37.03960608606052" lon="-2.3589899350106123"><ele>500.0</ele><time>2026-04-21T11:42:42.995Z</time></trkpt><trkpt lat="37.03969369990095" lon="-2.3589908916807394"><ele>500.0</ele><time>2026-04-21T11:42:43.995Z</time></trkpt><trkpt lat="37.039783557631296" lon="-2.359008736091705"><ele>500.0</ele><time>2026-04-21T11:42:44.995Z</time></trkpt><trkpt lat="37.03987452764215" lon="-2.359044763651685"><ele>500.0</ele><time>2026-04-21T11:42:45.995Z</time></trkpt><trkpt lat="37.03996446605984" lon="-2.359095646384361"><ele>500.0</ele><time>2026-04-21T11:42:46.995Z</time></trkpt><trkpt lat="37.040051168490045" lon="-2.3591603365500364"><ele>500.0</ele><time>2026-04-21T11:42:47.995Z</time></trkpt><trkpt lat="37.04013474441671" lon="-2.3592321359521473"><ele>499.4</ele><time>2026-04-21T11:42:48.995Z</time></trkpt><trkpt lat="37.04021842693141" lon="-2.3593065204755637"><ele>498.8</ele><time>2026-04-21T11:42:49.995Z</time></trkpt><trkpt lat="37.04030148431243" lon="-2.359390220574022"><ele>498.20000000000005</ele><time>2026-04-21T11:42:50.995Z</time></trkpt><trkpt lat="37.04037842821922" lon="-2.3594840353563535"><ele>497.6</ele><time>2026-04-21T11:42:51.995Z</time></trkpt><trkpt lat="37.04045557469239" lon="-2.3595789117624366"><ele>497.0</ele><time>2026-04-21T11:42:52.995Z</time></trkpt><trkpt lat="37.040531174914214" lon="-2.3596713938417984"><ele>496.6</ele><time>2026-04-21T11:42:53.995Z</time></trkpt><trkpt lat="37.0406054352177" lon="-2.3597621858562015"><ele>496.20000000000005</ele><time>2026-04-21T11:42:54.995Z</time></trkpt><trkpt lat="37.040679204228816" lon="-2.3598523252009893"><ele>495.8</ele><time>2026-04-21T11:42:55.995Z</time></trkpt><trkpt lat="37.040752171656116" lon="-2.3599420103452298"><ele>495.4</ele><time>2026-04-21T11:42:56.995Z</time></trkpt><trkpt lat="37.040820774726825" lon="-2.3600327881306766"><ele>495.0</ele><time>2026-04-21T11:42:57.995Z</time></trkpt><trkpt lat="37.04087601202649" lon="-2.360135106685744"><ele>495.0</ele><time>2026-04-21T11:42:58.995Z</time></trkpt><trkpt lat="37.04093044539435" lon="-2.360244196569936"><ele>495.0</ele><time>2026-04-21T11:42:59.995Z</time></trkpt><trkpt lat="37.040999667028935" lon="-2.3603516851605755"><ele>495.0</ele><time>2026-04-21T11:43:00.995Z</time></trkpt><trkpt lat="37.04107184441759" lon="-2.3604621041281306"><ele>495.0</ele><time>2026-04-21T11:43:01.995Z</time></trkpt><trkpt lat="37.0411444178368" lon="-2.3605743068108915"><ele>495.0</ele><time>2026-04-21T11:43:02.995Z</time></trkpt><trkpt lat="37.04121274766865" lon="-2.3606884629860443"><ele>495.8</ele><time>2026-04-21T11:43:03.995Z</time></trkpt><trkpt lat="37.0412779914757" lon="-2.360802121119287"><ele>496.6</ele><time>2026-04-21T11:43:04.995Z</time></trkpt><trkpt lat="37.04134533437005" lon="-2.3609088207496587"><ele>497.4</ele><time>2026-04-21T11:43:05.995Z</time></trkpt><trkpt lat="37.041413965104674" lon="-2.361010837364714"><ele>498.2</ele><time>2026-04-21T11:43:06.995Z</time></trkpt><trkpt lat="37.041484682072436" lon="-2.3611093323133314"><ele>499.0</ele><time>2026-04-21T11:43:07.995Z</time></trkpt><trkpt lat="37.04156873062631" lon="-2.361194168813224"><ele>497.79999999999995</ele><time>2026-04-21T11:43:08.995Z</time></trkpt><trkpt lat="37.04166268425263" lon="-2.361265753536314"><ele>496.59999999999997</ele><time>2026-04-21T11:43:09.995Z</time></trkpt><trkpt lat="37.041752986331794" lon="-2.361338011904235"><ele>495.4</ele><time>2026-04-21T11:43:10.995Z</time></trkpt><trkpt lat="37.04183898268642" lon="-2.361408885297802"><ele>494.2</ele><time>2026-04-21T11:43:11.995Z</time></trkpt><trkpt lat="37.041916149951696" lon="-2.361487482784901"><ele>493.0</ele><time>2026-04-21T11:43:12.995Z</time></trkpt><trkpt lat="37.041991717767324" lon="-2.3615700390577556"><ele>493.0</ele><time>2026-04-21T11:43:13.995Z</time></trkpt><trkpt lat="37.042067077606916" lon="-2.361653675838517"><ele>492.99999999999994</ele><time>2026-04-21T11:43:14.995Z</time></trkpt><trkpt lat="37.04213838213479" lon="-2.361740099686834"><ele>492.99999999999994</ele><time>2026-04-21T11:43:15.995Z</time></trkpt><trkpt lat="37.04220655869386" lon="-2.3618277270942913"><ele>493.0</ele><time>2026-04-21T11:43:16.995Z</time></trkpt><trkpt lat="37.042273004673106" lon="-2.3619170955982516"><ele>493.0</ele><time>2026-04-21T11:43:17.995Z</time></trkpt><trkpt lat="37.04233251056076" lon="-2.3620180013883028"><ele>493.0</ele><time>2026-04-21T11:43:18.995Z</time></trkpt><trkpt lat="37.042393397361195" lon="-2.362123284856207"><ele>492.99999999999994</ele><time>2026-04-21T11:43:19.995Z</time></trkpt><trkpt lat="37.0424547926165" lon="-2.3622291453725532"><ele>492.99999999999994</ele><time>2026-04-21T11:43:20.995Z</time></trkpt><trkpt lat="37.042512630973754" lon="-2.3623388435672754"><ele>493.0</ele><time>2026-04-21T11:43:21.995Z</time></trkpt><trkpt lat="37.042569328775926" lon="-2.362446851011222"><ele>493.0</ele><time>2026-04-21T11:43:22.995Z</time></trkpt><trkpt lat="37.04262586128094" lon="-2.362555662210446"><ele>491.4</ele><time>2026-04-21T11:43:23.995Z</time></trkpt><trkpt lat="37.04267623456913" lon="-2.3626686704379725"><ele>489.79999999999995</ele><time>2026-04-21T11:43:24.995Z</time></trkpt><trkpt lat="37.04272012526244" lon="-2.362778770243649"><ele>488.2</ele><time>2026-04-21T11:43:25.995Z</time></trkpt><trkpt lat="37.04275914150394" lon="-2.362887529902539"><ele>486.6</ele><time>2026-04-21T11:43:26.995Z</time></trkpt><trkpt lat="37.042797381139934" lon="-2.3629957598913376"><ele>485.0</ele><time>2026-04-21T11:43:27.995Z</time></trkpt><trkpt lat="37.04283816659227" lon="-2.3630991997633264"><ele>484.99999999999994</ele><time>2026-04-21T11:43:28.995Z</time></trkpt><trkpt lat="37.04288143916995" lon="-2.3632000050725037"><ele>485.0</ele><time>2026-04-21T11:43:29.994Z</time></trkpt><trkpt lat="37.04292770391959" lon="-2.3632977803836765"><ele>485.0</ele><time>2026-04-21T11:43:30.994Z</time></trkpt><trkpt lat="37.04297594669073" lon="-2.3633971156482994"><ele>485.0</ele><time>2026-04-21T11:43:32.001Z</time></trkpt><trkpt lat="37.04302560883129" lon="-2.363489190369364"><ele>484.99999999999994</ele><time>2026-04-21T11:43:33.001Z</time></trkpt><trkpt lat="37.043071026765254" lon="-2.3635762171585033"><ele>485.0</ele><time>2026-04-21T11:43:34.001Z</time></trkpt><trkpt lat="37.04312126265046" lon="-2.363657577133458"><ele>484.99999999999994</ele><time>2026-04-21T11:43:35.001Z</time></trkpt><trkpt lat="37.04316954190958" lon="-2.36373788425509"><ele>485.0</ele><time>2026-04-21T11:43:36Z</time></trkpt><trkpt lat="37.04322798012267" lon="-2.3638067009588317"><ele>485.0</ele><time>2026-04-21T11:43:37Z</time></trkpt><trkpt lat="37.04329082919353" lon="-2.3638700291598718"><ele>485.0</ele><time>2026-04-21T11:43:38Z</time></trkpt><trkpt lat="37.04334989583932" lon="-2.36393547967798"><ele>484.99999999999994</ele><time>2026-04-21T11:43:39Z</time></trkpt><trkpt lat="37.043400077359415" lon="-2.3640090531940343"><ele>485.0</ele><time>2026-04-21T11:43:40Z</time></trkpt><trkpt lat="37.043441837904766" lon="-2.3640917162517896"><ele>483.66666666666663</ele><time>2026-04-21T11:43:41Z</time></trkpt><trkpt lat="37.043461191377006" lon="-2.3641956166885527"><ele>482.3333333333333</ele><time>2026-04-21T11:43:42Z</time></trkpt><trkpt lat="37.043480906395835" lon="-2.3643061769587845"><ele>481.0</ele><time>2026-04-21T11:43:43Z</time></trkpt><trkpt lat="37.0435111611898" lon="-2.3644056149158885"><ele>479.66666666666663</ele><time>2026-04-21T11:43:44Z</time></trkpt><trkpt lat="37.04355657185618" lon="-2.3645002405413846"><ele>478.3333333333333</ele><time>2026-04-21T11:43:45Z</time></trkpt><trkpt lat="37.043617636340215" lon="-2.3645846491248514"><ele>477.0</ele><time>2026-04-21T11:43:46Z</time></trkpt><trkpt lat="37.043686426158494" lon="-2.3646617897334252"><ele>476.40000000000003</ele><time>2026-04-21T11:43:47Z</time></trkpt><trkpt lat="37.043756788272624" lon="-2.3647386005995896"><ele>475.80000000000007</ele><time>2026-04-21T11:43:48Z</time></trkpt><trkpt lat="37.04383007090192" lon="-2.364818185301405"><ele>475.2</ele><time>2026-04-21T11:43:49Z</time></trkpt><trkpt lat="37.0439098347166" lon="-2.3648962575152095"><ele>474.6</ele><time>2026-04-21T11:43:50Z</time></trkpt><trkpt lat="37.043992594280375" lon="-2.36497093036133"><ele>474.0</ele><time>2026-04-21T11:43:51Z</time></trkpt><trkpt lat="37.04407676884265" lon="-2.3650396138499707"><ele>474.4</ele><time>2026-04-21T11:43:52Z</time></trkpt><trkpt lat="37.04415949307032" lon="-2.3651047591515986"><ele>474.79999999999995</ele><time>2026-04-21T11:43:53Z</time></trkpt><trkpt lat="37.04424141857776" lon="-2.3651798075509762"><ele>475.20000000000005</ele><time>2026-04-21T11:43:54Z</time></trkpt><trkpt lat="37.04432473859088" lon="-2.36526328618301"><ele>475.6</ele><time>2026-04-21T11:43:55Z</time></trkpt><trkpt lat="37.04440845187658" lon="-2.3653521808849036"><ele>476.0</ele><time>2026-04-21T11:43:56Z</time></trkpt><trkpt lat="37.04449693183121" lon="-2.365433215519163"><ele>476.0</ele><time>2026-04-21T11:43:57Z</time></trkpt><trkpt lat="37.04458512719436" lon="-2.365515484288842"><ele>476.0</ele><time>2026-04-21T11:43:58Z</time></trkpt><trkpt lat="37.04467972626507" lon="-2.365592728864172"><ele>476.0</ele><time>2026-04-21T11:43:59Z</time></trkpt><trkpt lat="37.04478001472944" lon="-2.3656676726918398"><ele>476.0</ele><time>2026-04-21T11:44:00Z</time></trkpt><trkpt lat="37.04488878535966" lon="-2.365737793786109"><ele>477.0</ele><time>2026-04-21T11:44:01Z</time></trkpt><trkpt lat="37.04499682603894" lon="-2.3658115312941264"><ele>478.0</ele><time>2026-04-21T11:44:02Z</time></trkpt><trkpt lat="37.045103732684986" lon="-2.3658809016653075"><ele>479.0</ele><time>2026-04-21T11:44:03Z</time></trkpt><trkpt lat="37.04520449521417" lon="-2.3659515456170346"><ele>480.0</ele><time>2026-04-21T11:44:04Z</time></trkpt><trkpt lat="37.04530144428144" lon="-2.366021667563472"><ele>480.0</ele><time>2026-04-21T11:44:05Z</time></trkpt><trkpt lat="37.04539487925244" lon="-2.3660826674550206"><ele>480.0</ele><time>2026-04-21T11:44:06Z</time></trkpt><trkpt lat="37.045481654389334" lon="-2.3661259096850644"><ele>480.0</ele><time>2026-04-21T11:44:07Z</time></trkpt><trkpt lat="37.04556803985481" lon="-2.3661461784665585"><ele>480.0</ele><time>2026-04-21T11:44:08Z</time></trkpt><trkpt lat="37.04565407107153" lon="-2.3661393922906386"><ele>480.0</ele><time>2026-04-21T11:44:09Z</time></trkpt><trkpt lat="37.04573786411338" lon="-2.3660938497161155"><ele>480.6666666666667</ele><time>2026-04-21T11:44:10Z</time></trkpt><trkpt lat="37.04581948461879" lon="-2.3660349816776423"><ele>481.33333333333337</ele><time>2026-04-21T11:44:11Z</time></trkpt><trkpt lat="37.04590002494808" lon="-2.365988091675916"><ele>482.0</ele><time>2026-04-21T11:44:12Z</time></trkpt><trkpt lat="37.04597737981267" lon="-2.365951467361131"><ele>482.6666666666667</ele><time>2026-04-21T11:44:13Z</time></trkpt><trkpt lat="37.04606041702002" lon="-2.3659488225833734"><ele>483.33333333333337</ele><time>2026-04-21T11:44:14Z</time></trkpt><trkpt lat="37.046147021482895" lon="-2.365967120610895"><ele>484.0</ele><time>2026-04-21T11:44:15Z</time></trkpt><trkpt lat="37.04622209720423" lon="-2.3660091915352526"><ele>484.00000000000006</ele><time>2026-04-21T11:44:16Z</time></trkpt><trkpt lat="37.04628375420103" lon="-2.366067243635163"><ele>484.0</ele><time>2026-04-21T11:44:17Z</time></trkpt><trkpt lat="37.046326631357225" lon="-2.3661496166682157"><ele>484.0</ele><time>2026-04-21T11:44:18Z</time></trkpt><trkpt lat="37.04634905874437" lon="-2.3662567536554"><ele>484.0</ele><time>2026-04-21T11:44:19Z</time></trkpt><trkpt lat="37.04638390680625" lon="-2.366372078427244"><ele>484.00000000000006</ele><time>2026-04-21T11:44:20Z</time></trkpt><trkpt lat="37.04643754535323" lon="-2.366483586688888"><ele>484.0</ele><time>2026-04-21T11:44:20.999Z</time></trkpt><trkpt lat="37.04649439778118" lon="-2.3665987811342415"><ele>483.50000000000006</ele><time>2026-04-21T11:44:21.999Z</time></trkpt><trkpt lat="37.04655640543805" lon="-2.366699375516185"><ele>483.0</ele><time>2026-04-21T11:44:22.999Z</time></trkpt><trkpt lat="37.046621024218474" lon="-2.366783116629233"><ele>482.5</ele><time>2026-04-21T11:44:23.999Z</time></trkpt><trkpt lat="37.04669484007137" lon="-2.3668383144079073"><ele>482.0</ele><time>2026-04-21T11:44:24.999Z</time></trkpt><trkpt lat="37.046779396325476" lon="-2.3668687415286445"><ele>481.50000000000006</ele><time>2026-04-21T11:44:25.999Z</time></trkpt><trkpt lat="37.04685809439909" lon="-2.3668921799303315"><ele>481.0</ele><time>2026-04-21T11:44:26.999Z</time></trkpt><trkpt lat="37.046927886004966" lon="-2.366921784106663"><ele>482.50000000000006</ele><time>2026-04-21T11:44:27.999Z</time></trkpt><trkpt lat="37.04697864332185" lon="-2.3669885285224574"><ele>484.0</ele><time>2026-04-21T11:44:28.999Z</time></trkpt><trkpt lat="37.04702464208182" lon="-2.3670713240412025"><ele>485.5</ele><time>2026-04-21T11:44:29.999Z</time></trkpt><trkpt lat="37.047047541369906" lon="-2.367178382753025"><ele>487.0</ele><time>2026-04-21T11:44:30.999Z</time></trkpt><trkpt lat="37.047059455901795" lon="-2.367294758374812"><ele>488.50000000000006</ele><time>2026-04-21T11:44:31.999Z</time></trkpt><trkpt lat="37.04707664511647" lon="-2.3674117125993903"><ele>490.0</ele><time>2026-04-21T11:44:32.999Z</time></trkpt><trkpt lat="37.04711499965368" lon="-2.3675121709961635"><ele>490.0</ele><time>2026-04-21T11:44:33.999Z</time></trkpt><trkpt lat="37.04716715142456" lon="-2.367594860307942"><ele>490.0</ele><time>2026-04-21T11:44:34.999Z</time></trkpt><trkpt lat="37.04721765189626" lon="-2.3676558504496947"><ele>490.0</ele><time>2026-04-21T11:44:35.999Z</time></trkpt><trkpt lat="37.04725140722783" lon="-2.3677989435365645"><ele>490.0</ele><time>2026-04-21T11:44:37.999Z</time></trkpt><trkpt lat="37.047229190809794" lon="-2.367931332843607"><ele>490.0</ele><time>2026-04-21T11:44:39.999Z</time></trkpt><trkpt lat="37.047118894815135" lon="-2.3679904837162113"><ele>490.33333333333337</ele><time>2026-04-21T11:44:41.999Z</time></trkpt><trkpt lat="37.047084530573756" lon="-2.3681229566487096"><ele>490.6666666666667</ele><time>2026-04-21T11:44:43.999Z</time></trkpt><trkpt lat="37.047119776651456" lon="-2.3682128444486334"><ele>491.0</ele><time>2026-04-21T11:44:44.999Z</time></trkpt><trkpt lat="37.04715691832098" lon="-2.3683135051281345"><ele>491.33333333333337</ele><time>2026-04-21T11:44:45.999Z</time></trkpt><trkpt lat="37.04718945990911" lon="-2.3684121246037133"><ele>491.6666666666667</ele><time>2026-04-21T11:44:46.999Z</time></trkpt><trkpt lat="37.047211361018896" lon="-2.368508568127616"><ele>492.0</ele><time>2026-04-21T11:44:47.999Z</time></trkpt><trkpt lat="37.047235539780374" lon="-2.368590532243632"><ele>492.00000000000006</ele><time>2026-04-21T11:44:48.999Z</time></trkpt><trkpt lat="37.047275266679804" lon="-2.3686551502383817"><ele>492.0</ele><time>2026-04-21T11:44:49.999Z</time></trkpt><trkpt lat="37.04732933118538" lon="-2.368698228255536"><ele>492.00000000000006</ele><time>2026-04-21T11:44:50.999Z</time></trkpt><trkpt lat="37.04738473182883" lon="-2.3687426174185084"><ele>492.00000000000006</ele><time>2026-04-21T11:44:51.999Z</time></trkpt><trkpt lat="37.04742267860653" lon="-2.368807352184335"><ele>492.0</ele><time>2026-04-21T11:44:52.999Z</time></trkpt><trkpt lat="37.04743341161919" lon="-2.3689084370282742"><ele>492.00000000000006</ele><time>2026-04-21T11:44:53.999Z</time></trkpt><trkpt lat="37.04742834355569" lon="-2.369032740698312"><ele>492.00000000000006</ele><time>2026-04-21T11:44:54.999Z</time></trkpt><trkpt lat="37.04741527239266" lon="-2.369157554115526"><ele>492.28571428571433</ele><time>2026-04-21T11:44:55.999Z</time></trkpt><trkpt lat="37.047412620528256" lon="-2.36926654622678"><ele>492.57142857142856</ele><time>2026-04-21T11:44:56.999Z</time></trkpt><trkpt lat="37.04742255224995" lon="-2.369357254234442"><ele>492.8571428571429</ele><time>2026-04-21T11:44:57.999Z</time></trkpt><trkpt lat="37.04744766016462" lon="-2.3694378692751363"><ele>493.14285714285717</ele><time>2026-04-21T11:44:58.999Z</time></trkpt><trkpt lat="37.04749301070889" lon="-2.3695040902003806"><ele>493.42857142857144</ele><time>2026-04-21T11:44:59.999Z</time></trkpt><trkpt lat="37.047550479320755" lon="-2.3695567871087864"><ele>493.7142857142857</ele><time>2026-04-21T11:45:00.999Z</time></trkpt><trkpt lat="37.047611219682025" lon="-2.369593520449116"><ele>494.0</ele><time>2026-04-21T11:45:01.999Z</time></trkpt><trkpt lat="37.047672031792324" lon="-2.369622865284388"><ele>493.99999999999994</ele><time>2026-04-21T11:45:02.999Z</time></trkpt><trkpt lat="37.047736388831936" lon="-2.369631369378271"><ele>494.0</ele><time>2026-04-21T11:45:03.999Z</time></trkpt><trkpt lat="37.04785574115175" lon="-2.3696148449052794"><ele>494.0</ele><time>2026-04-21T11:45:05.999Z</time></trkpt><trkpt lat="37.04793212469563" lon="-2.3695004631936625"><ele>494.0</ele><time>2026-04-21T11:45:07.999Z</time></trkpt><trkpt lat="37.0479748662174" lon="-2.369439158668096"><ele>493.99999999999994</ele><time>2026-04-21T11:45:08.999Z</time></trkpt><trkpt lat="37.04802596652666" lon="-2.369390551351792"><ele>494.0</ele><time>2026-04-21T11:45:09.999Z</time></trkpt><trkpt lat="37.04809249773632" lon="-2.369365956259013"><ele>494.0</ele><time>2026-04-21T11:45:10.999Z</time></trkpt><trkpt lat="37.04816323087947" lon="-2.369355376605034"><ele>494.0</ele><time>2026-04-21T11:45:11.999Z</time></trkpt><trkpt lat="37.04823073037832" lon="-2.369337692029821"><ele>494.0</ele><time>2026-04-21T11:45:12.999Z</time></trkpt><trkpt lat="37.04829290254832" lon="-2.3693136552973195"><ele>494.0</ele><time>2026-04-21T11:45:13.999Z</time></trkpt><trkpt lat="37.0483442333527" lon="-2.3692585222379807"><ele>494.0</ele><time>2026-04-21T11:45:14.999Z</time></trkpt><trkpt lat="37.04840014688304" lon="-2.36919701339484"><ele>494.0</ele><time>2026-04-21T11:45:15.999Z</time></trkpt><trkpt lat="37.04846423353153" lon="-2.3691447529281566"><ele>494.0</ele><time>2026-04-21T11:45:16.999Z</time></trkpt><trkpt lat="37.04853479400314" lon="-2.3690983146097593"><ele>494.14285714285717</ele><time>2026-04-21T11:45:17.999Z</time></trkpt><trkpt lat="37.048609069405025" lon="-2.3690733365821877"><ele>494.2857142857142</ele><time>2026-04-21T11:45:18.999Z</time></trkpt><trkpt lat="37.04868265101003" lon="-2.3690557179007348"><ele>494.4285714285714</ele><time>2026-04-21T11:45:19.999Z</time></trkpt><trkpt lat="37.048754540326165" lon="-2.3690405517635593"><ele>494.57142857142856</ele><time>2026-04-21T11:45:20.999Z</time></trkpt><trkpt lat="37.04882085880333" lon="-2.3690183362065422"><ele>494.71428571428567</ele><time>2026-04-21T11:45:21.999Z</time></trkpt><trkpt lat="37.04888555272163" lon="-2.3689987255471303"><ele>494.8571428571428</ele><time>2026-04-21T11:45:22.999Z</time></trkpt><trkpt lat="37.04894852810755" lon="-2.36898017174641"><ele>494.99999999999994</ele><time>2026-04-21T11:45:23.999Z</time></trkpt><trkpt lat="37.04901481271954" lon="-2.368967604361145"><ele>494.99999999999994</ele><time>2026-04-21T11:45:24.999Z</time></trkpt><trkpt lat="37.04908824095041" lon="-2.36897693450852"><ele>495.0</ele><time>2026-04-21T11:45:25.999Z</time></trkpt><trkpt lat="37.04916205118261" lon="-2.3689991539261714"><ele>494.99999999999994</ele><time>2026-04-21T11:45:26.999Z</time></trkpt><trkpt lat="37.049233266394424" lon="-2.369007997779112"><ele>494.99999999999994</ele><time>2026-04-21T11:45:27.999Z</time></trkpt><trkpt lat="37.04930176764774" lon="-2.3689983526999194"><ele>495.0</ele><time>2026-04-21T11:45:28.999Z</time></trkpt><trkpt lat="37.049370428133784" lon="-2.368981134137158"><ele>494.99999999999994</ele><time>2026-04-21T11:45:29.999Z</time></trkpt><trkpt lat="37.04944390595315" lon="-2.3689826545829846"><ele>494.99999999999994</ele><time>2026-04-21T11:45:30.999Z</time></trkpt><trkpt lat="37.049531770101325" lon="-2.3689980804925432"><ele>495.4</ele><time>2026-04-21T11:45:31.998Z</time></trkpt><trkpt lat="37.04962339972346" lon="-2.3690199675272"><ele>495.8</ele><time>2026-04-21T11:45:32.998Z</time></trkpt><trkpt lat="37.04971306437072" lon="-2.369040467644685"><ele>496.20000000000005</ele><time>2026-04-21T11:45:33.998Z</time></trkpt><trkpt lat="37.04980411307864" lon="-2.369059613652895"><ele>496.6</ele><time>2026-04-21T11:45:34.998Z</time></trkpt><trkpt lat="37.049897081710064" lon="-2.369067944750437"><ele>497.0</ele><time>2026-04-21T11:45:35.998Z</time></trkpt><trkpt lat="37.049990860235205" lon="-2.3690727627521007"><ele>497.8333333333333</ele><time>2026-04-21T11:45:36.998Z</time></trkpt><trkpt lat="37.05008058405873" lon="-2.3690760117121368"><ele>498.66666666666663</ele><time>2026-04-21T11:45:37.998Z</time></trkpt><trkpt lat="37.050167935341555" lon="-2.3690891124373787"><ele>499.5</ele><time>2026-04-21T11:45:38.998Z</time></trkpt><trkpt lat="37.05025499920403" lon="-2.3690946478042605"><ele>500.33333333333337</ele><time>2026-04-21T11:45:39.998Z</time></trkpt><trkpt lat="37.05034034392969" lon="-2.3691021825465266"><ele>501.1666666666667</ele><time>2026-04-21T11:45:40.998Z</time></trkpt><trkpt lat="37.05042114691304" lon="-2.369119166311364"><ele>502.0</ele><time>2026-04-21T11:45:41.998Z</time></trkpt><trkpt lat="37.050491160490495" lon="-2.369161179577275"><ele>502.0</ele><time>2026-04-21T11:45:42.998Z</time></trkpt><trkpt lat="37.05054610146906" lon="-2.3692472880252073"><ele>502.00000000000006</ele><time>2026-04-21T11:45:43.998Z</time></trkpt><trkpt lat="37.05058783416452" lon="-2.3693643891096774"><ele>502.00000000000006</ele><time>2026-04-21T11:45:44.998Z</time></trkpt><trkpt lat="37.05060975172607" lon="-2.3694724067953397"><ele>502.0</ele><time>2026-04-21T11:45:45.998Z</time></trkpt><trkpt lat="37.05063067309311" lon="-2.369586165535667"><ele>502.0</ele><time>2026-04-21T11:45:46.998Z</time></trkpt><trkpt lat="37.05066263805942" lon="-2.3697057530500674"><ele>501.6</ele><time>2026-04-21T11:45:47.998Z</time></trkpt><trkpt lat="37.05069737188103" lon="-2.3698051262552218"><ele>501.20000000000005</ele><time>2026-04-21T11:45:48.998Z</time></trkpt><trkpt lat="37.0507361210121" lon="-2.369899184583514"><ele>500.8</ele><time>2026-04-21T11:45:49.998Z</time></trkpt><trkpt lat="37.05077924908716" lon="-2.3699844505801746"><ele>500.4</ele><time>2026-04-21T11:45:50.998Z</time></trkpt><trkpt lat="37.05085347665549" lon="-2.3700962874007248"><ele>500.0</ele><time>2026-04-21T11:45:52.998Z</time></trkpt><trkpt lat="37.050928472518336" lon="-2.3701864381835223"><ele>499.99999999999994</ele><time>2026-04-21T11:45:54.998Z</time></trkpt><trkpt lat="37.05100037198842" lon="-2.370281568504108"><ele>500.0</ele><time>2026-04-21T11:45:56.998Z</time></trkpt><trkpt lat="37.05095892287698" lon="-2.370376300678754"><ele>500.0</ele><time>2026-04-21T11:45:58.998Z</time></trkpt><trkpt lat="37.0508840889877" lon="-2.370411462300799"><ele>500.0</ele><time>2026-04-21T11:45:59.998Z</time></trkpt><trkpt lat="37.05081901399183" lon="-2.3704513336953177"><ele>499.99999999999994</ele><time>2026-04-21T11:46:00.998Z</time></trkpt><trkpt lat="37.050743515558594" lon="-2.3704941224555554"><ele>500.0</ele><time>2026-04-21T11:46:01.998Z</time></trkpt><trkpt lat="37.05068184172761" lon="-2.3705391451001083"><ele>499.49999999999994</ele><time>2026-04-21T11:46:02.998Z</time></trkpt><trkpt lat="37.050576909773504" lon="-2.370603882426985"><ele>499.0</ele><time>2026-04-21T11:46:04.998Z</time></trkpt><trkpt lat="37.05051671400417" lon="-2.3705806088210313"><ele>498.5</ele><time>2026-04-21T11:46:28.998Z</time></trkpt><trkpt lat="37.05043420229546" lon="-2.3705938716715274"><ele>498.0</ele><time>2026-04-21T11:46:31.998Z</time></trkpt><trkpt lat="37.05036039672738" lon="-2.3706218196879747"><ele>497.49999999999994</ele><time>2026-04-21T11:46:36.998Z</time></trkpt><trkpt lat="37.050316145926786" lon="-2.3706902783654735"><ele>497.0</ele><time>2026-04-21T11:46:42.998Z</time></trkpt><trkpt lat="37.05030786080665" lon="-2.3707716875052633"><ele>496.99999999999994</ele><time>2026-04-21T11:46:45.997Z</time></trkpt><trkpt lat="37.05026956487114" lon="-2.370693923796363"><ele>497.0</ele><time>2026-04-21T11:47:56.997Z</time></trkpt><trkpt lat="37.05033789023081" lon="-2.370607889918259"><ele>497.0</ele><time>2026-04-21T11:47:59.996Z</time></trkpt><trkpt lat="37.05042596492552" lon="-2.370577599738867"><ele>497.0</ele><time>2026-04-21T11:48:01.996Z</time></trkpt><trkpt lat="37.05051704050885" lon="-2.3705814920010306"><ele>496.99999999999994</ele><time>2026-04-21T11:48:03.996Z</time></trkpt><trkpt lat="37.050580912421296" lon="-2.3705707411226924"><ele>497.0</ele><time>2026-04-21T11:48:05.996Z</time></trkpt><trkpt lat="37.05065976943569" lon="-2.3705471269378298"><ele>497.6</ele><time>2026-04-21T11:48:19.996Z</time></trkpt><trkpt lat="37.05070376348144" lon="-2.370480453547737"><ele>498.20000000000005</ele><time>2026-04-21T11:48:21.996Z</time></trkpt><trkpt lat="37.050797250425575" lon="-2.37042093925494"><ele>498.8</ele><time>2026-04-21T11:48:23.996Z</time></trkpt><trkpt lat="37.050893110262734" lon="-2.3703695841059877"><ele>499.4</ele><time>2026-04-21T11:48:25.996Z</time></trkpt><trkpt lat="37.05096274070332" lon="-2.3702914465088907"><ele>500.0</ele><time>2026-04-21T11:48:27.996Z</time></trkpt><trkpt lat="37.05097101590977" lon="-2.3701902129626946"><ele>499.99999999999994</ele><time>2026-04-21T11:48:29.996Z</time></trkpt><trkpt lat="37.05091244944728" lon="-2.370100384580396"><ele>500.0</ele><time>2026-04-21T11:48:31.996Z</time></trkpt><trkpt lat="37.05086391145561" lon="-2.3700484360079743"><ele>500.0</ele><time>2026-04-21T11:48:32.996Z</time></trkpt><trkpt lat="37.05081414474335" lon="-2.369990530283992"><ele>500.0</ele><time>2026-04-21T11:48:33.996Z</time></trkpt><trkpt lat="37.050769743091806" lon="-2.3699272864922847"><ele>499.99999999999994</ele><time>2026-04-21T11:48:34.996Z</time></trkpt><trkpt lat="37.05073151755408" lon="-2.3698634150006606"><ele>500.0</ele><time>2026-04-21T11:48:35.996Z</time></trkpt><trkpt lat="37.05067399032173" lon="-2.3697286899905645"><ele>500.3333333333333</ele><time>2026-04-21T11:48:37.996Z</time></trkpt><trkpt lat="37.0506565535918" lon="-2.3696517535654227"><ele>500.66666666666663</ele><time>2026-04-21T11:48:38.996Z</time></trkpt><trkpt lat="37.05062161047799" lon="-2.3695206303716905"><ele>501.0</ele><time>2026-04-21T11:48:40.996Z</time></trkpt><trkpt lat="37.05059172832996" lon="-2.369437464777835"><ele>501.33333333333337</ele><time>2026-04-21T11:48:42.996Z</time></trkpt><trkpt lat="37.05056994978445" lon="-2.3693623617328106"><ele>501.6666666666667</ele><time>2026-04-21T11:48:45.996Z</time></trkpt><trkpt lat="37.050636411040955" lon="-2.3693644552301585"><ele>502.0</ele><time>2026-04-21T11:49:01.996Z</time></trkpt><trkpt lat="37.05068706711467" lon="-2.3694648070584656"><ele>502.0</ele><time>2026-04-21T11:49:03.996Z</time></trkpt><trkpt lat="37.05075572961479" lon="-2.3695629373213034"><ele>502.00000000000006</ele><time>2026-04-21T11:49:05.996Z</time></trkpt><trkpt lat="37.050854484525665" lon="-2.3696089033117675"><ele>502.00000000000006</ele><time>2026-04-21T11:49:07.996Z</time></trkpt><trkpt lat="37.05095903000533" lon="-2.3696322318144096"><ele>502.0</ele><time>2026-04-21T11:49:09.996Z</time></trkpt><trkpt lat="37.05104494786859" lon="-2.369637002989611"><ele>502.0</ele><time>2026-04-21T11:49:11.996Z</time></trkpt><trkpt lat="37.051133443196875" lon="-2.369611289944824"><ele>501.1666666666667</ele><time>2026-04-21T11:49:14.995Z</time></trkpt><trkpt lat="37.05120515061944" lon="-2.3695649372520817"><ele>500.33333333333337</ele><time>2026-04-21T11:49:16.995Z</time></trkpt><trkpt lat="37.051286399131634" lon="-2.3695192969657564"><ele>499.5</ele><time>2026-04-21T11:49:18.995Z</time></trkpt><trkpt lat="37.0513710657559" lon="-2.3695042380513565"><ele>498.66666666666663</ele><time>2026-04-21T11:49:20.995Z</time></trkpt><trkpt lat="37.051452433949144" lon="-2.3694900455790897"><ele>497.8333333333333</ele><time>2026-04-21T11:49:22.995Z</time></trkpt><trkpt lat="37.051533378879654" lon="-2.3694219808512855"><ele>497.0</ele><time>2026-04-21T11:49:24.995Z</time></trkpt><trkpt lat="37.05160046052917" lon="-2.3693352392985183"><ele>494.20000000000005</ele><time>2026-04-21T11:49:26.995Z</time></trkpt><trkpt lat="37.051671391057994" lon="-2.3692567011769303"><ele>491.40000000000003</ele><time>2026-04-21T11:49:28.995Z</time></trkpt><trkpt lat="37.05172715698072" lon="-2.369159447970457"><ele>488.59999999999997</ele><time>2026-04-21T11:49:30.995Z</time></trkpt><trkpt lat="37.05179002380689" lon="-2.3690510636259914"><ele>485.79999999999995</ele><time>2026-04-21T11:49:32.995Z</time></trkpt><trkpt lat="37.0518685581113" lon="-2.3689525911703866"><ele>483.0</ele><time>2026-04-21T11:49:34.995Z</time></trkpt><trkpt lat="37.05196476159065" lon="-2.368870282802724"><ele>483.0</ele><time>2026-04-21T11:49:36.995Z</time></trkpt><trkpt lat="37.05202726447961" lon="-2.3688561508974515"><ele>483.0</ele><time>2026-04-21T11:49:37.995Z</time></trkpt><trkpt lat="37.0520944076014" lon="-2.3688453604751487"><ele>483.0</ele><time>2026-04-21T11:49:38.995Z</time></trkpt><trkpt lat="37.05215892185976" lon="-2.3688474824655783"><ele>483.0</ele><time>2026-04-21T11:49:39.995Z</time></trkpt><trkpt lat="37.052234087761974" lon="-2.3688598019084757"><ele>483.0</ele><time>2026-04-21T11:49:40.995Z</time></trkpt><trkpt lat="37.052308724401186" lon="-2.368898067437167"><ele>483.0</ele><time>2026-04-21T11:49:41.995Z</time></trkpt><trkpt lat="37.05237886724627" lon="-2.368949214987521"><ele>483.0</ele><time>2026-04-21T11:49:42.995Z</time></trkpt><trkpt lat="37.05244528351598" lon="-2.368998710460648"><ele>481.57142857142856</ele><time>2026-04-21T11:49:43.995Z</time></trkpt><trkpt lat="37.05250529571674" lon="-2.369033898343656"><ele>480.1428571428571</ele><time>2026-04-21T11:49:44.995Z</time></trkpt><trkpt lat="37.05258118521735" lon="-2.369056373839671"><ele>478.7142857142857</ele><time>2026-04-21T11:49:45.995Z</time></trkpt><trkpt lat="37.05265868589279" lon="-2.369060843644896"><ele>477.2857142857143</ele><time>2026-04-21T11:49:46.995Z</time></trkpt><trkpt lat="37.05273607051654" lon="-2.3690519491853888"><ele>475.85714285714283</ele><time>2026-04-21T11:49:47.995Z</time></trkpt><trkpt lat="37.05280738699377" lon="-2.369034488538479"><ele>474.42857142857144</ele><time>2026-04-21T11:49:48.995Z</time></trkpt><trkpt lat="37.05287665484393" lon="-2.3690174059716367"><ele>473.0</ele><time>2026-04-21T11:49:49.995Z</time></trkpt><trkpt lat="37.053004405973965" lon="-2.3689892787053184"><ele>472.99999999999994</ele><time>2026-04-21T11:49:51.995Z</time></trkpt><trkpt lat="37.053106195389496" lon="-2.3688956148377858"><ele>473.0</ele><time>2026-04-21T11:49:53.995Z</time></trkpt><trkpt lat="37.05314260231854" lon="-2.368827320766109"><ele>473.0</ele><time>2026-04-21T11:49:54.995Z</time></trkpt><trkpt lat="37.053197374090864" lon="-2.36877327686542"><ele>473.0</ele><time>2026-04-21T11:49:55.995Z</time></trkpt><trkpt lat="37.05325837047839" lon="-2.368729878110742"><ele>472.99999999999994</ele><time>2026-04-21T11:49:56.995Z</time></trkpt><trkpt lat="37.053323479231466" lon="-2.3687135880766714"><ele>473.0</ele><time>2026-04-21T11:49:57.995Z</time></trkpt><trkpt lat="37.053398562879934" lon="-2.368694939165835"><ele>472.2</ele><time>2026-04-21T11:49:58.995Z</time></trkpt><trkpt lat="37.0534776840359" lon="-2.3686740051243516"><ele>471.4</ele><time>2026-04-21T11:49:59.995Z</time></trkpt><trkpt lat="37.05358861188922" lon="-2.3686559602251456"><ele>470.59999999999997</ele><time>2026-04-21T11:50:01.995Z</time></trkpt><trkpt lat="37.05367997647629" lon="-2.368640763974124"><ele>469.79999999999995</ele><time>2026-04-21T11:50:03.995Z</time></trkpt><trkpt lat="37.05377329314444" lon="-2.3686453154238696"><ele>469.0</ele><time>2026-04-21T11:50:05.995Z</time></trkpt><trkpt lat="37.05384975178647" lon="-2.3686536160396807"><ele>469.00000000000006</ele><time>2026-04-21T11:50:07.995Z</time></trkpt><trkpt lat="37.05392877769094" lon="-2.368656326680815"><ele>469.0</ele><time>2026-04-21T11:50:09.995Z</time></trkpt><trkpt lat="37.05403056449506" lon="-2.3686773672345773"><ele>469.0</ele><time>2026-04-21T11:50:11.995Z</time></trkpt><trkpt lat="37.05410837799624" lon="-2.3686955538093253"><ele>469.0</ele><time>2026-04-21T11:50:13.995Z</time></trkpt><trkpt lat="37.05416698539796" lon="-2.3687849407827106"><ele>469.00000000000006</ele><time>2026-04-21T11:50:15.995Z</time></trkpt><trkpt lat="37.054200503410314" lon="-2.3688838655952"><ele>469.0</ele><time>2026-04-21T11:50:17.995Z</time></trkpt><trkpt lat="37.05422670759524" lon="-2.369021486867056"><ele>468.4</ele><time>2026-04-21T11:50:19.995Z</time></trkpt><trkpt lat="37.05426134835537" lon="-2.3691301577629145"><ele>467.79999999999995</ele><time>2026-04-21T11:50:21.995Z</time></trkpt><trkpt lat="37.05428831729282" lon="-2.369230467435674"><ele>467.20000000000005</ele><time>2026-04-21T11:50:23.995Z</time></trkpt><trkpt lat="37.05433580121551" lon="-2.369341802469119"><ele>466.6</ele><time>2026-04-21T11:50:25.994Z</time></trkpt><trkpt lat="37.054389848989786" lon="-2.369433213815532"><ele>466.0</ele><time>2026-04-21T11:50:27.994Z</time></trkpt><trkpt lat="37.05445923887269" lon="-2.3694931884948955"><ele>466.0</ele><time>2026-04-21T11:50:29.994Z</time></trkpt><trkpt lat="37.05453925438586" lon="-2.369557722263301"><ele>466.0</ele><time>2026-04-21T11:50:31.994Z</time></trkpt><trkpt lat="37.054625735074275" lon="-2.369625773613029"><ele>466.0</ele><time>2026-04-21T11:50:33.994Z</time></trkpt><trkpt lat="37.054689121723854" lon="-2.3696957683668183"><ele>466.0</ele><time>2026-04-21T11:50:35.994Z</time></trkpt><trkpt lat="37.054759251633456" lon="-2.3697853050628037"><ele>466.0</ele><time>2026-04-21T11:50:38.001Z</time></trkpt><trkpt lat="37.05484127768895" lon="-2.3698823917172294"><ele>467.6666666666667</ele><time>2026-04-21T11:50:40.001Z</time></trkpt><trkpt lat="37.054924201259034" lon="-2.3699171328986033"><ele>469.33333333333337</ele><time>2026-04-21T11:50:42.001Z</time></trkpt><trkpt lat="37.05501701664706" lon="-2.369942975972014"><ele>471.0</ele><time>2026-04-21T11:50:44.001Z</time></trkpt><trkpt lat="37.05510769418685" lon="-2.3699680424279173"><ele>472.66666666666663</ele><time>2026-04-21T11:50:46.001Z</time></trkpt><trkpt lat="37.05520211907608" lon="-2.3700330494429482"><ele>474.3333333333333</ele><time>2026-04-21T11:50:48.001Z</time></trkpt><trkpt lat="37.05525552792517" lon="-2.3700807307295744"><ele>476.0</ele><time>2026-04-21T11:50:49.001Z</time></trkpt><trkpt lat="37.05530541253106" lon="-2.3701299563560023"><ele>471.4</ele><time>2026-04-21T11:50:50.001Z</time></trkpt><trkpt lat="37.055413343795045" lon="-2.3702148604980864"><ele>466.8</ele><time>2026-04-21T11:50:52.001Z</time></trkpt><trkpt lat="37.05546936301064" lon="-2.3702652221013225"><ele>462.19999999999993</ele><time>2026-04-21T11:50:53.001Z</time></trkpt><trkpt lat="37.05553841165812" lon="-2.3703063004331257"><ele>457.59999999999997</ele><time>2026-04-21T11:50:54Z</time></trkpt><trkpt lat="37.055595353602655" lon="-2.3703560453721453"><ele>453.0</ele><time>2026-04-21T11:50:55Z</time></trkpt><trkpt lat="37.05569382674347" lon="-2.370430943650535"><ele>451.0</ele><time>2026-04-21T11:50:57Z</time></trkpt><trkpt lat="37.05579341355847" lon="-2.370508448408585"><ele>449.0</ele><time>2026-04-21T11:50:59Z</time></trkpt><trkpt lat="37.055878469642536" lon="-2.3705969605442316"><ele>447.0</ele><time>2026-04-21T11:51:01Z</time></trkpt><trkpt lat="37.05592767322307" lon="-2.370648389224625"><ele>445.0</ele><time>2026-04-21T11:51:02Z</time></trkpt><trkpt lat="37.05597974484145" lon="-2.3707041443680303"><ele>443.0</ele><time>2026-04-21T11:51:03Z</time></trkpt><trkpt lat="37.05603095747719" lon="-2.370750272359107"><ele>441.0</ele><time>2026-04-21T11:51:04Z</time></trkpt><trkpt lat="37.056084896559256" lon="-2.3707978291938514"><ele>439.8</ele><time>2026-04-21T11:51:05Z</time></trkpt><trkpt lat="37.05614114342958" lon="-2.3708361626336902"><ele>438.6</ele><time>2026-04-21T11:51:06Z</time></trkpt><trkpt lat="37.05624552112433" lon="-2.370888488763545"><ele>437.4</ele><time>2026-04-21T11:51:08Z</time></trkpt><trkpt lat="37.056354346007744" lon="-2.370934581389424"><ele>436.2</ele><time>2026-04-21T11:51:10Z</time></trkpt><trkpt lat="37.056435779110494" lon="-2.37102918560222"><ele>435.0</ele><time>2026-04-21T11:51:12Z</time></trkpt><trkpt lat="37.05643880139575" lon="-2.3711663221250263"><ele>435.0</ele><time>2026-04-21T11:51:14Z</time></trkpt><trkpt lat="37.056425444124" lon="-2.371268408611617"><ele>435.0</ele><time>2026-04-21T11:51:15Z</time></trkpt><trkpt lat="37.056419053765374" lon="-2.371371097285165"><ele>435.0</ele><time>2026-04-21T11:51:16Z</time></trkpt><trkpt lat="37.05642832395669" lon="-2.371471339933996"><ele>435.0</ele><time>2026-04-21T11:51:17Z</time></trkpt><trkpt lat="37.05645027391488" lon="-2.371563942583867"><ele>435.0</ele><time>2026-04-21T11:51:18Z</time></trkpt><trkpt lat="37.05648709958074" lon="-2.3716513566743616"><ele>435.0</ele><time>2026-04-21T11:51:19Z</time></trkpt><trkpt lat="37.0565219356395" lon="-2.371725552885091"><ele>434.6666666666667</ele><time>2026-04-21T11:51:20Z</time></trkpt><trkpt lat="37.05654552314777" lon="-2.3718659033103893"><ele>434.33333333333337</ele><time>2026-04-21T11:51:22Z</time></trkpt><trkpt lat="37.05651967423299" lon="-2.3719397567967064"><ele>434.0</ele><time>2026-04-21T11:51:23Z</time></trkpt><trkpt lat="37.056468864806774" lon="-2.372013311668624"><ele>433.6666666666667</ele><time>2026-04-21T11:51:24Z</time></trkpt><trkpt lat="37.05641702949139" lon="-2.3721068178587585"><ele>433.33333333333337</ele><time>2026-04-21T11:51:25Z</time></trkpt><trkpt lat="37.05637189584894" lon="-2.3722136355093446"><ele>433.0</ele><time>2026-04-21T11:51:26Z</time></trkpt><trkpt lat="37.05633394126927" lon="-2.372327052946326"><ele>432.1666666666667</ele><time>2026-04-21T11:51:27Z</time></trkpt><trkpt lat="37.05631670385029" lon="-2.3724387033843275"><ele>431.33333333333337</ele><time>2026-04-21T11:51:28Z</time></trkpt><trkpt lat="37.05630303174137" lon="-2.3725462839167326"><ele>430.5</ele><time>2026-04-21T11:51:29Z</time></trkpt><trkpt lat="37.05628562406395" lon="-2.372650477297884"><ele>429.66666666666663</ele><time>2026-04-21T11:51:30Z</time></trkpt><trkpt lat="37.05625793395956" lon="-2.372742752509701"><ele>428.8333333333333</ele><time>2026-04-21T11:51:31Z</time></trkpt><trkpt lat="37.05621420401954" lon="-2.372828337578084"><ele>428.0</ele><time>2026-04-21T11:51:32Z</time></trkpt><trkpt lat="37.05615033023192" lon="-2.3728938810867004"><ele>428.0</ele><time>2026-04-21T11:51:33Z</time></trkpt><trkpt lat="37.05604766101382" lon="-2.3729138576360076"><ele>427.99999999999994</ele><time>2026-04-21T11:51:34Z</time></trkpt><trkpt lat="37.0559465275788" lon="-2.372939843763514"><ele>427.99999999999994</ele><time>2026-04-21T11:51:35Z</time></trkpt><trkpt lat="37.055842419139516" lon="-2.372978550093569"><ele>428.0</ele><time>2026-04-21T11:51:36Z</time></trkpt><trkpt lat="37.05575800456701" lon="-2.3730369805225084"><ele>428.0</ele><time>2026-04-21T11:51:37Z</time></trkpt><trkpt lat="37.05568557062967" lon="-2.373110380481272"><ele>428.49999999999994</ele><time>2026-04-21T11:51:38Z</time></trkpt><trkpt lat="37.05562484228249" lon="-2.3731776679521706"><ele>429.0</ele><time>2026-04-21T11:51:39Z</time></trkpt><trkpt lat="37.05555313441422" lon="-2.3732548419587745"><ele>429.5</ele><time>2026-04-21T11:51:40Z</time></trkpt><trkpt lat="37.05548244747955" lon="-2.3733350132805113"><ele>430.0</ele><time>2026-04-21T11:51:41Z</time></trkpt><trkpt lat="37.05542622784333" lon="-2.373406346293808"><ele>430.49999999999994</ele><time>2026-04-21T11:51:42Z</time></trkpt><trkpt lat="37.055382399041385" lon="-2.373480000959417"><ele>431.0</ele><time>2026-04-21T11:51:43Z</time></trkpt><trkpt lat="37.05535983172663" lon="-2.373559789325319"><ele>430.99999999999994</ele><time>2026-04-21T11:51:44Z</time></trkpt><trkpt lat="37.05534518025258" lon="-2.3736442730141376"><ele>431.0</ele><time>2026-04-21T11:51:45Z</time></trkpt><trkpt lat="37.05532687265321" lon="-2.373753862941187"><ele>431.0</ele><time>2026-04-21T11:51:47Z</time></trkpt><trkpt lat="37.05529213416041" lon="-2.3738357121374203"><ele>431.0</ele><time>2026-04-21T11:52:20.999Z</time></trkpt><trkpt lat="37.05536874020215" lon="-2.3738667991970237"><ele>430.99999999999994</ele><time>2026-04-21T11:52:37.999Z</time></trkpt><trkpt lat="37.05544135455274" lon="-2.373959317674057"><ele>431.0</ele><time>2026-04-21T11:52:39.999Z</time></trkpt><trkpt lat="37.05550443578183" lon="-2.3740564535281377"><ele>430.2857142857143</ele><time>2026-04-21T11:52:41.999Z</time></trkpt><trkpt lat="37.055554105539834" lon="-2.374145393655403"><ele>429.57142857142856</ele><time>2026-04-21T11:52:43.999Z</time></trkpt><trkpt lat="37.05561343714283" lon="-2.374199371321783"><ele>428.85714285714283</ele><time>2026-04-21T11:52:45.999Z</time></trkpt><trkpt lat="37.0556792609186" lon="-2.374230098984448"><ele>428.1428571428571</ele><time>2026-04-21T11:52:48.999Z</time></trkpt><trkpt lat="37.05574455861407" lon="-2.3742427578019174"><ele>427.42857142857144</ele><time>2026-04-21T11:52:56.999Z</time></trkpt><trkpt lat="37.05581012696359" lon="-2.3741969425778273"><ele>426.71428571428567</ele><time>2026-04-21T11:52:59.999Z</time></trkpt><trkpt lat="37.055820992600665" lon="-2.374112605293605"><ele>426.0</ele><time>2026-04-21T11:53:02.999Z</time></trkpt><trkpt lat="37.055810819374045" lon="-2.374028318017745"><ele>425.8333333333333</ele><time>2026-04-21T11:53:05.998Z</time></trkpt><trkpt lat="37.05587321161979" lon="-2.3739466565914"><ele>425.66666666666663</ele><time>2026-04-21T11:53:08.998Z</time></trkpt><trkpt lat="37.05596292615735" lon="-2.3739393408281253"><ele>425.5</ele><time>2026-04-21T11:53:10.998Z</time></trkpt><trkpt lat="37.056029139371844" lon="-2.3739294792598753"><ele>425.3333333333333</ele><time>2026-04-21T11:53:12.998Z</time></trkpt><trkpt lat="37.05610599075506" lon="-2.3739173135856833"><ele>425.16666666666663</ele><time>2026-04-21T11:53:16.998Z</time></trkpt><trkpt lat="37.056192923261996" lon="-2.373898479217268"><ele>425.0</ele><time>2026-04-21T11:53:19.998Z</time></trkpt><trkpt lat="37.05626547875853" lon="-2.3739189088909893"><ele>425.0</ele><time>2026-04-21T11:53:21.998Z</time></trkpt><trkpt lat="37.05633453932093" lon="-2.373950706870748"><ele>425.0</ele><time>2026-04-21T11:53:24.998Z</time></trkpt><trkpt lat="37.056406757757536" lon="-2.373952321411514"><ele>425.0</ele><time>2026-04-21T11:53:27.998Z</time></trkpt><trkpt lat="37.05651664708072" lon="-2.373921043525882"><ele>425.0</ele><time>2026-04-21T11:54:36.996Z</time></trkpt><trkpt lat="37.056630370770456" lon="-2.3739648002413345"><ele>425.0</ele><time>2026-04-21T12:00:50.997Z</time></trkpt><trkpt lat="37.056644797229424" lon="-2.374067729048128"><ele>424.99999999999994</ele><time>2026-04-21T12:01:51.997Z</time></trkpt><trkpt lat="37.05662316919141" lon="-2.373976562215672"><ele>425.0</ele><time>2026-04-21T12:02:08.996Z</time></trkpt><trkpt lat="37.056564638838346" lon="-2.3739090008734327"><ele>425.0</ele><time>2026-04-21T12:02:11.996Z</time></trkpt><trkpt lat="37.056480370412004" lon="-2.373864204695268"><ele>425.0</ele><time>2026-04-21T12:02:14.996Z</time></trkpt><trkpt lat="37.056392273893664" lon="-2.373854954532661"><ele>424.99999999999994</ele><time>2026-04-21T12:02:17.996Z</time></trkpt><trkpt lat="37.056322389048304" lon="-2.3738806964571526"><ele>425.0</ele><time>2026-04-21T12:02:19.996Z</time></trkpt><trkpt lat="37.056243414430945" lon="-2.373926337291175"><ele>424.99999999999994</ele><time>2026-04-21T12:02:21.996Z</time></trkpt><trkpt lat="37.05615982578167" lon="-2.3739668660523496"><ele>425.0</ele><time>2026-04-21T12:02:23.996Z</time></trkpt><trkpt lat="37.05607866920662" lon="-2.373987437138696"><ele>425.0</ele><time>2026-04-21T12:02:25.996Z</time></trkpt><trkpt lat="37.055996041682484" lon="-2.373995132047267"><ele>425.0</ele><time>2026-04-21T12:02:27.996Z</time></trkpt><trkpt lat="37.05592947325542" lon="-2.374031087710259"><ele>424.99999999999994</ele><time>2026-04-21T12:02:29.996Z</time></trkpt><trkpt lat="37.0559223521282" lon="-2.374122095231844"><ele>425.0</ele><time>2026-04-21T12:02:32.996Z</time></trkpt><trkpt lat="37.05595122742868" lon="-2.3742212238709226"><ele>424.99999999999994</ele><time>2026-04-21T12:02:36.996Z</time></trkpt><trkpt lat="37.05588907458278" lon="-2.374285526144812"><ele>425.0</ele><time>2026-04-21T12:02:42.996Z</time></trkpt><trkpt lat="37.05581892621765" lon="-2.3742821357421793"><ele>425.0</ele><time>2026-04-21T12:02:45.996Z</time></trkpt><trkpt lat="37.055747189729296" lon="-2.37423442191527"><ele>425.0</ele><time>2026-04-21T12:02:48.996Z</time></trkpt><trkpt lat="37.05564838454671" lon="-2.3741523109401728"><ele>424.99999999999994</ele><time>2026-04-21T12:02:51.996Z</time></trkpt><trkpt lat="37.05559459308749" lon="-2.374085880002208"><ele>425.0</ele><time>2026-04-21T12:02:53.996Z</time></trkpt><trkpt lat="37.05552539557723" lon="-2.3740222053762268"><ele>425.16666666666663</ele><time>2026-04-21T12:02:55.996Z</time></trkpt><trkpt lat="37.055438112335786" lon="-2.3739194282090064"><ele>425.3333333333333</ele><time>2026-04-21T12:02:58.996Z</time></trkpt><trkpt lat="37.05537860231803" lon="-2.3738570930911393"><ele>425.5</ele><time>2026-04-21T12:03:00.996Z</time></trkpt><trkpt lat="37.05531063321447" lon="-2.373846254676076"><ele>425.66666666666663</ele><time>2026-04-21T12:03:02.996Z</time></trkpt><trkpt lat="37.05527647507242" lon="-2.373926957284267"><ele>425.8333333333333</ele><time>2026-04-21T12:03:04.996Z</time></trkpt><trkpt lat="37.055233687466256" lon="-2.3740314952884116"><ele>426.0</ele><time>2026-04-21T12:03:06.996Z</time></trkpt><trkpt lat="37.055123056975475" lon="-2.374212045311127"><ele>426.0</ele><time>2026-04-21T12:03:09.996Z</time></trkpt><trkpt lat="37.055085334931775" lon="-2.3742905254493434"><ele>426.0</ele><time>2026-04-21T12:03:10.996Z</time></trkpt><trkpt lat="37.05499681001537" lon="-2.3744582568889903"><ele>426.0</ele><time>2026-04-21T12:03:12.996Z</time></trkpt><trkpt lat="37.054882252070854" lon="-2.3746304570825263"><ele>426.0</ele><time>2026-04-21T12:03:14.996Z</time></trkpt><trkpt lat="37.05481564980707" lon="-2.37471204367582"><ele>425.0</ele><time>2026-04-21T12:03:15.996Z</time></trkpt><trkpt lat="37.054675223603965" lon="-2.3748517824414628"><ele>424.0</ele><time>2026-04-21T12:03:17.996Z</time></trkpt><trkpt lat="37.05458417444925" lon="-2.374887162699723"><ele>423.0</ele><time>2026-04-21T12:03:18.996Z</time></trkpt><trkpt lat="37.05447794911767" lon="-2.374914004343384"><ele>422.0</ele><time>2026-04-21T12:03:19.995Z</time></trkpt><trkpt lat="37.05436366167218" lon="-2.374935411587195"><ele>422.0</ele><time>2026-04-21T12:03:20.995Z</time></trkpt><trkpt lat="37.05414140862143" lon="-2.374992618087206"><ele>422.0</ele><time>2026-04-21T12:03:22.995Z</time></trkpt><trkpt lat="37.0539458141053" lon="-2.375055983603432"><ele>422.0</ele><time>2026-04-21T12:03:24.995Z</time></trkpt><trkpt lat="37.05385257758278" lon="-2.375098969640938"><ele>425.25</ele><time>2026-04-21T12:03:25.995Z</time></trkpt><trkpt lat="37.05376694457967" lon="-2.375165046900803"><ele>428.5</ele><time>2026-04-21T12:03:26.995Z</time></trkpt><trkpt lat="37.05360990857736" lon="-2.375325032544848"><ele>431.75</ele><time>2026-04-21T12:03:28.995Z</time></trkpt><trkpt lat="37.05353017097801" lon="-2.375405252165405"><ele>435.0</ele><time>2026-04-21T12:03:29.995Z</time></trkpt><trkpt lat="37.05345231553585" lon="-2.3754920083376825"><ele>434.25</ele><time>2026-04-21T12:03:30.995Z</time></trkpt><trkpt lat="37.05337870540196" lon="-2.3755785921305854"><ele>433.5</ele><time>2026-04-21T12:03:31.995Z</time></trkpt><trkpt lat="37.05324985705941" lon="-2.3757661561845516"><ele>432.75</ele><time>2026-04-21T12:03:33.995Z</time></trkpt><trkpt lat="37.05318431126953" lon="-2.375864835722532"><ele>432.0</ele><time>2026-04-21T12:03:34.995Z</time></trkpt><trkpt lat="37.05304421471014" lon="-2.376046788363669"><ele>432.0</ele><time>2026-04-21T12:03:36.995Z</time></trkpt><trkpt lat="37.052967962722406" lon="-2.376124147500601"><ele>432.0</ele><time>2026-04-21T12:03:37.995Z</time></trkpt><trkpt lat="37.052807105030546" lon="-2.3762669986278007"><ele>432.0</ele><time>2026-04-21T12:03:39.995Z</time></trkpt><trkpt lat="37.05273886090464" lon="-2.3763478369531765"><ele>432.0</ele><time>2026-04-21T12:03:40.995Z</time></trkpt><trkpt lat="37.05263909437359" lon="-2.3765497439904766"><ele>428.0</ele><time>2026-04-21T12:03:42.995Z</time></trkpt><trkpt lat="37.052611105453124" lon="-2.3766640772840337"><ele>424.0</ele><time>2026-04-21T12:03:43.995Z</time></trkpt><trkpt lat="37.05256265604069" lon="-2.3768866231264325"><ele>420.0</ele><time>2026-04-21T12:03:45.995Z</time></trkpt><trkpt lat="37.052548133084464" lon="-2.3770012315666658"><ele>416.0</ele><time>2026-04-21T12:03:46.995Z</time></trkpt><trkpt lat="37.052518393594276" lon="-2.377220091916664"><ele>415.4</ele><time>2026-04-21T12:03:48.995Z</time></trkpt><trkpt lat="37.05248980264634" lon="-2.377326934092094"><ele>414.8</ele><time>2026-04-21T12:03:49.995Z</time></trkpt><trkpt lat="37.05245689546658" lon="-2.377426571021646"><ele>414.2</ele><time>2026-04-21T12:03:50.995Z</time></trkpt><trkpt lat="37.05238754616564" lon="-2.3776218172715318"><ele>413.59999999999997</ele><time>2026-04-21T12:03:52.995Z</time></trkpt><trkpt lat="37.05235770751825" lon="-2.3777181093301283"><ele>413.0</ele><time>2026-04-21T12:03:53.995Z</time></trkpt><trkpt lat="37.052343343457316" lon="-2.3778229938390667"><ele>418.4</ele><time>2026-04-21T12:03:54.995Z</time></trkpt><trkpt lat="37.05233951779679" lon="-2.3779360846388484"><ele>423.79999999999995</ele><time>2026-04-21T12:03:55.995Z</time></trkpt><trkpt lat="37.052339752622736" lon="-2.3780444554946203"><ele>429.2</ele><time>2026-04-21T12:03:56.995Z</time></trkpt><trkpt lat="37.05234658168906" lon="-2.378149090780356"><ele>434.6</ele><time>2026-04-21T12:03:57.995Z</time></trkpt><trkpt lat="37.052366320644154" lon="-2.3782565419177097"><ele>440.0</ele><time>2026-04-21T12:03:58.995Z</time></trkpt><trkpt lat="37.052416229106605" lon="-2.378473802851973"><ele>432.5</ele><time>2026-04-21T12:04:00.995Z</time></trkpt><trkpt lat="37.052461855995254" lon="-2.378671811733242"><ele>425.0</ele><time>2026-04-21T12:04:02.995Z</time></trkpt><trkpt lat="37.052487886179726" lon="-2.3787603313426886"><ele>417.5</ele><time>2026-04-21T12:04:03.995Z</time></trkpt><trkpt lat="37.052534177522006" lon="-2.3789174113332345"><ele>410.0</ele><time>2026-04-21T12:04:05.995Z</time></trkpt><trkpt lat="37.05254236924864" lon="-2.3791426693296454"><ele>409.0</ele><time>2026-04-21T12:04:08.995Z</time></trkpt><trkpt lat="37.052530661514815" lon="-2.379299328293243"><ele>408.0</ele><time>2026-04-21T12:04:10.995Z</time></trkpt><trkpt lat="37.05251341156724" lon="-2.379383457337731"><ele>407.0</ele><time>2026-04-21T12:04:11.995Z</time></trkpt><trkpt lat="37.052481630120326" lon="-2.3794630907425383"><ele>406.0</ele><time>2026-04-21T12:04:12.995Z</time></trkpt><trkpt lat="37.0524045579939" lon="-2.3796071089124275"><ele>405.0</ele><time>2026-04-21T12:04:14.995Z</time></trkpt><trkpt lat="37.052324262686575" lon="-2.379749010697196"><ele>403.4</ele><time>2026-04-21T12:04:16.995Z</time></trkpt><trkpt lat="37.05228449118157" lon="-2.379824448161401"><ele>401.8</ele><time>2026-04-21T12:04:17.995Z</time></trkpt><trkpt lat="37.05224189173619" lon="-2.379898103468565"><ele>400.20000000000005</ele><time>2026-04-21T12:04:18.995Z</time></trkpt><trkpt lat="37.052194160228474" lon="-2.3799709333706187"><ele>398.6</ele><time>2026-04-21T12:04:19.995Z</time></trkpt><trkpt lat="37.05207464435862" lon="-2.3801348543577867"><ele>397.0</ele><time>2026-04-21T12:04:21.995Z</time></trkpt><trkpt lat="37.05200234479855" lon="-2.380207264370608"><ele>397.0</ele><time>2026-04-21T12:04:22.995Z</time></trkpt><trkpt lat="37.05186434742512" lon="-2.380352545643294"><ele>397.0</ele><time>2026-04-21T12:04:24.995Z</time></trkpt><trkpt lat="37.051807167945" lon="-2.3804396882194436"><ele>397.0</ele><time>2026-04-21T12:04:25.995Z</time></trkpt><trkpt lat="37.051730078842525" lon="-2.380644988637618"><ele>395.40000000000003</ele><time>2026-04-21T12:04:27.995Z</time></trkpt><trkpt lat="37.05169807007138" lon="-2.380749211038654"><ele>393.8</ele><time>2026-04-21T12:04:28.995Z</time></trkpt><trkpt lat="37.05162763848436" lon="-2.380935932884243"><ele>392.2</ele><time>2026-04-21T12:04:30.995Z</time></trkpt><trkpt lat="37.05158229133043" lon="-2.3810204447094683"><ele>390.6</ele><time>2026-04-21T12:04:31.995Z</time></trkpt><trkpt lat="37.05153815640841" lon="-2.3811105367226046"><ele>389.0</ele><time>2026-04-21T12:04:32.995Z</time></trkpt><trkpt lat="37.051487889323106" lon="-2.3811899470155904"><ele>388.66666666666663</ele><time>2026-04-21T12:04:33.995Z</time></trkpt><trkpt lat="37.05143877484992" lon="-2.3812704783077536"><ele>388.3333333333333</ele><time>2026-04-21T12:04:34.995Z</time></trkpt><trkpt lat="37.051383055564166" lon="-2.381349576009468"><ele>388.0</ele><time>2026-04-21T12:04:35.995Z</time></trkpt><trkpt lat="37.05131711520994" lon="-2.3814247382267366"><ele>387.66666666666663</ele><time>2026-04-21T12:04:36.995Z</time></trkpt><trkpt lat="37.051251773847824" lon="-2.3814945514008405"><ele>387.3333333333333</ele><time>2026-04-21T12:04:37.994Z</time></trkpt><trkpt lat="37.05118629628516" lon="-2.381550627634374"><ele>387.0</ele><time>2026-04-21T12:04:38.994Z</time></trkpt><trkpt lat="37.05113325071299" lon="-2.381606232168913"><ele>387.0</ele><time>2026-04-21T12:04:39.994Z</time></trkpt><trkpt lat="37.051074848945014" lon="-2.3817011093594536"><ele>387.0</ele><time>2026-04-21T12:04:41.994Z</time></trkpt><trkpt lat="37.05110304019738" lon="-2.3818269165918764"><ele>387.0</ele><time>2026-04-21T12:04:43.994Z</time></trkpt><trkpt lat="37.05115362828923" lon="-2.3818826065826277"><ele>387.0</ele><time>2026-04-21T12:04:44.994Z</time></trkpt><trkpt lat="37.05120977752465" lon="-2.3819237596813116"><ele>387.0</ele><time>2026-04-21T12:04:45.994Z</time></trkpt><trkpt lat="37.05132094871262" lon="-2.3819486878211436"><ele>387.0</ele><time>2026-04-21T12:04:47.994Z</time></trkpt><trkpt lat="37.05141937251435" lon="-2.381897870350093"><ele>387.0</ele><time>2026-04-21T12:04:50Z</time></trkpt><trkpt lat="37.05150759800282" lon="-2.381824620065342"><ele>387.0</ele><time>2026-04-21T12:04:52Z</time></trkpt><trkpt lat="37.051619971030746" lon="-2.3817515591738734"><ele>387.0</ele><time>2026-04-21T12:04:54Z</time></trkpt><trkpt lat="37.051734211154454" lon="-2.381692045234226"><ele>387.0</ele><time>2026-04-21T12:04:56Z</time></trkpt><trkpt lat="37.05182165894972" lon="-2.3816163925458134"><ele>387.0</ele><time>2026-04-21T12:04:58Z</time></trkpt><trkpt lat="37.05189509115894" lon="-2.381601060851069"><ele>387.0</ele><time>2026-04-21T12:05:01Z</time></trkpt><trkpt lat="37.051865387074685" lon="-2.3816945799026215"><ele>387.0</ele><time>2026-04-21T12:05:04Z</time></trkpt><trkpt lat="37.05175409327076" lon="-2.381769723436622"><ele>387.0</ele><time>2026-04-21T12:05:06Z</time></trkpt><trkpt lat="37.05163045668511" lon="-2.3818682605542327"><ele>387.0</ele><time>2026-04-21T12:05:08Z</time></trkpt><trkpt lat="37.051567654270315" lon="-2.3819204962223255"><ele>387.0</ele><time>2026-04-21T12:05:09Z</time></trkpt><trkpt lat="37.05143736371686" lon="-2.382016174817299"><ele>387.0</ele><time>2026-04-21T12:05:11Z</time></trkpt><trkpt lat="37.05131009959236" lon="-2.3820780341007906"><ele>387.0</ele><time>2026-04-21T12:05:13Z</time></trkpt><trkpt lat="37.05124846340613" lon="-2.3821046220774615"><ele>387.0</ele><time>2026-04-21T12:05:14Z</time></trkpt><trkpt lat="37.05115898759807" lon="-2.382202871617025"><ele>385.8333333333333</ele><time>2026-04-21T12:05:16Z</time></trkpt><trkpt lat="37.051126132157215" lon="-2.382275133972944"><ele>384.6666666666667</ele><time>2026-04-21T12:05:17Z</time></trkpt><trkpt lat="37.051090043748474" lon="-2.3823541838671227"><ele>383.5</ele><time>2026-04-21T12:05:18Z</time></trkpt><trkpt lat="37.051044781590356" lon="-2.382437068067885"><ele>382.33333333333337</ele><time>2026-04-21T12:05:19Z</time></trkpt><trkpt lat="37.05099307227202" lon="-2.3825261535587807"><ele>381.1666666666667</ele><time>2026-04-21T12:05:20Z</time></trkpt><trkpt lat="37.0509286928074" lon="-2.3826120792948013"><ele>380.0</ele><time>2026-04-21T12:05:21Z</time></trkpt><trkpt lat="37.0508568858804" lon="-2.382693127626824"><ele>379.6666666666667</ele><time>2026-04-21T12:05:22Z</time></trkpt><trkpt lat="37.050780465730064" lon="-2.3827682142718616"><ele>379.33333333333337</ele><time>2026-04-21T12:05:23Z</time></trkpt><trkpt lat="37.050701553245545" lon="-2.3828243573480643"><ele>379.0</ele><time>2026-04-21T12:05:24Z</time></trkpt><trkpt lat="37.05062214247021" lon="-2.3828740526020034"><ele>378.6666666666667</ele><time>2026-04-21T12:05:25Z</time></trkpt><trkpt lat="37.05054327513927" lon="-2.3829202065151165"><ele>378.3333333333333</ele><time>2026-04-21T12:05:26Z</time></trkpt><trkpt lat="37.050473812547644" lon="-2.3829735642546237"><ele>378.0</ele><time>2026-04-21T12:05:27Z</time></trkpt><trkpt lat="37.05042296531261" lon="-2.383032454616285"><ele>378.0</ele><time>2026-04-21T12:05:28Z</time></trkpt><trkpt lat="37.050380980598675" lon="-2.3831611677929536"><ele>378.0</ele><time>2026-04-21T12:05:30Z</time></trkpt><trkpt lat="37.05038941858715" lon="-2.383240446703112"><ele>378.0</ele><time>2026-04-21T12:05:31Z</time></trkpt><trkpt lat="37.05042764484907" lon="-2.383336584500218"><ele>378.0</ele><time>2026-04-21T12:05:32Z</time></trkpt><trkpt lat="37.05047841559522" lon="-2.383446114715151"><ele>378.0</ele><time>2026-04-21T12:05:33Z</time></trkpt><trkpt lat="37.05053514461307" lon="-2.3835568005232433"><ele>378.0</ele><time>2026-04-21T12:05:34Z</time></trkpt><trkpt lat="37.05059717466092" lon="-2.383659779761009"><ele>378.0</ele><time>2026-04-21T12:05:35Z</time></trkpt><trkpt lat="37.050661035886904" lon="-2.3837651215313356"><ele>378.0</ele><time>2026-04-21T12:05:36Z</time></trkpt><trkpt lat="37.050726029257305" lon="-2.383865096867287"><ele>378.0</ele><time>2026-04-21T12:05:37Z</time></trkpt><trkpt lat="37.05079862391325" lon="-2.3839639583804724"><ele>378.0</ele><time>2026-04-21T12:05:38Z</time></trkpt><trkpt lat="37.05087108268724" lon="-2.3840637271038854"><ele>381.0</ele><time>2026-04-21T12:05:39Z</time></trkpt><trkpt lat="37.050934709628905" lon="-2.3841599150519737"><ele>384.0</ele><time>2026-04-21T12:05:40Z</time></trkpt><trkpt lat="37.05098735071219" lon="-2.3842621448729395"><ele>387.0</ele><time>2026-04-21T12:05:41Z</time></trkpt><trkpt lat="37.051028758556974" lon="-2.3843814576856275"><ele>390.0</ele><time>2026-04-21T12:05:42Z</time></trkpt><trkpt lat="37.0510605381912" lon="-2.3845163708534884"><ele>393.0</ele><time>2026-04-21T12:05:43Z</time></trkpt><trkpt lat="37.051095513838135" lon="-2.384643651195942"><ele>393.59999999999997</ele><time>2026-04-21T12:05:44Z</time></trkpt><trkpt lat="37.05112980734725" lon="-2.38475390947536"><ele>394.2</ele><time>2026-04-21T12:05:45Z</time></trkpt><trkpt lat="37.05116748705839" lon="-2.38485547886983"><ele>394.8</ele><time>2026-04-21T12:05:46Z</time></trkpt><trkpt lat="37.05121015256103" lon="-2.3849557066522573"><ele>395.4</ele><time>2026-04-21T12:05:47Z</time></trkpt><trkpt lat="37.0512635071454" lon="-2.3850532186110587"><ele>396.0</ele><time>2026-04-21T12:05:48Z</time></trkpt><trkpt lat="37.051325063739775" lon="-2.3851478283243646"><ele>396.0</ele><time>2026-04-21T12:05:49Z</time></trkpt><trkpt lat="37.05138869015939" lon="-2.3852362680569206"><ele>396.0</ele><time>2026-04-21T12:05:50Z</time></trkpt><trkpt lat="37.05144743490636" lon="-2.3853174733466767"><ele>396.0</ele><time>2026-04-21T12:05:51Z</time></trkpt><trkpt lat="37.05149765123817" lon="-2.385400131469563"><ele>396.0</ele><time>2026-04-21T12:05:52Z</time></trkpt><trkpt lat="37.05153090230601" lon="-2.38549708696696"><ele>396.0</ele><time>2026-04-21T12:05:53Z</time></trkpt><trkpt lat="37.051544128942176" lon="-2.3856064984245773"><ele>396.0</ele><time>2026-04-21T12:05:54Z</time></trkpt><trkpt lat="37.051541161095685" lon="-2.385723124571047"><ele>396.5</ele><time>2026-04-21T12:05:54.999Z</time></trkpt><trkpt lat="37.05153460017208" lon="-2.3858363940050182"><ele>397.0</ele><time>2026-04-21T12:05:55.999Z</time></trkpt><trkpt lat="37.0515281187662" lon="-2.3859430696576864"><ele>397.5</ele><time>2026-04-21T12:05:56.999Z</time></trkpt><trkpt lat="37.051529246196885" lon="-2.3860442962181265"><ele>398.0</ele><time>2026-04-21T12:05:57.999Z</time></trkpt><trkpt lat="37.051534315400424" lon="-2.386146929669662"><ele>398.5</ele><time>2026-04-21T12:05:58.999Z</time></trkpt><trkpt lat="37.05153606510515" lon="-2.3862498552277764"><ele>399.0</ele><time>2026-04-21T12:05:59.999Z</time></trkpt><trkpt lat="37.051543227483634" lon="-2.386349368807514"><ele>400.1666666666667</ele><time>2026-04-21T12:06:00.999Z</time></trkpt><trkpt lat="37.05156647426712" lon="-2.386444088890488"><ele>401.33333333333337</ele><time>2026-04-21T12:06:01.999Z</time></trkpt><trkpt lat="37.05160912671953" lon="-2.3865314949347383"><ele>402.5</ele><time>2026-04-21T12:06:02.999Z</time></trkpt><trkpt lat="37.05166045856576" lon="-2.3866210772469487"><ele>403.6666666666667</ele><time>2026-04-21T12:06:03.999Z</time></trkpt><trkpt lat="37.051728536351995" lon="-2.3866916737165877"><ele>404.83333333333337</ele><time>2026-04-21T12:06:04.999Z</time></trkpt><trkpt lat="37.05179972540324" lon="-2.3867542206217847"><ele>406.0</ele><time>2026-04-21T12:06:05.999Z</time></trkpt><trkpt lat="37.051865658950746" lon="-2.3868219276743625"><ele>406.6666666666667</ele><time>2026-04-21T12:06:06.999Z</time></trkpt><trkpt lat="37.051926003896085" lon="-2.386893626746316"><ele>407.33333333333337</ele><time>2026-04-21T12:06:07.999Z</time></trkpt><trkpt lat="37.05197559687177" lon="-2.3869769374082943"><ele>408.0</ele><time>2026-04-21T12:06:08.999Z</time></trkpt><trkpt lat="37.052008245306375" lon="-2.3870712881674274"><ele>408.66666666666663</ele><time>2026-04-21T12:06:09.999Z</time></trkpt><trkpt lat="37.05203699489804" lon="-2.3871651075173204"><ele>409.3333333333333</ele><time>2026-04-21T12:06:10.999Z</time></trkpt><trkpt lat="37.05206036382051" lon="-2.387258792810652"><ele>410.0</ele><time>2026-04-21T12:06:11.999Z</time></trkpt><trkpt lat="37.05208995125241" lon="-2.387346947086042"><ele>409.99999999999994</ele><time>2026-04-21T12:06:12.999Z</time></trkpt><trkpt lat="37.05210975048542" lon="-2.3874312034798275"><ele>410.0</ele><time>2026-04-21T12:06:13.999Z</time></trkpt><trkpt lat="37.052127942223116" lon="-2.3875108710897464"><ele>410.0</ele><time>2026-04-21T12:06:14.999Z</time></trkpt><trkpt lat="37.052156241110616" lon="-2.3876447241956082"><ele>410.0</ele><time>2026-04-21T12:06:16.999Z</time></trkpt><trkpt lat="37.05217441745769" lon="-2.387726553319482"><ele>409.99999999999994</ele><time>2026-04-21T12:06:19.999Z</time></trkpt><trkpt lat="37.05224145229449" lon="-2.387755347177924"><ele>410.0</ele><time>2026-04-21T12:06:22.999Z</time></trkpt><trkpt lat="37.052324406742116" lon="-2.3877528267905257"><ele>410.0</ele><time>2026-04-21T12:06:24.999Z</time></trkpt><trkpt lat="37.052363353565994" lon="-2.387843010799905"><ele>410.0</ele><time>2026-04-21T12:06:26.999Z</time></trkpt><trkpt lat="37.05231154675318" lon="-2.387945756232057"><ele>410.0</ele><time>2026-04-21T12:06:28.999Z</time></trkpt><trkpt lat="37.0522532061013" lon="-2.388062874342973"><ele>410.0</ele><time>2026-04-21T12:06:30.999Z</time></trkpt><trkpt lat="37.05219346016378" lon="-2.3881901767523903"><ele>410.0</ele><time>2026-04-21T12:06:32.999Z</time></trkpt><trkpt lat="37.05214449614474" lon="-2.3883210235022476"><ele>410.0</ele><time>2026-04-21T12:06:34.999Z</time></trkpt><trkpt lat="37.052112672065924" lon="-2.3884485038605456"><ele>410.0</ele><time>2026-04-21T12:06:36.999Z</time></trkpt><trkpt lat="37.052068101136264" lon="-2.388564969122484"><ele>410.0</ele><time>2026-04-21T12:06:38.999Z</time></trkpt><trkpt lat="37.05202351751811" lon="-2.3886978660972082"><ele>410.0</ele><time>2026-04-21T12:06:40.999Z</time></trkpt><trkpt lat="37.05196524057881" lon="-2.3888125498720134"><ele>410.0</ele><time>2026-04-21T12:06:42.999Z</time></trkpt><trkpt lat="37.05190826780087" lon="-2.3889251288322475"><ele>409.99999999999994</ele><time>2026-04-21T12:06:44.999Z</time></trkpt><trkpt lat="37.05187154524675" lon="-2.389028202381835"><ele>410.0</ele><time>2026-04-21T12:06:46.999Z</time></trkpt><trkpt lat="37.05183569229073" lon="-2.389104953132205"><ele>410.0</ele><time>2026-04-21T12:06:49.999Z</time></trkpt><trkpt lat="37.05180557384227" lon="-2.3891909215463554"><ele>410.0</ele><time>2026-04-21T12:06:52.999Z</time></trkpt><trkpt lat="37.05178398612482" lon="-2.3892658692720627"><ele>409.99999999999994</ele><time>2026-04-21T12:06:54.999Z</time></trkpt><trkpt lat="37.051762230362456" lon="-2.389383262711376"><ele>410.0</ele><time>2026-04-21T12:06:56.999Z</time></trkpt><trkpt lat="37.05176065676601" lon="-2.3895164739616495"><ele>410.0</ele><time>2026-04-21T12:06:58.999Z</time></trkpt><trkpt lat="37.05175947218817" lon="-2.3896183871057293"><ele>410.0</ele><time>2026-04-21T12:07:00.999Z</time></trkpt><trkpt lat="37.0517503311653" lon="-2.389719970241512"><ele>410.0</ele><time>2026-04-21T12:07:02.999Z</time></trkpt><trkpt lat="37.05175263757532" lon="-2.3898089921932084"><ele>410.0</ele><time>2026-04-21T12:07:05.999Z</time></trkpt><trkpt lat="37.05175014695147" lon="-2.389902783515128"><ele>410.0</ele><time>2026-04-21T12:07:09.999Z</time></trkpt><trkpt lat="37.05171987040473" lon="-2.389983824070441"><ele>410.0</ele><time>2026-04-21T12:07:15.999Z</time></trkpt><trkpt lat="37.051782970892866" lon="-2.3900038265233254"><ele>410.0</ele><time>2026-04-21T12:07:18.999Z</time></trkpt><trkpt lat="37.051870106963555" lon="-2.3899655054795166"><ele>409.66666666666663</ele><time>2026-04-21T12:07:20.998Z</time></trkpt><trkpt lat="37.05195255277571" lon="-2.3899042981316967"><ele>409.3333333333333</ele><time>2026-04-21T12:07:22.998Z</time></trkpt><trkpt lat="37.05201470908289" lon="-2.389889096992294"><ele>409.0</ele><time>2026-04-21T12:07:23.998Z</time></trkpt><trkpt lat="37.05207781112667" lon="-2.3898615569386457"><ele>408.66666666666663</ele><time>2026-04-21T12:07:24.998Z</time></trkpt><trkpt lat="37.052142870413775" lon="-2.3898326840074375"><ele>408.3333333333333</ele><time>2026-04-21T12:07:25.998Z</time></trkpt><trkpt lat="37.05221437633564" lon="-2.389801420685165"><ele>408.0</ele><time>2026-04-21T12:07:26.998Z</time></trkpt><trkpt lat="37.05229217292539" lon="-2.3897523847630513"><ele>408.0</ele><time>2026-04-21T12:07:27.998Z</time></trkpt><trkpt lat="37.052371289001385" lon="-2.389712726411122"><ele>408.0</ele><time>2026-04-21T12:07:28.998Z</time></trkpt><trkpt lat="37.05245047257686" lon="-2.389696209426535"><ele>408.0</ele><time>2026-04-21T12:07:29.998Z</time></trkpt><trkpt lat="37.05251743421429" lon="-2.389672918954164"><ele>408.0</ele><time>2026-04-21T12:07:30.998Z</time></trkpt><trkpt lat="37.05258341661839" lon="-2.3896544260295443"><ele>408.0</ele><time>2026-04-21T12:07:31.998Z</time></trkpt><trkpt lat="37.052656368726446" lon="-2.389623562938644"><ele>408.0</ele><time>2026-04-21T12:07:32.998Z</time></trkpt><trkpt lat="37.05272804822886" lon="-2.389597334577293"><ele>409.0</ele><time>2026-04-21T12:07:33.998Z</time></trkpt><trkpt lat="37.05280367068498" lon="-2.3895699001774005"><ele>410.0</ele><time>2026-04-21T12:07:34.998Z</time></trkpt><trkpt lat="37.052889351245675" lon="-2.3895601262871757"><ele>411.0</ele><time>2026-04-21T12:07:35.998Z</time></trkpt><trkpt lat="37.05297227312905" lon="-2.389539221651641"><ele>412.0</ele><time>2026-04-21T12:07:36.998Z</time></trkpt><trkpt lat="37.05305715060607" lon="-2.3895069623624656"><ele>413.0</ele><time>2026-04-21T12:07:37.998Z</time></trkpt><trkpt lat="37.05314420099459" lon="-2.389469078972404"><ele>414.0</ele><time>2026-04-21T12:07:38.998Z</time></trkpt><trkpt lat="37.05323510506557" lon="-2.389432628405416"><ele>414.2</ele><time>2026-04-21T12:07:39.998Z</time></trkpt><trkpt lat="37.05332665089758" lon="-2.389407800156738"><ele>414.4</ele><time>2026-04-21T12:07:40.998Z</time></trkpt><trkpt lat="37.05342062227842" lon="-2.389392818452674"><ele>414.6</ele><time>2026-04-21T12:07:41.998Z</time></trkpt><trkpt lat="37.05351295589471" lon="-2.3893651850431628"><ele>414.8</ele><time>2026-04-21T12:07:42.998Z</time></trkpt><trkpt lat="37.05360833244624" lon="-2.3893408513829244"><ele>415.0</ele><time>2026-04-21T12:07:43.998Z</time></trkpt><trkpt lat="37.05370720271843" lon="-2.3893219134528567"><ele>415.0</ele><time>2026-04-21T12:07:44.998Z</time></trkpt><trkpt lat="37.05380733856632" lon="-2.3892834559814626"><ele>415.0</ele><time>2026-04-21T12:07:45.998Z</time></trkpt><trkpt lat="37.053913965008434" lon="-2.3892492229795925"><ele>415.0</ele><time>2026-04-21T12:07:46.998Z</time></trkpt><trkpt lat="37.05402026516159" lon="-2.3892096172372788"><ele>415.0</ele><time>2026-04-21T12:07:47.998Z</time></trkpt><trkpt lat="37.05413406216335" lon="-2.3891852687156643"><ele>415.0</ele><time>2026-04-21T12:07:48.998Z</time></trkpt><trkpt lat="37.05425162877261" lon="-2.389160293233523"><ele>415.5</ele><time>2026-04-21T12:07:49.998Z</time></trkpt><trkpt lat="37.05437022088833" lon="-2.3891168365521493"><ele>416.0</ele><time>2026-04-21T12:07:50.998Z</time></trkpt><trkpt lat="37.05448481556102" lon="-2.3890766141563873"><ele>416.5</ele><time>2026-04-21T12:07:51.998Z</time></trkpt><trkpt lat="37.05459129562668" lon="-2.389039800854518"><ele>417.0</ele><time>2026-04-21T12:07:52.998Z</time></trkpt><trkpt lat="37.0546891728034" lon="-2.389004656592791"><ele>417.0</ele><time>2026-04-21T12:07:53.998Z</time></trkpt><trkpt lat="37.05477819873123" lon="-2.388977754743653"><ele>417.0</ele><time>2026-04-21T12:07:54.998Z</time></trkpt><trkpt lat="37.05485618778518" lon="-2.3889516679041227"><ele>417.0</ele><time>2026-04-21T12:07:55.998Z</time></trkpt><trkpt lat="37.05492454041293" lon="-2.388935209191076"><ele>417.0</ele><time>2026-04-21T12:07:56.998Z</time></trkpt><trkpt lat="37.05498903043383" lon="-2.3889208796258146"><ele>417.0</ele><time>2026-04-21T12:07:57.998Z</time></trkpt><trkpt lat="37.05505545091246" lon="-2.388897913715012"><ele>417.0</ele><time>2026-04-21T12:07:58.998Z</time></trkpt><trkpt lat="37.05513328971609" lon="-2.388880596290287"><ele>417.6666666666667</ele><time>2026-04-21T12:07:59.998Z</time></trkpt><trkpt lat="37.05521617925309" lon="-2.3888533575511817"><ele>418.33333333333337</ele><time>2026-04-21T12:08:00.998Z</time></trkpt><trkpt lat="37.05529997139978" lon="-2.388827880596279"><ele>419.0</ele><time>2026-04-21T12:08:01.998Z</time></trkpt><trkpt lat="37.055384299809475" lon="-2.3888005259309892"><ele>419.6666666666667</ele><time>2026-04-21T12:08:02.998Z</time></trkpt><trkpt lat="37.05546609377904" lon="-2.3887661196400396"><ele>420.33333333333337</ele><time>2026-04-21T12:08:03.998Z</time></trkpt><trkpt lat="37.05554437300625" lon="-2.3887310167171827"><ele>421.0</ele><time>2026-04-21T12:08:04.998Z</time></trkpt><trkpt lat="37.05562101135221" lon="-2.3886917176911724"><ele>421.00000000000006</ele><time>2026-04-21T12:08:05.998Z</time></trkpt><trkpt lat="37.05569624307874" lon="-2.388641521582483"><ele>421.0</ele><time>2026-04-21T12:08:06.998Z</time></trkpt><trkpt lat="37.055767233111716" lon="-2.388601895930086"><ele>421.0</ele><time>2026-04-21T12:08:07.998Z</time></trkpt><trkpt lat="37.05582674628362" lon="-2.3885563458846164"><ele>421.0</ele><time>2026-04-21T12:08:08.998Z</time></trkpt><trkpt lat="37.055920799305525" lon="-2.3885281752897605"><ele>421.00000000000006</ele><time>2026-04-21T12:08:10.998Z</time></trkpt><trkpt lat="37.056004906767576" lon="-2.3886198055467953"><ele>421.0</ele><time>2026-04-21T12:08:12.998Z</time></trkpt><trkpt lat="37.05605075119676" lon="-2.3886983828982493"><ele>421.50000000000006</ele><time>2026-04-21T12:08:13.998Z</time></trkpt><trkpt lat="37.056098697846004" lon="-2.388773556081361"><ele>422.0</ele><time>2026-04-21T12:08:14.998Z</time></trkpt><trkpt lat="37.05614847092575" lon="-2.388851249118983"><ele>422.5</ele><time>2026-04-21T12:08:15.998Z</time></trkpt><trkpt lat="37.05620910090515" lon="-2.3889338235555293"><ele>423.0</ele><time>2026-04-21T12:08:16.998Z</time></trkpt><trkpt lat="37.056281208011754" lon="-2.389011564583063"><ele>423.50000000000006</ele><time>2026-04-21T12:08:17.998Z</time></trkpt><trkpt lat="37.05635104099224" lon="-2.389103351760156"><ele>424.0</ele><time>2026-04-21T12:08:18.998Z</time></trkpt><trkpt lat="37.056418933334925" lon="-2.389197069180204"><ele>424.00000000000006</ele><time>2026-04-21T12:08:19.998Z</time></trkpt><trkpt lat="37.056483471396966" lon="-2.3892832023766313"><ele>424.0</ele><time>2026-04-21T12:08:20.998Z</time></trkpt><trkpt lat="37.056548975594005" lon="-2.389363857227107"><ele>424.0</ele><time>2026-04-21T12:08:21.998Z</time></trkpt><trkpt lat="37.05660850153426" lon="-2.3894384657071215"><ele>424.0</ele><time>2026-04-21T12:08:22.998Z</time></trkpt><trkpt lat="37.05666673002437" lon="-2.3894913665869204"><ele>424.00000000000006</ele><time>2026-04-21T12:08:23.998Z</time></trkpt><trkpt lat="37.05671552934196" lon="-2.38954485494564"><ele>424.0</ele><time>2026-04-21T12:08:24.998Z</time></trkpt><trkpt lat="37.05680059372791" lon="-2.389634350904941"><ele>424.7142857142857</ele><time>2026-04-21T12:08:26.998Z</time></trkpt><trkpt lat="37.056841489397556" lon="-2.389711884096702"><ele>425.4285714285714</ele><time>2026-04-21T12:08:28.998Z</time></trkpt><trkpt lat="37.05688299020515" lon="-2.3897853954141577"><ele>426.1428571428571</ele><time>2026-04-21T12:08:31.998Z</time></trkpt><trkpt lat="37.05685765000983" lon="-2.389865924619515"><ele>426.8571428571429</ele><time>2026-04-21T12:08:33.998Z</time></trkpt><trkpt lat="37.05681171901885" lon="-2.3899270486098194"><ele>427.57142857142856</ele><time>2026-04-21T12:08:34.998Z</time></trkpt><trkpt lat="37.05676220642372" lon="-2.3900035561828123"><ele>428.2857142857143</ele><time>2026-04-21T12:08:35.998Z</time></trkpt><trkpt lat="37.05670779770147" lon="-2.390081459312395"><ele>429.0</ele><time>2026-04-21T12:08:36.998Z</time></trkpt><trkpt lat="37.05664555346557" lon="-2.3901568284802144"><ele>428.79999999999995</ele><time>2026-04-21T12:08:37.998Z</time></trkpt><trkpt lat="37.05658249841934" lon="-2.3902330850720857"><ele>428.59999999999997</ele><time>2026-04-21T12:08:38.998Z</time></trkpt><trkpt lat="37.056524502033845" lon="-2.3903122723691212"><ele>428.4</ele><time>2026-04-21T12:08:39.998Z</time></trkpt><trkpt lat="37.05646423957025" lon="-2.3903910844591296"><ele>428.2</ele><time>2026-04-21T12:08:40.998Z</time></trkpt><trkpt lat="37.056395403611916" lon="-2.390468168366505"><ele>428.0</ele><time>2026-04-21T12:08:41.998Z</time></trkpt><trkpt lat="37.05631204992675" lon="-2.3905310618385136"><ele>428.0</ele><time>2026-04-21T12:08:42.998Z</time></trkpt><trkpt lat="37.05621517757029" lon="-2.390587725890985"><ele>427.99999999999994</ele><time>2026-04-21T12:08:43.997Z</time></trkpt><trkpt lat="37.056117991046605" lon="-2.390649824479716"><ele>427.99999999999994</ele><time>2026-04-21T12:08:44.997Z</time></trkpt><trkpt lat="37.056016639989885" lon="-2.390706235605178"><ele>428.0</ele><time>2026-04-21T12:08:45.997Z</time></trkpt><trkpt lat="37.05590967858464" lon="-2.390756009024256"><ele>428.0</ele><time>2026-04-21T12:08:46.997Z</time></trkpt><trkpt lat="37.055793859844385" lon="-2.3908041148263477"><ele>426.75</ele><time>2026-04-21T12:08:47.997Z</time></trkpt><trkpt lat="37.05566740667138" lon="-2.3908549837742563"><ele>425.5</ele><time>2026-04-21T12:08:48.997Z</time></trkpt><trkpt lat="37.05553520683898" lon="-2.390907042547149"><ele>424.25</ele><time>2026-04-21T12:08:49.997Z</time></trkpt><trkpt lat="37.05540809148553" lon="-2.390960460113515"><ele>423.0</ele><time>2026-04-21T12:08:50.997Z</time></trkpt><trkpt lat="37.05529226666698" lon="-2.391021136920541"><ele>423.0</ele><time>2026-04-21T12:08:51.997Z</time></trkpt><trkpt lat="37.05518193244953" lon="-2.391074825737059"><ele>423.0</ele><time>2026-04-21T12:08:52.997Z</time></trkpt><trkpt lat="37.055088064695674" lon="-2.391141879992106"><ele>423.0</ele><time>2026-04-21T12:08:53.997Z</time></trkpt><trkpt lat="37.054990754874126" lon="-2.3912007374294504"><ele>423.0</ele><time>2026-04-21T12:08:54.997Z</time></trkpt><trkpt lat="37.05489687631385" lon="-2.391261985705267"><ele>423.0</ele><time>2026-04-21T12:08:55.997Z</time></trkpt><trkpt lat="37.054807011265574" lon="-2.391321720565466"><ele>423.0</ele><time>2026-04-21T12:08:56.997Z</time></trkpt><trkpt lat="37.05472361420919" lon="-2.3913689701735232"><ele>423.0</ele><time>2026-04-21T12:08:57.997Z</time></trkpt><trkpt lat="37.05465054363479" lon="-2.3914126072052064"><ele>423.0</ele><time>2026-04-21T12:08:58.997Z</time></trkpt><trkpt lat="37.05458784428334" lon="-2.3914564235033313"><ele>423.0</ele><time>2026-04-21T12:08:59.997Z</time></trkpt><trkpt lat="37.0545290792859" lon="-2.391497413770457"><ele>423.0</ele><time>2026-04-21T12:09:00.997Z</time></trkpt><trkpt lat="37.05446676348294" lon="-2.3915387780026047"><ele>423.0</ele><time>2026-04-21T12:09:01.997Z</time></trkpt><trkpt lat="37.054408514857236" lon="-2.3915820212552035"><ele>423.0</ele><time>2026-04-21T12:09:02.997Z</time></trkpt><trkpt lat="37.05431708088327" lon="-2.3916446474336657"><ele>423.0</ele><time>2026-04-21T12:09:04.997Z</time></trkpt><trkpt lat="37.05424385365825" lon="-2.391702255730051"><ele>423.0</ele><time>2026-04-21T12:09:06.997Z</time></trkpt><trkpt lat="37.05415998680149" lon="-2.3917759832946683"><ele>423.0</ele><time>2026-04-21T12:09:08.997Z</time></trkpt><trkpt lat="37.0540759177126" lon="-2.3918278024893302"><ele>423.0</ele><time>2026-04-21T12:09:10.997Z</time></trkpt><trkpt lat="37.05399650123864" lon="-2.391881211524541"><ele>423.0</ele><time>2026-04-21T12:09:12.997Z</time></trkpt><trkpt lat="37.05391069605755" lon="-2.39192718365915"><ele>423.0</ele><time>2026-04-21T12:09:14.997Z</time></trkpt><trkpt lat="37.053820223643946" lon="-2.391980592570837"><ele>423.0</ele><time>2026-04-21T12:09:16.997Z</time></trkpt><trkpt lat="37.053743018510346" lon="-2.3920253850780493"><ele>423.0</ele><time>2026-04-21T12:09:18.997Z</time></trkpt><trkpt lat="37.05367141966518" lon="-2.392060603842373"><ele>423.0</ele><time>2026-04-21T12:09:20.997Z</time></trkpt><trkpt lat="37.053614338911224" lon="-2.392118513776026"><ele>423.0</ele><time>2026-04-21T12:09:22.997Z</time></trkpt><trkpt lat="37.05357360023475" lon="-2.3921807846145358"><ele>424.1666666666667</ele><time>2026-04-21T12:09:24.997Z</time></trkpt><trkpt lat="37.05352389323947" lon="-2.392275390458498"><ele>425.33333333333337</ele><time>2026-04-21T12:09:27.997Z</time></trkpt><trkpt lat="37.0534614130401" lon="-2.3922926821575667"><ele>426.5</ele><time>2026-04-21T12:09:29.997Z</time></trkpt><trkpt lat="37.053378356223305" lon="-2.3923531152447857"><ele>427.6666666666667</ele><time>2026-04-21T12:09:32.997Z</time></trkpt><trkpt lat="37.053319263049175" lon="-2.3924177083368696"><ele>428.83333333333337</ele><time>2026-04-21T12:09:34.997Z</time></trkpt><trkpt lat="37.05328576343315" lon="-2.39248478196451"><ele>430.0</ele><time>2026-04-21T12:09:36.997Z</time></trkpt><trkpt lat="37.05330961176765" lon="-2.392574597532772"><ele>430.00000000000006</ele><time>2026-04-21T12:09:40.997Z</time></trkpt><trkpt lat="37.053274915894725" lon="-2.392641251982704"><ele>430.0</ele><time>2026-04-21T12:09:59.997Z</time></trkpt><trkpt lat="37.05328453570422" lon="-2.3925530664633476"><ele>430.0</ele><time>2026-04-21T12:10:27.996Z</time></trkpt><trkpt lat="37.05326746630135" lon="-2.3924604598114865"><ele>430.0</ele><time>2026-04-21T12:10:30.996Z</time></trkpt><trkpt lat="37.05328383722161" lon="-2.3923497360682857"><ele>430.00000000000006</ele><time>2026-04-21T12:10:32.996Z</time></trkpt><trkpt lat="37.053345642307306" lon="-2.3922825117085256"><ele>430.0</ele><time>2026-04-21T12:10:34.996Z</time></trkpt><trkpt lat="37.053414481631535" lon="-2.392197809122695"><ele>428.6</ele><time>2026-04-21T12:10:36.996Z</time></trkpt><trkpt lat="37.05349493905158" lon="-2.3921067892257666"><ele>427.2</ele><time>2026-04-21T12:10:38.996Z</time></trkpt><trkpt lat="37.05358004208221" lon="-2.392062089540723"><ele>425.79999999999995</ele><time>2026-04-21T12:10:40.996Z</time></trkpt><trkpt lat="37.05365570493877" lon="-2.3920243708751148"><ele>424.4</ele><time>2026-04-21T12:10:42.996Z</time></trkpt><trkpt lat="37.05374660758558" lon="-2.391998550775693"><ele>423.0</ele><time>2026-04-21T12:10:44.995Z</time></trkpt><trkpt lat="37.053800836948426" lon="-2.3920630086292243"><ele>423.0</ele><time>2026-04-21T12:10:46.995Z</time></trkpt><trkpt lat="37.05384061087013" lon="-2.3921331081296153"><ele>423.0</ele><time>2026-04-21T12:10:48.995Z</time></trkpt><trkpt lat="37.05384484685458" lon="-2.392216461245246"><ele>430.0</ele><time>2026-04-21T12:10:57.995Z</time></trkpt></trkseg></trk></gpx>